<?xml version="1.0" encoding="UTF-8"?>
<gpx version="1.1" creator="https://www.youtrack.es" xsi:schemaLocation="http://www.topografix.com/GPX/1/1 http://www.topografix.com/GPX/1/1/gpx.xsd http://www.garmin.com/xmlschemas/GpxExtensions/v3 http://www.garmin.com/xmlschemas/GpxExtensionsv3.xsd http://www.garmin.com/xmlschemas/TrackPointExtension/v1 http://www.garmin.com/xmlschemas/TrackPointExtensionv1.xsd" xmlns:gpxtpx="http://www.garmin.com/xmlschemas/TrackPointExtension/v1" xmlns:gpxx="http://www.garmin.com/xmlschemas/GpxExtensions/v3" xmlns:xsi="http://www.w3.org/2001/XMLSchema-instance">
  <metadata>
    <link href="https://www.youtrack.es">
      <text>YouTrack.es</text>
    </link>
    <time>2026-05-08T20:36:50Z</time>
  </metadata>
  <trk>
    <src>https://www.youtrack.es</src>
    <link href="https://www.youtrack.es/ruta/10206-la-ultima-del-2019">
      <text>YouTrack.es</text>
    </link>
    <trkseg>
      <trkpt lat="38.274267" lon="-0.687045">
        <ele>143.8</ele>
        <time>2019-12-31T13:14:19Z</time>
      </trkpt>
      <trkpt lat="38.274260" lon="-0.687043">
        <ele>143.8</ele>
        <time>2019-12-31T13:14:20Z</time>
      </trkpt>
      <trkpt lat="38.274253" lon="-0.687076">
        <ele>143.8</ele>
        <time>2019-12-31T13:14:21Z</time>
      </trkpt>
      <trkpt lat="38.274246" lon="-0.687097">
        <ele>143.8</ele>
        <time>2019-12-31T13:14:22Z</time>
      </trkpt>
      <trkpt lat="38.274236" lon="-0.687079">
        <ele>143.6</ele>
        <time>2019-12-31T13:14:23Z</time>
      </trkpt>
      <trkpt lat="38.274229" lon="-0.687112">
        <ele>143.6</ele>
        <time>2019-12-31T13:14:24Z</time>
      </trkpt>
      <trkpt lat="38.274222" lon="-0.687168">
        <ele>143.6</ele>
        <time>2019-12-31T13:14:25Z</time>
      </trkpt>
      <trkpt lat="38.274191" lon="-0.687279">
        <ele>143.6</ele>
        <time>2019-12-31T13:14:28Z</time>
      </trkpt>
      <trkpt lat="38.274179" lon="-0.687305">
        <ele>143.6</ele>
        <time>2019-12-31T13:14:29Z</time>
      </trkpt>
      <trkpt lat="38.274169" lon="-0.687328">
        <ele>143.6</ele>
        <time>2019-12-31T13:14:30Z</time>
      </trkpt>
      <trkpt lat="38.274159" lon="-0.687355">
        <ele>143.4</ele>
        <time>2019-12-31T13:14:31Z</time>
      </trkpt>
      <trkpt lat="38.274148" lon="-0.687389">
        <ele>143.6</ele>
        <time>2019-12-31T13:14:32Z</time>
      </trkpt>
      <trkpt lat="38.274135" lon="-0.687425">
        <ele>143.6</ele>
        <time>2019-12-31T13:14:33Z</time>
      </trkpt>
      <trkpt lat="38.274123" lon="-0.687453">
        <ele>143.6</ele>
        <time>2019-12-31T13:14:34Z</time>
      </trkpt>
      <trkpt lat="38.274111" lon="-0.687468">
        <ele>143.6</ele>
        <time>2019-12-31T13:14:35Z</time>
      </trkpt>
      <trkpt lat="38.274098" lon="-0.687488">
        <ele>143.4</ele>
        <time>2019-12-31T13:14:36Z</time>
      </trkpt>
      <trkpt lat="38.274088" lon="-0.687552">
        <ele>143.2</ele>
        <time>2019-12-31T13:14:37Z</time>
      </trkpt>
      <trkpt lat="38.274044" lon="-0.687374">
        <ele>143.2</ele>
        <time>2019-12-31T13:14:38Z</time>
      </trkpt>
      <trkpt lat="38.274011" lon="-0.687316">
        <ele>143.2</ele>
        <time>2019-12-31T13:14:39Z</time>
      </trkpt>
      <trkpt lat="38.273979" lon="-0.687280">
        <ele>143.2</ele>
        <time>2019-12-31T13:14:40Z</time>
      </trkpt>
      <trkpt lat="38.273952" lon="-0.687255">
        <ele>143.2</ele>
        <time>2019-12-31T13:14:41Z</time>
      </trkpt>
      <trkpt lat="38.273926" lon="-0.687240">
        <ele>143.2</ele>
        <time>2019-12-31T13:14:42Z</time>
      </trkpt>
      <trkpt lat="38.273907" lon="-0.687253">
        <ele>143.2</ele>
        <time>2019-12-31T13:14:43Z</time>
      </trkpt>
      <trkpt lat="38.273887" lon="-0.687255">
        <ele>143.4</ele>
        <time>2019-12-31T13:14:44Z</time>
      </trkpt>
      <trkpt lat="38.273870" lon="-0.687276">
        <ele>143.4</ele>
        <time>2019-12-31T13:14:45Z</time>
      </trkpt>
      <trkpt lat="38.273854" lon="-0.687300">
        <ele>143.2</ele>
        <time>2019-12-31T13:14:46Z</time>
      </trkpt>
      <trkpt lat="38.273840" lon="-0.687332">
        <ele>143.2</ele>
        <time>2019-12-31T13:14:47Z</time>
      </trkpt>
      <trkpt lat="38.273827" lon="-0.687376">
        <ele>143</ele>
        <time>2019-12-31T13:14:48Z</time>
      </trkpt>
      <trkpt lat="38.273811" lon="-0.687403">
        <ele>143</ele>
        <time>2019-12-31T13:14:49Z</time>
      </trkpt>
      <trkpt lat="38.273796" lon="-0.687435">
        <ele>143</ele>
        <time>2019-12-31T13:14:50Z</time>
      </trkpt>
      <trkpt lat="38.273782" lon="-0.687474">
        <ele>143</ele>
        <time>2019-12-31T13:14:51Z</time>
      </trkpt>
      <trkpt lat="38.273768" lon="-0.687517">
        <ele>143</ele>
        <time>2019-12-31T13:14:52Z</time>
      </trkpt>
      <trkpt lat="38.273753" lon="-0.687562">
        <ele>143</ele>
        <time>2019-12-31T13:14:53Z</time>
      </trkpt>
      <trkpt lat="38.273738" lon="-0.687611">
        <ele>142.8</ele>
        <time>2019-12-31T13:14:54Z</time>
      </trkpt>
      <trkpt lat="38.273727" lon="-0.687662">
        <ele>142.8</ele>
        <time>2019-12-31T13:14:55Z</time>
      </trkpt>
      <trkpt lat="38.273716" lon="-0.687714">
        <ele>142.8</ele>
        <time>2019-12-31T13:14:56Z</time>
      </trkpt>
      <trkpt lat="38.273702" lon="-0.687767">
        <ele>142.6</ele>
        <time>2019-12-31T13:14:57Z</time>
      </trkpt>
      <trkpt lat="38.273691" lon="-0.687834">
        <ele>142.8</ele>
        <time>2019-12-31T13:14:58Z</time>
      </trkpt>
      <trkpt lat="38.273680" lon="-0.687900">
        <ele>142.6</ele>
        <time>2019-12-31T13:14:59Z</time>
      </trkpt>
      <trkpt lat="38.273668" lon="-0.687969">
        <ele>142.6</ele>
        <time>2019-12-31T13:15:00Z</time>
      </trkpt>
      <trkpt lat="38.273655" lon="-0.688034">
        <ele>142.6</ele>
        <time>2019-12-31T13:15:01Z</time>
      </trkpt>
      <trkpt lat="38.273646" lon="-0.688103">
        <ele>142.4</ele>
        <time>2019-12-31T13:15:02Z</time>
      </trkpt>
      <trkpt lat="38.273635" lon="-0.688171">
        <ele>142.6</ele>
        <time>2019-12-31T13:15:03Z</time>
      </trkpt>
      <trkpt lat="38.273624" lon="-0.688238">
        <ele>142.6</ele>
        <time>2019-12-31T13:15:04Z</time>
      </trkpt>
      <trkpt lat="38.273611" lon="-0.688305">
        <ele>142.6</ele>
        <time>2019-12-31T13:15:05Z</time>
      </trkpt>
      <trkpt lat="38.273600" lon="-0.688372">
        <ele>142.6</ele>
        <time>2019-12-31T13:15:06Z</time>
      </trkpt>
      <trkpt lat="38.273586" lon="-0.688438">
        <ele>142.6</ele>
        <time>2019-12-31T13:15:07Z</time>
      </trkpt>
      <trkpt lat="38.273573" lon="-0.688500">
        <ele>142.6</ele>
        <time>2019-12-31T13:15:08Z</time>
      </trkpt>
      <trkpt lat="38.273561" lon="-0.688562">
        <ele>142.6</ele>
        <time>2019-12-31T13:15:09Z</time>
      </trkpt>
      <trkpt lat="38.273551" lon="-0.688632">
        <ele>142.6</ele>
        <time>2019-12-31T13:15:10Z</time>
      </trkpt>
      <trkpt lat="38.273539" lon="-0.688695">
        <ele>142.6</ele>
        <time>2019-12-31T13:15:11Z</time>
      </trkpt>
      <trkpt lat="38.273528" lon="-0.688761">
        <ele>142.8</ele>
        <time>2019-12-31T13:15:12Z</time>
      </trkpt>
      <trkpt lat="38.273515" lon="-0.688826">
        <ele>143</ele>
        <time>2019-12-31T13:15:13Z</time>
      </trkpt>
      <trkpt lat="38.273503" lon="-0.688893">
        <ele>143</ele>
        <time>2019-12-31T13:15:14Z</time>
      </trkpt>
      <trkpt lat="38.273490" lon="-0.688961">
        <ele>143</ele>
        <time>2019-12-31T13:15:15Z</time>
      </trkpt>
      <trkpt lat="38.273477" lon="-0.689030">
        <ele>143</ele>
        <time>2019-12-31T13:15:16Z</time>
      </trkpt>
      <trkpt lat="38.273462" lon="-0.689096">
        <ele>143</ele>
        <time>2019-12-31T13:15:17Z</time>
      </trkpt>
      <trkpt lat="38.273450" lon="-0.689168">
        <ele>143</ele>
        <time>2019-12-31T13:15:18Z</time>
      </trkpt>
      <trkpt lat="38.273436" lon="-0.689236">
        <ele>142.8</ele>
        <time>2019-12-31T13:15:19Z</time>
      </trkpt>
      <trkpt lat="38.273426" lon="-0.689313">
        <ele>143</ele>
        <time>2019-12-31T13:15:20Z</time>
      </trkpt>
      <trkpt lat="38.273426" lon="-0.689313">
        <ele>143</ele>
        <time>2019-12-31T13:15:21Z</time>
      </trkpt>
      <trkpt lat="38.273404" lon="-0.689459">
        <ele>143.2</ele>
        <time>2019-12-31T13:15:22Z</time>
      </trkpt>
      <trkpt lat="38.273391" lon="-0.689529">
        <ele>143.2</ele>
        <time>2019-12-31T13:15:23Z</time>
      </trkpt>
      <trkpt lat="38.273380" lon="-0.689603">
        <ele>143.2</ele>
        <time>2019-12-31T13:15:24Z</time>
      </trkpt>
      <trkpt lat="38.273367" lon="-0.689674">
        <ele>143.2</ele>
        <time>2019-12-31T13:15:25Z</time>
      </trkpt>
      <trkpt lat="38.273355" lon="-0.689750">
        <ele>143.2</ele>
        <time>2019-12-31T13:15:26Z</time>
      </trkpt>
      <trkpt lat="38.273341" lon="-0.689822">
        <ele>143.6</ele>
        <time>2019-12-31T13:15:27Z</time>
      </trkpt>
      <trkpt lat="38.273329" lon="-0.689896">
        <ele>143.6</ele>
        <time>2019-12-31T13:15:28Z</time>
      </trkpt>
      <trkpt lat="38.273317" lon="-0.689969">
        <ele>143.2</ele>
        <time>2019-12-31T13:15:29Z</time>
      </trkpt>
      <trkpt lat="38.273306" lon="-0.690044">
        <ele>143.4</ele>
        <time>2019-12-31T13:15:30Z</time>
      </trkpt>
      <trkpt lat="38.273292" lon="-0.690115">
        <ele>143.8</ele>
        <time>2019-12-31T13:15:31Z</time>
      </trkpt>
      <trkpt lat="38.273279" lon="-0.690189">
        <ele>143.4</ele>
        <time>2019-12-31T13:15:32Z</time>
      </trkpt>
      <trkpt lat="38.273269" lon="-0.690261">
        <ele>143.6</ele>
        <time>2019-12-31T13:15:33Z</time>
      </trkpt>
      <trkpt lat="38.273259" lon="-0.690338">
        <ele>143.8</ele>
        <time>2019-12-31T13:15:34Z</time>
      </trkpt>
      <trkpt lat="38.273247" lon="-0.690432">
        <ele>143.8</ele>
        <time>2019-12-31T13:15:35Z</time>
      </trkpt>
      <trkpt lat="38.273234" lon="-0.690504">
        <ele>144</ele>
        <time>2019-12-31T13:15:36Z</time>
      </trkpt>
      <trkpt lat="38.273222" lon="-0.690576">
        <ele>144</ele>
        <time>2019-12-31T13:15:37Z</time>
      </trkpt>
      <trkpt lat="38.273209" lon="-0.690649">
        <ele>144</ele>
        <time>2019-12-31T13:15:38Z</time>
      </trkpt>
      <trkpt lat="38.273197" lon="-0.690721">
        <ele>144.2</ele>
        <time>2019-12-31T13:15:39Z</time>
      </trkpt>
      <trkpt lat="38.273185" lon="-0.690797">
        <ele>144.2</ele>
        <time>2019-12-31T13:15:40Z</time>
      </trkpt>
      <trkpt lat="38.273173" lon="-0.690872">
        <ele>144.4</ele>
        <time>2019-12-31T13:15:41Z</time>
      </trkpt>
      <trkpt lat="38.273162" lon="-0.690949">
        <ele>144.4</ele>
        <time>2019-12-31T13:15:42Z</time>
      </trkpt>
      <trkpt lat="38.273151" lon="-0.691020">
        <ele>144.8</ele>
        <time>2019-12-31T13:15:43Z</time>
      </trkpt>
      <trkpt lat="38.273141" lon="-0.691093">
        <ele>144.6</ele>
        <time>2019-12-31T13:15:44Z</time>
      </trkpt>
      <trkpt lat="38.273137" lon="-0.691170">
        <ele>144.6</ele>
        <time>2019-12-31T13:15:45Z</time>
      </trkpt>
      <trkpt lat="38.273147" lon="-0.691243">
        <ele>144.8</ele>
        <time>2019-12-31T13:15:46Z</time>
      </trkpt>
      <trkpt lat="38.273164" lon="-0.691316">
        <ele>145</ele>
        <time>2019-12-31T13:15:47Z</time>
      </trkpt>
      <trkpt lat="38.273182" lon="-0.691388">
        <ele>145.4</ele>
        <time>2019-12-31T13:15:48Z</time>
      </trkpt>
      <trkpt lat="38.273191" lon="-0.691464">
        <ele>145.2</ele>
        <time>2019-12-31T13:15:49Z</time>
      </trkpt>
      <trkpt lat="38.273181" lon="-0.691529">
        <ele>145.2</ele>
        <time>2019-12-31T13:15:50Z</time>
      </trkpt>
      <trkpt lat="38.273152" lon="-0.691590">
        <ele>145.4</ele>
        <time>2019-12-31T13:15:51Z</time>
      </trkpt>
      <trkpt lat="38.273113" lon="-0.691647">
        <ele>145.4</ele>
        <time>2019-12-31T13:15:52Z</time>
      </trkpt>
      <trkpt lat="38.273073" lon="-0.691706">
        <ele>145.2</ele>
        <time>2019-12-31T13:15:53Z</time>
      </trkpt>
      <trkpt lat="38.273039" lon="-0.691771">
        <ele>145.2</ele>
        <time>2019-12-31T13:15:54Z</time>
      </trkpt>
      <trkpt lat="38.273018" lon="-0.691848">
        <ele>145</ele>
        <time>2019-12-31T13:15:55Z</time>
      </trkpt>
      <trkpt lat="38.273004" lon="-0.691932">
        <ele>145</ele>
        <time>2019-12-31T13:15:56Z</time>
      </trkpt>
      <trkpt lat="38.272990" lon="-0.692015">
        <ele>145.2</ele>
        <time>2019-12-31T13:15:57Z</time>
      </trkpt>
      <trkpt lat="38.272975" lon="-0.692095">
        <ele>145</ele>
        <time>2019-12-31T13:15:58Z</time>
      </trkpt>
      <trkpt lat="38.272961" lon="-0.692177">
        <ele>145</ele>
        <time>2019-12-31T13:15:59Z</time>
      </trkpt>
      <trkpt lat="38.272946" lon="-0.692255">
        <ele>145</ele>
        <time>2019-12-31T13:16:00Z</time>
      </trkpt>
      <trkpt lat="38.272933" lon="-0.692335">
        <ele>144.8</ele>
        <time>2019-12-31T13:16:01Z</time>
      </trkpt>
      <trkpt lat="38.272921" lon="-0.692417">
        <ele>144.8</ele>
        <time>2019-12-31T13:16:02Z</time>
      </trkpt>
      <trkpt lat="38.272908" lon="-0.692495">
        <ele>144.8</ele>
        <time>2019-12-31T13:16:03Z</time>
      </trkpt>
      <trkpt lat="38.272900" lon="-0.692571">
        <ele>145</ele>
        <time>2019-12-31T13:16:04Z</time>
      </trkpt>
      <trkpt lat="38.272891" lon="-0.692650">
        <ele>145</ele>
        <time>2019-12-31T13:16:05Z</time>
      </trkpt>
      <trkpt lat="38.272879" lon="-0.692727">
        <ele>145</ele>
        <time>2019-12-31T13:16:06Z</time>
      </trkpt>
      <trkpt lat="38.272865" lon="-0.692801">
        <ele>145</ele>
        <time>2019-12-31T13:16:07Z</time>
      </trkpt>
      <trkpt lat="38.272853" lon="-0.692877">
        <ele>145.2</ele>
        <time>2019-12-31T13:16:08Z</time>
      </trkpt>
      <trkpt lat="38.272841" lon="-0.692947">
        <ele>145.2</ele>
        <time>2019-12-31T13:16:09Z</time>
      </trkpt>
      <trkpt lat="38.272831" lon="-0.693018">
        <ele>145.2</ele>
        <time>2019-12-31T13:16:10Z</time>
      </trkpt>
      <trkpt lat="38.272821" lon="-0.693086">
        <ele>145</ele>
        <time>2019-12-31T13:16:11Z</time>
      </trkpt>
      <trkpt lat="38.272810" lon="-0.693147">
        <ele>145</ele>
        <time>2019-12-31T13:16:12Z</time>
      </trkpt>
      <trkpt lat="38.272797" lon="-0.693200">
        <ele>145.2</ele>
        <time>2019-12-31T13:16:13Z</time>
      </trkpt>
      <trkpt lat="38.272787" lon="-0.693233">
        <ele>145.4</ele>
        <time>2019-12-31T13:16:14Z</time>
      </trkpt>
      <trkpt lat="38.272782" lon="-0.693250">
        <ele>145.4</ele>
        <time>2019-12-31T13:16:15Z</time>
      </trkpt>
      <trkpt lat="38.272778" lon="-0.693264">
        <ele>145.4</ele>
        <time>2019-12-31T13:16:16Z</time>
      </trkpt>
      <trkpt lat="38.272722" lon="-0.692689">
        <ele>145.4</ele>
        <time>2019-12-31T13:16:20Z</time>
      </trkpt>
      <trkpt lat="38.272715" lon="-0.692711">
        <ele>145.6</ele>
        <time>2019-12-31T13:16:21Z</time>
      </trkpt>
      <trkpt lat="38.272710" lon="-0.692743">
        <ele>145.2</ele>
        <time>2019-12-31T13:16:22Z</time>
      </trkpt>
      <trkpt lat="38.272708" lon="-0.692784">
        <ele>145</ele>
        <time>2019-12-31T13:16:23Z</time>
      </trkpt>
      <trkpt lat="38.272704" lon="-0.692831">
        <ele>145</ele>
        <time>2019-12-31T13:16:24Z</time>
      </trkpt>
      <trkpt lat="38.272694" lon="-0.692884">
        <ele>145</ele>
        <time>2019-12-31T13:16:25Z</time>
      </trkpt>
      <trkpt lat="38.272684" lon="-0.692945">
        <ele>145</ele>
        <time>2019-12-31T13:16:26Z</time>
      </trkpt>
      <trkpt lat="38.272675" lon="-0.693008">
        <ele>145</ele>
        <time>2019-12-31T13:16:27Z</time>
      </trkpt>
      <trkpt lat="38.272667" lon="-0.693075">
        <ele>145.2</ele>
        <time>2019-12-31T13:16:28Z</time>
      </trkpt>
      <trkpt lat="38.272656" lon="-0.693143">
        <ele>145</ele>
        <time>2019-12-31T13:16:29Z</time>
      </trkpt>
      <trkpt lat="38.272644" lon="-0.693207">
        <ele>145</ele>
        <time>2019-12-31T13:16:30Z</time>
      </trkpt>
      <trkpt lat="38.272633" lon="-0.693280">
        <ele>145</ele>
        <time>2019-12-31T13:16:31Z</time>
      </trkpt>
      <trkpt lat="38.272622" lon="-0.693351">
        <ele>145</ele>
        <time>2019-12-31T13:16:32Z</time>
      </trkpt>
      <trkpt lat="38.272612" lon="-0.693422">
        <ele>145</ele>
        <time>2019-12-31T13:16:33Z</time>
      </trkpt>
      <trkpt lat="38.272599" lon="-0.693499">
        <ele>144.8</ele>
        <time>2019-12-31T13:16:34Z</time>
      </trkpt>
      <trkpt lat="38.272587" lon="-0.693575">
        <ele>144.8</ele>
        <time>2019-12-31T13:16:35Z</time>
      </trkpt>
      <trkpt lat="38.272577" lon="-0.693649">
        <ele>144.8</ele>
        <time>2019-12-31T13:16:36Z</time>
      </trkpt>
      <trkpt lat="38.272567" lon="-0.693718">
        <ele>144.8</ele>
        <time>2019-12-31T13:16:37Z</time>
      </trkpt>
      <trkpt lat="38.272555" lon="-0.693789">
        <ele>144.8</ele>
        <time>2019-12-31T13:16:38Z</time>
      </trkpt>
      <trkpt lat="38.272543" lon="-0.693860">
        <ele>145</ele>
        <time>2019-12-31T13:16:39Z</time>
      </trkpt>
      <trkpt lat="38.272531" lon="-0.693934">
        <ele>145</ele>
        <time>2019-12-31T13:16:40Z</time>
      </trkpt>
      <trkpt lat="38.272519" lon="-0.694009">
        <ele>144.8</ele>
        <time>2019-12-31T13:16:41Z</time>
      </trkpt>
      <trkpt lat="38.272505" lon="-0.694082">
        <ele>145</ele>
        <time>2019-12-31T13:16:42Z</time>
      </trkpt>
      <trkpt lat="38.272491" lon="-0.694155">
        <ele>144.8</ele>
        <time>2019-12-31T13:16:43Z</time>
      </trkpt>
      <trkpt lat="38.272478" lon="-0.694225">
        <ele>144.8</ele>
        <time>2019-12-31T13:16:44Z</time>
      </trkpt>
      <trkpt lat="38.272467" lon="-0.694291">
        <ele>145</ele>
        <time>2019-12-31T13:16:45Z</time>
      </trkpt>
      <trkpt lat="38.272460" lon="-0.694354">
        <ele>145.2</ele>
        <time>2019-12-31T13:16:46Z</time>
      </trkpt>
      <trkpt lat="38.272460" lon="-0.694402">
        <ele>145.6</ele>
        <time>2019-12-31T13:16:47Z</time>
      </trkpt>
      <trkpt lat="38.272466" lon="-0.694441">
        <ele>145.6</ele>
        <time>2019-12-31T13:16:48Z</time>
      </trkpt>
      <trkpt lat="38.272476" lon="-0.694477">
        <ele>145.6</ele>
        <time>2019-12-31T13:16:49Z</time>
      </trkpt>
      <trkpt lat="38.272490" lon="-0.694519">
        <ele>145.6</ele>
        <time>2019-12-31T13:16:50Z</time>
      </trkpt>
      <trkpt lat="38.272504" lon="-0.694564">
        <ele>145.4</ele>
        <time>2019-12-31T13:16:51Z</time>
      </trkpt>
      <trkpt lat="38.272517" lon="-0.694613">
        <ele>145.6</ele>
        <time>2019-12-31T13:16:52Z</time>
      </trkpt>
      <trkpt lat="38.272534" lon="-0.694662">
        <ele>145.8</ele>
        <time>2019-12-31T13:16:53Z</time>
      </trkpt>
      <trkpt lat="38.272559" lon="-0.694710">
        <ele>146</ele>
        <time>2019-12-31T13:16:54Z</time>
      </trkpt>
      <trkpt lat="38.272595" lon="-0.694752">
        <ele>146</ele>
        <time>2019-12-31T13:16:55Z</time>
      </trkpt>
      <trkpt lat="38.272641" lon="-0.694780">
        <ele>146.2</ele>
        <time>2019-12-31T13:16:56Z</time>
      </trkpt>
      <trkpt lat="38.272692" lon="-0.694798">
        <ele>146.2</ele>
        <time>2019-12-31T13:16:57Z</time>
      </trkpt>
      <trkpt lat="38.272743" lon="-0.694817">
        <ele>146.2</ele>
        <time>2019-12-31T13:16:58Z</time>
      </trkpt>
      <trkpt lat="38.272797" lon="-0.694835">
        <ele>146.4</ele>
        <time>2019-12-31T13:16:59Z</time>
      </trkpt>
      <trkpt lat="38.272853" lon="-0.694853">
        <ele>146.4</ele>
        <time>2019-12-31T13:17:00Z</time>
      </trkpt>
      <trkpt lat="38.272905" lon="-0.694879">
        <ele>146.8</ele>
        <time>2019-12-31T13:17:01Z</time>
      </trkpt>
      <trkpt lat="38.272961" lon="-0.694898">
        <ele>146.8</ele>
        <time>2019-12-31T13:17:02Z</time>
      </trkpt>
      <trkpt lat="38.273016" lon="-0.694914">
        <ele>147</ele>
        <time>2019-12-31T13:17:03Z</time>
      </trkpt>
      <trkpt lat="38.273072" lon="-0.694933">
        <ele>147</ele>
        <time>2019-12-31T13:17:04Z</time>
      </trkpt>
      <trkpt lat="38.273128" lon="-0.694951">
        <ele>147</ele>
        <time>2019-12-31T13:17:05Z</time>
      </trkpt>
      <trkpt lat="38.273182" lon="-0.694971">
        <ele>147.2</ele>
        <time>2019-12-31T13:17:06Z</time>
      </trkpt>
      <trkpt lat="38.273240" lon="-0.694994">
        <ele>147.2</ele>
        <time>2019-12-31T13:17:07Z</time>
      </trkpt>
      <trkpt lat="38.273300" lon="-0.695014">
        <ele>147.2</ele>
        <time>2019-12-31T13:17:08Z</time>
      </trkpt>
      <trkpt lat="38.273358" lon="-0.695034">
        <ele>147.2</ele>
        <time>2019-12-31T13:17:09Z</time>
      </trkpt>
      <trkpt lat="38.273414" lon="-0.695054">
        <ele>147.2</ele>
        <time>2019-12-31T13:17:10Z</time>
      </trkpt>
      <trkpt lat="38.273471" lon="-0.695076">
        <ele>147.2</ele>
        <time>2019-12-31T13:17:11Z</time>
      </trkpt>
      <trkpt lat="38.273531" lon="-0.695099">
        <ele>147</ele>
        <time>2019-12-31T13:17:12Z</time>
      </trkpt>
      <trkpt lat="38.273592" lon="-0.695123">
        <ele>147</ele>
        <time>2019-12-31T13:17:13Z</time>
      </trkpt>
      <trkpt lat="38.273651" lon="-0.695145">
        <ele>147</ele>
        <time>2019-12-31T13:17:14Z</time>
      </trkpt>
      <trkpt lat="38.273714" lon="-0.695165">
        <ele>147.2</ele>
        <time>2019-12-31T13:17:15Z</time>
      </trkpt>
      <trkpt lat="38.273779" lon="-0.695180">
        <ele>147</ele>
        <time>2019-12-31T13:17:16Z</time>
      </trkpt>
      <trkpt lat="38.273845" lon="-0.695189">
        <ele>147.2</ele>
        <time>2019-12-31T13:17:17Z</time>
      </trkpt>
      <trkpt lat="38.273909" lon="-0.695198">
        <ele>147.4</ele>
        <time>2019-12-31T13:17:18Z</time>
      </trkpt>
      <trkpt lat="38.273975" lon="-0.695203">
        <ele>147.2</ele>
        <time>2019-12-31T13:17:19Z</time>
      </trkpt>
      <trkpt lat="38.274042" lon="-0.695208">
        <ele>147.4</ele>
        <time>2019-12-31T13:17:20Z</time>
      </trkpt>
      <trkpt lat="38.274109" lon="-0.695221">
        <ele>147.4</ele>
        <time>2019-12-31T13:17:21Z</time>
      </trkpt>
      <trkpt lat="38.274173" lon="-0.695244">
        <ele>147.6</ele>
        <time>2019-12-31T13:17:22Z</time>
      </trkpt>
      <trkpt lat="38.274233" lon="-0.695278">
        <ele>147.6</ele>
        <time>2019-12-31T13:17:23Z</time>
      </trkpt>
      <trkpt lat="38.274291" lon="-0.695319">
        <ele>147.8</ele>
        <time>2019-12-31T13:17:24Z</time>
      </trkpt>
      <trkpt lat="38.274350" lon="-0.695362">
        <ele>148</ele>
        <time>2019-12-31T13:17:25Z</time>
      </trkpt>
      <trkpt lat="38.274408" lon="-0.695406">
        <ele>148</ele>
        <time>2019-12-31T13:17:26Z</time>
      </trkpt>
      <trkpt lat="38.274464" lon="-0.695454">
        <ele>148</ele>
        <time>2019-12-31T13:17:27Z</time>
      </trkpt>
      <trkpt lat="38.274519" lon="-0.695497">
        <ele>148</ele>
        <time>2019-12-31T13:17:28Z</time>
      </trkpt>
      <trkpt lat="38.274576" lon="-0.695548">
        <ele>148</ele>
        <time>2019-12-31T13:17:29Z</time>
      </trkpt>
      <trkpt lat="38.274634" lon="-0.695596">
        <ele>148.4</ele>
        <time>2019-12-31T13:17:30Z</time>
      </trkpt>
      <trkpt lat="38.274689" lon="-0.695643">
        <ele>148.4</ele>
        <time>2019-12-31T13:17:31Z</time>
      </trkpt>
      <trkpt lat="38.274746" lon="-0.695694">
        <ele>148.4</ele>
        <time>2019-12-31T13:17:32Z</time>
      </trkpt>
      <trkpt lat="38.274803" lon="-0.695738">
        <ele>148.6</ele>
        <time>2019-12-31T13:17:33Z</time>
      </trkpt>
      <trkpt lat="38.274860" lon="-0.695786">
        <ele>148.6</ele>
        <time>2019-12-31T13:17:34Z</time>
      </trkpt>
      <trkpt lat="38.274919" lon="-0.695834">
        <ele>148.6</ele>
        <time>2019-12-31T13:17:35Z</time>
      </trkpt>
      <trkpt lat="38.274979" lon="-0.695881">
        <ele>148.8</ele>
        <time>2019-12-31T13:17:36Z</time>
      </trkpt>
      <trkpt lat="38.275040" lon="-0.695927">
        <ele>148.8</ele>
        <time>2019-12-31T13:17:37Z</time>
      </trkpt>
      <trkpt lat="38.275100" lon="-0.695971">
        <ele>148.8</ele>
        <time>2019-12-31T13:17:38Z</time>
      </trkpt>
      <trkpt lat="38.275161" lon="-0.696015">
        <ele>148.8</ele>
        <time>2019-12-31T13:17:39Z</time>
      </trkpt>
      <trkpt lat="38.275224" lon="-0.696059">
        <ele>148.8</ele>
        <time>2019-12-31T13:17:40Z</time>
      </trkpt>
      <trkpt lat="38.275287" lon="-0.696103">
        <ele>149</ele>
        <time>2019-12-31T13:17:41Z</time>
      </trkpt>
      <trkpt lat="38.275352" lon="-0.696145">
        <ele>149.2</ele>
        <time>2019-12-31T13:17:42Z</time>
      </trkpt>
      <trkpt lat="38.275418" lon="-0.696187">
        <ele>149.2</ele>
        <time>2019-12-31T13:17:43Z</time>
      </trkpt>
      <trkpt lat="38.275482" lon="-0.696228">
        <ele>149</ele>
        <time>2019-12-31T13:17:44Z</time>
      </trkpt>
      <trkpt lat="38.275548" lon="-0.696267">
        <ele>149.2</ele>
        <time>2019-12-31T13:17:45Z</time>
      </trkpt>
      <trkpt lat="38.275616" lon="-0.696303">
        <ele>149.4</ele>
        <time>2019-12-31T13:17:46Z</time>
      </trkpt>
      <trkpt lat="38.275685" lon="-0.696335">
        <ele>149.6</ele>
        <time>2019-12-31T13:17:47Z</time>
      </trkpt>
      <trkpt lat="38.275756" lon="-0.696361">
        <ele>149.6</ele>
        <time>2019-12-31T13:17:48Z</time>
      </trkpt>
      <trkpt lat="38.275828" lon="-0.696378">
        <ele>149.6</ele>
        <time>2019-12-31T13:17:49Z</time>
      </trkpt>
      <trkpt lat="38.275900" lon="-0.696386">
        <ele>149.6</ele>
        <time>2019-12-31T13:17:50Z</time>
      </trkpt>
      <trkpt lat="38.275972" lon="-0.696384">
        <ele>149.8</ele>
        <time>2019-12-31T13:17:51Z</time>
      </trkpt>
      <trkpt lat="38.276044" lon="-0.696376">
        <ele>149.8</ele>
        <time>2019-12-31T13:17:52Z</time>
      </trkpt>
      <trkpt lat="38.276117" lon="-0.696361">
        <ele>149.8</ele>
        <time>2019-12-31T13:17:53Z</time>
      </trkpt>
      <trkpt lat="38.276188" lon="-0.696345">
        <ele>150</ele>
        <time>2019-12-31T13:17:54Z</time>
      </trkpt>
      <trkpt lat="38.276259" lon="-0.696327">
        <ele>150</ele>
        <time>2019-12-31T13:17:55Z</time>
      </trkpt>
      <trkpt lat="38.276329" lon="-0.696308">
        <ele>150.2</ele>
        <time>2019-12-31T13:17:56Z</time>
      </trkpt>
      <trkpt lat="38.276399" lon="-0.696288">
        <ele>150.2</ele>
        <time>2019-12-31T13:17:57Z</time>
      </trkpt>
      <trkpt lat="38.276470" lon="-0.696265">
        <ele>150.4</ele>
        <time>2019-12-31T13:17:58Z</time>
      </trkpt>
      <trkpt lat="38.276541" lon="-0.696241">
        <ele>150.2</ele>
        <time>2019-12-31T13:17:59Z</time>
      </trkpt>
      <trkpt lat="38.276608" lon="-0.696220">
        <ele>150.2</ele>
        <time>2019-12-31T13:18:00Z</time>
      </trkpt>
      <trkpt lat="38.276671" lon="-0.696200">
        <ele>150.4</ele>
        <time>2019-12-31T13:18:01Z</time>
      </trkpt>
      <trkpt lat="38.276740" lon="-0.696187">
        <ele>150.6</ele>
        <time>2019-12-31T13:18:02Z</time>
      </trkpt>
      <trkpt lat="38.276807" lon="-0.696178">
        <ele>150.4</ele>
        <time>2019-12-31T13:18:03Z</time>
      </trkpt>
      <trkpt lat="38.276878" lon="-0.696168">
        <ele>150.4</ele>
        <time>2019-12-31T13:18:04Z</time>
      </trkpt>
      <trkpt lat="38.276952" lon="-0.696166">
        <ele>150.4</ele>
        <time>2019-12-31T13:18:05Z</time>
      </trkpt>
      <trkpt lat="38.277025" lon="-0.696165">
        <ele>150.4</ele>
        <time>2019-12-31T13:18:06Z</time>
      </trkpt>
      <trkpt lat="38.277098" lon="-0.696167">
        <ele>150.4</ele>
        <time>2019-12-31T13:18:07Z</time>
      </trkpt>
      <trkpt lat="38.277170" lon="-0.696169">
        <ele>150.6</ele>
        <time>2019-12-31T13:18:08Z</time>
      </trkpt>
      <trkpt lat="38.277245" lon="-0.696166">
        <ele>150.6</ele>
        <time>2019-12-31T13:18:09Z</time>
      </trkpt>
      <trkpt lat="38.277320" lon="-0.696168">
        <ele>150.6</ele>
        <time>2019-12-31T13:18:10Z</time>
      </trkpt>
      <trkpt lat="38.277394" lon="-0.696173">
        <ele>150.8</ele>
        <time>2019-12-31T13:18:11Z</time>
      </trkpt>
      <trkpt lat="38.277467" lon="-0.696178">
        <ele>151</ele>
        <time>2019-12-31T13:18:12Z</time>
      </trkpt>
      <trkpt lat="38.277540" lon="-0.696184">
        <ele>151.4</ele>
        <time>2019-12-31T13:18:13Z</time>
      </trkpt>
      <trkpt lat="38.277612" lon="-0.696192">
        <ele>151.8</ele>
        <time>2019-12-31T13:18:14Z</time>
      </trkpt>
      <trkpt lat="38.277683" lon="-0.696209">
        <ele>151.8</ele>
        <time>2019-12-31T13:18:15Z</time>
      </trkpt>
      <trkpt lat="38.277754" lon="-0.696234">
        <ele>152</ele>
        <time>2019-12-31T13:18:16Z</time>
      </trkpt>
      <trkpt lat="38.277825" lon="-0.696264">
        <ele>152</ele>
        <time>2019-12-31T13:18:17Z</time>
      </trkpt>
      <trkpt lat="38.277895" lon="-0.696296">
        <ele>152</ele>
        <time>2019-12-31T13:18:18Z</time>
      </trkpt>
      <trkpt lat="38.277964" lon="-0.696327">
        <ele>152.2</ele>
        <time>2019-12-31T13:18:19Z</time>
      </trkpt>
      <trkpt lat="38.278033" lon="-0.696355">
        <ele>152.2</ele>
        <time>2019-12-31T13:18:20Z</time>
      </trkpt>
      <trkpt lat="38.278103" lon="-0.696383">
        <ele>152.2</ele>
        <time>2019-12-31T13:18:21Z</time>
      </trkpt>
      <trkpt lat="38.278171" lon="-0.696409">
        <ele>152.4</ele>
        <time>2019-12-31T13:18:22Z</time>
      </trkpt>
      <trkpt lat="38.278240" lon="-0.696433">
        <ele>152.6</ele>
        <time>2019-12-31T13:18:23Z</time>
      </trkpt>
      <trkpt lat="38.278310" lon="-0.696456">
        <ele>152.8</ele>
        <time>2019-12-31T13:18:24Z</time>
      </trkpt>
      <trkpt lat="38.278379" lon="-0.696474">
        <ele>152.6</ele>
        <time>2019-12-31T13:18:25Z</time>
      </trkpt>
      <trkpt lat="38.278448" lon="-0.696489">
        <ele>152.8</ele>
        <time>2019-12-31T13:18:26Z</time>
      </trkpt>
      <trkpt lat="38.278517" lon="-0.696507">
        <ele>152.8</ele>
        <time>2019-12-31T13:18:27Z</time>
      </trkpt>
      <trkpt lat="38.278585" lon="-0.696526">
        <ele>153</ele>
        <time>2019-12-31T13:18:28Z</time>
      </trkpt>
      <trkpt lat="38.278652" lon="-0.696546">
        <ele>153</ele>
        <time>2019-12-31T13:18:29Z</time>
      </trkpt>
      <trkpt lat="38.278720" lon="-0.696569">
        <ele>153.2</ele>
        <time>2019-12-31T13:18:30Z</time>
      </trkpt>
      <trkpt lat="38.278785" lon="-0.696592">
        <ele>153.2</ele>
        <time>2019-12-31T13:18:31Z</time>
      </trkpt>
      <trkpt lat="38.278850" lon="-0.696614">
        <ele>153.4</ele>
        <time>2019-12-31T13:18:32Z</time>
      </trkpt>
      <trkpt lat="38.278913" lon="-0.696637">
        <ele>153.6</ele>
        <time>2019-12-31T13:18:33Z</time>
      </trkpt>
      <trkpt lat="38.278976" lon="-0.696657">
        <ele>153.6</ele>
        <time>2019-12-31T13:18:34Z</time>
      </trkpt>
      <trkpt lat="38.279038" lon="-0.696676">
        <ele>153.8</ele>
        <time>2019-12-31T13:18:35Z</time>
      </trkpt>
      <trkpt lat="38.279099" lon="-0.696691">
        <ele>154.2</ele>
        <time>2019-12-31T13:18:36Z</time>
      </trkpt>
      <trkpt lat="38.279159" lon="-0.696704">
        <ele>154.4</ele>
        <time>2019-12-31T13:18:37Z</time>
      </trkpt>
      <trkpt lat="38.279215" lon="-0.696707">
        <ele>154.6</ele>
        <time>2019-12-31T13:18:38Z</time>
      </trkpt>
      <trkpt lat="38.279270" lon="-0.696694">
        <ele>155</ele>
        <time>2019-12-31T13:18:39Z</time>
      </trkpt>
      <trkpt lat="38.279316" lon="-0.696666">
        <ele>155</ele>
        <time>2019-12-31T13:18:40Z</time>
      </trkpt>
      <trkpt lat="38.279350" lon="-0.696623">
        <ele>155.4</ele>
        <time>2019-12-31T13:18:41Z</time>
      </trkpt>
      <trkpt lat="38.279373" lon="-0.696567">
        <ele>155.6</ele>
        <time>2019-12-31T13:18:42Z</time>
      </trkpt>
      <trkpt lat="38.279387" lon="-0.696505">
        <ele>155.4</ele>
        <time>2019-12-31T13:18:43Z</time>
      </trkpt>
      <trkpt lat="38.279401" lon="-0.696438">
        <ele>155.4</ele>
        <time>2019-12-31T13:18:44Z</time>
      </trkpt>
      <trkpt lat="38.279420" lon="-0.696367">
        <ele>155.4</ele>
        <time>2019-12-31T13:18:45Z</time>
      </trkpt>
      <trkpt lat="38.279445" lon="-0.696295">
        <ele>155.6</ele>
        <time>2019-12-31T13:18:46Z</time>
      </trkpt>
      <trkpt lat="38.279479" lon="-0.696225">
        <ele>155.6</ele>
        <time>2019-12-31T13:18:47Z</time>
      </trkpt>
      <trkpt lat="38.279523" lon="-0.696161">
        <ele>155.6</ele>
        <time>2019-12-31T13:18:48Z</time>
      </trkpt>
      <trkpt lat="38.279576" lon="-0.696106">
        <ele>156</ele>
        <time>2019-12-31T13:18:49Z</time>
      </trkpt>
      <trkpt lat="38.279636" lon="-0.696060">
        <ele>156</ele>
        <time>2019-12-31T13:18:50Z</time>
      </trkpt>
      <trkpt lat="38.279701" lon="-0.696030">
        <ele>156.2</ele>
        <time>2019-12-31T13:18:51Z</time>
      </trkpt>
      <trkpt lat="38.279767" lon="-0.696020">
        <ele>156.4</ele>
        <time>2019-12-31T13:18:52Z</time>
      </trkpt>
      <trkpt lat="38.279833" lon="-0.696027">
        <ele>156.6</ele>
        <time>2019-12-31T13:18:53Z</time>
      </trkpt>
      <trkpt lat="38.279893" lon="-0.696050">
        <ele>156.4</ele>
        <time>2019-12-31T13:18:54Z</time>
      </trkpt>
      <trkpt lat="38.279950" lon="-0.696085">
        <ele>156.6</ele>
        <time>2019-12-31T13:18:55Z</time>
      </trkpt>
      <trkpt lat="38.280002" lon="-0.696129">
        <ele>156.8</ele>
        <time>2019-12-31T13:18:56Z</time>
      </trkpt>
      <trkpt lat="38.280049" lon="-0.696183">
        <ele>156.8</ele>
        <time>2019-12-31T13:18:57Z</time>
      </trkpt>
      <trkpt lat="38.280087" lon="-0.696247">
        <ele>156.8</ele>
        <time>2019-12-31T13:18:58Z</time>
      </trkpt>
      <trkpt lat="38.280114" lon="-0.696318">
        <ele>156.6</ele>
        <time>2019-12-31T13:18:59Z</time>
      </trkpt>
      <trkpt lat="38.280131" lon="-0.696398">
        <ele>156.6</ele>
        <time>2019-12-31T13:19:00Z</time>
      </trkpt>
      <trkpt lat="38.280135" lon="-0.696483">
        <ele>156.6</ele>
        <time>2019-12-31T13:19:01Z</time>
      </trkpt>
      <trkpt lat="38.280128" lon="-0.696568">
        <ele>156.6</ele>
        <time>2019-12-31T13:19:02Z</time>
      </trkpt>
      <trkpt lat="38.280108" lon="-0.696651">
        <ele>156.6</ele>
        <time>2019-12-31T13:19:03Z</time>
      </trkpt>
      <trkpt lat="38.280073" lon="-0.696730">
        <ele>156.4</ele>
        <time>2019-12-31T13:19:04Z</time>
      </trkpt>
      <trkpt lat="38.280032" lon="-0.696799">
        <ele>156.4</ele>
        <time>2019-12-31T13:19:05Z</time>
      </trkpt>
      <trkpt lat="38.279983" lon="-0.696867">
        <ele>156.4</ele>
        <time>2019-12-31T13:19:06Z</time>
      </trkpt>
      <trkpt lat="38.279932" lon="-0.696931">
        <ele>156.2</ele>
        <time>2019-12-31T13:19:07Z</time>
      </trkpt>
      <trkpt lat="38.279884" lon="-0.697002">
        <ele>155.8</ele>
        <time>2019-12-31T13:19:08Z</time>
      </trkpt>
      <trkpt lat="38.279844" lon="-0.697082">
        <ele>155.8</ele>
        <time>2019-12-31T13:19:09Z</time>
      </trkpt>
      <trkpt lat="38.279816" lon="-0.697169">
        <ele>155.8</ele>
        <time>2019-12-31T13:19:10Z</time>
      </trkpt>
      <trkpt lat="38.279798" lon="-0.697261">
        <ele>155.6</ele>
        <time>2019-12-31T13:19:11Z</time>
      </trkpt>
      <trkpt lat="38.279789" lon="-0.697358">
        <ele>155.6</ele>
        <time>2019-12-31T13:19:12Z</time>
      </trkpt>
      <trkpt lat="38.279784" lon="-0.697456">
        <ele>155.6</ele>
        <time>2019-12-31T13:19:13Z</time>
      </trkpt>
      <trkpt lat="38.279780" lon="-0.697553">
        <ele>155.6</ele>
        <time>2019-12-31T13:19:14Z</time>
      </trkpt>
      <trkpt lat="38.279776" lon="-0.697651">
        <ele>155.4</ele>
        <time>2019-12-31T13:19:15Z</time>
      </trkpt>
      <trkpt lat="38.279770" lon="-0.697748">
        <ele>155.2</ele>
        <time>2019-12-31T13:19:16Z</time>
      </trkpt>
      <trkpt lat="38.279764" lon="-0.697845">
        <ele>155.6</ele>
        <time>2019-12-31T13:19:17Z</time>
      </trkpt>
      <trkpt lat="38.279758" lon="-0.697943">
        <ele>155.4</ele>
        <time>2019-12-31T13:19:18Z</time>
      </trkpt>
      <trkpt lat="38.279753" lon="-0.698039">
        <ele>155.4</ele>
        <time>2019-12-31T13:19:19Z</time>
      </trkpt>
      <trkpt lat="38.279747" lon="-0.698132">
        <ele>155.2</ele>
        <time>2019-12-31T13:19:20Z</time>
      </trkpt>
      <trkpt lat="38.279740" lon="-0.698228">
        <ele>155.8</ele>
        <time>2019-12-31T13:19:21Z</time>
      </trkpt>
      <trkpt lat="38.279733" lon="-0.698324">
        <ele>155.8</ele>
        <time>2019-12-31T13:19:22Z</time>
      </trkpt>
      <trkpt lat="38.279727" lon="-0.698421">
        <ele>155.4</ele>
        <time>2019-12-31T13:19:23Z</time>
      </trkpt>
      <trkpt lat="38.279720" lon="-0.698519">
        <ele>155.6</ele>
        <time>2019-12-31T13:19:24Z</time>
      </trkpt>
      <trkpt lat="38.279713" lon="-0.698618">
        <ele>155.6</ele>
        <time>2019-12-31T13:19:25Z</time>
      </trkpt>
      <trkpt lat="38.279705" lon="-0.698718">
        <ele>155.4</ele>
        <time>2019-12-31T13:19:26Z</time>
      </trkpt>
      <trkpt lat="38.279698" lon="-0.698822">
        <ele>155.4</ele>
        <time>2019-12-31T13:19:27Z</time>
      </trkpt>
      <trkpt lat="38.279690" lon="-0.698923">
        <ele>155.4</ele>
        <time>2019-12-31T13:19:28Z</time>
      </trkpt>
      <trkpt lat="38.279684" lon="-0.699026">
        <ele>155.8</ele>
        <time>2019-12-31T13:19:29Z</time>
      </trkpt>
      <trkpt lat="38.279675" lon="-0.699127">
        <ele>155.4</ele>
        <time>2019-12-31T13:19:30Z</time>
      </trkpt>
      <trkpt lat="38.279666" lon="-0.699227">
        <ele>155.4</ele>
        <time>2019-12-31T13:19:31Z</time>
      </trkpt>
      <trkpt lat="38.279658" lon="-0.699327">
        <ele>155.2</ele>
        <time>2019-12-31T13:19:32Z</time>
      </trkpt>
      <trkpt lat="38.279651" lon="-0.699429">
        <ele>155.4</ele>
        <time>2019-12-31T13:19:33Z</time>
      </trkpt>
      <trkpt lat="38.279642" lon="-0.699528">
        <ele>155.6</ele>
        <time>2019-12-31T13:19:34Z</time>
      </trkpt>
      <trkpt lat="38.279633" lon="-0.699626">
        <ele>155.6</ele>
        <time>2019-12-31T13:19:35Z</time>
      </trkpt>
      <trkpt lat="38.279624" lon="-0.699723">
        <ele>155.6</ele>
        <time>2019-12-31T13:19:36Z</time>
      </trkpt>
      <trkpt lat="38.279616" lon="-0.699820">
        <ele>155.8</ele>
        <time>2019-12-31T13:19:37Z</time>
      </trkpt>
      <trkpt lat="38.279608" lon="-0.699917">
        <ele>155.8</ele>
        <time>2019-12-31T13:19:38Z</time>
      </trkpt>
      <trkpt lat="38.279599" lon="-0.700013">
        <ele>156</ele>
        <time>2019-12-31T13:19:39Z</time>
      </trkpt>
      <trkpt lat="38.279591" lon="-0.700107">
        <ele>156</ele>
        <time>2019-12-31T13:19:40Z</time>
      </trkpt>
      <trkpt lat="38.279584" lon="-0.700200">
        <ele>156.8</ele>
        <time>2019-12-31T13:19:41Z</time>
      </trkpt>
      <trkpt lat="38.279575" lon="-0.700290">
        <ele>156.6</ele>
        <time>2019-12-31T13:19:42Z</time>
      </trkpt>
      <trkpt lat="38.279567" lon="-0.700381">
        <ele>157</ele>
        <time>2019-12-31T13:19:43Z</time>
      </trkpt>
      <trkpt lat="38.279559" lon="-0.700471">
        <ele>157.2</ele>
        <time>2019-12-31T13:19:44Z</time>
      </trkpt>
      <trkpt lat="38.279552" lon="-0.700561">
        <ele>157.4</ele>
        <time>2019-12-31T13:19:45Z</time>
      </trkpt>
      <trkpt lat="38.279544" lon="-0.700650">
        <ele>157.6</ele>
        <time>2019-12-31T13:19:46Z</time>
      </trkpt>
      <trkpt lat="38.279537" lon="-0.700739">
        <ele>157.8</ele>
        <time>2019-12-31T13:19:47Z</time>
      </trkpt>
      <trkpt lat="38.279528" lon="-0.700829">
        <ele>157.6</ele>
        <time>2019-12-31T13:19:48Z</time>
      </trkpt>
      <trkpt lat="38.279520" lon="-0.700918">
        <ele>158</ele>
        <time>2019-12-31T13:19:49Z</time>
      </trkpt>
      <trkpt lat="38.279511" lon="-0.701005">
        <ele>158.4</ele>
        <time>2019-12-31T13:19:50Z</time>
      </trkpt>
      <trkpt lat="38.279504" lon="-0.701092">
        <ele>158.6</ele>
        <time>2019-12-31T13:19:51Z</time>
      </trkpt>
      <trkpt lat="38.279497" lon="-0.701175">
        <ele>158.8</ele>
        <time>2019-12-31T13:19:52Z</time>
      </trkpt>
      <trkpt lat="38.279488" lon="-0.701259">
        <ele>159</ele>
        <time>2019-12-31T13:19:53Z</time>
      </trkpt>
      <trkpt lat="38.279480" lon="-0.701345">
        <ele>159.2</ele>
        <time>2019-12-31T13:19:54Z</time>
      </trkpt>
      <trkpt lat="38.279472" lon="-0.701429">
        <ele>159.4</ele>
        <time>2019-12-31T13:19:55Z</time>
      </trkpt>
      <trkpt lat="38.279468" lon="-0.701510">
        <ele>159.6</ele>
        <time>2019-12-31T13:19:56Z</time>
      </trkpt>
      <trkpt lat="38.279465" lon="-0.701590">
        <ele>160</ele>
        <time>2019-12-31T13:19:57Z</time>
      </trkpt>
      <trkpt lat="38.279459" lon="-0.701669">
        <ele>160.2</ele>
        <time>2019-12-31T13:19:58Z</time>
      </trkpt>
      <trkpt lat="38.279453" lon="-0.701747">
        <ele>160.2</ele>
        <time>2019-12-31T13:19:59Z</time>
      </trkpt>
      <trkpt lat="38.279447" lon="-0.701825">
        <ele>160.6</ele>
        <time>2019-12-31T13:20:00Z</time>
      </trkpt>
      <trkpt lat="38.279441" lon="-0.701906">
        <ele>160.8</ele>
        <time>2019-12-31T13:20:01Z</time>
      </trkpt>
      <trkpt lat="38.279434" lon="-0.701988">
        <ele>161</ele>
        <time>2019-12-31T13:20:02Z</time>
      </trkpt>
      <trkpt lat="38.279425" lon="-0.702068">
        <ele>161.2</ele>
        <time>2019-12-31T13:20:03Z</time>
      </trkpt>
      <trkpt lat="38.279418" lon="-0.702147">
        <ele>161.4</ele>
        <time>2019-12-31T13:20:04Z</time>
      </trkpt>
      <trkpt lat="38.279412" lon="-0.702226">
        <ele>161.4</ele>
        <time>2019-12-31T13:20:05Z</time>
      </trkpt>
      <trkpt lat="38.279405" lon="-0.702305">
        <ele>161.8</ele>
        <time>2019-12-31T13:20:06Z</time>
      </trkpt>
      <trkpt lat="38.279398" lon="-0.702384">
        <ele>162</ele>
        <time>2019-12-31T13:20:07Z</time>
      </trkpt>
      <trkpt lat="38.279390" lon="-0.702460">
        <ele>162.4</ele>
        <time>2019-12-31T13:20:08Z</time>
      </trkpt>
      <trkpt lat="38.279383" lon="-0.702538">
        <ele>162.2</ele>
        <time>2019-12-31T13:20:09Z</time>
      </trkpt>
      <trkpt lat="38.279376" lon="-0.702617">
        <ele>162.4</ele>
        <time>2019-12-31T13:20:10Z</time>
      </trkpt>
      <trkpt lat="38.279368" lon="-0.702696">
        <ele>162.8</ele>
        <time>2019-12-31T13:20:11Z</time>
      </trkpt>
      <trkpt lat="38.279361" lon="-0.702771">
        <ele>162.8</ele>
        <time>2019-12-31T13:20:12Z</time>
      </trkpt>
      <trkpt lat="38.279354" lon="-0.702848">
        <ele>163.2</ele>
        <time>2019-12-31T13:20:13Z</time>
      </trkpt>
      <trkpt lat="38.279347" lon="-0.702925">
        <ele>163.4</ele>
        <time>2019-12-31T13:20:14Z</time>
      </trkpt>
      <trkpt lat="38.279342" lon="-0.703000">
        <ele>163.4</ele>
        <time>2019-12-31T13:20:15Z</time>
      </trkpt>
      <trkpt lat="38.279338" lon="-0.703077">
        <ele>163.6</ele>
        <time>2019-12-31T13:20:16Z</time>
      </trkpt>
      <trkpt lat="38.279343" lon="-0.703151">
        <ele>163.8</ele>
        <time>2019-12-31T13:20:17Z</time>
      </trkpt>
      <trkpt lat="38.279356" lon="-0.703223">
        <ele>163.8</ele>
        <time>2019-12-31T13:20:18Z</time>
      </trkpt>
      <trkpt lat="38.279375" lon="-0.703295">
        <ele>164.2</ele>
        <time>2019-12-31T13:20:19Z</time>
      </trkpt>
      <trkpt lat="38.279400" lon="-0.703361">
        <ele>164.2</ele>
        <time>2019-12-31T13:20:20Z</time>
      </trkpt>
      <trkpt lat="38.279427" lon="-0.703425">
        <ele>164.2</ele>
        <time>2019-12-31T13:20:21Z</time>
      </trkpt>
      <trkpt lat="38.279456" lon="-0.703488">
        <ele>164.4</ele>
        <time>2019-12-31T13:20:22Z</time>
      </trkpt>
      <trkpt lat="38.279483" lon="-0.703554">
        <ele>164.6</ele>
        <time>2019-12-31T13:20:23Z</time>
      </trkpt>
      <trkpt lat="38.279508" lon="-0.703621">
        <ele>164.8</ele>
        <time>2019-12-31T13:20:24Z</time>
      </trkpt>
      <trkpt lat="38.279533" lon="-0.703688">
        <ele>165</ele>
        <time>2019-12-31T13:20:25Z</time>
      </trkpt>
      <trkpt lat="38.279565" lon="-0.703751">
        <ele>165</ele>
        <time>2019-12-31T13:20:26Z</time>
      </trkpt>
      <trkpt lat="38.279606" lon="-0.703803">
        <ele>165.2</ele>
        <time>2019-12-31T13:20:27Z</time>
      </trkpt>
      <trkpt lat="38.279653" lon="-0.703849">
        <ele>165.2</ele>
        <time>2019-12-31T13:20:28Z</time>
      </trkpt>
      <trkpt lat="38.279705" lon="-0.703894">
        <ele>165.2</ele>
        <time>2019-12-31T13:20:29Z</time>
      </trkpt>
      <trkpt lat="38.279759" lon="-0.703935">
        <ele>165.2</ele>
        <time>2019-12-31T13:20:30Z</time>
      </trkpt>
      <trkpt lat="38.279811" lon="-0.703979">
        <ele>165.4</ele>
        <time>2019-12-31T13:20:31Z</time>
      </trkpt>
      <trkpt lat="38.279861" lon="-0.704027">
        <ele>165.6</ele>
        <time>2019-12-31T13:20:32Z</time>
      </trkpt>
      <trkpt lat="38.279910" lon="-0.704080">
        <ele>165.8</ele>
        <time>2019-12-31T13:20:33Z</time>
      </trkpt>
      <trkpt lat="38.279958" lon="-0.704132">
        <ele>166.2</ele>
        <time>2019-12-31T13:20:34Z</time>
      </trkpt>
      <trkpt lat="38.280001" lon="-0.704186">
        <ele>166.4</ele>
        <time>2019-12-31T13:20:35Z</time>
      </trkpt>
      <trkpt lat="38.280044" lon="-0.704241">
        <ele>166.6</ele>
        <time>2019-12-31T13:20:36Z</time>
      </trkpt>
      <trkpt lat="38.280084" lon="-0.704297">
        <ele>167</ele>
        <time>2019-12-31T13:20:37Z</time>
      </trkpt>
      <trkpt lat="38.280122" lon="-0.704354">
        <ele>167.2</ele>
        <time>2019-12-31T13:20:38Z</time>
      </trkpt>
      <trkpt lat="38.280158" lon="-0.704413">
        <ele>167.4</ele>
        <time>2019-12-31T13:20:39Z</time>
      </trkpt>
      <trkpt lat="38.280195" lon="-0.704472">
        <ele>167.6</ele>
        <time>2019-12-31T13:20:40Z</time>
      </trkpt>
      <trkpt lat="38.280235" lon="-0.704528">
        <ele>167.6</ele>
        <time>2019-12-31T13:20:41Z</time>
      </trkpt>
      <trkpt lat="38.280277" lon="-0.704583">
        <ele>167.2</ele>
        <time>2019-12-31T13:20:42Z</time>
      </trkpt>
      <trkpt lat="38.280323" lon="-0.704640">
        <ele>166.8</ele>
        <time>2019-12-31T13:20:43Z</time>
      </trkpt>
      <trkpt lat="38.280376" lon="-0.704696">
        <ele>166</ele>
        <time>2019-12-31T13:20:44Z</time>
      </trkpt>
      <trkpt lat="38.280436" lon="-0.704751">
        <ele>165.4</ele>
        <time>2019-12-31T13:20:45Z</time>
      </trkpt>
      <trkpt lat="38.280505" lon="-0.704802">
        <ele>164.8</ele>
        <time>2019-12-31T13:20:46Z</time>
      </trkpt>
      <trkpt lat="38.280578" lon="-0.704855">
        <ele>164.2</ele>
        <time>2019-12-31T13:20:47Z</time>
      </trkpt>
      <trkpt lat="38.280653" lon="-0.704911">
        <ele>164.2</ele>
        <time>2019-12-31T13:20:48Z</time>
      </trkpt>
      <trkpt lat="38.280729" lon="-0.704969">
        <ele>163.4</ele>
        <time>2019-12-31T13:20:49Z</time>
      </trkpt>
      <trkpt lat="38.280806" lon="-0.705029">
        <ele>162.8</ele>
        <time>2019-12-31T13:20:50Z</time>
      </trkpt>
      <trkpt lat="38.280885" lon="-0.705092">
        <ele>162.4</ele>
        <time>2019-12-31T13:20:51Z</time>
      </trkpt>
      <trkpt lat="38.280965" lon="-0.705157">
        <ele>161.8</ele>
        <time>2019-12-31T13:20:52Z</time>
      </trkpt>
      <trkpt lat="38.281044" lon="-0.705226">
        <ele>161.6</ele>
        <time>2019-12-31T13:20:53Z</time>
      </trkpt>
      <trkpt lat="38.281119" lon="-0.705303">
        <ele>161.2</ele>
        <time>2019-12-31T13:20:54Z</time>
      </trkpt>
      <trkpt lat="38.281188" lon="-0.705385">
        <ele>161</ele>
        <time>2019-12-31T13:20:55Z</time>
      </trkpt>
      <trkpt lat="38.281255" lon="-0.705473">
        <ele>160.8</ele>
        <time>2019-12-31T13:20:56Z</time>
      </trkpt>
      <trkpt lat="38.281317" lon="-0.705565">
        <ele>160.8</ele>
        <time>2019-12-31T13:20:57Z</time>
      </trkpt>
      <trkpt lat="38.281375" lon="-0.705661">
        <ele>160.4</ele>
        <time>2019-12-31T13:20:58Z</time>
      </trkpt>
      <trkpt lat="38.281427" lon="-0.705760">
        <ele>160.4</ele>
        <time>2019-12-31T13:20:59Z</time>
      </trkpt>
      <trkpt lat="38.281475" lon="-0.705863">
        <ele>160.4</ele>
        <time>2019-12-31T13:21:00Z</time>
      </trkpt>
      <trkpt lat="38.281520" lon="-0.705968">
        <ele>160.4</ele>
        <time>2019-12-31T13:21:01Z</time>
      </trkpt>
      <trkpt lat="38.281562" lon="-0.706072">
        <ele>160.4</ele>
        <time>2019-12-31T13:21:02Z</time>
      </trkpt>
      <trkpt lat="38.281604" lon="-0.706174">
        <ele>160.6</ele>
        <time>2019-12-31T13:21:03Z</time>
      </trkpt>
      <trkpt lat="38.281649" lon="-0.706273">
        <ele>160.8</ele>
        <time>2019-12-31T13:21:04Z</time>
      </trkpt>
      <trkpt lat="38.281694" lon="-0.706368">
        <ele>161</ele>
        <time>2019-12-31T13:21:05Z</time>
      </trkpt>
      <trkpt lat="38.281736" lon="-0.706460">
        <ele>161.2</ele>
        <time>2019-12-31T13:21:06Z</time>
      </trkpt>
      <trkpt lat="38.281778" lon="-0.706548">
        <ele>161.6</ele>
        <time>2019-12-31T13:21:07Z</time>
      </trkpt>
      <trkpt lat="38.281819" lon="-0.706632">
        <ele>162.2</ele>
        <time>2019-12-31T13:21:08Z</time>
      </trkpt>
      <trkpt lat="38.281858" lon="-0.706711">
        <ele>162.2</ele>
        <time>2019-12-31T13:21:09Z</time>
      </trkpt>
      <trkpt lat="38.281898" lon="-0.706788">
        <ele>163.2</ele>
        <time>2019-12-31T13:21:10Z</time>
      </trkpt>
      <trkpt lat="38.281943" lon="-0.706857">
        <ele>164</ele>
        <time>2019-12-31T13:21:11Z</time>
      </trkpt>
      <trkpt lat="38.281992" lon="-0.706911">
        <ele>164.4</ele>
        <time>2019-12-31T13:21:12Z</time>
      </trkpt>
      <trkpt lat="38.282046" lon="-0.706955">
        <ele>164.6</ele>
        <time>2019-12-31T13:21:13Z</time>
      </trkpt>
      <trkpt lat="38.282104" lon="-0.706993">
        <ele>164.8</ele>
        <time>2019-12-31T13:21:14Z</time>
      </trkpt>
      <trkpt lat="38.282163" lon="-0.707033">
        <ele>165</ele>
        <time>2019-12-31T13:21:15Z</time>
      </trkpt>
      <trkpt lat="38.282223" lon="-0.707076">
        <ele>164.8</ele>
        <time>2019-12-31T13:21:16Z</time>
      </trkpt>
      <trkpt lat="38.282282" lon="-0.707120">
        <ele>165</ele>
        <time>2019-12-31T13:21:17Z</time>
      </trkpt>
      <trkpt lat="38.282343" lon="-0.707168">
        <ele>165.2</ele>
        <time>2019-12-31T13:21:18Z</time>
      </trkpt>
      <trkpt lat="38.282406" lon="-0.707217">
        <ele>165.4</ele>
        <time>2019-12-31T13:21:19Z</time>
      </trkpt>
      <trkpt lat="38.282468" lon="-0.707269">
        <ele>165.4</ele>
        <time>2019-12-31T13:21:20Z</time>
      </trkpt>
      <trkpt lat="38.282530" lon="-0.707321">
        <ele>165.4</ele>
        <time>2019-12-31T13:21:21Z</time>
      </trkpt>
      <trkpt lat="38.282592" lon="-0.707373">
        <ele>165.6</ele>
        <time>2019-12-31T13:21:22Z</time>
      </trkpt>
      <trkpt lat="38.282653" lon="-0.707425">
        <ele>165.8</ele>
        <time>2019-12-31T13:21:23Z</time>
      </trkpt>
      <trkpt lat="38.282716" lon="-0.707474">
        <ele>166</ele>
        <time>2019-12-31T13:21:24Z</time>
      </trkpt>
      <trkpt lat="38.282778" lon="-0.707525">
        <ele>166</ele>
        <time>2019-12-31T13:21:25Z</time>
      </trkpt>
      <trkpt lat="38.282837" lon="-0.707581">
        <ele>165.8</ele>
        <time>2019-12-31T13:21:26Z</time>
      </trkpt>
      <trkpt lat="38.282894" lon="-0.707639">
        <ele>166.4</ele>
        <time>2019-12-31T13:21:27Z</time>
      </trkpt>
      <trkpt lat="38.282951" lon="-0.707697">
        <ele>166.8</ele>
        <time>2019-12-31T13:21:28Z</time>
      </trkpt>
      <trkpt lat="38.283005" lon="-0.707760">
        <ele>166.8</ele>
        <time>2019-12-31T13:21:29Z</time>
      </trkpt>
      <trkpt lat="38.283059" lon="-0.707825">
        <ele>166.8</ele>
        <time>2019-12-31T13:21:30Z</time>
      </trkpt>
      <trkpt lat="38.283112" lon="-0.707891">
        <ele>166.8</ele>
        <time>2019-12-31T13:21:31Z</time>
      </trkpt>
      <trkpt lat="38.283166" lon="-0.707959">
        <ele>166.8</ele>
        <time>2019-12-31T13:21:32Z</time>
      </trkpt>
      <trkpt lat="38.283219" lon="-0.708032">
        <ele>166.8</ele>
        <time>2019-12-31T13:21:33Z</time>
      </trkpt>
      <trkpt lat="38.283274" lon="-0.708103">
        <ele>167</ele>
        <time>2019-12-31T13:21:34Z</time>
      </trkpt>
      <trkpt lat="38.283328" lon="-0.708173">
        <ele>167</ele>
        <time>2019-12-31T13:21:35Z</time>
      </trkpt>
      <trkpt lat="38.283382" lon="-0.708243">
        <ele>167.2</ele>
        <time>2019-12-31T13:21:36Z</time>
      </trkpt>
      <trkpt lat="38.283435" lon="-0.708316">
        <ele>167.2</ele>
        <time>2019-12-31T13:21:37Z</time>
      </trkpt>
      <trkpt lat="38.283488" lon="-0.708386">
        <ele>167.2</ele>
        <time>2019-12-31T13:21:38Z</time>
      </trkpt>
      <trkpt lat="38.283542" lon="-0.708454">
        <ele>167.4</ele>
        <time>2019-12-31T13:21:39Z</time>
      </trkpt>
      <trkpt lat="38.283597" lon="-0.708521">
        <ele>167.6</ele>
        <time>2019-12-31T13:21:40Z</time>
      </trkpt>
      <trkpt lat="38.283652" lon="-0.708586">
        <ele>168</ele>
        <time>2019-12-31T13:21:41Z</time>
      </trkpt>
      <trkpt lat="38.283705" lon="-0.708650">
        <ele>168</ele>
        <time>2019-12-31T13:21:42Z</time>
      </trkpt>
      <trkpt lat="38.283761" lon="-0.708710">
        <ele>168.4</ele>
        <time>2019-12-31T13:21:43Z</time>
      </trkpt>
      <trkpt lat="38.283821" lon="-0.708763">
        <ele>168.4</ele>
        <time>2019-12-31T13:21:44Z</time>
      </trkpt>
      <trkpt lat="38.283884" lon="-0.708810">
        <ele>168.4</ele>
        <time>2019-12-31T13:21:45Z</time>
      </trkpt>
      <trkpt lat="38.283950" lon="-0.708852">
        <ele>168.6</ele>
        <time>2019-12-31T13:21:46Z</time>
      </trkpt>
      <trkpt lat="38.284019" lon="-0.708883">
        <ele>168.8</ele>
        <time>2019-12-31T13:21:47Z</time>
      </trkpt>
      <trkpt lat="38.284091" lon="-0.708904">
        <ele>168.8</ele>
        <time>2019-12-31T13:21:48Z</time>
      </trkpt>
      <trkpt lat="38.284165" lon="-0.708916">
        <ele>168.8</ele>
        <time>2019-12-31T13:21:49Z</time>
      </trkpt>
      <trkpt lat="38.284240" lon="-0.708920">
        <ele>169</ele>
        <time>2019-12-31T13:21:50Z</time>
      </trkpt>
      <trkpt lat="38.284316" lon="-0.708917">
        <ele>169</ele>
        <time>2019-12-31T13:21:51Z</time>
      </trkpt>
      <trkpt lat="38.284391" lon="-0.708913">
        <ele>169.2</ele>
        <time>2019-12-31T13:21:52Z</time>
      </trkpt>
      <trkpt lat="38.284466" lon="-0.708908">
        <ele>169.4</ele>
        <time>2019-12-31T13:21:53Z</time>
      </trkpt>
      <trkpt lat="38.284540" lon="-0.708900">
        <ele>170</ele>
        <time>2019-12-31T13:21:54Z</time>
      </trkpt>
      <trkpt lat="38.284612" lon="-0.708895">
        <ele>170</ele>
        <time>2019-12-31T13:21:55Z</time>
      </trkpt>
      <trkpt lat="38.284682" lon="-0.708892">
        <ele>170.2</ele>
        <time>2019-12-31T13:21:56Z</time>
      </trkpt>
      <trkpt lat="38.284754" lon="-0.708897">
        <ele>170.2</ele>
        <time>2019-12-31T13:21:57Z</time>
      </trkpt>
      <trkpt lat="38.284824" lon="-0.708910">
        <ele>170.6</ele>
        <time>2019-12-31T13:21:58Z</time>
      </trkpt>
      <trkpt lat="38.284893" lon="-0.708921">
        <ele>171</ele>
        <time>2019-12-31T13:21:59Z</time>
      </trkpt>
      <trkpt lat="38.284964" lon="-0.708920">
        <ele>171.6</ele>
        <time>2019-12-31T13:22:00Z</time>
      </trkpt>
      <trkpt lat="38.285033" lon="-0.708924">
        <ele>171.8</ele>
        <time>2019-12-31T13:22:01Z</time>
      </trkpt>
      <trkpt lat="38.285101" lon="-0.708933">
        <ele>172.2</ele>
        <time>2019-12-31T13:22:02Z</time>
      </trkpt>
      <trkpt lat="38.285168" lon="-0.708946">
        <ele>172.6</ele>
        <time>2019-12-31T13:22:03Z</time>
      </trkpt>
      <trkpt lat="38.285235" lon="-0.708958">
        <ele>173</ele>
        <time>2019-12-31T13:22:04Z</time>
      </trkpt>
      <trkpt lat="38.285301" lon="-0.708971">
        <ele>173.8</ele>
        <time>2019-12-31T13:22:05Z</time>
      </trkpt>
      <trkpt lat="38.285364" lon="-0.708982">
        <ele>174.2</ele>
        <time>2019-12-31T13:22:06Z</time>
      </trkpt>
      <trkpt lat="38.285426" lon="-0.708991">
        <ele>174.8</ele>
        <time>2019-12-31T13:22:07Z</time>
      </trkpt>
      <trkpt lat="38.285483" lon="-0.709003">
        <ele>175.2</ele>
        <time>2019-12-31T13:22:08Z</time>
      </trkpt>
      <trkpt lat="38.285537" lon="-0.709015">
        <ele>175.2</ele>
        <time>2019-12-31T13:22:09Z</time>
      </trkpt>
      <trkpt lat="38.285586" lon="-0.709029">
        <ele>176</ele>
        <time>2019-12-31T13:22:10Z</time>
      </trkpt>
      <trkpt lat="38.285636" lon="-0.709046">
        <ele>176.4</ele>
        <time>2019-12-31T13:22:11Z</time>
      </trkpt>
      <trkpt lat="38.285684" lon="-0.709066">
        <ele>176.6</ele>
        <time>2019-12-31T13:22:12Z</time>
      </trkpt>
      <trkpt lat="38.285730" lon="-0.709086">
        <ele>176.8</ele>
        <time>2019-12-31T13:22:13Z</time>
      </trkpt>
      <trkpt lat="38.285778" lon="-0.709105">
        <ele>176.8</ele>
        <time>2019-12-31T13:22:14Z</time>
      </trkpt>
      <trkpt lat="38.285824" lon="-0.709130">
        <ele>176.8</ele>
        <time>2019-12-31T13:22:15Z</time>
      </trkpt>
      <trkpt lat="38.285870" lon="-0.709158">
        <ele>176.6</ele>
        <time>2019-12-31T13:22:16Z</time>
      </trkpt>
      <trkpt lat="38.285917" lon="-0.709193">
        <ele>176.6</ele>
        <time>2019-12-31T13:22:17Z</time>
      </trkpt>
      <trkpt lat="38.285965" lon="-0.709231">
        <ele>176.4</ele>
        <time>2019-12-31T13:22:18Z</time>
      </trkpt>
      <trkpt lat="38.286017" lon="-0.709272">
        <ele>176</ele>
        <time>2019-12-31T13:22:19Z</time>
      </trkpt>
      <trkpt lat="38.286074" lon="-0.709314">
        <ele>175.4</ele>
        <time>2019-12-31T13:22:20Z</time>
      </trkpt>
      <trkpt lat="38.286134" lon="-0.709355">
        <ele>175.4</ele>
        <time>2019-12-31T13:22:21Z</time>
      </trkpt>
      <trkpt lat="38.286199" lon="-0.709395">
        <ele>175</ele>
        <time>2019-12-31T13:22:22Z</time>
      </trkpt>
      <trkpt lat="38.286265" lon="-0.709434">
        <ele>174.8</ele>
        <time>2019-12-31T13:22:23Z</time>
      </trkpt>
      <trkpt lat="38.286335" lon="-0.709475">
        <ele>174.8</ele>
        <time>2019-12-31T13:22:24Z</time>
      </trkpt>
      <trkpt lat="38.286408" lon="-0.709517">
        <ele>173.8</ele>
        <time>2019-12-31T13:22:25Z</time>
      </trkpt>
      <trkpt lat="38.286486" lon="-0.709552">
        <ele>173.4</ele>
        <time>2019-12-31T13:22:26Z</time>
      </trkpt>
      <trkpt lat="38.286569" lon="-0.709581">
        <ele>173</ele>
        <time>2019-12-31T13:22:27Z</time>
      </trkpt>
      <trkpt lat="38.286651" lon="-0.709610">
        <ele>173.2</ele>
        <time>2019-12-31T13:22:28Z</time>
      </trkpt>
      <trkpt lat="38.286731" lon="-0.709649">
        <ele>172.8</ele>
        <time>2019-12-31T13:22:29Z</time>
      </trkpt>
      <trkpt lat="38.286808" lon="-0.709696">
        <ele>173</ele>
        <time>2019-12-31T13:22:30Z</time>
      </trkpt>
      <trkpt lat="38.286884" lon="-0.709745">
        <ele>173</ele>
        <time>2019-12-31T13:22:31Z</time>
      </trkpt>
      <trkpt lat="38.286960" lon="-0.709798">
        <ele>173.2</ele>
        <time>2019-12-31T13:22:32Z</time>
      </trkpt>
      <trkpt lat="38.287033" lon="-0.709854">
        <ele>173.2</ele>
        <time>2019-12-31T13:22:33Z</time>
      </trkpt>
      <trkpt lat="38.287104" lon="-0.709917">
        <ele>173.2</ele>
        <time>2019-12-31T13:22:34Z</time>
      </trkpt>
      <trkpt lat="38.287171" lon="-0.709984">
        <ele>173.4</ele>
        <time>2019-12-31T13:22:35Z</time>
      </trkpt>
      <trkpt lat="38.287234" lon="-0.710057">
        <ele>173.2</ele>
        <time>2019-12-31T13:22:36Z</time>
      </trkpt>
      <trkpt lat="38.287294" lon="-0.710133">
        <ele>173.2</ele>
        <time>2019-12-31T13:22:37Z</time>
      </trkpt>
      <trkpt lat="38.287354" lon="-0.710211">
        <ele>173.2</ele>
        <time>2019-12-31T13:22:38Z</time>
      </trkpt>
      <trkpt lat="38.287414" lon="-0.710289">
        <ele>173.2</ele>
        <time>2019-12-31T13:22:39Z</time>
      </trkpt>
      <trkpt lat="38.287473" lon="-0.710367">
        <ele>173</ele>
        <time>2019-12-31T13:22:40Z</time>
      </trkpt>
      <trkpt lat="38.287529" lon="-0.710444">
        <ele>173</ele>
        <time>2019-12-31T13:22:41Z</time>
      </trkpt>
      <trkpt lat="38.287587" lon="-0.710519">
        <ele>173.2</ele>
        <time>2019-12-31T13:22:42Z</time>
      </trkpt>
      <trkpt lat="38.287643" lon="-0.710595">
        <ele>173.2</ele>
        <time>2019-12-31T13:22:43Z</time>
      </trkpt>
      <trkpt lat="38.287698" lon="-0.710669">
        <ele>173.4</ele>
        <time>2019-12-31T13:22:44Z</time>
      </trkpt>
      <trkpt lat="38.287752" lon="-0.710743">
        <ele>173.4</ele>
        <time>2019-12-31T13:22:45Z</time>
      </trkpt>
      <trkpt lat="38.287804" lon="-0.710814">
        <ele>173.6</ele>
        <time>2019-12-31T13:22:46Z</time>
      </trkpt>
      <trkpt lat="38.287854" lon="-0.710886">
        <ele>173.8</ele>
        <time>2019-12-31T13:22:47Z</time>
      </trkpt>
      <trkpt lat="38.287904" lon="-0.710956">
        <ele>174</ele>
        <time>2019-12-31T13:22:48Z</time>
      </trkpt>
      <trkpt lat="38.287952" lon="-0.711026">
        <ele>174</ele>
        <time>2019-12-31T13:22:49Z</time>
      </trkpt>
      <trkpt lat="38.288000" lon="-0.711094">
        <ele>174.4</ele>
        <time>2019-12-31T13:22:50Z</time>
      </trkpt>
      <trkpt lat="38.288046" lon="-0.711164">
        <ele>174.8</ele>
        <time>2019-12-31T13:22:51Z</time>
      </trkpt>
      <trkpt lat="38.288090" lon="-0.711231">
        <ele>175.2</ele>
        <time>2019-12-31T13:22:52Z</time>
      </trkpt>
      <trkpt lat="38.288133" lon="-0.711298">
        <ele>175.4</ele>
        <time>2019-12-31T13:22:53Z</time>
      </trkpt>
      <trkpt lat="38.288176" lon="-0.711365">
        <ele>175.6</ele>
        <time>2019-12-31T13:22:54Z</time>
      </trkpt>
      <trkpt lat="38.288219" lon="-0.711432">
        <ele>175.8</ele>
        <time>2019-12-31T13:22:55Z</time>
      </trkpt>
      <trkpt lat="38.288260" lon="-0.711501">
        <ele>176</ele>
        <time>2019-12-31T13:22:56Z</time>
      </trkpt>
      <trkpt lat="38.288300" lon="-0.711570">
        <ele>176.2</ele>
        <time>2019-12-31T13:22:57Z</time>
      </trkpt>
      <trkpt lat="38.288339" lon="-0.711640">
        <ele>176.2</ele>
        <time>2019-12-31T13:22:58Z</time>
      </trkpt>
      <trkpt lat="38.288377" lon="-0.711711">
        <ele>176.2</ele>
        <time>2019-12-31T13:22:59Z</time>
      </trkpt>
      <trkpt lat="38.288414" lon="-0.711782">
        <ele>176.4</ele>
        <time>2019-12-31T13:23:00Z</time>
      </trkpt>
      <trkpt lat="38.288449" lon="-0.711856">
        <ele>176.6</ele>
        <time>2019-12-31T13:23:01Z</time>
      </trkpt>
      <trkpt lat="38.288480" lon="-0.711932">
        <ele>176.8</ele>
        <time>2019-12-31T13:23:02Z</time>
      </trkpt>
      <trkpt lat="38.288510" lon="-0.712004">
        <ele>177.2</ele>
        <time>2019-12-31T13:23:03Z</time>
      </trkpt>
      <trkpt lat="38.288538" lon="-0.712077">
        <ele>177.6</ele>
        <time>2019-12-31T13:23:04Z</time>
      </trkpt>
      <trkpt lat="38.288564" lon="-0.712150">
        <ele>178</ele>
        <time>2019-12-31T13:23:05Z</time>
      </trkpt>
      <trkpt lat="38.288589" lon="-0.712223">
        <ele>178.2</ele>
        <time>2019-12-31T13:23:06Z</time>
      </trkpt>
      <trkpt lat="38.288612" lon="-0.712296">
        <ele>178.4</ele>
        <time>2019-12-31T13:23:07Z</time>
      </trkpt>
      <trkpt lat="38.288637" lon="-0.712369">
        <ele>178.4</ele>
        <time>2019-12-31T13:23:08Z</time>
      </trkpt>
      <trkpt lat="38.288664" lon="-0.712439">
        <ele>178.6</ele>
        <time>2019-12-31T13:23:09Z</time>
      </trkpt>
      <trkpt lat="38.288693" lon="-0.712499">
        <ele>178.8</ele>
        <time>2019-12-31T13:23:10Z</time>
      </trkpt>
      <trkpt lat="38.288727" lon="-0.712556">
        <ele>179.2</ele>
        <time>2019-12-31T13:23:11Z</time>
      </trkpt>
      <trkpt lat="38.288763" lon="-0.712612">
        <ele>179.4</ele>
        <time>2019-12-31T13:23:12Z</time>
      </trkpt>
      <trkpt lat="38.288809" lon="-0.712657">
        <ele>179.4</ele>
        <time>2019-12-31T13:23:13Z</time>
      </trkpt>
      <trkpt lat="38.288838" lon="-0.712687">
        <ele>179.4</ele>
        <time>2019-12-31T13:23:14Z</time>
      </trkpt>
      <trkpt lat="38.288838" lon="-0.712687">
        <ele>179.6</ele>
        <time>2019-12-31T13:23:15Z</time>
      </trkpt>
      <trkpt lat="38.288838" lon="-0.712687">
        <ele>179.6</ele>
        <time>2019-12-31T13:23:16Z</time>
      </trkpt>
      <trkpt lat="38.288838" lon="-0.712687">
        <ele>179.6</ele>
        <time>2019-12-31T13:23:17Z</time>
      </trkpt>
      <trkpt lat="38.288838" lon="-0.712687">
        <ele>179.8</ele>
        <time>2019-12-31T13:23:18Z</time>
      </trkpt>
      <trkpt lat="38.289136" lon="-0.712979">
        <ele>179.8</ele>
        <time>2019-12-31T13:23:19Z</time>
      </trkpt>
      <trkpt lat="38.289196" lon="-0.713017">
        <ele>179.8</ele>
        <time>2019-12-31T13:23:20Z</time>
      </trkpt>
      <trkpt lat="38.289226" lon="-0.713048">
        <ele>179.8</ele>
        <time>2019-12-31T13:23:21Z</time>
      </trkpt>
      <trkpt lat="38.289260" lon="-0.713122">
        <ele>179.8</ele>
        <time>2019-12-31T13:23:22Z</time>
      </trkpt>
      <trkpt lat="38.289304" lon="-0.713169">
        <ele>180</ele>
        <time>2019-12-31T13:23:23Z</time>
      </trkpt>
      <trkpt lat="38.289343" lon="-0.713228">
        <ele>180</ele>
        <time>2019-12-31T13:23:24Z</time>
      </trkpt>
      <trkpt lat="38.289384" lon="-0.713284">
        <ele>180</ele>
        <time>2019-12-31T13:23:25Z</time>
      </trkpt>
      <trkpt lat="38.289425" lon="-0.713345">
        <ele>180.2</ele>
        <time>2019-12-31T13:23:26Z</time>
      </trkpt>
      <trkpt lat="38.289463" lon="-0.713406">
        <ele>180.2</ele>
        <time>2019-12-31T13:23:27Z</time>
      </trkpt>
      <trkpt lat="38.289499" lon="-0.713469">
        <ele>180.4</ele>
        <time>2019-12-31T13:23:28Z</time>
      </trkpt>
      <trkpt lat="38.289538" lon="-0.713534">
        <ele>180.4</ele>
        <time>2019-12-31T13:23:29Z</time>
      </trkpt>
      <trkpt lat="38.289577" lon="-0.713599">
        <ele>180.6</ele>
        <time>2019-12-31T13:23:30Z</time>
      </trkpt>
      <trkpt lat="38.289615" lon="-0.713666">
        <ele>180.8</ele>
        <time>2019-12-31T13:23:31Z</time>
      </trkpt>
      <trkpt lat="38.289653" lon="-0.713731">
        <ele>180.6</ele>
        <time>2019-12-31T13:23:32Z</time>
      </trkpt>
      <trkpt lat="38.289694" lon="-0.713792">
        <ele>180.8</ele>
        <time>2019-12-31T13:23:33Z</time>
      </trkpt>
      <trkpt lat="38.289737" lon="-0.713851">
        <ele>180.8</ele>
        <time>2019-12-31T13:23:34Z</time>
      </trkpt>
      <trkpt lat="38.289781" lon="-0.713909">
        <ele>181.2</ele>
        <time>2019-12-31T13:23:35Z</time>
      </trkpt>
      <trkpt lat="38.289826" lon="-0.713967">
        <ele>181.2</ele>
        <time>2019-12-31T13:23:36Z</time>
      </trkpt>
      <trkpt lat="38.289872" lon="-0.714024">
        <ele>181.2</ele>
        <time>2019-12-31T13:23:37Z</time>
      </trkpt>
      <trkpt lat="38.289921" lon="-0.714076">
        <ele>181.4</ele>
        <time>2019-12-31T13:23:38Z</time>
      </trkpt>
      <trkpt lat="38.289974" lon="-0.714122">
        <ele>181.6</ele>
        <time>2019-12-31T13:23:39Z</time>
      </trkpt>
      <trkpt lat="38.290026" lon="-0.714167">
        <ele>181.8</ele>
        <time>2019-12-31T13:23:40Z</time>
      </trkpt>
      <trkpt lat="38.290079" lon="-0.714214">
        <ele>181.8</ele>
        <time>2019-12-31T13:23:41Z</time>
      </trkpt>
      <trkpt lat="38.290133" lon="-0.714261">
        <ele>181.8</ele>
        <time>2019-12-31T13:23:42Z</time>
      </trkpt>
      <trkpt lat="38.290188" lon="-0.714310">
        <ele>181.6</ele>
        <time>2019-12-31T13:23:43Z</time>
      </trkpt>
      <trkpt lat="38.290252" lon="-0.714342">
        <ele>181.4</ele>
        <time>2019-12-31T13:23:44Z</time>
      </trkpt>
      <trkpt lat="38.290322" lon="-0.714357">
        <ele>181.2</ele>
        <time>2019-12-31T13:23:45Z</time>
      </trkpt>
      <trkpt lat="38.290395" lon="-0.714358">
        <ele>181</ele>
        <time>2019-12-31T13:23:46Z</time>
      </trkpt>
      <trkpt lat="38.290471" lon="-0.714342">
        <ele>180.6</ele>
        <time>2019-12-31T13:23:47Z</time>
      </trkpt>
      <trkpt lat="38.290542" lon="-0.714305">
        <ele>180.2</ele>
        <time>2019-12-31T13:23:48Z</time>
      </trkpt>
      <trkpt lat="38.290606" lon="-0.714251">
        <ele>180.2</ele>
        <time>2019-12-31T13:23:49Z</time>
      </trkpt>
      <trkpt lat="38.290667" lon="-0.714190">
        <ele>180.2</ele>
        <time>2019-12-31T13:23:50Z</time>
      </trkpt>
      <trkpt lat="38.290727" lon="-0.714129">
        <ele>180</ele>
        <time>2019-12-31T13:23:51Z</time>
      </trkpt>
      <trkpt lat="38.290790" lon="-0.714074">
        <ele>180</ele>
        <time>2019-12-31T13:23:52Z</time>
      </trkpt>
      <trkpt lat="38.290857" lon="-0.714027">
        <ele>180</ele>
        <time>2019-12-31T13:23:53Z</time>
      </trkpt>
      <trkpt lat="38.290929" lon="-0.713993">
        <ele>180</ele>
        <time>2019-12-31T13:23:54Z</time>
      </trkpt>
      <trkpt lat="38.291004" lon="-0.713981">
        <ele>180</ele>
        <time>2019-12-31T13:23:55Z</time>
      </trkpt>
      <trkpt lat="38.291079" lon="-0.713977">
        <ele>179.8</ele>
        <time>2019-12-31T13:23:56Z</time>
      </trkpt>
      <trkpt lat="38.291154" lon="-0.713968">
        <ele>180</ele>
        <time>2019-12-31T13:23:57Z</time>
      </trkpt>
      <trkpt lat="38.291231" lon="-0.713957">
        <ele>180</ele>
        <time>2019-12-31T13:23:58Z</time>
      </trkpt>
      <trkpt lat="38.291308" lon="-0.713950">
        <ele>179.8</ele>
        <time>2019-12-31T13:23:59Z</time>
      </trkpt>
      <trkpt lat="38.291385" lon="-0.713950">
        <ele>179.8</ele>
        <time>2019-12-31T13:24:00Z</time>
      </trkpt>
      <trkpt lat="38.291462" lon="-0.713961">
        <ele>179.8</ele>
        <time>2019-12-31T13:24:01Z</time>
      </trkpt>
      <trkpt lat="38.291539" lon="-0.713983">
        <ele>179.8</ele>
        <time>2019-12-31T13:24:02Z</time>
      </trkpt>
      <trkpt lat="38.291615" lon="-0.714011">
        <ele>179.6</ele>
        <time>2019-12-31T13:24:03Z</time>
      </trkpt>
      <trkpt lat="38.291689" lon="-0.714044">
        <ele>179.6</ele>
        <time>2019-12-31T13:24:04Z</time>
      </trkpt>
      <trkpt lat="38.291762" lon="-0.714081">
        <ele>179.4</ele>
        <time>2019-12-31T13:24:05Z</time>
      </trkpt>
      <trkpt lat="38.291832" lon="-0.714122">
        <ele>179.4</ele>
        <time>2019-12-31T13:24:06Z</time>
      </trkpt>
      <trkpt lat="38.291903" lon="-0.714165">
        <ele>179.4</ele>
        <time>2019-12-31T13:24:07Z</time>
      </trkpt>
      <trkpt lat="38.291973" lon="-0.714213">
        <ele>179.6</ele>
        <time>2019-12-31T13:24:08Z</time>
      </trkpt>
      <trkpt lat="38.292040" lon="-0.714265">
        <ele>179.4</ele>
        <time>2019-12-31T13:24:09Z</time>
      </trkpt>
      <trkpt lat="38.292106" lon="-0.714321">
        <ele>179.6</ele>
        <time>2019-12-31T13:24:10Z</time>
      </trkpt>
      <trkpt lat="38.292169" lon="-0.714380">
        <ele>179.6</ele>
        <time>2019-12-31T13:24:11Z</time>
      </trkpt>
      <trkpt lat="38.292233" lon="-0.714438">
        <ele>179.8</ele>
        <time>2019-12-31T13:24:12Z</time>
      </trkpt>
      <trkpt lat="38.292297" lon="-0.714495">
        <ele>179.6</ele>
        <time>2019-12-31T13:24:13Z</time>
      </trkpt>
      <trkpt lat="38.292366" lon="-0.714543">
        <ele>179.8</ele>
        <time>2019-12-31T13:24:14Z</time>
      </trkpt>
      <trkpt lat="38.292439" lon="-0.714574">
        <ele>179.8</ele>
        <time>2019-12-31T13:24:15Z</time>
      </trkpt>
      <trkpt lat="38.292514" lon="-0.714587">
        <ele>179.8</ele>
        <time>2019-12-31T13:24:16Z</time>
      </trkpt>
      <trkpt lat="38.292586" lon="-0.714604">
        <ele>179.8</ele>
        <time>2019-12-31T13:24:17Z</time>
      </trkpt>
      <trkpt lat="38.292648" lon="-0.714646">
        <ele>180</ele>
        <time>2019-12-31T13:24:18Z</time>
      </trkpt>
      <trkpt lat="38.292698" lon="-0.714709">
        <ele>180.2</ele>
        <time>2019-12-31T13:24:19Z</time>
      </trkpt>
      <trkpt lat="38.292724" lon="-0.714790">
        <ele>180.2</ele>
        <time>2019-12-31T13:24:20Z</time>
      </trkpt>
      <trkpt lat="38.292722" lon="-0.714875">
        <ele>180.2</ele>
        <time>2019-12-31T13:24:21Z</time>
      </trkpt>
      <trkpt lat="38.292707" lon="-0.714961">
        <ele>180.4</ele>
        <time>2019-12-31T13:24:22Z</time>
      </trkpt>
      <trkpt lat="38.292702" lon="-0.715045">
        <ele>180.6</ele>
        <time>2019-12-31T13:24:23Z</time>
      </trkpt>
      <trkpt lat="38.292706" lon="-0.715126">
        <ele>180.8</ele>
        <time>2019-12-31T13:24:24Z</time>
      </trkpt>
      <trkpt lat="38.292716" lon="-0.715205">
        <ele>181.2</ele>
        <time>2019-12-31T13:24:25Z</time>
      </trkpt>
      <trkpt lat="38.292733" lon="-0.715284">
        <ele>181.4</ele>
        <time>2019-12-31T13:24:26Z</time>
      </trkpt>
      <trkpt lat="38.292758" lon="-0.715361">
        <ele>181.6</ele>
        <time>2019-12-31T13:24:27Z</time>
      </trkpt>
      <trkpt lat="38.292787" lon="-0.715437">
        <ele>181.8</ele>
        <time>2019-12-31T13:24:28Z</time>
      </trkpt>
      <trkpt lat="38.292819" lon="-0.715513">
        <ele>182</ele>
        <time>2019-12-31T13:24:29Z</time>
      </trkpt>
      <trkpt lat="38.292851" lon="-0.715590">
        <ele>182.2</ele>
        <time>2019-12-31T13:24:30Z</time>
      </trkpt>
      <trkpt lat="38.292884" lon="-0.715668">
        <ele>182.2</ele>
        <time>2019-12-31T13:24:31Z</time>
      </trkpt>
      <trkpt lat="38.292917" lon="-0.715747">
        <ele>182.2</ele>
        <time>2019-12-31T13:24:32Z</time>
      </trkpt>
      <trkpt lat="38.292951" lon="-0.715828">
        <ele>182.4</ele>
        <time>2019-12-31T13:24:33Z</time>
      </trkpt>
      <trkpt lat="38.292986" lon="-0.715908">
        <ele>182.4</ele>
        <time>2019-12-31T13:24:34Z</time>
      </trkpt>
      <trkpt lat="38.293022" lon="-0.715987">
        <ele>182.6</ele>
        <time>2019-12-31T13:24:35Z</time>
      </trkpt>
      <trkpt lat="38.293057" lon="-0.716070">
        <ele>182.8</ele>
        <time>2019-12-31T13:24:36Z</time>
      </trkpt>
      <trkpt lat="38.293092" lon="-0.716149">
        <ele>182.6</ele>
        <time>2019-12-31T13:24:37Z</time>
      </trkpt>
      <trkpt lat="38.293128" lon="-0.716230">
        <ele>182.8</ele>
        <time>2019-12-31T13:24:38Z</time>
      </trkpt>
      <trkpt lat="38.293164" lon="-0.716311">
        <ele>182.8</ele>
        <time>2019-12-31T13:24:39Z</time>
      </trkpt>
      <trkpt lat="38.293200" lon="-0.716391">
        <ele>183</ele>
        <time>2019-12-31T13:24:40Z</time>
      </trkpt>
      <trkpt lat="38.293233" lon="-0.716474">
        <ele>183.2</ele>
        <time>2019-12-31T13:24:41Z</time>
      </trkpt>
      <trkpt lat="38.293266" lon="-0.716556">
        <ele>183.4</ele>
        <time>2019-12-31T13:24:42Z</time>
      </trkpt>
      <trkpt lat="38.293297" lon="-0.716641">
        <ele>183.4</ele>
        <time>2019-12-31T13:24:43Z</time>
      </trkpt>
      <trkpt lat="38.293327" lon="-0.716724">
        <ele>183.6</ele>
        <time>2019-12-31T13:24:44Z</time>
      </trkpt>
      <trkpt lat="38.293355" lon="-0.716808">
        <ele>183.6</ele>
        <time>2019-12-31T13:24:45Z</time>
      </trkpt>
      <trkpt lat="38.293382" lon="-0.716890">
        <ele>184</ele>
        <time>2019-12-31T13:24:46Z</time>
      </trkpt>
      <trkpt lat="38.293405" lon="-0.716974">
        <ele>184</ele>
        <time>2019-12-31T13:24:47Z</time>
      </trkpt>
      <trkpt lat="38.293426" lon="-0.717058">
        <ele>184.4</ele>
        <time>2019-12-31T13:24:48Z</time>
      </trkpt>
      <trkpt lat="38.293446" lon="-0.717140">
        <ele>184.8</ele>
        <time>2019-12-31T13:24:49Z</time>
      </trkpt>
      <trkpt lat="38.293466" lon="-0.717221">
        <ele>185.2</ele>
        <time>2019-12-31T13:24:50Z</time>
      </trkpt>
      <trkpt lat="38.293485" lon="-0.717303">
        <ele>185.4</ele>
        <time>2019-12-31T13:24:51Z</time>
      </trkpt>
      <trkpt lat="38.293504" lon="-0.717383">
        <ele>185.6</ele>
        <time>2019-12-31T13:24:52Z</time>
      </trkpt>
      <trkpt lat="38.293522" lon="-0.717466">
        <ele>185.8</ele>
        <time>2019-12-31T13:24:53Z</time>
      </trkpt>
      <trkpt lat="38.293540" lon="-0.717547">
        <ele>186.2</ele>
        <time>2019-12-31T13:24:54Z</time>
      </trkpt>
      <trkpt lat="38.293558" lon="-0.717629">
        <ele>186.2</ele>
        <time>2019-12-31T13:24:55Z</time>
      </trkpt>
      <trkpt lat="38.293577" lon="-0.717713">
        <ele>186.4</ele>
        <time>2019-12-31T13:24:56Z</time>
      </trkpt>
      <trkpt lat="38.293596" lon="-0.717796">
        <ele>186.6</ele>
        <time>2019-12-31T13:24:57Z</time>
      </trkpt>
      <trkpt lat="38.293614" lon="-0.717876">
        <ele>187.2</ele>
        <time>2019-12-31T13:24:58Z</time>
      </trkpt>
      <trkpt lat="38.293632" lon="-0.717957">
        <ele>187.4</ele>
        <time>2019-12-31T13:24:59Z</time>
      </trkpt>
      <trkpt lat="38.293651" lon="-0.718038">
        <ele>187.6</ele>
        <time>2019-12-31T13:25:00Z</time>
      </trkpt>
      <trkpt lat="38.293669" lon="-0.718118">
        <ele>187.6</ele>
        <time>2019-12-31T13:25:01Z</time>
      </trkpt>
      <trkpt lat="38.293687" lon="-0.718198">
        <ele>187.8</ele>
        <time>2019-12-31T13:25:02Z</time>
      </trkpt>
      <trkpt lat="38.293704" lon="-0.718278">
        <ele>187.8</ele>
        <time>2019-12-31T13:25:03Z</time>
      </trkpt>
      <trkpt lat="38.293720" lon="-0.718358">
        <ele>188</ele>
        <time>2019-12-31T13:25:04Z</time>
      </trkpt>
      <trkpt lat="38.293735" lon="-0.718437">
        <ele>188.2</ele>
        <time>2019-12-31T13:25:05Z</time>
      </trkpt>
      <trkpt lat="38.293749" lon="-0.718517">
        <ele>188.2</ele>
        <time>2019-12-31T13:25:06Z</time>
      </trkpt>
      <trkpt lat="38.293763" lon="-0.718598">
        <ele>188.4</ele>
        <time>2019-12-31T13:25:07Z</time>
      </trkpt>
      <trkpt lat="38.293778" lon="-0.718679">
        <ele>188.4</ele>
        <time>2019-12-31T13:25:08Z</time>
      </trkpt>
      <trkpt lat="38.293793" lon="-0.718761">
        <ele>188.4</ele>
        <time>2019-12-31T13:25:09Z</time>
      </trkpt>
      <trkpt lat="38.293807" lon="-0.718842">
        <ele>188.4</ele>
        <time>2019-12-31T13:25:10Z</time>
      </trkpt>
      <trkpt lat="38.293819" lon="-0.718923">
        <ele>188.4</ele>
        <time>2019-12-31T13:25:11Z</time>
      </trkpt>
      <trkpt lat="38.293830" lon="-0.719005">
        <ele>188.6</ele>
        <time>2019-12-31T13:25:12Z</time>
      </trkpt>
      <trkpt lat="38.293838" lon="-0.719087">
        <ele>188.8</ele>
        <time>2019-12-31T13:25:13Z</time>
      </trkpt>
      <trkpt lat="38.293846" lon="-0.719169">
        <ele>189</ele>
        <time>2019-12-31T13:25:14Z</time>
      </trkpt>
      <trkpt lat="38.293851" lon="-0.719252">
        <ele>189.2</ele>
        <time>2019-12-31T13:25:15Z</time>
      </trkpt>
      <trkpt lat="38.293855" lon="-0.719335">
        <ele>189.4</ele>
        <time>2019-12-31T13:25:16Z</time>
      </trkpt>
      <trkpt lat="38.293857" lon="-0.719420">
        <ele>189.6</ele>
        <time>2019-12-31T13:25:17Z</time>
      </trkpt>
      <trkpt lat="38.293856" lon="-0.719505">
        <ele>189.6</ele>
        <time>2019-12-31T13:25:18Z</time>
      </trkpt>
      <trkpt lat="38.293851" lon="-0.719585">
        <ele>190.2</ele>
        <time>2019-12-31T13:25:19Z</time>
      </trkpt>
      <trkpt lat="38.293844" lon="-0.719667">
        <ele>190.4</ele>
        <time>2019-12-31T13:25:20Z</time>
      </trkpt>
      <trkpt lat="38.293835" lon="-0.719745">
        <ele>190.4</ele>
        <time>2019-12-31T13:25:21Z</time>
      </trkpt>
      <trkpt lat="38.293826" lon="-0.719825">
        <ele>190.6</ele>
        <time>2019-12-31T13:25:22Z</time>
      </trkpt>
      <trkpt lat="38.293815" lon="-0.719904">
        <ele>190.8</ele>
        <time>2019-12-31T13:25:23Z</time>
      </trkpt>
      <trkpt lat="38.293805" lon="-0.719984">
        <ele>191</ele>
        <time>2019-12-31T13:25:24Z</time>
      </trkpt>
      <trkpt lat="38.293796" lon="-0.720065">
        <ele>191</ele>
        <time>2019-12-31T13:25:25Z</time>
      </trkpt>
      <trkpt lat="38.293786" lon="-0.720149">
        <ele>190.8</ele>
        <time>2019-12-31T13:25:26Z</time>
      </trkpt>
      <trkpt lat="38.293778" lon="-0.720228">
        <ele>191</ele>
        <time>2019-12-31T13:25:27Z</time>
      </trkpt>
      <trkpt lat="38.293772" lon="-0.720306">
        <ele>191.2</ele>
        <time>2019-12-31T13:25:28Z</time>
      </trkpt>
      <trkpt lat="38.293765" lon="-0.720388">
        <ele>191.4</ele>
        <time>2019-12-31T13:25:29Z</time>
      </trkpt>
      <trkpt lat="38.293762" lon="-0.720469">
        <ele>191.4</ele>
        <time>2019-12-31T13:25:30Z</time>
      </trkpt>
      <trkpt lat="38.293761" lon="-0.720551">
        <ele>191.6</ele>
        <time>2019-12-31T13:25:31Z</time>
      </trkpt>
      <trkpt lat="38.293762" lon="-0.720633">
        <ele>191.6</ele>
        <time>2019-12-31T13:25:32Z</time>
      </trkpt>
      <trkpt lat="38.293764" lon="-0.720716">
        <ele>192</ele>
        <time>2019-12-31T13:25:33Z</time>
      </trkpt>
      <trkpt lat="38.293766" lon="-0.720798">
        <ele>192.2</ele>
        <time>2019-12-31T13:25:34Z</time>
      </trkpt>
      <trkpt lat="38.293772" lon="-0.720878">
        <ele>192.6</ele>
        <time>2019-12-31T13:25:35Z</time>
      </trkpt>
      <trkpt lat="38.293781" lon="-0.720956">
        <ele>193</ele>
        <time>2019-12-31T13:25:36Z</time>
      </trkpt>
      <trkpt lat="38.293791" lon="-0.721033">
        <ele>193.2</ele>
        <time>2019-12-31T13:25:37Z</time>
      </trkpt>
      <trkpt lat="38.293805" lon="-0.721108">
        <ele>193.4</ele>
        <time>2019-12-31T13:25:38Z</time>
      </trkpt>
      <trkpt lat="38.293820" lon="-0.721182">
        <ele>193.6</ele>
        <time>2019-12-31T13:25:39Z</time>
      </trkpt>
      <trkpt lat="38.293836" lon="-0.721259">
        <ele>193.8</ele>
        <time>2019-12-31T13:25:40Z</time>
      </trkpt>
      <trkpt lat="38.293854" lon="-0.721334">
        <ele>193.8</ele>
        <time>2019-12-31T13:25:41Z</time>
      </trkpt>
      <trkpt lat="38.293875" lon="-0.721407">
        <ele>194</ele>
        <time>2019-12-31T13:25:42Z</time>
      </trkpt>
      <trkpt lat="38.293897" lon="-0.721482">
        <ele>194</ele>
        <time>2019-12-31T13:25:43Z</time>
      </trkpt>
      <trkpt lat="38.293919" lon="-0.721556">
        <ele>194.2</ele>
        <time>2019-12-31T13:25:44Z</time>
      </trkpt>
      <trkpt lat="38.293943" lon="-0.721631">
        <ele>194.4</ele>
        <time>2019-12-31T13:25:45Z</time>
      </trkpt>
      <trkpt lat="38.293968" lon="-0.721706">
        <ele>194.4</ele>
        <time>2019-12-31T13:25:46Z</time>
      </trkpt>
      <trkpt lat="38.293993" lon="-0.721781">
        <ele>194.4</ele>
        <time>2019-12-31T13:25:47Z</time>
      </trkpt>
      <trkpt lat="38.294019" lon="-0.721857">
        <ele>194.6</ele>
        <time>2019-12-31T13:25:48Z</time>
      </trkpt>
      <trkpt lat="38.294043" lon="-0.721932">
        <ele>195</ele>
        <time>2019-12-31T13:25:49Z</time>
      </trkpt>
      <trkpt lat="38.294062" lon="-0.722005">
        <ele>195.2</ele>
        <time>2019-12-31T13:25:50Z</time>
      </trkpt>
      <trkpt lat="38.294078" lon="-0.722077">
        <ele>195.4</ele>
        <time>2019-12-31T13:25:51Z</time>
      </trkpt>
      <trkpt lat="38.294091" lon="-0.722150">
        <ele>196</ele>
        <time>2019-12-31T13:25:52Z</time>
      </trkpt>
      <trkpt lat="38.294102" lon="-0.722224">
        <ele>196</ele>
        <time>2019-12-31T13:25:53Z</time>
      </trkpt>
      <trkpt lat="38.294112" lon="-0.722302">
        <ele>196</ele>
        <time>2019-12-31T13:25:54Z</time>
      </trkpt>
      <trkpt lat="38.294117" lon="-0.722380">
        <ele>196.2</ele>
        <time>2019-12-31T13:25:55Z</time>
      </trkpt>
      <trkpt lat="38.294121" lon="-0.722459">
        <ele>196.2</ele>
        <time>2019-12-31T13:25:56Z</time>
      </trkpt>
      <trkpt lat="38.294123" lon="-0.722537">
        <ele>196.4</ele>
        <time>2019-12-31T13:25:57Z</time>
      </trkpt>
      <trkpt lat="38.294126" lon="-0.722614">
        <ele>196.6</ele>
        <time>2019-12-31T13:25:58Z</time>
      </trkpt>
      <trkpt lat="38.294129" lon="-0.722693">
        <ele>196.6</ele>
        <time>2019-12-31T13:25:59Z</time>
      </trkpt>
      <trkpt lat="38.294133" lon="-0.722770">
        <ele>196.8</ele>
        <time>2019-12-31T13:26:00Z</time>
      </trkpt>
      <trkpt lat="38.294137" lon="-0.722847">
        <ele>197</ele>
        <time>2019-12-31T13:26:01Z</time>
      </trkpt>
      <trkpt lat="38.294141" lon="-0.722924">
        <ele>197.2</ele>
        <time>2019-12-31T13:26:02Z</time>
      </trkpt>
      <trkpt lat="38.294145" lon="-0.723002">
        <ele>197.4</ele>
        <time>2019-12-31T13:26:03Z</time>
      </trkpt>
      <trkpt lat="38.294149" lon="-0.723078">
        <ele>197.6</ele>
        <time>2019-12-31T13:26:04Z</time>
      </trkpt>
      <trkpt lat="38.294153" lon="-0.723154">
        <ele>198</ele>
        <time>2019-12-31T13:26:05Z</time>
      </trkpt>
      <trkpt lat="38.294157" lon="-0.723231">
        <ele>198.2</ele>
        <time>2019-12-31T13:26:06Z</time>
      </trkpt>
      <trkpt lat="38.294162" lon="-0.723308">
        <ele>198.2</ele>
        <time>2019-12-31T13:26:07Z</time>
      </trkpt>
      <trkpt lat="38.294169" lon="-0.723384">
        <ele>198.4</ele>
        <time>2019-12-31T13:26:08Z</time>
      </trkpt>
      <trkpt lat="38.294176" lon="-0.723462">
        <ele>198.6</ele>
        <time>2019-12-31T13:26:09Z</time>
      </trkpt>
      <trkpt lat="38.294185" lon="-0.723540">
        <ele>199</ele>
        <time>2019-12-31T13:26:10Z</time>
      </trkpt>
      <trkpt lat="38.294196" lon="-0.723618">
        <ele>199</ele>
        <time>2019-12-31T13:26:11Z</time>
      </trkpt>
      <trkpt lat="38.294208" lon="-0.723696">
        <ele>199</ele>
        <time>2019-12-31T13:26:12Z</time>
      </trkpt>
      <trkpt lat="38.294221" lon="-0.723773">
        <ele>199.4</ele>
        <time>2019-12-31T13:26:13Z</time>
      </trkpt>
      <trkpt lat="38.294235" lon="-0.723850">
        <ele>199.6</ele>
        <time>2019-12-31T13:26:14Z</time>
      </trkpt>
      <trkpt lat="38.294252" lon="-0.723923">
        <ele>199.8</ele>
        <time>2019-12-31T13:26:15Z</time>
      </trkpt>
      <trkpt lat="38.294271" lon="-0.723996">
        <ele>200.2</ele>
        <time>2019-12-31T13:26:16Z</time>
      </trkpt>
      <trkpt lat="38.294292" lon="-0.724067">
        <ele>200.4</ele>
        <time>2019-12-31T13:26:17Z</time>
      </trkpt>
      <trkpt lat="38.294313" lon="-0.724137">
        <ele>200.8</ele>
        <time>2019-12-31T13:26:18Z</time>
      </trkpt>
      <trkpt lat="38.294335" lon="-0.724208">
        <ele>201.2</ele>
        <time>2019-12-31T13:26:19Z</time>
      </trkpt>
      <trkpt lat="38.294358" lon="-0.724274">
        <ele>201.4</ele>
        <time>2019-12-31T13:26:20Z</time>
      </trkpt>
      <trkpt lat="38.294382" lon="-0.724339">
        <ele>201.8</ele>
        <time>2019-12-31T13:26:21Z</time>
      </trkpt>
      <trkpt lat="38.294406" lon="-0.724405">
        <ele>202</ele>
        <time>2019-12-31T13:26:22Z</time>
      </trkpt>
      <trkpt lat="38.294432" lon="-0.724472">
        <ele>202.2</ele>
        <time>2019-12-31T13:26:23Z</time>
      </trkpt>
      <trkpt lat="38.294460" lon="-0.724536">
        <ele>202.4</ele>
        <time>2019-12-31T13:26:24Z</time>
      </trkpt>
      <trkpt lat="38.294488" lon="-0.724600">
        <ele>202.6</ele>
        <time>2019-12-31T13:26:25Z</time>
      </trkpt>
      <trkpt lat="38.294517" lon="-0.724664">
        <ele>203</ele>
        <time>2019-12-31T13:26:26Z</time>
      </trkpt>
      <trkpt lat="38.294548" lon="-0.724729">
        <ele>203</ele>
        <time>2019-12-31T13:26:27Z</time>
      </trkpt>
      <trkpt lat="38.294579" lon="-0.724794">
        <ele>203</ele>
        <time>2019-12-31T13:26:28Z</time>
      </trkpt>
      <trkpt lat="38.294612" lon="-0.724861">
        <ele>202.8</ele>
        <time>2019-12-31T13:26:29Z</time>
      </trkpt>
      <trkpt lat="38.294645" lon="-0.724928">
        <ele>202.6</ele>
        <time>2019-12-31T13:26:30Z</time>
      </trkpt>
      <trkpt lat="38.294678" lon="-0.724994">
        <ele>202.6</ele>
        <time>2019-12-31T13:26:31Z</time>
      </trkpt>
      <trkpt lat="38.294710" lon="-0.725064">
        <ele>202.6</ele>
        <time>2019-12-31T13:26:32Z</time>
      </trkpt>
      <trkpt lat="38.294740" lon="-0.725137">
        <ele>202.6</ele>
        <time>2019-12-31T13:26:33Z</time>
      </trkpt>
      <trkpt lat="38.294770" lon="-0.725211">
        <ele>202.8</ele>
        <time>2019-12-31T13:26:34Z</time>
      </trkpt>
      <trkpt lat="38.294800" lon="-0.725285">
        <ele>203</ele>
        <time>2019-12-31T13:26:35Z</time>
      </trkpt>
      <trkpt lat="38.294828" lon="-0.725359">
        <ele>203</ele>
        <time>2019-12-31T13:26:36Z</time>
      </trkpt>
      <trkpt lat="38.294856" lon="-0.725435">
        <ele>203</ele>
        <time>2019-12-31T13:26:37Z</time>
      </trkpt>
      <trkpt lat="38.294881" lon="-0.725511">
        <ele>203.2</ele>
        <time>2019-12-31T13:26:38Z</time>
      </trkpt>
      <trkpt lat="38.294904" lon="-0.725587">
        <ele>203.4</ele>
        <time>2019-12-31T13:26:39Z</time>
      </trkpt>
      <trkpt lat="38.294927" lon="-0.725665">
        <ele>203.8</ele>
        <time>2019-12-31T13:26:40Z</time>
      </trkpt>
      <trkpt lat="38.294947" lon="-0.725743">
        <ele>204</ele>
        <time>2019-12-31T13:26:41Z</time>
      </trkpt>
      <trkpt lat="38.294966" lon="-0.725820">
        <ele>204.2</ele>
        <time>2019-12-31T13:26:42Z</time>
      </trkpt>
      <trkpt lat="38.294984" lon="-0.725899">
        <ele>204.4</ele>
        <time>2019-12-31T13:26:43Z</time>
      </trkpt>
      <trkpt lat="38.295001" lon="-0.725979">
        <ele>204.6</ele>
        <time>2019-12-31T13:26:44Z</time>
      </trkpt>
      <trkpt lat="38.295016" lon="-0.726058">
        <ele>204.8</ele>
        <time>2019-12-31T13:26:45Z</time>
      </trkpt>
      <trkpt lat="38.295031" lon="-0.726136">
        <ele>205</ele>
        <time>2019-12-31T13:26:46Z</time>
      </trkpt>
      <trkpt lat="38.295046" lon="-0.726212">
        <ele>205.2</ele>
        <time>2019-12-31T13:26:47Z</time>
      </trkpt>
      <trkpt lat="38.295058" lon="-0.726288">
        <ele>205.2</ele>
        <time>2019-12-31T13:26:48Z</time>
      </trkpt>
      <trkpt lat="38.295069" lon="-0.726364">
        <ele>205.4</ele>
        <time>2019-12-31T13:26:49Z</time>
      </trkpt>
      <trkpt lat="38.295081" lon="-0.726440">
        <ele>205.6</ele>
        <time>2019-12-31T13:26:50Z</time>
      </trkpt>
      <trkpt lat="38.295091" lon="-0.726516">
        <ele>205.8</ele>
        <time>2019-12-31T13:26:51Z</time>
      </trkpt>
      <trkpt lat="38.295099" lon="-0.726590">
        <ele>205.8</ele>
        <time>2019-12-31T13:26:52Z</time>
      </trkpt>
      <trkpt lat="38.295105" lon="-0.726667">
        <ele>206.2</ele>
        <time>2019-12-31T13:26:53Z</time>
      </trkpt>
      <trkpt lat="38.295110" lon="-0.726741">
        <ele>206.2</ele>
        <time>2019-12-31T13:26:54Z</time>
      </trkpt>
      <trkpt lat="38.295112" lon="-0.726808">
        <ele>206.8</ele>
        <time>2019-12-31T13:26:55Z</time>
      </trkpt>
      <trkpt lat="38.295112" lon="-0.726878">
        <ele>207.2</ele>
        <time>2019-12-31T13:26:56Z</time>
      </trkpt>
      <trkpt lat="38.295114" lon="-0.726946">
        <ele>207.2</ele>
        <time>2019-12-31T13:26:57Z</time>
      </trkpt>
      <trkpt lat="38.295119" lon="-0.727012">
        <ele>207.6</ele>
        <time>2019-12-31T13:26:58Z</time>
      </trkpt>
      <trkpt lat="38.295123" lon="-0.727075">
        <ele>207.8</ele>
        <time>2019-12-31T13:26:59Z</time>
      </trkpt>
      <trkpt lat="38.295127" lon="-0.727142">
        <ele>207.8</ele>
        <time>2019-12-31T13:27:00Z</time>
      </trkpt>
      <trkpt lat="38.295135" lon="-0.727209">
        <ele>208.2</ele>
        <time>2019-12-31T13:27:01Z</time>
      </trkpt>
      <trkpt lat="38.295143" lon="-0.727280">
        <ele>208.4</ele>
        <time>2019-12-31T13:27:02Z</time>
      </trkpt>
      <trkpt lat="38.295153" lon="-0.727349">
        <ele>208.4</ele>
        <time>2019-12-31T13:27:03Z</time>
      </trkpt>
      <trkpt lat="38.295162" lon="-0.727420">
        <ele>208.8</ele>
        <time>2019-12-31T13:27:04Z</time>
      </trkpt>
      <trkpt lat="38.295172" lon="-0.727492">
        <ele>208.6</ele>
        <time>2019-12-31T13:27:05Z</time>
      </trkpt>
      <trkpt lat="38.295182" lon="-0.727563">
        <ele>208.8</ele>
        <time>2019-12-31T13:27:06Z</time>
      </trkpt>
      <trkpt lat="38.295191" lon="-0.727634">
        <ele>209</ele>
        <time>2019-12-31T13:27:07Z</time>
      </trkpt>
      <trkpt lat="38.295201" lon="-0.727704">
        <ele>209.2</ele>
        <time>2019-12-31T13:27:08Z</time>
      </trkpt>
      <trkpt lat="38.295211" lon="-0.727772">
        <ele>209.4</ele>
        <time>2019-12-31T13:27:09Z</time>
      </trkpt>
      <trkpt lat="38.295221" lon="-0.727841">
        <ele>209.8</ele>
        <time>2019-12-31T13:27:10Z</time>
      </trkpt>
      <trkpt lat="38.295230" lon="-0.727907">
        <ele>209.8</ele>
        <time>2019-12-31T13:27:11Z</time>
      </trkpt>
      <trkpt lat="38.295241" lon="-0.727973">
        <ele>210.2</ele>
        <time>2019-12-31T13:27:12Z</time>
      </trkpt>
      <trkpt lat="38.295251" lon="-0.728040">
        <ele>210.4</ele>
        <time>2019-12-31T13:27:13Z</time>
      </trkpt>
      <trkpt lat="38.295264" lon="-0.728105">
        <ele>210.8</ele>
        <time>2019-12-31T13:27:14Z</time>
      </trkpt>
      <trkpt lat="38.295275" lon="-0.728171">
        <ele>210.8</ele>
        <time>2019-12-31T13:27:15Z</time>
      </trkpt>
      <trkpt lat="38.295286" lon="-0.728236">
        <ele>211</ele>
        <time>2019-12-31T13:27:16Z</time>
      </trkpt>
      <trkpt lat="38.295298" lon="-0.728301">
        <ele>211.2</ele>
        <time>2019-12-31T13:27:17Z</time>
      </trkpt>
      <trkpt lat="38.295310" lon="-0.728367">
        <ele>211.2</ele>
        <time>2019-12-31T13:27:18Z</time>
      </trkpt>
      <trkpt lat="38.295324" lon="-0.728433">
        <ele>211.4</ele>
        <time>2019-12-31T13:27:19Z</time>
      </trkpt>
      <trkpt lat="38.295337" lon="-0.728502">
        <ele>211.4</ele>
        <time>2019-12-31T13:27:20Z</time>
      </trkpt>
      <trkpt lat="38.295350" lon="-0.728571">
        <ele>211.4</ele>
        <time>2019-12-31T13:27:21Z</time>
      </trkpt>
      <trkpt lat="38.295363" lon="-0.728643">
        <ele>211.6</ele>
        <time>2019-12-31T13:27:22Z</time>
      </trkpt>
      <trkpt lat="38.295376" lon="-0.728716">
        <ele>211.6</ele>
        <time>2019-12-31T13:27:23Z</time>
      </trkpt>
      <trkpt lat="38.295391" lon="-0.728790">
        <ele>211.6</ele>
        <time>2019-12-31T13:27:24Z</time>
      </trkpt>
      <trkpt lat="38.295405" lon="-0.728863">
        <ele>211.6</ele>
        <time>2019-12-31T13:27:25Z</time>
      </trkpt>
      <trkpt lat="38.295417" lon="-0.728937">
        <ele>211.8</ele>
        <time>2019-12-31T13:27:26Z</time>
      </trkpt>
      <trkpt lat="38.295425" lon="-0.729011">
        <ele>211.6</ele>
        <time>2019-12-31T13:27:27Z</time>
      </trkpt>
      <trkpt lat="38.295429" lon="-0.729088">
        <ele>211.8</ele>
        <time>2019-12-31T13:27:28Z</time>
      </trkpt>
      <trkpt lat="38.295435" lon="-0.729159">
        <ele>212</ele>
        <time>2019-12-31T13:27:29Z</time>
      </trkpt>
      <trkpt lat="38.295449" lon="-0.729227">
        <ele>212.2</ele>
        <time>2019-12-31T13:27:30Z</time>
      </trkpt>
      <trkpt lat="38.295475" lon="-0.729288">
        <ele>212.2</ele>
        <time>2019-12-31T13:27:31Z</time>
      </trkpt>
      <trkpt lat="38.295511" lon="-0.729346">
        <ele>212.2</ele>
        <time>2019-12-31T13:27:32Z</time>
      </trkpt>
      <trkpt lat="38.295547" lon="-0.729406">
        <ele>212.2</ele>
        <time>2019-12-31T13:27:33Z</time>
      </trkpt>
      <trkpt lat="38.295581" lon="-0.729467">
        <ele>212.2</ele>
        <time>2019-12-31T13:27:34Z</time>
      </trkpt>
      <trkpt lat="38.295612" lon="-0.729528">
        <ele>212.2</ele>
        <time>2019-12-31T13:27:35Z</time>
      </trkpt>
      <trkpt lat="38.295638" lon="-0.729591">
        <ele>212.8</ele>
        <time>2019-12-31T13:27:36Z</time>
      </trkpt>
      <trkpt lat="38.295662" lon="-0.729652">
        <ele>213.2</ele>
        <time>2019-12-31T13:27:37Z</time>
      </trkpt>
      <trkpt lat="38.295683" lon="-0.729709">
        <ele>213.6</ele>
        <time>2019-12-31T13:27:38Z</time>
      </trkpt>
      <trkpt lat="38.295706" lon="-0.729766">
        <ele>213.8</ele>
        <time>2019-12-31T13:27:39Z</time>
      </trkpt>
      <trkpt lat="38.295728" lon="-0.729826">
        <ele>213.8</ele>
        <time>2019-12-31T13:27:40Z</time>
      </trkpt>
      <trkpt lat="38.295751" lon="-0.729889">
        <ele>213.6</ele>
        <time>2019-12-31T13:27:41Z</time>
      </trkpt>
      <trkpt lat="38.295776" lon="-0.729953">
        <ele>213.6</ele>
        <time>2019-12-31T13:27:42Z</time>
      </trkpt>
      <trkpt lat="38.295801" lon="-0.730019">
        <ele>213.8</ele>
        <time>2019-12-31T13:27:43Z</time>
      </trkpt>
      <trkpt lat="38.295826" lon="-0.730085">
        <ele>213.8</ele>
        <time>2019-12-31T13:27:44Z</time>
      </trkpt>
      <trkpt lat="38.295853" lon="-0.730152">
        <ele>213.8</ele>
        <time>2019-12-31T13:27:45Z</time>
      </trkpt>
      <trkpt lat="38.295881" lon="-0.730218">
        <ele>213.8</ele>
        <time>2019-12-31T13:27:46Z</time>
      </trkpt>
      <trkpt lat="38.295913" lon="-0.730282">
        <ele>214.2</ele>
        <time>2019-12-31T13:27:47Z</time>
      </trkpt>
      <trkpt lat="38.295947" lon="-0.730343">
        <ele>214.2</ele>
        <time>2019-12-31T13:27:48Z</time>
      </trkpt>
      <trkpt lat="38.295984" lon="-0.730401">
        <ele>214.4</ele>
        <time>2019-12-31T13:27:49Z</time>
      </trkpt>
      <trkpt lat="38.296023" lon="-0.730456">
        <ele>214.8</ele>
        <time>2019-12-31T13:27:50Z</time>
      </trkpt>
      <trkpt lat="38.296065" lon="-0.730510">
        <ele>214.8</ele>
        <time>2019-12-31T13:27:51Z</time>
      </trkpt>
      <trkpt lat="38.296110" lon="-0.730558">
        <ele>215</ele>
        <time>2019-12-31T13:27:52Z</time>
      </trkpt>
      <trkpt lat="38.296156" lon="-0.730605">
        <ele>215.2</ele>
        <time>2019-12-31T13:27:53Z</time>
      </trkpt>
      <trkpt lat="38.296203" lon="-0.730649">
        <ele>215.4</ele>
        <time>2019-12-31T13:27:54Z</time>
      </trkpt>
      <trkpt lat="38.296250" lon="-0.730693">
        <ele>215.6</ele>
        <time>2019-12-31T13:27:55Z</time>
      </trkpt>
      <trkpt lat="38.296296" lon="-0.730735">
        <ele>215.8</ele>
        <time>2019-12-31T13:27:56Z</time>
      </trkpt>
      <trkpt lat="38.296342" lon="-0.730778">
        <ele>216</ele>
        <time>2019-12-31T13:27:57Z</time>
      </trkpt>
      <trkpt lat="38.296385" lon="-0.730821">
        <ele>216.2</ele>
        <time>2019-12-31T13:27:58Z</time>
      </trkpt>
      <trkpt lat="38.296427" lon="-0.730865">
        <ele>216.8</ele>
        <time>2019-12-31T13:27:59Z</time>
      </trkpt>
      <trkpt lat="38.296466" lon="-0.730910">
        <ele>217</ele>
        <time>2019-12-31T13:28:00Z</time>
      </trkpt>
      <trkpt lat="38.296503" lon="-0.730957">
        <ele>217.2</ele>
        <time>2019-12-31T13:28:01Z</time>
      </trkpt>
      <trkpt lat="38.296536" lon="-0.731010">
        <ele>217.2</ele>
        <time>2019-12-31T13:28:02Z</time>
      </trkpt>
      <trkpt lat="38.296566" lon="-0.731068">
        <ele>217.4</ele>
        <time>2019-12-31T13:28:03Z</time>
      </trkpt>
      <trkpt lat="38.296593" lon="-0.731129">
        <ele>217.4</ele>
        <time>2019-12-31T13:28:04Z</time>
      </trkpt>
      <trkpt lat="38.296618" lon="-0.731192">
        <ele>217.6</ele>
        <time>2019-12-31T13:28:05Z</time>
      </trkpt>
      <trkpt lat="38.296643" lon="-0.731255">
        <ele>217.6</ele>
        <time>2019-12-31T13:28:06Z</time>
      </trkpt>
      <trkpt lat="38.296669" lon="-0.731318">
        <ele>218</ele>
        <time>2019-12-31T13:28:07Z</time>
      </trkpt>
      <trkpt lat="38.296695" lon="-0.731381">
        <ele>218.2</ele>
        <time>2019-12-31T13:28:08Z</time>
      </trkpt>
      <trkpt lat="38.296722" lon="-0.731445">
        <ele>218.2</ele>
        <time>2019-12-31T13:28:09Z</time>
      </trkpt>
      <trkpt lat="38.296750" lon="-0.731508">
        <ele>218.6</ele>
        <time>2019-12-31T13:28:10Z</time>
      </trkpt>
      <trkpt lat="38.296782" lon="-0.731569">
        <ele>218.6</ele>
        <time>2019-12-31T13:28:11Z</time>
      </trkpt>
      <trkpt lat="38.296816" lon="-0.731630">
        <ele>218.8</ele>
        <time>2019-12-31T13:28:12Z</time>
      </trkpt>
      <trkpt lat="38.296851" lon="-0.731689">
        <ele>219.2</ele>
        <time>2019-12-31T13:28:13Z</time>
      </trkpt>
      <trkpt lat="38.296886" lon="-0.731745">
        <ele>219.4</ele>
        <time>2019-12-31T13:28:14Z</time>
      </trkpt>
      <trkpt lat="38.296921" lon="-0.731799">
        <ele>219.6</ele>
        <time>2019-12-31T13:28:15Z</time>
      </trkpt>
      <trkpt lat="38.296958" lon="-0.731854">
        <ele>220</ele>
        <time>2019-12-31T13:28:16Z</time>
      </trkpt>
      <trkpt lat="38.296994" lon="-0.731909">
        <ele>220.2</ele>
        <time>2019-12-31T13:28:17Z</time>
      </trkpt>
      <trkpt lat="38.297032" lon="-0.731963">
        <ele>220.6</ele>
        <time>2019-12-31T13:28:18Z</time>
      </trkpt>
      <trkpt lat="38.297072" lon="-0.732015">
        <ele>220.8</ele>
        <time>2019-12-31T13:28:19Z</time>
      </trkpt>
      <trkpt lat="38.297115" lon="-0.732065">
        <ele>221</ele>
        <time>2019-12-31T13:28:20Z</time>
      </trkpt>
      <trkpt lat="38.297159" lon="-0.732113">
        <ele>221</ele>
        <time>2019-12-31T13:28:21Z</time>
      </trkpt>
      <trkpt lat="38.297207" lon="-0.732157">
        <ele>221.2</ele>
        <time>2019-12-31T13:28:22Z</time>
      </trkpt>
      <trkpt lat="38.297257" lon="-0.732198">
        <ele>221.2</ele>
        <time>2019-12-31T13:28:23Z</time>
      </trkpt>
      <trkpt lat="38.297308" lon="-0.732236">
        <ele>221.2</ele>
        <time>2019-12-31T13:28:24Z</time>
      </trkpt>
      <trkpt lat="38.297359" lon="-0.732273">
        <ele>221.6</ele>
        <time>2019-12-31T13:28:25Z</time>
      </trkpt>
      <trkpt lat="38.297410" lon="-0.732311">
        <ele>222</ele>
        <time>2019-12-31T13:28:26Z</time>
      </trkpt>
      <trkpt lat="38.297460" lon="-0.732345">
        <ele>222.4</ele>
        <time>2019-12-31T13:28:27Z</time>
      </trkpt>
      <trkpt lat="38.297511" lon="-0.732380">
        <ele>222.4</ele>
        <time>2019-12-31T13:28:28Z</time>
      </trkpt>
      <trkpt lat="38.297560" lon="-0.732417">
        <ele>222.6</ele>
        <time>2019-12-31T13:28:29Z</time>
      </trkpt>
      <trkpt lat="38.297614" lon="-0.732455">
        <ele>223</ele>
        <time>2019-12-31T13:28:30Z</time>
      </trkpt>
      <trkpt lat="38.297661" lon="-0.732488">
        <ele>223.2</ele>
        <time>2019-12-31T13:28:31Z</time>
      </trkpt>
      <trkpt lat="38.297705" lon="-0.732516">
        <ele>223.8</ele>
        <time>2019-12-31T13:28:32Z</time>
      </trkpt>
      <trkpt lat="38.297747" lon="-0.732536">
        <ele>224.2</ele>
        <time>2019-12-31T13:28:33Z</time>
      </trkpt>
      <trkpt lat="38.297788" lon="-0.732548">
        <ele>224.6</ele>
        <time>2019-12-31T13:28:34Z</time>
      </trkpt>
      <trkpt lat="38.297829" lon="-0.732557">
        <ele>225</ele>
        <time>2019-12-31T13:28:35Z</time>
      </trkpt>
      <trkpt lat="38.297873" lon="-0.732562">
        <ele>225.2</ele>
        <time>2019-12-31T13:28:36Z</time>
      </trkpt>
      <trkpt lat="38.297920" lon="-0.732568">
        <ele>225.4</ele>
        <time>2019-12-31T13:28:37Z</time>
      </trkpt>
      <trkpt lat="38.297968" lon="-0.732575">
        <ele>225.2</ele>
        <time>2019-12-31T13:28:38Z</time>
      </trkpt>
      <trkpt lat="38.298019" lon="-0.732584">
        <ele>225.6</ele>
        <time>2019-12-31T13:28:39Z</time>
      </trkpt>
      <trkpt lat="38.298071" lon="-0.732597">
        <ele>225.6</ele>
        <time>2019-12-31T13:28:40Z</time>
      </trkpt>
      <trkpt lat="38.298123" lon="-0.732611">
        <ele>225.6</ele>
        <time>2019-12-31T13:28:41Z</time>
      </trkpt>
      <trkpt lat="38.298175" lon="-0.732625">
        <ele>225.8</ele>
        <time>2019-12-31T13:28:42Z</time>
      </trkpt>
      <trkpt lat="38.298228" lon="-0.732637">
        <ele>226</ele>
        <time>2019-12-31T13:28:43Z</time>
      </trkpt>
      <trkpt lat="38.298279" lon="-0.732655">
        <ele>226.2</ele>
        <time>2019-12-31T13:28:44Z</time>
      </trkpt>
      <trkpt lat="38.298329" lon="-0.732677">
        <ele>226.6</ele>
        <time>2019-12-31T13:28:45Z</time>
      </trkpt>
      <trkpt lat="38.298379" lon="-0.732696">
        <ele>226.8</ele>
        <time>2019-12-31T13:28:46Z</time>
      </trkpt>
      <trkpt lat="38.298426" lon="-0.732712">
        <ele>227.2</ele>
        <time>2019-12-31T13:28:47Z</time>
      </trkpt>
      <trkpt lat="38.298472" lon="-0.732725">
        <ele>227.4</ele>
        <time>2019-12-31T13:28:48Z</time>
      </trkpt>
      <trkpt lat="38.298516" lon="-0.732732">
        <ele>228</ele>
        <time>2019-12-31T13:28:49Z</time>
      </trkpt>
      <trkpt lat="38.298558" lon="-0.732736">
        <ele>228.6</ele>
        <time>2019-12-31T13:28:50Z</time>
      </trkpt>
      <trkpt lat="38.298602" lon="-0.732740">
        <ele>229</ele>
        <time>2019-12-31T13:28:51Z</time>
      </trkpt>
      <trkpt lat="38.298643" lon="-0.732741">
        <ele>229.4</ele>
        <time>2019-12-31T13:28:52Z</time>
      </trkpt>
      <trkpt lat="38.298680" lon="-0.732742">
        <ele>229.8</ele>
        <time>2019-12-31T13:28:53Z</time>
      </trkpt>
      <trkpt lat="38.298717" lon="-0.732742">
        <ele>230.2</ele>
        <time>2019-12-31T13:28:54Z</time>
      </trkpt>
      <trkpt lat="38.298754" lon="-0.732744">
        <ele>230.6</ele>
        <time>2019-12-31T13:28:55Z</time>
      </trkpt>
      <trkpt lat="38.298793" lon="-0.732747">
        <ele>231</ele>
        <time>2019-12-31T13:28:56Z</time>
      </trkpt>
      <trkpt lat="38.298832" lon="-0.732750">
        <ele>231.2</ele>
        <time>2019-12-31T13:28:57Z</time>
      </trkpt>
      <trkpt lat="38.298872" lon="-0.732752">
        <ele>231.4</ele>
        <time>2019-12-31T13:28:58Z</time>
      </trkpt>
      <trkpt lat="38.298912" lon="-0.732755">
        <ele>231.6</ele>
        <time>2019-12-31T13:28:59Z</time>
      </trkpt>
      <trkpt lat="38.298950" lon="-0.732762">
        <ele>232.2</ele>
        <time>2019-12-31T13:29:00Z</time>
      </trkpt>
      <trkpt lat="38.298988" lon="-0.732768">
        <ele>232.4</ele>
        <time>2019-12-31T13:29:01Z</time>
      </trkpt>
      <trkpt lat="38.299025" lon="-0.732771">
        <ele>232.6</ele>
        <time>2019-12-31T13:29:02Z</time>
      </trkpt>
      <trkpt lat="38.299062" lon="-0.732774">
        <ele>233</ele>
        <time>2019-12-31T13:29:03Z</time>
      </trkpt>
      <trkpt lat="38.299099" lon="-0.732775">
        <ele>233.2</ele>
        <time>2019-12-31T13:29:04Z</time>
      </trkpt>
      <trkpt lat="38.299136" lon="-0.732776">
        <ele>233.4</ele>
        <time>2019-12-31T13:29:05Z</time>
      </trkpt>
      <trkpt lat="38.299175" lon="-0.732774">
        <ele>233.6</ele>
        <time>2019-12-31T13:29:06Z</time>
      </trkpt>
      <trkpt lat="38.299214" lon="-0.732766">
        <ele>234</ele>
        <time>2019-12-31T13:29:07Z</time>
      </trkpt>
      <trkpt lat="38.299253" lon="-0.732755">
        <ele>234.2</ele>
        <time>2019-12-31T13:29:08Z</time>
      </trkpt>
      <trkpt lat="38.299292" lon="-0.732744">
        <ele>234.6</ele>
        <time>2019-12-31T13:29:09Z</time>
      </trkpt>
      <trkpt lat="38.299330" lon="-0.732728">
        <ele>234.8</ele>
        <time>2019-12-31T13:29:10Z</time>
      </trkpt>
      <trkpt lat="38.299366" lon="-0.732714">
        <ele>235.4</ele>
        <time>2019-12-31T13:29:11Z</time>
      </trkpt>
      <trkpt lat="38.299401" lon="-0.732701">
        <ele>235.8</ele>
        <time>2019-12-31T13:29:12Z</time>
      </trkpt>
      <trkpt lat="38.299435" lon="-0.732690">
        <ele>236.2</ele>
        <time>2019-12-31T13:29:13Z</time>
      </trkpt>
      <trkpt lat="38.299472" lon="-0.732677">
        <ele>236.2</ele>
        <time>2019-12-31T13:29:14Z</time>
      </trkpt>
      <trkpt lat="38.299508" lon="-0.732669">
        <ele>236.4</ele>
        <time>2019-12-31T13:29:15Z</time>
      </trkpt>
      <trkpt lat="38.299544" lon="-0.732665">
        <ele>236.6</ele>
        <time>2019-12-31T13:29:16Z</time>
      </trkpt>
      <trkpt lat="38.299582" lon="-0.732662">
        <ele>236.8</ele>
        <time>2019-12-31T13:29:17Z</time>
      </trkpt>
      <trkpt lat="38.299621" lon="-0.732659">
        <ele>237.2</ele>
        <time>2019-12-31T13:29:18Z</time>
      </trkpt>
      <trkpt lat="38.299659" lon="-0.732657">
        <ele>237.4</ele>
        <time>2019-12-31T13:29:19Z</time>
      </trkpt>
      <trkpt lat="38.299695" lon="-0.732657">
        <ele>237.6</ele>
        <time>2019-12-31T13:29:20Z</time>
      </trkpt>
      <trkpt lat="38.299731" lon="-0.732655">
        <ele>237.8</ele>
        <time>2019-12-31T13:29:21Z</time>
      </trkpt>
      <trkpt lat="38.299768" lon="-0.732652">
        <ele>238.2</ele>
        <time>2019-12-31T13:29:22Z</time>
      </trkpt>
      <trkpt lat="38.299804" lon="-0.732652">
        <ele>238.4</ele>
        <time>2019-12-31T13:29:23Z</time>
      </trkpt>
      <trkpt lat="38.299841" lon="-0.732651">
        <ele>238.8</ele>
        <time>2019-12-31T13:29:24Z</time>
      </trkpt>
      <trkpt lat="38.299877" lon="-0.732643">
        <ele>239</ele>
        <time>2019-12-31T13:29:25Z</time>
      </trkpt>
      <trkpt lat="38.299910" lon="-0.732640">
        <ele>239.4</ele>
        <time>2019-12-31T13:29:26Z</time>
      </trkpt>
      <trkpt lat="38.299941" lon="-0.732636">
        <ele>239.8</ele>
        <time>2019-12-31T13:29:27Z</time>
      </trkpt>
      <trkpt lat="38.299968" lon="-0.732625">
        <ele>240.2</ele>
        <time>2019-12-31T13:29:28Z</time>
      </trkpt>
      <trkpt lat="38.299992" lon="-0.732604">
        <ele>240.6</ele>
        <time>2019-12-31T13:29:29Z</time>
      </trkpt>
      <trkpt lat="38.300018" lon="-0.732572">
        <ele>240.8</ele>
        <time>2019-12-31T13:29:30Z</time>
      </trkpt>
      <trkpt lat="38.300040" lon="-0.732532">
        <ele>241.2</ele>
        <time>2019-12-31T13:29:31Z</time>
      </trkpt>
      <trkpt lat="38.300056" lon="-0.732493">
        <ele>241.2</ele>
        <time>2019-12-31T13:29:32Z</time>
      </trkpt>
      <trkpt lat="38.300069" lon="-0.732452">
        <ele>241.4</ele>
        <time>2019-12-31T13:29:33Z</time>
      </trkpt>
      <trkpt lat="38.300081" lon="-0.732408">
        <ele>241.6</ele>
        <time>2019-12-31T13:29:34Z</time>
      </trkpt>
      <trkpt lat="38.300097" lon="-0.732362">
        <ele>241.8</ele>
        <time>2019-12-31T13:29:35Z</time>
      </trkpt>
      <trkpt lat="38.300113" lon="-0.732312">
        <ele>241.6</ele>
        <time>2019-12-31T13:29:36Z</time>
      </trkpt>
      <trkpt lat="38.300128" lon="-0.732257">
        <ele>241.2</ele>
        <time>2019-12-31T13:29:37Z</time>
      </trkpt>
      <trkpt lat="38.300139" lon="-0.732198">
        <ele>241</ele>
        <time>2019-12-31T13:29:38Z</time>
      </trkpt>
      <trkpt lat="38.300147" lon="-0.732137">
        <ele>241.2</ele>
        <time>2019-12-31T13:29:39Z</time>
      </trkpt>
      <trkpt lat="38.300149" lon="-0.732078">
        <ele>241.4</ele>
        <time>2019-12-31T13:29:40Z</time>
      </trkpt>
      <trkpt lat="38.300151" lon="-0.732018">
        <ele>241.8</ele>
        <time>2019-12-31T13:29:41Z</time>
      </trkpt>
      <trkpt lat="38.300157" lon="-0.731961">
        <ele>242.2</ele>
        <time>2019-12-31T13:29:42Z</time>
      </trkpt>
      <trkpt lat="38.300163" lon="-0.731910">
        <ele>242.8</ele>
        <time>2019-12-31T13:29:43Z</time>
      </trkpt>
      <trkpt lat="38.300172" lon="-0.731864">
        <ele>243</ele>
        <time>2019-12-31T13:29:44Z</time>
      </trkpt>
      <trkpt lat="38.300183" lon="-0.731819">
        <ele>243.2</ele>
        <time>2019-12-31T13:29:45Z</time>
      </trkpt>
      <trkpt lat="38.300193" lon="-0.731768">
        <ele>243</ele>
        <time>2019-12-31T13:29:46Z</time>
      </trkpt>
      <trkpt lat="38.300204" lon="-0.731710">
        <ele>242.6</ele>
        <time>2019-12-31T13:29:47Z</time>
      </trkpt>
      <trkpt lat="38.300212" lon="-0.731647">
        <ele>242.2</ele>
        <time>2019-12-31T13:29:48Z</time>
      </trkpt>
      <trkpt lat="38.300211" lon="-0.731577">
        <ele>242</ele>
        <time>2019-12-31T13:29:49Z</time>
      </trkpt>
      <trkpt lat="38.300195" lon="-0.731503">
        <ele>241.6</ele>
        <time>2019-12-31T13:29:50Z</time>
      </trkpt>
      <trkpt lat="38.300175" lon="-0.731425">
        <ele>241.2</ele>
        <time>2019-12-31T13:29:51Z</time>
      </trkpt>
      <trkpt lat="38.300155" lon="-0.731343">
        <ele>240.6</ele>
        <time>2019-12-31T13:29:52Z</time>
      </trkpt>
      <trkpt lat="38.300135" lon="-0.731255">
        <ele>239.8</ele>
        <time>2019-12-31T13:29:53Z</time>
      </trkpt>
      <trkpt lat="38.300116" lon="-0.731160">
        <ele>239.2</ele>
        <time>2019-12-31T13:29:54Z</time>
      </trkpt>
      <trkpt lat="38.300108" lon="-0.731060">
        <ele>238.6</ele>
        <time>2019-12-31T13:29:55Z</time>
      </trkpt>
      <trkpt lat="38.300105" lon="-0.730956">
        <ele>237.8</ele>
        <time>2019-12-31T13:29:56Z</time>
      </trkpt>
      <trkpt lat="38.300101" lon="-0.730849">
        <ele>237.2</ele>
        <time>2019-12-31T13:29:57Z</time>
      </trkpt>
      <trkpt lat="38.300087" lon="-0.730743">
        <ele>236.8</ele>
        <time>2019-12-31T13:29:58Z</time>
      </trkpt>
      <trkpt lat="38.300068" lon="-0.730635">
        <ele>236.2</ele>
        <time>2019-12-31T13:29:59Z</time>
      </trkpt>
      <trkpt lat="38.300042" lon="-0.730526">
        <ele>235.4</ele>
        <time>2019-12-31T13:30:00Z</time>
      </trkpt>
      <trkpt lat="38.300013" lon="-0.730416">
        <ele>234.6</ele>
        <time>2019-12-31T13:30:01Z</time>
      </trkpt>
      <trkpt lat="38.299983" lon="-0.730298">
        <ele>233.8</ele>
        <time>2019-12-31T13:30:02Z</time>
      </trkpt>
      <trkpt lat="38.299962" lon="-0.730179">
        <ele>233.2</ele>
        <time>2019-12-31T13:30:03Z</time>
      </trkpt>
      <trkpt lat="38.299949" lon="-0.730051">
        <ele>232.4</ele>
        <time>2019-12-31T13:30:04Z</time>
      </trkpt>
      <trkpt lat="38.299944" lon="-0.729928">
        <ele>232</ele>
        <time>2019-12-31T13:30:05Z</time>
      </trkpt>
      <trkpt lat="38.299939" lon="-0.729809">
        <ele>231.6</ele>
        <time>2019-12-31T13:30:06Z</time>
      </trkpt>
      <trkpt lat="38.299932" lon="-0.729690">
        <ele>230.8</ele>
        <time>2019-12-31T13:30:07Z</time>
      </trkpt>
      <trkpt lat="38.299920" lon="-0.729569">
        <ele>230.2</ele>
        <time>2019-12-31T13:30:08Z</time>
      </trkpt>
      <trkpt lat="38.299900" lon="-0.729449">
        <ele>229.2</ele>
        <time>2019-12-31T13:30:09Z</time>
      </trkpt>
      <trkpt lat="38.299879" lon="-0.729326">
        <ele>228.8</ele>
        <time>2019-12-31T13:30:10Z</time>
      </trkpt>
      <trkpt lat="38.299866" lon="-0.729203">
        <ele>228.4</ele>
        <time>2019-12-31T13:30:11Z</time>
      </trkpt>
      <trkpt lat="38.299871" lon="-0.729092">
        <ele>228.2</ele>
        <time>2019-12-31T13:30:12Z</time>
      </trkpt>
      <trkpt lat="38.299874" lon="-0.728982">
        <ele>228.4</ele>
        <time>2019-12-31T13:30:13Z</time>
      </trkpt>
      <trkpt lat="38.299873" lon="-0.728871">
        <ele>228.2</ele>
        <time>2019-12-31T13:30:14Z</time>
      </trkpt>
      <trkpt lat="38.299868" lon="-0.728762">
        <ele>228.2</ele>
        <time>2019-12-31T13:30:15Z</time>
      </trkpt>
      <trkpt lat="38.299864" lon="-0.728658">
        <ele>227.8</ele>
        <time>2019-12-31T13:30:16Z</time>
      </trkpt>
      <trkpt lat="38.299860" lon="-0.728556">
        <ele>227.8</ele>
        <time>2019-12-31T13:30:17Z</time>
      </trkpt>
      <trkpt lat="38.299856" lon="-0.728455">
        <ele>227.6</ele>
        <time>2019-12-31T13:30:18Z</time>
      </trkpt>
      <trkpt lat="38.299852" lon="-0.728355">
        <ele>227.4</ele>
        <time>2019-12-31T13:30:19Z</time>
      </trkpt>
      <trkpt lat="38.299842" lon="-0.728257">
        <ele>227.4</ele>
        <time>2019-12-31T13:30:20Z</time>
      </trkpt>
      <trkpt lat="38.299822" lon="-0.728161">
        <ele>226.8</ele>
        <time>2019-12-31T13:30:21Z</time>
      </trkpt>
      <trkpt lat="38.299797" lon="-0.728063">
        <ele>226.6</ele>
        <time>2019-12-31T13:30:22Z</time>
      </trkpt>
      <trkpt lat="38.299764" lon="-0.727968">
        <ele>226.2</ele>
        <time>2019-12-31T13:30:23Z</time>
      </trkpt>
      <trkpt lat="38.299746" lon="-0.727859">
        <ele>225.4</ele>
        <time>2019-12-31T13:30:24Z</time>
      </trkpt>
      <trkpt lat="38.299745" lon="-0.727749">
        <ele>225</ele>
        <time>2019-12-31T13:30:25Z</time>
      </trkpt>
      <trkpt lat="38.299757" lon="-0.727637">
        <ele>224.6</ele>
        <time>2019-12-31T13:30:26Z</time>
      </trkpt>
      <trkpt lat="38.299766" lon="-0.727531">
        <ele>224.8</ele>
        <time>2019-12-31T13:30:27Z</time>
      </trkpt>
      <trkpt lat="38.299771" lon="-0.727430">
        <ele>225</ele>
        <time>2019-12-31T13:30:28Z</time>
      </trkpt>
      <trkpt lat="38.299760" lon="-0.727334">
        <ele>224.8</ele>
        <time>2019-12-31T13:30:29Z</time>
      </trkpt>
      <trkpt lat="38.299739" lon="-0.727242">
        <ele>224.4</ele>
        <time>2019-12-31T13:30:30Z</time>
      </trkpt>
      <trkpt lat="38.299721" lon="-0.727175">
        <ele>224.2</ele>
        <time>2019-12-31T13:30:31Z</time>
      </trkpt>
      <trkpt lat="38.299709" lon="-0.727126">
        <ele>224.2</ele>
        <time>2019-12-31T13:30:32Z</time>
      </trkpt>
      <trkpt lat="38.299695" lon="-0.727091">
        <ele>224.4</ele>
        <time>2019-12-31T13:30:33Z</time>
      </trkpt>
      <trkpt lat="38.299691" lon="-0.727063">
        <ele>224.2</ele>
        <time>2019-12-31T13:30:34Z</time>
      </trkpt>
      <trkpt lat="38.299690" lon="-0.727036">
        <ele>224.2</ele>
        <time>2019-12-31T13:30:35Z</time>
      </trkpt>
      <trkpt lat="38.299692" lon="-0.727007">
        <ele>224.2</ele>
        <time>2019-12-31T13:30:36Z</time>
      </trkpt>
      <trkpt lat="38.299699" lon="-0.726974">
        <ele>224.2</ele>
        <time>2019-12-31T13:30:37Z</time>
      </trkpt>
      <trkpt lat="38.299714" lon="-0.726939">
        <ele>224.2</ele>
        <time>2019-12-31T13:30:38Z</time>
      </trkpt>
      <trkpt lat="38.299728" lon="-0.726897">
        <ele>224.4</ele>
        <time>2019-12-31T13:30:39Z</time>
      </trkpt>
      <trkpt lat="38.299741" lon="-0.726848">
        <ele>224.4</ele>
        <time>2019-12-31T13:30:40Z</time>
      </trkpt>
      <trkpt lat="38.299749" lon="-0.726794">
        <ele>224.2</ele>
        <time>2019-12-31T13:30:41Z</time>
      </trkpt>
      <trkpt lat="38.299751" lon="-0.726733">
        <ele>224.2</ele>
        <time>2019-12-31T13:30:42Z</time>
      </trkpt>
      <trkpt lat="38.299750" lon="-0.726670">
        <ele>223.8</ele>
        <time>2019-12-31T13:30:43Z</time>
      </trkpt>
      <trkpt lat="38.299744" lon="-0.726601">
        <ele>223.6</ele>
        <time>2019-12-31T13:30:44Z</time>
      </trkpt>
      <trkpt lat="38.299734" lon="-0.726528">
        <ele>223.6</ele>
        <time>2019-12-31T13:30:45Z</time>
      </trkpt>
      <trkpt lat="38.299720" lon="-0.726455">
        <ele>223.4</ele>
        <time>2019-12-31T13:30:46Z</time>
      </trkpt>
      <trkpt lat="38.299703" lon="-0.726378">
        <ele>223.4</ele>
        <time>2019-12-31T13:30:47Z</time>
      </trkpt>
      <trkpt lat="38.299687" lon="-0.726301">
        <ele>223.2</ele>
        <time>2019-12-31T13:30:48Z</time>
      </trkpt>
      <trkpt lat="38.299673" lon="-0.726221">
        <ele>223</ele>
        <time>2019-12-31T13:30:49Z</time>
      </trkpt>
      <trkpt lat="38.299663" lon="-0.726139">
        <ele>223.2</ele>
        <time>2019-12-31T13:30:50Z</time>
      </trkpt>
      <trkpt lat="38.299655" lon="-0.726057">
        <ele>223.2</ele>
        <time>2019-12-31T13:30:51Z</time>
      </trkpt>
      <trkpt lat="38.299643" lon="-0.725974">
        <ele>223</ele>
        <time>2019-12-31T13:30:52Z</time>
      </trkpt>
      <trkpt lat="38.299632" lon="-0.725888">
        <ele>222.6</ele>
        <time>2019-12-31T13:30:53Z</time>
      </trkpt>
      <trkpt lat="38.299619" lon="-0.725798">
        <ele>222.4</ele>
        <time>2019-12-31T13:30:54Z</time>
      </trkpt>
      <trkpt lat="38.299607" lon="-0.725706">
        <ele>222</ele>
        <time>2019-12-31T13:30:55Z</time>
      </trkpt>
      <trkpt lat="38.299595" lon="-0.725605">
        <ele>221.4</ele>
        <time>2019-12-31T13:30:56Z</time>
      </trkpt>
      <trkpt lat="38.299582" lon="-0.725502">
        <ele>220.4</ele>
        <time>2019-12-31T13:30:57Z</time>
      </trkpt>
      <trkpt lat="38.299566" lon="-0.725389">
        <ele>219.2</ele>
        <time>2019-12-31T13:30:58Z</time>
      </trkpt>
      <trkpt lat="38.299546" lon="-0.725275">
        <ele>218.2</ele>
        <time>2019-12-31T13:30:59Z</time>
      </trkpt>
      <trkpt lat="38.299526" lon="-0.725159">
        <ele>217.6</ele>
        <time>2019-12-31T13:31:00Z</time>
      </trkpt>
      <trkpt lat="38.299505" lon="-0.725041">
        <ele>216.4</ele>
        <time>2019-12-31T13:31:01Z</time>
      </trkpt>
      <trkpt lat="38.299485" lon="-0.724918">
        <ele>215.8</ele>
        <time>2019-12-31T13:31:02Z</time>
      </trkpt>
      <trkpt lat="38.299468" lon="-0.724794">
        <ele>214.8</ele>
        <time>2019-12-31T13:31:03Z</time>
      </trkpt>
      <trkpt lat="38.299454" lon="-0.724668">
        <ele>214</ele>
        <time>2019-12-31T13:31:04Z</time>
      </trkpt>
      <trkpt lat="38.299440" lon="-0.724535">
        <ele>213.2</ele>
        <time>2019-12-31T13:31:05Z</time>
      </trkpt>
      <trkpt lat="38.299420" lon="-0.724403">
        <ele>212.6</ele>
        <time>2019-12-31T13:31:06Z</time>
      </trkpt>
      <trkpt lat="38.299397" lon="-0.724283">
        <ele>212.2</ele>
        <time>2019-12-31T13:31:07Z</time>
      </trkpt>
      <trkpt lat="38.299377" lon="-0.724173">
        <ele>211.8</ele>
        <time>2019-12-31T13:31:08Z</time>
      </trkpt>
      <trkpt lat="38.299364" lon="-0.724079">
        <ele>211.2</ele>
        <time>2019-12-31T13:31:09Z</time>
      </trkpt>
      <trkpt lat="38.299356" lon="-0.724005">
        <ele>211</ele>
        <time>2019-12-31T13:31:10Z</time>
      </trkpt>
      <trkpt lat="38.299353" lon="-0.723946">
        <ele>211</ele>
        <time>2019-12-31T13:31:11Z</time>
      </trkpt>
      <trkpt lat="38.299361" lon="-0.723905">
        <ele>211</ele>
        <time>2019-12-31T13:31:12Z</time>
      </trkpt>
      <trkpt lat="38.299384" lon="-0.723879">
        <ele>210.8</ele>
        <time>2019-12-31T13:31:13Z</time>
      </trkpt>
      <trkpt lat="38.299415" lon="-0.723873">
        <ele>210.6</ele>
        <time>2019-12-31T13:31:14Z</time>
      </trkpt>
      <trkpt lat="38.299448" lon="-0.723859">
        <ele>210.4</ele>
        <time>2019-12-31T13:31:15Z</time>
      </trkpt>
      <trkpt lat="38.299467" lon="-0.723827">
        <ele>210.2</ele>
        <time>2019-12-31T13:31:16Z</time>
      </trkpt>
      <trkpt lat="38.299473" lon="-0.723778">
        <ele>209.2</ele>
        <time>2019-12-31T13:31:17Z</time>
      </trkpt>
      <trkpt lat="38.299476" lon="-0.723720">
        <ele>208.8</ele>
        <time>2019-12-31T13:31:18Z</time>
      </trkpt>
      <trkpt lat="38.299476" lon="-0.723656">
        <ele>208.6</ele>
        <time>2019-12-31T13:31:19Z</time>
      </trkpt>
      <trkpt lat="38.299471" lon="-0.723587">
        <ele>207.8</ele>
        <time>2019-12-31T13:31:20Z</time>
      </trkpt>
      <trkpt lat="38.299460" lon="-0.723514">
        <ele>207</ele>
        <time>2019-12-31T13:31:21Z</time>
      </trkpt>
      <trkpt lat="38.299447" lon="-0.723446">
        <ele>206.4</ele>
        <time>2019-12-31T13:31:22Z</time>
      </trkpt>
      <trkpt lat="38.299438" lon="-0.723379">
        <ele>205.2</ele>
        <time>2019-12-31T13:31:23Z</time>
      </trkpt>
      <trkpt lat="38.299427" lon="-0.723326">
        <ele>205.2</ele>
        <time>2019-12-31T13:31:24Z</time>
      </trkpt>
      <trkpt lat="38.299407" lon="-0.723280">
        <ele>204.4</ele>
        <time>2019-12-31T13:31:25Z</time>
      </trkpt>
      <trkpt lat="38.299386" lon="-0.723238">
        <ele>203.4</ele>
        <time>2019-12-31T13:31:26Z</time>
      </trkpt>
      <trkpt lat="38.299375" lon="-0.723202">
        <ele>202.6</ele>
        <time>2019-12-31T13:31:27Z</time>
      </trkpt>
      <trkpt lat="38.299377" lon="-0.723175">
        <ele>202.8</ele>
        <time>2019-12-31T13:31:28Z</time>
      </trkpt>
      <trkpt lat="38.299393" lon="-0.723162">
        <ele>202.8</ele>
        <time>2019-12-31T13:31:29Z</time>
      </trkpt>
      <trkpt lat="38.299419" lon="-0.723154">
        <ele>202.8</ele>
        <time>2019-12-31T13:31:30Z</time>
      </trkpt>
      <trkpt lat="38.299451" lon="-0.723148">
        <ele>202.6</ele>
        <time>2019-12-31T13:31:31Z</time>
      </trkpt>
      <trkpt lat="38.299487" lon="-0.723143">
        <ele>202.6</ele>
        <time>2019-12-31T13:31:32Z</time>
      </trkpt>
      <trkpt lat="38.299524" lon="-0.723139">
        <ele>202.6</ele>
        <time>2019-12-31T13:31:33Z</time>
      </trkpt>
      <trkpt lat="38.299562" lon="-0.723130">
        <ele>202.6</ele>
        <time>2019-12-31T13:31:34Z</time>
      </trkpt>
      <trkpt lat="38.299599" lon="-0.723111">
        <ele>202.6</ele>
        <time>2019-12-31T13:31:35Z</time>
      </trkpt>
      <trkpt lat="38.299626" lon="-0.723074">
        <ele>202.8</ele>
        <time>2019-12-31T13:31:36Z</time>
      </trkpt>
      <trkpt lat="38.299647" lon="-0.723027">
        <ele>202.6</ele>
        <time>2019-12-31T13:31:37Z</time>
      </trkpt>
      <trkpt lat="38.299665" lon="-0.722973">
        <ele>202.8</ele>
        <time>2019-12-31T13:31:38Z</time>
      </trkpt>
      <trkpt lat="38.299680" lon="-0.722915">
        <ele>202.4</ele>
        <time>2019-12-31T13:31:39Z</time>
      </trkpt>
      <trkpt lat="38.299699" lon="-0.722856">
        <ele>202.2</ele>
        <time>2019-12-31T13:31:40Z</time>
      </trkpt>
      <trkpt lat="38.299717" lon="-0.722794">
        <ele>202.2</ele>
        <time>2019-12-31T13:31:41Z</time>
      </trkpt>
      <trkpt lat="38.299730" lon="-0.722731">
        <ele>202.4</ele>
        <time>2019-12-31T13:31:42Z</time>
      </trkpt>
      <trkpt lat="38.299745" lon="-0.722667">
        <ele>202</ele>
        <time>2019-12-31T13:31:43Z</time>
      </trkpt>
      <trkpt lat="38.299760" lon="-0.722603">
        <ele>202.2</ele>
        <time>2019-12-31T13:31:44Z</time>
      </trkpt>
      <trkpt lat="38.299776" lon="-0.722542">
        <ele>201.8</ele>
        <time>2019-12-31T13:31:45Z</time>
      </trkpt>
      <trkpt lat="38.299792" lon="-0.722480">
        <ele>201.4</ele>
        <time>2019-12-31T13:31:46Z</time>
      </trkpt>
      <trkpt lat="38.299807" lon="-0.722411">
        <ele>201.4</ele>
        <time>2019-12-31T13:31:47Z</time>
      </trkpt>
      <trkpt lat="38.299825" lon="-0.722343">
        <ele>200.8</ele>
        <time>2019-12-31T13:31:48Z</time>
      </trkpt>
      <trkpt lat="38.299841" lon="-0.722287">
        <ele>200.4</ele>
        <time>2019-12-31T13:31:49Z</time>
      </trkpt>
      <trkpt lat="38.299856" lon="-0.722249">
        <ele>200.6</ele>
        <time>2019-12-31T13:31:50Z</time>
      </trkpt>
      <trkpt lat="38.299877" lon="-0.722231">
        <ele>200.8</ele>
        <time>2019-12-31T13:31:51Z</time>
      </trkpt>
      <trkpt lat="38.299897" lon="-0.722230">
        <ele>200.8</ele>
        <time>2019-12-31T13:31:52Z</time>
      </trkpt>
      <trkpt lat="38.299916" lon="-0.722240">
        <ele>200.8</ele>
        <time>2019-12-31T13:31:53Z</time>
      </trkpt>
      <trkpt lat="38.299942" lon="-0.722241">
        <ele>201</ele>
        <time>2019-12-31T13:31:54Z</time>
      </trkpt>
      <trkpt lat="38.299966" lon="-0.722237">
        <ele>201.4</ele>
        <time>2019-12-31T13:31:55Z</time>
      </trkpt>
      <trkpt lat="38.299991" lon="-0.722225">
        <ele>201.2</ele>
        <time>2019-12-31T13:31:56Z</time>
      </trkpt>
      <trkpt lat="38.300015" lon="-0.722209">
        <ele>201.4</ele>
        <time>2019-12-31T13:31:57Z</time>
      </trkpt>
      <trkpt lat="38.300043" lon="-0.722191">
        <ele>201.4</ele>
        <time>2019-12-31T13:31:58Z</time>
      </trkpt>
      <trkpt lat="38.300077" lon="-0.722192">
        <ele>201.4</ele>
        <time>2019-12-31T13:31:59Z</time>
      </trkpt>
      <trkpt lat="38.300109" lon="-0.722208">
        <ele>201.4</ele>
        <time>2019-12-31T13:32:00Z</time>
      </trkpt>
      <trkpt lat="38.300136" lon="-0.722234">
        <ele>201.2</ele>
        <time>2019-12-31T13:32:01Z</time>
      </trkpt>
      <trkpt lat="38.300159" lon="-0.722265">
        <ele>201.4</ele>
        <time>2019-12-31T13:32:02Z</time>
      </trkpt>
      <trkpt lat="38.300176" lon="-0.722301">
        <ele>201.4</ele>
        <time>2019-12-31T13:32:03Z</time>
      </trkpt>
      <trkpt lat="38.300182" lon="-0.722341">
        <ele>202</ele>
        <time>2019-12-31T13:32:04Z</time>
      </trkpt>
      <trkpt lat="38.300189" lon="-0.722377">
        <ele>202.4</ele>
        <time>2019-12-31T13:32:05Z</time>
      </trkpt>
      <trkpt lat="38.300189" lon="-0.722405">
        <ele>202.8</ele>
        <time>2019-12-31T13:32:06Z</time>
      </trkpt>
      <trkpt lat="38.300192" lon="-0.722435">
        <ele>202.8</ele>
        <time>2019-12-31T13:32:07Z</time>
      </trkpt>
      <trkpt lat="38.300203" lon="-0.722476">
        <ele>202.6</ele>
        <time>2019-12-31T13:32:08Z</time>
      </trkpt>
      <trkpt lat="38.300223" lon="-0.722521">
        <ele>202.4</ele>
        <time>2019-12-31T13:32:09Z</time>
      </trkpt>
      <trkpt lat="38.300246" lon="-0.722563">
        <ele>202.6</ele>
        <time>2019-12-31T13:32:10Z</time>
      </trkpt>
      <trkpt lat="38.300270" lon="-0.722603">
        <ele>203</ele>
        <time>2019-12-31T13:32:11Z</time>
      </trkpt>
      <trkpt lat="38.300295" lon="-0.722642">
        <ele>202.8</ele>
        <time>2019-12-31T13:32:12Z</time>
      </trkpt>
      <trkpt lat="38.300324" lon="-0.722679">
        <ele>203</ele>
        <time>2019-12-31T13:32:13Z</time>
      </trkpt>
      <trkpt lat="38.300353" lon="-0.722709">
        <ele>203.4</ele>
        <time>2019-12-31T13:32:14Z</time>
      </trkpt>
      <trkpt lat="38.300380" lon="-0.722736">
        <ele>203.6</ele>
        <time>2019-12-31T13:32:15Z</time>
      </trkpt>
      <trkpt lat="38.300400" lon="-0.722747">
        <ele>203.6</ele>
        <time>2019-12-31T13:32:16Z</time>
      </trkpt>
      <trkpt lat="38.300425" lon="-0.722755">
        <ele>204.6</ele>
        <time>2019-12-31T13:32:20Z</time>
      </trkpt>
      <trkpt lat="38.300425" lon="-0.722755">
        <ele>204.8</ele>
        <time>2019-12-31T13:32:21Z</time>
      </trkpt>
      <trkpt lat="38.300438" lon="-0.722759">
        <ele>205</ele>
        <time>2019-12-31T13:32:22Z</time>
      </trkpt>
      <trkpt lat="38.300460" lon="-0.722766">
        <ele>204.6</ele>
        <time>2019-12-31T13:32:25Z</time>
      </trkpt>
      <trkpt lat="38.300478" lon="-0.722771">
        <ele>204.6</ele>
        <time>2019-12-31T13:32:30Z</time>
      </trkpt>
      <trkpt lat="38.300491" lon="-0.722777">
        <ele>204.6</ele>
        <time>2019-12-31T13:32:31Z</time>
      </trkpt>
      <trkpt lat="38.300509" lon="-0.722781">
        <ele>204.6</ele>
        <time>2019-12-31T13:32:32Z</time>
      </trkpt>
      <trkpt lat="38.300531" lon="-0.722779">
        <ele>204.6</ele>
        <time>2019-12-31T13:32:33Z</time>
      </trkpt>
      <trkpt lat="38.300555" lon="-0.722779">
        <ele>204.6</ele>
        <time>2019-12-31T13:32:34Z</time>
      </trkpt>
      <trkpt lat="38.300573" lon="-0.722790">
        <ele>205</ele>
        <time>2019-12-31T13:32:35Z</time>
      </trkpt>
      <trkpt lat="38.300594" lon="-0.722798">
        <ele>205.2</ele>
        <time>2019-12-31T13:32:36Z</time>
      </trkpt>
      <trkpt lat="38.300616" lon="-0.722801">
        <ele>205.4</ele>
        <time>2019-12-31T13:32:37Z</time>
      </trkpt>
      <trkpt lat="38.300637" lon="-0.722807">
        <ele>205.8</ele>
        <time>2019-12-31T13:32:38Z</time>
      </trkpt>
      <trkpt lat="38.300656" lon="-0.722814">
        <ele>206</ele>
        <time>2019-12-31T13:32:39Z</time>
      </trkpt>
      <trkpt lat="38.300675" lon="-0.722822">
        <ele>206.4</ele>
        <time>2019-12-31T13:32:40Z</time>
      </trkpt>
      <trkpt lat="38.300691" lon="-0.722835">
        <ele>206.6</ele>
        <time>2019-12-31T13:32:41Z</time>
      </trkpt>
      <trkpt lat="38.300708" lon="-0.722844">
        <ele>206.8</ele>
        <time>2019-12-31T13:32:42Z</time>
      </trkpt>
      <trkpt lat="38.300728" lon="-0.722857">
        <ele>207.4</ele>
        <time>2019-12-31T13:32:43Z</time>
      </trkpt>
      <trkpt lat="38.300744" lon="-0.722874">
        <ele>207.4</ele>
        <time>2019-12-31T13:32:44Z</time>
      </trkpt>
      <trkpt lat="38.300764" lon="-0.722891">
        <ele>207.6</ele>
        <time>2019-12-31T13:32:45Z</time>
      </trkpt>
      <trkpt lat="38.300779" lon="-0.722910">
        <ele>207.8</ele>
        <time>2019-12-31T13:32:46Z</time>
      </trkpt>
      <trkpt lat="38.300795" lon="-0.722930">
        <ele>208.2</ele>
        <time>2019-12-31T13:32:47Z</time>
      </trkpt>
      <trkpt lat="38.300812" lon="-0.722951">
        <ele>208.8</ele>
        <time>2019-12-31T13:32:48Z</time>
      </trkpt>
      <trkpt lat="38.300830" lon="-0.722969">
        <ele>208.8</ele>
        <time>2019-12-31T13:32:49Z</time>
      </trkpt>
      <trkpt lat="38.300847" lon="-0.722984">
        <ele>209.2</ele>
        <time>2019-12-31T13:32:50Z</time>
      </trkpt>
      <trkpt lat="38.300865" lon="-0.722998">
        <ele>209.4</ele>
        <time>2019-12-31T13:32:51Z</time>
      </trkpt>
      <trkpt lat="38.300883" lon="-0.723009">
        <ele>209.8</ele>
        <time>2019-12-31T13:32:52Z</time>
      </trkpt>
      <trkpt lat="38.300901" lon="-0.723023">
        <ele>210</ele>
        <time>2019-12-31T13:32:53Z</time>
      </trkpt>
      <trkpt lat="38.300920" lon="-0.723035">
        <ele>210.2</ele>
        <time>2019-12-31T13:32:54Z</time>
      </trkpt>
      <trkpt lat="38.300938" lon="-0.723047">
        <ele>210.4</ele>
        <time>2019-12-31T13:32:55Z</time>
      </trkpt>
      <trkpt lat="38.300956" lon="-0.723057">
        <ele>210.8</ele>
        <time>2019-12-31T13:32:56Z</time>
      </trkpt>
      <trkpt lat="38.300977" lon="-0.723063">
        <ele>211</ele>
        <time>2019-12-31T13:32:57Z</time>
      </trkpt>
      <trkpt lat="38.300993" lon="-0.723074">
        <ele>211.2</ele>
        <time>2019-12-31T13:32:58Z</time>
      </trkpt>
      <trkpt lat="38.301009" lon="-0.723089">
        <ele>211.6</ele>
        <time>2019-12-31T13:32:59Z</time>
      </trkpt>
      <trkpt lat="38.301024" lon="-0.723101">
        <ele>212</ele>
        <time>2019-12-31T13:33:00Z</time>
      </trkpt>
      <trkpt lat="38.301039" lon="-0.723119">
        <ele>212.2</ele>
        <time>2019-12-31T13:33:01Z</time>
      </trkpt>
      <trkpt lat="38.301057" lon="-0.723137">
        <ele>212.4</ele>
        <time>2019-12-31T13:33:02Z</time>
      </trkpt>
      <trkpt lat="38.301076" lon="-0.723151">
        <ele>212.8</ele>
        <time>2019-12-31T13:33:03Z</time>
      </trkpt>
      <trkpt lat="38.301093" lon="-0.723165">
        <ele>213.2</ele>
        <time>2019-12-31T13:33:04Z</time>
      </trkpt>
      <trkpt lat="38.301109" lon="-0.723181">
        <ele>213.6</ele>
        <time>2019-12-31T13:33:05Z</time>
      </trkpt>
      <trkpt lat="38.301123" lon="-0.723197">
        <ele>214</ele>
        <time>2019-12-31T13:33:06Z</time>
      </trkpt>
      <trkpt lat="38.301139" lon="-0.723215">
        <ele>214.2</ele>
        <time>2019-12-31T13:33:07Z</time>
      </trkpt>
      <trkpt lat="38.301155" lon="-0.723230">
        <ele>214.4</ele>
        <time>2019-12-31T13:33:08Z</time>
      </trkpt>
      <trkpt lat="38.301172" lon="-0.723245">
        <ele>214.8</ele>
        <time>2019-12-31T13:33:09Z</time>
      </trkpt>
      <trkpt lat="38.301189" lon="-0.723260">
        <ele>215</ele>
        <time>2019-12-31T13:33:10Z</time>
      </trkpt>
      <trkpt lat="38.301206" lon="-0.723273">
        <ele>215.2</ele>
        <time>2019-12-31T13:33:11Z</time>
      </trkpt>
      <trkpt lat="38.301221" lon="-0.723283">
        <ele>215.6</ele>
        <time>2019-12-31T13:33:12Z</time>
      </trkpt>
      <trkpt lat="38.301236" lon="-0.723293">
        <ele>215.8</ele>
        <time>2019-12-31T13:33:13Z</time>
      </trkpt>
      <trkpt lat="38.301253" lon="-0.723307">
        <ele>216</ele>
        <time>2019-12-31T13:33:14Z</time>
      </trkpt>
      <trkpt lat="38.301273" lon="-0.723323">
        <ele>216.2</ele>
        <time>2019-12-31T13:33:15Z</time>
      </trkpt>
      <trkpt lat="38.301295" lon="-0.723338">
        <ele>216.2</ele>
        <time>2019-12-31T13:33:16Z</time>
      </trkpt>
      <trkpt lat="38.301321" lon="-0.723349">
        <ele>216.6</ele>
        <time>2019-12-31T13:33:17Z</time>
      </trkpt>
      <trkpt lat="38.301348" lon="-0.723358">
        <ele>216.6</ele>
        <time>2019-12-31T13:33:18Z</time>
      </trkpt>
      <trkpt lat="38.301376" lon="-0.723366">
        <ele>216.8</ele>
        <time>2019-12-31T13:33:19Z</time>
      </trkpt>
      <trkpt lat="38.301406" lon="-0.723371">
        <ele>216.8</ele>
        <time>2019-12-31T13:33:20Z</time>
      </trkpt>
      <trkpt lat="38.301439" lon="-0.723377">
        <ele>216.8</ele>
        <time>2019-12-31T13:33:21Z</time>
      </trkpt>
      <trkpt lat="38.301474" lon="-0.723385">
        <ele>217.2</ele>
        <time>2019-12-31T13:33:22Z</time>
      </trkpt>
      <trkpt lat="38.301510" lon="-0.723399">
        <ele>217.2</ele>
        <time>2019-12-31T13:33:23Z</time>
      </trkpt>
      <trkpt lat="38.301549" lon="-0.723407">
        <ele>217</ele>
        <time>2019-12-31T13:33:24Z</time>
      </trkpt>
      <trkpt lat="38.301588" lon="-0.723413">
        <ele>217.2</ele>
        <time>2019-12-31T13:33:25Z</time>
      </trkpt>
      <trkpt lat="38.301626" lon="-0.723419">
        <ele>217.2</ele>
        <time>2019-12-31T13:33:26Z</time>
      </trkpt>
      <trkpt lat="38.301666" lon="-0.723423">
        <ele>217.2</ele>
        <time>2019-12-31T13:33:27Z</time>
      </trkpt>
      <trkpt lat="38.301705" lon="-0.723425">
        <ele>217.6</ele>
        <time>2019-12-31T13:33:28Z</time>
      </trkpt>
      <trkpt lat="38.301744" lon="-0.723431">
        <ele>217.6</ele>
        <time>2019-12-31T13:33:29Z</time>
      </trkpt>
      <trkpt lat="38.301782" lon="-0.723438">
        <ele>217.4</ele>
        <time>2019-12-31T13:33:30Z</time>
      </trkpt>
      <trkpt lat="38.301821" lon="-0.723445">
        <ele>217.8</ele>
        <time>2019-12-31T13:33:31Z</time>
      </trkpt>
      <trkpt lat="38.301860" lon="-0.723447">
        <ele>218</ele>
        <time>2019-12-31T13:33:32Z</time>
      </trkpt>
      <trkpt lat="38.301896" lon="-0.723444">
        <ele>218.2</ele>
        <time>2019-12-31T13:33:33Z</time>
      </trkpt>
      <trkpt lat="38.301931" lon="-0.723444">
        <ele>218.2</ele>
        <time>2019-12-31T13:33:34Z</time>
      </trkpt>
      <trkpt lat="38.301966" lon="-0.723443">
        <ele>218.6</ele>
        <time>2019-12-31T13:33:35Z</time>
      </trkpt>
      <trkpt lat="38.301999" lon="-0.723443">
        <ele>219.2</ele>
        <time>2019-12-31T13:33:36Z</time>
      </trkpt>
      <trkpt lat="38.302031" lon="-0.723440">
        <ele>219.6</ele>
        <time>2019-12-31T13:33:37Z</time>
      </trkpt>
      <trkpt lat="38.302063" lon="-0.723436">
        <ele>220</ele>
        <time>2019-12-31T13:33:38Z</time>
      </trkpt>
      <trkpt lat="38.302094" lon="-0.723430">
        <ele>220.2</ele>
        <time>2019-12-31T13:33:39Z</time>
      </trkpt>
      <trkpt lat="38.302126" lon="-0.723424">
        <ele>220.4</ele>
        <time>2019-12-31T13:33:40Z</time>
      </trkpt>
      <trkpt lat="38.302158" lon="-0.723420">
        <ele>220.8</ele>
        <time>2019-12-31T13:33:41Z</time>
      </trkpt>
      <trkpt lat="38.302190" lon="-0.723416">
        <ele>221</ele>
        <time>2019-12-31T13:33:42Z</time>
      </trkpt>
      <trkpt lat="38.302220" lon="-0.723420">
        <ele>221.4</ele>
        <time>2019-12-31T13:33:43Z</time>
      </trkpt>
      <trkpt lat="38.302250" lon="-0.723425">
        <ele>221.8</ele>
        <time>2019-12-31T13:33:44Z</time>
      </trkpt>
      <trkpt lat="38.302280" lon="-0.723430">
        <ele>222</ele>
        <time>2019-12-31T13:33:45Z</time>
      </trkpt>
      <trkpt lat="38.302308" lon="-0.723432">
        <ele>222.2</ele>
        <time>2019-12-31T13:33:46Z</time>
      </trkpt>
      <trkpt lat="38.302331" lon="-0.723449">
        <ele>222.6</ele>
        <time>2019-12-31T13:33:47Z</time>
      </trkpt>
      <trkpt lat="38.302361" lon="-0.723452">
        <ele>222.8</ele>
        <time>2019-12-31T13:33:48Z</time>
      </trkpt>
      <trkpt lat="38.302389" lon="-0.723458">
        <ele>223</ele>
        <time>2019-12-31T13:33:49Z</time>
      </trkpt>
      <trkpt lat="38.302418" lon="-0.723466">
        <ele>223.2</ele>
        <time>2019-12-31T13:33:50Z</time>
      </trkpt>
      <trkpt lat="38.302448" lon="-0.723474">
        <ele>223.4</ele>
        <time>2019-12-31T13:33:51Z</time>
      </trkpt>
      <trkpt lat="38.302478" lon="-0.723483">
        <ele>223.8</ele>
        <time>2019-12-31T13:33:52Z</time>
      </trkpt>
      <trkpt lat="38.302508" lon="-0.723493">
        <ele>223.6</ele>
        <time>2019-12-31T13:33:53Z</time>
      </trkpt>
      <trkpt lat="38.302540" lon="-0.723504">
        <ele>224</ele>
        <time>2019-12-31T13:33:54Z</time>
      </trkpt>
      <trkpt lat="38.302571" lon="-0.723520">
        <ele>224.2</ele>
        <time>2019-12-31T13:33:55Z</time>
      </trkpt>
      <trkpt lat="38.302602" lon="-0.723537">
        <ele>224</ele>
        <time>2019-12-31T13:33:56Z</time>
      </trkpt>
      <trkpt lat="38.302637" lon="-0.723551">
        <ele>224.4</ele>
        <time>2019-12-31T13:33:57Z</time>
      </trkpt>
      <trkpt lat="38.302673" lon="-0.723564">
        <ele>224.2</ele>
        <time>2019-12-31T13:33:58Z</time>
      </trkpt>
      <trkpt lat="38.302673" lon="-0.723564">
        <ele>224.4</ele>
        <time>2019-12-31T13:33:59Z</time>
      </trkpt>
      <trkpt lat="38.302746" lon="-0.723591">
        <ele>224.6</ele>
        <time>2019-12-31T13:34:00Z</time>
      </trkpt>
      <trkpt lat="38.302785" lon="-0.723604">
        <ele>224.6</ele>
        <time>2019-12-31T13:34:01Z</time>
      </trkpt>
      <trkpt lat="38.302827" lon="-0.723617">
        <ele>224.4</ele>
        <time>2019-12-31T13:34:02Z</time>
      </trkpt>
      <trkpt lat="38.302870" lon="-0.723632">
        <ele>224.6</ele>
        <time>2019-12-31T13:34:03Z</time>
      </trkpt>
      <trkpt lat="38.302914" lon="-0.723645">
        <ele>224.6</ele>
        <time>2019-12-31T13:34:04Z</time>
      </trkpt>
      <trkpt lat="38.302958" lon="-0.723659">
        <ele>224.6</ele>
        <time>2019-12-31T13:34:05Z</time>
      </trkpt>
      <trkpt lat="38.303004" lon="-0.723662">
        <ele>224.6</ele>
        <time>2019-12-31T13:34:06Z</time>
      </trkpt>
      <trkpt lat="38.303049" lon="-0.723667">
        <ele>224.6</ele>
        <time>2019-12-31T13:34:07Z</time>
      </trkpt>
      <trkpt lat="38.303092" lon="-0.723671">
        <ele>224.8</ele>
        <time>2019-12-31T13:34:08Z</time>
      </trkpt>
      <trkpt lat="38.303137" lon="-0.723673">
        <ele>225</ele>
        <time>2019-12-31T13:34:09Z</time>
      </trkpt>
      <trkpt lat="38.303184" lon="-0.723672">
        <ele>225.2</ele>
        <time>2019-12-31T13:34:10Z</time>
      </trkpt>
      <trkpt lat="38.303231" lon="-0.723671">
        <ele>225.6</ele>
        <time>2019-12-31T13:34:11Z</time>
      </trkpt>
      <trkpt lat="38.303278" lon="-0.723672">
        <ele>225.6</ele>
        <time>2019-12-31T13:34:12Z</time>
      </trkpt>
      <trkpt lat="38.303324" lon="-0.723676">
        <ele>225.8</ele>
        <time>2019-12-31T13:34:13Z</time>
      </trkpt>
      <trkpt lat="38.303368" lon="-0.723680">
        <ele>226.2</ele>
        <time>2019-12-31T13:34:14Z</time>
      </trkpt>
      <trkpt lat="38.303410" lon="-0.723689">
        <ele>226.4</ele>
        <time>2019-12-31T13:34:15Z</time>
      </trkpt>
      <trkpt lat="38.303449" lon="-0.723697">
        <ele>226.6</ele>
        <time>2019-12-31T13:34:16Z</time>
      </trkpt>
      <trkpt lat="38.303485" lon="-0.723705">
        <ele>227</ele>
        <time>2019-12-31T13:34:17Z</time>
      </trkpt>
      <trkpt lat="38.303520" lon="-0.723711">
        <ele>227.2</ele>
        <time>2019-12-31T13:34:18Z</time>
      </trkpt>
      <trkpt lat="38.303554" lon="-0.723723">
        <ele>227.2</ele>
        <time>2019-12-31T13:34:19Z</time>
      </trkpt>
      <trkpt lat="38.303589" lon="-0.723729">
        <ele>227.6</ele>
        <time>2019-12-31T13:34:20Z</time>
      </trkpt>
      <trkpt lat="38.303625" lon="-0.723734">
        <ele>227.6</ele>
        <time>2019-12-31T13:34:21Z</time>
      </trkpt>
      <trkpt lat="38.303660" lon="-0.723740">
        <ele>227.8</ele>
        <time>2019-12-31T13:34:22Z</time>
      </trkpt>
      <trkpt lat="38.303697" lon="-0.723746">
        <ele>228</ele>
        <time>2019-12-31T13:34:23Z</time>
      </trkpt>
      <trkpt lat="38.303737" lon="-0.723753">
        <ele>228</ele>
        <time>2019-12-31T13:34:24Z</time>
      </trkpt>
      <trkpt lat="38.303776" lon="-0.723761">
        <ele>228.2</ele>
        <time>2019-12-31T13:34:25Z</time>
      </trkpt>
      <trkpt lat="38.303813" lon="-0.723771">
        <ele>228.6</ele>
        <time>2019-12-31T13:34:26Z</time>
      </trkpt>
      <trkpt lat="38.303851" lon="-0.723779">
        <ele>228.6</ele>
        <time>2019-12-31T13:34:27Z</time>
      </trkpt>
      <trkpt lat="38.303887" lon="-0.723787">
        <ele>229</ele>
        <time>2019-12-31T13:34:28Z</time>
      </trkpt>
      <trkpt lat="38.303920" lon="-0.723798">
        <ele>229</ele>
        <time>2019-12-31T13:34:29Z</time>
      </trkpt>
      <trkpt lat="38.303955" lon="-0.723810">
        <ele>229.2</ele>
        <time>2019-12-31T13:34:30Z</time>
      </trkpt>
      <trkpt lat="38.303992" lon="-0.723819">
        <ele>229.2</ele>
        <time>2019-12-31T13:34:31Z</time>
      </trkpt>
      <trkpt lat="38.304032" lon="-0.723827">
        <ele>229.2</ele>
        <time>2019-12-31T13:34:32Z</time>
      </trkpt>
      <trkpt lat="38.304072" lon="-0.723834">
        <ele>229.6</ele>
        <time>2019-12-31T13:34:33Z</time>
      </trkpt>
      <trkpt lat="38.304112" lon="-0.723840">
        <ele>229.6</ele>
        <time>2019-12-31T13:34:34Z</time>
      </trkpt>
      <trkpt lat="38.304152" lon="-0.723846">
        <ele>229.6</ele>
        <time>2019-12-31T13:34:35Z</time>
      </trkpt>
      <trkpt lat="38.304193" lon="-0.723852">
        <ele>229.6</ele>
        <time>2019-12-31T13:34:36Z</time>
      </trkpt>
      <trkpt lat="38.304237" lon="-0.723858">
        <ele>229.6</ele>
        <time>2019-12-31T13:34:37Z</time>
      </trkpt>
      <trkpt lat="38.304286" lon="-0.723860">
        <ele>229.8</ele>
        <time>2019-12-31T13:34:38Z</time>
      </trkpt>
      <trkpt lat="38.304335" lon="-0.723863">
        <ele>229.6</ele>
        <time>2019-12-31T13:34:39Z</time>
      </trkpt>
      <trkpt lat="38.304386" lon="-0.723870">
        <ele>229.4</ele>
        <time>2019-12-31T13:34:40Z</time>
      </trkpt>
      <trkpt lat="38.304440" lon="-0.723877">
        <ele>229.2</ele>
        <time>2019-12-31T13:34:41Z</time>
      </trkpt>
      <trkpt lat="38.304496" lon="-0.723883">
        <ele>229.4</ele>
        <time>2019-12-31T13:34:42Z</time>
      </trkpt>
      <trkpt lat="38.304552" lon="-0.723884">
        <ele>229.2</ele>
        <time>2019-12-31T13:34:43Z</time>
      </trkpt>
      <trkpt lat="38.304606" lon="-0.723878">
        <ele>229</ele>
        <time>2019-12-31T13:34:44Z</time>
      </trkpt>
      <trkpt lat="38.304660" lon="-0.723866">
        <ele>229</ele>
        <time>2019-12-31T13:34:45Z</time>
      </trkpt>
      <trkpt lat="38.304719" lon="-0.723866">
        <ele>228.8</ele>
        <time>2019-12-31T13:34:46Z</time>
      </trkpt>
      <trkpt lat="38.304781" lon="-0.723874">
        <ele>228.6</ele>
        <time>2019-12-31T13:34:47Z</time>
      </trkpt>
      <trkpt lat="38.304842" lon="-0.723883">
        <ele>228.8</ele>
        <time>2019-12-31T13:34:48Z</time>
      </trkpt>
      <trkpt lat="38.304905" lon="-0.723891">
        <ele>228.8</ele>
        <time>2019-12-31T13:34:49Z</time>
      </trkpt>
      <trkpt lat="38.304966" lon="-0.723901">
        <ele>228.8</ele>
        <time>2019-12-31T13:34:50Z</time>
      </trkpt>
      <trkpt lat="38.305027" lon="-0.723930">
        <ele>229</ele>
        <time>2019-12-31T13:34:51Z</time>
      </trkpt>
      <trkpt lat="38.305077" lon="-0.723976">
        <ele>228.8</ele>
        <time>2019-12-31T13:34:52Z</time>
      </trkpt>
      <trkpt lat="38.305129" lon="-0.724035">
        <ele>228</ele>
        <time>2019-12-31T13:34:53Z</time>
      </trkpt>
      <trkpt lat="38.305178" lon="-0.724102">
        <ele>227.2</ele>
        <time>2019-12-31T13:34:54Z</time>
      </trkpt>
      <trkpt lat="38.305229" lon="-0.724172">
        <ele>227</ele>
        <time>2019-12-31T13:34:55Z</time>
      </trkpt>
      <trkpt lat="38.305286" lon="-0.724239">
        <ele>226</ele>
        <time>2019-12-31T13:34:56Z</time>
      </trkpt>
      <trkpt lat="38.305346" lon="-0.724306">
        <ele>225.6</ele>
        <time>2019-12-31T13:34:57Z</time>
      </trkpt>
      <trkpt lat="38.305406" lon="-0.724376">
        <ele>225.4</ele>
        <time>2019-12-31T13:34:58Z</time>
      </trkpt>
      <trkpt lat="38.305468" lon="-0.724445">
        <ele>225</ele>
        <time>2019-12-31T13:34:59Z</time>
      </trkpt>
      <trkpt lat="38.305533" lon="-0.724509">
        <ele>224.4</ele>
        <time>2019-12-31T13:35:00Z</time>
      </trkpt>
      <trkpt lat="38.305593" lon="-0.724579">
        <ele>224</ele>
        <time>2019-12-31T13:35:01Z</time>
      </trkpt>
      <trkpt lat="38.305652" lon="-0.724652">
        <ele>223.6</ele>
        <time>2019-12-31T13:35:02Z</time>
      </trkpt>
      <trkpt lat="38.305714" lon="-0.724722">
        <ele>223.2</ele>
        <time>2019-12-31T13:35:03Z</time>
      </trkpt>
      <trkpt lat="38.305778" lon="-0.724773">
        <ele>223.4</ele>
        <time>2019-12-31T13:35:04Z</time>
      </trkpt>
      <trkpt lat="38.305839" lon="-0.724798">
        <ele>222.4</ele>
        <time>2019-12-31T13:35:05Z</time>
      </trkpt>
      <trkpt lat="38.305900" lon="-0.724792">
        <ele>222</ele>
        <time>2019-12-31T13:35:06Z</time>
      </trkpt>
      <trkpt lat="38.305963" lon="-0.724769">
        <ele>221.4</ele>
        <time>2019-12-31T13:35:07Z</time>
      </trkpt>
      <trkpt lat="38.306027" lon="-0.724733">
        <ele>221</ele>
        <time>2019-12-31T13:35:08Z</time>
      </trkpt>
      <trkpt lat="38.306095" lon="-0.724698">
        <ele>220.6</ele>
        <time>2019-12-31T13:35:09Z</time>
      </trkpt>
      <trkpt lat="38.306163" lon="-0.724668">
        <ele>220.4</ele>
        <time>2019-12-31T13:35:10Z</time>
      </trkpt>
      <trkpt lat="38.306232" lon="-0.724639">
        <ele>220.4</ele>
        <time>2019-12-31T13:35:11Z</time>
      </trkpt>
      <trkpt lat="38.306302" lon="-0.724608">
        <ele>220.2</ele>
        <time>2019-12-31T13:35:12Z</time>
      </trkpt>
      <trkpt lat="38.306373" lon="-0.724577">
        <ele>220.4</ele>
        <time>2019-12-31T13:35:13Z</time>
      </trkpt>
      <trkpt lat="38.306443" lon="-0.724549">
        <ele>220.6</ele>
        <time>2019-12-31T13:35:14Z</time>
      </trkpt>
      <trkpt lat="38.306513" lon="-0.724521">
        <ele>220.2</ele>
        <time>2019-12-31T13:35:15Z</time>
      </trkpt>
      <trkpt lat="38.306583" lon="-0.724491">
        <ele>220.2</ele>
        <time>2019-12-31T13:35:16Z</time>
      </trkpt>
      <trkpt lat="38.306651" lon="-0.724453">
        <ele>220.4</ele>
        <time>2019-12-31T13:35:17Z</time>
      </trkpt>
      <trkpt lat="38.306718" lon="-0.724417">
        <ele>220.6</ele>
        <time>2019-12-31T13:35:18Z</time>
      </trkpt>
      <trkpt lat="38.306787" lon="-0.724387">
        <ele>220.6</ele>
        <time>2019-12-31T13:35:19Z</time>
      </trkpt>
      <trkpt lat="38.306854" lon="-0.724358">
        <ele>220.6</ele>
        <time>2019-12-31T13:35:20Z</time>
      </trkpt>
      <trkpt lat="38.306921" lon="-0.724329">
        <ele>220.8</ele>
        <time>2019-12-31T13:35:21Z</time>
      </trkpt>
      <trkpt lat="38.306985" lon="-0.724299">
        <ele>220.8</ele>
        <time>2019-12-31T13:35:22Z</time>
      </trkpt>
      <trkpt lat="38.307048" lon="-0.724267">
        <ele>221.2</ele>
        <time>2019-12-31T13:35:23Z</time>
      </trkpt>
      <trkpt lat="38.307110" lon="-0.724236">
        <ele>221.2</ele>
        <time>2019-12-31T13:35:24Z</time>
      </trkpt>
      <trkpt lat="38.307171" lon="-0.724209">
        <ele>221.6</ele>
        <time>2019-12-31T13:35:25Z</time>
      </trkpt>
      <trkpt lat="38.307231" lon="-0.724184">
        <ele>221.8</ele>
        <time>2019-12-31T13:35:26Z</time>
      </trkpt>
      <trkpt lat="38.307290" lon="-0.724160">
        <ele>221.8</ele>
        <time>2019-12-31T13:35:27Z</time>
      </trkpt>
      <trkpt lat="38.307348" lon="-0.724141">
        <ele>222</ele>
        <time>2019-12-31T13:35:28Z</time>
      </trkpt>
      <trkpt lat="38.307405" lon="-0.724127">
        <ele>222.2</ele>
        <time>2019-12-31T13:35:29Z</time>
      </trkpt>
      <trkpt lat="38.307456" lon="-0.724112">
        <ele>222.8</ele>
        <time>2019-12-31T13:35:30Z</time>
      </trkpt>
      <trkpt lat="38.307503" lon="-0.724103">
        <ele>223.2</ele>
        <time>2019-12-31T13:35:31Z</time>
      </trkpt>
      <trkpt lat="38.307544" lon="-0.724099">
        <ele>223.6</ele>
        <time>2019-12-31T13:35:32Z</time>
      </trkpt>
      <trkpt lat="38.307583" lon="-0.724096">
        <ele>224</ele>
        <time>2019-12-31T13:35:33Z</time>
      </trkpt>
      <trkpt lat="38.307624" lon="-0.724091">
        <ele>224.4</ele>
        <time>2019-12-31T13:35:34Z</time>
      </trkpt>
      <trkpt lat="38.307660" lon="-0.724089">
        <ele>225</ele>
        <time>2019-12-31T13:35:35Z</time>
      </trkpt>
      <trkpt lat="38.307697" lon="-0.724087">
        <ele>225.6</ele>
        <time>2019-12-31T13:35:36Z</time>
      </trkpt>
      <trkpt lat="38.307732" lon="-0.724081">
        <ele>226</ele>
        <time>2019-12-31T13:35:37Z</time>
      </trkpt>
      <trkpt lat="38.307767" lon="-0.724063">
        <ele>226.4</ele>
        <time>2019-12-31T13:35:38Z</time>
      </trkpt>
      <trkpt lat="38.307796" lon="-0.724043">
        <ele>226.8</ele>
        <time>2019-12-31T13:35:39Z</time>
      </trkpt>
      <trkpt lat="38.307824" lon="-0.724016">
        <ele>227.6</ele>
        <time>2019-12-31T13:35:40Z</time>
      </trkpt>
      <trkpt lat="38.307850" lon="-0.723987">
        <ele>228</ele>
        <time>2019-12-31T13:35:41Z</time>
      </trkpt>
      <trkpt lat="38.307881" lon="-0.723959">
        <ele>228.2</ele>
        <time>2019-12-31T13:35:42Z</time>
      </trkpt>
      <trkpt lat="38.307913" lon="-0.723936">
        <ele>228.6</ele>
        <time>2019-12-31T13:35:43Z</time>
      </trkpt>
      <trkpt lat="38.307946" lon="-0.723920">
        <ele>229</ele>
        <time>2019-12-31T13:35:44Z</time>
      </trkpt>
      <trkpt lat="38.307982" lon="-0.723911">
        <ele>229.4</ele>
        <time>2019-12-31T13:35:45Z</time>
      </trkpt>
      <trkpt lat="38.308018" lon="-0.723905">
        <ele>229.8</ele>
        <time>2019-12-31T13:35:46Z</time>
      </trkpt>
      <trkpt lat="38.308053" lon="-0.723898">
        <ele>230.2</ele>
        <time>2019-12-31T13:35:47Z</time>
      </trkpt>
      <trkpt lat="38.308091" lon="-0.723891">
        <ele>230.4</ele>
        <time>2019-12-31T13:35:48Z</time>
      </trkpt>
      <trkpt lat="38.308137" lon="-0.723886">
        <ele>230.2</ele>
        <time>2019-12-31T13:35:49Z</time>
      </trkpt>
      <trkpt lat="38.308189" lon="-0.723885">
        <ele>229.6</ele>
        <time>2019-12-31T13:35:50Z</time>
      </trkpt>
      <trkpt lat="38.308243" lon="-0.723885">
        <ele>229.4</ele>
        <time>2019-12-31T13:35:51Z</time>
      </trkpt>
      <trkpt lat="38.308302" lon="-0.723880">
        <ele>229</ele>
        <time>2019-12-31T13:35:52Z</time>
      </trkpt>
      <trkpt lat="38.308360" lon="-0.723877">
        <ele>228.8</ele>
        <time>2019-12-31T13:35:53Z</time>
      </trkpt>
      <trkpt lat="38.308425" lon="-0.723873">
        <ele>228</ele>
        <time>2019-12-31T13:35:54Z</time>
      </trkpt>
      <trkpt lat="38.308493" lon="-0.723865">
        <ele>227</ele>
        <time>2019-12-31T13:35:55Z</time>
      </trkpt>
      <trkpt lat="38.308566" lon="-0.723863">
        <ele>226.4</ele>
        <time>2019-12-31T13:35:56Z</time>
      </trkpt>
      <trkpt lat="38.308642" lon="-0.723863">
        <ele>225</ele>
        <time>2019-12-31T13:35:57Z</time>
      </trkpt>
      <trkpt lat="38.308714" lon="-0.723850">
        <ele>223.2</ele>
        <time>2019-12-31T13:35:58Z</time>
      </trkpt>
      <trkpt lat="38.308714" lon="-0.723850">
        <ele>222</ele>
        <time>2019-12-31T13:35:59Z</time>
      </trkpt>
      <trkpt lat="38.308873" lon="-0.723817">
        <ele>221.2</ele>
        <time>2019-12-31T13:36:00Z</time>
      </trkpt>
      <trkpt lat="38.308962" lon="-0.723797">
        <ele>219.8</ele>
        <time>2019-12-31T13:36:01Z</time>
      </trkpt>
      <trkpt lat="38.309048" lon="-0.723777">
        <ele>218.4</ele>
        <time>2019-12-31T13:36:02Z</time>
      </trkpt>
      <trkpt lat="38.309138" lon="-0.723758">
        <ele>216.2</ele>
        <time>2019-12-31T13:36:03Z</time>
      </trkpt>
      <trkpt lat="38.309229" lon="-0.723757">
        <ele>216.4</ele>
        <time>2019-12-31T13:36:04Z</time>
      </trkpt>
      <trkpt lat="38.309315" lon="-0.723766">
        <ele>216</ele>
        <time>2019-12-31T13:36:05Z</time>
      </trkpt>
      <trkpt lat="38.309400" lon="-0.723778">
        <ele>216</ele>
        <time>2019-12-31T13:36:06Z</time>
      </trkpt>
      <trkpt lat="38.309484" lon="-0.723793">
        <ele>216</ele>
        <time>2019-12-31T13:36:07Z</time>
      </trkpt>
      <trkpt lat="38.309564" lon="-0.723813">
        <ele>216</ele>
        <time>2019-12-31T13:36:08Z</time>
      </trkpt>
      <trkpt lat="38.309643" lon="-0.723832">
        <ele>216.2</ele>
        <time>2019-12-31T13:36:09Z</time>
      </trkpt>
      <trkpt lat="38.309722" lon="-0.723849">
        <ele>216.2</ele>
        <time>2019-12-31T13:36:10Z</time>
      </trkpt>
      <trkpt lat="38.309800" lon="-0.723862">
        <ele>216</ele>
        <time>2019-12-31T13:36:11Z</time>
      </trkpt>
      <trkpt lat="38.309877" lon="-0.723873">
        <ele>216.2</ele>
        <time>2019-12-31T13:36:12Z</time>
      </trkpt>
      <trkpt lat="38.309952" lon="-0.723880">
        <ele>216.2</ele>
        <time>2019-12-31T13:36:13Z</time>
      </trkpt>
      <trkpt lat="38.310024" lon="-0.723883">
        <ele>216.6</ele>
        <time>2019-12-31T13:36:14Z</time>
      </trkpt>
      <trkpt lat="38.310097" lon="-0.723881">
        <ele>216.6</ele>
        <time>2019-12-31T13:36:15Z</time>
      </trkpt>
      <trkpt lat="38.310169" lon="-0.723884">
        <ele>216.6</ele>
        <time>2019-12-31T13:36:16Z</time>
      </trkpt>
      <trkpt lat="38.310242" lon="-0.723906">
        <ele>217</ele>
        <time>2019-12-31T13:36:17Z</time>
      </trkpt>
      <trkpt lat="38.310313" lon="-0.723922">
        <ele>217</ele>
        <time>2019-12-31T13:36:18Z</time>
      </trkpt>
      <trkpt lat="38.310382" lon="-0.723930">
        <ele>216.8</ele>
        <time>2019-12-31T13:36:19Z</time>
      </trkpt>
      <trkpt lat="38.310450" lon="-0.723948">
        <ele>216.8</ele>
        <time>2019-12-31T13:36:20Z</time>
      </trkpt>
      <trkpt lat="38.310517" lon="-0.723962">
        <ele>216.8</ele>
        <time>2019-12-31T13:36:21Z</time>
      </trkpt>
      <trkpt lat="38.310585" lon="-0.723981">
        <ele>217</ele>
        <time>2019-12-31T13:36:22Z</time>
      </trkpt>
      <trkpt lat="38.310653" lon="-0.723994">
        <ele>216.8</ele>
        <time>2019-12-31T13:36:23Z</time>
      </trkpt>
      <trkpt lat="38.310722" lon="-0.724001">
        <ele>216.8</ele>
        <time>2019-12-31T13:36:24Z</time>
      </trkpt>
      <trkpt lat="38.310788" lon="-0.724020">
        <ele>217</ele>
        <time>2019-12-31T13:36:25Z</time>
      </trkpt>
      <trkpt lat="38.310850" lon="-0.724049">
        <ele>217</ele>
        <time>2019-12-31T13:36:26Z</time>
      </trkpt>
      <trkpt lat="38.310906" lon="-0.724088">
        <ele>217</ele>
        <time>2019-12-31T13:36:27Z</time>
      </trkpt>
      <trkpt lat="38.310957" lon="-0.724128">
        <ele>217.2</ele>
        <time>2019-12-31T13:36:28Z</time>
      </trkpt>
      <trkpt lat="38.311007" lon="-0.724173">
        <ele>217.8</ele>
        <time>2019-12-31T13:36:29Z</time>
      </trkpt>
      <trkpt lat="38.311051" lon="-0.724223">
        <ele>217.8</ele>
        <time>2019-12-31T13:36:30Z</time>
      </trkpt>
      <trkpt lat="38.311092" lon="-0.724279">
        <ele>217.8</ele>
        <time>2019-12-31T13:36:31Z</time>
      </trkpt>
      <trkpt lat="38.311119" lon="-0.724344">
        <ele>217.8</ele>
        <time>2019-12-31T13:36:32Z</time>
      </trkpt>
      <trkpt lat="38.311140" lon="-0.724415">
        <ele>218</ele>
        <time>2019-12-31T13:36:33Z</time>
      </trkpt>
      <trkpt lat="38.311151" lon="-0.724493">
        <ele>217.8</ele>
        <time>2019-12-31T13:36:34Z</time>
      </trkpt>
      <trkpt lat="38.311166" lon="-0.724573">
        <ele>217.8</ele>
        <time>2019-12-31T13:36:35Z</time>
      </trkpt>
      <trkpt lat="38.311190" lon="-0.724649">
        <ele>217.6</ele>
        <time>2019-12-31T13:36:36Z</time>
      </trkpt>
      <trkpt lat="38.311224" lon="-0.724718">
        <ele>217.4</ele>
        <time>2019-12-31T13:36:37Z</time>
      </trkpt>
      <trkpt lat="38.311266" lon="-0.724780">
        <ele>217.6</ele>
        <time>2019-12-31T13:36:38Z</time>
      </trkpt>
      <trkpt lat="38.311315" lon="-0.724825">
        <ele>217.4</ele>
        <time>2019-12-31T13:36:39Z</time>
      </trkpt>
      <trkpt lat="38.311370" lon="-0.724853">
        <ele>217.6</ele>
        <time>2019-12-31T13:36:40Z</time>
      </trkpt>
      <trkpt lat="38.311427" lon="-0.724849">
        <ele>217.8</ele>
        <time>2019-12-31T13:36:41Z</time>
      </trkpt>
      <trkpt lat="38.311479" lon="-0.724828">
        <ele>218.2</ele>
        <time>2019-12-31T13:36:42Z</time>
      </trkpt>
      <trkpt lat="38.311526" lon="-0.724803">
        <ele>218.4</ele>
        <time>2019-12-31T13:36:43Z</time>
      </trkpt>
      <trkpt lat="38.311572" lon="-0.724769">
        <ele>218.6</ele>
        <time>2019-12-31T13:36:44Z</time>
      </trkpt>
      <trkpt lat="38.311618" lon="-0.724732">
        <ele>218.4</ele>
        <time>2019-12-31T13:36:45Z</time>
      </trkpt>
      <trkpt lat="38.311665" lon="-0.724692">
        <ele>218.2</ele>
        <time>2019-12-31T13:36:46Z</time>
      </trkpt>
      <trkpt lat="38.311718" lon="-0.724658">
        <ele>218.2</ele>
        <time>2019-12-31T13:36:47Z</time>
      </trkpt>
      <trkpt lat="38.311775" lon="-0.724644">
        <ele>218.2</ele>
        <time>2019-12-31T13:36:48Z</time>
      </trkpt>
      <trkpt lat="38.311833" lon="-0.724654">
        <ele>218.2</ele>
        <time>2019-12-31T13:36:49Z</time>
      </trkpt>
      <trkpt lat="38.311887" lon="-0.724688">
        <ele>218</ele>
        <time>2019-12-31T13:36:50Z</time>
      </trkpt>
      <trkpt lat="38.311925" lon="-0.724741">
        <ele>218.2</ele>
        <time>2019-12-31T13:36:51Z</time>
      </trkpt>
      <trkpt lat="38.311955" lon="-0.724806">
        <ele>218.2</ele>
        <time>2019-12-31T13:36:52Z</time>
      </trkpt>
      <trkpt lat="38.311984" lon="-0.724877">
        <ele>218.2</ele>
        <time>2019-12-31T13:36:53Z</time>
      </trkpt>
      <trkpt lat="38.312016" lon="-0.724945">
        <ele>218.2</ele>
        <time>2019-12-31T13:36:54Z</time>
      </trkpt>
      <trkpt lat="38.312061" lon="-0.724994">
        <ele>218.4</ele>
        <time>2019-12-31T13:36:55Z</time>
      </trkpt>
      <trkpt lat="38.312115" lon="-0.725018">
        <ele>218.2</ele>
        <time>2019-12-31T13:36:56Z</time>
      </trkpt>
      <trkpt lat="38.312169" lon="-0.725021">
        <ele>218.6</ele>
        <time>2019-12-31T13:36:57Z</time>
      </trkpt>
      <trkpt lat="38.312224" lon="-0.725020">
        <ele>218.8</ele>
        <time>2019-12-31T13:36:58Z</time>
      </trkpt>
      <trkpt lat="38.312280" lon="-0.725017">
        <ele>218.8</ele>
        <time>2019-12-31T13:36:59Z</time>
      </trkpt>
      <trkpt lat="38.312335" lon="-0.725020">
        <ele>218.8</ele>
        <time>2019-12-31T13:37:00Z</time>
      </trkpt>
      <trkpt lat="38.312388" lon="-0.725029">
        <ele>218.8</ele>
        <time>2019-12-31T13:37:01Z</time>
      </trkpt>
      <trkpt lat="38.312440" lon="-0.725045">
        <ele>218.6</ele>
        <time>2019-12-31T13:37:02Z</time>
      </trkpt>
      <trkpt lat="38.312493" lon="-0.725061">
        <ele>218.2</ele>
        <time>2019-12-31T13:37:03Z</time>
      </trkpt>
      <trkpt lat="38.312552" lon="-0.725055">
        <ele>218.2</ele>
        <time>2019-12-31T13:37:04Z</time>
      </trkpt>
      <trkpt lat="38.312621" lon="-0.725045">
        <ele>216.8</ele>
        <time>2019-12-31T13:37:05Z</time>
      </trkpt>
      <trkpt lat="38.312690" lon="-0.725041">
        <ele>214.4</ele>
        <time>2019-12-31T13:37:06Z</time>
      </trkpt>
      <trkpt lat="38.312753" lon="-0.725032">
        <ele>213.6</ele>
        <time>2019-12-31T13:37:07Z</time>
      </trkpt>
      <trkpt lat="38.312810" lon="-0.725000">
        <ele>212.4</ele>
        <time>2019-12-31T13:37:08Z</time>
      </trkpt>
      <trkpt lat="38.312867" lon="-0.724967">
        <ele>210.8</ele>
        <time>2019-12-31T13:37:09Z</time>
      </trkpt>
      <trkpt lat="38.312923" lon="-0.724962">
        <ele>210.8</ele>
        <time>2019-12-31T13:37:10Z</time>
      </trkpt>
      <trkpt lat="38.312978" lon="-0.724971">
        <ele>211</ele>
        <time>2019-12-31T13:37:11Z</time>
      </trkpt>
      <trkpt lat="38.313035" lon="-0.724973">
        <ele>211.2</ele>
        <time>2019-12-31T13:37:12Z</time>
      </trkpt>
      <trkpt lat="38.313090" lon="-0.724966">
        <ele>211.2</ele>
        <time>2019-12-31T13:37:13Z</time>
      </trkpt>
      <trkpt lat="38.313145" lon="-0.724958">
        <ele>211</ele>
        <time>2019-12-31T13:37:14Z</time>
      </trkpt>
      <trkpt lat="38.313201" lon="-0.724947">
        <ele>211.2</ele>
        <time>2019-12-31T13:37:15Z</time>
      </trkpt>
      <trkpt lat="38.313255" lon="-0.724925">
        <ele>211.2</ele>
        <time>2019-12-31T13:37:16Z</time>
      </trkpt>
      <trkpt lat="38.313302" lon="-0.724892">
        <ele>211</ele>
        <time>2019-12-31T13:37:17Z</time>
      </trkpt>
      <trkpt lat="38.313328" lon="-0.724857">
        <ele>211</ele>
        <time>2019-12-31T13:37:18Z</time>
      </trkpt>
      <trkpt lat="38.313337" lon="-0.724821">
        <ele>211.2</ele>
        <time>2019-12-31T13:37:19Z</time>
      </trkpt>
      <trkpt lat="38.313328" lon="-0.724785">
        <ele>211.2</ele>
        <time>2019-12-31T13:37:20Z</time>
      </trkpt>
      <trkpt lat="38.313316" lon="-0.724749">
        <ele>211</ele>
        <time>2019-12-31T13:37:21Z</time>
      </trkpt>
      <trkpt lat="38.313300" lon="-0.724719">
        <ele>210.8</ele>
        <time>2019-12-31T13:37:22Z</time>
      </trkpt>
      <trkpt lat="38.313288" lon="-0.724697">
        <ele>211</ele>
        <time>2019-12-31T13:37:23Z</time>
      </trkpt>
      <trkpt lat="38.313285" lon="-0.724682">
        <ele>211.2</ele>
        <time>2019-12-31T13:37:24Z</time>
      </trkpt>
      <trkpt lat="38.313288" lon="-0.724667">
        <ele>211.2</ele>
        <time>2019-12-31T13:37:25Z</time>
      </trkpt>
      <trkpt lat="38.313292" lon="-0.724648">
        <ele>211.2</ele>
        <time>2019-12-31T13:37:26Z</time>
      </trkpt>
      <trkpt lat="38.313293" lon="-0.724634">
        <ele>211.2</ele>
        <time>2019-12-31T13:37:27Z</time>
      </trkpt>
      <trkpt lat="38.313310" lon="-0.724608">
        <ele>211.2</ele>
        <time>2019-12-31T13:37:35Z</time>
      </trkpt>
      <trkpt lat="38.313310" lon="-0.724608">
        <ele>211.2</ele>
        <time>2019-12-31T13:37:36Z</time>
      </trkpt>
      <trkpt lat="38.313300" lon="-0.724577">
        <ele>211</ele>
        <time>2019-12-31T13:37:37Z</time>
      </trkpt>
      <trkpt lat="38.313294" lon="-0.724564">
        <ele>210.8</ele>
        <time>2019-12-31T13:37:38Z</time>
      </trkpt>
      <trkpt lat="38.313284" lon="-0.724553">
        <ele>210.6</ele>
        <time>2019-12-31T13:37:39Z</time>
      </trkpt>
      <trkpt lat="38.313275" lon="-0.724543">
        <ele>210.6</ele>
        <time>2019-12-31T13:37:40Z</time>
      </trkpt>
      <trkpt lat="38.313268" lon="-0.724535">
        <ele>210.8</ele>
        <time>2019-12-31T13:37:41Z</time>
      </trkpt>
      <trkpt lat="38.313256" lon="-0.724523">
        <ele>210.8</ele>
        <time>2019-12-31T13:37:42Z</time>
      </trkpt>
      <trkpt lat="38.313244" lon="-0.724510">
        <ele>210.8</ele>
        <time>2019-12-31T13:37:43Z</time>
      </trkpt>
      <trkpt lat="38.313234" lon="-0.724500">
        <ele>210.8</ele>
        <time>2019-12-31T13:37:44Z</time>
      </trkpt>
      <trkpt lat="38.313224" lon="-0.724491">
        <ele>210.8</ele>
        <time>2019-12-31T13:37:45Z</time>
      </trkpt>
      <trkpt lat="38.313215" lon="-0.724476">
        <ele>210.8</ele>
        <time>2019-12-31T13:37:46Z</time>
      </trkpt>
      <trkpt lat="38.313205" lon="-0.724451">
        <ele>211</ele>
        <time>2019-12-31T13:37:47Z</time>
      </trkpt>
      <trkpt lat="38.313193" lon="-0.724423">
        <ele>210.8</ele>
        <time>2019-12-31T13:37:48Z</time>
      </trkpt>
      <trkpt lat="38.313184" lon="-0.724388">
        <ele>210.8</ele>
        <time>2019-12-31T13:37:49Z</time>
      </trkpt>
      <trkpt lat="38.313188" lon="-0.724353">
        <ele>210.8</ele>
        <time>2019-12-31T13:37:50Z</time>
      </trkpt>
      <trkpt lat="38.313197" lon="-0.724312">
        <ele>210.6</ele>
        <time>2019-12-31T13:37:51Z</time>
      </trkpt>
      <trkpt lat="38.313214" lon="-0.724270">
        <ele>210.8</ele>
        <time>2019-12-31T13:37:52Z</time>
      </trkpt>
      <trkpt lat="38.313239" lon="-0.724226">
        <ele>210.8</ele>
        <time>2019-12-31T13:37:53Z</time>
      </trkpt>
      <trkpt lat="38.313271" lon="-0.724189">
        <ele>210.6</ele>
        <time>2019-12-31T13:37:54Z</time>
      </trkpt>
      <trkpt lat="38.313306" lon="-0.724162">
        <ele>210.8</ele>
        <time>2019-12-31T13:37:55Z</time>
      </trkpt>
      <trkpt lat="38.313337" lon="-0.724130">
        <ele>210.8</ele>
        <time>2019-12-31T13:37:56Z</time>
      </trkpt>
      <trkpt lat="38.313372" lon="-0.724100">
        <ele>211</ele>
        <time>2019-12-31T13:37:57Z</time>
      </trkpt>
      <trkpt lat="38.313409" lon="-0.724069">
        <ele>211</ele>
        <time>2019-12-31T13:37:58Z</time>
      </trkpt>
      <trkpt lat="38.313409" lon="-0.724069">
        <ele>210.8</ele>
        <time>2019-12-31T13:37:59Z</time>
      </trkpt>
      <trkpt lat="38.313484" lon="-0.723993">
        <ele>211</ele>
        <time>2019-12-31T13:38:00Z</time>
      </trkpt>
      <trkpt lat="38.313521" lon="-0.723950">
        <ele>210.8</ele>
        <time>2019-12-31T13:38:01Z</time>
      </trkpt>
      <trkpt lat="38.313521" lon="-0.723950">
        <ele>211</ele>
        <time>2019-12-31T13:38:02Z</time>
      </trkpt>
      <trkpt lat="38.313602" lon="-0.723858">
        <ele>210.8</ele>
        <time>2019-12-31T13:38:03Z</time>
      </trkpt>
      <trkpt lat="38.313644" lon="-0.723812">
        <ele>210.8</ele>
        <time>2019-12-31T13:38:04Z</time>
      </trkpt>
      <trkpt lat="38.313688" lon="-0.723762">
        <ele>210.8</ele>
        <time>2019-12-31T13:38:05Z</time>
      </trkpt>
      <trkpt lat="38.313729" lon="-0.723705">
        <ele>210.8</ele>
        <time>2019-12-31T13:38:06Z</time>
      </trkpt>
      <trkpt lat="38.313769" lon="-0.723645">
        <ele>210.8</ele>
        <time>2019-12-31T13:38:07Z</time>
      </trkpt>
      <trkpt lat="38.313807" lon="-0.723584">
        <ele>210.8</ele>
        <time>2019-12-31T13:38:08Z</time>
      </trkpt>
      <trkpt lat="38.313848" lon="-0.723527">
        <ele>210.8</ele>
        <time>2019-12-31T13:38:09Z</time>
      </trkpt>
      <trkpt lat="38.313848" lon="-0.723527">
        <ele>210.8</ele>
        <time>2019-12-31T13:38:10Z</time>
      </trkpt>
      <trkpt lat="38.313933" lon="-0.723432">
        <ele>210.8</ele>
        <time>2019-12-31T13:38:11Z</time>
      </trkpt>
      <trkpt lat="38.313984" lon="-0.723406">
        <ele>210.8</ele>
        <time>2019-12-31T13:38:12Z</time>
      </trkpt>
      <trkpt lat="38.314041" lon="-0.723391">
        <ele>211</ele>
        <time>2019-12-31T13:38:13Z</time>
      </trkpt>
      <trkpt lat="38.314096" lon="-0.723385">
        <ele>211.2</ele>
        <time>2019-12-31T13:38:14Z</time>
      </trkpt>
      <trkpt lat="38.314141" lon="-0.723397">
        <ele>211.2</ele>
        <time>2019-12-31T13:38:15Z</time>
      </trkpt>
      <trkpt lat="38.314174" lon="-0.723431">
        <ele>211.2</ele>
        <time>2019-12-31T13:38:16Z</time>
      </trkpt>
      <trkpt lat="38.314188" lon="-0.723478">
        <ele>211.4</ele>
        <time>2019-12-31T13:38:17Z</time>
      </trkpt>
      <trkpt lat="38.314185" lon="-0.723528">
        <ele>211.8</ele>
        <time>2019-12-31T13:38:18Z</time>
      </trkpt>
      <trkpt lat="38.314184" lon="-0.723571">
        <ele>211.8</ele>
        <time>2019-12-31T13:38:19Z</time>
      </trkpt>
      <trkpt lat="38.314188" lon="-0.723612">
        <ele>212.2</ele>
        <time>2019-12-31T13:38:20Z</time>
      </trkpt>
      <trkpt lat="38.314190" lon="-0.723654">
        <ele>212.8</ele>
        <time>2019-12-31T13:38:21Z</time>
      </trkpt>
      <trkpt lat="38.314193" lon="-0.723697">
        <ele>213.2</ele>
        <time>2019-12-31T13:38:22Z</time>
      </trkpt>
      <trkpt lat="38.314198" lon="-0.723743">
        <ele>213.2</ele>
        <time>2019-12-31T13:38:23Z</time>
      </trkpt>
      <trkpt lat="38.314201" lon="-0.723792">
        <ele>213.4</ele>
        <time>2019-12-31T13:38:24Z</time>
      </trkpt>
      <trkpt lat="38.314207" lon="-0.723842">
        <ele>214</ele>
        <time>2019-12-31T13:38:25Z</time>
      </trkpt>
      <trkpt lat="38.314214" lon="-0.723887">
        <ele>214.6</ele>
        <time>2019-12-31T13:38:26Z</time>
      </trkpt>
      <trkpt lat="38.314219" lon="-0.723933">
        <ele>214.8</ele>
        <time>2019-12-31T13:38:27Z</time>
      </trkpt>
      <trkpt lat="38.314225" lon="-0.723979">
        <ele>215.2</ele>
        <time>2019-12-31T13:38:28Z</time>
      </trkpt>
      <trkpt lat="38.314230" lon="-0.724028">
        <ele>215.2</ele>
        <time>2019-12-31T13:38:29Z</time>
      </trkpt>
      <trkpt lat="38.314236" lon="-0.724075">
        <ele>215.8</ele>
        <time>2019-12-31T13:38:30Z</time>
      </trkpt>
      <trkpt lat="38.314241" lon="-0.724121">
        <ele>216.2</ele>
        <time>2019-12-31T13:38:31Z</time>
      </trkpt>
      <trkpt lat="38.314241" lon="-0.724121">
        <ele>216.4</ele>
        <time>2019-12-31T13:38:32Z</time>
      </trkpt>
      <trkpt lat="38.314252" lon="-0.724214">
        <ele>216.8</ele>
        <time>2019-12-31T13:38:33Z</time>
      </trkpt>
      <trkpt lat="38.314252" lon="-0.724214">
        <ele>217</ele>
        <time>2019-12-31T13:38:34Z</time>
      </trkpt>
      <trkpt lat="38.314269" lon="-0.724312">
        <ele>217.2</ele>
        <time>2019-12-31T13:38:35Z</time>
      </trkpt>
      <trkpt lat="38.314269" lon="-0.724312">
        <ele>217.6</ele>
        <time>2019-12-31T13:38:36Z</time>
      </trkpt>
      <trkpt lat="38.314279" lon="-0.724398">
        <ele>218</ele>
        <time>2019-12-31T13:38:37Z</time>
      </trkpt>
      <trkpt lat="38.314284" lon="-0.724443">
        <ele>218.2</ele>
        <time>2019-12-31T13:38:38Z</time>
      </trkpt>
      <trkpt lat="38.314291" lon="-0.724494">
        <ele>218.4</ele>
        <time>2019-12-31T13:38:39Z</time>
      </trkpt>
      <trkpt lat="38.314296" lon="-0.724542">
        <ele>218.8</ele>
        <time>2019-12-31T13:38:40Z</time>
      </trkpt>
      <trkpt lat="38.314301" lon="-0.724590">
        <ele>219.4</ele>
        <time>2019-12-31T13:38:41Z</time>
      </trkpt>
      <trkpt lat="38.314305" lon="-0.724639">
        <ele>219.4</ele>
        <time>2019-12-31T13:38:42Z</time>
      </trkpt>
      <trkpt lat="38.314309" lon="-0.724688">
        <ele>219.6</ele>
        <time>2019-12-31T13:38:43Z</time>
      </trkpt>
      <trkpt lat="38.314316" lon="-0.724740">
        <ele>219.6</ele>
        <time>2019-12-31T13:38:44Z</time>
      </trkpt>
      <trkpt lat="38.314324" lon="-0.724796">
        <ele>219.6</ele>
        <time>2019-12-31T13:38:45Z</time>
      </trkpt>
      <trkpt lat="38.314331" lon="-0.724853">
        <ele>219.6</ele>
        <time>2019-12-31T13:38:46Z</time>
      </trkpt>
      <trkpt lat="38.314339" lon="-0.724911">
        <ele>219.6</ele>
        <time>2019-12-31T13:38:47Z</time>
      </trkpt>
      <trkpt lat="38.314349" lon="-0.724971">
        <ele>219.8</ele>
        <time>2019-12-31T13:38:48Z</time>
      </trkpt>
      <trkpt lat="38.314360" lon="-0.725033">
        <ele>219.8</ele>
        <time>2019-12-31T13:38:49Z</time>
      </trkpt>
      <trkpt lat="38.314360" lon="-0.725033">
        <ele>220</ele>
        <time>2019-12-31T13:38:50Z</time>
      </trkpt>
      <trkpt lat="38.314388" lon="-0.725155">
        <ele>220</ele>
        <time>2019-12-31T13:38:51Z</time>
      </trkpt>
      <trkpt lat="38.314404" lon="-0.725215">
        <ele>220.2</ele>
        <time>2019-12-31T13:38:52Z</time>
      </trkpt>
      <trkpt lat="38.314404" lon="-0.725215">
        <ele>220.6</ele>
        <time>2019-12-31T13:38:53Z</time>
      </trkpt>
      <trkpt lat="38.314453" lon="-0.725312">
        <ele>221.2</ele>
        <time>2019-12-31T13:38:54Z</time>
      </trkpt>
      <trkpt lat="38.314480" lon="-0.725348">
        <ele>221.6</ele>
        <time>2019-12-31T13:38:55Z</time>
      </trkpt>
      <trkpt lat="38.314509" lon="-0.725381">
        <ele>221.8</ele>
        <time>2019-12-31T13:38:56Z</time>
      </trkpt>
      <trkpt lat="38.314509" lon="-0.725381">
        <ele>222</ele>
        <time>2019-12-31T13:38:57Z</time>
      </trkpt>
      <trkpt lat="38.314571" lon="-0.725444">
        <ele>222.2</ele>
        <time>2019-12-31T13:38:58Z</time>
      </trkpt>
      <trkpt lat="38.314604" lon="-0.725478">
        <ele>222.4</ele>
        <time>2019-12-31T13:38:59Z</time>
      </trkpt>
      <trkpt lat="38.314640" lon="-0.725508">
        <ele>222.6</ele>
        <time>2019-12-31T13:39:00Z</time>
      </trkpt>
      <trkpt lat="38.314678" lon="-0.725536">
        <ele>222.6</ele>
        <time>2019-12-31T13:39:01Z</time>
      </trkpt>
      <trkpt lat="38.314717" lon="-0.725561">
        <ele>222.8</ele>
        <time>2019-12-31T13:39:02Z</time>
      </trkpt>
      <trkpt lat="38.314758" lon="-0.725582">
        <ele>223</ele>
        <time>2019-12-31T13:39:03Z</time>
      </trkpt>
      <trkpt lat="38.314800" lon="-0.725604">
        <ele>222.6</ele>
        <time>2019-12-31T13:39:04Z</time>
      </trkpt>
      <trkpt lat="38.314848" lon="-0.725631">
        <ele>222.4</ele>
        <time>2019-12-31T13:39:05Z</time>
      </trkpt>
      <trkpt lat="38.314902" lon="-0.725664">
        <ele>222.2</ele>
        <time>2019-12-31T13:39:06Z</time>
      </trkpt>
      <trkpt lat="38.314961" lon="-0.725692">
        <ele>221.4</ele>
        <time>2019-12-31T13:39:07Z</time>
      </trkpt>
      <trkpt lat="38.314961" lon="-0.725692">
        <ele>220.6</ele>
        <time>2019-12-31T13:39:08Z</time>
      </trkpt>
      <trkpt lat="38.315092" lon="-0.725762">
        <ele>220</ele>
        <time>2019-12-31T13:39:09Z</time>
      </trkpt>
      <trkpt lat="38.315162" lon="-0.725802">
        <ele>219.6</ele>
        <time>2019-12-31T13:39:10Z</time>
      </trkpt>
      <trkpt lat="38.315235" lon="-0.725839">
        <ele>219.4</ele>
        <time>2019-12-31T13:39:11Z</time>
      </trkpt>
      <trkpt lat="38.315311" lon="-0.725867">
        <ele>219.2</ele>
        <time>2019-12-31T13:39:12Z</time>
      </trkpt>
      <trkpt lat="38.315385" lon="-0.725888">
        <ele>219.4</ele>
        <time>2019-12-31T13:39:13Z</time>
      </trkpt>
      <trkpt lat="38.315385" lon="-0.725888">
        <ele>220.2</ele>
        <time>2019-12-31T13:39:14Z</time>
      </trkpt>
      <trkpt lat="38.315510" lon="-0.725910">
        <ele>221.4</ele>
        <time>2019-12-31T13:39:15Z</time>
      </trkpt>
      <trkpt lat="38.315555" lon="-0.725923">
        <ele>222.6</ele>
        <time>2019-12-31T13:39:16Z</time>
      </trkpt>
      <trkpt lat="38.315590" lon="-0.725937">
        <ele>223.4</ele>
        <time>2019-12-31T13:39:17Z</time>
      </trkpt>
      <trkpt lat="38.315618" lon="-0.725951">
        <ele>224</ele>
        <time>2019-12-31T13:39:18Z</time>
      </trkpt>
      <trkpt lat="38.315642" lon="-0.725963">
        <ele>224.4</ele>
        <time>2019-12-31T13:39:19Z</time>
      </trkpt>
      <trkpt lat="38.315642" lon="-0.725963">
        <ele>225.2</ele>
        <time>2019-12-31T13:39:20Z</time>
      </trkpt>
      <trkpt lat="38.315684" lon="-0.725993">
        <ele>225.4</ele>
        <time>2019-12-31T13:39:21Z</time>
      </trkpt>
      <trkpt lat="38.315684" lon="-0.725993">
        <ele>226</ele>
        <time>2019-12-31T13:39:22Z</time>
      </trkpt>
      <trkpt lat="38.315730" lon="-0.726017">
        <ele>226.4</ele>
        <time>2019-12-31T13:39:23Z</time>
      </trkpt>
      <trkpt lat="38.315730" lon="-0.726017">
        <ele>226.6</ele>
        <time>2019-12-31T13:39:24Z</time>
      </trkpt>
      <trkpt lat="38.315753" lon="-0.726029">
        <ele>227.2</ele>
        <time>2019-12-31T13:39:25Z</time>
      </trkpt>
      <trkpt lat="38.315797" lon="-0.726062">
        <ele>227.6</ele>
        <time>2019-12-31T13:39:26Z</time>
      </trkpt>
      <trkpt lat="38.315818" lon="-0.726080">
        <ele>227.8</ele>
        <time>2019-12-31T13:39:27Z</time>
      </trkpt>
      <trkpt lat="38.315840" lon="-0.726098">
        <ele>228.2</ele>
        <time>2019-12-31T13:39:28Z</time>
      </trkpt>
      <trkpt lat="38.315866" lon="-0.726117">
        <ele>228.2</ele>
        <time>2019-12-31T13:39:29Z</time>
      </trkpt>
      <trkpt lat="38.315866" lon="-0.726117">
        <ele>228.2</ele>
        <time>2019-12-31T13:39:30Z</time>
      </trkpt>
      <trkpt lat="38.315927" lon="-0.726149">
        <ele>228.6</ele>
        <time>2019-12-31T13:39:31Z</time>
      </trkpt>
      <trkpt lat="38.315927" lon="-0.726149">
        <ele>228.4</ele>
        <time>2019-12-31T13:39:32Z</time>
      </trkpt>
      <trkpt lat="38.315995" lon="-0.726184">
        <ele>228.6</ele>
        <time>2019-12-31T13:39:33Z</time>
      </trkpt>
      <trkpt lat="38.316029" lon="-0.726203">
        <ele>228.6</ele>
        <time>2019-12-31T13:39:34Z</time>
      </trkpt>
      <trkpt lat="38.316062" lon="-0.726229">
        <ele>228.8</ele>
        <time>2019-12-31T13:39:35Z</time>
      </trkpt>
      <trkpt lat="38.316086" lon="-0.726274">
        <ele>228.2</ele>
        <time>2019-12-31T13:39:36Z</time>
      </trkpt>
      <trkpt lat="38.316093" lon="-0.726327">
        <ele>228.2</ele>
        <time>2019-12-31T13:39:37Z</time>
      </trkpt>
      <trkpt lat="38.316093" lon="-0.726327">
        <ele>228.2</ele>
        <time>2019-12-31T13:39:38Z</time>
      </trkpt>
      <trkpt lat="38.316071" lon="-0.726439">
        <ele>228.4</ele>
        <time>2019-12-31T13:39:39Z</time>
      </trkpt>
      <trkpt lat="38.316049" lon="-0.726494">
        <ele>228.6</ele>
        <time>2019-12-31T13:39:40Z</time>
      </trkpt>
      <trkpt lat="38.316049" lon="-0.726494">
        <ele>228.6</ele>
        <time>2019-12-31T13:39:41Z</time>
      </trkpt>
      <trkpt lat="38.316003" lon="-0.726608">
        <ele>229</ele>
        <time>2019-12-31T13:39:42Z</time>
      </trkpt>
      <trkpt lat="38.315980" lon="-0.726664">
        <ele>229</ele>
        <time>2019-12-31T13:39:43Z</time>
      </trkpt>
      <trkpt lat="38.315959" lon="-0.726722">
        <ele>229.2</ele>
        <time>2019-12-31T13:39:44Z</time>
      </trkpt>
      <trkpt lat="38.315938" lon="-0.726778">
        <ele>229.2</ele>
        <time>2019-12-31T13:39:45Z</time>
      </trkpt>
      <trkpt lat="38.315918" lon="-0.726836">
        <ele>229.4</ele>
        <time>2019-12-31T13:39:46Z</time>
      </trkpt>
      <trkpt lat="38.315898" lon="-0.726892">
        <ele>229.8</ele>
        <time>2019-12-31T13:39:47Z</time>
      </trkpt>
      <trkpt lat="38.315877" lon="-0.726949">
        <ele>229.6</ele>
        <time>2019-12-31T13:39:48Z</time>
      </trkpt>
      <trkpt lat="38.315854" lon="-0.727008">
        <ele>230</ele>
        <time>2019-12-31T13:39:49Z</time>
      </trkpt>
      <trkpt lat="38.315831" lon="-0.727063">
        <ele>230</ele>
        <time>2019-12-31T13:39:50Z</time>
      </trkpt>
      <trkpt lat="38.315806" lon="-0.727121">
        <ele>230</ele>
        <time>2019-12-31T13:39:51Z</time>
      </trkpt>
      <trkpt lat="38.315773" lon="-0.727172">
        <ele>230.2</ele>
        <time>2019-12-31T13:39:52Z</time>
      </trkpt>
      <trkpt lat="38.315751" lon="-0.727233">
        <ele>230.2</ele>
        <time>2019-12-31T13:39:53Z</time>
      </trkpt>
      <trkpt lat="38.315726" lon="-0.727287">
        <ele>230.4</ele>
        <time>2019-12-31T13:39:54Z</time>
      </trkpt>
      <trkpt lat="38.315726" lon="-0.727287">
        <ele>230.2</ele>
        <time>2019-12-31T13:39:55Z</time>
      </trkpt>
      <trkpt lat="38.315673" lon="-0.727399">
        <ele>230.6</ele>
        <time>2019-12-31T13:39:56Z</time>
      </trkpt>
      <trkpt lat="38.315651" lon="-0.727450">
        <ele>230.6</ele>
        <time>2019-12-31T13:39:57Z</time>
      </trkpt>
      <trkpt lat="38.315630" lon="-0.727500">
        <ele>230.8</ele>
        <time>2019-12-31T13:39:58Z</time>
      </trkpt>
      <trkpt lat="38.315630" lon="-0.727500">
        <ele>230.8</ele>
        <time>2019-12-31T13:39:59Z</time>
      </trkpt>
      <trkpt lat="38.315588" lon="-0.727601">
        <ele>231</ele>
        <time>2019-12-31T13:40:00Z</time>
      </trkpt>
      <trkpt lat="38.315571" lon="-0.727645">
        <ele>231</ele>
        <time>2019-12-31T13:40:01Z</time>
      </trkpt>
      <trkpt lat="38.315559" lon="-0.727692">
        <ele>230.8</ele>
        <time>2019-12-31T13:40:02Z</time>
      </trkpt>
      <trkpt lat="38.315556" lon="-0.727726">
        <ele>230.6</ele>
        <time>2019-12-31T13:40:03Z</time>
      </trkpt>
      <trkpt lat="38.315571" lon="-0.727743">
        <ele>230.6</ele>
        <time>2019-12-31T13:40:04Z</time>
      </trkpt>
      <trkpt lat="38.315571" lon="-0.727743">
        <ele>231</ele>
        <time>2019-12-31T13:40:05Z</time>
      </trkpt>
      <trkpt lat="38.315625" lon="-0.727766">
        <ele>231.2</ele>
        <time>2019-12-31T13:40:06Z</time>
      </trkpt>
      <trkpt lat="38.315654" lon="-0.727783">
        <ele>231.2</ele>
        <time>2019-12-31T13:40:07Z</time>
      </trkpt>
      <trkpt lat="38.315684" lon="-0.727797">
        <ele>231.4</ele>
        <time>2019-12-31T13:40:08Z</time>
      </trkpt>
      <trkpt lat="38.315684" lon="-0.727797">
        <ele>231.6</ele>
        <time>2019-12-31T13:40:09Z</time>
      </trkpt>
      <trkpt lat="38.315745" lon="-0.727822">
        <ele>231.6</ele>
        <time>2019-12-31T13:40:10Z</time>
      </trkpt>
      <trkpt lat="38.315771" lon="-0.727827">
        <ele>231.6</ele>
        <time>2019-12-31T13:40:11Z</time>
      </trkpt>
      <trkpt lat="38.315789" lon="-0.727813">
        <ele>231.8</ele>
        <time>2019-12-31T13:40:12Z</time>
      </trkpt>
      <trkpt lat="38.315804" lon="-0.727790">
        <ele>231.8</ele>
        <time>2019-12-31T13:40:13Z</time>
      </trkpt>
      <trkpt lat="38.315826" lon="-0.727760">
        <ele>231.8</ele>
        <time>2019-12-31T13:40:14Z</time>
      </trkpt>
      <trkpt lat="38.315852" lon="-0.727737">
        <ele>232</ele>
        <time>2019-12-31T13:40:15Z</time>
      </trkpt>
      <trkpt lat="38.315880" lon="-0.727711">
        <ele>231.8</ele>
        <time>2019-12-31T13:40:16Z</time>
      </trkpt>
      <trkpt lat="38.315907" lon="-0.727682">
        <ele>231.6</ele>
        <time>2019-12-31T13:40:17Z</time>
      </trkpt>
      <trkpt lat="38.315931" lon="-0.727654">
        <ele>231.8</ele>
        <time>2019-12-31T13:40:18Z</time>
      </trkpt>
      <trkpt lat="38.315950" lon="-0.727620">
        <ele>231.6</ele>
        <time>2019-12-31T13:40:19Z</time>
      </trkpt>
      <trkpt lat="38.315969" lon="-0.727587">
        <ele>231.6</ele>
        <time>2019-12-31T13:40:20Z</time>
      </trkpt>
      <trkpt lat="38.315990" lon="-0.727553">
        <ele>231.6</ele>
        <time>2019-12-31T13:40:21Z</time>
      </trkpt>
      <trkpt lat="38.316010" lon="-0.727528">
        <ele>231.6</ele>
        <time>2019-12-31T13:40:22Z</time>
      </trkpt>
      <trkpt lat="38.316023" lon="-0.727518">
        <ele>231.4</ele>
        <time>2019-12-31T13:40:23Z</time>
      </trkpt>
      <trkpt lat="38.316044" lon="-0.727517">
        <ele>231.4</ele>
        <time>2019-12-31T13:40:26Z</time>
      </trkpt>
      <trkpt lat="38.316055" lon="-0.727527">
        <ele>231.6</ele>
        <time>2019-12-31T13:40:27Z</time>
      </trkpt>
      <trkpt lat="38.316055" lon="-0.727527">
        <ele>232.2</ele>
        <time>2019-12-31T13:40:28Z</time>
      </trkpt>
      <trkpt lat="38.316069" lon="-0.727560">
        <ele>232.6</ele>
        <time>2019-12-31T13:40:31Z</time>
      </trkpt>
      <trkpt lat="38.316075" lon="-0.727571">
        <ele>233</ele>
        <time>2019-12-31T13:40:32Z</time>
      </trkpt>
      <trkpt lat="38.316077" lon="-0.727584">
        <ele>233.4</ele>
        <time>2019-12-31T13:40:33Z</time>
      </trkpt>
      <trkpt lat="38.316077" lon="-0.727584">
        <ele>233.8</ele>
        <time>2019-12-31T13:40:34Z</time>
      </trkpt>
      <trkpt lat="38.316076" lon="-0.727614">
        <ele>234.2</ele>
        <time>2019-12-31T13:40:35Z</time>
      </trkpt>
      <trkpt lat="38.316071" lon="-0.727623">
        <ele>234.2</ele>
        <time>2019-12-31T13:40:36Z</time>
      </trkpt>
      <trkpt lat="38.316063" lon="-0.727635">
        <ele>234.4</ele>
        <time>2019-12-31T13:40:37Z</time>
      </trkpt>
      <trkpt lat="38.316063" lon="-0.727635">
        <ele>234.6</ele>
        <time>2019-12-31T13:40:38Z</time>
      </trkpt>
      <trkpt lat="38.316045" lon="-0.727655">
        <ele>234.6</ele>
        <time>2019-12-31T13:40:39Z</time>
      </trkpt>
      <trkpt lat="38.316032" lon="-0.727667">
        <ele>234.6</ele>
        <time>2019-12-31T13:40:40Z</time>
      </trkpt>
      <trkpt lat="38.316022" lon="-0.727679">
        <ele>234.8</ele>
        <time>2019-12-31T13:40:41Z</time>
      </trkpt>
      <trkpt lat="38.316004" lon="-0.727694">
        <ele>234.6</ele>
        <time>2019-12-31T13:40:42Z</time>
      </trkpt>
      <trkpt lat="38.315984" lon="-0.727716">
        <ele>234.6</ele>
        <time>2019-12-31T13:40:43Z</time>
      </trkpt>
      <trkpt lat="38.315960" lon="-0.727750">
        <ele>234.2</ele>
        <time>2019-12-31T13:40:44Z</time>
      </trkpt>
      <trkpt lat="38.315931" lon="-0.727794">
        <ele>233.6</ele>
        <time>2019-12-31T13:40:45Z</time>
      </trkpt>
      <trkpt lat="38.315908" lon="-0.727844">
        <ele>233.6</ele>
        <time>2019-12-31T13:40:46Z</time>
      </trkpt>
      <trkpt lat="38.315901" lon="-0.727878">
        <ele>234.6</ele>
        <time>2019-12-31T13:40:47Z</time>
      </trkpt>
      <trkpt lat="38.315902" lon="-0.727903">
        <ele>235.6</ele>
        <time>2019-12-31T13:40:48Z</time>
      </trkpt>
      <trkpt lat="38.315903" lon="-0.727920">
        <ele>236.8</ele>
        <time>2019-12-31T13:40:52Z</time>
      </trkpt>
      <trkpt lat="38.315904" lon="-0.727935">
        <ele>236.6</ele>
        <time>2019-12-31T13:40:53Z</time>
      </trkpt>
      <trkpt lat="38.315904" lon="-0.727935">
        <ele>236.8</ele>
        <time>2019-12-31T13:40:54Z</time>
      </trkpt>
      <trkpt lat="38.315912" lon="-0.727971">
        <ele>236.4</ele>
        <time>2019-12-31T13:40:55Z</time>
      </trkpt>
      <trkpt lat="38.315912" lon="-0.727971">
        <ele>236.2</ele>
        <time>2019-12-31T13:40:56Z</time>
      </trkpt>
      <trkpt lat="38.315922" lon="-0.727998">
        <ele>235.8</ele>
        <time>2019-12-31T13:40:57Z</time>
      </trkpt>
      <trkpt lat="38.315949" lon="-0.728083">
        <ele>235.6</ele>
        <time>2019-12-31T13:40:58Z</time>
      </trkpt>
      <trkpt lat="38.315949" lon="-0.728083">
        <ele>235.8</ele>
        <time>2019-12-31T13:40:59Z</time>
      </trkpt>
      <trkpt lat="38.315976" lon="-0.728114">
        <ele>235.8</ele>
        <time>2019-12-31T13:41:00Z</time>
      </trkpt>
      <trkpt lat="38.316064" lon="-0.728146">
        <ele>235.8</ele>
        <time>2019-12-31T13:41:01Z</time>
      </trkpt>
      <trkpt lat="38.316064" lon="-0.728146">
        <ele>235.8</ele>
        <time>2019-12-31T13:41:02Z</time>
      </trkpt>
      <trkpt lat="38.316116" lon="-0.728159">
        <ele>235.8</ele>
        <time>2019-12-31T13:41:03Z</time>
      </trkpt>
      <trkpt lat="38.316222" lon="-0.728209">
        <ele>235.8</ele>
        <time>2019-12-31T13:41:04Z</time>
      </trkpt>
      <trkpt lat="38.316222" lon="-0.728209">
        <ele>235.8</ele>
        <time>2019-12-31T13:41:05Z</time>
      </trkpt>
      <trkpt lat="38.316274" lon="-0.728240">
        <ele>235.8</ele>
        <time>2019-12-31T13:41:06Z</time>
      </trkpt>
      <trkpt lat="38.316391" lon="-0.728286">
        <ele>235.8</ele>
        <time>2019-12-31T13:41:07Z</time>
      </trkpt>
      <trkpt lat="38.316391" lon="-0.728286">
        <ele>235.8</ele>
        <time>2019-12-31T13:41:08Z</time>
      </trkpt>
      <trkpt lat="38.316519" lon="-0.728315">
        <ele>235.8</ele>
        <time>2019-12-31T13:41:09Z</time>
      </trkpt>
      <trkpt lat="38.316519" lon="-0.728315">
        <ele>235.8</ele>
        <time>2019-12-31T13:41:10Z</time>
      </trkpt>
      <trkpt lat="38.316586" lon="-0.728327">
        <ele>235.6</ele>
        <time>2019-12-31T13:41:11Z</time>
      </trkpt>
      <trkpt lat="38.316726" lon="-0.728340">
        <ele>235.6</ele>
        <time>2019-12-31T13:41:12Z</time>
      </trkpt>
      <trkpt lat="38.316726" lon="-0.728340">
        <ele>235.8</ele>
        <time>2019-12-31T13:41:13Z</time>
      </trkpt>
      <trkpt lat="38.316794" lon="-0.728341">
        <ele>236</ele>
        <time>2019-12-31T13:41:14Z</time>
      </trkpt>
      <trkpt lat="38.316860" lon="-0.728350">
        <ele>236.2</ele>
        <time>2019-12-31T13:41:15Z</time>
      </trkpt>
      <trkpt lat="38.316979" lon="-0.728423">
        <ele>236.2</ele>
        <time>2019-12-31T13:41:16Z</time>
      </trkpt>
      <trkpt lat="38.316979" lon="-0.728423">
        <ele>236.2</ele>
        <time>2019-12-31T13:41:17Z</time>
      </trkpt>
      <trkpt lat="38.317071" lon="-0.728562">
        <ele>236</ele>
        <time>2019-12-31T13:41:18Z</time>
      </trkpt>
      <trkpt lat="38.317118" lon="-0.728637">
        <ele>235.8</ele>
        <time>2019-12-31T13:41:19Z</time>
      </trkpt>
      <trkpt lat="38.317118" lon="-0.728637">
        <ele>235.8</ele>
        <time>2019-12-31T13:41:20Z</time>
      </trkpt>
      <trkpt lat="38.317229" lon="-0.728767">
        <ele>235.6</ele>
        <time>2019-12-31T13:41:21Z</time>
      </trkpt>
      <trkpt lat="38.317229" lon="-0.728767">
        <ele>235.8</ele>
        <time>2019-12-31T13:41:22Z</time>
      </trkpt>
      <trkpt lat="38.317355" lon="-0.728896">
        <ele>235.4</ele>
        <time>2019-12-31T13:41:23Z</time>
      </trkpt>
      <trkpt lat="38.317422" lon="-0.728951">
        <ele>235.6</ele>
        <time>2019-12-31T13:41:24Z</time>
      </trkpt>
      <trkpt lat="38.317487" lon="-0.729007">
        <ele>235.8</ele>
        <time>2019-12-31T13:41:25Z</time>
      </trkpt>
      <trkpt lat="38.317550" lon="-0.729062">
        <ele>235.8</ele>
        <time>2019-12-31T13:41:26Z</time>
      </trkpt>
      <trkpt lat="38.317550" lon="-0.729062">
        <ele>235.6</ele>
        <time>2019-12-31T13:41:27Z</time>
      </trkpt>
      <trkpt lat="38.317618" lon="-0.729114">
        <ele>235.4</ele>
        <time>2019-12-31T13:41:28Z</time>
      </trkpt>
      <trkpt lat="38.317766" lon="-0.729199">
        <ele>235.2</ele>
        <time>2019-12-31T13:41:29Z</time>
      </trkpt>
      <trkpt lat="38.317842" lon="-0.729229">
        <ele>235.2</ele>
        <time>2019-12-31T13:41:30Z</time>
      </trkpt>
      <trkpt lat="38.317919" lon="-0.729256">
        <ele>235.4</ele>
        <time>2019-12-31T13:41:31Z</time>
      </trkpt>
      <trkpt lat="38.317994" lon="-0.729281">
        <ele>235.4</ele>
        <time>2019-12-31T13:41:32Z</time>
      </trkpt>
      <trkpt lat="38.318070" lon="-0.729304">
        <ele>235.6</ele>
        <time>2019-12-31T13:41:33Z</time>
      </trkpt>
      <trkpt lat="38.318144" lon="-0.729332">
        <ele>235.8</ele>
        <time>2019-12-31T13:41:34Z</time>
      </trkpt>
      <trkpt lat="38.318215" lon="-0.729363">
        <ele>235.8</ele>
        <time>2019-12-31T13:41:35Z</time>
      </trkpt>
      <trkpt lat="38.318215" lon="-0.729363">
        <ele>236</ele>
        <time>2019-12-31T13:41:36Z</time>
      </trkpt>
      <trkpt lat="38.318276" lon="-0.729405">
        <ele>236</ele>
        <time>2019-12-31T13:41:37Z</time>
      </trkpt>
      <trkpt lat="38.318326" lon="-0.729463">
        <ele>236</ele>
        <time>2019-12-31T13:41:38Z</time>
      </trkpt>
      <trkpt lat="38.318347" lon="-0.729540">
        <ele>236</ele>
        <time>2019-12-31T13:41:39Z</time>
      </trkpt>
      <trkpt lat="38.318341" lon="-0.729701">
        <ele>235.8</ele>
        <time>2019-12-31T13:41:40Z</time>
      </trkpt>
      <trkpt lat="38.318341" lon="-0.729701">
        <ele>235.6</ele>
        <time>2019-12-31T13:41:41Z</time>
      </trkpt>
      <trkpt lat="38.318271" lon="-0.729838">
        <ele>235.6</ele>
        <time>2019-12-31T13:41:42Z</time>
      </trkpt>
      <trkpt lat="38.318227" lon="-0.729901">
        <ele>235.4</ele>
        <time>2019-12-31T13:41:43Z</time>
      </trkpt>
      <trkpt lat="38.318227" lon="-0.729901">
        <ele>235.2</ele>
        <time>2019-12-31T13:41:44Z</time>
      </trkpt>
      <trkpt lat="38.318181" lon="-0.729963">
        <ele>235</ele>
        <time>2019-12-31T13:41:45Z</time>
      </trkpt>
      <trkpt lat="38.318132" lon="-0.730112">
        <ele>235</ele>
        <time>2019-12-31T13:41:46Z</time>
      </trkpt>
      <trkpt lat="38.318129" lon="-0.730193">
        <ele>235.6</ele>
        <time>2019-12-31T13:41:47Z</time>
      </trkpt>
      <trkpt lat="38.318129" lon="-0.730193">
        <ele>235.6</ele>
        <time>2019-12-31T13:41:48Z</time>
      </trkpt>
      <trkpt lat="38.318113" lon="-0.730363">
        <ele>235.8</ele>
        <time>2019-12-31T13:41:49Z</time>
      </trkpt>
      <trkpt lat="38.318097" lon="-0.730448">
        <ele>236</ele>
        <time>2019-12-31T13:41:50Z</time>
      </trkpt>
      <trkpt lat="38.318097" lon="-0.730448">
        <ele>236.4</ele>
        <time>2019-12-31T13:41:51Z</time>
      </trkpt>
      <trkpt lat="38.318091" lon="-0.730601">
        <ele>236.4</ele>
        <time>2019-12-31T13:41:52Z</time>
      </trkpt>
      <trkpt lat="38.318091" lon="-0.730601">
        <ele>236.6</ele>
        <time>2019-12-31T13:41:53Z</time>
      </trkpt>
      <trkpt lat="38.318105" lon="-0.730675">
        <ele>236.2</ele>
        <time>2019-12-31T13:41:54Z</time>
      </trkpt>
      <trkpt lat="38.318123" lon="-0.730753">
        <ele>236.4</ele>
        <time>2019-12-31T13:41:55Z</time>
      </trkpt>
      <trkpt lat="38.318139" lon="-0.730833">
        <ele>236.2</ele>
        <time>2019-12-31T13:41:56Z</time>
      </trkpt>
      <trkpt lat="38.318149" lon="-0.730916">
        <ele>236</ele>
        <time>2019-12-31T13:41:57Z</time>
      </trkpt>
      <trkpt lat="38.318154" lon="-0.731033">
        <ele>236.4</ele>
        <time>2019-12-31T13:41:58Z</time>
      </trkpt>
      <trkpt lat="38.318154" lon="-0.731033">
        <ele>236.6</ele>
        <time>2019-12-31T13:41:59Z</time>
      </trkpt>
      <trkpt lat="38.318155" lon="-0.731061">
        <ele>236.2</ele>
        <time>2019-12-31T13:42:00Z</time>
      </trkpt>
      <trkpt lat="38.318162" lon="-0.731091">
        <ele>236.2</ele>
        <time>2019-12-31T13:42:01Z</time>
      </trkpt>
      <trkpt lat="38.318176" lon="-0.731127">
        <ele>236</ele>
        <time>2019-12-31T13:42:02Z</time>
      </trkpt>
      <trkpt lat="38.318192" lon="-0.731168">
        <ele>235.8</ele>
        <time>2019-12-31T13:42:03Z</time>
      </trkpt>
      <trkpt lat="38.318215" lon="-0.731212">
        <ele>235.8</ele>
        <time>2019-12-31T13:42:04Z</time>
      </trkpt>
      <trkpt lat="38.318238" lon="-0.731259">
        <ele>236</ele>
        <time>2019-12-31T13:42:05Z</time>
      </trkpt>
      <trkpt lat="38.318266" lon="-0.731305">
        <ele>236</ele>
        <time>2019-12-31T13:42:06Z</time>
      </trkpt>
      <trkpt lat="38.318300" lon="-0.731345">
        <ele>236.2</ele>
        <time>2019-12-31T13:42:07Z</time>
      </trkpt>
      <trkpt lat="38.318385" lon="-0.731367">
        <ele>236.6</ele>
        <time>2019-12-31T13:42:08Z</time>
      </trkpt>
      <trkpt lat="38.318385" lon="-0.731367">
        <ele>237</ele>
        <time>2019-12-31T13:42:09Z</time>
      </trkpt>
      <trkpt lat="38.318423" lon="-0.731345">
        <ele>236.8</ele>
        <time>2019-12-31T13:42:10Z</time>
      </trkpt>
      <trkpt lat="38.318501" lon="-0.731278">
        <ele>236.6</ele>
        <time>2019-12-31T13:42:11Z</time>
      </trkpt>
      <trkpt lat="38.318552" lon="-0.731256">
        <ele>236.2</ele>
        <time>2019-12-31T13:42:12Z</time>
      </trkpt>
      <trkpt lat="38.318608" lon="-0.731247">
        <ele>236</ele>
        <time>2019-12-31T13:42:13Z</time>
      </trkpt>
      <trkpt lat="38.318664" lon="-0.731230">
        <ele>236</ele>
        <time>2019-12-31T13:42:14Z</time>
      </trkpt>
      <trkpt lat="38.318664" lon="-0.731230">
        <ele>236.2</ele>
        <time>2019-12-31T13:42:15Z</time>
      </trkpt>
      <trkpt lat="38.318711" lon="-0.731192">
        <ele>236</ele>
        <time>2019-12-31T13:42:16Z</time>
      </trkpt>
      <trkpt lat="38.318749" lon="-0.731135">
        <ele>235.8</ele>
        <time>2019-12-31T13:42:17Z</time>
      </trkpt>
      <trkpt lat="38.318832" lon="-0.731037">
        <ele>236.2</ele>
        <time>2019-12-31T13:42:18Z</time>
      </trkpt>
      <trkpt lat="38.318877" lon="-0.730994">
        <ele>236.2</ele>
        <time>2019-12-31T13:42:19Z</time>
      </trkpt>
      <trkpt lat="38.318929" lon="-0.730961">
        <ele>236</ele>
        <time>2019-12-31T13:42:20Z</time>
      </trkpt>
      <trkpt lat="38.318986" lon="-0.730943">
        <ele>235.8</ele>
        <time>2019-12-31T13:42:21Z</time>
      </trkpt>
      <trkpt lat="38.318986" lon="-0.730943">
        <ele>235.8</ele>
        <time>2019-12-31T13:42:22Z</time>
      </trkpt>
      <trkpt lat="38.319047" lon="-0.730935">
        <ele>235.6</ele>
        <time>2019-12-31T13:42:23Z</time>
      </trkpt>
      <trkpt lat="38.319175" lon="-0.730932">
        <ele>235.4</ele>
        <time>2019-12-31T13:42:24Z</time>
      </trkpt>
      <trkpt lat="38.319236" lon="-0.730934">
        <ele>235.6</ele>
        <time>2019-12-31T13:42:25Z</time>
      </trkpt>
      <trkpt lat="38.319236" lon="-0.730934">
        <ele>236</ele>
        <time>2019-12-31T13:42:26Z</time>
      </trkpt>
      <trkpt lat="38.319289" lon="-0.730943">
        <ele>236.8</ele>
        <time>2019-12-31T13:42:27Z</time>
      </trkpt>
      <trkpt lat="38.319383" lon="-0.730965">
        <ele>237.4</ele>
        <time>2019-12-31T13:42:28Z</time>
      </trkpt>
      <trkpt lat="38.319383" lon="-0.730965">
        <ele>238.2</ele>
        <time>2019-12-31T13:42:29Z</time>
      </trkpt>
      <trkpt lat="38.319413" lon="-0.730992">
        <ele>238.8</ele>
        <time>2019-12-31T13:42:30Z</time>
      </trkpt>
      <trkpt lat="38.319457" lon="-0.731053">
        <ele>239</ele>
        <time>2019-12-31T13:42:31Z</time>
      </trkpt>
      <trkpt lat="38.319457" lon="-0.731053">
        <ele>239.4</ele>
        <time>2019-12-31T13:42:32Z</time>
      </trkpt>
      <trkpt lat="38.319501" lon="-0.731129">
        <ele>239.2</ele>
        <time>2019-12-31T13:42:33Z</time>
      </trkpt>
      <trkpt lat="38.319501" lon="-0.731129">
        <ele>238.8</ele>
        <time>2019-12-31T13:42:34Z</time>
      </trkpt>
      <trkpt lat="38.319547" lon="-0.731247">
        <ele>237.4</ele>
        <time>2019-12-31T13:42:35Z</time>
      </trkpt>
      <trkpt lat="38.319547" lon="-0.731247">
        <ele>236.8</ele>
        <time>2019-12-31T13:42:36Z</time>
      </trkpt>
      <trkpt lat="38.319603" lon="-0.731370">
        <ele>237.8</ele>
        <time>2019-12-31T13:42:37Z</time>
      </trkpt>
      <trkpt lat="38.319603" lon="-0.731370">
        <ele>238.8</ele>
        <time>2019-12-31T13:42:38Z</time>
      </trkpt>
      <trkpt lat="38.319624" lon="-0.731406">
        <ele>239.8</ele>
        <time>2019-12-31T13:42:39Z</time>
      </trkpt>
      <trkpt lat="38.319661" lon="-0.731456">
        <ele>240.2</ele>
        <time>2019-12-31T13:42:40Z</time>
      </trkpt>
      <trkpt lat="38.319661" lon="-0.731456">
        <ele>240.6</ele>
        <time>2019-12-31T13:42:41Z</time>
      </trkpt>
      <trkpt lat="38.319682" lon="-0.731473">
        <ele>241</ele>
        <time>2019-12-31T13:42:42Z</time>
      </trkpt>
      <trkpt lat="38.319713" lon="-0.731508">
        <ele>241.2</ele>
        <time>2019-12-31T13:42:43Z</time>
      </trkpt>
      <trkpt lat="38.319713" lon="-0.731508">
        <ele>241.8</ele>
        <time>2019-12-31T13:42:44Z</time>
      </trkpt>
      <trkpt lat="38.319727" lon="-0.731528">
        <ele>242.2</ele>
        <time>2019-12-31T13:42:45Z</time>
      </trkpt>
      <trkpt lat="38.319737" lon="-0.731551">
        <ele>242.4</ele>
        <time>2019-12-31T13:42:46Z</time>
      </trkpt>
      <trkpt lat="38.319749" lon="-0.731573">
        <ele>242.8</ele>
        <time>2019-12-31T13:42:47Z</time>
      </trkpt>
      <trkpt lat="38.319762" lon="-0.731595">
        <ele>243.2</ele>
        <time>2019-12-31T13:42:48Z</time>
      </trkpt>
      <trkpt lat="38.319793" lon="-0.731635">
        <ele>243.8</ele>
        <time>2019-12-31T13:42:49Z</time>
      </trkpt>
      <trkpt lat="38.319793" lon="-0.731635">
        <ele>244</ele>
        <time>2019-12-31T13:42:50Z</time>
      </trkpt>
      <trkpt lat="38.319815" lon="-0.731694">
        <ele>244.2</ele>
        <time>2019-12-31T13:42:51Z</time>
      </trkpt>
      <trkpt lat="38.319822" lon="-0.731715">
        <ele>244.8</ele>
        <time>2019-12-31T13:42:52Z</time>
      </trkpt>
      <trkpt lat="38.319822" lon="-0.731715">
        <ele>244.8</ele>
        <time>2019-12-31T13:42:53Z</time>
      </trkpt>
      <trkpt lat="38.319851" lon="-0.731761">
        <ele>245</ele>
        <time>2019-12-31T13:42:54Z</time>
      </trkpt>
      <trkpt lat="38.319869" lon="-0.731785">
        <ele>245.2</ele>
        <time>2019-12-31T13:42:55Z</time>
      </trkpt>
      <trkpt lat="38.319869" lon="-0.731785">
        <ele>245.6</ele>
        <time>2019-12-31T13:42:56Z</time>
      </trkpt>
      <trkpt lat="38.319885" lon="-0.731808">
        <ele>245.8</ele>
        <time>2019-12-31T13:42:57Z</time>
      </trkpt>
      <trkpt lat="38.319898" lon="-0.731837">
        <ele>246.2</ele>
        <time>2019-12-31T13:42:58Z</time>
      </trkpt>
      <trkpt lat="38.319938" lon="-0.731888">
        <ele>246.2</ele>
        <time>2019-12-31T13:42:59Z</time>
      </trkpt>
      <trkpt lat="38.319938" lon="-0.731888">
        <ele>246.6</ele>
        <time>2019-12-31T13:43:00Z</time>
      </trkpt>
      <trkpt lat="38.319961" lon="-0.731912">
        <ele>246.6</ele>
        <time>2019-12-31T13:43:01Z</time>
      </trkpt>
      <trkpt lat="38.319987" lon="-0.731938">
        <ele>246.8</ele>
        <time>2019-12-31T13:43:02Z</time>
      </trkpt>
      <trkpt lat="38.320042" lon="-0.731981">
        <ele>247</ele>
        <time>2019-12-31T13:43:03Z</time>
      </trkpt>
      <trkpt lat="38.320042" lon="-0.731981">
        <ele>247.2</ele>
        <time>2019-12-31T13:43:04Z</time>
      </trkpt>
      <trkpt lat="38.320072" lon="-0.731999">
        <ele>247.2</ele>
        <time>2019-12-31T13:43:05Z</time>
      </trkpt>
      <trkpt lat="38.320104" lon="-0.732018">
        <ele>247.4</ele>
        <time>2019-12-31T13:43:06Z</time>
      </trkpt>
      <trkpt lat="38.320133" lon="-0.732041">
        <ele>247.4</ele>
        <time>2019-12-31T13:43:07Z</time>
      </trkpt>
      <trkpt lat="38.320162" lon="-0.732068">
        <ele>247.4</ele>
        <time>2019-12-31T13:43:08Z</time>
      </trkpt>
      <trkpt lat="38.320205" lon="-0.732145">
        <ele>247.2</ele>
        <time>2019-12-31T13:43:09Z</time>
      </trkpt>
      <trkpt lat="38.320232" lon="-0.732191">
        <ele>246.8</ele>
        <time>2019-12-31T13:43:10Z</time>
      </trkpt>
      <trkpt lat="38.320261" lon="-0.732242">
        <ele>246.2</ele>
        <time>2019-12-31T13:43:11Z</time>
      </trkpt>
      <trkpt lat="38.320261" lon="-0.732242">
        <ele>245.2</ele>
        <time>2019-12-31T13:43:12Z</time>
      </trkpt>
      <trkpt lat="38.320290" lon="-0.732303">
        <ele>244.8</ele>
        <time>2019-12-31T13:43:13Z</time>
      </trkpt>
      <trkpt lat="38.320339" lon="-0.732450">
        <ele>244.6</ele>
        <time>2019-12-31T13:43:14Z</time>
      </trkpt>
      <trkpt lat="38.320339" lon="-0.732450">
        <ele>244</ele>
        <time>2019-12-31T13:43:15Z</time>
      </trkpt>
      <trkpt lat="38.320355" lon="-0.732535">
        <ele>244</ele>
        <time>2019-12-31T13:43:16Z</time>
      </trkpt>
      <trkpt lat="38.320360" lon="-0.732623">
        <ele>243.8</ele>
        <time>2019-12-31T13:43:17Z</time>
      </trkpt>
      <trkpt lat="38.320357" lon="-0.732713">
        <ele>244</ele>
        <time>2019-12-31T13:43:18Z</time>
      </trkpt>
      <trkpt lat="38.320355" lon="-0.732805">
        <ele>244</ele>
        <time>2019-12-31T13:43:19Z</time>
      </trkpt>
      <trkpt lat="38.320353" lon="-0.732893">
        <ele>244</ele>
        <time>2019-12-31T13:43:20Z</time>
      </trkpt>
      <trkpt lat="38.320356" lon="-0.732978">
        <ele>244</ele>
        <time>2019-12-31T13:43:21Z</time>
      </trkpt>
      <trkpt lat="38.320369" lon="-0.733060">
        <ele>244.6</ele>
        <time>2019-12-31T13:43:22Z</time>
      </trkpt>
      <trkpt lat="38.320389" lon="-0.733134">
        <ele>244.6</ele>
        <time>2019-12-31T13:43:23Z</time>
      </trkpt>
      <trkpt lat="38.320410" lon="-0.733204">
        <ele>244.8</ele>
        <time>2019-12-31T13:43:24Z</time>
      </trkpt>
      <trkpt lat="38.320436" lon="-0.733267">
        <ele>244.8</ele>
        <time>2019-12-31T13:43:25Z</time>
      </trkpt>
      <trkpt lat="38.320497" lon="-0.733386">
        <ele>245</ele>
        <time>2019-12-31T13:43:26Z</time>
      </trkpt>
      <trkpt lat="38.320528" lon="-0.733443">
        <ele>245.2</ele>
        <time>2019-12-31T13:43:27Z</time>
      </trkpt>
      <trkpt lat="38.320556" lon="-0.733492">
        <ele>245.8</ele>
        <time>2019-12-31T13:43:28Z</time>
      </trkpt>
      <trkpt lat="38.320556" lon="-0.733492">
        <ele>246.4</ele>
        <time>2019-12-31T13:43:29Z</time>
      </trkpt>
      <trkpt lat="38.320586" lon="-0.733593">
        <ele>246.8</ele>
        <time>2019-12-31T13:43:30Z</time>
      </trkpt>
      <trkpt lat="38.320586" lon="-0.733593">
        <ele>247</ele>
        <time>2019-12-31T13:43:31Z</time>
      </trkpt>
      <trkpt lat="38.320593" lon="-0.733644">
        <ele>247.4</ele>
        <time>2019-12-31T13:43:32Z</time>
      </trkpt>
      <trkpt lat="38.320597" lon="-0.733746">
        <ele>247.6</ele>
        <time>2019-12-31T13:43:33Z</time>
      </trkpt>
      <trkpt lat="38.320595" lon="-0.733800">
        <ele>248</ele>
        <time>2019-12-31T13:43:34Z</time>
      </trkpt>
      <trkpt lat="38.320589" lon="-0.733856">
        <ele>248</ele>
        <time>2019-12-31T13:43:35Z</time>
      </trkpt>
      <trkpt lat="38.320589" lon="-0.733856">
        <ele>248.4</ele>
        <time>2019-12-31T13:43:36Z</time>
      </trkpt>
      <trkpt lat="38.320579" lon="-0.733968">
        <ele>248.6</ele>
        <time>2019-12-31T13:43:37Z</time>
      </trkpt>
      <trkpt lat="38.320579" lon="-0.733968">
        <ele>248.6</ele>
        <time>2019-12-31T13:43:38Z</time>
      </trkpt>
      <trkpt lat="38.320573" lon="-0.734026">
        <ele>248.8</ele>
        <time>2019-12-31T13:43:39Z</time>
      </trkpt>
      <trkpt lat="38.320554" lon="-0.734144">
        <ele>248.8</ele>
        <time>2019-12-31T13:43:40Z</time>
      </trkpt>
      <trkpt lat="38.320554" lon="-0.734144">
        <ele>249.2</ele>
        <time>2019-12-31T13:43:41Z</time>
      </trkpt>
      <trkpt lat="38.320542" lon="-0.734203">
        <ele>249.4</ele>
        <time>2019-12-31T13:43:42Z</time>
      </trkpt>
      <trkpt lat="38.320519" lon="-0.734318">
        <ele>249.6</ele>
        <time>2019-12-31T13:43:43Z</time>
      </trkpt>
      <trkpt lat="38.320519" lon="-0.734318">
        <ele>249.8</ele>
        <time>2019-12-31T13:43:44Z</time>
      </trkpt>
      <trkpt lat="38.320506" lon="-0.734375">
        <ele>249.8</ele>
        <time>2019-12-31T13:43:45Z</time>
      </trkpt>
      <trkpt lat="38.320492" lon="-0.734430">
        <ele>249.8</ele>
        <time>2019-12-31T13:43:46Z</time>
      </trkpt>
      <trkpt lat="38.320452" lon="-0.734559">
        <ele>249.2</ele>
        <time>2019-12-31T13:43:47Z</time>
      </trkpt>
      <trkpt lat="38.320452" lon="-0.734559">
        <ele>248.6</ele>
        <time>2019-12-31T13:43:48Z</time>
      </trkpt>
      <trkpt lat="38.320451" lon="-0.734716">
        <ele>247.8</ele>
        <time>2019-12-31T13:43:49Z</time>
      </trkpt>
      <trkpt lat="38.320451" lon="-0.734716">
        <ele>247.8</ele>
        <time>2019-12-31T13:43:50Z</time>
      </trkpt>
      <trkpt lat="38.320474" lon="-0.734789">
        <ele>248.4</ele>
        <time>2019-12-31T13:43:51Z</time>
      </trkpt>
      <trkpt lat="38.320506" lon="-0.734846">
        <ele>248.6</ele>
        <time>2019-12-31T13:43:52Z</time>
      </trkpt>
      <trkpt lat="38.320544" lon="-0.734886">
        <ele>249</ele>
        <time>2019-12-31T13:43:53Z</time>
      </trkpt>
      <trkpt lat="38.320584" lon="-0.734922">
        <ele>249.2</ele>
        <time>2019-12-31T13:43:54Z</time>
      </trkpt>
      <trkpt lat="38.320675" lon="-0.734972">
        <ele>249.2</ele>
        <time>2019-12-31T13:43:55Z</time>
      </trkpt>
      <trkpt lat="38.320675" lon="-0.734972">
        <ele>249</ele>
        <time>2019-12-31T13:43:56Z</time>
      </trkpt>
      <trkpt lat="38.320726" lon="-0.734975">
        <ele>249</ele>
        <time>2019-12-31T13:43:57Z</time>
      </trkpt>
      <trkpt lat="38.320779" lon="-0.734971">
        <ele>248.8</ele>
        <time>2019-12-31T13:43:58Z</time>
      </trkpt>
      <trkpt lat="38.320836" lon="-0.734960">
        <ele>248.6</ele>
        <time>2019-12-31T13:43:59Z</time>
      </trkpt>
      <trkpt lat="38.320897" lon="-0.734943">
        <ele>248.2</ele>
        <time>2019-12-31T13:44:00Z</time>
      </trkpt>
      <trkpt lat="38.320961" lon="-0.734922">
        <ele>247.8</ele>
        <time>2019-12-31T13:44:01Z</time>
      </trkpt>
      <trkpt lat="38.321096" lon="-0.734886">
        <ele>247.4</ele>
        <time>2019-12-31T13:44:02Z</time>
      </trkpt>
      <trkpt lat="38.321096" lon="-0.734886">
        <ele>246.4</ele>
        <time>2019-12-31T13:44:03Z</time>
      </trkpt>
      <trkpt lat="38.321169" lon="-0.734872">
        <ele>245.6</ele>
        <time>2019-12-31T13:44:04Z</time>
      </trkpt>
      <trkpt lat="38.321319" lon="-0.734812">
        <ele>243.8</ele>
        <time>2019-12-31T13:44:05Z</time>
      </trkpt>
      <trkpt lat="38.321319" lon="-0.734812">
        <ele>242.2</ele>
        <time>2019-12-31T13:44:06Z</time>
      </trkpt>
      <trkpt lat="38.321374" lon="-0.734741">
        <ele>240.4</ele>
        <time>2019-12-31T13:44:07Z</time>
      </trkpt>
      <trkpt lat="38.321426" lon="-0.734656">
        <ele>238.6</ele>
        <time>2019-12-31T13:44:08Z</time>
      </trkpt>
      <trkpt lat="38.321487" lon="-0.734417">
        <ele>236.2</ele>
        <time>2019-12-31T13:44:09Z</time>
      </trkpt>
      <trkpt lat="38.321523" lon="-0.734279">
        <ele>234.2</ele>
        <time>2019-12-31T13:44:10Z</time>
      </trkpt>
      <trkpt lat="38.321572" lon="-0.734147">
        <ele>232.8</ele>
        <time>2019-12-31T13:44:11Z</time>
      </trkpt>
      <trkpt lat="38.321640" lon="-0.734033">
        <ele>232.4</ele>
        <time>2019-12-31T13:44:12Z</time>
      </trkpt>
      <trkpt lat="38.321640" lon="-0.734033">
        <ele>232</ele>
        <time>2019-12-31T13:44:13Z</time>
      </trkpt>
      <trkpt lat="38.321709" lon="-0.733931">
        <ele>232.2</ele>
        <time>2019-12-31T13:44:14Z</time>
      </trkpt>
      <trkpt lat="38.321832" lon="-0.733732">
        <ele>232.6</ele>
        <time>2019-12-31T13:44:15Z</time>
      </trkpt>
      <trkpt lat="38.321886" lon="-0.733656">
        <ele>233.8</ele>
        <time>2019-12-31T13:44:16Z</time>
      </trkpt>
      <trkpt lat="38.321931" lon="-0.733602">
        <ele>235</ele>
        <time>2019-12-31T13:44:17Z</time>
      </trkpt>
      <trkpt lat="38.321965" lon="-0.733558">
        <ele>236</ele>
        <time>2019-12-31T13:44:18Z</time>
      </trkpt>
      <trkpt lat="38.322001" lon="-0.733529">
        <ele>236.8</ele>
        <time>2019-12-31T13:44:19Z</time>
      </trkpt>
      <trkpt lat="38.322001" lon="-0.733529">
        <ele>237.8</ele>
        <time>2019-12-31T13:44:20Z</time>
      </trkpt>
      <trkpt lat="38.322034" lon="-0.733504">
        <ele>238.2</ele>
        <time>2019-12-31T13:44:21Z</time>
      </trkpt>
      <trkpt lat="38.322059" lon="-0.733484">
        <ele>238.8</ele>
        <time>2019-12-31T13:44:22Z</time>
      </trkpt>
      <trkpt lat="38.322074" lon="-0.733467">
        <ele>239.4</ele>
        <time>2019-12-31T13:44:23Z</time>
      </trkpt>
      <trkpt lat="38.322107" lon="-0.733427">
        <ele>240</ele>
        <time>2019-12-31T13:44:24Z</time>
      </trkpt>
      <trkpt lat="38.322122" lon="-0.733401">
        <ele>240.2</ele>
        <time>2019-12-31T13:44:25Z</time>
      </trkpt>
      <trkpt lat="38.322141" lon="-0.733374">
        <ele>240.6</ele>
        <time>2019-12-31T13:44:26Z</time>
      </trkpt>
      <trkpt lat="38.322141" lon="-0.733374">
        <ele>241</ele>
        <time>2019-12-31T13:44:27Z</time>
      </trkpt>
      <trkpt lat="38.322161" lon="-0.733348">
        <ele>241.2</ele>
        <time>2019-12-31T13:44:28Z</time>
      </trkpt>
      <trkpt lat="38.322206" lon="-0.733303">
        <ele>241.8</ele>
        <time>2019-12-31T13:44:29Z</time>
      </trkpt>
      <trkpt lat="38.322206" lon="-0.733303">
        <ele>242.2</ele>
        <time>2019-12-31T13:44:30Z</time>
      </trkpt>
      <trkpt lat="38.322254" lon="-0.733271">
        <ele>242.6</ele>
        <time>2019-12-31T13:44:31Z</time>
      </trkpt>
      <trkpt lat="38.322254" lon="-0.733271">
        <ele>242.8</ele>
        <time>2019-12-31T13:44:32Z</time>
      </trkpt>
      <trkpt lat="38.322313" lon="-0.733245">
        <ele>243</ele>
        <time>2019-12-31T13:44:33Z</time>
      </trkpt>
      <trkpt lat="38.322313" lon="-0.733245">
        <ele>243</ele>
        <time>2019-12-31T13:44:34Z</time>
      </trkpt>
      <trkpt lat="38.322377" lon="-0.733264">
        <ele>243.4</ele>
        <time>2019-12-31T13:44:35Z</time>
      </trkpt>
      <trkpt lat="38.322401" lon="-0.733292">
        <ele>243.6</ele>
        <time>2019-12-31T13:44:36Z</time>
      </trkpt>
      <trkpt lat="38.322415" lon="-0.733327">
        <ele>244.2</ele>
        <time>2019-12-31T13:44:37Z</time>
      </trkpt>
      <trkpt lat="38.322415" lon="-0.733327">
        <ele>244.4</ele>
        <time>2019-12-31T13:44:38Z</time>
      </trkpt>
      <trkpt lat="38.322392" lon="-0.733403">
        <ele>244.4</ele>
        <time>2019-12-31T13:44:39Z</time>
      </trkpt>
      <trkpt lat="38.322374" lon="-0.733440">
        <ele>244.6</ele>
        <time>2019-12-31T13:44:40Z</time>
      </trkpt>
      <trkpt lat="38.322374" lon="-0.733440">
        <ele>244.8</ele>
        <time>2019-12-31T13:44:41Z</time>
      </trkpt>
      <trkpt lat="38.322348" lon="-0.733471">
        <ele>244.8</ele>
        <time>2019-12-31T13:44:42Z</time>
      </trkpt>
      <trkpt lat="38.322293" lon="-0.733537">
        <ele>245</ele>
        <time>2019-12-31T13:44:43Z</time>
      </trkpt>
      <trkpt lat="38.322293" lon="-0.733537">
        <ele>245.2</ele>
        <time>2019-12-31T13:44:44Z</time>
      </trkpt>
      <trkpt lat="38.322268" lon="-0.733577">
        <ele>245.4</ele>
        <time>2019-12-31T13:44:45Z</time>
      </trkpt>
      <trkpt lat="38.322246" lon="-0.733622">
        <ele>245.4</ele>
        <time>2019-12-31T13:44:46Z</time>
      </trkpt>
      <trkpt lat="38.322226" lon="-0.733671">
        <ele>245.6</ele>
        <time>2019-12-31T13:44:47Z</time>
      </trkpt>
      <trkpt lat="38.322206" lon="-0.733719">
        <ele>245.8</ele>
        <time>2019-12-31T13:44:48Z</time>
      </trkpt>
      <trkpt lat="38.322168" lon="-0.733818">
        <ele>245.8</ele>
        <time>2019-12-31T13:44:49Z</time>
      </trkpt>
      <trkpt lat="38.322168" lon="-0.733818">
        <ele>246</ele>
        <time>2019-12-31T13:44:50Z</time>
      </trkpt>
      <trkpt lat="38.322166" lon="-0.733872">
        <ele>246.2</ele>
        <time>2019-12-31T13:44:51Z</time>
      </trkpt>
      <trkpt lat="38.322176" lon="-0.733994">
        <ele>246.2</ele>
        <time>2019-12-31T13:44:52Z</time>
      </trkpt>
      <trkpt lat="38.322176" lon="-0.733994">
        <ele>246.2</ele>
        <time>2019-12-31T13:44:53Z</time>
      </trkpt>
      <trkpt lat="38.322200" lon="-0.734108">
        <ele>246.2</ele>
        <time>2019-12-31T13:44:54Z</time>
      </trkpt>
      <trkpt lat="38.322200" lon="-0.734108">
        <ele>246.6</ele>
        <time>2019-12-31T13:44:55Z</time>
      </trkpt>
      <trkpt lat="38.322215" lon="-0.734160">
        <ele>246.6</ele>
        <time>2019-12-31T13:44:56Z</time>
      </trkpt>
      <trkpt lat="38.322257" lon="-0.734266">
        <ele>246.6</ele>
        <time>2019-12-31T13:44:57Z</time>
      </trkpt>
      <trkpt lat="38.322257" lon="-0.734266">
        <ele>246.4</ele>
        <time>2019-12-31T13:44:58Z</time>
      </trkpt>
      <trkpt lat="38.322277" lon="-0.734323">
        <ele>246.2</ele>
        <time>2019-12-31T13:44:59Z</time>
      </trkpt>
      <trkpt lat="38.322322" lon="-0.734445">
        <ele>246.2</ele>
        <time>2019-12-31T13:45:00Z</time>
      </trkpt>
      <trkpt lat="38.322350" lon="-0.734504">
        <ele>246.2</ele>
        <time>2019-12-31T13:45:01Z</time>
      </trkpt>
      <trkpt lat="38.322383" lon="-0.734558">
        <ele>246.2</ele>
        <time>2019-12-31T13:45:02Z</time>
      </trkpt>
      <trkpt lat="38.322383" lon="-0.734558">
        <ele>246.2</ele>
        <time>2019-12-31T13:45:03Z</time>
      </trkpt>
      <trkpt lat="38.322421" lon="-0.734609">
        <ele>246</ele>
        <time>2019-12-31T13:45:04Z</time>
      </trkpt>
      <trkpt lat="38.322509" lon="-0.734694">
        <ele>246.2</ele>
        <time>2019-12-31T13:45:05Z</time>
      </trkpt>
      <trkpt lat="38.322557" lon="-0.734731">
        <ele>246.4</ele>
        <time>2019-12-31T13:45:06Z</time>
      </trkpt>
      <trkpt lat="38.322607" lon="-0.734763">
        <ele>246.2</ele>
        <time>2019-12-31T13:45:07Z</time>
      </trkpt>
      <trkpt lat="38.322607" lon="-0.734763">
        <ele>246.6</ele>
        <time>2019-12-31T13:45:08Z</time>
      </trkpt>
      <trkpt lat="38.322659" lon="-0.734787">
        <ele>246.8</ele>
        <time>2019-12-31T13:45:09Z</time>
      </trkpt>
      <trkpt lat="38.322752" lon="-0.734771">
        <ele>247.2</ele>
        <time>2019-12-31T13:45:10Z</time>
      </trkpt>
      <trkpt lat="38.322785" lon="-0.734738">
        <ele>247.6</ele>
        <time>2019-12-31T13:45:11Z</time>
      </trkpt>
      <trkpt lat="38.322808" lon="-0.734692">
        <ele>247.8</ele>
        <time>2019-12-31T13:45:12Z</time>
      </trkpt>
      <trkpt lat="38.322819" lon="-0.734634">
        <ele>247.8</ele>
        <time>2019-12-31T13:45:13Z</time>
      </trkpt>
      <trkpt lat="38.322819" lon="-0.734634">
        <ele>247.6</ele>
        <time>2019-12-31T13:45:14Z</time>
      </trkpt>
      <trkpt lat="38.322824" lon="-0.734502">
        <ele>247.4</ele>
        <time>2019-12-31T13:45:15Z</time>
      </trkpt>
      <trkpt lat="38.322831" lon="-0.734430">
        <ele>247</ele>
        <time>2019-12-31T13:45:16Z</time>
      </trkpt>
      <trkpt lat="38.322835" lon="-0.734354">
        <ele>246.8</ele>
        <time>2019-12-31T13:45:17Z</time>
      </trkpt>
      <trkpt lat="38.322835" lon="-0.734354">
        <ele>246</ele>
        <time>2019-12-31T13:45:18Z</time>
      </trkpt>
      <trkpt lat="38.322846" lon="-0.734272">
        <ele>245.6</ele>
        <time>2019-12-31T13:45:19Z</time>
      </trkpt>
      <trkpt lat="38.322864" lon="-0.734185">
        <ele>245.2</ele>
        <time>2019-12-31T13:45:20Z</time>
      </trkpt>
      <trkpt lat="38.322916" lon="-0.734013">
        <ele>244.8</ele>
        <time>2019-12-31T13:45:21Z</time>
      </trkpt>
      <trkpt lat="38.322949" lon="-0.733942">
        <ele>244.6</ele>
        <time>2019-12-31T13:45:22Z</time>
      </trkpt>
      <trkpt lat="38.322988" lon="-0.733891">
        <ele>244.2</ele>
        <time>2019-12-31T13:45:23Z</time>
      </trkpt>
      <trkpt lat="38.323032" lon="-0.733865">
        <ele>243.8</ele>
        <time>2019-12-31T13:45:24Z</time>
      </trkpt>
      <trkpt lat="38.323032" lon="-0.733865">
        <ele>243.2</ele>
        <time>2019-12-31T13:45:25Z</time>
      </trkpt>
      <trkpt lat="38.323084" lon="-0.733862">
        <ele>243.2</ele>
        <time>2019-12-31T13:45:26Z</time>
      </trkpt>
      <trkpt lat="38.323194" lon="-0.733888">
        <ele>242.8</ele>
        <time>2019-12-31T13:45:27Z</time>
      </trkpt>
      <trkpt lat="38.323251" lon="-0.733904">
        <ele>242.8</ele>
        <time>2019-12-31T13:45:28Z</time>
      </trkpt>
      <trkpt lat="38.323251" lon="-0.733904">
        <ele>242.8</ele>
        <time>2019-12-31T13:45:29Z</time>
      </trkpt>
      <trkpt lat="38.323310" lon="-0.733919">
        <ele>242.8</ele>
        <time>2019-12-31T13:45:30Z</time>
      </trkpt>
      <trkpt lat="38.323371" lon="-0.733934">
        <ele>242.8</ele>
        <time>2019-12-31T13:45:31Z</time>
      </trkpt>
      <trkpt lat="38.323435" lon="-0.733938">
        <ele>242.8</ele>
        <time>2019-12-31T13:45:32Z</time>
      </trkpt>
      <trkpt lat="38.323562" lon="-0.733903">
        <ele>242.8</ele>
        <time>2019-12-31T13:45:33Z</time>
      </trkpt>
      <trkpt lat="38.323562" lon="-0.733903">
        <ele>243</ele>
        <time>2019-12-31T13:45:34Z</time>
      </trkpt>
      <trkpt lat="38.323620" lon="-0.733867">
        <ele>243.4</ele>
        <time>2019-12-31T13:45:35Z</time>
      </trkpt>
      <trkpt lat="38.323673" lon="-0.733825">
        <ele>243.2</ele>
        <time>2019-12-31T13:45:36Z</time>
      </trkpt>
      <trkpt lat="38.323726" lon="-0.733785">
        <ele>243.2</ele>
        <time>2019-12-31T13:45:37Z</time>
      </trkpt>
      <trkpt lat="38.323782" lon="-0.733748">
        <ele>243</ele>
        <time>2019-12-31T13:45:38Z</time>
      </trkpt>
      <trkpt lat="38.323842" lon="-0.733713">
        <ele>242.6</ele>
        <time>2019-12-31T13:45:39Z</time>
      </trkpt>
      <trkpt lat="38.323977" lon="-0.733647">
        <ele>242.2</ele>
        <time>2019-12-31T13:45:40Z</time>
      </trkpt>
      <trkpt lat="38.324048" lon="-0.733611">
        <ele>241.8</ele>
        <time>2019-12-31T13:45:41Z</time>
      </trkpt>
      <trkpt lat="38.324048" lon="-0.733611">
        <ele>241.8</ele>
        <time>2019-12-31T13:45:42Z</time>
      </trkpt>
      <trkpt lat="38.324118" lon="-0.733570">
        <ele>241.6</ele>
        <time>2019-12-31T13:45:43Z</time>
      </trkpt>
      <trkpt lat="38.324250" lon="-0.733482">
        <ele>242</ele>
        <time>2019-12-31T13:45:44Z</time>
      </trkpt>
      <trkpt lat="38.324250" lon="-0.733482">
        <ele>242.4</ele>
        <time>2019-12-31T13:45:45Z</time>
      </trkpt>
      <trkpt lat="38.324308" lon="-0.733440">
        <ele>243</ele>
        <time>2019-12-31T13:45:46Z</time>
      </trkpt>
      <trkpt lat="38.324354" lon="-0.733399">
        <ele>244</ele>
        <time>2019-12-31T13:45:47Z</time>
      </trkpt>
      <trkpt lat="38.324393" lon="-0.733358">
        <ele>244.8</ele>
        <time>2019-12-31T13:45:48Z</time>
      </trkpt>
      <trkpt lat="38.324428" lon="-0.733321">
        <ele>245.2</ele>
        <time>2019-12-31T13:45:49Z</time>
      </trkpt>
      <trkpt lat="38.324459" lon="-0.733286">
        <ele>245.8</ele>
        <time>2019-12-31T13:45:50Z</time>
      </trkpt>
      <trkpt lat="38.324486" lon="-0.733257">
        <ele>246.2</ele>
        <time>2019-12-31T13:45:51Z</time>
      </trkpt>
      <trkpt lat="38.324536" lon="-0.733196">
        <ele>246.8</ele>
        <time>2019-12-31T13:45:52Z</time>
      </trkpt>
      <trkpt lat="38.324536" lon="-0.733196">
        <ele>247.2</ele>
        <time>2019-12-31T13:45:53Z</time>
      </trkpt>
      <trkpt lat="38.324575" lon="-0.733124">
        <ele>247.8</ele>
        <time>2019-12-31T13:45:54Z</time>
      </trkpt>
      <trkpt lat="38.324594" lon="-0.733091">
        <ele>248.2</ele>
        <time>2019-12-31T13:45:55Z</time>
      </trkpt>
      <trkpt lat="38.324594" lon="-0.733091">
        <ele>248.6</ele>
        <time>2019-12-31T13:45:56Z</time>
      </trkpt>
      <trkpt lat="38.324615" lon="-0.733055">
        <ele>249.4</ele>
        <time>2019-12-31T13:45:57Z</time>
      </trkpt>
      <trkpt lat="38.324635" lon="-0.733025">
        <ele>249.8</ele>
        <time>2019-12-31T13:45:58Z</time>
      </trkpt>
      <trkpt lat="38.324659" lon="-0.732996">
        <ele>250.2</ele>
        <time>2019-12-31T13:45:59Z</time>
      </trkpt>
      <trkpt lat="38.324678" lon="-0.732963">
        <ele>250.8</ele>
        <time>2019-12-31T13:46:00Z</time>
      </trkpt>
      <trkpt lat="38.324695" lon="-0.732930">
        <ele>251.2</ele>
        <time>2019-12-31T13:46:01Z</time>
      </trkpt>
      <trkpt lat="38.324711" lon="-0.732898">
        <ele>251.6</ele>
        <time>2019-12-31T13:46:02Z</time>
      </trkpt>
      <trkpt lat="38.324736" lon="-0.732866">
        <ele>252.2</ele>
        <time>2019-12-31T13:46:03Z</time>
      </trkpt>
      <trkpt lat="38.324770" lon="-0.732799">
        <ele>252.4</ele>
        <time>2019-12-31T13:46:04Z</time>
      </trkpt>
      <trkpt lat="38.324770" lon="-0.732799">
        <ele>252.4</ele>
        <time>2019-12-31T13:46:05Z</time>
      </trkpt>
      <trkpt lat="38.324790" lon="-0.732712">
        <ele>252</ele>
        <time>2019-12-31T13:46:06Z</time>
      </trkpt>
      <trkpt lat="38.324785" lon="-0.732649">
        <ele>251.4</ele>
        <time>2019-12-31T13:46:07Z</time>
      </trkpt>
      <trkpt lat="38.324772" lon="-0.732574">
        <ele>250.6</ele>
        <time>2019-12-31T13:46:08Z</time>
      </trkpt>
      <trkpt lat="38.324772" lon="-0.732574">
        <ele>249.8</ele>
        <time>2019-12-31T13:46:09Z</time>
      </trkpt>
      <trkpt lat="38.324742" lon="-0.732491">
        <ele>248</ele>
        <time>2019-12-31T13:46:10Z</time>
      </trkpt>
      <trkpt lat="38.324705" lon="-0.732402">
        <ele>246.2</ele>
        <time>2019-12-31T13:46:11Z</time>
      </trkpt>
      <trkpt lat="38.324627" lon="-0.732180">
        <ele>244.2</ele>
        <time>2019-12-31T13:46:12Z</time>
      </trkpt>
      <trkpt lat="38.324578" lon="-0.732056">
        <ele>242.6</ele>
        <time>2019-12-31T13:46:13Z</time>
      </trkpt>
      <trkpt lat="38.324529" lon="-0.731927">
        <ele>241.2</ele>
        <time>2019-12-31T13:46:14Z</time>
      </trkpt>
      <trkpt lat="38.324529" lon="-0.731927">
        <ele>239.8</ele>
        <time>2019-12-31T13:46:15Z</time>
      </trkpt>
      <trkpt lat="38.324482" lon="-0.731794">
        <ele>238.8</ele>
        <time>2019-12-31T13:46:16Z</time>
      </trkpt>
      <trkpt lat="38.324440" lon="-0.731658">
        <ele>238.4</ele>
        <time>2019-12-31T13:46:17Z</time>
      </trkpt>
      <trkpt lat="38.324415" lon="-0.731374">
        <ele>237.8</ele>
        <time>2019-12-31T13:46:18Z</time>
      </trkpt>
      <trkpt lat="38.324415" lon="-0.731374">
        <ele>237.6</ele>
        <time>2019-12-31T13:46:19Z</time>
      </trkpt>
      <trkpt lat="38.324417" lon="-0.731100">
        <ele>237.2</ele>
        <time>2019-12-31T13:46:20Z</time>
      </trkpt>
      <trkpt lat="38.324417" lon="-0.731100">
        <ele>237.2</ele>
        <time>2019-12-31T13:46:21Z</time>
      </trkpt>
      <trkpt lat="38.324425" lon="-0.730971">
        <ele>237</ele>
        <time>2019-12-31T13:46:22Z</time>
      </trkpt>
      <trkpt lat="38.324435" lon="-0.730847">
        <ele>236.8</ele>
        <time>2019-12-31T13:46:23Z</time>
      </trkpt>
      <trkpt lat="38.324449" lon="-0.730727">
        <ele>237.2</ele>
        <time>2019-12-31T13:46:24Z</time>
      </trkpt>
      <trkpt lat="38.324482" lon="-0.730497">
        <ele>237</ele>
        <time>2019-12-31T13:46:25Z</time>
      </trkpt>
      <trkpt lat="38.324482" lon="-0.730497">
        <ele>236.8</ele>
        <time>2019-12-31T13:46:26Z</time>
      </trkpt>
      <trkpt lat="38.324501" lon="-0.730386">
        <ele>236.6</ele>
        <time>2019-12-31T13:46:27Z</time>
      </trkpt>
      <trkpt lat="38.324520" lon="-0.730277">
        <ele>236.8</ele>
        <time>2019-12-31T13:46:28Z</time>
      </trkpt>
      <trkpt lat="38.324541" lon="-0.730172">
        <ele>237</ele>
        <time>2019-12-31T13:46:29Z</time>
      </trkpt>
      <trkpt lat="38.324561" lon="-0.729969">
        <ele>237</ele>
        <time>2019-12-31T13:46:30Z</time>
      </trkpt>
      <trkpt lat="38.324544" lon="-0.729875">
        <ele>237</ele>
        <time>2019-12-31T13:46:31Z</time>
      </trkpt>
      <trkpt lat="38.324544" lon="-0.729875">
        <ele>236.8</ele>
        <time>2019-12-31T13:46:32Z</time>
      </trkpt>
      <trkpt lat="38.324504" lon="-0.729797">
        <ele>236.8</ele>
        <time>2019-12-31T13:46:33Z</time>
      </trkpt>
      <trkpt lat="38.324455" lon="-0.729734">
        <ele>236.4</ele>
        <time>2019-12-31T13:46:34Z</time>
      </trkpt>
      <trkpt lat="38.324357" lon="-0.729620">
        <ele>235.4</ele>
        <time>2019-12-31T13:46:35Z</time>
      </trkpt>
      <trkpt lat="38.324357" lon="-0.729620">
        <ele>234.2</ele>
        <time>2019-12-31T13:46:36Z</time>
      </trkpt>
      <trkpt lat="38.324331" lon="-0.729539">
        <ele>233</ele>
        <time>2019-12-31T13:46:37Z</time>
      </trkpt>
      <trkpt lat="38.324325" lon="-0.729444">
        <ele>231.6</ele>
        <time>2019-12-31T13:46:38Z</time>
      </trkpt>
      <trkpt lat="38.324353" lon="-0.729233">
        <ele>230</ele>
        <time>2019-12-31T13:46:39Z</time>
      </trkpt>
      <trkpt lat="38.324353" lon="-0.729233">
        <ele>228.8</ele>
        <time>2019-12-31T13:46:40Z</time>
      </trkpt>
      <trkpt lat="38.324366" lon="-0.729134">
        <ele>228.2</ele>
        <time>2019-12-31T13:46:41Z</time>
      </trkpt>
      <trkpt lat="38.324380" lon="-0.729062">
        <ele>227.6</ele>
        <time>2019-12-31T13:46:42Z</time>
      </trkpt>
      <trkpt lat="38.324439" lon="-0.728993">
        <ele>227.4</ele>
        <time>2019-12-31T13:46:43Z</time>
      </trkpt>
      <trkpt lat="38.324439" lon="-0.728993">
        <ele>227</ele>
        <time>2019-12-31T13:46:44Z</time>
      </trkpt>
      <trkpt lat="38.324512" lon="-0.729017">
        <ele>227</ele>
        <time>2019-12-31T13:46:45Z</time>
      </trkpt>
      <trkpt lat="38.324538" lon="-0.729054">
        <ele>227</ele>
        <time>2019-12-31T13:46:46Z</time>
      </trkpt>
      <trkpt lat="38.324538" lon="-0.729054">
        <ele>226.8</ele>
        <time>2019-12-31T13:46:47Z</time>
      </trkpt>
      <trkpt lat="38.324556" lon="-0.729102">
        <ele>226.8</ele>
        <time>2019-12-31T13:46:48Z</time>
      </trkpt>
      <trkpt lat="38.324572" lon="-0.729157">
        <ele>227.2</ele>
        <time>2019-12-31T13:46:49Z</time>
      </trkpt>
      <trkpt lat="38.324588" lon="-0.729215">
        <ele>227.2</ele>
        <time>2019-12-31T13:46:50Z</time>
      </trkpt>
      <trkpt lat="38.324605" lon="-0.729279">
        <ele>227.6</ele>
        <time>2019-12-31T13:46:51Z</time>
      </trkpt>
      <trkpt lat="38.324616" lon="-0.729344">
        <ele>227.6</ele>
        <time>2019-12-31T13:46:52Z</time>
      </trkpt>
      <trkpt lat="38.324631" lon="-0.729411">
        <ele>227.2</ele>
        <time>2019-12-31T13:46:53Z</time>
      </trkpt>
      <trkpt lat="38.324653" lon="-0.729477">
        <ele>226.8</ele>
        <time>2019-12-31T13:46:54Z</time>
      </trkpt>
      <trkpt lat="38.324721" lon="-0.729601">
        <ele>226.4</ele>
        <time>2019-12-31T13:46:55Z</time>
      </trkpt>
      <trkpt lat="38.324721" lon="-0.729601">
        <ele>226.4</ele>
        <time>2019-12-31T13:46:56Z</time>
      </trkpt>
      <trkpt lat="38.324773" lon="-0.729650">
        <ele>226.2</ele>
        <time>2019-12-31T13:46:57Z</time>
      </trkpt>
      <trkpt lat="38.324834" lon="-0.729680">
        <ele>225.8</ele>
        <time>2019-12-31T13:46:58Z</time>
      </trkpt>
      <trkpt lat="38.324902" lon="-0.729687">
        <ele>224.8</ele>
        <time>2019-12-31T13:46:59Z</time>
      </trkpt>
      <trkpt lat="38.324973" lon="-0.729669">
        <ele>224.2</ele>
        <time>2019-12-31T13:47:00Z</time>
      </trkpt>
      <trkpt lat="38.325048" lon="-0.729637">
        <ele>222.6</ele>
        <time>2019-12-31T13:47:01Z</time>
      </trkpt>
      <trkpt lat="38.325131" lon="-0.729605">
        <ele>221.2</ele>
        <time>2019-12-31T13:47:02Z</time>
      </trkpt>
      <trkpt lat="38.325203" lon="-0.729580">
        <ele>220.2</ele>
        <time>2019-12-31T13:47:03Z</time>
      </trkpt>
      <trkpt lat="38.325260" lon="-0.729560">
        <ele>219.2</ele>
        <time>2019-12-31T13:47:04Z</time>
      </trkpt>
      <trkpt lat="38.325298" lon="-0.729541">
        <ele>218.8</ele>
        <time>2019-12-31T13:47:05Z</time>
      </trkpt>
      <trkpt lat="38.325316" lon="-0.729515">
        <ele>218.6</ele>
        <time>2019-12-31T13:47:06Z</time>
      </trkpt>
      <trkpt lat="38.325317" lon="-0.729483">
        <ele>218.6</ele>
        <time>2019-12-31T13:47:07Z</time>
      </trkpt>
      <trkpt lat="38.325305" lon="-0.729451">
        <ele>218.6</ele>
        <time>2019-12-31T13:47:08Z</time>
      </trkpt>
      <trkpt lat="38.325285" lon="-0.729420">
        <ele>218.6</ele>
        <time>2019-12-31T13:47:09Z</time>
      </trkpt>
      <trkpt lat="38.325260" lon="-0.729394">
        <ele>218.2</ele>
        <time>2019-12-31T13:47:10Z</time>
      </trkpt>
      <trkpt lat="38.325229" lon="-0.729380">
        <ele>218.2</ele>
        <time>2019-12-31T13:47:11Z</time>
      </trkpt>
      <trkpt lat="38.325189" lon="-0.729366">
        <ele>218.2</ele>
        <time>2019-12-31T13:47:12Z</time>
      </trkpt>
      <trkpt lat="38.325146" lon="-0.729352">
        <ele>218</ele>
        <time>2019-12-31T13:47:13Z</time>
      </trkpt>
      <trkpt lat="38.325040" lon="-0.729310">
        <ele>218</ele>
        <time>2019-12-31T13:47:14Z</time>
      </trkpt>
      <trkpt lat="38.325040" lon="-0.729310">
        <ele>218</ele>
        <time>2019-12-31T13:47:15Z</time>
      </trkpt>
      <trkpt lat="38.324990" lon="-0.729290">
        <ele>218</ele>
        <time>2019-12-31T13:47:16Z</time>
      </trkpt>
      <trkpt lat="38.324935" lon="-0.729270">
        <ele>217.6</ele>
        <time>2019-12-31T13:47:17Z</time>
      </trkpt>
      <trkpt lat="38.324834" lon="-0.729190">
        <ele>218</ele>
        <time>2019-12-31T13:47:18Z</time>
      </trkpt>
      <trkpt lat="38.324834" lon="-0.729190">
        <ele>217.6</ele>
        <time>2019-12-31T13:47:19Z</time>
      </trkpt>
      <trkpt lat="38.324768" lon="-0.729067">
        <ele>217.6</ele>
        <time>2019-12-31T13:47:20Z</time>
      </trkpt>
      <trkpt lat="38.324768" lon="-0.729067">
        <ele>217.2</ele>
        <time>2019-12-31T13:47:21Z</time>
      </trkpt>
      <trkpt lat="38.324749" lon="-0.728995">
        <ele>217.2</ele>
        <time>2019-12-31T13:47:22Z</time>
      </trkpt>
      <trkpt lat="38.324726" lon="-0.728922">
        <ele>216.6</ele>
        <time>2019-12-31T13:47:23Z</time>
      </trkpt>
      <trkpt lat="38.324659" lon="-0.728803">
        <ele>216.8</ele>
        <time>2019-12-31T13:47:24Z</time>
      </trkpt>
      <trkpt lat="38.324659" lon="-0.728803">
        <ele>216.8</ele>
        <time>2019-12-31T13:47:25Z</time>
      </trkpt>
      <trkpt lat="38.324609" lon="-0.728675">
        <ele>216.6</ele>
        <time>2019-12-31T13:47:26Z</time>
      </trkpt>
      <trkpt lat="38.324606" lon="-0.728608">
        <ele>216.6</ele>
        <time>2019-12-31T13:47:27Z</time>
      </trkpt>
      <trkpt lat="38.324606" lon="-0.728608">
        <ele>216.6</ele>
        <time>2019-12-31T13:47:28Z</time>
      </trkpt>
      <trkpt lat="38.324605" lon="-0.728542">
        <ele>216.4</ele>
        <time>2019-12-31T13:47:29Z</time>
      </trkpt>
      <trkpt lat="38.324584" lon="-0.728476">
        <ele>216.4</ele>
        <time>2019-12-31T13:47:30Z</time>
      </trkpt>
      <trkpt lat="38.324509" lon="-0.728365">
        <ele>216.6</ele>
        <time>2019-12-31T13:47:31Z</time>
      </trkpt>
      <trkpt lat="38.324509" lon="-0.728365">
        <ele>216.2</ele>
        <time>2019-12-31T13:47:32Z</time>
      </trkpt>
      <trkpt lat="38.324467" lon="-0.728319">
        <ele>216.2</ele>
        <time>2019-12-31T13:47:33Z</time>
      </trkpt>
      <trkpt lat="38.324440" lon="-0.728219">
        <ele>216.4</ele>
        <time>2019-12-31T13:47:34Z</time>
      </trkpt>
      <trkpt lat="38.324440" lon="-0.728219">
        <ele>216.4</ele>
        <time>2019-12-31T13:47:35Z</time>
      </trkpt>
      <trkpt lat="38.324436" lon="-0.728166">
        <ele>216.6</ele>
        <time>2019-12-31T13:47:36Z</time>
      </trkpt>
      <trkpt lat="38.324441" lon="-0.728110">
        <ele>216.4</ele>
        <time>2019-12-31T13:47:37Z</time>
      </trkpt>
      <trkpt lat="38.324453" lon="-0.728063">
        <ele>216.4</ele>
        <time>2019-12-31T13:47:38Z</time>
      </trkpt>
      <trkpt lat="38.324473" lon="-0.728039">
        <ele>216.8</ele>
        <time>2019-12-31T13:47:39Z</time>
      </trkpt>
      <trkpt lat="38.324517" lon="-0.728004">
        <ele>216.8</ele>
        <time>2019-12-31T13:47:40Z</time>
      </trkpt>
      <trkpt lat="38.324517" lon="-0.728004">
        <ele>216.4</ele>
        <time>2019-12-31T13:47:41Z</time>
      </trkpt>
      <trkpt lat="38.324520" lon="-0.727977">
        <ele>216.2</ele>
        <time>2019-12-31T13:47:42Z</time>
      </trkpt>
      <trkpt lat="38.324508" lon="-0.727935">
        <ele>216.4</ele>
        <time>2019-12-31T13:47:43Z</time>
      </trkpt>
      <trkpt lat="38.324495" lon="-0.727908">
        <ele>216.6</ele>
        <time>2019-12-31T13:47:44Z</time>
      </trkpt>
      <trkpt lat="38.324495" lon="-0.727908">
        <ele>217.2</ele>
        <time>2019-12-31T13:47:45Z</time>
      </trkpt>
      <trkpt lat="38.324466" lon="-0.727882">
        <ele>218</ele>
        <time>2019-12-31T13:47:46Z</time>
      </trkpt>
      <trkpt lat="38.324452" lon="-0.727866">
        <ele>218.6</ele>
        <time>2019-12-31T13:47:47Z</time>
      </trkpt>
      <trkpt lat="38.324436" lon="-0.727844">
        <ele>218.6</ele>
        <time>2019-12-31T13:47:48Z</time>
      </trkpt>
      <trkpt lat="38.324436" lon="-0.727844">
        <ele>218.4</ele>
        <time>2019-12-31T13:47:49Z</time>
      </trkpt>
      <trkpt lat="38.324412" lon="-0.727813">
        <ele>218.4</ele>
        <time>2019-12-31T13:47:50Z</time>
      </trkpt>
      <trkpt lat="38.324408" lon="-0.727778">
        <ele>218.4</ele>
        <time>2019-12-31T13:47:51Z</time>
      </trkpt>
      <trkpt lat="38.324419" lon="-0.727698">
        <ele>218.2</ele>
        <time>2019-12-31T13:47:52Z</time>
      </trkpt>
      <trkpt lat="38.324419" lon="-0.727698">
        <ele>218.2</ele>
        <time>2019-12-31T13:47:53Z</time>
      </trkpt>
      <trkpt lat="38.324440" lon="-0.727643">
        <ele>217.8</ele>
        <time>2019-12-31T13:47:54Z</time>
      </trkpt>
      <trkpt lat="38.324461" lon="-0.727581">
        <ele>218</ele>
        <time>2019-12-31T13:47:55Z</time>
      </trkpt>
      <trkpt lat="38.324489" lon="-0.727533">
        <ele>217.8</ele>
        <time>2019-12-31T13:47:56Z</time>
      </trkpt>
      <trkpt lat="38.324533" lon="-0.727430">
        <ele>217.6</ele>
        <time>2019-12-31T13:47:57Z</time>
      </trkpt>
      <trkpt lat="38.324533" lon="-0.727430">
        <ele>217.2</ele>
        <time>2019-12-31T13:47:58Z</time>
      </trkpt>
      <trkpt lat="38.324569" lon="-0.727369">
        <ele>217.6</ele>
        <time>2019-12-31T13:47:59Z</time>
      </trkpt>
      <trkpt lat="38.324569" lon="-0.727369">
        <ele>217.6</ele>
        <time>2019-12-31T13:48:00Z</time>
      </trkpt>
      <trkpt lat="38.324579" lon="-0.727357">
        <ele>217.4</ele>
        <time>2019-12-31T13:48:01Z</time>
      </trkpt>
      <trkpt lat="38.324587" lon="-0.727341">
        <ele>216.6</ele>
        <time>2019-12-31T13:48:03Z</time>
      </trkpt>
      <trkpt lat="38.324587" lon="-0.727341">
        <ele>215.8</ele>
        <time>2019-12-31T13:48:04Z</time>
      </trkpt>
      <trkpt lat="38.324591" lon="-0.727315">
        <ele>215.8</ele>
        <time>2019-12-31T13:48:05Z</time>
      </trkpt>
      <trkpt lat="38.324603" lon="-0.727289">
        <ele>215.4</ele>
        <time>2019-12-31T13:48:06Z</time>
      </trkpt>
      <trkpt lat="38.324627" lon="-0.727269">
        <ele>215.8</ele>
        <time>2019-12-31T13:48:07Z</time>
      </trkpt>
      <trkpt lat="38.324651" lon="-0.727249">
        <ele>216</ele>
        <time>2019-12-31T13:48:08Z</time>
      </trkpt>
      <trkpt lat="38.324659" lon="-0.727226">
        <ele>217</ele>
        <time>2019-12-31T13:48:09Z</time>
      </trkpt>
      <trkpt lat="38.324664" lon="-0.727204">
        <ele>217.4</ele>
        <time>2019-12-31T13:48:10Z</time>
      </trkpt>
      <trkpt lat="38.324667" lon="-0.727188">
        <ele>217.4</ele>
        <time>2019-12-31T13:48:11Z</time>
      </trkpt>
      <trkpt lat="38.324673" lon="-0.727168">
        <ele>217.4</ele>
        <time>2019-12-31T13:48:12Z</time>
      </trkpt>
      <trkpt lat="38.324683" lon="-0.727140">
        <ele>217.4</ele>
        <time>2019-12-31T13:48:13Z</time>
      </trkpt>
      <trkpt lat="38.324710" lon="-0.727082">
        <ele>217.4</ele>
        <time>2019-12-31T13:48:14Z</time>
      </trkpt>
      <trkpt lat="38.324710" lon="-0.727082">
        <ele>217.4</ele>
        <time>2019-12-31T13:48:15Z</time>
      </trkpt>
      <trkpt lat="38.324747" lon="-0.727025">
        <ele>217.4</ele>
        <time>2019-12-31T13:48:16Z</time>
      </trkpt>
      <trkpt lat="38.324747" lon="-0.727025">
        <ele>217.4</ele>
        <time>2019-12-31T13:48:17Z</time>
      </trkpt>
      <trkpt lat="38.324768" lon="-0.726989">
        <ele>217.4</ele>
        <time>2019-12-31T13:48:18Z</time>
      </trkpt>
      <trkpt lat="38.324792" lon="-0.726951">
        <ele>217.4</ele>
        <time>2019-12-31T13:48:19Z</time>
      </trkpt>
      <trkpt lat="38.324817" lon="-0.726909">
        <ele>217.4</ele>
        <time>2019-12-31T13:48:20Z</time>
      </trkpt>
      <trkpt lat="38.324843" lon="-0.726862">
        <ele>217.2</ele>
        <time>2019-12-31T13:48:21Z</time>
      </trkpt>
      <trkpt lat="38.324872" lon="-0.726816">
        <ele>217.4</ele>
        <time>2019-12-31T13:48:22Z</time>
      </trkpt>
      <trkpt lat="38.324902" lon="-0.726772">
        <ele>217.2</ele>
        <time>2019-12-31T13:48:23Z</time>
      </trkpt>
      <trkpt lat="38.324926" lon="-0.726722">
        <ele>217.4</ele>
        <time>2019-12-31T13:48:24Z</time>
      </trkpt>
      <trkpt lat="38.324971" lon="-0.726630">
        <ele>217.4</ele>
        <time>2019-12-31T13:48:25Z</time>
      </trkpt>
      <trkpt lat="38.324998" lon="-0.726584">
        <ele>217.4</ele>
        <time>2019-12-31T13:48:26Z</time>
      </trkpt>
      <trkpt lat="38.324998" lon="-0.726584">
        <ele>217.2</ele>
        <time>2019-12-31T13:48:27Z</time>
      </trkpt>
      <trkpt lat="38.325026" lon="-0.726536">
        <ele>217</ele>
        <time>2019-12-31T13:48:28Z</time>
      </trkpt>
      <trkpt lat="38.325061" lon="-0.726491">
        <ele>217</ele>
        <time>2019-12-31T13:48:29Z</time>
      </trkpt>
      <trkpt lat="38.325094" lon="-0.726461">
        <ele>217.2</ele>
        <time>2019-12-31T13:48:30Z</time>
      </trkpt>
      <trkpt lat="38.325114" lon="-0.726427">
        <ele>217.4</ele>
        <time>2019-12-31T13:48:31Z</time>
      </trkpt>
      <trkpt lat="38.325129" lon="-0.726387">
        <ele>217.2</ele>
        <time>2019-12-31T13:48:32Z</time>
      </trkpt>
      <trkpt lat="38.325172" lon="-0.726301">
        <ele>217.2</ele>
        <time>2019-12-31T13:48:33Z</time>
      </trkpt>
      <trkpt lat="38.325200" lon="-0.726253">
        <ele>217</ele>
        <time>2019-12-31T13:48:34Z</time>
      </trkpt>
      <trkpt lat="38.325200" lon="-0.726253">
        <ele>216.8</ele>
        <time>2019-12-31T13:48:35Z</time>
      </trkpt>
      <trkpt lat="38.325228" lon="-0.726202">
        <ele>216.8</ele>
        <time>2019-12-31T13:48:36Z</time>
      </trkpt>
      <trkpt lat="38.325250" lon="-0.726153">
        <ele>216.8</ele>
        <time>2019-12-31T13:48:37Z</time>
      </trkpt>
      <trkpt lat="38.325260" lon="-0.726113">
        <ele>216.8</ele>
        <time>2019-12-31T13:48:38Z</time>
      </trkpt>
      <trkpt lat="38.325276" lon="-0.726080">
        <ele>216.8</ele>
        <time>2019-12-31T13:48:39Z</time>
      </trkpt>
      <trkpt lat="38.325308" lon="-0.726001">
        <ele>217</ele>
        <time>2019-12-31T13:48:40Z</time>
      </trkpt>
      <trkpt lat="38.325308" lon="-0.726001">
        <ele>217.2</ele>
        <time>2019-12-31T13:48:41Z</time>
      </trkpt>
      <trkpt lat="38.325318" lon="-0.725960">
        <ele>217</ele>
        <time>2019-12-31T13:48:42Z</time>
      </trkpt>
      <trkpt lat="38.325340" lon="-0.725933">
        <ele>217</ele>
        <time>2019-12-31T13:48:43Z</time>
      </trkpt>
      <trkpt lat="38.325354" lon="-0.725908">
        <ele>216.8</ele>
        <time>2019-12-31T13:48:44Z</time>
      </trkpt>
      <trkpt lat="38.325367" lon="-0.725883">
        <ele>216</ele>
        <time>2019-12-31T13:48:45Z</time>
      </trkpt>
      <trkpt lat="38.325373" lon="-0.725865">
        <ele>215.8</ele>
        <time>2019-12-31T13:48:46Z</time>
      </trkpt>
      <trkpt lat="38.325378" lon="-0.725848">
        <ele>215.6</ele>
        <time>2019-12-31T13:48:47Z</time>
      </trkpt>
      <trkpt lat="38.325383" lon="-0.725828">
        <ele>215.6</ele>
        <time>2019-12-31T13:48:48Z</time>
      </trkpt>
      <trkpt lat="38.325396" lon="-0.725815">
        <ele>215.8</ele>
        <time>2019-12-31T13:48:49Z</time>
      </trkpt>
      <trkpt lat="38.325409" lon="-0.725810">
        <ele>216</ele>
        <time>2019-12-31T13:48:50Z</time>
      </trkpt>
      <trkpt lat="38.325445" lon="-0.725784">
        <ele>216.8</ele>
        <time>2019-12-31T13:48:54Z</time>
      </trkpt>
      <trkpt lat="38.325445" lon="-0.725784">
        <ele>216.4</ele>
        <time>2019-12-31T13:48:55Z</time>
      </trkpt>
      <trkpt lat="38.325456" lon="-0.725762">
        <ele>216.6</ele>
        <time>2019-12-31T13:48:56Z</time>
      </trkpt>
      <trkpt lat="38.325499" lon="-0.725715">
        <ele>216.6</ele>
        <time>2019-12-31T13:48:57Z</time>
      </trkpt>
      <trkpt lat="38.325499" lon="-0.725715">
        <ele>216.4</ele>
        <time>2019-12-31T13:48:58Z</time>
      </trkpt>
      <trkpt lat="38.325527" lon="-0.725687">
        <ele>216.6</ele>
        <time>2019-12-31T13:48:59Z</time>
      </trkpt>
      <trkpt lat="38.325589" lon="-0.725654">
        <ele>216.4</ele>
        <time>2019-12-31T13:49:00Z</time>
      </trkpt>
      <trkpt lat="38.325589" lon="-0.725654">
        <ele>216.2</ele>
        <time>2019-12-31T13:49:01Z</time>
      </trkpt>
      <trkpt lat="38.325616" lon="-0.725638">
        <ele>216.4</ele>
        <time>2019-12-31T13:49:02Z</time>
      </trkpt>
      <trkpt lat="38.325636" lon="-0.725612">
        <ele>216.4</ele>
        <time>2019-12-31T13:49:03Z</time>
      </trkpt>
      <trkpt lat="38.325665" lon="-0.725534">
        <ele>216.6</ele>
        <time>2019-12-31T13:49:04Z</time>
      </trkpt>
      <trkpt lat="38.325665" lon="-0.725534">
        <ele>216.6</ele>
        <time>2019-12-31T13:49:05Z</time>
      </trkpt>
      <trkpt lat="38.325676" lon="-0.725487">
        <ele>217.4</ele>
        <time>2019-12-31T13:49:06Z</time>
      </trkpt>
      <trkpt lat="38.325713" lon="-0.725432">
        <ele>217.6</ele>
        <time>2019-12-31T13:49:07Z</time>
      </trkpt>
      <trkpt lat="38.325713" lon="-0.725432">
        <ele>218</ele>
        <time>2019-12-31T13:49:08Z</time>
      </trkpt>
      <trkpt lat="38.325732" lon="-0.725400">
        <ele>217.8</ele>
        <time>2019-12-31T13:49:09Z</time>
      </trkpt>
      <trkpt lat="38.325738" lon="-0.725303">
        <ele>217.6</ele>
        <time>2019-12-31T13:49:10Z</time>
      </trkpt>
      <trkpt lat="38.325738" lon="-0.725303">
        <ele>217.2</ele>
        <time>2019-12-31T13:49:11Z</time>
      </trkpt>
      <trkpt lat="38.325720" lon="-0.725247">
        <ele>216.6</ele>
        <time>2019-12-31T13:49:12Z</time>
      </trkpt>
      <trkpt lat="38.325693" lon="-0.725187">
        <ele>216.6</ele>
        <time>2019-12-31T13:49:13Z</time>
      </trkpt>
      <trkpt lat="38.325652" lon="-0.725137">
        <ele>216.8</ele>
        <time>2019-12-31T13:49:14Z</time>
      </trkpt>
      <trkpt lat="38.325605" lon="-0.725094">
        <ele>216.8</ele>
        <time>2019-12-31T13:49:15Z</time>
      </trkpt>
      <trkpt lat="38.325557" lon="-0.725049">
        <ele>217</ele>
        <time>2019-12-31T13:49:16Z</time>
      </trkpt>
      <trkpt lat="38.325506" lon="-0.725001">
        <ele>217</ele>
        <time>2019-12-31T13:49:17Z</time>
      </trkpt>
      <trkpt lat="38.325422" lon="-0.724899">
        <ele>217.4</ele>
        <time>2019-12-31T13:49:18Z</time>
      </trkpt>
      <trkpt lat="38.325383" lon="-0.724853">
        <ele>217.6</ele>
        <time>2019-12-31T13:49:19Z</time>
      </trkpt>
      <trkpt lat="38.325383" lon="-0.724853">
        <ele>217.6</ele>
        <time>2019-12-31T13:49:20Z</time>
      </trkpt>
      <trkpt lat="38.325343" lon="-0.724811">
        <ele>217.6</ele>
        <time>2019-12-31T13:49:21Z</time>
      </trkpt>
      <trkpt lat="38.325305" lon="-0.724767">
        <ele>217.6</ele>
        <time>2019-12-31T13:49:22Z</time>
      </trkpt>
      <trkpt lat="38.325256" lon="-0.724728">
        <ele>217.2</ele>
        <time>2019-12-31T13:49:23Z</time>
      </trkpt>
      <trkpt lat="38.325206" lon="-0.724689">
        <ele>217</ele>
        <time>2019-12-31T13:49:24Z</time>
      </trkpt>
      <trkpt lat="38.325100" lon="-0.724605">
        <ele>217</ele>
        <time>2019-12-31T13:49:25Z</time>
      </trkpt>
      <trkpt lat="38.325100" lon="-0.724605">
        <ele>216.8</ele>
        <time>2019-12-31T13:49:26Z</time>
      </trkpt>
      <trkpt lat="38.324995" lon="-0.724512">
        <ele>216.6</ele>
        <time>2019-12-31T13:49:27Z</time>
      </trkpt>
      <trkpt lat="38.324942" lon="-0.724461">
        <ele>216.4</ele>
        <time>2019-12-31T13:49:28Z</time>
      </trkpt>
      <trkpt lat="38.324885" lon="-0.724416">
        <ele>216.6</ele>
        <time>2019-12-31T13:49:29Z</time>
      </trkpt>
      <trkpt lat="38.324822" lon="-0.724379">
        <ele>216.4</ele>
        <time>2019-12-31T13:49:30Z</time>
      </trkpt>
      <trkpt lat="38.324822" lon="-0.724379">
        <ele>216.4</ele>
        <time>2019-12-31T13:49:31Z</time>
      </trkpt>
      <trkpt lat="38.324759" lon="-0.724341">
        <ele>216.4</ele>
        <time>2019-12-31T13:49:32Z</time>
      </trkpt>
      <trkpt lat="38.324626" lon="-0.724289">
        <ele>216.6</ele>
        <time>2019-12-31T13:49:33Z</time>
      </trkpt>
      <trkpt lat="38.324558" lon="-0.724265">
        <ele>216.6</ele>
        <time>2019-12-31T13:49:34Z</time>
      </trkpt>
      <trkpt lat="38.324558" lon="-0.724265">
        <ele>216.8</ele>
        <time>2019-12-31T13:49:35Z</time>
      </trkpt>
      <trkpt lat="38.324422" lon="-0.724221">
        <ele>216.6</ele>
        <time>2019-12-31T13:49:36Z</time>
      </trkpt>
      <trkpt lat="38.324422" lon="-0.724221">
        <ele>216.6</ele>
        <time>2019-12-31T13:49:37Z</time>
      </trkpt>
      <trkpt lat="38.324295" lon="-0.724182">
        <ele>217</ele>
        <time>2019-12-31T13:49:38Z</time>
      </trkpt>
      <trkpt lat="38.324295" lon="-0.724182">
        <ele>217</ele>
        <time>2019-12-31T13:49:39Z</time>
      </trkpt>
      <trkpt lat="38.324184" lon="-0.724140">
        <ele>217.2</ele>
        <time>2019-12-31T13:49:40Z</time>
      </trkpt>
      <trkpt lat="38.324184" lon="-0.724140">
        <ele>217.4</ele>
        <time>2019-12-31T13:49:41Z</time>
      </trkpt>
      <trkpt lat="38.324089" lon="-0.724069">
        <ele>217.6</ele>
        <time>2019-12-31T13:49:42Z</time>
      </trkpt>
      <trkpt lat="38.324050" lon="-0.724022">
        <ele>217.8</ele>
        <time>2019-12-31T13:49:43Z</time>
      </trkpt>
      <trkpt lat="38.324050" lon="-0.724022">
        <ele>217.6</ele>
        <time>2019-12-31T13:49:44Z</time>
      </trkpt>
      <trkpt lat="38.324019" lon="-0.723964">
        <ele>217.6</ele>
        <time>2019-12-31T13:49:45Z</time>
      </trkpt>
      <trkpt lat="38.323986" lon="-0.723831">
        <ele>217.8</ele>
        <time>2019-12-31T13:49:46Z</time>
      </trkpt>
      <trkpt lat="38.323986" lon="-0.723831">
        <ele>217.8</ele>
        <time>2019-12-31T13:49:47Z</time>
      </trkpt>
      <trkpt lat="38.323978" lon="-0.723693">
        <ele>218</ele>
        <time>2019-12-31T13:49:48Z</time>
      </trkpt>
      <trkpt lat="38.323978" lon="-0.723693">
        <ele>218.4</ele>
        <time>2019-12-31T13:49:49Z</time>
      </trkpt>
      <trkpt lat="38.323953" lon="-0.723573">
        <ele>218.2</ele>
        <time>2019-12-31T13:49:50Z</time>
      </trkpt>
      <trkpt lat="38.323934" lon="-0.723522">
        <ele>218.2</ele>
        <time>2019-12-31T13:49:51Z</time>
      </trkpt>
      <trkpt lat="38.323919" lon="-0.723474">
        <ele>218.8</ele>
        <time>2019-12-31T13:49:52Z</time>
      </trkpt>
      <trkpt lat="38.323919" lon="-0.723474">
        <ele>218.8</ele>
        <time>2019-12-31T13:49:53Z</time>
      </trkpt>
      <trkpt lat="38.323905" lon="-0.723427">
        <ele>219</ele>
        <time>2019-12-31T13:49:54Z</time>
      </trkpt>
      <trkpt lat="38.323872" lon="-0.723335">
        <ele>219.2</ele>
        <time>2019-12-31T13:49:55Z</time>
      </trkpt>
      <trkpt lat="38.323872" lon="-0.723335">
        <ele>219.6</ele>
        <time>2019-12-31T13:49:56Z</time>
      </trkpt>
      <trkpt lat="38.323860" lon="-0.723297">
        <ele>219.8</ele>
        <time>2019-12-31T13:49:57Z</time>
      </trkpt>
      <trkpt lat="38.323833" lon="-0.723208">
        <ele>220.2</ele>
        <time>2019-12-31T13:49:58Z</time>
      </trkpt>
      <trkpt lat="38.323833" lon="-0.723208">
        <ele>220.4</ele>
        <time>2019-12-31T13:49:59Z</time>
      </trkpt>
      <trkpt lat="38.323810" lon="-0.723119">
        <ele>220.6</ele>
        <time>2019-12-31T13:50:00Z</time>
      </trkpt>
      <trkpt lat="38.323794" lon="-0.723080">
        <ele>221</ele>
        <time>2019-12-31T13:50:01Z</time>
      </trkpt>
      <trkpt lat="38.323774" lon="-0.723045">
        <ele>221.6</ele>
        <time>2019-12-31T13:50:02Z</time>
      </trkpt>
      <trkpt lat="38.323756" lon="-0.723014">
        <ele>222</ele>
        <time>2019-12-31T13:50:03Z</time>
      </trkpt>
      <trkpt lat="38.323756" lon="-0.723014">
        <ele>222.6</ele>
        <time>2019-12-31T13:50:04Z</time>
      </trkpt>
      <trkpt lat="38.323740" lon="-0.722986">
        <ele>222.8</ele>
        <time>2019-12-31T13:50:05Z</time>
      </trkpt>
      <trkpt lat="38.323704" lon="-0.722924">
        <ele>223.2</ele>
        <time>2019-12-31T13:50:06Z</time>
      </trkpt>
      <trkpt lat="38.323704" lon="-0.722924">
        <ele>223.6</ele>
        <time>2019-12-31T13:50:07Z</time>
      </trkpt>
      <trkpt lat="38.323664" lon="-0.722856">
        <ele>223.8</ele>
        <time>2019-12-31T13:50:08Z</time>
      </trkpt>
      <trkpt lat="38.323664" lon="-0.722856">
        <ele>224.2</ele>
        <time>2019-12-31T13:50:09Z</time>
      </trkpt>
      <trkpt lat="38.323651" lon="-0.722825">
        <ele>224.6</ele>
        <time>2019-12-31T13:50:10Z</time>
      </trkpt>
      <trkpt lat="38.323636" lon="-0.722789">
        <ele>224.8</ele>
        <time>2019-12-31T13:50:11Z</time>
      </trkpt>
      <trkpt lat="38.323622" lon="-0.722749">
        <ele>225.4</ele>
        <time>2019-12-31T13:50:12Z</time>
      </trkpt>
      <trkpt lat="38.323599" lon="-0.722710">
        <ele>225.4</ele>
        <time>2019-12-31T13:50:13Z</time>
      </trkpt>
      <trkpt lat="38.323571" lon="-0.722677">
        <ele>225.4</ele>
        <time>2019-12-31T13:50:14Z</time>
      </trkpt>
      <trkpt lat="38.323537" lon="-0.722654">
        <ele>225.4</ele>
        <time>2019-12-31T13:50:15Z</time>
      </trkpt>
      <trkpt lat="38.323453" lon="-0.722635">
        <ele>225.2</ele>
        <time>2019-12-31T13:50:16Z</time>
      </trkpt>
      <trkpt lat="38.323453" lon="-0.722635">
        <ele>224.8</ele>
        <time>2019-12-31T13:50:17Z</time>
      </trkpt>
      <trkpt lat="38.323404" lon="-0.722633">
        <ele>224.4</ele>
        <time>2019-12-31T13:50:18Z</time>
      </trkpt>
      <trkpt lat="38.323350" lon="-0.722630">
        <ele>224.2</ele>
        <time>2019-12-31T13:50:19Z</time>
      </trkpt>
      <trkpt lat="38.323296" lon="-0.722632">
        <ele>224.2</ele>
        <time>2019-12-31T13:50:20Z</time>
      </trkpt>
      <trkpt lat="38.323173" lon="-0.722611">
        <ele>223.6</ele>
        <time>2019-12-31T13:50:21Z</time>
      </trkpt>
      <trkpt lat="38.323108" lon="-0.722603">
        <ele>223.4</ele>
        <time>2019-12-31T13:50:22Z</time>
      </trkpt>
      <trkpt lat="38.323108" lon="-0.722603">
        <ele>223</ele>
        <time>2019-12-31T13:50:23Z</time>
      </trkpt>
      <trkpt lat="38.322976" lon="-0.722594">
        <ele>222.6</ele>
        <time>2019-12-31T13:50:24Z</time>
      </trkpt>
      <trkpt lat="38.322908" lon="-0.722600">
        <ele>222.6</ele>
        <time>2019-12-31T13:50:25Z</time>
      </trkpt>
      <trkpt lat="38.322908" lon="-0.722600">
        <ele>222.6</ele>
        <time>2019-12-31T13:50:26Z</time>
      </trkpt>
      <trkpt lat="38.322838" lon="-0.722605">
        <ele>222</ele>
        <time>2019-12-31T13:50:27Z</time>
      </trkpt>
      <trkpt lat="38.322691" lon="-0.722577">
        <ele>221.2</ele>
        <time>2019-12-31T13:50:28Z</time>
      </trkpt>
      <trkpt lat="38.322691" lon="-0.722577">
        <ele>220.4</ele>
        <time>2019-12-31T13:50:29Z</time>
      </trkpt>
      <trkpt lat="38.322617" lon="-0.722547">
        <ele>220.2</ele>
        <time>2019-12-31T13:50:30Z</time>
      </trkpt>
      <trkpt lat="38.322550" lon="-0.722520">
        <ele>219.6</ele>
        <time>2019-12-31T13:50:31Z</time>
      </trkpt>
      <trkpt lat="38.322501" lon="-0.722504">
        <ele>219.2</ele>
        <time>2019-12-31T13:50:32Z</time>
      </trkpt>
      <trkpt lat="38.322475" lon="-0.722482">
        <ele>219.2</ele>
        <time>2019-12-31T13:50:33Z</time>
      </trkpt>
      <trkpt lat="38.322468" lon="-0.722454">
        <ele>218.6</ele>
        <time>2019-12-31T13:50:34Z</time>
      </trkpt>
      <trkpt lat="38.322469" lon="-0.722410">
        <ele>218.4</ele>
        <time>2019-12-31T13:50:35Z</time>
      </trkpt>
      <trkpt lat="38.322467" lon="-0.722360">
        <ele>218.6</ele>
        <time>2019-12-31T13:50:36Z</time>
      </trkpt>
      <trkpt lat="38.322467" lon="-0.722360">
        <ele>218.4</ele>
        <time>2019-12-31T13:50:37Z</time>
      </trkpt>
      <trkpt lat="38.322460" lon="-0.722336">
        <ele>218.6</ele>
        <time>2019-12-31T13:50:38Z</time>
      </trkpt>
      <trkpt lat="38.322452" lon="-0.722319">
        <ele>219</ele>
        <time>2019-12-31T13:50:39Z</time>
      </trkpt>
      <trkpt lat="38.322452" lon="-0.722319">
        <ele>219.4</ele>
        <time>2019-12-31T13:50:40Z</time>
      </trkpt>
      <trkpt lat="38.322445" lon="-0.722309">
        <ele>219.6</ele>
        <time>2019-12-31T13:50:41Z</time>
      </trkpt>
      <trkpt lat="38.322438" lon="-0.722308">
        <ele>219.8</ele>
        <time>2019-12-31T13:50:42Z</time>
      </trkpt>
      <trkpt lat="38.322411" lon="-0.722315">
        <ele>219.8</ele>
        <time>2019-12-31T13:50:43Z</time>
      </trkpt>
      <trkpt lat="38.322395" lon="-0.722330">
        <ele>219.8</ele>
        <time>2019-12-31T13:50:44Z</time>
      </trkpt>
      <trkpt lat="38.322395" lon="-0.722330">
        <ele>219.6</ele>
        <time>2019-12-31T13:50:45Z</time>
      </trkpt>
      <trkpt lat="38.322371" lon="-0.722346">
        <ele>219.2</ele>
        <time>2019-12-31T13:50:46Z</time>
      </trkpt>
      <trkpt lat="38.322342" lon="-0.722370">
        <ele>219</ele>
        <time>2019-12-31T13:50:47Z</time>
      </trkpt>
      <trkpt lat="38.322308" lon="-0.722395">
        <ele>218.6</ele>
        <time>2019-12-31T13:50:48Z</time>
      </trkpt>
      <trkpt lat="38.322223" lon="-0.722425">
        <ele>218.6</ele>
        <time>2019-12-31T13:50:49Z</time>
      </trkpt>
      <trkpt lat="38.322223" lon="-0.722425">
        <ele>218.6</ele>
        <time>2019-12-31T13:50:50Z</time>
      </trkpt>
      <trkpt lat="38.322125" lon="-0.722429">
        <ele>218.6</ele>
        <time>2019-12-31T13:50:51Z</time>
      </trkpt>
      <trkpt lat="38.322125" lon="-0.722429">
        <ele>218.6</ele>
        <time>2019-12-31T13:50:52Z</time>
      </trkpt>
      <trkpt lat="38.322070" lon="-0.722423">
        <ele>218.6</ele>
        <time>2019-12-31T13:50:53Z</time>
      </trkpt>
      <trkpt lat="38.321954" lon="-0.722417">
        <ele>218.6</ele>
        <time>2019-12-31T13:50:54Z</time>
      </trkpt>
      <trkpt lat="38.321954" lon="-0.722417">
        <ele>218.6</ele>
        <time>2019-12-31T13:50:55Z</time>
      </trkpt>
      <trkpt lat="38.321897" lon="-0.722422">
        <ele>218.6</ele>
        <time>2019-12-31T13:50:56Z</time>
      </trkpt>
      <trkpt lat="38.321784" lon="-0.722449">
        <ele>218.6</ele>
        <time>2019-12-31T13:50:57Z</time>
      </trkpt>
      <trkpt lat="38.321784" lon="-0.722449">
        <ele>218.6</ele>
        <time>2019-12-31T13:50:58Z</time>
      </trkpt>
      <trkpt lat="38.321732" lon="-0.722475">
        <ele>219.6</ele>
        <time>2019-12-31T13:50:59Z</time>
      </trkpt>
      <trkpt lat="38.321685" lon="-0.722504">
        <ele>219.8</ele>
        <time>2019-12-31T13:51:00Z</time>
      </trkpt>
      <trkpt lat="38.321638" lon="-0.722521">
        <ele>220.2</ele>
        <time>2019-12-31T13:51:01Z</time>
      </trkpt>
      <trkpt lat="38.321549" lon="-0.722540">
        <ele>220.6</ele>
        <time>2019-12-31T13:51:02Z</time>
      </trkpt>
      <trkpt lat="38.321549" lon="-0.722540">
        <ele>220.6</ele>
        <time>2019-12-31T13:51:03Z</time>
      </trkpt>
      <trkpt lat="38.321503" lon="-0.722550">
        <ele>221.2</ele>
        <time>2019-12-31T13:51:04Z</time>
      </trkpt>
      <trkpt lat="38.321413" lon="-0.722562">
        <ele>221.6</ele>
        <time>2019-12-31T13:51:05Z</time>
      </trkpt>
      <trkpt lat="38.321413" lon="-0.722562">
        <ele>222.2</ele>
        <time>2019-12-31T13:51:06Z</time>
      </trkpt>
      <trkpt lat="38.321337" lon="-0.722567">
        <ele>222.4</ele>
        <time>2019-12-31T13:51:07Z</time>
      </trkpt>
      <trkpt lat="38.321337" lon="-0.722567">
        <ele>222.8</ele>
        <time>2019-12-31T13:51:08Z</time>
      </trkpt>
      <trkpt lat="38.321298" lon="-0.722569">
        <ele>223</ele>
        <time>2019-12-31T13:51:09Z</time>
      </trkpt>
      <trkpt lat="38.321230" lon="-0.722556">
        <ele>223.4</ele>
        <time>2019-12-31T13:51:10Z</time>
      </trkpt>
      <trkpt lat="38.321230" lon="-0.722556">
        <ele>224</ele>
        <time>2019-12-31T13:51:11Z</time>
      </trkpt>
      <trkpt lat="38.321161" lon="-0.722556">
        <ele>224.2</ele>
        <time>2019-12-31T13:51:12Z</time>
      </trkpt>
      <trkpt lat="38.321122" lon="-0.722554">
        <ele>224.4</ele>
        <time>2019-12-31T13:51:13Z</time>
      </trkpt>
      <trkpt lat="38.321122" lon="-0.722554">
        <ele>225</ele>
        <time>2019-12-31T13:51:14Z</time>
      </trkpt>
      <trkpt lat="38.321053" lon="-0.722580">
        <ele>225</ele>
        <time>2019-12-31T13:51:15Z</time>
      </trkpt>
      <trkpt lat="38.321017" lon="-0.722602">
        <ele>225.4</ele>
        <time>2019-12-31T13:51:16Z</time>
      </trkpt>
      <trkpt lat="38.321017" lon="-0.722602">
        <ele>225.4</ele>
        <time>2019-12-31T13:51:17Z</time>
      </trkpt>
      <trkpt lat="38.320981" lon="-0.722630">
        <ele>225.6</ele>
        <time>2019-12-31T13:51:18Z</time>
      </trkpt>
      <trkpt lat="38.320947" lon="-0.722659">
        <ele>225.8</ele>
        <time>2019-12-31T13:51:19Z</time>
      </trkpt>
      <trkpt lat="38.320874" lon="-0.722716">
        <ele>226</ele>
        <time>2019-12-31T13:51:20Z</time>
      </trkpt>
      <trkpt lat="38.320837" lon="-0.722745">
        <ele>226.2</ele>
        <time>2019-12-31T13:51:21Z</time>
      </trkpt>
      <trkpt lat="38.320837" lon="-0.722745">
        <ele>226.2</ele>
        <time>2019-12-31T13:51:22Z</time>
      </trkpt>
      <trkpt lat="38.320756" lon="-0.722805">
        <ele>226.2</ele>
        <time>2019-12-31T13:51:23Z</time>
      </trkpt>
      <trkpt lat="38.320716" lon="-0.722843">
        <ele>226.2</ele>
        <time>2019-12-31T13:51:24Z</time>
      </trkpt>
      <trkpt lat="38.320716" lon="-0.722843">
        <ele>226.4</ele>
        <time>2019-12-31T13:51:25Z</time>
      </trkpt>
      <trkpt lat="38.320678" lon="-0.722879">
        <ele>226.8</ele>
        <time>2019-12-31T13:51:26Z</time>
      </trkpt>
      <trkpt lat="38.320597" lon="-0.722928">
        <ele>227.2</ele>
        <time>2019-12-31T13:51:27Z</time>
      </trkpt>
      <trkpt lat="38.320555" lon="-0.722948">
        <ele>227.2</ele>
        <time>2019-12-31T13:51:28Z</time>
      </trkpt>
      <trkpt lat="38.320513" lon="-0.722966">
        <ele>227.2</ele>
        <time>2019-12-31T13:51:29Z</time>
      </trkpt>
      <trkpt lat="38.320513" lon="-0.722966">
        <ele>227</ele>
        <time>2019-12-31T13:51:30Z</time>
      </trkpt>
      <trkpt lat="38.320468" lon="-0.722977">
        <ele>227.2</ele>
        <time>2019-12-31T13:51:31Z</time>
      </trkpt>
      <trkpt lat="38.320376" lon="-0.722996">
        <ele>227.2</ele>
        <time>2019-12-31T13:51:32Z</time>
      </trkpt>
      <trkpt lat="38.320376" lon="-0.722996">
        <ele>227.2</ele>
        <time>2019-12-31T13:51:33Z</time>
      </trkpt>
      <trkpt lat="38.320324" lon="-0.723001">
        <ele>226.8</ele>
        <time>2019-12-31T13:51:34Z</time>
      </trkpt>
      <trkpt lat="38.320211" lon="-0.723012">
        <ele>226.2</ele>
        <time>2019-12-31T13:51:35Z</time>
      </trkpt>
      <trkpt lat="38.320151" lon="-0.723016">
        <ele>226</ele>
        <time>2019-12-31T13:51:36Z</time>
      </trkpt>
      <trkpt lat="38.320151" lon="-0.723016">
        <ele>225.6</ele>
        <time>2019-12-31T13:51:37Z</time>
      </trkpt>
      <trkpt lat="38.320026" lon="-0.723034">
        <ele>225.6</ele>
        <time>2019-12-31T13:51:38Z</time>
      </trkpt>
      <trkpt lat="38.320026" lon="-0.723034">
        <ele>225.2</ele>
        <time>2019-12-31T13:51:39Z</time>
      </trkpt>
      <trkpt lat="38.319961" lon="-0.723041">
        <ele>225.2</ele>
        <time>2019-12-31T13:51:40Z</time>
      </trkpt>
      <trkpt lat="38.319894" lon="-0.723047">
        <ele>224.8</ele>
        <time>2019-12-31T13:51:41Z</time>
      </trkpt>
      <trkpt lat="38.319826" lon="-0.723049">
        <ele>224.6</ele>
        <time>2019-12-31T13:51:42Z</time>
      </trkpt>
      <trkpt lat="38.319686" lon="-0.723055">
        <ele>224.2</ele>
        <time>2019-12-31T13:51:43Z</time>
      </trkpt>
      <trkpt lat="38.319686" lon="-0.723055">
        <ele>223.4</ele>
        <time>2019-12-31T13:51:44Z</time>
      </trkpt>
      <trkpt lat="38.319533" lon="-0.723061">
        <ele>222.6</ele>
        <time>2019-12-31T13:51:45Z</time>
      </trkpt>
      <trkpt lat="38.319452" lon="-0.723058">
        <ele>221.8</ele>
        <time>2019-12-31T13:51:46Z</time>
      </trkpt>
      <trkpt lat="38.319452" lon="-0.723058">
        <ele>220</ele>
        <time>2019-12-31T13:51:47Z</time>
      </trkpt>
      <trkpt lat="38.319366" lon="-0.723068">
        <ele>219.4</ele>
        <time>2019-12-31T13:51:48Z</time>
      </trkpt>
      <trkpt lat="38.319276" lon="-0.723083">
        <ele>218.2</ele>
        <time>2019-12-31T13:51:49Z</time>
      </trkpt>
      <trkpt lat="38.319182" lon="-0.723104">
        <ele>217.6</ele>
        <time>2019-12-31T13:51:50Z</time>
      </trkpt>
      <trkpt lat="38.319006" lon="-0.723117">
        <ele>217.2</ele>
        <time>2019-12-31T13:51:51Z</time>
      </trkpt>
      <trkpt lat="38.318932" lon="-0.723086">
        <ele>217.2</ele>
        <time>2019-12-31T13:51:52Z</time>
      </trkpt>
      <trkpt lat="38.318865" lon="-0.723041">
        <ele>216.6</ele>
        <time>2019-12-31T13:51:53Z</time>
      </trkpt>
      <trkpt lat="38.318802" lon="-0.722986">
        <ele>215.8</ele>
        <time>2019-12-31T13:51:54Z</time>
      </trkpt>
      <trkpt lat="38.318802" lon="-0.722986">
        <ele>215</ele>
        <time>2019-12-31T13:51:55Z</time>
      </trkpt>
      <trkpt lat="38.318744" lon="-0.722920">
        <ele>214.2</ele>
        <time>2019-12-31T13:51:56Z</time>
      </trkpt>
      <trkpt lat="38.318690" lon="-0.722841">
        <ele>213.8</ele>
        <time>2019-12-31T13:51:57Z</time>
      </trkpt>
      <trkpt lat="38.318639" lon="-0.722759">
        <ele>213.2</ele>
        <time>2019-12-31T13:51:58Z</time>
      </trkpt>
      <trkpt lat="38.318594" lon="-0.722672">
        <ele>213.2</ele>
        <time>2019-12-31T13:51:59Z</time>
      </trkpt>
      <trkpt lat="38.318551" lon="-0.722583">
        <ele>213.4</ele>
        <time>2019-12-31T13:52:00Z</time>
      </trkpt>
      <trkpt lat="38.318458" lon="-0.722430">
        <ele>213.8</ele>
        <time>2019-12-31T13:52:01Z</time>
      </trkpt>
      <trkpt lat="38.318411" lon="-0.722366">
        <ele>214.4</ele>
        <time>2019-12-31T13:52:02Z</time>
      </trkpt>
      <trkpt lat="38.318411" lon="-0.722366">
        <ele>214.8</ele>
        <time>2019-12-31T13:52:03Z</time>
      </trkpt>
      <trkpt lat="38.318366" lon="-0.722304">
        <ele>214.8</ele>
        <time>2019-12-31T13:52:04Z</time>
      </trkpt>
      <trkpt lat="38.318269" lon="-0.722202">
        <ele>215</ele>
        <time>2019-12-31T13:52:05Z</time>
      </trkpt>
      <trkpt lat="38.318269" lon="-0.722202">
        <ele>215.2</ele>
        <time>2019-12-31T13:52:06Z</time>
      </trkpt>
      <trkpt lat="38.318164" lon="-0.722109">
        <ele>215.2</ele>
        <time>2019-12-31T13:52:07Z</time>
      </trkpt>
      <trkpt lat="38.318164" lon="-0.722109">
        <ele>215.4</ele>
        <time>2019-12-31T13:52:08Z</time>
      </trkpt>
      <trkpt lat="38.318053" lon="-0.722037">
        <ele>215.2</ele>
        <time>2019-12-31T13:52:09Z</time>
      </trkpt>
      <trkpt lat="38.318053" lon="-0.722037">
        <ele>215.2</ele>
        <time>2019-12-31T13:52:10Z</time>
      </trkpt>
      <trkpt lat="38.317993" lon="-0.722007">
        <ele>215</ele>
        <time>2019-12-31T13:52:11Z</time>
      </trkpt>
      <trkpt lat="38.317930" lon="-0.721976">
        <ele>215.2</ele>
        <time>2019-12-31T13:52:12Z</time>
      </trkpt>
      <trkpt lat="38.317786" lon="-0.721930">
        <ele>215.2</ele>
        <time>2019-12-31T13:52:13Z</time>
      </trkpt>
      <trkpt lat="38.317786" lon="-0.721930">
        <ele>215.4</ele>
        <time>2019-12-31T13:52:14Z</time>
      </trkpt>
      <trkpt lat="38.317716" lon="-0.721914">
        <ele>215.8</ele>
        <time>2019-12-31T13:52:15Z</time>
      </trkpt>
      <trkpt lat="38.317651" lon="-0.721889">
        <ele>216.6</ele>
        <time>2019-12-31T13:52:16Z</time>
      </trkpt>
      <trkpt lat="38.317596" lon="-0.721859">
        <ele>217</ele>
        <time>2019-12-31T13:52:17Z</time>
      </trkpt>
      <trkpt lat="38.317506" lon="-0.721766">
        <ele>217</ele>
        <time>2019-12-31T13:52:18Z</time>
      </trkpt>
      <trkpt lat="38.317469" lon="-0.721711">
        <ele>217.2</ele>
        <time>2019-12-31T13:52:19Z</time>
      </trkpt>
      <trkpt lat="38.317469" lon="-0.721711">
        <ele>217.2</ele>
        <time>2019-12-31T13:52:20Z</time>
      </trkpt>
      <trkpt lat="38.317435" lon="-0.721653">
        <ele>217.6</ele>
        <time>2019-12-31T13:52:21Z</time>
      </trkpt>
      <trkpt lat="38.317406" lon="-0.721590">
        <ele>217.4</ele>
        <time>2019-12-31T13:52:22Z</time>
      </trkpt>
      <trkpt lat="38.317381" lon="-0.721521">
        <ele>217.2</ele>
        <time>2019-12-31T13:52:23Z</time>
      </trkpt>
      <trkpt lat="38.317364" lon="-0.721446">
        <ele>216.6</ele>
        <time>2019-12-31T13:52:24Z</time>
      </trkpt>
      <trkpt lat="38.317348" lon="-0.721365">
        <ele>216.2</ele>
        <time>2019-12-31T13:52:25Z</time>
      </trkpt>
      <trkpt lat="38.317339" lon="-0.721277">
        <ele>215.6</ele>
        <time>2019-12-31T13:52:26Z</time>
      </trkpt>
      <trkpt lat="38.317337" lon="-0.721181">
        <ele>215</ele>
        <time>2019-12-31T13:52:27Z</time>
      </trkpt>
      <trkpt lat="38.317334" lon="-0.721082">
        <ele>214.8</ele>
        <time>2019-12-31T13:52:28Z</time>
      </trkpt>
      <trkpt lat="38.317343" lon="-0.720877">
        <ele>214.4</ele>
        <time>2019-12-31T13:52:29Z</time>
      </trkpt>
      <trkpt lat="38.317343" lon="-0.720877">
        <ele>214</ele>
        <time>2019-12-31T13:52:30Z</time>
      </trkpt>
      <trkpt lat="38.317310" lon="-0.720682">
        <ele>214.4</ele>
        <time>2019-12-31T13:52:31Z</time>
      </trkpt>
      <trkpt lat="38.317278" lon="-0.720597">
        <ele>214.8</ele>
        <time>2019-12-31T13:52:32Z</time>
      </trkpt>
      <trkpt lat="38.317242" lon="-0.720515">
        <ele>214.4</ele>
        <time>2019-12-31T13:52:33Z</time>
      </trkpt>
      <trkpt lat="38.317212" lon="-0.720427">
        <ele>214.2</ele>
        <time>2019-12-31T13:52:34Z</time>
      </trkpt>
      <trkpt lat="38.317212" lon="-0.720427">
        <ele>214.2</ele>
        <time>2019-12-31T13:52:35Z</time>
      </trkpt>
      <trkpt lat="38.317192" lon="-0.720334">
        <ele>213.6</ele>
        <time>2019-12-31T13:52:36Z</time>
      </trkpt>
      <trkpt lat="38.317151" lon="-0.720133">
        <ele>212.8</ele>
        <time>2019-12-31T13:52:37Z</time>
      </trkpt>
      <trkpt lat="38.317151" lon="-0.720133">
        <ele>212.8</ele>
        <time>2019-12-31T13:52:38Z</time>
      </trkpt>
      <trkpt lat="38.317112" lon="-0.720038">
        <ele>212.8</ele>
        <time>2019-12-31T13:52:39Z</time>
      </trkpt>
      <trkpt lat="38.317063" lon="-0.719951">
        <ele>212.4</ele>
        <time>2019-12-31T13:52:40Z</time>
      </trkpt>
      <trkpt lat="38.317016" lon="-0.719867">
        <ele>212.4</ele>
        <time>2019-12-31T13:52:41Z</time>
      </trkpt>
      <trkpt lat="38.316965" lon="-0.719809">
        <ele>212.6</ele>
        <time>2019-12-31T13:52:42Z</time>
      </trkpt>
      <trkpt lat="38.316907" lon="-0.719791">
        <ele>212.8</ele>
        <time>2019-12-31T13:52:43Z</time>
      </trkpt>
      <trkpt lat="38.316850" lon="-0.719806">
        <ele>212.8</ele>
        <time>2019-12-31T13:52:44Z</time>
      </trkpt>
      <trkpt lat="38.316801" lon="-0.719846">
        <ele>212.8</ele>
        <time>2019-12-31T13:52:45Z</time>
      </trkpt>
      <trkpt lat="38.316763" lon="-0.719899">
        <ele>213.2</ele>
        <time>2019-12-31T13:52:46Z</time>
      </trkpt>
      <trkpt lat="38.316732" lon="-0.719956">
        <ele>213.6</ele>
        <time>2019-12-31T13:52:47Z</time>
      </trkpt>
      <trkpt lat="38.316699" lon="-0.720008">
        <ele>214</ele>
        <time>2019-12-31T13:52:48Z</time>
      </trkpt>
      <trkpt lat="38.316626" lon="-0.720105">
        <ele>214</ele>
        <time>2019-12-31T13:52:49Z</time>
      </trkpt>
      <trkpt lat="38.316626" lon="-0.720105">
        <ele>213.8</ele>
        <time>2019-12-31T13:52:50Z</time>
      </trkpt>
      <trkpt lat="38.316543" lon="-0.720194">
        <ele>213.2</ele>
        <time>2019-12-31T13:52:51Z</time>
      </trkpt>
      <trkpt lat="38.316495" lon="-0.720244">
        <ele>213.2</ele>
        <time>2019-12-31T13:52:52Z</time>
      </trkpt>
      <trkpt lat="38.316495" lon="-0.720244">
        <ele>212.6</ele>
        <time>2019-12-31T13:52:53Z</time>
      </trkpt>
      <trkpt lat="38.316394" lon="-0.720364">
        <ele>212.4</ele>
        <time>2019-12-31T13:52:54Z</time>
      </trkpt>
      <trkpt lat="38.316337" lon="-0.720415">
        <ele>211.8</ele>
        <time>2019-12-31T13:52:55Z</time>
      </trkpt>
      <trkpt lat="38.316337" lon="-0.720415">
        <ele>212</ele>
        <time>2019-12-31T13:52:56Z</time>
      </trkpt>
      <trkpt lat="38.316276" lon="-0.720455">
        <ele>212</ele>
        <time>2019-12-31T13:52:57Z</time>
      </trkpt>
      <trkpt lat="38.316208" lon="-0.720484">
        <ele>212.2</ele>
        <time>2019-12-31T13:52:58Z</time>
      </trkpt>
      <trkpt lat="38.316137" lon="-0.720493">
        <ele>212</ele>
        <time>2019-12-31T13:52:59Z</time>
      </trkpt>
      <trkpt lat="38.316067" lon="-0.720479">
        <ele>211.8</ele>
        <time>2019-12-31T13:53:00Z</time>
      </trkpt>
      <trkpt lat="38.316000" lon="-0.720445">
        <ele>211.6</ele>
        <time>2019-12-31T13:53:01Z</time>
      </trkpt>
      <trkpt lat="38.315941" lon="-0.720392">
        <ele>211.8</ele>
        <time>2019-12-31T13:53:02Z</time>
      </trkpt>
      <trkpt lat="38.315846" lon="-0.720257">
        <ele>211.8</ele>
        <time>2019-12-31T13:53:03Z</time>
      </trkpt>
      <trkpt lat="38.315818" lon="-0.720177">
        <ele>211.8</ele>
        <time>2019-12-31T13:53:04Z</time>
      </trkpt>
      <trkpt lat="38.315818" lon="-0.720177">
        <ele>211.8</ele>
        <time>2019-12-31T13:53:05Z</time>
      </trkpt>
      <trkpt lat="38.315799" lon="-0.720092">
        <ele>211.8</ele>
        <time>2019-12-31T13:53:06Z</time>
      </trkpt>
      <trkpt lat="38.315792" lon="-0.720006">
        <ele>211.8</ele>
        <time>2019-12-31T13:53:07Z</time>
      </trkpt>
      <trkpt lat="38.315800" lon="-0.719915">
        <ele>211.4</ele>
        <time>2019-12-31T13:53:08Z</time>
      </trkpt>
      <trkpt lat="38.315833" lon="-0.719728">
        <ele>211.2</ele>
        <time>2019-12-31T13:53:09Z</time>
      </trkpt>
      <trkpt lat="38.315833" lon="-0.719728">
        <ele>211.2</ele>
        <time>2019-12-31T13:53:10Z</time>
      </trkpt>
      <trkpt lat="38.315851" lon="-0.719631">
        <ele>211</ele>
        <time>2019-12-31T13:53:11Z</time>
      </trkpt>
      <trkpt lat="38.315871" lon="-0.719535">
        <ele>210.8</ele>
        <time>2019-12-31T13:53:12Z</time>
      </trkpt>
      <trkpt lat="38.315899" lon="-0.719340">
        <ele>211</ele>
        <time>2019-12-31T13:53:13Z</time>
      </trkpt>
      <trkpt lat="38.315899" lon="-0.719340">
        <ele>211.2</ele>
        <time>2019-12-31T13:53:14Z</time>
      </trkpt>
      <trkpt lat="38.315900" lon="-0.719243">
        <ele>211</ele>
        <time>2019-12-31T13:53:15Z</time>
      </trkpt>
      <trkpt lat="38.315871" lon="-0.719053">
        <ele>211</ele>
        <time>2019-12-31T13:53:16Z</time>
      </trkpt>
      <trkpt lat="38.315871" lon="-0.719053">
        <ele>211</ele>
        <time>2019-12-31T13:53:17Z</time>
      </trkpt>
      <trkpt lat="38.315839" lon="-0.718967">
        <ele>210.8</ele>
        <time>2019-12-31T13:53:18Z</time>
      </trkpt>
      <trkpt lat="38.315797" lon="-0.718890">
        <ele>210.6</ele>
        <time>2019-12-31T13:53:19Z</time>
      </trkpt>
      <trkpt lat="38.315759" lon="-0.718808">
        <ele>210.8</ele>
        <time>2019-12-31T13:53:20Z</time>
      </trkpt>
      <trkpt lat="38.315732" lon="-0.718722">
        <ele>210.4</ele>
        <time>2019-12-31T13:53:21Z</time>
      </trkpt>
      <trkpt lat="38.315710" lon="-0.718543">
        <ele>210.8</ele>
        <time>2019-12-31T13:53:22Z</time>
      </trkpt>
      <trkpt lat="38.315710" lon="-0.718543">
        <ele>210.8</ele>
        <time>2019-12-31T13:53:23Z</time>
      </trkpt>
      <trkpt lat="38.315712" lon="-0.718453">
        <ele>211.2</ele>
        <time>2019-12-31T13:53:24Z</time>
      </trkpt>
      <trkpt lat="38.315717" lon="-0.718362">
        <ele>211.2</ele>
        <time>2019-12-31T13:53:25Z</time>
      </trkpt>
      <trkpt lat="38.315726" lon="-0.718273">
        <ele>211.2</ele>
        <time>2019-12-31T13:53:26Z</time>
      </trkpt>
      <trkpt lat="38.315766" lon="-0.718104">
        <ele>211.2</ele>
        <time>2019-12-31T13:53:27Z</time>
      </trkpt>
      <trkpt lat="38.315766" lon="-0.718104">
        <ele>211.2</ele>
        <time>2019-12-31T13:53:28Z</time>
      </trkpt>
      <trkpt lat="38.315792" lon="-0.718022">
        <ele>211.2</ele>
        <time>2019-12-31T13:53:29Z</time>
      </trkpt>
      <trkpt lat="38.315818" lon="-0.717939">
        <ele>211.2</ele>
        <time>2019-12-31T13:53:30Z</time>
      </trkpt>
      <trkpt lat="38.315863" lon="-0.717766">
        <ele>211.2</ele>
        <time>2019-12-31T13:53:31Z</time>
      </trkpt>
      <trkpt lat="38.315863" lon="-0.717766">
        <ele>211.6</ele>
        <time>2019-12-31T13:53:32Z</time>
      </trkpt>
      <trkpt lat="38.315882" lon="-0.717678">
        <ele>211.2</ele>
        <time>2019-12-31T13:53:33Z</time>
      </trkpt>
      <trkpt lat="38.315898" lon="-0.717490">
        <ele>211</ele>
        <time>2019-12-31T13:53:34Z</time>
      </trkpt>
      <trkpt lat="38.315898" lon="-0.717490">
        <ele>211</ele>
        <time>2019-12-31T13:53:35Z</time>
      </trkpt>
      <trkpt lat="38.315883" lon="-0.717397">
        <ele>211</ele>
        <time>2019-12-31T13:53:36Z</time>
      </trkpt>
      <trkpt lat="38.315820" lon="-0.717230">
        <ele>211</ele>
        <time>2019-12-31T13:53:37Z</time>
      </trkpt>
      <trkpt lat="38.315784" lon="-0.717152">
        <ele>211.2</ele>
        <time>2019-12-31T13:53:38Z</time>
      </trkpt>
      <trkpt lat="38.315784" lon="-0.717152">
        <ele>211.2</ele>
        <time>2019-12-31T13:53:39Z</time>
      </trkpt>
      <trkpt lat="38.315751" lon="-0.717072">
        <ele>211.2</ele>
        <time>2019-12-31T13:53:40Z</time>
      </trkpt>
      <trkpt lat="38.315730" lon="-0.716989">
        <ele>211.4</ele>
        <time>2019-12-31T13:53:41Z</time>
      </trkpt>
      <trkpt lat="38.315724" lon="-0.716906">
        <ele>212</ele>
        <time>2019-12-31T13:53:42Z</time>
      </trkpt>
      <trkpt lat="38.315721" lon="-0.716826">
        <ele>213.2</ele>
        <time>2019-12-31T13:53:43Z</time>
      </trkpt>
      <trkpt lat="38.315718" lon="-0.716760">
        <ele>214</ele>
        <time>2019-12-31T13:53:44Z</time>
      </trkpt>
      <trkpt lat="38.315713" lon="-0.716701">
        <ele>214.8</ele>
        <time>2019-12-31T13:53:45Z</time>
      </trkpt>
      <trkpt lat="38.315708" lon="-0.716649">
        <ele>215.4</ele>
        <time>2019-12-31T13:53:46Z</time>
      </trkpt>
      <trkpt lat="38.315703" lon="-0.716607">
        <ele>215.8</ele>
        <time>2019-12-31T13:53:47Z</time>
      </trkpt>
      <trkpt lat="38.315700" lon="-0.716569">
        <ele>216.4</ele>
        <time>2019-12-31T13:53:48Z</time>
      </trkpt>
      <trkpt lat="38.315695" lon="-0.716530">
        <ele>216.8</ele>
        <time>2019-12-31T13:53:49Z</time>
      </trkpt>
      <trkpt lat="38.315688" lon="-0.716495">
        <ele>217.4</ele>
        <time>2019-12-31T13:53:50Z</time>
      </trkpt>
      <trkpt lat="38.315674" lon="-0.716429">
        <ele>217.6</ele>
        <time>2019-12-31T13:53:51Z</time>
      </trkpt>
      <trkpt lat="38.315674" lon="-0.716429">
        <ele>218.2</ele>
        <time>2019-12-31T13:53:52Z</time>
      </trkpt>
      <trkpt lat="38.315668" lon="-0.716393">
        <ele>218.6</ele>
        <time>2019-12-31T13:53:53Z</time>
      </trkpt>
      <trkpt lat="38.315663" lon="-0.716355">
        <ele>218.8</ele>
        <time>2019-12-31T13:53:54Z</time>
      </trkpt>
      <trkpt lat="38.315658" lon="-0.716315">
        <ele>218.8</ele>
        <time>2019-12-31T13:53:55Z</time>
      </trkpt>
      <trkpt lat="38.315646" lon="-0.716273">
        <ele>218.8</ele>
        <time>2019-12-31T13:53:56Z</time>
      </trkpt>
      <trkpt lat="38.315614" lon="-0.716188">
        <ele>218.8</ele>
        <time>2019-12-31T13:53:57Z</time>
      </trkpt>
      <trkpt lat="38.315614" lon="-0.716188">
        <ele>218.4</ele>
        <time>2019-12-31T13:53:58Z</time>
      </trkpt>
      <trkpt lat="38.315591" lon="-0.716139">
        <ele>217.8</ele>
        <time>2019-12-31T13:53:59Z</time>
      </trkpt>
      <trkpt lat="38.315567" lon="-0.716081">
        <ele>217</ele>
        <time>2019-12-31T13:54:00Z</time>
      </trkpt>
      <trkpt lat="38.315544" lon="-0.716012">
        <ele>215.8</ele>
        <time>2019-12-31T13:54:01Z</time>
      </trkpt>
      <trkpt lat="38.315488" lon="-0.715851">
        <ele>214.4</ele>
        <time>2019-12-31T13:54:02Z</time>
      </trkpt>
      <trkpt lat="38.315488" lon="-0.715851">
        <ele>213.4</ele>
        <time>2019-12-31T13:54:03Z</time>
      </trkpt>
      <trkpt lat="38.315437" lon="-0.715779">
        <ele>212.4</ele>
        <time>2019-12-31T13:54:04Z</time>
      </trkpt>
      <trkpt lat="38.315370" lon="-0.715732">
        <ele>212</ele>
        <time>2019-12-31T13:54:05Z</time>
      </trkpt>
      <trkpt lat="38.315293" lon="-0.715711">
        <ele>212</ele>
        <time>2019-12-31T13:54:06Z</time>
      </trkpt>
      <trkpt lat="38.315219" lon="-0.715699">
        <ele>212.2</ele>
        <time>2019-12-31T13:54:07Z</time>
      </trkpt>
      <trkpt lat="38.315150" lon="-0.715688">
        <ele>212.2</ele>
        <time>2019-12-31T13:54:08Z</time>
      </trkpt>
      <trkpt lat="38.315087" lon="-0.715683">
        <ele>212.6</ele>
        <time>2019-12-31T13:54:09Z</time>
      </trkpt>
      <trkpt lat="38.315025" lon="-0.715667">
        <ele>212.6</ele>
        <time>2019-12-31T13:54:10Z</time>
      </trkpt>
      <trkpt lat="38.314975" lon="-0.715637">
        <ele>212.8</ele>
        <time>2019-12-31T13:54:11Z</time>
      </trkpt>
      <trkpt lat="38.314939" lon="-0.715589">
        <ele>213</ele>
        <time>2019-12-31T13:54:12Z</time>
      </trkpt>
      <trkpt lat="38.314918" lon="-0.715528">
        <ele>213.2</ele>
        <time>2019-12-31T13:54:13Z</time>
      </trkpt>
      <trkpt lat="38.314901" lon="-0.715461">
        <ele>213</ele>
        <time>2019-12-31T13:54:14Z</time>
      </trkpt>
      <trkpt lat="38.314888" lon="-0.715391">
        <ele>213.4</ele>
        <time>2019-12-31T13:54:15Z</time>
      </trkpt>
      <trkpt lat="38.314880" lon="-0.715319">
        <ele>213.6</ele>
        <time>2019-12-31T13:54:16Z</time>
      </trkpt>
      <trkpt lat="38.314870" lon="-0.715249">
        <ele>213.6</ele>
        <time>2019-12-31T13:54:17Z</time>
      </trkpt>
      <trkpt lat="38.314857" lon="-0.715178">
        <ele>213.8</ele>
        <time>2019-12-31T13:54:18Z</time>
      </trkpt>
      <trkpt lat="38.314844" lon="-0.715110">
        <ele>214.2</ele>
        <time>2019-12-31T13:54:19Z</time>
      </trkpt>
      <trkpt lat="38.314829" lon="-0.715044">
        <ele>214.4</ele>
        <time>2019-12-31T13:54:20Z</time>
      </trkpt>
      <trkpt lat="38.314799" lon="-0.714914">
        <ele>214.6</ele>
        <time>2019-12-31T13:54:21Z</time>
      </trkpt>
      <trkpt lat="38.314799" lon="-0.714914">
        <ele>214.8</ele>
        <time>2019-12-31T13:54:22Z</time>
      </trkpt>
      <trkpt lat="38.314783" lon="-0.714852">
        <ele>215</ele>
        <time>2019-12-31T13:54:23Z</time>
      </trkpt>
      <trkpt lat="38.314770" lon="-0.714790">
        <ele>215</ele>
        <time>2019-12-31T13:54:24Z</time>
      </trkpt>
      <trkpt lat="38.314736" lon="-0.714671">
        <ele>215.4</ele>
        <time>2019-12-31T13:54:25Z</time>
      </trkpt>
      <trkpt lat="38.314736" lon="-0.714671">
        <ele>215.8</ele>
        <time>2019-12-31T13:54:26Z</time>
      </trkpt>
      <trkpt lat="38.314722" lon="-0.714618">
        <ele>216.6</ele>
        <time>2019-12-31T13:54:27Z</time>
      </trkpt>
      <trkpt lat="38.314693" lon="-0.714534">
        <ele>216.8</ele>
        <time>2019-12-31T13:54:28Z</time>
      </trkpt>
      <trkpt lat="38.314693" lon="-0.714534">
        <ele>216.8</ele>
        <time>2019-12-31T13:54:29Z</time>
      </trkpt>
      <trkpt lat="38.314684" lon="-0.714487">
        <ele>217</ele>
        <time>2019-12-31T13:54:30Z</time>
      </trkpt>
      <trkpt lat="38.314689" lon="-0.714442">
        <ele>217.2</ele>
        <time>2019-12-31T13:54:31Z</time>
      </trkpt>
      <trkpt lat="38.314705" lon="-0.714397">
        <ele>217.2</ele>
        <time>2019-12-31T13:54:32Z</time>
      </trkpt>
      <trkpt lat="38.314724" lon="-0.714350">
        <ele>217.2</ele>
        <time>2019-12-31T13:54:33Z</time>
      </trkpt>
      <trkpt lat="38.314761" lon="-0.714237">
        <ele>217</ele>
        <time>2019-12-31T13:54:34Z</time>
      </trkpt>
      <trkpt lat="38.314761" lon="-0.714237">
        <ele>216.8</ele>
        <time>2019-12-31T13:54:35Z</time>
      </trkpt>
      <trkpt lat="38.314771" lon="-0.714170">
        <ele>216.6</ele>
        <time>2019-12-31T13:54:36Z</time>
      </trkpt>
      <trkpt lat="38.314777" lon="-0.714098">
        <ele>216.4</ele>
        <time>2019-12-31T13:54:37Z</time>
      </trkpt>
      <trkpt lat="38.314780" lon="-0.714024">
        <ele>216.2</ele>
        <time>2019-12-31T13:54:38Z</time>
      </trkpt>
      <trkpt lat="38.314786" lon="-0.713947">
        <ele>215.8</ele>
        <time>2019-12-31T13:54:39Z</time>
      </trkpt>
      <trkpt lat="38.314796" lon="-0.713869">
        <ele>215.8</ele>
        <time>2019-12-31T13:54:40Z</time>
      </trkpt>
      <trkpt lat="38.314815" lon="-0.713792">
        <ele>215.8</ele>
        <time>2019-12-31T13:54:41Z</time>
      </trkpt>
      <trkpt lat="38.314842" lon="-0.713716">
        <ele>215.4</ele>
        <time>2019-12-31T13:54:42Z</time>
      </trkpt>
      <trkpt lat="38.314910" lon="-0.713578">
        <ele>215.4</ele>
        <time>2019-12-31T13:54:43Z</time>
      </trkpt>
      <trkpt lat="38.314910" lon="-0.713578">
        <ele>215.6</ele>
        <time>2019-12-31T13:54:44Z</time>
      </trkpt>
      <trkpt lat="38.314946" lon="-0.713514">
        <ele>215.8</ele>
        <time>2019-12-31T13:54:45Z</time>
      </trkpt>
      <trkpt lat="38.315022" lon="-0.713399">
        <ele>216.2</ele>
        <time>2019-12-31T13:54:46Z</time>
      </trkpt>
      <trkpt lat="38.315022" lon="-0.713399">
        <ele>216.2</ele>
        <time>2019-12-31T13:54:47Z</time>
      </trkpt>
      <trkpt lat="38.315061" lon="-0.713346">
        <ele>216.4</ele>
        <time>2019-12-31T13:54:48Z</time>
      </trkpt>
      <trkpt lat="38.315099" lon="-0.713296">
        <ele>216.8</ele>
        <time>2019-12-31T13:54:49Z</time>
      </trkpt>
      <trkpt lat="38.315134" lon="-0.713246">
        <ele>217</ele>
        <time>2019-12-31T13:54:50Z</time>
      </trkpt>
      <trkpt lat="38.315168" lon="-0.713203">
        <ele>217.4</ele>
        <time>2019-12-31T13:54:51Z</time>
      </trkpt>
      <trkpt lat="38.315225" lon="-0.713127">
        <ele>217.8</ele>
        <time>2019-12-31T13:54:52Z</time>
      </trkpt>
      <trkpt lat="38.315225" lon="-0.713127">
        <ele>218.4</ele>
        <time>2019-12-31T13:54:53Z</time>
      </trkpt>
      <trkpt lat="38.315251" lon="-0.713091">
        <ele>219</ele>
        <time>2019-12-31T13:54:54Z</time>
      </trkpt>
      <trkpt lat="38.315274" lon="-0.713056">
        <ele>219.4</ele>
        <time>2019-12-31T13:54:55Z</time>
      </trkpt>
      <trkpt lat="38.315297" lon="-0.713025">
        <ele>219.6</ele>
        <time>2019-12-31T13:54:56Z</time>
      </trkpt>
      <trkpt lat="38.315319" lon="-0.712997">
        <ele>219.8</ele>
        <time>2019-12-31T13:54:57Z</time>
      </trkpt>
      <trkpt lat="38.315365" lon="-0.712935">
        <ele>220.2</ele>
        <time>2019-12-31T13:54:58Z</time>
      </trkpt>
      <trkpt lat="38.315365" lon="-0.712935">
        <ele>220.6</ele>
        <time>2019-12-31T13:54:59Z</time>
      </trkpt>
      <trkpt lat="38.315404" lon="-0.712864">
        <ele>220.8</ele>
        <time>2019-12-31T13:55:00Z</time>
      </trkpt>
      <trkpt lat="38.315404" lon="-0.712864">
        <ele>221.2</ele>
        <time>2019-12-31T13:55:01Z</time>
      </trkpt>
      <trkpt lat="38.315422" lon="-0.712828">
        <ele>221.4</ele>
        <time>2019-12-31T13:55:02Z</time>
      </trkpt>
      <trkpt lat="38.315438" lon="-0.712790">
        <ele>221.6</ele>
        <time>2019-12-31T13:55:03Z</time>
      </trkpt>
      <trkpt lat="38.315452" lon="-0.712750">
        <ele>222.2</ele>
        <time>2019-12-31T13:55:04Z</time>
      </trkpt>
      <trkpt lat="38.315466" lon="-0.712711">
        <ele>222.4</ele>
        <time>2019-12-31T13:55:05Z</time>
      </trkpt>
      <trkpt lat="38.315479" lon="-0.712674">
        <ele>222.8</ele>
        <time>2019-12-31T13:55:06Z</time>
      </trkpt>
      <trkpt lat="38.315492" lon="-0.712636">
        <ele>223.4</ele>
        <time>2019-12-31T13:55:07Z</time>
      </trkpt>
      <trkpt lat="38.315504" lon="-0.712600">
        <ele>224</ele>
        <time>2019-12-31T13:55:08Z</time>
      </trkpt>
      <trkpt lat="38.315514" lon="-0.712570">
        <ele>224.2</ele>
        <time>2019-12-31T13:55:09Z</time>
      </trkpt>
      <trkpt lat="38.315539" lon="-0.712515">
        <ele>224.6</ele>
        <time>2019-12-31T13:55:10Z</time>
      </trkpt>
      <trkpt lat="38.315539" lon="-0.712515">
        <ele>225</ele>
        <time>2019-12-31T13:55:11Z</time>
      </trkpt>
      <trkpt lat="38.315551" lon="-0.712487">
        <ele>225.4</ele>
        <time>2019-12-31T13:55:12Z</time>
      </trkpt>
      <trkpt lat="38.315561" lon="-0.712458">
        <ele>225.8</ele>
        <time>2019-12-31T13:55:13Z</time>
      </trkpt>
      <trkpt lat="38.315570" lon="-0.712430">
        <ele>226.2</ele>
        <time>2019-12-31T13:55:14Z</time>
      </trkpt>
      <trkpt lat="38.315581" lon="-0.712403">
        <ele>226.6</ele>
        <time>2019-12-31T13:55:15Z</time>
      </trkpt>
      <trkpt lat="38.315604" lon="-0.712351">
        <ele>226.8</ele>
        <time>2019-12-31T13:55:16Z</time>
      </trkpt>
      <trkpt lat="38.315604" lon="-0.712351">
        <ele>227.2</ele>
        <time>2019-12-31T13:55:17Z</time>
      </trkpt>
      <trkpt lat="38.315616" lon="-0.712325">
        <ele>227.6</ele>
        <time>2019-12-31T13:55:18Z</time>
      </trkpt>
      <trkpt lat="38.315641" lon="-0.712276">
        <ele>228</ele>
        <time>2019-12-31T13:55:19Z</time>
      </trkpt>
      <trkpt lat="38.315641" lon="-0.712276">
        <ele>228.4</ele>
        <time>2019-12-31T13:55:20Z</time>
      </trkpt>
      <trkpt lat="38.315654" lon="-0.712251">
        <ele>228.8</ele>
        <time>2019-12-31T13:55:21Z</time>
      </trkpt>
      <trkpt lat="38.315665" lon="-0.712227">
        <ele>229</ele>
        <time>2019-12-31T13:55:22Z</time>
      </trkpt>
      <trkpt lat="38.315677" lon="-0.712205">
        <ele>229.4</ele>
        <time>2019-12-31T13:55:23Z</time>
      </trkpt>
      <trkpt lat="38.315704" lon="-0.712161">
        <ele>229.8</ele>
        <time>2019-12-31T13:55:24Z</time>
      </trkpt>
      <trkpt lat="38.315704" lon="-0.712161">
        <ele>230.2</ele>
        <time>2019-12-31T13:55:25Z</time>
      </trkpt>
      <trkpt lat="38.315715" lon="-0.712139">
        <ele>230.6</ele>
        <time>2019-12-31T13:55:26Z</time>
      </trkpt>
      <trkpt lat="38.315728" lon="-0.712119">
        <ele>230.8</ele>
        <time>2019-12-31T13:55:27Z</time>
      </trkpt>
      <trkpt lat="38.315740" lon="-0.712096">
        <ele>231.2</ele>
        <time>2019-12-31T13:55:28Z</time>
      </trkpt>
      <trkpt lat="38.315748" lon="-0.712072">
        <ele>231.6</ele>
        <time>2019-12-31T13:55:29Z</time>
      </trkpt>
      <trkpt lat="38.315756" lon="-0.712051">
        <ele>231.8</ele>
        <time>2019-12-31T13:55:30Z</time>
      </trkpt>
      <trkpt lat="38.315765" lon="-0.712029">
        <ele>232</ele>
        <time>2019-12-31T13:55:31Z</time>
      </trkpt>
      <trkpt lat="38.315775" lon="-0.712008">
        <ele>232.4</ele>
        <time>2019-12-31T13:55:32Z</time>
      </trkpt>
      <trkpt lat="38.315786" lon="-0.711987">
        <ele>232.6</ele>
        <time>2019-12-31T13:55:33Z</time>
      </trkpt>
      <trkpt lat="38.315795" lon="-0.711966">
        <ele>233</ele>
        <time>2019-12-31T13:55:34Z</time>
      </trkpt>
      <trkpt lat="38.315806" lon="-0.711946">
        <ele>233.2</ele>
        <time>2019-12-31T13:55:35Z</time>
      </trkpt>
      <trkpt lat="38.315817" lon="-0.711924">
        <ele>233.4</ele>
        <time>2019-12-31T13:55:36Z</time>
      </trkpt>
      <trkpt lat="38.315829" lon="-0.711903">
        <ele>233.8</ele>
        <time>2019-12-31T13:55:37Z</time>
      </trkpt>
      <trkpt lat="38.315841" lon="-0.711883">
        <ele>234.2</ele>
        <time>2019-12-31T13:55:38Z</time>
      </trkpt>
      <trkpt lat="38.315853" lon="-0.711862">
        <ele>234.4</ele>
        <time>2019-12-31T13:55:39Z</time>
      </trkpt>
      <trkpt lat="38.315866" lon="-0.711840">
        <ele>234.6</ele>
        <time>2019-12-31T13:55:40Z</time>
      </trkpt>
      <trkpt lat="38.315878" lon="-0.711818">
        <ele>235</ele>
        <time>2019-12-31T13:55:41Z</time>
      </trkpt>
      <trkpt lat="38.315903" lon="-0.711774">
        <ele>235.2</ele>
        <time>2019-12-31T13:55:42Z</time>
      </trkpt>
      <trkpt lat="38.315915" lon="-0.711752">
        <ele>235.4</ele>
        <time>2019-12-31T13:55:43Z</time>
      </trkpt>
      <trkpt lat="38.315928" lon="-0.711730">
        <ele>235.8</ele>
        <time>2019-12-31T13:55:44Z</time>
      </trkpt>
      <trkpt lat="38.315928" lon="-0.711730">
        <ele>235.8</ele>
        <time>2019-12-31T13:55:45Z</time>
      </trkpt>
      <trkpt lat="38.315943" lon="-0.711709">
        <ele>236</ele>
        <time>2019-12-31T13:55:46Z</time>
      </trkpt>
      <trkpt lat="38.315953" lon="-0.711686">
        <ele>236.2</ele>
        <time>2019-12-31T13:55:47Z</time>
      </trkpt>
      <trkpt lat="38.315962" lon="-0.711662">
        <ele>236.6</ele>
        <time>2019-12-31T13:55:48Z</time>
      </trkpt>
      <trkpt lat="38.315993" lon="-0.711620">
        <ele>236.8</ele>
        <time>2019-12-31T13:55:49Z</time>
      </trkpt>
      <trkpt lat="38.315993" lon="-0.711620">
        <ele>236.8</ele>
        <time>2019-12-31T13:55:50Z</time>
      </trkpt>
      <trkpt lat="38.316008" lon="-0.711599">
        <ele>237.2</ele>
        <time>2019-12-31T13:55:51Z</time>
      </trkpt>
      <trkpt lat="38.316022" lon="-0.711575">
        <ele>237.2</ele>
        <time>2019-12-31T13:55:52Z</time>
      </trkpt>
      <trkpt lat="38.316038" lon="-0.711551">
        <ele>237.4</ele>
        <time>2019-12-31T13:55:53Z</time>
      </trkpt>
      <trkpt lat="38.316054" lon="-0.711527">
        <ele>237.8</ele>
        <time>2019-12-31T13:55:54Z</time>
      </trkpt>
      <trkpt lat="38.316072" lon="-0.711506">
        <ele>237.8</ele>
        <time>2019-12-31T13:55:55Z</time>
      </trkpt>
      <trkpt lat="38.316091" lon="-0.711485">
        <ele>238</ele>
        <time>2019-12-31T13:55:56Z</time>
      </trkpt>
      <trkpt lat="38.316110" lon="-0.711462">
        <ele>238</ele>
        <time>2019-12-31T13:55:57Z</time>
      </trkpt>
      <trkpt lat="38.316149" lon="-0.711413">
        <ele>238.2</ele>
        <time>2019-12-31T13:55:58Z</time>
      </trkpt>
      <trkpt lat="38.316149" lon="-0.711413">
        <ele>238.6</ele>
        <time>2019-12-31T13:55:59Z</time>
      </trkpt>
      <trkpt lat="38.316169" lon="-0.711388">
        <ele>238.8</ele>
        <time>2019-12-31T13:56:00Z</time>
      </trkpt>
      <trkpt lat="38.316189" lon="-0.711363">
        <ele>238.8</ele>
        <time>2019-12-31T13:56:01Z</time>
      </trkpt>
      <trkpt lat="38.316228" lon="-0.711307">
        <ele>239</ele>
        <time>2019-12-31T13:56:02Z</time>
      </trkpt>
      <trkpt lat="38.316228" lon="-0.711307">
        <ele>239</ele>
        <time>2019-12-31T13:56:03Z</time>
      </trkpt>
      <trkpt lat="38.316270" lon="-0.711252">
        <ele>239.2</ele>
        <time>2019-12-31T13:56:04Z</time>
      </trkpt>
      <trkpt lat="38.316270" lon="-0.711252">
        <ele>239.4</ele>
        <time>2019-12-31T13:56:05Z</time>
      </trkpt>
      <trkpt lat="38.316289" lon="-0.711224">
        <ele>239.4</ele>
        <time>2019-12-31T13:56:06Z</time>
      </trkpt>
      <trkpt lat="38.316329" lon="-0.711164">
        <ele>239.6</ele>
        <time>2019-12-31T13:56:07Z</time>
      </trkpt>
      <trkpt lat="38.316329" lon="-0.711164">
        <ele>239.6</ele>
        <time>2019-12-31T13:56:08Z</time>
      </trkpt>
      <trkpt lat="38.316350" lon="-0.711132">
        <ele>239.6</ele>
        <time>2019-12-31T13:56:09Z</time>
      </trkpt>
      <trkpt lat="38.316370" lon="-0.711100">
        <ele>239.8</ele>
        <time>2019-12-31T13:56:10Z</time>
      </trkpt>
      <trkpt lat="38.316391" lon="-0.711066">
        <ele>240</ele>
        <time>2019-12-31T13:56:11Z</time>
      </trkpt>
      <trkpt lat="38.316409" lon="-0.711030">
        <ele>240</ele>
        <time>2019-12-31T13:56:12Z</time>
      </trkpt>
      <trkpt lat="38.316428" lon="-0.710994">
        <ele>240.2</ele>
        <time>2019-12-31T13:56:13Z</time>
      </trkpt>
      <trkpt lat="38.316447" lon="-0.710958">
        <ele>240.2</ele>
        <time>2019-12-31T13:56:14Z</time>
      </trkpt>
      <trkpt lat="38.316464" lon="-0.710922">
        <ele>240.4</ele>
        <time>2019-12-31T13:56:15Z</time>
      </trkpt>
      <trkpt lat="38.316483" lon="-0.710885">
        <ele>240.8</ele>
        <time>2019-12-31T13:56:16Z</time>
      </trkpt>
      <trkpt lat="38.316502" lon="-0.710848">
        <ele>240.8</ele>
        <time>2019-12-31T13:56:17Z</time>
      </trkpt>
      <trkpt lat="38.316521" lon="-0.710812">
        <ele>240.8</ele>
        <time>2019-12-31T13:56:18Z</time>
      </trkpt>
      <trkpt lat="38.316540" lon="-0.710774">
        <ele>241.2</ele>
        <time>2019-12-31T13:56:19Z</time>
      </trkpt>
      <trkpt lat="38.316558" lon="-0.710735">
        <ele>241.2</ele>
        <time>2019-12-31T13:56:20Z</time>
      </trkpt>
      <trkpt lat="38.316597" lon="-0.710654">
        <ele>241.2</ele>
        <time>2019-12-31T13:56:21Z</time>
      </trkpt>
      <trkpt lat="38.316597" lon="-0.710654">
        <ele>241.2</ele>
        <time>2019-12-31T13:56:22Z</time>
      </trkpt>
      <trkpt lat="38.316637" lon="-0.710574">
        <ele>241.6</ele>
        <time>2019-12-31T13:56:23Z</time>
      </trkpt>
      <trkpt lat="38.316659" lon="-0.710533">
        <ele>241.8</ele>
        <time>2019-12-31T13:56:24Z</time>
      </trkpt>
      <trkpt lat="38.316659" lon="-0.710533">
        <ele>241.8</ele>
        <time>2019-12-31T13:56:25Z</time>
      </trkpt>
      <trkpt lat="38.316679" lon="-0.710489">
        <ele>241.8</ele>
        <time>2019-12-31T13:56:26Z</time>
      </trkpt>
      <trkpt lat="38.316699" lon="-0.710446">
        <ele>242.2</ele>
        <time>2019-12-31T13:56:27Z</time>
      </trkpt>
      <trkpt lat="38.316720" lon="-0.710401">
        <ele>242.4</ele>
        <time>2019-12-31T13:56:28Z</time>
      </trkpt>
      <trkpt lat="38.316741" lon="-0.710357">
        <ele>242.4</ele>
        <time>2019-12-31T13:56:29Z</time>
      </trkpt>
      <trkpt lat="38.316760" lon="-0.710313">
        <ele>242.4</ele>
        <time>2019-12-31T13:56:30Z</time>
      </trkpt>
      <trkpt lat="38.316781" lon="-0.710268">
        <ele>242.8</ele>
        <time>2019-12-31T13:56:31Z</time>
      </trkpt>
      <trkpt lat="38.316804" lon="-0.710221">
        <ele>242.6</ele>
        <time>2019-12-31T13:56:32Z</time>
      </trkpt>
      <trkpt lat="38.316828" lon="-0.710175">
        <ele>242.8</ele>
        <time>2019-12-31T13:56:33Z</time>
      </trkpt>
      <trkpt lat="38.316853" lon="-0.710130">
        <ele>243</ele>
        <time>2019-12-31T13:56:34Z</time>
      </trkpt>
      <trkpt lat="38.316879" lon="-0.710085">
        <ele>243.4</ele>
        <time>2019-12-31T13:56:35Z</time>
      </trkpt>
      <trkpt lat="38.316907" lon="-0.710043">
        <ele>243.4</ele>
        <time>2019-12-31T13:56:36Z</time>
      </trkpt>
      <trkpt lat="38.316968" lon="-0.709960">
        <ele>243.4</ele>
        <time>2019-12-31T13:56:37Z</time>
      </trkpt>
      <trkpt lat="38.316999" lon="-0.709919">
        <ele>243.4</ele>
        <time>2019-12-31T13:56:38Z</time>
      </trkpt>
      <trkpt lat="38.316999" lon="-0.709919">
        <ele>243.8</ele>
        <time>2019-12-31T13:56:39Z</time>
      </trkpt>
      <trkpt lat="38.317031" lon="-0.709879">
        <ele>243.8</ele>
        <time>2019-12-31T13:56:40Z</time>
      </trkpt>
      <trkpt lat="38.317098" lon="-0.709803">
        <ele>243.8</ele>
        <time>2019-12-31T13:56:41Z</time>
      </trkpt>
      <trkpt lat="38.317098" lon="-0.709803">
        <ele>243.8</ele>
        <time>2019-12-31T13:56:42Z</time>
      </trkpt>
      <trkpt lat="38.317132" lon="-0.709764">
        <ele>244</ele>
        <time>2019-12-31T13:56:43Z</time>
      </trkpt>
      <trkpt lat="38.317167" lon="-0.709726">
        <ele>244.2</ele>
        <time>2019-12-31T13:56:44Z</time>
      </trkpt>
      <trkpt lat="38.317202" lon="-0.709686">
        <ele>244.2</ele>
        <time>2019-12-31T13:56:45Z</time>
      </trkpt>
      <trkpt lat="38.317237" lon="-0.709647">
        <ele>244.4</ele>
        <time>2019-12-31T13:56:46Z</time>
      </trkpt>
      <trkpt lat="38.317272" lon="-0.709608">
        <ele>244.6</ele>
        <time>2019-12-31T13:56:47Z</time>
      </trkpt>
      <trkpt lat="38.317306" lon="-0.709568">
        <ele>244.6</ele>
        <time>2019-12-31T13:56:48Z</time>
      </trkpt>
      <trkpt lat="38.317342" lon="-0.709530">
        <ele>245</ele>
        <time>2019-12-31T13:56:49Z</time>
      </trkpt>
      <trkpt lat="38.317378" lon="-0.709492">
        <ele>245.2</ele>
        <time>2019-12-31T13:56:50Z</time>
      </trkpt>
      <trkpt lat="38.317411" lon="-0.709452">
        <ele>245.2</ele>
        <time>2019-12-31T13:56:51Z</time>
      </trkpt>
      <trkpt lat="38.317444" lon="-0.709412">
        <ele>245.4</ele>
        <time>2019-12-31T13:56:52Z</time>
      </trkpt>
      <trkpt lat="38.317478" lon="-0.709373">
        <ele>245.6</ele>
        <time>2019-12-31T13:56:53Z</time>
      </trkpt>
      <trkpt lat="38.317510" lon="-0.709335">
        <ele>245.8</ele>
        <time>2019-12-31T13:56:54Z</time>
      </trkpt>
      <trkpt lat="38.317544" lon="-0.709296">
        <ele>246</ele>
        <time>2019-12-31T13:56:55Z</time>
      </trkpt>
      <trkpt lat="38.317576" lon="-0.709257">
        <ele>246.2</ele>
        <time>2019-12-31T13:56:56Z</time>
      </trkpt>
      <trkpt lat="38.317608" lon="-0.709217">
        <ele>246.4</ele>
        <time>2019-12-31T13:56:57Z</time>
      </trkpt>
      <trkpt lat="38.317639" lon="-0.709178">
        <ele>246.6</ele>
        <time>2019-12-31T13:56:58Z</time>
      </trkpt>
      <trkpt lat="38.317671" lon="-0.709140">
        <ele>246.8</ele>
        <time>2019-12-31T13:56:59Z</time>
      </trkpt>
      <trkpt lat="38.317697" lon="-0.709096">
        <ele>247</ele>
        <time>2019-12-31T13:57:00Z</time>
      </trkpt>
      <trkpt lat="38.317712" lon="-0.709048">
        <ele>247</ele>
        <time>2019-12-31T13:57:01Z</time>
      </trkpt>
      <trkpt lat="38.317718" lon="-0.708998">
        <ele>247.2</ele>
        <time>2019-12-31T13:57:02Z</time>
      </trkpt>
      <trkpt lat="38.317725" lon="-0.708945">
        <ele>247.4</ele>
        <time>2019-12-31T13:57:03Z</time>
      </trkpt>
      <trkpt lat="38.317732" lon="-0.708890">
        <ele>247.6</ele>
        <time>2019-12-31T13:57:04Z</time>
      </trkpt>
      <trkpt lat="38.317739" lon="-0.708836">
        <ele>247.6</ele>
        <time>2019-12-31T13:57:05Z</time>
      </trkpt>
      <trkpt lat="38.317748" lon="-0.708781">
        <ele>247.8</ele>
        <time>2019-12-31T13:57:06Z</time>
      </trkpt>
      <trkpt lat="38.317773" lon="-0.708673">
        <ele>248.2</ele>
        <time>2019-12-31T13:57:07Z</time>
      </trkpt>
      <trkpt lat="38.317773" lon="-0.708673">
        <ele>248</ele>
        <time>2019-12-31T13:57:08Z</time>
      </trkpt>
      <trkpt lat="38.317790" lon="-0.708621">
        <ele>248.2</ele>
        <time>2019-12-31T13:57:09Z</time>
      </trkpt>
      <trkpt lat="38.317811" lon="-0.708571">
        <ele>248.2</ele>
        <time>2019-12-31T13:57:10Z</time>
      </trkpt>
      <trkpt lat="38.317863" lon="-0.708479">
        <ele>248.4</ele>
        <time>2019-12-31T13:57:11Z</time>
      </trkpt>
      <trkpt lat="38.317863" lon="-0.708479">
        <ele>248.6</ele>
        <time>2019-12-31T13:57:12Z</time>
      </trkpt>
      <trkpt lat="38.317892" lon="-0.708435">
        <ele>249</ele>
        <time>2019-12-31T13:57:13Z</time>
      </trkpt>
      <trkpt lat="38.317921" lon="-0.708394">
        <ele>249.2</ele>
        <time>2019-12-31T13:57:14Z</time>
      </trkpt>
      <trkpt lat="38.317951" lon="-0.708353">
        <ele>249.4</ele>
        <time>2019-12-31T13:57:15Z</time>
      </trkpt>
      <trkpt lat="38.317981" lon="-0.708313">
        <ele>249.6</ele>
        <time>2019-12-31T13:57:16Z</time>
      </trkpt>
      <trkpt lat="38.318013" lon="-0.708274">
        <ele>249.8</ele>
        <time>2019-12-31T13:57:17Z</time>
      </trkpt>
      <trkpt lat="38.318046" lon="-0.708237">
        <ele>249.8</ele>
        <time>2019-12-31T13:57:18Z</time>
      </trkpt>
      <trkpt lat="38.318116" lon="-0.708166">
        <ele>250.2</ele>
        <time>2019-12-31T13:57:19Z</time>
      </trkpt>
      <trkpt lat="38.318116" lon="-0.708166">
        <ele>250.4</ele>
        <time>2019-12-31T13:57:20Z</time>
      </trkpt>
      <trkpt lat="38.318153" lon="-0.708131">
        <ele>250.4</ele>
        <time>2019-12-31T13:57:21Z</time>
      </trkpt>
      <trkpt lat="38.318192" lon="-0.708098">
        <ele>250.2</ele>
        <time>2019-12-31T13:57:22Z</time>
      </trkpt>
      <trkpt lat="38.318230" lon="-0.708066">
        <ele>250.4</ele>
        <time>2019-12-31T13:57:23Z</time>
      </trkpt>
      <trkpt lat="38.318269" lon="-0.708031">
        <ele>250.6</ele>
        <time>2019-12-31T13:57:24Z</time>
      </trkpt>
      <trkpt lat="38.318309" lon="-0.707997">
        <ele>250.8</ele>
        <time>2019-12-31T13:57:25Z</time>
      </trkpt>
      <trkpt lat="38.318346" lon="-0.707962">
        <ele>251</ele>
        <time>2019-12-31T13:57:26Z</time>
      </trkpt>
      <trkpt lat="38.318385" lon="-0.707931">
        <ele>251.2</ele>
        <time>2019-12-31T13:57:27Z</time>
      </trkpt>
      <trkpt lat="38.318423" lon="-0.707900">
        <ele>251.6</ele>
        <time>2019-12-31T13:57:28Z</time>
      </trkpt>
      <trkpt lat="38.318496" lon="-0.707834">
        <ele>251.8</ele>
        <time>2019-12-31T13:57:29Z</time>
      </trkpt>
      <trkpt lat="38.318496" lon="-0.707834">
        <ele>251.8</ele>
        <time>2019-12-31T13:57:30Z</time>
      </trkpt>
      <trkpt lat="38.318531" lon="-0.707800">
        <ele>252</ele>
        <time>2019-12-31T13:57:31Z</time>
      </trkpt>
      <trkpt lat="38.318565" lon="-0.707764">
        <ele>252.4</ele>
        <time>2019-12-31T13:57:32Z</time>
      </trkpt>
      <trkpt lat="38.318597" lon="-0.707730">
        <ele>252.8</ele>
        <time>2019-12-31T13:57:33Z</time>
      </trkpt>
      <trkpt lat="38.318630" lon="-0.707699">
        <ele>253.2</ele>
        <time>2019-12-31T13:57:34Z</time>
      </trkpt>
      <trkpt lat="38.318660" lon="-0.707671">
        <ele>253.8</ele>
        <time>2019-12-31T13:57:35Z</time>
      </trkpt>
      <trkpt lat="38.318687" lon="-0.707644">
        <ele>254</ele>
        <time>2019-12-31T13:57:36Z</time>
      </trkpt>
      <trkpt lat="38.318714" lon="-0.707616">
        <ele>254.2</ele>
        <time>2019-12-31T13:57:37Z</time>
      </trkpt>
      <trkpt lat="38.318741" lon="-0.707588">
        <ele>254.4</ele>
        <time>2019-12-31T13:57:38Z</time>
      </trkpt>
      <trkpt lat="38.318797" lon="-0.707528">
        <ele>254.6</ele>
        <time>2019-12-31T13:57:39Z</time>
      </trkpt>
      <trkpt lat="38.318797" lon="-0.707528">
        <ele>254.6</ele>
        <time>2019-12-31T13:57:40Z</time>
      </trkpt>
      <trkpt lat="38.318826" lon="-0.707497">
        <ele>254.6</ele>
        <time>2019-12-31T13:57:41Z</time>
      </trkpt>
      <trkpt lat="38.318859" lon="-0.707466">
        <ele>254.6</ele>
        <time>2019-12-31T13:57:42Z</time>
      </trkpt>
      <trkpt lat="38.318922" lon="-0.707395">
        <ele>254.8</ele>
        <time>2019-12-31T13:57:43Z</time>
      </trkpt>
      <trkpt lat="38.318922" lon="-0.707395">
        <ele>254.8</ele>
        <time>2019-12-31T13:57:44Z</time>
      </trkpt>
      <trkpt lat="38.318954" lon="-0.707356">
        <ele>255</ele>
        <time>2019-12-31T13:57:45Z</time>
      </trkpt>
      <trkpt lat="38.318987" lon="-0.707316">
        <ele>255.2</ele>
        <time>2019-12-31T13:57:46Z</time>
      </trkpt>
      <trkpt lat="38.319020" lon="-0.707272">
        <ele>255.2</ele>
        <time>2019-12-31T13:57:47Z</time>
      </trkpt>
      <trkpt lat="38.319047" lon="-0.707229">
        <ele>255</ele>
        <time>2019-12-31T13:57:48Z</time>
      </trkpt>
      <trkpt lat="38.319098" lon="-0.707131">
        <ele>255.2</ele>
        <time>2019-12-31T13:57:49Z</time>
      </trkpt>
      <trkpt lat="38.319098" lon="-0.707131">
        <ele>255.4</ele>
        <time>2019-12-31T13:57:50Z</time>
      </trkpt>
      <trkpt lat="38.319122" lon="-0.707082">
        <ele>255.6</ele>
        <time>2019-12-31T13:57:51Z</time>
      </trkpt>
      <trkpt lat="38.319144" lon="-0.707034">
        <ele>256</ele>
        <time>2019-12-31T13:57:52Z</time>
      </trkpt>
      <trkpt lat="38.319167" lon="-0.706986">
        <ele>256</ele>
        <time>2019-12-31T13:57:53Z</time>
      </trkpt>
      <trkpt lat="38.319190" lon="-0.706941">
        <ele>256.2</ele>
        <time>2019-12-31T13:57:54Z</time>
      </trkpt>
      <trkpt lat="38.319213" lon="-0.706897">
        <ele>256.6</ele>
        <time>2019-12-31T13:57:55Z</time>
      </trkpt>
      <trkpt lat="38.319236" lon="-0.706855">
        <ele>257</ele>
        <time>2019-12-31T13:57:56Z</time>
      </trkpt>
      <trkpt lat="38.319257" lon="-0.706818">
        <ele>257.2</ele>
        <time>2019-12-31T13:57:57Z</time>
      </trkpt>
      <trkpt lat="38.319274" lon="-0.706780">
        <ele>257.4</ele>
        <time>2019-12-31T13:57:58Z</time>
      </trkpt>
      <trkpt lat="38.319313" lon="-0.706709">
        <ele>257.6</ele>
        <time>2019-12-31T13:57:59Z</time>
      </trkpt>
      <trkpt lat="38.319313" lon="-0.706709">
        <ele>258</ele>
        <time>2019-12-31T13:58:00Z</time>
      </trkpt>
      <trkpt lat="38.319339" lon="-0.706670">
        <ele>258.2</ele>
        <time>2019-12-31T13:58:01Z</time>
      </trkpt>
      <trkpt lat="38.319362" lon="-0.706637">
        <ele>258.4</ele>
        <time>2019-12-31T13:58:02Z</time>
      </trkpt>
      <trkpt lat="38.319386" lon="-0.706600">
        <ele>258.8</ele>
        <time>2019-12-31T13:58:03Z</time>
      </trkpt>
      <trkpt lat="38.319407" lon="-0.706566">
        <ele>259</ele>
        <time>2019-12-31T13:58:04Z</time>
      </trkpt>
      <trkpt lat="38.319426" lon="-0.706529">
        <ele>259.4</ele>
        <time>2019-12-31T13:58:05Z</time>
      </trkpt>
      <trkpt lat="38.319439" lon="-0.706494">
        <ele>259.4</ele>
        <time>2019-12-31T13:58:06Z</time>
      </trkpt>
      <trkpt lat="38.319452" lon="-0.706456">
        <ele>260</ele>
        <time>2019-12-31T13:58:07Z</time>
      </trkpt>
      <trkpt lat="38.319466" lon="-0.706415">
        <ele>260.2</ele>
        <time>2019-12-31T13:58:08Z</time>
      </trkpt>
      <trkpt lat="38.319500" lon="-0.706335">
        <ele>260.2</ele>
        <time>2019-12-31T13:58:09Z</time>
      </trkpt>
      <trkpt lat="38.319500" lon="-0.706335">
        <ele>260.6</ele>
        <time>2019-12-31T13:58:10Z</time>
      </trkpt>
      <trkpt lat="38.319519" lon="-0.706292">
        <ele>261</ele>
        <time>2019-12-31T13:58:11Z</time>
      </trkpt>
      <trkpt lat="38.319532" lon="-0.706248">
        <ele>261.2</ele>
        <time>2019-12-31T13:58:12Z</time>
      </trkpt>
      <trkpt lat="38.319543" lon="-0.706203">
        <ele>261.8</ele>
        <time>2019-12-31T13:58:13Z</time>
      </trkpt>
      <trkpt lat="38.319553" lon="-0.706158">
        <ele>262.2</ele>
        <time>2019-12-31T13:58:14Z</time>
      </trkpt>
      <trkpt lat="38.319564" lon="-0.706117">
        <ele>262.6</ele>
        <time>2019-12-31T13:58:15Z</time>
      </trkpt>
      <trkpt lat="38.319576" lon="-0.706080">
        <ele>263.2</ele>
        <time>2019-12-31T13:58:16Z</time>
      </trkpt>
      <trkpt lat="38.319586" lon="-0.706053">
        <ele>263.4</ele>
        <time>2019-12-31T13:58:17Z</time>
      </trkpt>
      <trkpt lat="38.319601" lon="-0.705983">
        <ele>263.4</ele>
        <time>2019-12-31T13:58:18Z</time>
      </trkpt>
      <trkpt lat="38.319601" lon="-0.705983">
        <ele>263.6</ele>
        <time>2019-12-31T13:58:19Z</time>
      </trkpt>
      <trkpt lat="38.319609" lon="-0.705939">
        <ele>263.4</ele>
        <time>2019-12-31T13:58:20Z</time>
      </trkpt>
      <trkpt lat="38.319616" lon="-0.705894">
        <ele>263.6</ele>
        <time>2019-12-31T13:58:21Z</time>
      </trkpt>
      <trkpt lat="38.319624" lon="-0.705850">
        <ele>263.6</ele>
        <time>2019-12-31T13:58:22Z</time>
      </trkpt>
      <trkpt lat="38.319639" lon="-0.705750">
        <ele>263.4</ele>
        <time>2019-12-31T13:58:23Z</time>
      </trkpt>
      <trkpt lat="38.319649" lon="-0.705698">
        <ele>263</ele>
        <time>2019-12-31T13:58:24Z</time>
      </trkpt>
      <trkpt lat="38.319664" lon="-0.705630">
        <ele>262.2</ele>
        <time>2019-12-31T13:58:25Z</time>
      </trkpt>
      <trkpt lat="38.319664" lon="-0.705630">
        <ele>261.6</ele>
        <time>2019-12-31T13:58:26Z</time>
      </trkpt>
      <trkpt lat="38.319683" lon="-0.705557">
        <ele>261.6</ele>
        <time>2019-12-31T13:58:27Z</time>
      </trkpt>
      <trkpt lat="38.319725" lon="-0.705407">
        <ele>261.6</ele>
        <time>2019-12-31T13:58:28Z</time>
      </trkpt>
      <trkpt lat="38.319725" lon="-0.705407">
        <ele>261.6</ele>
        <time>2019-12-31T13:58:29Z</time>
      </trkpt>
      <trkpt lat="38.319748" lon="-0.705334">
        <ele>261.6</ele>
        <time>2019-12-31T13:58:30Z</time>
      </trkpt>
      <trkpt lat="38.319776" lon="-0.705243">
        <ele>261.6</ele>
        <time>2019-12-31T13:58:31Z</time>
      </trkpt>
      <trkpt lat="38.319814" lon="-0.705091">
        <ele>261.8</ele>
        <time>2019-12-31T13:58:32Z</time>
      </trkpt>
      <trkpt lat="38.319814" lon="-0.705091">
        <ele>262</ele>
        <time>2019-12-31T13:58:33Z</time>
      </trkpt>
      <trkpt lat="38.319835" lon="-0.705016">
        <ele>262</ele>
        <time>2019-12-31T13:58:34Z</time>
      </trkpt>
      <trkpt lat="38.319854" lon="-0.704947">
        <ele>262.4</ele>
        <time>2019-12-31T13:58:35Z</time>
      </trkpt>
      <trkpt lat="38.319879" lon="-0.704882">
        <ele>262.6</ele>
        <time>2019-12-31T13:58:36Z</time>
      </trkpt>
      <trkpt lat="38.319936" lon="-0.704766">
        <ele>262.2</ele>
        <time>2019-12-31T13:58:37Z</time>
      </trkpt>
      <trkpt lat="38.319936" lon="-0.704766">
        <ele>261.6</ele>
        <time>2019-12-31T13:58:38Z</time>
      </trkpt>
      <trkpt lat="38.319972" lon="-0.704697">
        <ele>261.2</ele>
        <time>2019-12-31T13:58:39Z</time>
      </trkpt>
      <trkpt lat="38.320012" lon="-0.704628">
        <ele>261.4</ele>
        <time>2019-12-31T13:58:40Z</time>
      </trkpt>
      <trkpt lat="38.320052" lon="-0.704559">
        <ele>261.6</ele>
        <time>2019-12-31T13:58:41Z</time>
      </trkpt>
      <trkpt lat="38.320090" lon="-0.704493">
        <ele>261.6</ele>
        <time>2019-12-31T13:58:42Z</time>
      </trkpt>
      <trkpt lat="38.320127" lon="-0.704426">
        <ele>261.8</ele>
        <time>2019-12-31T13:58:43Z</time>
      </trkpt>
      <trkpt lat="38.320161" lon="-0.704359">
        <ele>262</ele>
        <time>2019-12-31T13:58:44Z</time>
      </trkpt>
      <trkpt lat="38.320238" lon="-0.704235">
        <ele>262.2</ele>
        <time>2019-12-31T13:58:45Z</time>
      </trkpt>
      <trkpt lat="38.320238" lon="-0.704235">
        <ele>262.4</ele>
        <time>2019-12-31T13:58:46Z</time>
      </trkpt>
      <trkpt lat="38.320279" lon="-0.704181">
        <ele>262.6</ele>
        <time>2019-12-31T13:58:47Z</time>
      </trkpt>
      <trkpt lat="38.320322" lon="-0.704128">
        <ele>262.6</ele>
        <time>2019-12-31T13:58:48Z</time>
      </trkpt>
      <trkpt lat="38.320365" lon="-0.704074">
        <ele>262.8</ele>
        <time>2019-12-31T13:58:49Z</time>
      </trkpt>
      <trkpt lat="38.320407" lon="-0.704023">
        <ele>262.6</ele>
        <time>2019-12-31T13:58:50Z</time>
      </trkpt>
      <trkpt lat="38.320447" lon="-0.703966">
        <ele>262</ele>
        <time>2019-12-31T13:58:51Z</time>
      </trkpt>
      <trkpt lat="38.320478" lon="-0.703894">
        <ele>261.8</ele>
        <time>2019-12-31T13:58:52Z</time>
      </trkpt>
      <trkpt lat="38.320485" lon="-0.703809">
        <ele>260.8</ele>
        <time>2019-12-31T13:58:53Z</time>
      </trkpt>
      <trkpt lat="38.320473" lon="-0.703716">
        <ele>260</ele>
        <time>2019-12-31T13:58:54Z</time>
      </trkpt>
      <trkpt lat="38.320446" lon="-0.703618">
        <ele>260</ele>
        <time>2019-12-31T13:58:55Z</time>
      </trkpt>
      <trkpt lat="38.320408" lon="-0.703522">
        <ele>260.6</ele>
        <time>2019-12-31T13:58:56Z</time>
      </trkpt>
      <trkpt lat="38.320376" lon="-0.703434">
        <ele>261.6</ele>
        <time>2019-12-31T13:58:57Z</time>
      </trkpt>
      <trkpt lat="38.320345" lon="-0.703357">
        <ele>262.4</ele>
        <time>2019-12-31T13:58:58Z</time>
      </trkpt>
      <trkpt lat="38.320319" lon="-0.703294">
        <ele>263.4</ele>
        <time>2019-12-31T13:58:59Z</time>
      </trkpt>
      <trkpt lat="38.320302" lon="-0.703241">
        <ele>263.8</ele>
        <time>2019-12-31T13:59:00Z</time>
      </trkpt>
      <trkpt lat="38.320287" lon="-0.703190">
        <ele>264</ele>
        <time>2019-12-31T13:59:01Z</time>
      </trkpt>
      <trkpt lat="38.320275" lon="-0.703139">
        <ele>264.4</ele>
        <time>2019-12-31T13:59:02Z</time>
      </trkpt>
      <trkpt lat="38.320266" lon="-0.703087">
        <ele>264.6</ele>
        <time>2019-12-31T13:59:03Z</time>
      </trkpt>
      <trkpt lat="38.320255" lon="-0.703034">
        <ele>264.6</ele>
        <time>2019-12-31T13:59:04Z</time>
      </trkpt>
      <trkpt lat="38.320231" lon="-0.702920">
        <ele>264.8</ele>
        <time>2019-12-31T13:59:05Z</time>
      </trkpt>
      <trkpt lat="38.320231" lon="-0.702920">
        <ele>265</ele>
        <time>2019-12-31T13:59:06Z</time>
      </trkpt>
      <trkpt lat="38.320217" lon="-0.702864">
        <ele>265.2</ele>
        <time>2019-12-31T13:59:07Z</time>
      </trkpt>
      <trkpt lat="38.320203" lon="-0.702809">
        <ele>265.2</ele>
        <time>2019-12-31T13:59:08Z</time>
      </trkpt>
      <trkpt lat="38.320190" lon="-0.702752">
        <ele>265.2</ele>
        <time>2019-12-31T13:59:09Z</time>
      </trkpt>
      <trkpt lat="38.320183" lon="-0.702694">
        <ele>265.6</ele>
        <time>2019-12-31T13:59:10Z</time>
      </trkpt>
      <trkpt lat="38.320180" lon="-0.702634">
        <ele>265.6</ele>
        <time>2019-12-31T13:59:11Z</time>
      </trkpt>
      <trkpt lat="38.320178" lon="-0.702573">
        <ele>265.6</ele>
        <time>2019-12-31T13:59:12Z</time>
      </trkpt>
      <trkpt lat="38.320182" lon="-0.702514">
        <ele>266</ele>
        <time>2019-12-31T13:59:13Z</time>
      </trkpt>
      <trkpt lat="38.320188" lon="-0.702456">
        <ele>266</ele>
        <time>2019-12-31T13:59:14Z</time>
      </trkpt>
      <trkpt lat="38.320194" lon="-0.702398">
        <ele>265.8</ele>
        <time>2019-12-31T13:59:15Z</time>
      </trkpt>
      <trkpt lat="38.320204" lon="-0.702339">
        <ele>266.2</ele>
        <time>2019-12-31T13:59:16Z</time>
      </trkpt>
      <trkpt lat="38.320217" lon="-0.702280">
        <ele>266.2</ele>
        <time>2019-12-31T13:59:17Z</time>
      </trkpt>
      <trkpt lat="38.320231" lon="-0.702222">
        <ele>266.6</ele>
        <time>2019-12-31T13:59:18Z</time>
      </trkpt>
      <trkpt lat="38.320245" lon="-0.702166">
        <ele>267</ele>
        <time>2019-12-31T13:59:19Z</time>
      </trkpt>
      <trkpt lat="38.320258" lon="-0.702112">
        <ele>267.2</ele>
        <time>2019-12-31T13:59:20Z</time>
      </trkpt>
      <trkpt lat="38.320270" lon="-0.702056">
        <ele>267.4</ele>
        <time>2019-12-31T13:59:21Z</time>
      </trkpt>
      <trkpt lat="38.320280" lon="-0.702003">
        <ele>267.6</ele>
        <time>2019-12-31T13:59:22Z</time>
      </trkpt>
      <trkpt lat="38.320290" lon="-0.701950">
        <ele>267.8</ele>
        <time>2019-12-31T13:59:23Z</time>
      </trkpt>
      <trkpt lat="38.320310" lon="-0.701845">
        <ele>268</ele>
        <time>2019-12-31T13:59:24Z</time>
      </trkpt>
      <trkpt lat="38.320310" lon="-0.701845">
        <ele>268.4</ele>
        <time>2019-12-31T13:59:25Z</time>
      </trkpt>
      <trkpt lat="38.320324" lon="-0.701799">
        <ele>268.6</ele>
        <time>2019-12-31T13:59:26Z</time>
      </trkpt>
      <trkpt lat="38.320332" lon="-0.701750">
        <ele>269</ele>
        <time>2019-12-31T13:59:27Z</time>
      </trkpt>
      <trkpt lat="38.320335" lon="-0.701700">
        <ele>269.2</ele>
        <time>2019-12-31T13:59:28Z</time>
      </trkpt>
      <trkpt lat="38.320334" lon="-0.701648">
        <ele>269.8</ele>
        <time>2019-12-31T13:59:29Z</time>
      </trkpt>
      <trkpt lat="38.320330" lon="-0.701601">
        <ele>270</ele>
        <time>2019-12-31T13:59:30Z</time>
      </trkpt>
      <trkpt lat="38.320324" lon="-0.701558">
        <ele>270.2</ele>
        <time>2019-12-31T13:59:31Z</time>
      </trkpt>
      <trkpt lat="38.320320" lon="-0.701512">
        <ele>270.4</ele>
        <time>2019-12-31T13:59:32Z</time>
      </trkpt>
      <trkpt lat="38.320315" lon="-0.701466">
        <ele>270.6</ele>
        <time>2019-12-31T13:59:33Z</time>
      </trkpt>
      <trkpt lat="38.320312" lon="-0.701418">
        <ele>270.6</ele>
        <time>2019-12-31T13:59:34Z</time>
      </trkpt>
      <trkpt lat="38.320311" lon="-0.701366">
        <ele>270.6</ele>
        <time>2019-12-31T13:59:35Z</time>
      </trkpt>
      <trkpt lat="38.320309" lon="-0.701250">
        <ele>270.2</ele>
        <time>2019-12-31T13:59:36Z</time>
      </trkpt>
      <trkpt lat="38.320309" lon="-0.701250">
        <ele>270</ele>
        <time>2019-12-31T13:59:37Z</time>
      </trkpt>
      <trkpt lat="38.320316" lon="-0.701182">
        <ele>270.2</ele>
        <time>2019-12-31T13:59:38Z</time>
      </trkpt>
      <trkpt lat="38.320327" lon="-0.701114">
        <ele>270</ele>
        <time>2019-12-31T13:59:39Z</time>
      </trkpt>
      <trkpt lat="38.320358" lon="-0.700979">
        <ele>270.2</ele>
        <time>2019-12-31T13:59:40Z</time>
      </trkpt>
      <trkpt lat="38.320358" lon="-0.700979">
        <ele>270</ele>
        <time>2019-12-31T13:59:41Z</time>
      </trkpt>
      <trkpt lat="38.320379" lon="-0.700915">
        <ele>269.4</ele>
        <time>2019-12-31T13:59:42Z</time>
      </trkpt>
      <trkpt lat="38.320406" lon="-0.700858">
        <ele>270.2</ele>
        <time>2019-12-31T13:59:43Z</time>
      </trkpt>
      <trkpt lat="38.320432" lon="-0.700804">
        <ele>270.4</ele>
        <time>2019-12-31T13:59:44Z</time>
      </trkpt>
      <trkpt lat="38.320456" lon="-0.700749">
        <ele>270.8</ele>
        <time>2019-12-31T13:59:45Z</time>
      </trkpt>
      <trkpt lat="38.320480" lon="-0.700701">
        <ele>271.2</ele>
        <time>2019-12-31T13:59:46Z</time>
      </trkpt>
      <trkpt lat="38.320506" lon="-0.700661">
        <ele>271.6</ele>
        <time>2019-12-31T13:59:47Z</time>
      </trkpt>
      <trkpt lat="38.320529" lon="-0.700635">
        <ele>272.2</ele>
        <time>2019-12-31T13:59:48Z</time>
      </trkpt>
      <trkpt lat="38.320549" lon="-0.700601">
        <ele>272.6</ele>
        <time>2019-12-31T13:59:49Z</time>
      </trkpt>
      <trkpt lat="38.320549" lon="-0.700601">
        <ele>272.8</ele>
        <time>2019-12-31T13:59:50Z</time>
      </trkpt>
      <trkpt lat="38.320562" lon="-0.700581">
        <ele>273.4</ele>
        <time>2019-12-31T13:59:51Z</time>
      </trkpt>
      <trkpt lat="38.320588" lon="-0.700554">
        <ele>273.8</ele>
        <time>2019-12-31T13:59:52Z</time>
      </trkpt>
      <trkpt lat="38.320588" lon="-0.700554">
        <ele>274.2</ele>
        <time>2019-12-31T13:59:53Z</time>
      </trkpt>
      <trkpt lat="38.320618" lon="-0.700526">
        <ele>274.6</ele>
        <time>2019-12-31T13:59:54Z</time>
      </trkpt>
      <trkpt lat="38.320618" lon="-0.700526">
        <ele>274.8</ele>
        <time>2019-12-31T13:59:55Z</time>
      </trkpt>
      <trkpt lat="38.320631" lon="-0.700515">
        <ele>275.4</ele>
        <time>2019-12-31T13:59:56Z</time>
      </trkpt>
      <trkpt lat="38.320646" lon="-0.700499">
        <ele>275.4</ele>
        <time>2019-12-31T13:59:57Z</time>
      </trkpt>
      <trkpt lat="38.320676" lon="-0.700457">
        <ele>275.6</ele>
        <time>2019-12-31T13:59:58Z</time>
      </trkpt>
      <trkpt lat="38.320676" lon="-0.700457">
        <ele>275.8</ele>
        <time>2019-12-31T13:59:59Z</time>
      </trkpt>
      <trkpt lat="38.320694" lon="-0.700435">
        <ele>275.8</ele>
        <time>2019-12-31T14:00:00Z</time>
      </trkpt>
      <trkpt lat="38.320713" lon="-0.700417">
        <ele>276.2</ele>
        <time>2019-12-31T14:00:01Z</time>
      </trkpt>
      <trkpt lat="38.320743" lon="-0.700381">
        <ele>276.8</ele>
        <time>2019-12-31T14:00:02Z</time>
      </trkpt>
      <trkpt lat="38.320743" lon="-0.700381">
        <ele>277</ele>
        <time>2019-12-31T14:00:03Z</time>
      </trkpt>
      <trkpt lat="38.320754" lon="-0.700359">
        <ele>277.2</ele>
        <time>2019-12-31T14:00:04Z</time>
      </trkpt>
      <trkpt lat="38.320765" lon="-0.700338">
        <ele>277.4</ele>
        <time>2019-12-31T14:00:05Z</time>
      </trkpt>
      <trkpt lat="38.320775" lon="-0.700324">
        <ele>277.8</ele>
        <time>2019-12-31T14:00:06Z</time>
      </trkpt>
      <trkpt lat="38.320792" lon="-0.700294">
        <ele>278</ele>
        <time>2019-12-31T14:00:07Z</time>
      </trkpt>
      <trkpt lat="38.320802" lon="-0.700278">
        <ele>278.8</ele>
        <time>2019-12-31T14:00:08Z</time>
      </trkpt>
      <trkpt lat="38.320802" lon="-0.700278">
        <ele>279.2</ele>
        <time>2019-12-31T14:00:09Z</time>
      </trkpt>
      <trkpt lat="38.320817" lon="-0.700263">
        <ele>279.4</ele>
        <time>2019-12-31T14:00:10Z</time>
      </trkpt>
      <trkpt lat="38.320835" lon="-0.700250">
        <ele>279.6</ele>
        <time>2019-12-31T14:00:13Z</time>
      </trkpt>
      <trkpt lat="38.320842" lon="-0.700239">
        <ele>279.8</ele>
        <time>2019-12-31T14:00:14Z</time>
      </trkpt>
      <trkpt lat="38.320854" lon="-0.700213">
        <ele>280</ele>
        <time>2019-12-31T14:00:16Z</time>
      </trkpt>
      <trkpt lat="38.320854" lon="-0.700213">
        <ele>280.2</ele>
        <time>2019-12-31T14:00:17Z</time>
      </trkpt>
      <trkpt lat="38.320865" lon="-0.700201">
        <ele>280.4</ele>
        <time>2019-12-31T14:00:18Z</time>
      </trkpt>
      <trkpt lat="38.320865" lon="-0.700182">
        <ele>280.6</ele>
        <time>2019-12-31T14:00:19Z</time>
      </trkpt>
      <trkpt lat="38.320865" lon="-0.700182">
        <ele>281</ele>
        <time>2019-12-31T14:00:20Z</time>
      </trkpt>
      <trkpt lat="38.320875" lon="-0.700170">
        <ele>281</ele>
        <time>2019-12-31T14:00:21Z</time>
      </trkpt>
      <trkpt lat="38.320896" lon="-0.700134">
        <ele>281.2</ele>
        <time>2019-12-31T14:00:22Z</time>
      </trkpt>
      <trkpt lat="38.320896" lon="-0.700134">
        <ele>281.6</ele>
        <time>2019-12-31T14:00:23Z</time>
      </trkpt>
      <trkpt lat="38.320902" lon="-0.700113">
        <ele>281.8</ele>
        <time>2019-12-31T14:00:24Z</time>
      </trkpt>
      <trkpt lat="38.320925" lon="-0.700058">
        <ele>281.8</ele>
        <time>2019-12-31T14:00:25Z</time>
      </trkpt>
      <trkpt lat="38.320925" lon="-0.700058">
        <ele>282</ele>
        <time>2019-12-31T14:00:26Z</time>
      </trkpt>
      <trkpt lat="38.320935" lon="-0.700025">
        <ele>281.8</ele>
        <time>2019-12-31T14:00:27Z</time>
      </trkpt>
      <trkpt lat="38.320943" lon="-0.699990">
        <ele>282</ele>
        <time>2019-12-31T14:00:28Z</time>
      </trkpt>
      <trkpt lat="38.320952" lon="-0.699921">
        <ele>282</ele>
        <time>2019-12-31T14:00:29Z</time>
      </trkpt>
      <trkpt lat="38.320952" lon="-0.699921">
        <ele>282.2</ele>
        <time>2019-12-31T14:00:30Z</time>
      </trkpt>
      <trkpt lat="38.320956" lon="-0.699883">
        <ele>282.2</ele>
        <time>2019-12-31T14:00:31Z</time>
      </trkpt>
      <trkpt lat="38.320956" lon="-0.699840">
        <ele>282.2</ele>
        <time>2019-12-31T14:00:32Z</time>
      </trkpt>
      <trkpt lat="38.320954" lon="-0.699797">
        <ele>282.4</ele>
        <time>2019-12-31T14:00:33Z</time>
      </trkpt>
      <trkpt lat="38.320952" lon="-0.699753">
        <ele>282.4</ele>
        <time>2019-12-31T14:00:34Z</time>
      </trkpt>
      <trkpt lat="38.320947" lon="-0.699658">
        <ele>282.4</ele>
        <time>2019-12-31T14:00:35Z</time>
      </trkpt>
      <trkpt lat="38.320947" lon="-0.699658">
        <ele>282.2</ele>
        <time>2019-12-31T14:00:36Z</time>
      </trkpt>
      <trkpt lat="38.320945" lon="-0.699609">
        <ele>282.6</ele>
        <time>2019-12-31T14:00:37Z</time>
      </trkpt>
      <trkpt lat="38.320947" lon="-0.699557">
        <ele>282.8</ele>
        <time>2019-12-31T14:00:38Z</time>
      </trkpt>
      <trkpt lat="38.320947" lon="-0.699462">
        <ele>283</ele>
        <time>2019-12-31T14:00:39Z</time>
      </trkpt>
      <trkpt lat="38.320941" lon="-0.699417">
        <ele>283</ele>
        <time>2019-12-31T14:00:40Z</time>
      </trkpt>
      <trkpt lat="38.320941" lon="-0.699417">
        <ele>283</ele>
        <time>2019-12-31T14:00:41Z</time>
      </trkpt>
      <trkpt lat="38.320939" lon="-0.699324">
        <ele>283</ele>
        <time>2019-12-31T14:00:42Z</time>
      </trkpt>
      <trkpt lat="38.320939" lon="-0.699324">
        <ele>283</ele>
        <time>2019-12-31T14:00:43Z</time>
      </trkpt>
      <trkpt lat="38.320941" lon="-0.699271">
        <ele>283.2</ele>
        <time>2019-12-31T14:00:44Z</time>
      </trkpt>
      <trkpt lat="38.320957" lon="-0.699173">
        <ele>283.2</ele>
        <time>2019-12-31T14:00:45Z</time>
      </trkpt>
      <trkpt lat="38.320957" lon="-0.699173">
        <ele>283.2</ele>
        <time>2019-12-31T14:00:46Z</time>
      </trkpt>
      <trkpt lat="38.320981" lon="-0.699085">
        <ele>283.4</ele>
        <time>2019-12-31T14:00:47Z</time>
      </trkpt>
      <trkpt lat="38.320981" lon="-0.699085">
        <ele>283.8</ele>
        <time>2019-12-31T14:00:48Z</time>
      </trkpt>
      <trkpt lat="38.320991" lon="-0.699048">
        <ele>284.2</ele>
        <time>2019-12-31T14:00:49Z</time>
      </trkpt>
      <trkpt lat="38.321000" lon="-0.699014">
        <ele>284.6</ele>
        <time>2019-12-31T14:00:50Z</time>
      </trkpt>
      <trkpt lat="38.321005" lon="-0.698984">
        <ele>285</ele>
        <time>2019-12-31T14:00:51Z</time>
      </trkpt>
      <trkpt lat="38.321009" lon="-0.698958">
        <ele>285.2</ele>
        <time>2019-12-31T14:00:52Z</time>
      </trkpt>
      <trkpt lat="38.321014" lon="-0.698932">
        <ele>285.4</ele>
        <time>2019-12-31T14:00:53Z</time>
      </trkpt>
      <trkpt lat="38.321026" lon="-0.698876">
        <ele>285.6</ele>
        <time>2019-12-31T14:00:54Z</time>
      </trkpt>
      <trkpt lat="38.321026" lon="-0.698876">
        <ele>286.2</ele>
        <time>2019-12-31T14:00:55Z</time>
      </trkpt>
      <trkpt lat="38.321027" lon="-0.698849">
        <ele>286.2</ele>
        <time>2019-12-31T14:00:56Z</time>
      </trkpt>
      <trkpt lat="38.321047" lon="-0.698799">
        <ele>286.6</ele>
        <time>2019-12-31T14:00:57Z</time>
      </trkpt>
      <trkpt lat="38.321047" lon="-0.698799">
        <ele>286.8</ele>
        <time>2019-12-31T14:00:58Z</time>
      </trkpt>
      <trkpt lat="38.321050" lon="-0.698776">
        <ele>287.2</ele>
        <time>2019-12-31T14:00:59Z</time>
      </trkpt>
      <trkpt lat="38.321050" lon="-0.698750">
        <ele>287.2</ele>
        <time>2019-12-31T14:01:00Z</time>
      </trkpt>
      <trkpt lat="38.321051" lon="-0.698720">
        <ele>287.4</ele>
        <time>2019-12-31T14:01:01Z</time>
      </trkpt>
      <trkpt lat="38.321053" lon="-0.698688">
        <ele>287.4</ele>
        <time>2019-12-31T14:01:02Z</time>
      </trkpt>
      <trkpt lat="38.321055" lon="-0.698659">
        <ele>287.6</ele>
        <time>2019-12-31T14:01:03Z</time>
      </trkpt>
      <trkpt lat="38.321058" lon="-0.698599">
        <ele>287.8</ele>
        <time>2019-12-31T14:01:04Z</time>
      </trkpt>
      <trkpt lat="38.321058" lon="-0.698599">
        <ele>288</ele>
        <time>2019-12-31T14:01:05Z</time>
      </trkpt>
      <trkpt lat="38.321060" lon="-0.698568">
        <ele>288.4</ele>
        <time>2019-12-31T14:01:06Z</time>
      </trkpt>
      <trkpt lat="38.321061" lon="-0.698545">
        <ele>288.8</ele>
        <time>2019-12-31T14:01:07Z</time>
      </trkpt>
      <trkpt lat="38.321068" lon="-0.698526">
        <ele>289</ele>
        <time>2019-12-31T14:01:08Z</time>
      </trkpt>
      <trkpt lat="38.321088" lon="-0.698491">
        <ele>289.2</ele>
        <time>2019-12-31T14:01:09Z</time>
      </trkpt>
      <trkpt lat="38.321095" lon="-0.698470">
        <ele>289.6</ele>
        <time>2019-12-31T14:01:10Z</time>
      </trkpt>
      <trkpt lat="38.321095" lon="-0.698470">
        <ele>289.8</ele>
        <time>2019-12-31T14:01:11Z</time>
      </trkpt>
      <trkpt lat="38.321100" lon="-0.698449">
        <ele>290.2</ele>
        <time>2019-12-31T14:01:12Z</time>
      </trkpt>
      <trkpt lat="38.321106" lon="-0.698429">
        <ele>290.4</ele>
        <time>2019-12-31T14:01:13Z</time>
      </trkpt>
      <trkpt lat="38.321112" lon="-0.698409">
        <ele>290.8</ele>
        <time>2019-12-31T14:01:14Z</time>
      </trkpt>
      <trkpt lat="38.321117" lon="-0.698370">
        <ele>291</ele>
        <time>2019-12-31T14:01:15Z</time>
      </trkpt>
      <trkpt lat="38.321122" lon="-0.698352">
        <ele>291.2</ele>
        <time>2019-12-31T14:01:16Z</time>
      </trkpt>
      <trkpt lat="38.321122" lon="-0.698352">
        <ele>291.4</ele>
        <time>2019-12-31T14:01:17Z</time>
      </trkpt>
      <trkpt lat="38.321122" lon="-0.698312">
        <ele>291.8</ele>
        <time>2019-12-31T14:01:18Z</time>
      </trkpt>
      <trkpt lat="38.321119" lon="-0.698288">
        <ele>292.4</ele>
        <time>2019-12-31T14:01:19Z</time>
      </trkpt>
      <trkpt lat="38.321119" lon="-0.698288">
        <ele>292.8</ele>
        <time>2019-12-31T14:01:20Z</time>
      </trkpt>
      <trkpt lat="38.321115" lon="-0.698261">
        <ele>293.2</ele>
        <time>2019-12-31T14:01:21Z</time>
      </trkpt>
      <trkpt lat="38.321110" lon="-0.698243">
        <ele>293.4</ele>
        <time>2019-12-31T14:01:22Z</time>
      </trkpt>
      <trkpt lat="38.321105" lon="-0.698225">
        <ele>293.6</ele>
        <time>2019-12-31T14:01:23Z</time>
      </trkpt>
      <trkpt lat="38.321100" lon="-0.698206">
        <ele>294</ele>
        <time>2019-12-31T14:01:24Z</time>
      </trkpt>
      <trkpt lat="38.321094" lon="-0.698181">
        <ele>294.2</ele>
        <time>2019-12-31T14:01:25Z</time>
      </trkpt>
      <trkpt lat="38.321091" lon="-0.698162">
        <ele>294.4</ele>
        <time>2019-12-31T14:01:26Z</time>
      </trkpt>
      <trkpt lat="38.321076" lon="-0.698127">
        <ele>294.6</ele>
        <time>2019-12-31T14:01:27Z</time>
      </trkpt>
      <trkpt lat="38.321076" lon="-0.698127">
        <ele>294.8</ele>
        <time>2019-12-31T14:01:28Z</time>
      </trkpt>
      <trkpt lat="38.321077" lon="-0.698111">
        <ele>295</ele>
        <time>2019-12-31T14:01:29Z</time>
      </trkpt>
      <trkpt lat="38.321058" lon="-0.698071">
        <ele>294.8</ele>
        <time>2019-12-31T14:01:30Z</time>
      </trkpt>
      <trkpt lat="38.321058" lon="-0.698071">
        <ele>295</ele>
        <time>2019-12-31T14:01:31Z</time>
      </trkpt>
      <trkpt lat="38.321035" lon="-0.698035">
        <ele>295.4</ele>
        <time>2019-12-31T14:01:32Z</time>
      </trkpt>
      <trkpt lat="38.321035" lon="-0.698035">
        <ele>295.6</ele>
        <time>2019-12-31T14:01:33Z</time>
      </trkpt>
      <trkpt lat="38.321011" lon="-0.698009">
        <ele>295.6</ele>
        <time>2019-12-31T14:01:34Z</time>
      </trkpt>
      <trkpt lat="38.321011" lon="-0.698009">
        <ele>295.6</ele>
        <time>2019-12-31T14:01:35Z</time>
      </trkpt>
      <trkpt lat="38.320997" lon="-0.697996">
        <ele>295.8</ele>
        <time>2019-12-31T14:01:36Z</time>
      </trkpt>
      <trkpt lat="38.320983" lon="-0.697980">
        <ele>296</ele>
        <time>2019-12-31T14:01:37Z</time>
      </trkpt>
      <trkpt lat="38.320968" lon="-0.697967">
        <ele>296.2</ele>
        <time>2019-12-31T14:01:38Z</time>
      </trkpt>
      <trkpt lat="38.320954" lon="-0.697958">
        <ele>296.2</ele>
        <time>2019-12-31T14:01:39Z</time>
      </trkpt>
      <trkpt lat="38.320940" lon="-0.697956">
        <ele>296.4</ele>
        <time>2019-12-31T14:01:40Z</time>
      </trkpt>
      <trkpt lat="38.320910" lon="-0.697944">
        <ele>296.6</ele>
        <time>2019-12-31T14:01:41Z</time>
      </trkpt>
      <trkpt lat="38.320910" lon="-0.697944">
        <ele>296.8</ele>
        <time>2019-12-31T14:01:42Z</time>
      </trkpt>
      <trkpt lat="38.320895" lon="-0.697935">
        <ele>297.2</ele>
        <time>2019-12-31T14:01:43Z</time>
      </trkpt>
      <trkpt lat="38.320879" lon="-0.697923">
        <ele>297.2</ele>
        <time>2019-12-31T14:01:44Z</time>
      </trkpt>
      <trkpt lat="38.320864" lon="-0.697908">
        <ele>297.4</ele>
        <time>2019-12-31T14:01:45Z</time>
      </trkpt>
      <trkpt lat="38.320843" lon="-0.697867">
        <ele>297.4</ele>
        <time>2019-12-31T14:01:46Z</time>
      </trkpt>
      <trkpt lat="38.320843" lon="-0.697867">
        <ele>297.6</ele>
        <time>2019-12-31T14:01:47Z</time>
      </trkpt>
      <trkpt lat="38.320831" lon="-0.697804">
        <ele>297.6</ele>
        <time>2019-12-31T14:01:48Z</time>
      </trkpt>
      <trkpt lat="38.320838" lon="-0.697775">
        <ele>297.8</ele>
        <time>2019-12-31T14:01:49Z</time>
      </trkpt>
      <trkpt lat="38.320838" lon="-0.697775">
        <ele>298</ele>
        <time>2019-12-31T14:01:50Z</time>
      </trkpt>
      <trkpt lat="38.320849" lon="-0.697749">
        <ele>298</ele>
        <time>2019-12-31T14:01:51Z</time>
      </trkpt>
      <trkpt lat="38.320888" lon="-0.697698">
        <ele>298.2</ele>
        <time>2019-12-31T14:01:52Z</time>
      </trkpt>
      <trkpt lat="38.320888" lon="-0.697698">
        <ele>298.6</ele>
        <time>2019-12-31T14:01:53Z</time>
      </trkpt>
      <trkpt lat="38.320901" lon="-0.697671">
        <ele>298.6</ele>
        <time>2019-12-31T14:01:54Z</time>
      </trkpt>
      <trkpt lat="38.320921" lon="-0.697619">
        <ele>298.8</ele>
        <time>2019-12-31T14:01:55Z</time>
      </trkpt>
      <trkpt lat="38.320921" lon="-0.697619">
        <ele>298.8</ele>
        <time>2019-12-31T14:01:56Z</time>
      </trkpt>
      <trkpt lat="38.320940" lon="-0.697560">
        <ele>298.8</ele>
        <time>2019-12-31T14:01:57Z</time>
      </trkpt>
      <trkpt lat="38.320940" lon="-0.697560">
        <ele>299.2</ele>
        <time>2019-12-31T14:01:58Z</time>
      </trkpt>
      <trkpt lat="38.320950" lon="-0.697532">
        <ele>299.4</ele>
        <time>2019-12-31T14:01:59Z</time>
      </trkpt>
      <trkpt lat="38.320961" lon="-0.697503">
        <ele>299.6</ele>
        <time>2019-12-31T14:02:00Z</time>
      </trkpt>
      <trkpt lat="38.320973" lon="-0.697441">
        <ele>299.6</ele>
        <time>2019-12-31T14:02:01Z</time>
      </trkpt>
      <trkpt lat="38.320973" lon="-0.697441">
        <ele>299.8</ele>
        <time>2019-12-31T14:02:02Z</time>
      </trkpt>
      <trkpt lat="38.320978" lon="-0.697409">
        <ele>300</ele>
        <time>2019-12-31T14:02:03Z</time>
      </trkpt>
      <trkpt lat="38.320990" lon="-0.697356">
        <ele>300.2</ele>
        <time>2019-12-31T14:02:04Z</time>
      </trkpt>
      <trkpt lat="38.320990" lon="-0.697356">
        <ele>300.6</ele>
        <time>2019-12-31T14:02:05Z</time>
      </trkpt>
      <trkpt lat="38.320993" lon="-0.697337">
        <ele>300.6</ele>
        <time>2019-12-31T14:02:06Z</time>
      </trkpt>
      <trkpt lat="38.320996" lon="-0.697315">
        <ele>300.8</ele>
        <time>2019-12-31T14:02:07Z</time>
      </trkpt>
      <trkpt lat="38.321004" lon="-0.697265">
        <ele>301.2</ele>
        <time>2019-12-31T14:02:08Z</time>
      </trkpt>
      <trkpt lat="38.321004" lon="-0.697265">
        <ele>301.6</ele>
        <time>2019-12-31T14:02:09Z</time>
      </trkpt>
      <trkpt lat="38.321007" lon="-0.697244">
        <ele>301.8</ele>
        <time>2019-12-31T14:02:10Z</time>
      </trkpt>
      <trkpt lat="38.321013" lon="-0.697222">
        <ele>302.2</ele>
        <time>2019-12-31T14:02:11Z</time>
      </trkpt>
      <trkpt lat="38.321018" lon="-0.697199">
        <ele>302.4</ele>
        <time>2019-12-31T14:02:12Z</time>
      </trkpt>
      <trkpt lat="38.321031" lon="-0.697151">
        <ele>302.6</ele>
        <time>2019-12-31T14:02:13Z</time>
      </trkpt>
      <trkpt lat="38.321031" lon="-0.697151">
        <ele>302.6</ele>
        <time>2019-12-31T14:02:14Z</time>
      </trkpt>
      <trkpt lat="38.321040" lon="-0.697128">
        <ele>302.6</ele>
        <time>2019-12-31T14:02:15Z</time>
      </trkpt>
      <trkpt lat="38.321046" lon="-0.697104">
        <ele>303</ele>
        <time>2019-12-31T14:02:16Z</time>
      </trkpt>
      <trkpt lat="38.321053" lon="-0.697080">
        <ele>303.4</ele>
        <time>2019-12-31T14:02:17Z</time>
      </trkpt>
      <trkpt lat="38.321061" lon="-0.697055">
        <ele>303.4</ele>
        <time>2019-12-31T14:02:18Z</time>
      </trkpt>
      <trkpt lat="38.321073" lon="-0.697009">
        <ele>303.6</ele>
        <time>2019-12-31T14:02:19Z</time>
      </trkpt>
      <trkpt lat="38.321073" lon="-0.697009">
        <ele>303.8</ele>
        <time>2019-12-31T14:02:20Z</time>
      </trkpt>
      <trkpt lat="38.321079" lon="-0.696983">
        <ele>304.2</ele>
        <time>2019-12-31T14:02:21Z</time>
      </trkpt>
      <trkpt lat="38.321093" lon="-0.696938">
        <ele>304.4</ele>
        <time>2019-12-31T14:02:22Z</time>
      </trkpt>
      <trkpt lat="38.321093" lon="-0.696938">
        <ele>304.6</ele>
        <time>2019-12-31T14:02:23Z</time>
      </trkpt>
      <trkpt lat="38.321101" lon="-0.696915">
        <ele>304.8</ele>
        <time>2019-12-31T14:02:24Z</time>
      </trkpt>
      <trkpt lat="38.321110" lon="-0.696892">
        <ele>304.8</ele>
        <time>2019-12-31T14:02:25Z</time>
      </trkpt>
      <trkpt lat="38.321117" lon="-0.696873">
        <ele>305.2</ele>
        <time>2019-12-31T14:02:26Z</time>
      </trkpt>
      <trkpt lat="38.321125" lon="-0.696855">
        <ele>305.4</ele>
        <time>2019-12-31T14:02:27Z</time>
      </trkpt>
      <trkpt lat="38.321133" lon="-0.696833">
        <ele>305.8</ele>
        <time>2019-12-31T14:02:28Z</time>
      </trkpt>
      <trkpt lat="38.321140" lon="-0.696811">
        <ele>306</ele>
        <time>2019-12-31T14:02:29Z</time>
      </trkpt>
      <trkpt lat="38.321148" lon="-0.696790">
        <ele>306.2</ele>
        <time>2019-12-31T14:02:30Z</time>
      </trkpt>
      <trkpt lat="38.321156" lon="-0.696770">
        <ele>306.4</ele>
        <time>2019-12-31T14:02:31Z</time>
      </trkpt>
      <trkpt lat="38.321168" lon="-0.696729">
        <ele>306.6</ele>
        <time>2019-12-31T14:02:32Z</time>
      </trkpt>
      <trkpt lat="38.321168" lon="-0.696729">
        <ele>306.8</ele>
        <time>2019-12-31T14:02:33Z</time>
      </trkpt>
      <trkpt lat="38.321169" lon="-0.696683">
        <ele>306.8</ele>
        <time>2019-12-31T14:02:34Z</time>
      </trkpt>
      <trkpt lat="38.321165" lon="-0.696660">
        <ele>306.8</ele>
        <time>2019-12-31T14:02:35Z</time>
      </trkpt>
      <trkpt lat="38.321165" lon="-0.696660">
        <ele>307</ele>
        <time>2019-12-31T14:02:36Z</time>
      </trkpt>
      <trkpt lat="38.321144" lon="-0.696611">
        <ele>307.2</ele>
        <time>2019-12-31T14:02:37Z</time>
      </trkpt>
      <trkpt lat="38.321144" lon="-0.696611">
        <ele>307.4</ele>
        <time>2019-12-31T14:02:38Z</time>
      </trkpt>
      <trkpt lat="38.321129" lon="-0.696592">
        <ele>307.4</ele>
        <time>2019-12-31T14:02:39Z</time>
      </trkpt>
      <trkpt lat="38.321117" lon="-0.696576">
        <ele>307.8</ele>
        <time>2019-12-31T14:02:40Z</time>
      </trkpt>
      <trkpt lat="38.321107" lon="-0.696560">
        <ele>308</ele>
        <time>2019-12-31T14:02:41Z</time>
      </trkpt>
      <trkpt lat="38.321095" lon="-0.696543">
        <ele>308.4</ele>
        <time>2019-12-31T14:02:42Z</time>
      </trkpt>
      <trkpt lat="38.321079" lon="-0.696500">
        <ele>308.8</ele>
        <time>2019-12-31T14:02:43Z</time>
      </trkpt>
      <trkpt lat="38.321074" lon="-0.696479">
        <ele>308.8</ele>
        <time>2019-12-31T14:02:44Z</time>
      </trkpt>
      <trkpt lat="38.321069" lon="-0.696459">
        <ele>309.2</ele>
        <time>2019-12-31T14:02:45Z</time>
      </trkpt>
      <trkpt lat="38.321063" lon="-0.696440">
        <ele>309.6</ele>
        <time>2019-12-31T14:02:46Z</time>
      </trkpt>
      <trkpt lat="38.321063" lon="-0.696440">
        <ele>309.8</ele>
        <time>2019-12-31T14:02:47Z</time>
      </trkpt>
      <trkpt lat="38.321059" lon="-0.696402">
        <ele>310.2</ele>
        <time>2019-12-31T14:02:48Z</time>
      </trkpt>
      <trkpt lat="38.321059" lon="-0.696402">
        <ele>310.4</ele>
        <time>2019-12-31T14:02:49Z</time>
      </trkpt>
      <trkpt lat="38.321059" lon="-0.696382">
        <ele>310.6</ele>
        <time>2019-12-31T14:02:50Z</time>
      </trkpt>
      <trkpt lat="38.321060" lon="-0.696365">
        <ele>310.8</ele>
        <time>2019-12-31T14:02:51Z</time>
      </trkpt>
      <trkpt lat="38.321060" lon="-0.696344">
        <ele>311.2</ele>
        <time>2019-12-31T14:02:52Z</time>
      </trkpt>
      <trkpt lat="38.321060" lon="-0.696326">
        <ele>311.2</ele>
        <time>2019-12-31T14:02:53Z</time>
      </trkpt>
      <trkpt lat="38.321062" lon="-0.696285">
        <ele>311.6</ele>
        <time>2019-12-31T14:02:54Z</time>
      </trkpt>
      <trkpt lat="38.321062" lon="-0.696285">
        <ele>311.8</ele>
        <time>2019-12-31T14:02:55Z</time>
      </trkpt>
      <trkpt lat="38.321062" lon="-0.696265">
        <ele>312.2</ele>
        <time>2019-12-31T14:02:56Z</time>
      </trkpt>
      <trkpt lat="38.321063" lon="-0.696244">
        <ele>312.4</ele>
        <time>2019-12-31T14:02:57Z</time>
      </trkpt>
      <trkpt lat="38.321062" lon="-0.696222">
        <ele>312.8</ele>
        <time>2019-12-31T14:02:58Z</time>
      </trkpt>
      <trkpt lat="38.321062" lon="-0.696202">
        <ele>312.8</ele>
        <time>2019-12-31T14:02:59Z</time>
      </trkpt>
      <trkpt lat="38.321058" lon="-0.696167">
        <ele>313</ele>
        <time>2019-12-31T14:03:00Z</time>
      </trkpt>
      <trkpt lat="38.321059" lon="-0.696149">
        <ele>313.4</ele>
        <time>2019-12-31T14:03:01Z</time>
      </trkpt>
      <trkpt lat="38.321059" lon="-0.696149">
        <ele>313.6</ele>
        <time>2019-12-31T14:03:02Z</time>
      </trkpt>
      <trkpt lat="38.321060" lon="-0.696127">
        <ele>314</ele>
        <time>2019-12-31T14:03:03Z</time>
      </trkpt>
      <trkpt lat="38.321064" lon="-0.696089">
        <ele>314.2</ele>
        <time>2019-12-31T14:03:04Z</time>
      </trkpt>
      <trkpt lat="38.321064" lon="-0.696089">
        <ele>314.4</ele>
        <time>2019-12-31T14:03:05Z</time>
      </trkpt>
      <trkpt lat="38.321066" lon="-0.696072">
        <ele>314.6</ele>
        <time>2019-12-31T14:03:06Z</time>
      </trkpt>
      <trkpt lat="38.321071" lon="-0.696037">
        <ele>315</ele>
        <time>2019-12-31T14:03:07Z</time>
      </trkpt>
      <trkpt lat="38.321071" lon="-0.696037">
        <ele>315.2</ele>
        <time>2019-12-31T14:03:08Z</time>
      </trkpt>
      <trkpt lat="38.321082" lon="-0.696001">
        <ele>315.2</ele>
        <time>2019-12-31T14:03:09Z</time>
      </trkpt>
      <trkpt lat="38.321082" lon="-0.696001">
        <ele>315.4</ele>
        <time>2019-12-31T14:03:10Z</time>
      </trkpt>
      <trkpt lat="38.321090" lon="-0.695985">
        <ele>315.8</ele>
        <time>2019-12-31T14:03:11Z</time>
      </trkpt>
      <trkpt lat="38.321102" lon="-0.695970">
        <ele>316</ele>
        <time>2019-12-31T14:03:12Z</time>
      </trkpt>
      <trkpt lat="38.321110" lon="-0.695959">
        <ele>316.2</ele>
        <time>2019-12-31T14:03:13Z</time>
      </trkpt>
      <trkpt lat="38.321128" lon="-0.695930">
        <ele>316.6</ele>
        <time>2019-12-31T14:03:14Z</time>
      </trkpt>
      <trkpt lat="38.321128" lon="-0.695930">
        <ele>317</ele>
        <time>2019-12-31T14:03:15Z</time>
      </trkpt>
      <trkpt lat="38.321137" lon="-0.695897">
        <ele>317.4</ele>
        <time>2019-12-31T14:03:16Z</time>
      </trkpt>
      <trkpt lat="38.321137" lon="-0.695897">
        <ele>317.6</ele>
        <time>2019-12-31T14:03:17Z</time>
      </trkpt>
      <trkpt lat="38.321139" lon="-0.695879">
        <ele>318.2</ele>
        <time>2019-12-31T14:03:18Z</time>
      </trkpt>
      <trkpt lat="38.321135" lon="-0.695839">
        <ele>318.4</ele>
        <time>2019-12-31T14:03:19Z</time>
      </trkpt>
      <trkpt lat="38.321134" lon="-0.695820">
        <ele>318.6</ele>
        <time>2019-12-31T14:03:20Z</time>
      </trkpt>
      <trkpt lat="38.321134" lon="-0.695820">
        <ele>318.6</ele>
        <time>2019-12-31T14:03:21Z</time>
      </trkpt>
      <trkpt lat="38.321131" lon="-0.695805">
        <ele>319</ele>
        <time>2019-12-31T14:03:22Z</time>
      </trkpt>
      <trkpt lat="38.321126" lon="-0.695790">
        <ele>319.2</ele>
        <time>2019-12-31T14:03:23Z</time>
      </trkpt>
      <trkpt lat="38.321120" lon="-0.695772">
        <ele>319.2</ele>
        <time>2019-12-31T14:03:24Z</time>
      </trkpt>
      <trkpt lat="38.321096" lon="-0.695753">
        <ele>319.6</ele>
        <time>2019-12-31T14:03:25Z</time>
      </trkpt>
      <trkpt lat="38.321096" lon="-0.695753">
        <ele>319.8</ele>
        <time>2019-12-31T14:03:26Z</time>
      </trkpt>
      <trkpt lat="38.321084" lon="-0.695748">
        <ele>320.2</ele>
        <time>2019-12-31T14:03:27Z</time>
      </trkpt>
      <trkpt lat="38.321057" lon="-0.695736">
        <ele>320.4</ele>
        <time>2019-12-31T14:03:28Z</time>
      </trkpt>
      <trkpt lat="38.321042" lon="-0.695739">
        <ele>320.6</ele>
        <time>2019-12-31T14:03:29Z</time>
      </trkpt>
      <trkpt lat="38.321042" lon="-0.695739">
        <ele>320.6</ele>
        <time>2019-12-31T14:03:30Z</time>
      </trkpt>
      <trkpt lat="38.321027" lon="-0.695741">
        <ele>320.8</ele>
        <time>2019-12-31T14:03:31Z</time>
      </trkpt>
      <trkpt lat="38.320996" lon="-0.695755">
        <ele>320.8</ele>
        <time>2019-12-31T14:03:32Z</time>
      </trkpt>
      <trkpt lat="38.320978" lon="-0.695766">
        <ele>320.8</ele>
        <time>2019-12-31T14:03:33Z</time>
      </trkpt>
      <trkpt lat="38.320964" lon="-0.695780">
        <ele>321</ele>
        <time>2019-12-31T14:03:34Z</time>
      </trkpt>
      <trkpt lat="38.320964" lon="-0.695780">
        <ele>321</ele>
        <time>2019-12-31T14:03:35Z</time>
      </trkpt>
      <trkpt lat="38.320945" lon="-0.695791">
        <ele>321.2</ele>
        <time>2019-12-31T14:03:36Z</time>
      </trkpt>
      <trkpt lat="38.320903" lon="-0.695795">
        <ele>321.2</ele>
        <time>2019-12-31T14:03:37Z</time>
      </trkpt>
      <trkpt lat="38.320903" lon="-0.695795">
        <ele>321.2</ele>
        <time>2019-12-31T14:03:38Z</time>
      </trkpt>
      <trkpt lat="38.320881" lon="-0.695793">
        <ele>321.4</ele>
        <time>2019-12-31T14:03:39Z</time>
      </trkpt>
      <trkpt lat="38.320857" lon="-0.695789">
        <ele>321.2</ele>
        <time>2019-12-31T14:03:40Z</time>
      </trkpt>
      <trkpt lat="38.320803" lon="-0.695768">
        <ele>321.2</ele>
        <time>2019-12-31T14:03:41Z</time>
      </trkpt>
      <trkpt lat="38.320773" lon="-0.695749">
        <ele>321.2</ele>
        <time>2019-12-31T14:03:42Z</time>
      </trkpt>
      <trkpt lat="38.320773" lon="-0.695749">
        <ele>321</ele>
        <time>2019-12-31T14:03:43Z</time>
      </trkpt>
      <trkpt lat="38.320741" lon="-0.695733">
        <ele>320.8</ele>
        <time>2019-12-31T14:03:44Z</time>
      </trkpt>
      <trkpt lat="38.320673" lon="-0.695708">
        <ele>320.6</ele>
        <time>2019-12-31T14:03:45Z</time>
      </trkpt>
      <trkpt lat="38.320639" lon="-0.695698">
        <ele>320.8</ele>
        <time>2019-12-31T14:03:46Z</time>
      </trkpt>
      <trkpt lat="38.320603" lon="-0.695700">
        <ele>320.8</ele>
        <time>2019-12-31T14:03:47Z</time>
      </trkpt>
      <trkpt lat="38.320568" lon="-0.695710">
        <ele>320.8</ele>
        <time>2019-12-31T14:03:48Z</time>
      </trkpt>
      <trkpt lat="38.320534" lon="-0.695722">
        <ele>320.8</ele>
        <time>2019-12-31T14:03:49Z</time>
      </trkpt>
      <trkpt lat="38.320534" lon="-0.695722">
        <ele>320.8</ele>
        <time>2019-12-31T14:03:50Z</time>
      </trkpt>
      <trkpt lat="38.320465" lon="-0.695755">
        <ele>320.6</ele>
        <time>2019-12-31T14:03:51Z</time>
      </trkpt>
      <trkpt lat="38.320465" lon="-0.695755">
        <ele>320.6</ele>
        <time>2019-12-31T14:03:52Z</time>
      </trkpt>
      <trkpt lat="38.320433" lon="-0.695781">
        <ele>320.8</ele>
        <time>2019-12-31T14:03:53Z</time>
      </trkpt>
      <trkpt lat="38.320369" lon="-0.695831">
        <ele>320.8</ele>
        <time>2019-12-31T14:03:54Z</time>
      </trkpt>
      <trkpt lat="38.320341" lon="-0.695853">
        <ele>321</ele>
        <time>2019-12-31T14:03:55Z</time>
      </trkpt>
      <trkpt lat="38.320341" lon="-0.695853">
        <ele>321.4</ele>
        <time>2019-12-31T14:03:56Z</time>
      </trkpt>
      <trkpt lat="38.320312" lon="-0.695876">
        <ele>321.8</ele>
        <time>2019-12-31T14:03:57Z</time>
      </trkpt>
      <trkpt lat="38.320283" lon="-0.695894">
        <ele>321.8</ele>
        <time>2019-12-31T14:03:58Z</time>
      </trkpt>
      <trkpt lat="38.320227" lon="-0.695927">
        <ele>322.2</ele>
        <time>2019-12-31T14:03:59Z</time>
      </trkpt>
      <trkpt lat="38.320227" lon="-0.695927">
        <ele>322.2</ele>
        <time>2019-12-31T14:04:00Z</time>
      </trkpt>
      <trkpt lat="38.320158" lon="-0.695945">
        <ele>322.2</ele>
        <time>2019-12-31T14:04:01Z</time>
      </trkpt>
      <trkpt lat="38.320158" lon="-0.695945">
        <ele>321.8</ele>
        <time>2019-12-31T14:04:02Z</time>
      </trkpt>
      <trkpt lat="38.320067" lon="-0.695929">
        <ele>321.6</ele>
        <time>2019-12-31T14:04:03Z</time>
      </trkpt>
      <trkpt lat="38.320067" lon="-0.695929">
        <ele>321.8</ele>
        <time>2019-12-31T14:04:04Z</time>
      </trkpt>
      <trkpt lat="38.320023" lon="-0.695912">
        <ele>322.2</ele>
        <time>2019-12-31T14:04:05Z</time>
      </trkpt>
      <trkpt lat="38.319950" lon="-0.695852">
        <ele>322.4</ele>
        <time>2019-12-31T14:04:06Z</time>
      </trkpt>
      <trkpt lat="38.319922" lon="-0.695814">
        <ele>322.4</ele>
        <time>2019-12-31T14:04:07Z</time>
      </trkpt>
      <trkpt lat="38.319922" lon="-0.695814">
        <ele>322.4</ele>
        <time>2019-12-31T14:04:08Z</time>
      </trkpt>
      <trkpt lat="38.319871" lon="-0.695730">
        <ele>322.6</ele>
        <time>2019-12-31T14:04:09Z</time>
      </trkpt>
      <trkpt lat="38.319850" lon="-0.695688">
        <ele>322.8</ele>
        <time>2019-12-31T14:04:10Z</time>
      </trkpt>
      <trkpt lat="38.319850" lon="-0.695688">
        <ele>323</ele>
        <time>2019-12-31T14:04:11Z</time>
      </trkpt>
      <trkpt lat="38.319836" lon="-0.695641">
        <ele>323</ele>
        <time>2019-12-31T14:04:12Z</time>
      </trkpt>
      <trkpt lat="38.319800" lon="-0.695553">
        <ele>323.2</ele>
        <time>2019-12-31T14:04:13Z</time>
      </trkpt>
      <trkpt lat="38.319785" lon="-0.695509">
        <ele>323</ele>
        <time>2019-12-31T14:04:14Z</time>
      </trkpt>
      <trkpt lat="38.319785" lon="-0.695509">
        <ele>323.4</ele>
        <time>2019-12-31T14:04:15Z</time>
      </trkpt>
      <trkpt lat="38.319770" lon="-0.695467">
        <ele>323.6</ele>
        <time>2019-12-31T14:04:16Z</time>
      </trkpt>
      <trkpt lat="38.319752" lon="-0.695383">
        <ele>323.4</ele>
        <time>2019-12-31T14:04:17Z</time>
      </trkpt>
      <trkpt lat="38.319752" lon="-0.695383">
        <ele>322.8</ele>
        <time>2019-12-31T14:04:18Z</time>
      </trkpt>
      <trkpt lat="38.319754" lon="-0.695287">
        <ele>322.2</ele>
        <time>2019-12-31T14:04:19Z</time>
      </trkpt>
      <trkpt lat="38.319764" lon="-0.695236">
        <ele>321.8</ele>
        <time>2019-12-31T14:04:20Z</time>
      </trkpt>
      <trkpt lat="38.319764" lon="-0.695236">
        <ele>321.4</ele>
        <time>2019-12-31T14:04:21Z</time>
      </trkpt>
      <trkpt lat="38.319774" lon="-0.695176">
        <ele>319.2</ele>
        <time>2019-12-31T14:04:22Z</time>
      </trkpt>
      <trkpt lat="38.319813" lon="-0.695019">
        <ele>318.6</ele>
        <time>2019-12-31T14:04:23Z</time>
      </trkpt>
      <trkpt lat="38.319813" lon="-0.695019">
        <ele>317.6</ele>
        <time>2019-12-31T14:04:24Z</time>
      </trkpt>
      <trkpt lat="38.319825" lon="-0.694926">
        <ele>316.8</ele>
        <time>2019-12-31T14:04:25Z</time>
      </trkpt>
      <trkpt lat="38.319830" lon="-0.694745">
        <ele>317</ele>
        <time>2019-12-31T14:04:26Z</time>
      </trkpt>
      <trkpt lat="38.319830" lon="-0.694745">
        <ele>316.6</ele>
        <time>2019-12-31T14:04:27Z</time>
      </trkpt>
      <trkpt lat="38.319814" lon="-0.694682">
        <ele>316.8</ele>
        <time>2019-12-31T14:04:28Z</time>
      </trkpt>
      <trkpt lat="38.319761" lon="-0.694638">
        <ele>317</ele>
        <time>2019-12-31T14:04:29Z</time>
      </trkpt>
      <trkpt lat="38.319761" lon="-0.694638">
        <ele>316.6</ele>
        <time>2019-12-31T14:04:30Z</time>
      </trkpt>
      <trkpt lat="38.319741" lon="-0.694662">
        <ele>315.2</ele>
        <time>2019-12-31T14:04:31Z</time>
      </trkpt>
      <trkpt lat="38.319722" lon="-0.694761">
        <ele>315</ele>
        <time>2019-12-31T14:04:32Z</time>
      </trkpt>
      <trkpt lat="38.319722" lon="-0.694761">
        <ele>314.2</ele>
        <time>2019-12-31T14:04:33Z</time>
      </trkpt>
      <trkpt lat="38.319717" lon="-0.694824">
        <ele>313.6</ele>
        <time>2019-12-31T14:04:34Z</time>
      </trkpt>
      <trkpt lat="38.319705" lon="-0.694885">
        <ele>313</ele>
        <time>2019-12-31T14:04:35Z</time>
      </trkpt>
      <trkpt lat="38.319678" lon="-0.694944">
        <ele>312</ele>
        <time>2019-12-31T14:04:36Z</time>
      </trkpt>
      <trkpt lat="38.319633" lon="-0.694988">
        <ele>312</ele>
        <time>2019-12-31T14:04:37Z</time>
      </trkpt>
      <trkpt lat="38.319517" lon="-0.695041">
        <ele>311.6</ele>
        <time>2019-12-31T14:04:38Z</time>
      </trkpt>
      <trkpt lat="38.319454" lon="-0.695050">
        <ele>309.6</ele>
        <time>2019-12-31T14:04:39Z</time>
      </trkpt>
      <trkpt lat="38.319390" lon="-0.695050">
        <ele>309.6</ele>
        <time>2019-12-31T14:04:40Z</time>
      </trkpt>
      <trkpt lat="38.319390" lon="-0.695050">
        <ele>309.6</ele>
        <time>2019-12-31T14:04:41Z</time>
      </trkpt>
      <trkpt lat="38.319255" lon="-0.695030">
        <ele>308.8</ele>
        <time>2019-12-31T14:04:42Z</time>
      </trkpt>
      <trkpt lat="38.319255" lon="-0.695030">
        <ele>308</ele>
        <time>2019-12-31T14:04:43Z</time>
      </trkpt>
      <trkpt lat="38.319184" lon="-0.695014">
        <ele>306.6</ele>
        <time>2019-12-31T14:04:44Z</time>
      </trkpt>
      <trkpt lat="38.319110" lon="-0.694994">
        <ele>306.4</ele>
        <time>2019-12-31T14:04:45Z</time>
      </trkpt>
      <trkpt lat="38.319035" lon="-0.694972">
        <ele>306.2</ele>
        <time>2019-12-31T14:04:46Z</time>
      </trkpt>
      <trkpt lat="38.318910" lon="-0.694876">
        <ele>306.2</ele>
        <time>2019-12-31T14:04:47Z</time>
      </trkpt>
      <trkpt lat="38.318868" lon="-0.694802">
        <ele>306.2</ele>
        <time>2019-12-31T14:04:48Z</time>
      </trkpt>
      <trkpt lat="38.318825" lon="-0.694728">
        <ele>306</ele>
        <time>2019-12-31T14:04:49Z</time>
      </trkpt>
      <trkpt lat="38.318773" lon="-0.694657">
        <ele>305</ele>
        <time>2019-12-31T14:04:50Z</time>
      </trkpt>
      <trkpt lat="38.318717" lon="-0.694589">
        <ele>304.4</ele>
        <time>2019-12-31T14:04:51Z</time>
      </trkpt>
      <trkpt lat="38.318717" lon="-0.694589">
        <ele>304</ele>
        <time>2019-12-31T14:04:52Z</time>
      </trkpt>
      <trkpt lat="38.318600" lon="-0.694457">
        <ele>303.6</ele>
        <time>2019-12-31T14:04:53Z</time>
      </trkpt>
      <trkpt lat="38.318546" lon="-0.694387">
        <ele>302.4</ele>
        <time>2019-12-31T14:04:54Z</time>
      </trkpt>
      <trkpt lat="38.318495" lon="-0.694314">
        <ele>302.6</ele>
        <time>2019-12-31T14:04:55Z</time>
      </trkpt>
      <trkpt lat="38.318444" lon="-0.694239">
        <ele>302.4</ele>
        <time>2019-12-31T14:04:56Z</time>
      </trkpt>
      <trkpt lat="38.318394" lon="-0.694156">
        <ele>301.4</ele>
        <time>2019-12-31T14:04:57Z</time>
      </trkpt>
      <trkpt lat="38.318343" lon="-0.694068">
        <ele>300.6</ele>
        <time>2019-12-31T14:04:58Z</time>
      </trkpt>
      <trkpt lat="38.318343" lon="-0.694068">
        <ele>300.6</ele>
        <time>2019-12-31T14:04:59Z</time>
      </trkpt>
      <trkpt lat="38.318285" lon="-0.693975">
        <ele>298.2</ele>
        <time>2019-12-31T14:05:00Z</time>
      </trkpt>
      <trkpt lat="38.318225" lon="-0.693880">
        <ele>297.2</ele>
        <time>2019-12-31T14:05:01Z</time>
      </trkpt>
      <trkpt lat="38.318135" lon="-0.693721">
        <ele>296.6</ele>
        <time>2019-12-31T14:05:02Z</time>
      </trkpt>
      <trkpt lat="38.318113" lon="-0.693669">
        <ele>296.2</ele>
        <time>2019-12-31T14:05:03Z</time>
      </trkpt>
      <trkpt lat="38.318110" lon="-0.693632">
        <ele>295.8</ele>
        <time>2019-12-31T14:05:04Z</time>
      </trkpt>
      <trkpt lat="38.318110" lon="-0.693632">
        <ele>295.8</ele>
        <time>2019-12-31T14:05:05Z</time>
      </trkpt>
      <trkpt lat="38.318130" lon="-0.693610">
        <ele>295.6</ele>
        <time>2019-12-31T14:05:06Z</time>
      </trkpt>
      <trkpt lat="38.318198" lon="-0.693576">
        <ele>295.6</ele>
        <time>2019-12-31T14:05:07Z</time>
      </trkpt>
      <trkpt lat="38.318198" lon="-0.693576">
        <ele>295.6</ele>
        <time>2019-12-31T14:05:08Z</time>
      </trkpt>
      <trkpt lat="38.318287" lon="-0.693563">
        <ele>295.2</ele>
        <time>2019-12-31T14:05:09Z</time>
      </trkpt>
      <trkpt lat="38.318335" lon="-0.693559">
        <ele>295.2</ele>
        <time>2019-12-31T14:05:10Z</time>
      </trkpt>
      <trkpt lat="38.318387" lon="-0.693555">
        <ele>295.2</ele>
        <time>2019-12-31T14:05:11Z</time>
      </trkpt>
      <trkpt lat="38.318438" lon="-0.693551">
        <ele>295.4</ele>
        <time>2019-12-31T14:05:12Z</time>
      </trkpt>
      <trkpt lat="38.318438" lon="-0.693551">
        <ele>295.4</ele>
        <time>2019-12-31T14:05:13Z</time>
      </trkpt>
      <trkpt lat="38.318491" lon="-0.693546">
        <ele>295</ele>
        <time>2019-12-31T14:05:14Z</time>
      </trkpt>
      <trkpt lat="38.318597" lon="-0.693544">
        <ele>295.2</ele>
        <time>2019-12-31T14:05:15Z</time>
      </trkpt>
      <trkpt lat="38.318652" lon="-0.693546">
        <ele>295.2</ele>
        <time>2019-12-31T14:05:16Z</time>
      </trkpt>
      <trkpt lat="38.318708" lon="-0.693547">
        <ele>295</ele>
        <time>2019-12-31T14:05:17Z</time>
      </trkpt>
      <trkpt lat="38.318708" lon="-0.693547">
        <ele>295.2</ele>
        <time>2019-12-31T14:05:18Z</time>
      </trkpt>
      <trkpt lat="38.318819" lon="-0.693552">
        <ele>295</ele>
        <time>2019-12-31T14:05:19Z</time>
      </trkpt>
      <trkpt lat="38.318877" lon="-0.693552">
        <ele>295</ele>
        <time>2019-12-31T14:05:20Z</time>
      </trkpt>
      <trkpt lat="38.318877" lon="-0.693552">
        <ele>295</ele>
        <time>2019-12-31T14:05:21Z</time>
      </trkpt>
      <trkpt lat="38.318991" lon="-0.693557">
        <ele>294.8</ele>
        <time>2019-12-31T14:05:22Z</time>
      </trkpt>
      <trkpt lat="38.319048" lon="-0.693560">
        <ele>294.8</ele>
        <time>2019-12-31T14:05:23Z</time>
      </trkpt>
      <trkpt lat="38.319048" lon="-0.693560">
        <ele>294.8</ele>
        <time>2019-12-31T14:05:24Z</time>
      </trkpt>
      <trkpt lat="38.319157" lon="-0.693535">
        <ele>294.8</ele>
        <time>2019-12-31T14:05:25Z</time>
      </trkpt>
      <trkpt lat="38.319157" lon="-0.693535">
        <ele>294.8</ele>
        <time>2019-12-31T14:05:26Z</time>
      </trkpt>
      <trkpt lat="38.319245" lon="-0.693452">
        <ele>294.6</ele>
        <time>2019-12-31T14:05:27Z</time>
      </trkpt>
      <trkpt lat="38.319274" lon="-0.693390">
        <ele>294.6</ele>
        <time>2019-12-31T14:05:28Z</time>
      </trkpt>
      <trkpt lat="38.319292" lon="-0.693318">
        <ele>294</ele>
        <time>2019-12-31T14:05:29Z</time>
      </trkpt>
      <trkpt lat="38.319302" lon="-0.693239">
        <ele>294</ele>
        <time>2019-12-31T14:05:30Z</time>
      </trkpt>
      <trkpt lat="38.319302" lon="-0.693239">
        <ele>293.2</ele>
        <time>2019-12-31T14:05:31Z</time>
      </trkpt>
      <trkpt lat="38.319323" lon="-0.693063">
        <ele>292.6</ele>
        <time>2019-12-31T14:05:32Z</time>
      </trkpt>
      <trkpt lat="38.319334" lon="-0.692969">
        <ele>291.2</ele>
        <time>2019-12-31T14:05:33Z</time>
      </trkpt>
      <trkpt lat="38.319345" lon="-0.692874">
        <ele>291.2</ele>
        <time>2019-12-31T14:05:34Z</time>
      </trkpt>
      <trkpt lat="38.319357" lon="-0.692777">
        <ele>291</ele>
        <time>2019-12-31T14:05:35Z</time>
      </trkpt>
      <trkpt lat="38.319357" lon="-0.692777">
        <ele>290.6</ele>
        <time>2019-12-31T14:05:36Z</time>
      </trkpt>
      <trkpt lat="38.319379" lon="-0.692583">
        <ele>290.4</ele>
        <time>2019-12-31T14:05:37Z</time>
      </trkpt>
      <trkpt lat="38.319389" lon="-0.692487">
        <ele>289.8</ele>
        <time>2019-12-31T14:05:38Z</time>
      </trkpt>
      <trkpt lat="38.319389" lon="-0.692487">
        <ele>289.8</ele>
        <time>2019-12-31T14:05:39Z</time>
      </trkpt>
      <trkpt lat="38.319401" lon="-0.692388">
        <ele>289.6</ele>
        <time>2019-12-31T14:05:40Z</time>
      </trkpt>
      <trkpt lat="38.319443" lon="-0.692192">
        <ele>289.2</ele>
        <time>2019-12-31T14:05:41Z</time>
      </trkpt>
      <trkpt lat="38.319477" lon="-0.692099">
        <ele>289</ele>
        <time>2019-12-31T14:05:42Z</time>
      </trkpt>
      <trkpt lat="38.319477" lon="-0.692099">
        <ele>288.8</ele>
        <time>2019-12-31T14:05:43Z</time>
      </trkpt>
      <trkpt lat="38.319515" lon="-0.692008">
        <ele>288.4</ele>
        <time>2019-12-31T14:05:44Z</time>
      </trkpt>
      <trkpt lat="38.319585" lon="-0.691817">
        <ele>288.2</ele>
        <time>2019-12-31T14:05:45Z</time>
      </trkpt>
      <trkpt lat="38.319610" lon="-0.691713">
        <ele>288</ele>
        <time>2019-12-31T14:05:46Z</time>
      </trkpt>
      <trkpt lat="38.319610" lon="-0.691713">
        <ele>287.6</ele>
        <time>2019-12-31T14:05:47Z</time>
      </trkpt>
      <trkpt lat="38.319634" lon="-0.691607">
        <ele>287.2</ele>
        <time>2019-12-31T14:05:48Z</time>
      </trkpt>
      <trkpt lat="38.319676" lon="-0.691390">
        <ele>287</ele>
        <time>2019-12-31T14:05:49Z</time>
      </trkpt>
      <trkpt lat="38.319676" lon="-0.691390">
        <ele>286.4</ele>
        <time>2019-12-31T14:05:50Z</time>
      </trkpt>
      <trkpt lat="38.319696" lon="-0.691276">
        <ele>286</ele>
        <time>2019-12-31T14:05:51Z</time>
      </trkpt>
      <trkpt lat="38.319718" lon="-0.691160">
        <ele>285.6</ele>
        <time>2019-12-31T14:05:52Z</time>
      </trkpt>
      <trkpt lat="38.319739" lon="-0.691045">
        <ele>285.2</ele>
        <time>2019-12-31T14:05:53Z</time>
      </trkpt>
      <trkpt lat="38.319758" lon="-0.690928">
        <ele>285.2</ele>
        <time>2019-12-31T14:05:54Z</time>
      </trkpt>
      <trkpt lat="38.319793" lon="-0.690694">
        <ele>285</ele>
        <time>2019-12-31T14:05:55Z</time>
      </trkpt>
      <trkpt lat="38.319793" lon="-0.690694">
        <ele>284.8</ele>
        <time>2019-12-31T14:05:56Z</time>
      </trkpt>
      <trkpt lat="38.319828" lon="-0.690463">
        <ele>284.8</ele>
        <time>2019-12-31T14:05:57Z</time>
      </trkpt>
      <trkpt lat="38.319845" lon="-0.690346">
        <ele>284.8</ele>
        <time>2019-12-31T14:05:58Z</time>
      </trkpt>
      <trkpt lat="38.319845" lon="-0.690346">
        <ele>284.6</ele>
        <time>2019-12-31T14:05:59Z</time>
      </trkpt>
      <trkpt lat="38.319872" lon="-0.690105">
        <ele>284.2</ele>
        <time>2019-12-31T14:06:00Z</time>
      </trkpt>
      <trkpt lat="38.319872" lon="-0.690105">
        <ele>284</ele>
        <time>2019-12-31T14:06:01Z</time>
      </trkpt>
      <trkpt lat="38.319892" lon="-0.689861">
        <ele>283.6</ele>
        <time>2019-12-31T14:06:02Z</time>
      </trkpt>
      <trkpt lat="38.319899" lon="-0.689739">
        <ele>283.2</ele>
        <time>2019-12-31T14:06:03Z</time>
      </trkpt>
      <trkpt lat="38.319899" lon="-0.689739">
        <ele>282.8</ele>
        <time>2019-12-31T14:06:04Z</time>
      </trkpt>
      <trkpt lat="38.319897" lon="-0.689625">
        <ele>282.6</ele>
        <time>2019-12-31T14:06:05Z</time>
      </trkpt>
      <trkpt lat="38.319912" lon="-0.689388">
        <ele>282.4</ele>
        <time>2019-12-31T14:06:06Z</time>
      </trkpt>
      <trkpt lat="38.319919" lon="-0.689271">
        <ele>282.6</ele>
        <time>2019-12-31T14:06:07Z</time>
      </trkpt>
      <trkpt lat="38.319919" lon="-0.689271">
        <ele>282.4</ele>
        <time>2019-12-31T14:06:08Z</time>
      </trkpt>
      <trkpt lat="38.319926" lon="-0.689158">
        <ele>282.4</ele>
        <time>2019-12-31T14:06:09Z</time>
      </trkpt>
      <trkpt lat="38.319931" lon="-0.689047">
        <ele>282.8</ele>
        <time>2019-12-31T14:06:10Z</time>
      </trkpt>
      <trkpt lat="38.319936" lon="-0.688939">
        <ele>283</ele>
        <time>2019-12-31T14:06:11Z</time>
      </trkpt>
      <trkpt lat="38.319946" lon="-0.688730">
        <ele>283</ele>
        <time>2019-12-31T14:06:12Z</time>
      </trkpt>
      <trkpt lat="38.319953" lon="-0.688625">
        <ele>283</ele>
        <time>2019-12-31T14:06:13Z</time>
      </trkpt>
      <trkpt lat="38.319959" lon="-0.688521">
        <ele>282.6</ele>
        <time>2019-12-31T14:06:14Z</time>
      </trkpt>
      <trkpt lat="38.319959" lon="-0.688521">
        <ele>282.6</ele>
        <time>2019-12-31T14:06:15Z</time>
      </trkpt>
      <trkpt lat="38.319962" lon="-0.688415">
        <ele>282.6</ele>
        <time>2019-12-31T14:06:16Z</time>
      </trkpt>
      <trkpt lat="38.319960" lon="-0.688311">
        <ele>282.4</ele>
        <time>2019-12-31T14:06:17Z</time>
      </trkpt>
      <trkpt lat="38.319954" lon="-0.688208">
        <ele>282.6</ele>
        <time>2019-12-31T14:06:18Z</time>
      </trkpt>
      <trkpt lat="38.319936" lon="-0.688011">
        <ele>282.6</ele>
        <time>2019-12-31T14:06:19Z</time>
      </trkpt>
      <trkpt lat="38.319936" lon="-0.688011">
        <ele>282.4</ele>
        <time>2019-12-31T14:06:20Z</time>
      </trkpt>
      <trkpt lat="38.319935" lon="-0.687913">
        <ele>282.4</ele>
        <time>2019-12-31T14:06:21Z</time>
      </trkpt>
      <trkpt lat="38.319965" lon="-0.687724">
        <ele>282.4</ele>
        <time>2019-12-31T14:06:22Z</time>
      </trkpt>
      <trkpt lat="38.319992" lon="-0.687634">
        <ele>282.4</ele>
        <time>2019-12-31T14:06:23Z</time>
      </trkpt>
      <trkpt lat="38.320027" lon="-0.687550">
        <ele>282.6</ele>
        <time>2019-12-31T14:06:24Z</time>
      </trkpt>
      <trkpt lat="38.320062" lon="-0.687469">
        <ele>282.4</ele>
        <time>2019-12-31T14:06:25Z</time>
      </trkpt>
      <trkpt lat="38.320062" lon="-0.687469">
        <ele>283.2</ele>
        <time>2019-12-31T14:06:26Z</time>
      </trkpt>
      <trkpt lat="38.320089" lon="-0.687388">
        <ele>283.6</ele>
        <time>2019-12-31T14:06:27Z</time>
      </trkpt>
      <trkpt lat="38.320113" lon="-0.687312">
        <ele>283.8</ele>
        <time>2019-12-31T14:06:28Z</time>
      </trkpt>
      <trkpt lat="38.320165" lon="-0.687179">
        <ele>284.4</ele>
        <time>2019-12-31T14:06:29Z</time>
      </trkpt>
      <trkpt lat="38.320193" lon="-0.687122">
        <ele>285</ele>
        <time>2019-12-31T14:06:30Z</time>
      </trkpt>
      <trkpt lat="38.320193" lon="-0.687122">
        <ele>285.6</ele>
        <time>2019-12-31T14:06:31Z</time>
      </trkpt>
      <trkpt lat="38.320251" lon="-0.687020">
        <ele>286.2</ele>
        <time>2019-12-31T14:06:32Z</time>
      </trkpt>
      <trkpt lat="38.320285" lon="-0.686968">
        <ele>286.2</ele>
        <time>2019-12-31T14:06:33Z</time>
      </trkpt>
      <trkpt lat="38.320285" lon="-0.686968">
        <ele>286.4</ele>
        <time>2019-12-31T14:06:34Z</time>
      </trkpt>
      <trkpt lat="38.320319" lon="-0.686914">
        <ele>286.2</ele>
        <time>2019-12-31T14:06:35Z</time>
      </trkpt>
      <trkpt lat="38.320355" lon="-0.686860">
        <ele>286.2</ele>
        <time>2019-12-31T14:06:36Z</time>
      </trkpt>
      <trkpt lat="38.320390" lon="-0.686801">
        <ele>286.2</ele>
        <time>2019-12-31T14:06:37Z</time>
      </trkpt>
      <trkpt lat="38.320425" lon="-0.686739">
        <ele>286</ele>
        <time>2019-12-31T14:06:38Z</time>
      </trkpt>
      <trkpt lat="38.320491" lon="-0.686636">
        <ele>286.4</ele>
        <time>2019-12-31T14:06:39Z</time>
      </trkpt>
      <trkpt lat="38.320517" lon="-0.686600">
        <ele>286.4</ele>
        <time>2019-12-31T14:06:40Z</time>
      </trkpt>
      <trkpt lat="38.320517" lon="-0.686600">
        <ele>287.2</ele>
        <time>2019-12-31T14:06:41Z</time>
      </trkpt>
      <trkpt lat="38.320542" lon="-0.686542">
        <ele>287.8</ele>
        <time>2019-12-31T14:06:42Z</time>
      </trkpt>
      <trkpt lat="38.320549" lon="-0.686508">
        <ele>288.2</ele>
        <time>2019-12-31T14:06:43Z</time>
      </trkpt>
      <trkpt lat="38.320558" lon="-0.686480">
        <ele>288.2</ele>
        <time>2019-12-31T14:06:44Z</time>
      </trkpt>
      <trkpt lat="38.320558" lon="-0.686480">
        <ele>288.4</ele>
        <time>2019-12-31T14:06:45Z</time>
      </trkpt>
      <trkpt lat="38.320580" lon="-0.686429">
        <ele>289</ele>
        <time>2019-12-31T14:06:46Z</time>
      </trkpt>
      <trkpt lat="38.320593" lon="-0.686408">
        <ele>289.4</ele>
        <time>2019-12-31T14:06:47Z</time>
      </trkpt>
      <trkpt lat="38.320604" lon="-0.686384">
        <ele>289.8</ele>
        <time>2019-12-31T14:06:48Z</time>
      </trkpt>
      <trkpt lat="38.320604" lon="-0.686384">
        <ele>290</ele>
        <time>2019-12-31T14:06:49Z</time>
      </trkpt>
      <trkpt lat="38.320618" lon="-0.686359">
        <ele>290.4</ele>
        <time>2019-12-31T14:06:50Z</time>
      </trkpt>
      <trkpt lat="38.320630" lon="-0.686334">
        <ele>290.8</ele>
        <time>2019-12-31T14:06:51Z</time>
      </trkpt>
      <trkpt lat="38.320642" lon="-0.686305">
        <ele>291</ele>
        <time>2019-12-31T14:06:52Z</time>
      </trkpt>
      <trkpt lat="38.320666" lon="-0.686250">
        <ele>291.4</ele>
        <time>2019-12-31T14:06:53Z</time>
      </trkpt>
      <trkpt lat="38.320666" lon="-0.686250">
        <ele>291.6</ele>
        <time>2019-12-31T14:06:54Z</time>
      </trkpt>
      <trkpt lat="38.320680" lon="-0.686226">
        <ele>292</ele>
        <time>2019-12-31T14:06:55Z</time>
      </trkpt>
      <trkpt lat="38.320693" lon="-0.686200">
        <ele>292.4</ele>
        <time>2019-12-31T14:06:56Z</time>
      </trkpt>
      <trkpt lat="38.320720" lon="-0.686150">
        <ele>292.6</ele>
        <time>2019-12-31T14:06:57Z</time>
      </trkpt>
      <trkpt lat="38.320731" lon="-0.686124">
        <ele>293</ele>
        <time>2019-12-31T14:06:58Z</time>
      </trkpt>
      <trkpt lat="38.320731" lon="-0.686124">
        <ele>293.4</ele>
        <time>2019-12-31T14:06:59Z</time>
      </trkpt>
      <trkpt lat="38.320739" lon="-0.686096">
        <ele>294</ele>
        <time>2019-12-31T14:07:00Z</time>
      </trkpt>
      <trkpt lat="38.320757" lon="-0.686039">
        <ele>294.4</ele>
        <time>2019-12-31T14:07:01Z</time>
      </trkpt>
      <trkpt lat="38.320771" lon="-0.686014">
        <ele>294.6</ele>
        <time>2019-12-31T14:07:02Z</time>
      </trkpt>
      <trkpt lat="38.320771" lon="-0.686014">
        <ele>295.2</ele>
        <time>2019-12-31T14:07:03Z</time>
      </trkpt>
      <trkpt lat="38.320786" lon="-0.685989">
        <ele>295.6</ele>
        <time>2019-12-31T14:07:04Z</time>
      </trkpt>
      <trkpt lat="38.320801" lon="-0.685966">
        <ele>295.8</ele>
        <time>2019-12-31T14:07:05Z</time>
      </trkpt>
      <trkpt lat="38.320817" lon="-0.685949">
        <ele>296.2</ele>
        <time>2019-12-31T14:07:06Z</time>
      </trkpt>
      <trkpt lat="38.320832" lon="-0.685933">
        <ele>296.6</ele>
        <time>2019-12-31T14:07:07Z</time>
      </trkpt>
      <trkpt lat="38.320848" lon="-0.685916">
        <ele>296.8</ele>
        <time>2019-12-31T14:07:08Z</time>
      </trkpt>
      <trkpt lat="38.320865" lon="-0.685898">
        <ele>297</ele>
        <time>2019-12-31T14:07:09Z</time>
      </trkpt>
      <trkpt lat="38.320899" lon="-0.685883">
        <ele>297.4</ele>
        <time>2019-12-31T14:07:10Z</time>
      </trkpt>
      <trkpt lat="38.320899" lon="-0.685883">
        <ele>297.6</ele>
        <time>2019-12-31T14:07:11Z</time>
      </trkpt>
      <trkpt lat="38.320941" lon="-0.685861">
        <ele>297.8</ele>
        <time>2019-12-31T14:07:12Z</time>
      </trkpt>
      <trkpt lat="38.320941" lon="-0.685861">
        <ele>298</ele>
        <time>2019-12-31T14:07:13Z</time>
      </trkpt>
      <trkpt lat="38.320959" lon="-0.685851">
        <ele>298.4</ele>
        <time>2019-12-31T14:07:14Z</time>
      </trkpt>
      <trkpt lat="38.321003" lon="-0.685832">
        <ele>298.4</ele>
        <time>2019-12-31T14:07:15Z</time>
      </trkpt>
      <trkpt lat="38.321032" lon="-0.685823">
        <ele>298.6</ele>
        <time>2019-12-31T14:07:16Z</time>
      </trkpt>
      <trkpt lat="38.321032" lon="-0.685823">
        <ele>298.6</ele>
        <time>2019-12-31T14:07:17Z</time>
      </trkpt>
      <trkpt lat="38.321064" lon="-0.685816">
        <ele>298.8</ele>
        <time>2019-12-31T14:07:18Z</time>
      </trkpt>
      <trkpt lat="38.321091" lon="-0.685807">
        <ele>299</ele>
        <time>2019-12-31T14:07:19Z</time>
      </trkpt>
      <trkpt lat="38.321148" lon="-0.685808">
        <ele>299.2</ele>
        <time>2019-12-31T14:07:20Z</time>
      </trkpt>
      <trkpt lat="38.321148" lon="-0.685808">
        <ele>299.4</ele>
        <time>2019-12-31T14:07:21Z</time>
      </trkpt>
      <trkpt lat="38.321174" lon="-0.685814">
        <ele>299.8</ele>
        <time>2019-12-31T14:07:22Z</time>
      </trkpt>
      <trkpt lat="38.321203" lon="-0.685816">
        <ele>299.8</ele>
        <time>2019-12-31T14:07:23Z</time>
      </trkpt>
      <trkpt lat="38.321236" lon="-0.685813">
        <ele>299.6</ele>
        <time>2019-12-31T14:07:24Z</time>
      </trkpt>
      <trkpt lat="38.321271" lon="-0.685808">
        <ele>299.8</ele>
        <time>2019-12-31T14:07:25Z</time>
      </trkpt>
      <trkpt lat="38.321307" lon="-0.685805">
        <ele>299.6</ele>
        <time>2019-12-31T14:07:26Z</time>
      </trkpt>
      <trkpt lat="38.321338" lon="-0.685814">
        <ele>299.8</ele>
        <time>2019-12-31T14:07:27Z</time>
      </trkpt>
      <trkpt lat="38.321411" lon="-0.685839">
        <ele>299.8</ele>
        <time>2019-12-31T14:07:28Z</time>
      </trkpt>
      <trkpt lat="38.321411" lon="-0.685839">
        <ele>299.4</ele>
        <time>2019-12-31T14:07:29Z</time>
      </trkpt>
      <trkpt lat="38.321518" lon="-0.685886">
        <ele>298.6</ele>
        <time>2019-12-31T14:07:30Z</time>
      </trkpt>
      <trkpt lat="38.321518" lon="-0.685886">
        <ele>298</ele>
        <time>2019-12-31T14:07:31Z</time>
      </trkpt>
      <trkpt lat="38.321579" lon="-0.685920">
        <ele>297.2</ele>
        <time>2019-12-31T14:07:32Z</time>
      </trkpt>
      <trkpt lat="38.321642" lon="-0.685955">
        <ele>296.6</ele>
        <time>2019-12-31T14:07:33Z</time>
      </trkpt>
      <trkpt lat="38.321764" lon="-0.686028">
        <ele>296.6</ele>
        <time>2019-12-31T14:07:34Z</time>
      </trkpt>
      <trkpt lat="38.321764" lon="-0.686028">
        <ele>296.6</ele>
        <time>2019-12-31T14:07:35Z</time>
      </trkpt>
      <trkpt lat="38.321882" lon="-0.686090">
        <ele>296.4</ele>
        <time>2019-12-31T14:07:36Z</time>
      </trkpt>
      <trkpt lat="38.321882" lon="-0.686090">
        <ele>296.2</ele>
        <time>2019-12-31T14:07:37Z</time>
      </trkpt>
      <trkpt lat="38.321940" lon="-0.686123">
        <ele>296.4</ele>
        <time>2019-12-31T14:07:38Z</time>
      </trkpt>
      <trkpt lat="38.321993" lon="-0.686153">
        <ele>296.6</ele>
        <time>2019-12-31T14:07:39Z</time>
      </trkpt>
      <trkpt lat="38.322084" lon="-0.686200">
        <ele>296.8</ele>
        <time>2019-12-31T14:07:40Z</time>
      </trkpt>
      <trkpt lat="38.322084" lon="-0.686200">
        <ele>297.8</ele>
        <time>2019-12-31T14:07:41Z</time>
      </trkpt>
      <trkpt lat="38.322114" lon="-0.686212">
        <ele>299</ele>
        <time>2019-12-31T14:07:42Z</time>
      </trkpt>
      <trkpt lat="38.322136" lon="-0.686218">
        <ele>299.6</ele>
        <time>2019-12-31T14:07:43Z</time>
      </trkpt>
      <trkpt lat="38.322152" lon="-0.686223">
        <ele>300.2</ele>
        <time>2019-12-31T14:07:44Z</time>
      </trkpt>
      <trkpt lat="38.322170" lon="-0.686229">
        <ele>301</ele>
        <time>2019-12-31T14:07:45Z</time>
      </trkpt>
      <trkpt lat="38.322207" lon="-0.686246">
        <ele>301.4</ele>
        <time>2019-12-31T14:07:46Z</time>
      </trkpt>
      <trkpt lat="38.322207" lon="-0.686246">
        <ele>302.2</ele>
        <time>2019-12-31T14:07:47Z</time>
      </trkpt>
      <trkpt lat="38.322224" lon="-0.686253">
        <ele>302.8</ele>
        <time>2019-12-31T14:07:48Z</time>
      </trkpt>
      <trkpt lat="38.322246" lon="-0.686261">
        <ele>302.8</ele>
        <time>2019-12-31T14:07:49Z</time>
      </trkpt>
      <trkpt lat="38.322268" lon="-0.686270">
        <ele>303.2</ele>
        <time>2019-12-31T14:07:50Z</time>
      </trkpt>
      <trkpt lat="38.322296" lon="-0.686274">
        <ele>303.6</ele>
        <time>2019-12-31T14:07:51Z</time>
      </trkpt>
      <trkpt lat="38.322350" lon="-0.686284">
        <ele>303.8</ele>
        <time>2019-12-31T14:07:52Z</time>
      </trkpt>
      <trkpt lat="38.322350" lon="-0.686284">
        <ele>303.8</ele>
        <time>2019-12-31T14:07:53Z</time>
      </trkpt>
      <trkpt lat="38.322406" lon="-0.686310">
        <ele>304.2</ele>
        <time>2019-12-31T14:07:54Z</time>
      </trkpt>
      <trkpt lat="38.322406" lon="-0.686310">
        <ele>304.2</ele>
        <time>2019-12-31T14:07:55Z</time>
      </trkpt>
      <trkpt lat="38.322475" lon="-0.686346">
        <ele>304</ele>
        <time>2019-12-31T14:07:56Z</time>
      </trkpt>
      <trkpt lat="38.322475" lon="-0.686346">
        <ele>303.4</ele>
        <time>2019-12-31T14:07:57Z</time>
      </trkpt>
      <trkpt lat="38.322522" lon="-0.686358">
        <ele>303</ele>
        <time>2019-12-31T14:07:58Z</time>
      </trkpt>
      <trkpt lat="38.322576" lon="-0.686372">
        <ele>301.8</ele>
        <time>2019-12-31T14:07:59Z</time>
      </trkpt>
      <trkpt lat="38.322628" lon="-0.686390">
        <ele>301</ele>
        <time>2019-12-31T14:08:00Z</time>
      </trkpt>
      <trkpt lat="38.322678" lon="-0.686421">
        <ele>300.2</ele>
        <time>2019-12-31T14:08:01Z</time>
      </trkpt>
      <trkpt lat="38.322732" lon="-0.686458">
        <ele>299.2</ele>
        <time>2019-12-31T14:08:02Z</time>
      </trkpt>
      <trkpt lat="38.322774" lon="-0.686511">
        <ele>297.8</ele>
        <time>2019-12-31T14:08:03Z</time>
      </trkpt>
      <trkpt lat="38.322840" lon="-0.686636">
        <ele>297.2</ele>
        <time>2019-12-31T14:08:04Z</time>
      </trkpt>
      <trkpt lat="38.322840" lon="-0.686636">
        <ele>297.2</ele>
        <time>2019-12-31T14:08:05Z</time>
      </trkpt>
      <trkpt lat="38.322858" lon="-0.686714">
        <ele>296.6</ele>
        <time>2019-12-31T14:08:06Z</time>
      </trkpt>
      <trkpt lat="38.322874" lon="-0.686794">
        <ele>296.4</ele>
        <time>2019-12-31T14:08:07Z</time>
      </trkpt>
      <trkpt lat="38.322894" lon="-0.686873">
        <ele>296.2</ele>
        <time>2019-12-31T14:08:08Z</time>
      </trkpt>
      <trkpt lat="38.322911" lon="-0.686948">
        <ele>296.2</ele>
        <time>2019-12-31T14:08:09Z</time>
      </trkpt>
      <trkpt lat="38.322936" lon="-0.687106">
        <ele>296</ele>
        <time>2019-12-31T14:08:10Z</time>
      </trkpt>
      <trkpt lat="38.322946" lon="-0.687193">
        <ele>295.8</ele>
        <time>2019-12-31T14:08:11Z</time>
      </trkpt>
      <trkpt lat="38.322953" lon="-0.687283">
        <ele>295.2</ele>
        <time>2019-12-31T14:08:12Z</time>
      </trkpt>
      <trkpt lat="38.322953" lon="-0.687283">
        <ele>295.4</ele>
        <time>2019-12-31T14:08:13Z</time>
      </trkpt>
      <trkpt lat="38.322957" lon="-0.687377">
        <ele>295.2</ele>
        <time>2019-12-31T14:08:14Z</time>
      </trkpt>
      <trkpt lat="38.322955" lon="-0.687476">
        <ele>295</ele>
        <time>2019-12-31T14:08:15Z</time>
      </trkpt>
      <trkpt lat="38.322949" lon="-0.687576">
        <ele>295</ele>
        <time>2019-12-31T14:08:16Z</time>
      </trkpt>
      <trkpt lat="38.322938" lon="-0.687676">
        <ele>294.8</ele>
        <time>2019-12-31T14:08:17Z</time>
      </trkpt>
      <trkpt lat="38.322928" lon="-0.687776">
        <ele>294.6</ele>
        <time>2019-12-31T14:08:18Z</time>
      </trkpt>
      <trkpt lat="38.322925" lon="-0.687973">
        <ele>294.6</ele>
        <time>2019-12-31T14:08:19Z</time>
      </trkpt>
      <trkpt lat="38.322922" lon="-0.688074">
        <ele>294.4</ele>
        <time>2019-12-31T14:08:20Z</time>
      </trkpt>
      <trkpt lat="38.322922" lon="-0.688074">
        <ele>294</ele>
        <time>2019-12-31T14:08:21Z</time>
      </trkpt>
      <trkpt lat="38.322902" lon="-0.688281">
        <ele>293.6</ele>
        <time>2019-12-31T14:08:22Z</time>
      </trkpt>
      <trkpt lat="38.322902" lon="-0.688281">
        <ele>292.8</ele>
        <time>2019-12-31T14:08:23Z</time>
      </trkpt>
      <trkpt lat="38.322897" lon="-0.688469">
        <ele>292.6</ele>
        <time>2019-12-31T14:08:24Z</time>
      </trkpt>
      <trkpt lat="38.322897" lon="-0.688469">
        <ele>292.4</ele>
        <time>2019-12-31T14:08:25Z</time>
      </trkpt>
      <trkpt lat="38.322986" lon="-0.688589">
        <ele>292.2</ele>
        <time>2019-12-31T14:08:26Z</time>
      </trkpt>
      <trkpt lat="38.322986" lon="-0.688589">
        <ele>292.4</ele>
        <time>2019-12-31T14:08:27Z</time>
      </trkpt>
      <trkpt lat="38.323092" lon="-0.688663">
        <ele>292.2</ele>
        <time>2019-12-31T14:08:28Z</time>
      </trkpt>
      <trkpt lat="38.323092" lon="-0.688663">
        <ele>293.2</ele>
        <time>2019-12-31T14:08:29Z</time>
      </trkpt>
      <trkpt lat="38.323135" lon="-0.688679">
        <ele>294.2</ele>
        <time>2019-12-31T14:08:30Z</time>
      </trkpt>
      <trkpt lat="38.323214" lon="-0.688625">
        <ele>294</ele>
        <time>2019-12-31T14:08:31Z</time>
      </trkpt>
      <trkpt lat="38.323214" lon="-0.688625">
        <ele>293.8</ele>
        <time>2019-12-31T14:08:32Z</time>
      </trkpt>
      <trkpt lat="38.323282" lon="-0.688490">
        <ele>293.4</ele>
        <time>2019-12-31T14:08:33Z</time>
      </trkpt>
      <trkpt lat="38.323319" lon="-0.688419">
        <ele>293</ele>
        <time>2019-12-31T14:08:34Z</time>
      </trkpt>
      <trkpt lat="38.323319" lon="-0.688419">
        <ele>292.6</ele>
        <time>2019-12-31T14:08:35Z</time>
      </trkpt>
      <trkpt lat="38.323396" lon="-0.688269">
        <ele>292.4</ele>
        <time>2019-12-31T14:08:36Z</time>
      </trkpt>
      <trkpt lat="38.323396" lon="-0.688269">
        <ele>292.4</ele>
        <time>2019-12-31T14:08:37Z</time>
      </trkpt>
      <trkpt lat="38.323432" lon="-0.688191">
        <ele>292.4</ele>
        <time>2019-12-31T14:08:38Z</time>
      </trkpt>
      <trkpt lat="38.323465" lon="-0.688111">
        <ele>292.2</ele>
        <time>2019-12-31T14:08:39Z</time>
      </trkpt>
      <trkpt lat="38.323555" lon="-0.687975">
        <ele>292</ele>
        <time>2019-12-31T14:08:40Z</time>
      </trkpt>
      <trkpt lat="38.323555" lon="-0.687975">
        <ele>292</ele>
        <time>2019-12-31T14:08:41Z</time>
      </trkpt>
      <trkpt lat="38.323662" lon="-0.687858">
        <ele>291.6</ele>
        <time>2019-12-31T14:08:42Z</time>
      </trkpt>
      <trkpt lat="38.323715" lon="-0.687797">
        <ele>291.6</ele>
        <time>2019-12-31T14:08:43Z</time>
      </trkpt>
      <trkpt lat="38.323715" lon="-0.687797">
        <ele>291</ele>
        <time>2019-12-31T14:08:44Z</time>
      </trkpt>
      <trkpt lat="38.323812" lon="-0.687668">
        <ele>291.2</ele>
        <time>2019-12-31T14:08:45Z</time>
      </trkpt>
      <trkpt lat="38.323812" lon="-0.687668">
        <ele>289.8</ele>
        <time>2019-12-31T14:08:46Z</time>
      </trkpt>
      <trkpt lat="38.323867" lon="-0.687593">
        <ele>289.4</ele>
        <time>2019-12-31T14:08:47Z</time>
      </trkpt>
      <trkpt lat="38.323927" lon="-0.687521">
        <ele>288.4</ele>
        <time>2019-12-31T14:08:48Z</time>
      </trkpt>
      <trkpt lat="38.323994" lon="-0.687459">
        <ele>287.8</ele>
        <time>2019-12-31T14:08:49Z</time>
      </trkpt>
      <trkpt lat="38.324143" lon="-0.687399">
        <ele>287.6</ele>
        <time>2019-12-31T14:08:50Z</time>
      </trkpt>
      <trkpt lat="38.324194" lon="-0.687357">
        <ele>287.6</ele>
        <time>2019-12-31T14:08:51Z</time>
      </trkpt>
      <trkpt lat="38.324194" lon="-0.687357">
        <ele>288</ele>
        <time>2019-12-31T14:08:52Z</time>
      </trkpt>
      <trkpt lat="38.324222" lon="-0.687294">
        <ele>288.2</ele>
        <time>2019-12-31T14:08:53Z</time>
      </trkpt>
      <trkpt lat="38.324234" lon="-0.687153">
        <ele>288.2</ele>
        <time>2019-12-31T14:08:54Z</time>
      </trkpt>
      <trkpt lat="38.324234" lon="-0.687153">
        <ele>288.4</ele>
        <time>2019-12-31T14:08:55Z</time>
      </trkpt>
      <trkpt lat="38.324229" lon="-0.687093">
        <ele>288.8</ele>
        <time>2019-12-31T14:08:56Z</time>
      </trkpt>
      <trkpt lat="38.324240" lon="-0.687005">
        <ele>288.8</ele>
        <time>2019-12-31T14:08:57Z</time>
      </trkpt>
      <trkpt lat="38.324240" lon="-0.687005">
        <ele>288.8</ele>
        <time>2019-12-31T14:08:58Z</time>
      </trkpt>
      <trkpt lat="38.324256" lon="-0.686977">
        <ele>288.4</ele>
        <time>2019-12-31T14:08:59Z</time>
      </trkpt>
      <trkpt lat="38.324281" lon="-0.686952">
        <ele>288.8</ele>
        <time>2019-12-31T14:09:00Z</time>
      </trkpt>
      <trkpt lat="38.324305" lon="-0.686939">
        <ele>289.8</ele>
        <time>2019-12-31T14:09:01Z</time>
      </trkpt>
      <trkpt lat="38.324322" lon="-0.686937">
        <ele>290.8</ele>
        <time>2019-12-31T14:09:02Z</time>
      </trkpt>
      <trkpt lat="38.324340" lon="-0.686930">
        <ele>291.4</ele>
        <time>2019-12-31T14:09:03Z</time>
      </trkpt>
      <trkpt lat="38.324379" lon="-0.686912">
        <ele>292</ele>
        <time>2019-12-31T14:09:04Z</time>
      </trkpt>
      <trkpt lat="38.324379" lon="-0.686912">
        <ele>292.6</ele>
        <time>2019-12-31T14:09:05Z</time>
      </trkpt>
      <trkpt lat="38.324398" lon="-0.686906">
        <ele>293.2</ele>
        <time>2019-12-31T14:09:06Z</time>
      </trkpt>
      <trkpt lat="38.324417" lon="-0.686905">
        <ele>294</ele>
        <time>2019-12-31T14:09:07Z</time>
      </trkpt>
      <trkpt lat="38.324436" lon="-0.686908">
        <ele>294.6</ele>
        <time>2019-12-31T14:09:08Z</time>
      </trkpt>
      <trkpt lat="38.324451" lon="-0.686922">
        <ele>295.2</ele>
        <time>2019-12-31T14:09:09Z</time>
      </trkpt>
      <trkpt lat="38.324479" lon="-0.686955">
        <ele>296</ele>
        <time>2019-12-31T14:09:10Z</time>
      </trkpt>
      <trkpt lat="38.324489" lon="-0.686978">
        <ele>296.2</ele>
        <time>2019-12-31T14:09:11Z</time>
      </trkpt>
      <trkpt lat="38.324498" lon="-0.687000">
        <ele>296.6</ele>
        <time>2019-12-31T14:09:12Z</time>
      </trkpt>
      <trkpt lat="38.324511" lon="-0.687027">
        <ele>297.2</ele>
        <time>2019-12-31T14:09:13Z</time>
      </trkpt>
      <trkpt lat="38.324525" lon="-0.687057">
        <ele>297.4</ele>
        <time>2019-12-31T14:09:14Z</time>
      </trkpt>
      <trkpt lat="38.324525" lon="-0.687057">
        <ele>297.4</ele>
        <time>2019-12-31T14:09:15Z</time>
      </trkpt>
      <trkpt lat="38.324562" lon="-0.687105">
        <ele>297.8</ele>
        <time>2019-12-31T14:09:16Z</time>
      </trkpt>
      <trkpt lat="38.324562" lon="-0.687105">
        <ele>298.4</ele>
        <time>2019-12-31T14:09:17Z</time>
      </trkpt>
      <trkpt lat="38.324603" lon="-0.687112">
        <ele>299.2</ele>
        <time>2019-12-31T14:09:18Z</time>
      </trkpt>
      <trkpt lat="38.324603" lon="-0.687112">
        <ele>299.8</ele>
        <time>2019-12-31T14:09:19Z</time>
      </trkpt>
      <trkpt lat="38.324649" lon="-0.687125">
        <ele>300.2</ele>
        <time>2019-12-31T14:09:20Z</time>
      </trkpt>
      <trkpt lat="38.324649" lon="-0.687125">
        <ele>301</ele>
        <time>2019-12-31T14:09:21Z</time>
      </trkpt>
      <trkpt lat="38.324681" lon="-0.687132">
        <ele>301.8</ele>
        <time>2019-12-31T14:09:22Z</time>
      </trkpt>
      <trkpt lat="38.324681" lon="-0.687132">
        <ele>302.4</ele>
        <time>2019-12-31T14:09:23Z</time>
      </trkpt>
      <trkpt lat="38.324698" lon="-0.687135">
        <ele>302.8</ele>
        <time>2019-12-31T14:09:24Z</time>
      </trkpt>
      <trkpt lat="38.324715" lon="-0.687138">
        <ele>303.2</ele>
        <time>2019-12-31T14:09:25Z</time>
      </trkpt>
      <trkpt lat="38.324748" lon="-0.687144">
        <ele>303.8</ele>
        <time>2019-12-31T14:09:26Z</time>
      </trkpt>
      <trkpt lat="38.324748" lon="-0.687144">
        <ele>304.2</ele>
        <time>2019-12-31T14:09:27Z</time>
      </trkpt>
      <trkpt lat="38.324765" lon="-0.687147">
        <ele>304.6</ele>
        <time>2019-12-31T14:09:28Z</time>
      </trkpt>
      <trkpt lat="38.324786" lon="-0.687152">
        <ele>305</ele>
        <time>2019-12-31T14:09:29Z</time>
      </trkpt>
      <trkpt lat="38.324807" lon="-0.687163">
        <ele>305.6</ele>
        <time>2019-12-31T14:09:30Z</time>
      </trkpt>
      <trkpt lat="38.324858" lon="-0.687190">
        <ele>305.6</ele>
        <time>2019-12-31T14:09:31Z</time>
      </trkpt>
      <trkpt lat="38.324858" lon="-0.687190">
        <ele>306.2</ele>
        <time>2019-12-31T14:09:32Z</time>
      </trkpt>
      <trkpt lat="38.324888" lon="-0.687201">
        <ele>306.6</ele>
        <time>2019-12-31T14:09:33Z</time>
      </trkpt>
      <trkpt lat="38.324949" lon="-0.687217">
        <ele>307</ele>
        <time>2019-12-31T14:09:34Z</time>
      </trkpt>
      <trkpt lat="38.324949" lon="-0.687217">
        <ele>307.2</ele>
        <time>2019-12-31T14:09:35Z</time>
      </trkpt>
      <trkpt lat="38.325013" lon="-0.687217">
        <ele>307.8</ele>
        <time>2019-12-31T14:09:36Z</time>
      </trkpt>
      <trkpt lat="38.325013" lon="-0.687217">
        <ele>308</ele>
        <time>2019-12-31T14:09:37Z</time>
      </trkpt>
      <trkpt lat="38.325076" lon="-0.687215">
        <ele>308.4</ele>
        <time>2019-12-31T14:09:38Z</time>
      </trkpt>
      <trkpt lat="38.325109" lon="-0.687215">
        <ele>308.6</ele>
        <time>2019-12-31T14:09:39Z</time>
      </trkpt>
      <trkpt lat="38.325143" lon="-0.687213">
        <ele>308.6</ele>
        <time>2019-12-31T14:09:40Z</time>
      </trkpt>
      <trkpt lat="38.325143" lon="-0.687213">
        <ele>308.6</ele>
        <time>2019-12-31T14:09:41Z</time>
      </trkpt>
      <trkpt lat="38.325179" lon="-0.687218">
        <ele>308.8</ele>
        <time>2019-12-31T14:09:42Z</time>
      </trkpt>
      <trkpt lat="38.325217" lon="-0.687225">
        <ele>308.8</ele>
        <time>2019-12-31T14:09:43Z</time>
      </trkpt>
      <trkpt lat="38.325255" lon="-0.687229">
        <ele>309</ele>
        <time>2019-12-31T14:09:44Z</time>
      </trkpt>
      <trkpt lat="38.325295" lon="-0.687230">
        <ele>309</ele>
        <time>2019-12-31T14:09:45Z</time>
      </trkpt>
      <trkpt lat="38.325337" lon="-0.687230">
        <ele>309</ele>
        <time>2019-12-31T14:09:46Z</time>
      </trkpt>
      <trkpt lat="38.325381" lon="-0.687220">
        <ele>308.6</ele>
        <time>2019-12-31T14:09:47Z</time>
      </trkpt>
      <trkpt lat="38.325488" lon="-0.687196">
        <ele>308</ele>
        <time>2019-12-31T14:09:48Z</time>
      </trkpt>
      <trkpt lat="38.325488" lon="-0.687196">
        <ele>307.8</ele>
        <time>2019-12-31T14:09:49Z</time>
      </trkpt>
      <trkpt lat="38.325617" lon="-0.687213">
        <ele>306.8</ele>
        <time>2019-12-31T14:09:50Z</time>
      </trkpt>
      <trkpt lat="38.325678" lon="-0.687259">
        <ele>306</ele>
        <time>2019-12-31T14:09:51Z</time>
      </trkpt>
      <trkpt lat="38.325729" lon="-0.687309">
        <ele>305.2</ele>
        <time>2019-12-31T14:09:52Z</time>
      </trkpt>
      <trkpt lat="38.325772" lon="-0.687358">
        <ele>305.4</ele>
        <time>2019-12-31T14:09:53Z</time>
      </trkpt>
      <trkpt lat="38.325772" lon="-0.687358">
        <ele>306.4</ele>
        <time>2019-12-31T14:09:54Z</time>
      </trkpt>
      <trkpt lat="38.325810" lon="-0.687405">
        <ele>306.2</ele>
        <time>2019-12-31T14:09:55Z</time>
      </trkpt>
      <trkpt lat="38.325842" lon="-0.687453">
        <ele>306.8</ele>
        <time>2019-12-31T14:09:56Z</time>
      </trkpt>
      <trkpt lat="38.325871" lon="-0.687499">
        <ele>307.2</ele>
        <time>2019-12-31T14:09:57Z</time>
      </trkpt>
      <trkpt lat="38.325901" lon="-0.687548">
        <ele>307.4</ele>
        <time>2019-12-31T14:09:58Z</time>
      </trkpt>
      <trkpt lat="38.325929" lon="-0.687602">
        <ele>307.4</ele>
        <time>2019-12-31T14:09:59Z</time>
      </trkpt>
      <trkpt lat="38.325973" lon="-0.687707">
        <ele>307.8</ele>
        <time>2019-12-31T14:10:00Z</time>
      </trkpt>
      <trkpt lat="38.326002" lon="-0.687751">
        <ele>308.2</ele>
        <time>2019-12-31T14:10:01Z</time>
      </trkpt>
      <trkpt lat="38.326043" lon="-0.687774">
        <ele>308.2</ele>
        <time>2019-12-31T14:10:02Z</time>
      </trkpt>
      <trkpt lat="38.326043" lon="-0.687774">
        <ele>308</ele>
        <time>2019-12-31T14:10:03Z</time>
      </trkpt>
      <trkpt lat="38.326144" lon="-0.687782">
        <ele>308</ele>
        <time>2019-12-31T14:10:04Z</time>
      </trkpt>
      <trkpt lat="38.326144" lon="-0.687782">
        <ele>308</ele>
        <time>2019-12-31T14:10:05Z</time>
      </trkpt>
      <trkpt lat="38.326249" lon="-0.687773">
        <ele>307.8</ele>
        <time>2019-12-31T14:10:06Z</time>
      </trkpt>
      <trkpt lat="38.326249" lon="-0.687773">
        <ele>307.8</ele>
        <time>2019-12-31T14:10:07Z</time>
      </trkpt>
      <trkpt lat="38.326298" lon="-0.687752">
        <ele>308</ele>
        <time>2019-12-31T14:10:08Z</time>
      </trkpt>
      <trkpt lat="38.326390" lon="-0.687694">
        <ele>308.2</ele>
        <time>2019-12-31T14:10:09Z</time>
      </trkpt>
      <trkpt lat="38.326390" lon="-0.687694">
        <ele>308.2</ele>
        <time>2019-12-31T14:10:10Z</time>
      </trkpt>
      <trkpt lat="38.326436" lon="-0.687665">
        <ele>308.2</ele>
        <time>2019-12-31T14:10:11Z</time>
      </trkpt>
      <trkpt lat="38.326485" lon="-0.687634">
        <ele>307.8</ele>
        <time>2019-12-31T14:10:12Z</time>
      </trkpt>
      <trkpt lat="38.326596" lon="-0.687571">
        <ele>307.4</ele>
        <time>2019-12-31T14:10:13Z</time>
      </trkpt>
      <trkpt lat="38.326596" lon="-0.687571">
        <ele>307.2</ele>
        <time>2019-12-31T14:10:14Z</time>
      </trkpt>
      <trkpt lat="38.326707" lon="-0.687507">
        <ele>307.4</ele>
        <time>2019-12-31T14:10:15Z</time>
      </trkpt>
      <trkpt lat="38.326764" lon="-0.687469">
        <ele>307</ele>
        <time>2019-12-31T14:10:16Z</time>
      </trkpt>
      <trkpt lat="38.326764" lon="-0.687469">
        <ele>306.4</ele>
        <time>2019-12-31T14:10:17Z</time>
      </trkpt>
      <trkpt lat="38.326893" lon="-0.687378">
        <ele>305.8</ele>
        <time>2019-12-31T14:10:18Z</time>
      </trkpt>
      <trkpt lat="38.326959" lon="-0.687331">
        <ele>305.2</ele>
        <time>2019-12-31T14:10:19Z</time>
      </trkpt>
      <trkpt lat="38.326959" lon="-0.687331">
        <ele>305</ele>
        <time>2019-12-31T14:10:20Z</time>
      </trkpt>
      <trkpt lat="38.327024" lon="-0.687283">
        <ele>305</ele>
        <time>2019-12-31T14:10:21Z</time>
      </trkpt>
      <trkpt lat="38.327149" lon="-0.687192">
        <ele>305.2</ele>
        <time>2019-12-31T14:10:22Z</time>
      </trkpt>
      <trkpt lat="38.327149" lon="-0.687192">
        <ele>305.4</ele>
        <time>2019-12-31T14:10:23Z</time>
      </trkpt>
      <trkpt lat="38.327210" lon="-0.687150">
        <ele>305.4</ele>
        <time>2019-12-31T14:10:24Z</time>
      </trkpt>
      <trkpt lat="38.327322" lon="-0.687043">
        <ele>305.2</ele>
        <time>2019-12-31T14:10:25Z</time>
      </trkpt>
      <trkpt lat="38.327371" lon="-0.686979">
        <ele>305</ele>
        <time>2019-12-31T14:10:26Z</time>
      </trkpt>
      <trkpt lat="38.327371" lon="-0.686979">
        <ele>305</ele>
        <time>2019-12-31T14:10:27Z</time>
      </trkpt>
      <trkpt lat="38.327415" lon="-0.686909">
        <ele>304.8</ele>
        <time>2019-12-31T14:10:28Z</time>
      </trkpt>
      <trkpt lat="38.327451" lon="-0.686836">
        <ele>304.6</ele>
        <time>2019-12-31T14:10:29Z</time>
      </trkpt>
      <trkpt lat="38.327521" lon="-0.686694">
        <ele>304.8</ele>
        <time>2019-12-31T14:10:30Z</time>
      </trkpt>
      <trkpt lat="38.327521" lon="-0.686694">
        <ele>304.6</ele>
        <time>2019-12-31T14:10:31Z</time>
      </trkpt>
      <trkpt lat="38.327555" lon="-0.686623">
        <ele>304.6</ele>
        <time>2019-12-31T14:10:32Z</time>
      </trkpt>
      <trkpt lat="38.327588" lon="-0.686554">
        <ele>304.6</ele>
        <time>2019-12-31T14:10:33Z</time>
      </trkpt>
      <trkpt lat="38.327613" lon="-0.686503">
        <ele>304.8</ele>
        <time>2019-12-31T14:10:34Z</time>
      </trkpt>
      <trkpt lat="38.327641" lon="-0.686473">
        <ele>304.8</ele>
        <time>2019-12-31T14:10:35Z</time>
      </trkpt>
      <trkpt lat="38.327672" lon="-0.686459">
        <ele>304.8</ele>
        <time>2019-12-31T14:10:36Z</time>
      </trkpt>
      <trkpt lat="38.327732" lon="-0.686479">
        <ele>305</ele>
        <time>2019-12-31T14:10:37Z</time>
      </trkpt>
      <trkpt lat="38.327732" lon="-0.686479">
        <ele>305</ele>
        <time>2019-12-31T14:10:38Z</time>
      </trkpt>
      <trkpt lat="38.327759" lon="-0.686501">
        <ele>305.2</ele>
        <time>2019-12-31T14:10:39Z</time>
      </trkpt>
      <trkpt lat="38.327818" lon="-0.686547">
        <ele>305.4</ele>
        <time>2019-12-31T14:10:40Z</time>
      </trkpt>
      <trkpt lat="38.327818" lon="-0.686547">
        <ele>305.2</ele>
        <time>2019-12-31T14:10:41Z</time>
      </trkpt>
      <trkpt lat="38.327852" lon="-0.686565">
        <ele>305.4</ele>
        <time>2019-12-31T14:10:42Z</time>
      </trkpt>
      <trkpt lat="38.327919" lon="-0.686611">
        <ele>305.6</ele>
        <time>2019-12-31T14:10:43Z</time>
      </trkpt>
      <trkpt lat="38.327953" lon="-0.686636">
        <ele>306</ele>
        <time>2019-12-31T14:10:44Z</time>
      </trkpt>
      <trkpt lat="38.327953" lon="-0.686636">
        <ele>306.2</ele>
        <time>2019-12-31T14:10:45Z</time>
      </trkpt>
      <trkpt lat="38.328019" lon="-0.686687">
        <ele>306.4</ele>
        <time>2019-12-31T14:10:46Z</time>
      </trkpt>
      <trkpt lat="38.328052" lon="-0.686713">
        <ele>306.6</ele>
        <time>2019-12-31T14:10:47Z</time>
      </trkpt>
      <trkpt lat="38.328085" lon="-0.686738">
        <ele>307</ele>
        <time>2019-12-31T14:10:48Z</time>
      </trkpt>
      <trkpt lat="38.328118" lon="-0.686764">
        <ele>307</ele>
        <time>2019-12-31T14:10:49Z</time>
      </trkpt>
      <trkpt lat="38.328150" lon="-0.686791">
        <ele>307.2</ele>
        <time>2019-12-31T14:10:50Z</time>
      </trkpt>
      <trkpt lat="38.328183" lon="-0.686817">
        <ele>307.6</ele>
        <time>2019-12-31T14:10:51Z</time>
      </trkpt>
      <trkpt lat="38.328183" lon="-0.686817">
        <ele>307.8</ele>
        <time>2019-12-31T14:10:52Z</time>
      </trkpt>
      <trkpt lat="38.328250" lon="-0.686868">
        <ele>308.2</ele>
        <time>2019-12-31T14:10:53Z</time>
      </trkpt>
      <trkpt lat="38.328283" lon="-0.686894">
        <ele>308.4</ele>
        <time>2019-12-31T14:10:54Z</time>
      </trkpt>
      <trkpt lat="38.328316" lon="-0.686921">
        <ele>308.6</ele>
        <time>2019-12-31T14:10:55Z</time>
      </trkpt>
      <trkpt lat="38.328351" lon="-0.686948">
        <ele>308.6</ele>
        <time>2019-12-31T14:10:56Z</time>
      </trkpt>
      <trkpt lat="38.328386" lon="-0.686976">
        <ele>309</ele>
        <time>2019-12-31T14:10:57Z</time>
      </trkpt>
      <trkpt lat="38.328423" lon="-0.687005">
        <ele>309.2</ele>
        <time>2019-12-31T14:10:58Z</time>
      </trkpt>
      <trkpt lat="38.328423" lon="-0.687005">
        <ele>309.2</ele>
        <time>2019-12-31T14:10:59Z</time>
      </trkpt>
      <trkpt lat="38.328494" lon="-0.687065">
        <ele>309</ele>
        <time>2019-12-31T14:11:00Z</time>
      </trkpt>
      <trkpt lat="38.328532" lon="-0.687095">
        <ele>309</ele>
        <time>2019-12-31T14:11:01Z</time>
      </trkpt>
      <trkpt lat="38.328571" lon="-0.687124">
        <ele>309.2</ele>
        <time>2019-12-31T14:11:02Z</time>
      </trkpt>
      <trkpt lat="38.328611" lon="-0.687156">
        <ele>309.2</ele>
        <time>2019-12-31T14:11:03Z</time>
      </trkpt>
      <trkpt lat="38.328651" lon="-0.687188">
        <ele>309.2</ele>
        <time>2019-12-31T14:11:04Z</time>
      </trkpt>
      <trkpt lat="38.328692" lon="-0.687220">
        <ele>309.4</ele>
        <time>2019-12-31T14:11:05Z</time>
      </trkpt>
      <trkpt lat="38.328734" lon="-0.687253">
        <ele>309.4</ele>
        <time>2019-12-31T14:11:06Z</time>
      </trkpt>
      <trkpt lat="38.328777" lon="-0.687284">
        <ele>309.2</ele>
        <time>2019-12-31T14:11:07Z</time>
      </trkpt>
      <trkpt lat="38.328821" lon="-0.687317">
        <ele>309.4</ele>
        <time>2019-12-31T14:11:08Z</time>
      </trkpt>
      <trkpt lat="38.328862" lon="-0.687348">
        <ele>309.6</ele>
        <time>2019-12-31T14:11:09Z</time>
      </trkpt>
      <trkpt lat="38.328903" lon="-0.687379">
        <ele>309.8</ele>
        <time>2019-12-31T14:11:10Z</time>
      </trkpt>
      <trkpt lat="38.328944" lon="-0.687409">
        <ele>310</ele>
        <time>2019-12-31T14:11:11Z</time>
      </trkpt>
      <trkpt lat="38.328983" lon="-0.687437">
        <ele>310.2</ele>
        <time>2019-12-31T14:11:12Z</time>
      </trkpt>
      <trkpt lat="38.328983" lon="-0.687437">
        <ele>310.4</ele>
        <time>2019-12-31T14:11:13Z</time>
      </trkpt>
      <trkpt lat="38.329021" lon="-0.687464">
        <ele>310.6</ele>
        <time>2019-12-31T14:11:14Z</time>
      </trkpt>
      <trkpt lat="38.329058" lon="-0.687491">
        <ele>310.8</ele>
        <time>2019-12-31T14:11:15Z</time>
      </trkpt>
      <trkpt lat="38.329127" lon="-0.687542">
        <ele>311</ele>
        <time>2019-12-31T14:11:16Z</time>
      </trkpt>
      <trkpt lat="38.329160" lon="-0.687566">
        <ele>311.2</ele>
        <time>2019-12-31T14:11:17Z</time>
      </trkpt>
      <trkpt lat="38.329160" lon="-0.687566">
        <ele>311.6</ele>
        <time>2019-12-31T14:11:18Z</time>
      </trkpt>
      <trkpt lat="38.329223" lon="-0.687615">
        <ele>311.8</ele>
        <time>2019-12-31T14:11:19Z</time>
      </trkpt>
      <trkpt lat="38.329255" lon="-0.687640">
        <ele>312</ele>
        <time>2019-12-31T14:11:20Z</time>
      </trkpt>
      <trkpt lat="38.329286" lon="-0.687665">
        <ele>312.4</ele>
        <time>2019-12-31T14:11:21Z</time>
      </trkpt>
      <trkpt lat="38.329286" lon="-0.687665">
        <ele>312.6</ele>
        <time>2019-12-31T14:11:22Z</time>
      </trkpt>
      <trkpt lat="38.329349" lon="-0.687713">
        <ele>312.8</ele>
        <time>2019-12-31T14:11:23Z</time>
      </trkpt>
      <trkpt lat="38.329349" lon="-0.687713">
        <ele>313</ele>
        <time>2019-12-31T14:11:24Z</time>
      </trkpt>
      <trkpt lat="38.329381" lon="-0.687736">
        <ele>313.2</ele>
        <time>2019-12-31T14:11:25Z</time>
      </trkpt>
      <trkpt lat="38.329443" lon="-0.687785">
        <ele>313.6</ele>
        <time>2019-12-31T14:11:26Z</time>
      </trkpt>
      <trkpt lat="38.329474" lon="-0.687810">
        <ele>313.8</ele>
        <time>2019-12-31T14:11:27Z</time>
      </trkpt>
      <trkpt lat="38.329474" lon="-0.687810">
        <ele>314.2</ele>
        <time>2019-12-31T14:11:28Z</time>
      </trkpt>
      <trkpt lat="38.329532" lon="-0.687859">
        <ele>314.4</ele>
        <time>2019-12-31T14:11:29Z</time>
      </trkpt>
      <trkpt lat="38.329562" lon="-0.687882">
        <ele>314.6</ele>
        <time>2019-12-31T14:11:30Z</time>
      </trkpt>
      <trkpt lat="38.329594" lon="-0.687905">
        <ele>314.6</ele>
        <time>2019-12-31T14:11:31Z</time>
      </trkpt>
      <trkpt lat="38.329627" lon="-0.687929">
        <ele>315</ele>
        <time>2019-12-31T14:11:32Z</time>
      </trkpt>
      <trkpt lat="38.329627" lon="-0.687929">
        <ele>315</ele>
        <time>2019-12-31T14:11:33Z</time>
      </trkpt>
      <trkpt lat="38.329696" lon="-0.687983">
        <ele>315</ele>
        <time>2019-12-31T14:11:34Z</time>
      </trkpt>
      <trkpt lat="38.329731" lon="-0.688013">
        <ele>315</ele>
        <time>2019-12-31T14:11:35Z</time>
      </trkpt>
      <trkpt lat="38.329765" lon="-0.688045">
        <ele>315</ele>
        <time>2019-12-31T14:11:36Z</time>
      </trkpt>
      <trkpt lat="38.329799" lon="-0.688079">
        <ele>315</ele>
        <time>2019-12-31T14:11:37Z</time>
      </trkpt>
      <trkpt lat="38.329834" lon="-0.688114">
        <ele>315.2</ele>
        <time>2019-12-31T14:11:38Z</time>
      </trkpt>
      <trkpt lat="38.329869" lon="-0.688150">
        <ele>315</ele>
        <time>2019-12-31T14:11:39Z</time>
      </trkpt>
      <trkpt lat="38.329869" lon="-0.688150">
        <ele>315.2</ele>
        <time>2019-12-31T14:11:40Z</time>
      </trkpt>
      <trkpt lat="38.329935" lon="-0.688227">
        <ele>315.2</ele>
        <time>2019-12-31T14:11:41Z</time>
      </trkpt>
      <trkpt lat="38.329968" lon="-0.688267">
        <ele>315.2</ele>
        <time>2019-12-31T14:11:42Z</time>
      </trkpt>
      <trkpt lat="38.329968" lon="-0.688267">
        <ele>315.4</ele>
        <time>2019-12-31T14:11:43Z</time>
      </trkpt>
      <trkpt lat="38.330032" lon="-0.688349">
        <ele>315.4</ele>
        <time>2019-12-31T14:11:44Z</time>
      </trkpt>
      <trkpt lat="38.330064" lon="-0.688390">
        <ele>315.6</ele>
        <time>2019-12-31T14:11:45Z</time>
      </trkpt>
      <trkpt lat="38.330094" lon="-0.688432">
        <ele>316</ele>
        <time>2019-12-31T14:11:46Z</time>
      </trkpt>
      <trkpt lat="38.330094" lon="-0.688432">
        <ele>316.2</ele>
        <time>2019-12-31T14:11:47Z</time>
      </trkpt>
      <trkpt lat="38.330123" lon="-0.688475">
        <ele>316.4</ele>
        <time>2019-12-31T14:11:48Z</time>
      </trkpt>
      <trkpt lat="38.330154" lon="-0.688518">
        <ele>316.6</ele>
        <time>2019-12-31T14:11:49Z</time>
      </trkpt>
      <trkpt lat="38.330213" lon="-0.688602">
        <ele>316.6</ele>
        <time>2019-12-31T14:11:50Z</time>
      </trkpt>
      <trkpt lat="38.330213" lon="-0.688602">
        <ele>316.8</ele>
        <time>2019-12-31T14:11:51Z</time>
      </trkpt>
      <trkpt lat="38.330270" lon="-0.688687">
        <ele>317</ele>
        <time>2019-12-31T14:11:52Z</time>
      </trkpt>
      <trkpt lat="38.330270" lon="-0.688687">
        <ele>317.2</ele>
        <time>2019-12-31T14:11:53Z</time>
      </trkpt>
      <trkpt lat="38.330298" lon="-0.688730">
        <ele>317.4</ele>
        <time>2019-12-31T14:11:54Z</time>
      </trkpt>
      <trkpt lat="38.330352" lon="-0.688818">
        <ele>317.6</ele>
        <time>2019-12-31T14:11:55Z</time>
      </trkpt>
      <trkpt lat="38.330352" lon="-0.688818">
        <ele>317.6</ele>
        <time>2019-12-31T14:11:56Z</time>
      </trkpt>
      <trkpt lat="38.330403" lon="-0.688910">
        <ele>317.8</ele>
        <time>2019-12-31T14:11:57Z</time>
      </trkpt>
      <trkpt lat="38.330429" lon="-0.688956">
        <ele>317.8</ele>
        <time>2019-12-31T14:11:58Z</time>
      </trkpt>
      <trkpt lat="38.330429" lon="-0.688956">
        <ele>318</ele>
        <time>2019-12-31T14:11:59Z</time>
      </trkpt>
      <trkpt lat="38.330456" lon="-0.689004">
        <ele>318</ele>
        <time>2019-12-31T14:12:00Z</time>
      </trkpt>
      <trkpt lat="38.330483" lon="-0.689054">
        <ele>318.2</ele>
        <time>2019-12-31T14:12:01Z</time>
      </trkpt>
      <trkpt lat="38.330507" lon="-0.689107">
        <ele>318.2</ele>
        <time>2019-12-31T14:12:02Z</time>
      </trkpt>
      <trkpt lat="38.330528" lon="-0.689161">
        <ele>318.4</ele>
        <time>2019-12-31T14:12:03Z</time>
      </trkpt>
      <trkpt lat="38.330567" lon="-0.689272">
        <ele>318.4</ele>
        <time>2019-12-31T14:12:04Z</time>
      </trkpt>
      <trkpt lat="38.330584" lon="-0.689329">
        <ele>318.4</ele>
        <time>2019-12-31T14:12:05Z</time>
      </trkpt>
      <trkpt lat="38.330584" lon="-0.689329">
        <ele>318.4</ele>
        <time>2019-12-31T14:12:06Z</time>
      </trkpt>
      <trkpt lat="38.330605" lon="-0.689445">
        <ele>318.6</ele>
        <time>2019-12-31T14:12:07Z</time>
      </trkpt>
      <trkpt lat="38.330609" lon="-0.689505">
        <ele>318.6</ele>
        <time>2019-12-31T14:12:08Z</time>
      </trkpt>
      <trkpt lat="38.330609" lon="-0.689505">
        <ele>318.8</ele>
        <time>2019-12-31T14:12:09Z</time>
      </trkpt>
      <trkpt lat="38.330618" lon="-0.689624">
        <ele>318.8</ele>
        <time>2019-12-31T14:12:10Z</time>
      </trkpt>
      <trkpt lat="38.330627" lon="-0.689668">
        <ele>319</ele>
        <time>2019-12-31T14:12:11Z</time>
      </trkpt>
      <trkpt lat="38.330627" lon="-0.689668">
        <ele>319.4</ele>
        <time>2019-12-31T14:12:12Z</time>
      </trkpt>
      <trkpt lat="38.330650" lon="-0.689764">
        <ele>319.2</ele>
        <time>2019-12-31T14:12:13Z</time>
      </trkpt>
      <trkpt lat="38.330661" lon="-0.689809">
        <ele>319.8</ele>
        <time>2019-12-31T14:12:14Z</time>
      </trkpt>
      <trkpt lat="38.330661" lon="-0.689809">
        <ele>320.2</ele>
        <time>2019-12-31T14:12:15Z</time>
      </trkpt>
      <trkpt lat="38.330671" lon="-0.689853">
        <ele>320.4</ele>
        <time>2019-12-31T14:12:16Z</time>
      </trkpt>
      <trkpt lat="38.330689" lon="-0.689948">
        <ele>320.6</ele>
        <time>2019-12-31T14:12:17Z</time>
      </trkpt>
      <trkpt lat="38.330689" lon="-0.689948">
        <ele>321</ele>
        <time>2019-12-31T14:12:18Z</time>
      </trkpt>
      <trkpt lat="38.330713" lon="-0.690038">
        <ele>321.2</ele>
        <time>2019-12-31T14:12:19Z</time>
      </trkpt>
      <trkpt lat="38.330723" lon="-0.690079">
        <ele>321.2</ele>
        <time>2019-12-31T14:12:20Z</time>
      </trkpt>
      <trkpt lat="38.330723" lon="-0.690079">
        <ele>321.6</ele>
        <time>2019-12-31T14:12:21Z</time>
      </trkpt>
      <trkpt lat="38.330730" lon="-0.690119">
        <ele>321.8</ele>
        <time>2019-12-31T14:12:22Z</time>
      </trkpt>
      <trkpt lat="38.330736" lon="-0.690161">
        <ele>322</ele>
        <time>2019-12-31T14:12:23Z</time>
      </trkpt>
      <trkpt lat="38.330743" lon="-0.690246">
        <ele>322.4</ele>
        <time>2019-12-31T14:12:24Z</time>
      </trkpt>
      <trkpt lat="38.330748" lon="-0.690286">
        <ele>322.4</ele>
        <time>2019-12-31T14:12:25Z</time>
      </trkpt>
      <trkpt lat="38.330748" lon="-0.690286">
        <ele>322.8</ele>
        <time>2019-12-31T14:12:26Z</time>
      </trkpt>
      <trkpt lat="38.330762" lon="-0.690363">
        <ele>322.8</ele>
        <time>2019-12-31T14:12:27Z</time>
      </trkpt>
      <trkpt lat="38.330771" lon="-0.690399">
        <ele>323</ele>
        <time>2019-12-31T14:12:28Z</time>
      </trkpt>
      <trkpt lat="38.330776" lon="-0.690438">
        <ele>323.4</ele>
        <time>2019-12-31T14:12:29Z</time>
      </trkpt>
      <trkpt lat="38.330781" lon="-0.690480">
        <ele>323.4</ele>
        <time>2019-12-31T14:12:30Z</time>
      </trkpt>
      <trkpt lat="38.330781" lon="-0.690480">
        <ele>323.6</ele>
        <time>2019-12-31T14:12:31Z</time>
      </trkpt>
      <trkpt lat="38.330783" lon="-0.690523">
        <ele>323.8</ele>
        <time>2019-12-31T14:12:32Z</time>
      </trkpt>
      <trkpt lat="38.330786" lon="-0.690566">
        <ele>324</ele>
        <time>2019-12-31T14:12:33Z</time>
      </trkpt>
      <trkpt lat="38.330787" lon="-0.690610">
        <ele>324.2</ele>
        <time>2019-12-31T14:12:34Z</time>
      </trkpt>
      <trkpt lat="38.330787" lon="-0.690653">
        <ele>324.4</ele>
        <time>2019-12-31T14:12:35Z</time>
      </trkpt>
      <trkpt lat="38.330788" lon="-0.690697">
        <ele>324.4</ele>
        <time>2019-12-31T14:12:36Z</time>
      </trkpt>
      <trkpt lat="38.330794" lon="-0.690785">
        <ele>324.6</ele>
        <time>2019-12-31T14:12:37Z</time>
      </trkpt>
      <trkpt lat="38.330794" lon="-0.690785">
        <ele>325</ele>
        <time>2019-12-31T14:12:38Z</time>
      </trkpt>
      <trkpt lat="38.330797" lon="-0.690876">
        <ele>325</ele>
        <time>2019-12-31T14:12:39Z</time>
      </trkpt>
      <trkpt lat="38.330797" lon="-0.690876">
        <ele>325.2</ele>
        <time>2019-12-31T14:12:40Z</time>
      </trkpt>
      <trkpt lat="38.330799" lon="-0.690968">
        <ele>325.6</ele>
        <time>2019-12-31T14:12:41Z</time>
      </trkpt>
      <trkpt lat="38.330799" lon="-0.690968">
        <ele>325.6</ele>
        <time>2019-12-31T14:12:42Z</time>
      </trkpt>
      <trkpt lat="38.330806" lon="-0.691059">
        <ele>325.6</ele>
        <time>2019-12-31T14:12:43Z</time>
      </trkpt>
      <trkpt lat="38.330806" lon="-0.691059">
        <ele>325.8</ele>
        <time>2019-12-31T14:12:44Z</time>
      </trkpt>
      <trkpt lat="38.330808" lon="-0.691104">
        <ele>326.2</ele>
        <time>2019-12-31T14:12:45Z</time>
      </trkpt>
      <trkpt lat="38.330810" lon="-0.691147">
        <ele>326.4</ele>
        <time>2019-12-31T14:12:46Z</time>
      </trkpt>
      <trkpt lat="38.330812" lon="-0.691229">
        <ele>326.6</ele>
        <time>2019-12-31T14:12:47Z</time>
      </trkpt>
      <trkpt lat="38.330815" lon="-0.691271">
        <ele>326.8</ele>
        <time>2019-12-31T14:12:48Z</time>
      </trkpt>
      <trkpt lat="38.330815" lon="-0.691271">
        <ele>327</ele>
        <time>2019-12-31T14:12:49Z</time>
      </trkpt>
      <trkpt lat="38.330818" lon="-0.691311">
        <ele>327.2</ele>
        <time>2019-12-31T14:12:50Z</time>
      </trkpt>
      <trkpt lat="38.330821" lon="-0.691353">
        <ele>327.4</ele>
        <time>2019-12-31T14:12:51Z</time>
      </trkpt>
      <trkpt lat="38.330828" lon="-0.691437">
        <ele>327.6</ele>
        <time>2019-12-31T14:12:52Z</time>
      </trkpt>
      <trkpt lat="38.330828" lon="-0.691437">
        <ele>327.6</ele>
        <time>2019-12-31T14:12:53Z</time>
      </trkpt>
      <trkpt lat="38.330829" lon="-0.691518">
        <ele>328</ele>
        <time>2019-12-31T14:12:54Z</time>
      </trkpt>
      <trkpt lat="38.330829" lon="-0.691518">
        <ele>328.2</ele>
        <time>2019-12-31T14:12:55Z</time>
      </trkpt>
      <trkpt lat="38.330833" lon="-0.691599">
        <ele>328.4</ele>
        <time>2019-12-31T14:12:56Z</time>
      </trkpt>
      <trkpt lat="38.330836" lon="-0.691640">
        <ele>328.4</ele>
        <time>2019-12-31T14:12:57Z</time>
      </trkpt>
      <trkpt lat="38.330839" lon="-0.691681">
        <ele>328.6</ele>
        <time>2019-12-31T14:12:58Z</time>
      </trkpt>
      <trkpt lat="38.330842" lon="-0.691720">
        <ele>328.8</ele>
        <time>2019-12-31T14:12:59Z</time>
      </trkpt>
      <trkpt lat="38.330842" lon="-0.691720">
        <ele>329.2</ele>
        <time>2019-12-31T14:13:00Z</time>
      </trkpt>
      <trkpt lat="38.330846" lon="-0.691760">
        <ele>329.2</ele>
        <time>2019-12-31T14:13:01Z</time>
      </trkpt>
      <trkpt lat="38.330853" lon="-0.691838">
        <ele>329.6</ele>
        <time>2019-12-31T14:13:02Z</time>
      </trkpt>
      <trkpt lat="38.330858" lon="-0.691876">
        <ele>329.8</ele>
        <time>2019-12-31T14:13:03Z</time>
      </trkpt>
      <trkpt lat="38.330858" lon="-0.691876">
        <ele>329.8</ele>
        <time>2019-12-31T14:13:04Z</time>
      </trkpt>
      <trkpt lat="38.330865" lon="-0.691944">
        <ele>330</ele>
        <time>2019-12-31T14:13:05Z</time>
      </trkpt>
      <trkpt lat="38.330867" lon="-0.691980">
        <ele>330.2</ele>
        <time>2019-12-31T14:13:06Z</time>
      </trkpt>
      <trkpt lat="38.330867" lon="-0.691980">
        <ele>330.6</ele>
        <time>2019-12-31T14:13:07Z</time>
      </trkpt>
      <trkpt lat="38.330868" lon="-0.692017">
        <ele>330.8</ele>
        <time>2019-12-31T14:13:08Z</time>
      </trkpt>
      <trkpt lat="38.330870" lon="-0.692051">
        <ele>330.8</ele>
        <time>2019-12-31T14:13:09Z</time>
      </trkpt>
      <trkpt lat="38.330875" lon="-0.692115">
        <ele>331.2</ele>
        <time>2019-12-31T14:13:10Z</time>
      </trkpt>
      <trkpt lat="38.330875" lon="-0.692115">
        <ele>331.4</ele>
        <time>2019-12-31T14:13:11Z</time>
      </trkpt>
      <trkpt lat="38.330880" lon="-0.692149">
        <ele>331.6</ele>
        <time>2019-12-31T14:13:12Z</time>
      </trkpt>
      <trkpt lat="38.330884" lon="-0.692180">
        <ele>331.8</ele>
        <time>2019-12-31T14:13:13Z</time>
      </trkpt>
      <trkpt lat="38.330893" lon="-0.692239">
        <ele>332</ele>
        <time>2019-12-31T14:13:14Z</time>
      </trkpt>
      <trkpt lat="38.330895" lon="-0.692267">
        <ele>332.4</ele>
        <time>2019-12-31T14:13:15Z</time>
      </trkpt>
      <trkpt lat="38.330895" lon="-0.692267">
        <ele>332.6</ele>
        <time>2019-12-31T14:13:16Z</time>
      </trkpt>
      <trkpt lat="38.330898" lon="-0.692296">
        <ele>332.8</ele>
        <time>2019-12-31T14:13:17Z</time>
      </trkpt>
      <trkpt lat="38.330893" lon="-0.692354">
        <ele>333</ele>
        <time>2019-12-31T14:13:18Z</time>
      </trkpt>
      <trkpt lat="38.330893" lon="-0.692354">
        <ele>333.4</ele>
        <time>2019-12-31T14:13:19Z</time>
      </trkpt>
      <trkpt lat="38.330887" lon="-0.692381">
        <ele>333.8</ele>
        <time>2019-12-31T14:13:20Z</time>
      </trkpt>
      <trkpt lat="38.330880" lon="-0.692404">
        <ele>334.2</ele>
        <time>2019-12-31T14:13:21Z</time>
      </trkpt>
      <trkpt lat="38.330871" lon="-0.692421">
        <ele>334.6</ele>
        <time>2019-12-31T14:13:22Z</time>
      </trkpt>
      <trkpt lat="38.330864" lon="-0.692437">
        <ele>335</ele>
        <time>2019-12-31T14:13:23Z</time>
      </trkpt>
      <trkpt lat="38.330855" lon="-0.692452">
        <ele>335</ele>
        <time>2019-12-31T14:13:24Z</time>
      </trkpt>
      <trkpt lat="38.330825" lon="-0.692464">
        <ele>335.2</ele>
        <time>2019-12-31T14:13:25Z</time>
      </trkpt>
      <trkpt lat="38.330811" lon="-0.692453">
        <ele>335.2</ele>
        <time>2019-12-31T14:13:26Z</time>
      </trkpt>
      <trkpt lat="38.330796" lon="-0.692439">
        <ele>335.4</ele>
        <time>2019-12-31T14:13:27Z</time>
      </trkpt>
      <trkpt lat="38.330796" lon="-0.692439">
        <ele>335.6</ele>
        <time>2019-12-31T14:13:28Z</time>
      </trkpt>
      <trkpt lat="38.330782" lon="-0.692425">
        <ele>335.8</ele>
        <time>2019-12-31T14:13:29Z</time>
      </trkpt>
      <trkpt lat="38.330757" lon="-0.692390">
        <ele>336</ele>
        <time>2019-12-31T14:13:30Z</time>
      </trkpt>
      <trkpt lat="38.330757" lon="-0.692390">
        <ele>336.2</ele>
        <time>2019-12-31T14:13:31Z</time>
      </trkpt>
      <trkpt lat="38.330746" lon="-0.692371">
        <ele>336.4</ele>
        <time>2019-12-31T14:13:32Z</time>
      </trkpt>
      <trkpt lat="38.330735" lon="-0.692352">
        <ele>336.8</ele>
        <time>2019-12-31T14:13:33Z</time>
      </trkpt>
      <trkpt lat="38.330722" lon="-0.692334">
        <ele>337</ele>
        <time>2019-12-31T14:13:34Z</time>
      </trkpt>
      <trkpt lat="38.330710" lon="-0.692315">
        <ele>337.2</ele>
        <time>2019-12-31T14:13:35Z</time>
      </trkpt>
      <trkpt lat="38.330697" lon="-0.692298">
        <ele>337.4</ele>
        <time>2019-12-31T14:13:36Z</time>
      </trkpt>
      <trkpt lat="38.330671" lon="-0.692267">
        <ele>337.8</ele>
        <time>2019-12-31T14:13:37Z</time>
      </trkpt>
      <trkpt lat="38.330671" lon="-0.692267">
        <ele>338</ele>
        <time>2019-12-31T14:13:38Z</time>
      </trkpt>
      <trkpt lat="38.330657" lon="-0.692251">
        <ele>338.2</ele>
        <time>2019-12-31T14:13:39Z</time>
      </trkpt>
      <trkpt lat="38.330646" lon="-0.692234">
        <ele>338.4</ele>
        <time>2019-12-31T14:13:40Z</time>
      </trkpt>
      <trkpt lat="38.330633" lon="-0.692216">
        <ele>338.6</ele>
        <time>2019-12-31T14:13:41Z</time>
      </trkpt>
      <trkpt lat="38.330608" lon="-0.692181">
        <ele>338.8</ele>
        <time>2019-12-31T14:13:42Z</time>
      </trkpt>
      <trkpt lat="38.330608" lon="-0.692181">
        <ele>339.2</ele>
        <time>2019-12-31T14:13:43Z</time>
      </trkpt>
      <trkpt lat="38.330595" lon="-0.692163">
        <ele>339.4</ele>
        <time>2019-12-31T14:13:44Z</time>
      </trkpt>
      <trkpt lat="38.330582" lon="-0.692146">
        <ele>339.6</ele>
        <time>2019-12-31T14:13:45Z</time>
      </trkpt>
      <trkpt lat="38.330557" lon="-0.692109">
        <ele>339.8</ele>
        <time>2019-12-31T14:13:46Z</time>
      </trkpt>
      <trkpt lat="38.330557" lon="-0.692109">
        <ele>340</ele>
        <time>2019-12-31T14:13:47Z</time>
      </trkpt>
      <trkpt lat="38.330534" lon="-0.692070">
        <ele>340.2</ele>
        <time>2019-12-31T14:13:48Z</time>
      </trkpt>
      <trkpt lat="38.330534" lon="-0.692070">
        <ele>340.8</ele>
        <time>2019-12-31T14:13:49Z</time>
      </trkpt>
      <trkpt lat="38.330516" lon="-0.692032">
        <ele>341</ele>
        <time>2019-12-31T14:13:50Z</time>
      </trkpt>
      <trkpt lat="38.330516" lon="-0.692032">
        <ele>341</ele>
        <time>2019-12-31T14:13:51Z</time>
      </trkpt>
      <trkpt lat="38.330496" lon="-0.691995">
        <ele>341.4</ele>
        <time>2019-12-31T14:13:52Z</time>
      </trkpt>
      <trkpt lat="38.330496" lon="-0.691995">
        <ele>341.6</ele>
        <time>2019-12-31T14:13:53Z</time>
      </trkpt>
      <trkpt lat="38.330474" lon="-0.691957">
        <ele>341.8</ele>
        <time>2019-12-31T14:13:54Z</time>
      </trkpt>
      <trkpt lat="38.330464" lon="-0.691936">
        <ele>342</ele>
        <time>2019-12-31T14:13:55Z</time>
      </trkpt>
      <trkpt lat="38.330455" lon="-0.691917">
        <ele>342.2</ele>
        <time>2019-12-31T14:13:56Z</time>
      </trkpt>
      <trkpt lat="38.330455" lon="-0.691917">
        <ele>342.4</ele>
        <time>2019-12-31T14:13:57Z</time>
      </trkpt>
      <trkpt lat="38.330446" lon="-0.691897">
        <ele>342.8</ele>
        <time>2019-12-31T14:13:58Z</time>
      </trkpt>
      <trkpt lat="38.330438" lon="-0.691878">
        <ele>343</ele>
        <time>2019-12-31T14:13:59Z</time>
      </trkpt>
      <trkpt lat="38.330429" lon="-0.691858">
        <ele>343.2</ele>
        <time>2019-12-31T14:14:00Z</time>
      </trkpt>
      <trkpt lat="38.330415" lon="-0.691819">
        <ele>343.6</ele>
        <time>2019-12-31T14:14:01Z</time>
      </trkpt>
      <trkpt lat="38.330408" lon="-0.691798">
        <ele>344</ele>
        <time>2019-12-31T14:14:02Z</time>
      </trkpt>
      <trkpt lat="38.330408" lon="-0.691798">
        <ele>344.2</ele>
        <time>2019-12-31T14:14:03Z</time>
      </trkpt>
      <trkpt lat="38.330401" lon="-0.691779">
        <ele>344.2</ele>
        <time>2019-12-31T14:14:04Z</time>
      </trkpt>
      <trkpt lat="38.330392" lon="-0.691760">
        <ele>344.8</ele>
        <time>2019-12-31T14:14:05Z</time>
      </trkpt>
      <trkpt lat="38.330376" lon="-0.691723">
        <ele>344.8</ele>
        <time>2019-12-31T14:14:06Z</time>
      </trkpt>
      <trkpt lat="38.330368" lon="-0.691705">
        <ele>345.2</ele>
        <time>2019-12-31T14:14:07Z</time>
      </trkpt>
      <trkpt lat="38.330368" lon="-0.691705">
        <ele>345.2</ele>
        <time>2019-12-31T14:14:08Z</time>
      </trkpt>
      <trkpt lat="38.330351" lon="-0.691677">
        <ele>345.6</ele>
        <time>2019-12-31T14:14:09Z</time>
      </trkpt>
      <trkpt lat="38.330351" lon="-0.691677">
        <ele>345.8</ele>
        <time>2019-12-31T14:14:10Z</time>
      </trkpt>
      <trkpt lat="38.330340" lon="-0.691663">
        <ele>346</ele>
        <time>2019-12-31T14:14:11Z</time>
      </trkpt>
      <trkpt lat="38.330331" lon="-0.691646">
        <ele>346.4</ele>
        <time>2019-12-31T14:14:12Z</time>
      </trkpt>
      <trkpt lat="38.330310" lon="-0.691615">
        <ele>346.6</ele>
        <time>2019-12-31T14:14:13Z</time>
      </trkpt>
      <trkpt lat="38.330310" lon="-0.691615">
        <ele>346.8</ele>
        <time>2019-12-31T14:14:14Z</time>
      </trkpt>
      <trkpt lat="38.330299" lon="-0.691599">
        <ele>347.2</ele>
        <time>2019-12-31T14:14:15Z</time>
      </trkpt>
      <trkpt lat="38.330289" lon="-0.691582">
        <ele>347.4</ele>
        <time>2019-12-31T14:14:16Z</time>
      </trkpt>
      <trkpt lat="38.330278" lon="-0.691566">
        <ele>347.6</ele>
        <time>2019-12-31T14:14:17Z</time>
      </trkpt>
      <trkpt lat="38.330267" lon="-0.691549">
        <ele>348</ele>
        <time>2019-12-31T14:14:18Z</time>
      </trkpt>
      <trkpt lat="38.330257" lon="-0.691531">
        <ele>348</ele>
        <time>2019-12-31T14:14:19Z</time>
      </trkpt>
      <trkpt lat="38.330248" lon="-0.691513">
        <ele>348.2</ele>
        <time>2019-12-31T14:14:20Z</time>
      </trkpt>
      <trkpt lat="38.330229" lon="-0.691477">
        <ele>348.6</ele>
        <time>2019-12-31T14:14:21Z</time>
      </trkpt>
      <trkpt lat="38.330219" lon="-0.691459">
        <ele>348.8</ele>
        <time>2019-12-31T14:14:22Z</time>
      </trkpt>
      <trkpt lat="38.330208" lon="-0.691442">
        <ele>349</ele>
        <time>2019-12-31T14:14:23Z</time>
      </trkpt>
      <trkpt lat="38.330208" lon="-0.691442">
        <ele>349.4</ele>
        <time>2019-12-31T14:14:24Z</time>
      </trkpt>
      <trkpt lat="38.330190" lon="-0.691406">
        <ele>349.6</ele>
        <time>2019-12-31T14:14:25Z</time>
      </trkpt>
      <trkpt lat="38.330190" lon="-0.691406">
        <ele>349.8</ele>
        <time>2019-12-31T14:14:26Z</time>
      </trkpt>
      <trkpt lat="38.330171" lon="-0.691371">
        <ele>350</ele>
        <time>2019-12-31T14:14:27Z</time>
      </trkpt>
      <trkpt lat="38.330171" lon="-0.691371">
        <ele>350.2</ele>
        <time>2019-12-31T14:14:28Z</time>
      </trkpt>
      <trkpt lat="38.330161" lon="-0.691353">
        <ele>350.6</ele>
        <time>2019-12-31T14:14:29Z</time>
      </trkpt>
      <trkpt lat="38.330151" lon="-0.691335">
        <ele>350.6</ele>
        <time>2019-12-31T14:14:30Z</time>
      </trkpt>
      <trkpt lat="38.330131" lon="-0.691299">
        <ele>351</ele>
        <time>2019-12-31T14:14:31Z</time>
      </trkpt>
      <trkpt lat="38.330131" lon="-0.691299">
        <ele>351.2</ele>
        <time>2019-12-31T14:14:32Z</time>
      </trkpt>
      <trkpt lat="38.330123" lon="-0.691279">
        <ele>351.6</ele>
        <time>2019-12-31T14:14:33Z</time>
      </trkpt>
      <trkpt lat="38.330114" lon="-0.691259">
        <ele>351.8</ele>
        <time>2019-12-31T14:14:34Z</time>
      </trkpt>
      <trkpt lat="38.330096" lon="-0.691223">
        <ele>352</ele>
        <time>2019-12-31T14:14:35Z</time>
      </trkpt>
      <trkpt lat="38.330096" lon="-0.691223">
        <ele>352.2</ele>
        <time>2019-12-31T14:14:36Z</time>
      </trkpt>
      <trkpt lat="38.330088" lon="-0.691204">
        <ele>352.6</ele>
        <time>2019-12-31T14:14:37Z</time>
      </trkpt>
      <trkpt lat="38.330070" lon="-0.691170">
        <ele>352.8</ele>
        <time>2019-12-31T14:14:38Z</time>
      </trkpt>
      <trkpt lat="38.330061" lon="-0.691152">
        <ele>353</ele>
        <time>2019-12-31T14:14:39Z</time>
      </trkpt>
      <trkpt lat="38.330061" lon="-0.691152">
        <ele>353.2</ele>
        <time>2019-12-31T14:14:40Z</time>
      </trkpt>
      <trkpt lat="38.330052" lon="-0.691136">
        <ele>353.4</ele>
        <time>2019-12-31T14:14:41Z</time>
      </trkpt>
      <trkpt lat="38.330043" lon="-0.691119">
        <ele>353.8</ele>
        <time>2019-12-31T14:14:42Z</time>
      </trkpt>
      <trkpt lat="38.330035" lon="-0.691100">
        <ele>353.8</ele>
        <time>2019-12-31T14:14:43Z</time>
      </trkpt>
      <trkpt lat="38.330015" lon="-0.691067">
        <ele>354.2</ele>
        <time>2019-12-31T14:14:44Z</time>
      </trkpt>
      <trkpt lat="38.330003" lon="-0.691052">
        <ele>354.4</ele>
        <time>2019-12-31T14:14:45Z</time>
      </trkpt>
      <trkpt lat="38.330003" lon="-0.691052">
        <ele>354.6</ele>
        <time>2019-12-31T14:14:46Z</time>
      </trkpt>
      <trkpt lat="38.329971" lon="-0.691040">
        <ele>354.8</ele>
        <time>2019-12-31T14:14:47Z</time>
      </trkpt>
      <trkpt lat="38.329956" lon="-0.691034">
        <ele>355</ele>
        <time>2019-12-31T14:14:48Z</time>
      </trkpt>
      <trkpt lat="38.329942" lon="-0.691029">
        <ele>355.4</ele>
        <time>2019-12-31T14:14:49Z</time>
      </trkpt>
      <trkpt lat="38.329942" lon="-0.691029">
        <ele>355.6</ele>
        <time>2019-12-31T14:14:50Z</time>
      </trkpt>
      <trkpt lat="38.329915" lon="-0.691036">
        <ele>356</ele>
        <time>2019-12-31T14:14:51Z</time>
      </trkpt>
      <trkpt lat="38.329901" lon="-0.691043">
        <ele>356.2</ele>
        <time>2019-12-31T14:14:52Z</time>
      </trkpt>
      <trkpt lat="38.329888" lon="-0.691050">
        <ele>356.6</ele>
        <time>2019-12-31T14:14:53Z</time>
      </trkpt>
      <trkpt lat="38.329888" lon="-0.691050">
        <ele>356.6</ele>
        <time>2019-12-31T14:14:54Z</time>
      </trkpt>
      <trkpt lat="38.329867" lon="-0.691075">
        <ele>357</ele>
        <time>2019-12-31T14:14:55Z</time>
      </trkpt>
      <trkpt lat="38.329867" lon="-0.691075">
        <ele>357.2</ele>
        <time>2019-12-31T14:14:56Z</time>
      </trkpt>
      <trkpt lat="38.329862" lon="-0.691121">
        <ele>357.2</ele>
        <time>2019-12-31T14:14:57Z</time>
      </trkpt>
      <trkpt lat="38.329861" lon="-0.691139">
        <ele>357.6</ele>
        <time>2019-12-31T14:14:58Z</time>
      </trkpt>
      <trkpt lat="38.329861" lon="-0.691139">
        <ele>357.6</ele>
        <time>2019-12-31T14:14:59Z</time>
      </trkpt>
      <trkpt lat="38.329860" lon="-0.691175">
        <ele>358</ele>
        <time>2019-12-31T14:15:00Z</time>
      </trkpt>
      <trkpt lat="38.329860" lon="-0.691196">
        <ele>358</ele>
        <time>2019-12-31T14:15:01Z</time>
      </trkpt>
      <trkpt lat="38.329860" lon="-0.691196">
        <ele>358.2</ele>
        <time>2019-12-31T14:15:02Z</time>
      </trkpt>
      <trkpt lat="38.329862" lon="-0.691214">
        <ele>358.6</ele>
        <time>2019-12-31T14:15:03Z</time>
      </trkpt>
      <trkpt lat="38.329872" lon="-0.691248">
        <ele>358.8</ele>
        <time>2019-12-31T14:15:04Z</time>
      </trkpt>
      <trkpt lat="38.329877" lon="-0.691266">
        <ele>359</ele>
        <time>2019-12-31T14:15:05Z</time>
      </trkpt>
      <trkpt lat="38.329884" lon="-0.691287">
        <ele>359.2</ele>
        <time>2019-12-31T14:15:06Z</time>
      </trkpt>
      <trkpt lat="38.329889" lon="-0.691305">
        <ele>359.4</ele>
        <time>2019-12-31T14:15:07Z</time>
      </trkpt>
      <trkpt lat="38.329889" lon="-0.691305">
        <ele>359.6</ele>
        <time>2019-12-31T14:15:08Z</time>
      </trkpt>
      <trkpt lat="38.329897" lon="-0.691340">
        <ele>359.8</ele>
        <time>2019-12-31T14:15:09Z</time>
      </trkpt>
      <trkpt lat="38.329903" lon="-0.691358">
        <ele>360</ele>
        <time>2019-12-31T14:15:10Z</time>
      </trkpt>
      <trkpt lat="38.329906" lon="-0.691376">
        <ele>360.4</ele>
        <time>2019-12-31T14:15:11Z</time>
      </trkpt>
      <trkpt lat="38.329907" lon="-0.691394">
        <ele>360.6</ele>
        <time>2019-12-31T14:15:12Z</time>
      </trkpt>
      <trkpt lat="38.329911" lon="-0.691413">
        <ele>360.8</ele>
        <time>2019-12-31T14:15:13Z</time>
      </trkpt>
      <trkpt lat="38.329913" lon="-0.691433">
        <ele>361</ele>
        <time>2019-12-31T14:15:14Z</time>
      </trkpt>
      <trkpt lat="38.329914" lon="-0.691453">
        <ele>361.2</ele>
        <time>2019-12-31T14:15:15Z</time>
      </trkpt>
      <trkpt lat="38.329917" lon="-0.691472">
        <ele>361.4</ele>
        <time>2019-12-31T14:15:16Z</time>
      </trkpt>
      <trkpt lat="38.329921" lon="-0.691491">
        <ele>361.6</ele>
        <time>2019-12-31T14:15:17Z</time>
      </trkpt>
      <trkpt lat="38.329925" lon="-0.691512">
        <ele>362</ele>
        <time>2019-12-31T14:15:18Z</time>
      </trkpt>
      <trkpt lat="38.329925" lon="-0.691533">
        <ele>362</ele>
        <time>2019-12-31T14:15:19Z</time>
      </trkpt>
      <trkpt lat="38.329926" lon="-0.691557">
        <ele>362.2</ele>
        <time>2019-12-31T14:15:20Z</time>
      </trkpt>
      <trkpt lat="38.329929" lon="-0.691578">
        <ele>362.6</ele>
        <time>2019-12-31T14:15:21Z</time>
      </trkpt>
      <trkpt lat="38.329932" lon="-0.691600">
        <ele>362.8</ele>
        <time>2019-12-31T14:15:22Z</time>
      </trkpt>
      <trkpt lat="38.329932" lon="-0.691600">
        <ele>363</ele>
        <time>2019-12-31T14:15:23Z</time>
      </trkpt>
      <trkpt lat="38.329938" lon="-0.691643">
        <ele>363.2</ele>
        <time>2019-12-31T14:15:24Z</time>
      </trkpt>
      <trkpt lat="38.329942" lon="-0.691664">
        <ele>363.2</ele>
        <time>2019-12-31T14:15:25Z</time>
      </trkpt>
      <trkpt lat="38.329944" lon="-0.691685">
        <ele>363.6</ele>
        <time>2019-12-31T14:15:26Z</time>
      </trkpt>
      <trkpt lat="38.329945" lon="-0.691705">
        <ele>363.6</ele>
        <time>2019-12-31T14:15:27Z</time>
      </trkpt>
      <trkpt lat="38.329945" lon="-0.691726">
        <ele>363.8</ele>
        <time>2019-12-31T14:15:28Z</time>
      </trkpt>
      <trkpt lat="38.329944" lon="-0.691750">
        <ele>364.2</ele>
        <time>2019-12-31T14:15:29Z</time>
      </trkpt>
      <trkpt lat="38.329944" lon="-0.691750">
        <ele>364.2</ele>
        <time>2019-12-31T14:15:30Z</time>
      </trkpt>
      <trkpt lat="38.329941" lon="-0.691798">
        <ele>364.6</ele>
        <time>2019-12-31T14:15:31Z</time>
      </trkpt>
      <trkpt lat="38.329941" lon="-0.691798">
        <ele>364.6</ele>
        <time>2019-12-31T14:15:32Z</time>
      </trkpt>
      <trkpt lat="38.329940" lon="-0.691849">
        <ele>365</ele>
        <time>2019-12-31T14:15:33Z</time>
      </trkpt>
      <trkpt lat="38.329940" lon="-0.691849">
        <ele>365.2</ele>
        <time>2019-12-31T14:15:34Z</time>
      </trkpt>
      <trkpt lat="38.329941" lon="-0.691874">
        <ele>365.2</ele>
        <time>2019-12-31T14:15:35Z</time>
      </trkpt>
      <trkpt lat="38.329943" lon="-0.691920">
        <ele>365.4</ele>
        <time>2019-12-31T14:15:36Z</time>
      </trkpt>
      <trkpt lat="38.329945" lon="-0.691943">
        <ele>365.6</ele>
        <time>2019-12-31T14:15:37Z</time>
      </trkpt>
      <trkpt lat="38.329945" lon="-0.691966">
        <ele>365.8</ele>
        <time>2019-12-31T14:15:38Z</time>
      </trkpt>
      <trkpt lat="38.329946" lon="-0.691988">
        <ele>366</ele>
        <time>2019-12-31T14:15:39Z</time>
      </trkpt>
      <trkpt lat="38.329946" lon="-0.691988">
        <ele>366.2</ele>
        <time>2019-12-31T14:15:40Z</time>
      </trkpt>
      <trkpt lat="38.329948" lon="-0.692032">
        <ele>366.4</ele>
        <time>2019-12-31T14:15:41Z</time>
      </trkpt>
      <trkpt lat="38.329948" lon="-0.692032">
        <ele>366.6</ele>
        <time>2019-12-31T14:15:42Z</time>
      </trkpt>
      <trkpt lat="38.329948" lon="-0.692054">
        <ele>366.6</ele>
        <time>2019-12-31T14:15:43Z</time>
      </trkpt>
      <trkpt lat="38.329949" lon="-0.692076">
        <ele>366.8</ele>
        <time>2019-12-31T14:15:44Z</time>
      </trkpt>
      <trkpt lat="38.329950" lon="-0.692118">
        <ele>367</ele>
        <time>2019-12-31T14:15:45Z</time>
      </trkpt>
      <trkpt lat="38.329950" lon="-0.692118">
        <ele>367.2</ele>
        <time>2019-12-31T14:15:46Z</time>
      </trkpt>
      <trkpt lat="38.329952" lon="-0.692161">
        <ele>367.4</ele>
        <time>2019-12-31T14:15:47Z</time>
      </trkpt>
      <trkpt lat="38.329952" lon="-0.692161">
        <ele>367.6</ele>
        <time>2019-12-31T14:15:48Z</time>
      </trkpt>
      <trkpt lat="38.329952" lon="-0.692202">
        <ele>368</ele>
        <time>2019-12-31T14:15:49Z</time>
      </trkpt>
      <trkpt lat="38.329952" lon="-0.692202">
        <ele>368.2</ele>
        <time>2019-12-31T14:15:50Z</time>
      </trkpt>
      <trkpt lat="38.329948" lon="-0.692244">
        <ele>368.4</ele>
        <time>2019-12-31T14:15:51Z</time>
      </trkpt>
      <trkpt lat="38.329948" lon="-0.692244">
        <ele>368.6</ele>
        <time>2019-12-31T14:15:52Z</time>
      </trkpt>
      <trkpt lat="38.329945" lon="-0.692266">
        <ele>368.8</ele>
        <time>2019-12-31T14:15:53Z</time>
      </trkpt>
      <trkpt lat="38.329945" lon="-0.692287">
        <ele>369</ele>
        <time>2019-12-31T14:15:54Z</time>
      </trkpt>
      <trkpt lat="38.329936" lon="-0.692331">
        <ele>369.2</ele>
        <time>2019-12-31T14:15:55Z</time>
      </trkpt>
      <trkpt lat="38.329936" lon="-0.692331">
        <ele>369.4</ele>
        <time>2019-12-31T14:15:56Z</time>
      </trkpt>
      <trkpt lat="38.329915" lon="-0.692365">
        <ele>369.6</ele>
        <time>2019-12-31T14:15:57Z</time>
      </trkpt>
      <trkpt lat="38.329915" lon="-0.692365">
        <ele>370</ele>
        <time>2019-12-31T14:15:58Z</time>
      </trkpt>
      <trkpt lat="38.329902" lon="-0.692372">
        <ele>370.2</ele>
        <time>2019-12-31T14:15:59Z</time>
      </trkpt>
      <trkpt lat="38.329888" lon="-0.692368">
        <ele>370.4</ele>
        <time>2019-12-31T14:16:00Z</time>
      </trkpt>
      <trkpt lat="38.329862" lon="-0.692346">
        <ele>370.6</ele>
        <time>2019-12-31T14:16:01Z</time>
      </trkpt>
      <trkpt lat="38.329862" lon="-0.692346">
        <ele>370.8</ele>
        <time>2019-12-31T14:16:02Z</time>
      </trkpt>
      <trkpt lat="38.329836" lon="-0.692318">
        <ele>371</ele>
        <time>2019-12-31T14:16:03Z</time>
      </trkpt>
      <trkpt lat="38.329827" lon="-0.692299">
        <ele>371.2</ele>
        <time>2019-12-31T14:16:04Z</time>
      </trkpt>
      <trkpt lat="38.329819" lon="-0.692281">
        <ele>371.6</ele>
        <time>2019-12-31T14:16:05Z</time>
      </trkpt>
      <trkpt lat="38.329811" lon="-0.692262">
        <ele>371.8</ele>
        <time>2019-12-31T14:16:06Z</time>
      </trkpt>
      <trkpt lat="38.329806" lon="-0.692242">
        <ele>371.8</ele>
        <time>2019-12-31T14:16:07Z</time>
      </trkpt>
      <trkpt lat="38.329806" lon="-0.692242">
        <ele>372.2</ele>
        <time>2019-12-31T14:16:08Z</time>
      </trkpt>
      <trkpt lat="38.329789" lon="-0.692201">
        <ele>372.2</ele>
        <time>2019-12-31T14:16:09Z</time>
      </trkpt>
      <trkpt lat="38.329783" lon="-0.692180">
        <ele>372.4</ele>
        <time>2019-12-31T14:16:10Z</time>
      </trkpt>
      <trkpt lat="38.329783" lon="-0.692180">
        <ele>372.8</ele>
        <time>2019-12-31T14:16:11Z</time>
      </trkpt>
      <trkpt lat="38.329770" lon="-0.692139">
        <ele>373</ele>
        <time>2019-12-31T14:16:12Z</time>
      </trkpt>
      <trkpt lat="38.329765" lon="-0.692118">
        <ele>373.2</ele>
        <time>2019-12-31T14:16:13Z</time>
      </trkpt>
      <trkpt lat="38.329765" lon="-0.692118">
        <ele>373.4</ele>
        <time>2019-12-31T14:16:14Z</time>
      </trkpt>
      <trkpt lat="38.329750" lon="-0.692077">
        <ele>373.6</ele>
        <time>2019-12-31T14:16:15Z</time>
      </trkpt>
      <trkpt lat="38.329744" lon="-0.692056">
        <ele>373.8</ele>
        <time>2019-12-31T14:16:16Z</time>
      </trkpt>
      <trkpt lat="38.329738" lon="-0.692036">
        <ele>374</ele>
        <time>2019-12-31T14:16:17Z</time>
      </trkpt>
      <trkpt lat="38.329732" lon="-0.692015">
        <ele>374.4</ele>
        <time>2019-12-31T14:16:18Z</time>
      </trkpt>
      <trkpt lat="38.329732" lon="-0.692015">
        <ele>374.6</ele>
        <time>2019-12-31T14:16:19Z</time>
      </trkpt>
      <trkpt lat="38.329721" lon="-0.691973">
        <ele>374.8</ele>
        <time>2019-12-31T14:16:20Z</time>
      </trkpt>
      <trkpt lat="38.329716" lon="-0.691952">
        <ele>375.2</ele>
        <time>2019-12-31T14:16:21Z</time>
      </trkpt>
      <trkpt lat="38.329716" lon="-0.691952">
        <ele>375.4</ele>
        <time>2019-12-31T14:16:22Z</time>
      </trkpt>
      <trkpt lat="38.329714" lon="-0.691930">
        <ele>375.8</ele>
        <time>2019-12-31T14:16:23Z</time>
      </trkpt>
      <trkpt lat="38.329709" lon="-0.691907">
        <ele>376</ele>
        <time>2019-12-31T14:16:24Z</time>
      </trkpt>
      <trkpt lat="38.329693" lon="-0.691866">
        <ele>376</ele>
        <time>2019-12-31T14:16:25Z</time>
      </trkpt>
      <trkpt lat="38.329684" lon="-0.691844">
        <ele>376.2</ele>
        <time>2019-12-31T14:16:26Z</time>
      </trkpt>
      <trkpt lat="38.329675" lon="-0.691823">
        <ele>376.4</ele>
        <time>2019-12-31T14:16:27Z</time>
      </trkpt>
      <trkpt lat="38.329675" lon="-0.691823">
        <ele>376.6</ele>
        <time>2019-12-31T14:16:28Z</time>
      </trkpt>
      <trkpt lat="38.329668" lon="-0.691802">
        <ele>376.8</ele>
        <time>2019-12-31T14:16:29Z</time>
      </trkpt>
      <trkpt lat="38.329652" lon="-0.691757">
        <ele>377</ele>
        <time>2019-12-31T14:16:30Z</time>
      </trkpt>
      <trkpt lat="38.329652" lon="-0.691757">
        <ele>377.2</ele>
        <time>2019-12-31T14:16:31Z</time>
      </trkpt>
      <trkpt lat="38.329638" lon="-0.691712">
        <ele>377.4</ele>
        <time>2019-12-31T14:16:32Z</time>
      </trkpt>
      <trkpt lat="38.329638" lon="-0.691712">
        <ele>377.4</ele>
        <time>2019-12-31T14:16:33Z</time>
      </trkpt>
      <trkpt lat="38.329628" lon="-0.691690">
        <ele>377.8</ele>
        <time>2019-12-31T14:16:34Z</time>
      </trkpt>
      <trkpt lat="38.329610" lon="-0.691646">
        <ele>378</ele>
        <time>2019-12-31T14:16:35Z</time>
      </trkpt>
      <trkpt lat="38.329603" lon="-0.691624">
        <ele>378.4</ele>
        <time>2019-12-31T14:16:36Z</time>
      </trkpt>
      <trkpt lat="38.329594" lon="-0.691604">
        <ele>378.6</ele>
        <time>2019-12-31T14:16:37Z</time>
      </trkpt>
      <trkpt lat="38.329594" lon="-0.691604">
        <ele>378.8</ele>
        <time>2019-12-31T14:16:38Z</time>
      </trkpt>
      <trkpt lat="38.329586" lon="-0.691584">
        <ele>379</ele>
        <time>2019-12-31T14:16:39Z</time>
      </trkpt>
      <trkpt lat="38.329568" lon="-0.691543">
        <ele>379.2</ele>
        <time>2019-12-31T14:16:40Z</time>
      </trkpt>
      <trkpt lat="38.329557" lon="-0.691524">
        <ele>379.4</ele>
        <time>2019-12-31T14:16:41Z</time>
      </trkpt>
      <trkpt lat="38.329557" lon="-0.691524">
        <ele>379.6</ele>
        <time>2019-12-31T14:16:42Z</time>
      </trkpt>
      <trkpt lat="38.329533" lon="-0.691488">
        <ele>380</ele>
        <time>2019-12-31T14:16:43Z</time>
      </trkpt>
      <trkpt lat="38.329533" lon="-0.691488">
        <ele>380.2</ele>
        <time>2019-12-31T14:16:44Z</time>
      </trkpt>
      <trkpt lat="38.329525" lon="-0.691470">
        <ele>380.4</ele>
        <time>2019-12-31T14:16:45Z</time>
      </trkpt>
      <trkpt lat="38.329504" lon="-0.691435">
        <ele>380.6</ele>
        <time>2019-12-31T14:16:46Z</time>
      </trkpt>
      <trkpt lat="38.329492" lon="-0.691418">
        <ele>380.8</ele>
        <time>2019-12-31T14:16:47Z</time>
      </trkpt>
      <trkpt lat="38.329492" lon="-0.691418">
        <ele>381</ele>
        <time>2019-12-31T14:16:48Z</time>
      </trkpt>
      <trkpt lat="38.329469" lon="-0.691383">
        <ele>381.2</ele>
        <time>2019-12-31T14:16:49Z</time>
      </trkpt>
      <trkpt lat="38.329458" lon="-0.691366">
        <ele>381.6</ele>
        <time>2019-12-31T14:16:50Z</time>
      </trkpt>
      <trkpt lat="38.329446" lon="-0.691351">
        <ele>382</ele>
        <time>2019-12-31T14:16:51Z</time>
      </trkpt>
      <trkpt lat="38.329434" lon="-0.691336">
        <ele>382.2</ele>
        <time>2019-12-31T14:16:52Z</time>
      </trkpt>
      <trkpt lat="38.329434" lon="-0.691336">
        <ele>382.6</ele>
        <time>2019-12-31T14:16:53Z</time>
      </trkpt>
      <trkpt lat="38.329423" lon="-0.691321">
        <ele>383</ele>
        <time>2019-12-31T14:16:54Z</time>
      </trkpt>
      <trkpt lat="38.329399" lon="-0.691292">
        <ele>383.2</ele>
        <time>2019-12-31T14:16:55Z</time>
      </trkpt>
      <trkpt lat="38.329399" lon="-0.691292">
        <ele>383.4</ele>
        <time>2019-12-31T14:16:56Z</time>
      </trkpt>
      <trkpt lat="38.329387" lon="-0.691278">
        <ele>383.8</ele>
        <time>2019-12-31T14:16:57Z</time>
      </trkpt>
      <trkpt lat="38.329375" lon="-0.691264">
        <ele>384</ele>
        <time>2019-12-31T14:16:58Z</time>
      </trkpt>
      <trkpt lat="38.329362" lon="-0.691252">
        <ele>384.4</ele>
        <time>2019-12-31T14:16:59Z</time>
      </trkpt>
      <trkpt lat="38.329337" lon="-0.691226">
        <ele>384.8</ele>
        <time>2019-12-31T14:17:00Z</time>
      </trkpt>
      <trkpt lat="38.329323" lon="-0.691217">
        <ele>385.2</ele>
        <time>2019-12-31T14:17:01Z</time>
      </trkpt>
      <trkpt lat="38.329309" lon="-0.691210">
        <ele>385.4</ele>
        <time>2019-12-31T14:17:02Z</time>
      </trkpt>
      <trkpt lat="38.329293" lon="-0.691203">
        <ele>385.6</ele>
        <time>2019-12-31T14:17:03Z</time>
      </trkpt>
      <trkpt lat="38.329278" lon="-0.691196">
        <ele>385.6</ele>
        <time>2019-12-31T14:17:04Z</time>
      </trkpt>
      <trkpt lat="38.329260" lon="-0.691190">
        <ele>386</ele>
        <time>2019-12-31T14:17:05Z</time>
      </trkpt>
      <trkpt lat="38.329260" lon="-0.691190">
        <ele>386</ele>
        <time>2019-12-31T14:17:06Z</time>
      </trkpt>
      <trkpt lat="38.329222" lon="-0.691180">
        <ele>386</ele>
        <time>2019-12-31T14:17:07Z</time>
      </trkpt>
      <trkpt lat="38.329222" lon="-0.691180">
        <ele>386</ele>
        <time>2019-12-31T14:17:08Z</time>
      </trkpt>
      <trkpt lat="38.329182" lon="-0.691173">
        <ele>386.4</ele>
        <time>2019-12-31T14:17:09Z</time>
      </trkpt>
      <trkpt lat="38.329155" lon="-0.691166">
        <ele>386</ele>
        <time>2019-12-31T14:17:10Z</time>
      </trkpt>
      <trkpt lat="38.329122" lon="-0.691158">
        <ele>386</ele>
        <time>2019-12-31T14:17:11Z</time>
      </trkpt>
      <trkpt lat="38.329122" lon="-0.691158">
        <ele>385.8</ele>
        <time>2019-12-31T14:17:12Z</time>
      </trkpt>
      <trkpt lat="38.329083" lon="-0.691150">
        <ele>385.4</ele>
        <time>2019-12-31T14:17:13Z</time>
      </trkpt>
      <trkpt lat="38.329039" lon="-0.691140">
        <ele>385.2</ele>
        <time>2019-12-31T14:17:14Z</time>
      </trkpt>
      <trkpt lat="38.328938" lon="-0.691121">
        <ele>385</ele>
        <time>2019-12-31T14:17:15Z</time>
      </trkpt>
      <trkpt lat="38.328938" lon="-0.691121">
        <ele>384.6</ele>
        <time>2019-12-31T14:17:16Z</time>
      </trkpt>
      <trkpt lat="38.328826" lon="-0.691105">
        <ele>384.2</ele>
        <time>2019-12-31T14:17:17Z</time>
      </trkpt>
      <trkpt lat="38.328766" lon="-0.691099">
        <ele>383.8</ele>
        <time>2019-12-31T14:17:18Z</time>
      </trkpt>
      <trkpt lat="38.328704" lon="-0.691095">
        <ele>383.4</ele>
        <time>2019-12-31T14:17:19Z</time>
      </trkpt>
      <trkpt lat="38.328704" lon="-0.691095">
        <ele>382.8</ele>
        <time>2019-12-31T14:17:20Z</time>
      </trkpt>
      <trkpt lat="38.328572" lon="-0.691084">
        <ele>382.8</ele>
        <time>2019-12-31T14:17:21Z</time>
      </trkpt>
      <trkpt lat="38.328502" lon="-0.691074">
        <ele>382.4</ele>
        <time>2019-12-31T14:17:22Z</time>
      </trkpt>
      <trkpt lat="38.328502" lon="-0.691074">
        <ele>381.6</ele>
        <time>2019-12-31T14:17:23Z</time>
      </trkpt>
      <trkpt lat="38.328355" lon="-0.691053">
        <ele>381.2</ele>
        <time>2019-12-31T14:17:24Z</time>
      </trkpt>
      <trkpt lat="38.328278" lon="-0.691041">
        <ele>380.8</ele>
        <time>2019-12-31T14:17:25Z</time>
      </trkpt>
      <trkpt lat="38.328278" lon="-0.691041">
        <ele>380.6</ele>
        <time>2019-12-31T14:17:26Z</time>
      </trkpt>
      <trkpt lat="38.328200" lon="-0.691030">
        <ele>380</ele>
        <time>2019-12-31T14:17:27Z</time>
      </trkpt>
      <trkpt lat="38.328043" lon="-0.691004">
        <ele>379.4</ele>
        <time>2019-12-31T14:17:28Z</time>
      </trkpt>
      <trkpt lat="38.327962" lon="-0.690991">
        <ele>379</ele>
        <time>2019-12-31T14:17:29Z</time>
      </trkpt>
      <trkpt lat="38.327880" lon="-0.690992">
        <ele>379</ele>
        <time>2019-12-31T14:17:30Z</time>
      </trkpt>
      <trkpt lat="38.327801" lon="-0.691010">
        <ele>378.4</ele>
        <time>2019-12-31T14:17:31Z</time>
      </trkpt>
      <trkpt lat="38.327727" lon="-0.691040">
        <ele>378.2</ele>
        <time>2019-12-31T14:17:32Z</time>
      </trkpt>
      <trkpt lat="38.327661" lon="-0.691083">
        <ele>378.4</ele>
        <time>2019-12-31T14:17:33Z</time>
      </trkpt>
      <trkpt lat="38.327603" lon="-0.691129">
        <ele>378.8</ele>
        <time>2019-12-31T14:17:34Z</time>
      </trkpt>
      <trkpt lat="38.327603" lon="-0.691129">
        <ele>379.4</ele>
        <time>2019-12-31T14:17:35Z</time>
      </trkpt>
      <trkpt lat="38.327517" lon="-0.691228">
        <ele>380</ele>
        <time>2019-12-31T14:17:36Z</time>
      </trkpt>
      <trkpt lat="38.327487" lon="-0.691278">
        <ele>380.6</ele>
        <time>2019-12-31T14:17:37Z</time>
      </trkpt>
      <trkpt lat="38.327487" lon="-0.691278">
        <ele>381</ele>
        <time>2019-12-31T14:17:38Z</time>
      </trkpt>
      <trkpt lat="38.327471" lon="-0.691373">
        <ele>381.6</ele>
        <time>2019-12-31T14:17:39Z</time>
      </trkpt>
      <trkpt lat="38.327471" lon="-0.691373">
        <ele>382</ele>
        <time>2019-12-31T14:17:40Z</time>
      </trkpt>
      <trkpt lat="38.327479" lon="-0.691449">
        <ele>382.6</ele>
        <time>2019-12-31T14:17:41Z</time>
      </trkpt>
      <trkpt lat="38.327479" lon="-0.691449">
        <ele>383.2</ele>
        <time>2019-12-31T14:17:42Z</time>
      </trkpt>
      <trkpt lat="38.327488" lon="-0.691515">
        <ele>383.6</ele>
        <time>2019-12-31T14:17:43Z</time>
      </trkpt>
      <trkpt lat="38.327488" lon="-0.691515">
        <ele>383.8</ele>
        <time>2019-12-31T14:17:44Z</time>
      </trkpt>
      <trkpt lat="38.327501" lon="-0.691591">
        <ele>384.2</ele>
        <time>2019-12-31T14:17:45Z</time>
      </trkpt>
      <trkpt lat="38.327512" lon="-0.691628">
        <ele>384.6</ele>
        <time>2019-12-31T14:17:46Z</time>
      </trkpt>
      <trkpt lat="38.327524" lon="-0.691663">
        <ele>385</ele>
        <time>2019-12-31T14:17:47Z</time>
      </trkpt>
      <trkpt lat="38.327524" lon="-0.691663">
        <ele>385.4</ele>
        <time>2019-12-31T14:17:48Z</time>
      </trkpt>
      <trkpt lat="38.327538" lon="-0.691726">
        <ele>385.8</ele>
        <time>2019-12-31T14:17:49Z</time>
      </trkpt>
      <trkpt lat="38.327538" lon="-0.691726">
        <ele>386.4</ele>
        <time>2019-12-31T14:17:50Z</time>
      </trkpt>
      <trkpt lat="38.327559" lon="-0.691785">
        <ele>386.8</ele>
        <time>2019-12-31T14:17:51Z</time>
      </trkpt>
      <trkpt lat="38.327565" lon="-0.691818">
        <ele>387.2</ele>
        <time>2019-12-31T14:17:52Z</time>
      </trkpt>
      <trkpt lat="38.327565" lon="-0.691818">
        <ele>387.8</ele>
        <time>2019-12-31T14:17:53Z</time>
      </trkpt>
      <trkpt lat="38.327582" lon="-0.691885">
        <ele>388.4</ele>
        <time>2019-12-31T14:17:54Z</time>
      </trkpt>
      <trkpt lat="38.327582" lon="-0.691885">
        <ele>388.8</ele>
        <time>2019-12-31T14:17:55Z</time>
      </trkpt>
      <trkpt lat="38.327590" lon="-0.691919">
        <ele>389.2</ele>
        <time>2019-12-31T14:17:56Z</time>
      </trkpt>
      <trkpt lat="38.327600" lon="-0.691952">
        <ele>389.6</ele>
        <time>2019-12-31T14:17:57Z</time>
      </trkpt>
      <trkpt lat="38.327609" lon="-0.691985">
        <ele>390</ele>
        <time>2019-12-31T14:17:58Z</time>
      </trkpt>
      <trkpt lat="38.327616" lon="-0.692016">
        <ele>390.6</ele>
        <time>2019-12-31T14:17:59Z</time>
      </trkpt>
      <trkpt lat="38.327623" lon="-0.692077">
        <ele>391</ele>
        <time>2019-12-31T14:18:00Z</time>
      </trkpt>
      <trkpt lat="38.327629" lon="-0.692107">
        <ele>391.2</ele>
        <time>2019-12-31T14:18:01Z</time>
      </trkpt>
      <trkpt lat="38.327629" lon="-0.692107">
        <ele>391.4</ele>
        <time>2019-12-31T14:18:02Z</time>
      </trkpt>
      <trkpt lat="38.327645" lon="-0.692167">
        <ele>391.8</ele>
        <time>2019-12-31T14:18:03Z</time>
      </trkpt>
      <trkpt lat="38.327645" lon="-0.692167">
        <ele>391.8</ele>
        <time>2019-12-31T14:18:04Z</time>
      </trkpt>
      <trkpt lat="38.327649" lon="-0.692199">
        <ele>392.2</ele>
        <time>2019-12-31T14:18:05Z</time>
      </trkpt>
      <trkpt lat="38.327655" lon="-0.692260">
        <ele>392.6</ele>
        <time>2019-12-31T14:18:06Z</time>
      </trkpt>
      <trkpt lat="38.327657" lon="-0.692291">
        <ele>392.8</ele>
        <time>2019-12-31T14:18:07Z</time>
      </trkpt>
      <trkpt lat="38.327657" lon="-0.692291">
        <ele>393</ele>
        <time>2019-12-31T14:18:08Z</time>
      </trkpt>
      <trkpt lat="38.327664" lon="-0.692354">
        <ele>393.4</ele>
        <time>2019-12-31T14:18:09Z</time>
      </trkpt>
      <trkpt lat="38.327664" lon="-0.692354">
        <ele>393.6</ele>
        <time>2019-12-31T14:18:10Z</time>
      </trkpt>
      <trkpt lat="38.327668" lon="-0.692385">
        <ele>394</ele>
        <time>2019-12-31T14:18:11Z</time>
      </trkpt>
      <trkpt lat="38.327677" lon="-0.692449">
        <ele>394.2</ele>
        <time>2019-12-31T14:18:12Z</time>
      </trkpt>
      <trkpt lat="38.327677" lon="-0.692449">
        <ele>394.2</ele>
        <time>2019-12-31T14:18:13Z</time>
      </trkpt>
      <trkpt lat="38.327680" lon="-0.692502">
        <ele>394.8</ele>
        <time>2019-12-31T14:18:14Z</time>
      </trkpt>
      <trkpt lat="38.327682" lon="-0.692532">
        <ele>394.8</ele>
        <time>2019-12-31T14:18:15Z</time>
      </trkpt>
      <trkpt lat="38.327682" lon="-0.692532">
        <ele>395.4</ele>
        <time>2019-12-31T14:18:16Z</time>
      </trkpt>
      <trkpt lat="38.327683" lon="-0.692562">
        <ele>395.6</ele>
        <time>2019-12-31T14:18:17Z</time>
      </trkpt>
      <trkpt lat="38.327683" lon="-0.692592">
        <ele>396</ele>
        <time>2019-12-31T14:18:18Z</time>
      </trkpt>
      <trkpt lat="38.327682" lon="-0.692622">
        <ele>396.2</ele>
        <time>2019-12-31T14:18:19Z</time>
      </trkpt>
      <trkpt lat="38.327683" lon="-0.692651">
        <ele>396.6</ele>
        <time>2019-12-31T14:18:20Z</time>
      </trkpt>
      <trkpt lat="38.327685" lon="-0.692703">
        <ele>397</ele>
        <time>2019-12-31T14:18:21Z</time>
      </trkpt>
      <trkpt lat="38.327680" lon="-0.692729">
        <ele>397.4</ele>
        <time>2019-12-31T14:18:22Z</time>
      </trkpt>
      <trkpt lat="38.327680" lon="-0.692729">
        <ele>397.6</ele>
        <time>2019-12-31T14:18:23Z</time>
      </trkpt>
      <trkpt lat="38.327679" lon="-0.692757">
        <ele>398</ele>
        <time>2019-12-31T14:18:24Z</time>
      </trkpt>
      <trkpt lat="38.327664" lon="-0.692810">
        <ele>398.4</ele>
        <time>2019-12-31T14:18:25Z</time>
      </trkpt>
      <trkpt lat="38.327664" lon="-0.692810">
        <ele>398.8</ele>
        <time>2019-12-31T14:18:26Z</time>
      </trkpt>
      <trkpt lat="38.327650" lon="-0.692864">
        <ele>398.8</ele>
        <time>2019-12-31T14:18:27Z</time>
      </trkpt>
      <trkpt lat="38.327642" lon="-0.692890">
        <ele>399.2</ele>
        <time>2019-12-31T14:18:28Z</time>
      </trkpt>
      <trkpt lat="38.327642" lon="-0.692890">
        <ele>399.2</ele>
        <time>2019-12-31T14:18:29Z</time>
      </trkpt>
      <trkpt lat="38.327624" lon="-0.692947">
        <ele>399.4</ele>
        <time>2019-12-31T14:18:30Z</time>
      </trkpt>
      <trkpt lat="38.327613" lon="-0.692981">
        <ele>399.4</ele>
        <time>2019-12-31T14:18:31Z</time>
      </trkpt>
      <trkpt lat="38.327613" lon="-0.692981">
        <ele>399.4</ele>
        <time>2019-12-31T14:18:32Z</time>
      </trkpt>
      <trkpt lat="38.327601" lon="-0.693020">
        <ele>399.4</ele>
        <time>2019-12-31T14:18:33Z</time>
      </trkpt>
      <trkpt lat="38.327574" lon="-0.693112">
        <ele>399.2</ele>
        <time>2019-12-31T14:18:34Z</time>
      </trkpt>
      <trkpt lat="38.327574" lon="-0.693112">
        <ele>398.6</ele>
        <time>2019-12-31T14:18:35Z</time>
      </trkpt>
      <trkpt lat="38.327540" lon="-0.693229">
        <ele>398.2</ele>
        <time>2019-12-31T14:18:36Z</time>
      </trkpt>
      <trkpt lat="38.327522" lon="-0.693295">
        <ele>397.6</ele>
        <time>2019-12-31T14:18:37Z</time>
      </trkpt>
      <trkpt lat="38.327504" lon="-0.693363">
        <ele>397.6</ele>
        <time>2019-12-31T14:18:38Z</time>
      </trkpt>
      <trkpt lat="38.327488" lon="-0.693433">
        <ele>397.4</ele>
        <time>2019-12-31T14:18:39Z</time>
      </trkpt>
      <trkpt lat="38.327476" lon="-0.693504">
        <ele>397.2</ele>
        <time>2019-12-31T14:18:40Z</time>
      </trkpt>
      <trkpt lat="38.327476" lon="-0.693504">
        <ele>397</ele>
        <time>2019-12-31T14:18:41Z</time>
      </trkpt>
      <trkpt lat="38.327491" lon="-0.693646">
        <ele>397.2</ele>
        <time>2019-12-31T14:18:42Z</time>
      </trkpt>
      <trkpt lat="38.327512" lon="-0.693712">
        <ele>397.6</ele>
        <time>2019-12-31T14:18:43Z</time>
      </trkpt>
      <trkpt lat="38.327533" lon="-0.693779">
        <ele>397.6</ele>
        <time>2019-12-31T14:18:44Z</time>
      </trkpt>
      <trkpt lat="38.327533" lon="-0.693779">
        <ele>397.2</ele>
        <time>2019-12-31T14:18:45Z</time>
      </trkpt>
      <trkpt lat="38.327537" lon="-0.693912">
        <ele>397.2</ele>
        <time>2019-12-31T14:18:46Z</time>
      </trkpt>
      <trkpt lat="38.327537" lon="-0.693912">
        <ele>397.6</ele>
        <time>2019-12-31T14:18:47Z</time>
      </trkpt>
      <trkpt lat="38.327481" lon="-0.693988">
        <ele>397.8</ele>
        <time>2019-12-31T14:18:48Z</time>
      </trkpt>
      <trkpt lat="38.327449" lon="-0.694013">
        <ele>397.8</ele>
        <time>2019-12-31T14:18:49Z</time>
      </trkpt>
      <trkpt lat="38.327419" lon="-0.694041">
        <ele>398.4</ele>
        <time>2019-12-31T14:18:50Z</time>
      </trkpt>
      <trkpt lat="38.327391" lon="-0.694067">
        <ele>398.6</ele>
        <time>2019-12-31T14:18:51Z</time>
      </trkpt>
      <trkpt lat="38.327391" lon="-0.694067">
        <ele>398.8</ele>
        <time>2019-12-31T14:18:52Z</time>
      </trkpt>
      <trkpt lat="38.327340" lon="-0.694120">
        <ele>399</ele>
        <time>2019-12-31T14:18:53Z</time>
      </trkpt>
      <trkpt lat="38.327312" lon="-0.694148">
        <ele>399.4</ele>
        <time>2019-12-31T14:18:54Z</time>
      </trkpt>
      <trkpt lat="38.327312" lon="-0.694148">
        <ele>399.6</ele>
        <time>2019-12-31T14:18:55Z</time>
      </trkpt>
      <trkpt lat="38.327289" lon="-0.694178">
        <ele>400</ele>
        <time>2019-12-31T14:18:56Z</time>
      </trkpt>
      <trkpt lat="38.327270" lon="-0.694210">
        <ele>400.2</ele>
        <time>2019-12-31T14:18:57Z</time>
      </trkpt>
      <trkpt lat="38.327253" lon="-0.694244">
        <ele>400.4</ele>
        <time>2019-12-31T14:18:58Z</time>
      </trkpt>
      <trkpt lat="38.327237" lon="-0.694278">
        <ele>401</ele>
        <time>2019-12-31T14:18:59Z</time>
      </trkpt>
      <trkpt lat="38.327224" lon="-0.694312">
        <ele>401</ele>
        <time>2019-12-31T14:19:00Z</time>
      </trkpt>
      <trkpt lat="38.327211" lon="-0.694345">
        <ele>401.2</ele>
        <time>2019-12-31T14:19:01Z</time>
      </trkpt>
      <trkpt lat="38.327186" lon="-0.694415">
        <ele>401.4</ele>
        <time>2019-12-31T14:19:02Z</time>
      </trkpt>
      <trkpt lat="38.327174" lon="-0.694452">
        <ele>401.6</ele>
        <time>2019-12-31T14:19:03Z</time>
      </trkpt>
      <trkpt lat="38.327174" lon="-0.694452">
        <ele>401.8</ele>
        <time>2019-12-31T14:19:04Z</time>
      </trkpt>
      <trkpt lat="38.327152" lon="-0.694528">
        <ele>402</ele>
        <time>2019-12-31T14:19:05Z</time>
      </trkpt>
      <trkpt lat="38.327152" lon="-0.694528">
        <ele>402</ele>
        <time>2019-12-31T14:19:06Z</time>
      </trkpt>
      <trkpt lat="38.327142" lon="-0.694569">
        <ele>402</ele>
        <time>2019-12-31T14:19:07Z</time>
      </trkpt>
      <trkpt lat="38.327128" lon="-0.694648">
        <ele>402</ele>
        <time>2019-12-31T14:19:08Z</time>
      </trkpt>
      <trkpt lat="38.327126" lon="-0.694688">
        <ele>402.4</ele>
        <time>2019-12-31T14:19:09Z</time>
      </trkpt>
      <trkpt lat="38.327126" lon="-0.694688">
        <ele>402.6</ele>
        <time>2019-12-31T14:19:10Z</time>
      </trkpt>
      <trkpt lat="38.327122" lon="-0.694770">
        <ele>402.4</ele>
        <time>2019-12-31T14:19:11Z</time>
      </trkpt>
      <trkpt lat="38.327122" lon="-0.694770">
        <ele>402.8</ele>
        <time>2019-12-31T14:19:12Z</time>
      </trkpt>
      <trkpt lat="38.327123" lon="-0.694811">
        <ele>403.2</ele>
        <time>2019-12-31T14:19:13Z</time>
      </trkpt>
      <trkpt lat="38.327126" lon="-0.694853">
        <ele>403.4</ele>
        <time>2019-12-31T14:19:14Z</time>
      </trkpt>
      <trkpt lat="38.327139" lon="-0.694939">
        <ele>403.4</ele>
        <time>2019-12-31T14:19:15Z</time>
      </trkpt>
      <trkpt lat="38.327139" lon="-0.694939">
        <ele>403.4</ele>
        <time>2019-12-31T14:19:16Z</time>
      </trkpt>
      <trkpt lat="38.327157" lon="-0.695028">
        <ele>403.6</ele>
        <time>2019-12-31T14:19:17Z</time>
      </trkpt>
      <trkpt lat="38.327157" lon="-0.695028">
        <ele>403.8</ele>
        <time>2019-12-31T14:19:18Z</time>
      </trkpt>
      <trkpt lat="38.327176" lon="-0.695117">
        <ele>403.8</ele>
        <time>2019-12-31T14:19:19Z</time>
      </trkpt>
      <trkpt lat="38.327176" lon="-0.695117">
        <ele>404</ele>
        <time>2019-12-31T14:19:20Z</time>
      </trkpt>
      <trkpt lat="38.327183" lon="-0.695163">
        <ele>404</ele>
        <time>2019-12-31T14:19:21Z</time>
      </trkpt>
      <trkpt lat="38.327198" lon="-0.695257">
        <ele>404.2</ele>
        <time>2019-12-31T14:19:22Z</time>
      </trkpt>
      <trkpt lat="38.327204" lon="-0.695302">
        <ele>404.4</ele>
        <time>2019-12-31T14:19:23Z</time>
      </trkpt>
      <trkpt lat="38.327204" lon="-0.695302">
        <ele>404.6</ele>
        <time>2019-12-31T14:19:24Z</time>
      </trkpt>
      <trkpt lat="38.327216" lon="-0.695391">
        <ele>404.4</ele>
        <time>2019-12-31T14:19:25Z</time>
      </trkpt>
      <trkpt lat="38.327223" lon="-0.695436">
        <ele>404.6</ele>
        <time>2019-12-31T14:19:26Z</time>
      </trkpt>
      <trkpt lat="38.327229" lon="-0.695481">
        <ele>404.8</ele>
        <time>2019-12-31T14:19:27Z</time>
      </trkpt>
      <trkpt lat="38.327235" lon="-0.695525">
        <ele>405.2</ele>
        <time>2019-12-31T14:19:28Z</time>
      </trkpt>
      <trkpt lat="38.327235" lon="-0.695525">
        <ele>405.4</ele>
        <time>2019-12-31T14:19:29Z</time>
      </trkpt>
      <trkpt lat="38.327249" lon="-0.695618">
        <ele>405.4</ele>
        <time>2019-12-31T14:19:30Z</time>
      </trkpt>
      <trkpt lat="38.327249" lon="-0.695618">
        <ele>405.4</ele>
        <time>2019-12-31T14:19:31Z</time>
      </trkpt>
      <trkpt lat="38.327262" lon="-0.695710">
        <ele>405.8</ele>
        <time>2019-12-31T14:19:32Z</time>
      </trkpt>
      <trkpt lat="38.327262" lon="-0.695710">
        <ele>405.8</ele>
        <time>2019-12-31T14:19:33Z</time>
      </trkpt>
      <trkpt lat="38.327268" lon="-0.695756">
        <ele>406</ele>
        <time>2019-12-31T14:19:34Z</time>
      </trkpt>
      <trkpt lat="38.327280" lon="-0.695847">
        <ele>406.2</ele>
        <time>2019-12-31T14:19:35Z</time>
      </trkpt>
      <trkpt lat="38.327286" lon="-0.695890">
        <ele>406.6</ele>
        <time>2019-12-31T14:19:36Z</time>
      </trkpt>
      <trkpt lat="38.327291" lon="-0.695932">
        <ele>406.6</ele>
        <time>2019-12-31T14:19:37Z</time>
      </trkpt>
      <trkpt lat="38.327295" lon="-0.695974">
        <ele>406.8</ele>
        <time>2019-12-31T14:19:38Z</time>
      </trkpt>
      <trkpt lat="38.327299" lon="-0.696016">
        <ele>407.2</ele>
        <time>2019-12-31T14:19:39Z</time>
      </trkpt>
      <trkpt lat="38.327304" lon="-0.696057">
        <ele>407.6</ele>
        <time>2019-12-31T14:19:40Z</time>
      </trkpt>
      <trkpt lat="38.327304" lon="-0.696057">
        <ele>407.8</ele>
        <time>2019-12-31T14:19:41Z</time>
      </trkpt>
      <trkpt lat="38.327311" lon="-0.696098">
        <ele>407.8</ele>
        <time>2019-12-31T14:19:42Z</time>
      </trkpt>
      <trkpt lat="38.327323" lon="-0.696181">
        <ele>407.8</ele>
        <time>2019-12-31T14:19:43Z</time>
      </trkpt>
      <trkpt lat="38.327323" lon="-0.696181">
        <ele>408.2</ele>
        <time>2019-12-31T14:19:44Z</time>
      </trkpt>
      <trkpt lat="38.327341" lon="-0.696266">
        <ele>408.2</ele>
        <time>2019-12-31T14:19:45Z</time>
      </trkpt>
      <trkpt lat="38.327341" lon="-0.696266">
        <ele>408.4</ele>
        <time>2019-12-31T14:19:46Z</time>
      </trkpt>
      <trkpt lat="38.327365" lon="-0.696352">
        <ele>408.6</ele>
        <time>2019-12-31T14:19:47Z</time>
      </trkpt>
      <trkpt lat="38.327365" lon="-0.696352">
        <ele>408.8</ele>
        <time>2019-12-31T14:19:48Z</time>
      </trkpt>
      <trkpt lat="38.327379" lon="-0.696393">
        <ele>409</ele>
        <time>2019-12-31T14:19:49Z</time>
      </trkpt>
      <trkpt lat="38.327409" lon="-0.696469">
        <ele>409</ele>
        <time>2019-12-31T14:19:50Z</time>
      </trkpt>
      <trkpt lat="38.327426" lon="-0.696507">
        <ele>409.4</ele>
        <time>2019-12-31T14:19:51Z</time>
      </trkpt>
      <trkpt lat="38.327443" lon="-0.696545">
        <ele>409.4</ele>
        <time>2019-12-31T14:19:52Z</time>
      </trkpt>
      <trkpt lat="38.327443" lon="-0.696545">
        <ele>409.6</ele>
        <time>2019-12-31T14:19:53Z</time>
      </trkpt>
      <trkpt lat="38.327474" lon="-0.696615">
        <ele>410</ele>
        <time>2019-12-31T14:19:54Z</time>
      </trkpt>
      <trkpt lat="38.327474" lon="-0.696615">
        <ele>410.2</ele>
        <time>2019-12-31T14:19:55Z</time>
      </trkpt>
      <trkpt lat="38.327494" lon="-0.696691">
        <ele>410.2</ele>
        <time>2019-12-31T14:19:56Z</time>
      </trkpt>
      <trkpt lat="38.327500" lon="-0.696730">
        <ele>410.4</ele>
        <time>2019-12-31T14:19:57Z</time>
      </trkpt>
      <trkpt lat="38.327503" lon="-0.696770">
        <ele>410.8</ele>
        <time>2019-12-31T14:19:58Z</time>
      </trkpt>
      <trkpt lat="38.327503" lon="-0.696770">
        <ele>411</ele>
        <time>2019-12-31T14:19:59Z</time>
      </trkpt>
      <trkpt lat="38.327501" lon="-0.696852">
        <ele>411</ele>
        <time>2019-12-31T14:20:00Z</time>
      </trkpt>
      <trkpt lat="38.327501" lon="-0.696852">
        <ele>411.2</ele>
        <time>2019-12-31T14:20:01Z</time>
      </trkpt>
      <trkpt lat="38.327492" lon="-0.696931">
        <ele>411.6</ele>
        <time>2019-12-31T14:20:02Z</time>
      </trkpt>
      <trkpt lat="38.327486" lon="-0.696968">
        <ele>411.8</ele>
        <time>2019-12-31T14:20:03Z</time>
      </trkpt>
      <trkpt lat="38.327479" lon="-0.697002">
        <ele>412</ele>
        <time>2019-12-31T14:20:04Z</time>
      </trkpt>
      <trkpt lat="38.327479" lon="-0.697002">
        <ele>412.4</ele>
        <time>2019-12-31T14:20:05Z</time>
      </trkpt>
      <trkpt lat="38.327475" lon="-0.697031">
        <ele>412.6</ele>
        <time>2019-12-31T14:20:06Z</time>
      </trkpt>
      <trkpt lat="38.327472" lon="-0.697057">
        <ele>413</ele>
        <time>2019-12-31T14:20:07Z</time>
      </trkpt>
      <trkpt lat="38.327466" lon="-0.697110">
        <ele>413.2</ele>
        <time>2019-12-31T14:20:08Z</time>
      </trkpt>
      <trkpt lat="38.327461" lon="-0.697135">
        <ele>413.6</ele>
        <time>2019-12-31T14:20:09Z</time>
      </trkpt>
      <trkpt lat="38.327461" lon="-0.697135">
        <ele>414</ele>
        <time>2019-12-31T14:20:10Z</time>
      </trkpt>
      <trkpt lat="38.327455" lon="-0.697182">
        <ele>414.2</ele>
        <time>2019-12-31T14:20:11Z</time>
      </trkpt>
      <trkpt lat="38.327455" lon="-0.697182">
        <ele>414.6</ele>
        <time>2019-12-31T14:20:12Z</time>
      </trkpt>
      <trkpt lat="38.327453" lon="-0.697223">
        <ele>415</ele>
        <time>2019-12-31T14:20:13Z</time>
      </trkpt>
      <trkpt lat="38.327452" lon="-0.697245">
        <ele>415.2</ele>
        <time>2019-12-31T14:20:14Z</time>
      </trkpt>
      <trkpt lat="38.327451" lon="-0.697267">
        <ele>415.6</ele>
        <time>2019-12-31T14:20:15Z</time>
      </trkpt>
      <trkpt lat="38.327449" lon="-0.697288">
        <ele>416</ele>
        <time>2019-12-31T14:20:16Z</time>
      </trkpt>
      <trkpt lat="38.327449" lon="-0.697308">
        <ele>416.4</ele>
        <time>2019-12-31T14:20:17Z</time>
      </trkpt>
      <trkpt lat="38.327448" lon="-0.697329">
        <ele>416.6</ele>
        <time>2019-12-31T14:20:18Z</time>
      </trkpt>
      <trkpt lat="38.327445" lon="-0.697351">
        <ele>417</ele>
        <time>2019-12-31T14:20:19Z</time>
      </trkpt>
      <trkpt lat="38.327445" lon="-0.697351">
        <ele>417.4</ele>
        <time>2019-12-31T14:20:20Z</time>
      </trkpt>
      <trkpt lat="38.327444" lon="-0.697376">
        <ele>417.8</ele>
        <time>2019-12-31T14:20:21Z</time>
      </trkpt>
      <trkpt lat="38.327442" lon="-0.697398">
        <ele>418</ele>
        <time>2019-12-31T14:20:22Z</time>
      </trkpt>
      <trkpt lat="38.327440" lon="-0.697420">
        <ele>418.4</ele>
        <time>2019-12-31T14:20:23Z</time>
      </trkpt>
      <trkpt lat="38.327437" lon="-0.697460">
        <ele>418.8</ele>
        <time>2019-12-31T14:20:24Z</time>
      </trkpt>
      <trkpt lat="38.327437" lon="-0.697460">
        <ele>418.8</ele>
        <time>2019-12-31T14:20:25Z</time>
      </trkpt>
      <trkpt lat="38.327438" lon="-0.697499">
        <ele>419.4</ele>
        <time>2019-12-31T14:20:26Z</time>
      </trkpt>
      <trkpt lat="38.327439" lon="-0.697521">
        <ele>419.6</ele>
        <time>2019-12-31T14:20:27Z</time>
      </trkpt>
      <trkpt lat="38.327439" lon="-0.697543">
        <ele>419.8</ele>
        <time>2019-12-31T14:20:28Z</time>
      </trkpt>
      <trkpt lat="38.327439" lon="-0.697543">
        <ele>420.2</ele>
        <time>2019-12-31T14:20:29Z</time>
      </trkpt>
      <trkpt lat="38.327435" lon="-0.697587">
        <ele>420.4</ele>
        <time>2019-12-31T14:20:30Z</time>
      </trkpt>
      <trkpt lat="38.327435" lon="-0.697587">
        <ele>420.6</ele>
        <time>2019-12-31T14:20:31Z</time>
      </trkpt>
      <trkpt lat="38.327436" lon="-0.697630">
        <ele>421</ele>
        <time>2019-12-31T14:20:32Z</time>
      </trkpt>
      <trkpt lat="38.327436" lon="-0.697630">
        <ele>421.2</ele>
        <time>2019-12-31T14:20:33Z</time>
      </trkpt>
      <trkpt lat="38.327439" lon="-0.697652">
        <ele>421.6</ele>
        <time>2019-12-31T14:20:34Z</time>
      </trkpt>
      <trkpt lat="38.327443" lon="-0.697677">
        <ele>421.8</ele>
        <time>2019-12-31T14:20:35Z</time>
      </trkpt>
      <trkpt lat="38.327448" lon="-0.697698">
        <ele>422</ele>
        <time>2019-12-31T14:20:36Z</time>
      </trkpt>
      <trkpt lat="38.327455" lon="-0.697718">
        <ele>422.2</ele>
        <time>2019-12-31T14:20:37Z</time>
      </trkpt>
      <trkpt lat="38.327461" lon="-0.697737">
        <ele>422.6</ele>
        <time>2019-12-31T14:20:38Z</time>
      </trkpt>
      <trkpt lat="38.327472" lon="-0.697775">
        <ele>422.8</ele>
        <time>2019-12-31T14:20:39Z</time>
      </trkpt>
      <trkpt lat="38.327477" lon="-0.697795">
        <ele>423.2</ele>
        <time>2019-12-31T14:20:40Z</time>
      </trkpt>
      <trkpt lat="38.327482" lon="-0.697814">
        <ele>423.4</ele>
        <time>2019-12-31T14:20:41Z</time>
      </trkpt>
      <trkpt lat="38.327487" lon="-0.697831">
        <ele>423.4</ele>
        <time>2019-12-31T14:20:42Z</time>
      </trkpt>
      <trkpt lat="38.327487" lon="-0.697831">
        <ele>423.8</ele>
        <time>2019-12-31T14:20:43Z</time>
      </trkpt>
      <trkpt lat="38.327499" lon="-0.697869">
        <ele>424</ele>
        <time>2019-12-31T14:20:44Z</time>
      </trkpt>
      <trkpt lat="38.327506" lon="-0.697888">
        <ele>424</ele>
        <time>2019-12-31T14:20:45Z</time>
      </trkpt>
      <trkpt lat="38.327512" lon="-0.697908">
        <ele>424.4</ele>
        <time>2019-12-31T14:20:46Z</time>
      </trkpt>
      <trkpt lat="38.327512" lon="-0.697908">
        <ele>424.6</ele>
        <time>2019-12-31T14:20:47Z</time>
      </trkpt>
      <trkpt lat="38.327518" lon="-0.697927">
        <ele>425</ele>
        <time>2019-12-31T14:20:48Z</time>
      </trkpt>
      <trkpt lat="38.327532" lon="-0.697963">
        <ele>425.4</ele>
        <time>2019-12-31T14:20:49Z</time>
      </trkpt>
      <trkpt lat="38.327539" lon="-0.697979">
        <ele>425.6</ele>
        <time>2019-12-31T14:20:50Z</time>
      </trkpt>
      <trkpt lat="38.327547" lon="-0.697994">
        <ele>425.8</ele>
        <time>2019-12-31T14:20:51Z</time>
      </trkpt>
      <trkpt lat="38.327554" lon="-0.698012">
        <ele>426</ele>
        <time>2019-12-31T14:20:52Z</time>
      </trkpt>
      <trkpt lat="38.327554" lon="-0.698012">
        <ele>426.2</ele>
        <time>2019-12-31T14:20:53Z</time>
      </trkpt>
      <trkpt lat="38.327560" lon="-0.698030">
        <ele>426.6</ele>
        <time>2019-12-31T14:20:54Z</time>
      </trkpt>
      <trkpt lat="38.327566" lon="-0.698045">
        <ele>426.8</ele>
        <time>2019-12-31T14:20:55Z</time>
      </trkpt>
      <trkpt lat="38.327583" lon="-0.698075">
        <ele>427.2</ele>
        <time>2019-12-31T14:20:56Z</time>
      </trkpt>
      <trkpt lat="38.327593" lon="-0.698089">
        <ele>427.4</ele>
        <time>2019-12-31T14:20:57Z</time>
      </trkpt>
      <trkpt lat="38.327603" lon="-0.698102">
        <ele>427.4</ele>
        <time>2019-12-31T14:20:58Z</time>
      </trkpt>
      <trkpt lat="38.327603" lon="-0.698102">
        <ele>427.8</ele>
        <time>2019-12-31T14:20:59Z</time>
      </trkpt>
      <trkpt lat="38.327619" lon="-0.698131">
        <ele>427.8</ele>
        <time>2019-12-31T14:21:00Z</time>
      </trkpt>
      <trkpt lat="38.327628" lon="-0.698145">
        <ele>428.2</ele>
        <time>2019-12-31T14:21:01Z</time>
      </trkpt>
      <trkpt lat="38.327637" lon="-0.698159">
        <ele>428.6</ele>
        <time>2019-12-31T14:21:02Z</time>
      </trkpt>
      <trkpt lat="38.327637" lon="-0.698159">
        <ele>428.6</ele>
        <time>2019-12-31T14:21:03Z</time>
      </trkpt>
      <trkpt lat="38.327654" lon="-0.698184">
        <ele>429</ele>
        <time>2019-12-31T14:21:04Z</time>
      </trkpt>
      <trkpt lat="38.327664" lon="-0.698196">
        <ele>429.2</ele>
        <time>2019-12-31T14:21:05Z</time>
      </trkpt>
      <trkpt lat="38.327674" lon="-0.698208">
        <ele>429.4</ele>
        <time>2019-12-31T14:21:06Z</time>
      </trkpt>
      <trkpt lat="38.327682" lon="-0.698223">
        <ele>429.8</ele>
        <time>2019-12-31T14:21:07Z</time>
      </trkpt>
      <trkpt lat="38.327692" lon="-0.698238">
        <ele>430</ele>
        <time>2019-12-31T14:21:08Z</time>
      </trkpt>
      <trkpt lat="38.327692" lon="-0.698238">
        <ele>430.2</ele>
        <time>2019-12-31T14:21:09Z</time>
      </trkpt>
      <trkpt lat="38.327714" lon="-0.698271">
        <ele>430.6</ele>
        <time>2019-12-31T14:21:10Z</time>
      </trkpt>
      <trkpt lat="38.327725" lon="-0.698285">
        <ele>430.8</ele>
        <time>2019-12-31T14:21:11Z</time>
      </trkpt>
      <trkpt lat="38.327734" lon="-0.698298">
        <ele>431.2</ele>
        <time>2019-12-31T14:21:12Z</time>
      </trkpt>
      <trkpt lat="38.327734" lon="-0.698298">
        <ele>431.4</ele>
        <time>2019-12-31T14:21:13Z</time>
      </trkpt>
      <trkpt lat="38.327753" lon="-0.698322">
        <ele>431.8</ele>
        <time>2019-12-31T14:21:14Z</time>
      </trkpt>
      <trkpt lat="38.327753" lon="-0.698322">
        <ele>432</ele>
        <time>2019-12-31T14:21:15Z</time>
      </trkpt>
      <trkpt lat="38.327777" lon="-0.698343">
        <ele>432.2</ele>
        <time>2019-12-31T14:21:16Z</time>
      </trkpt>
      <trkpt lat="38.327786" lon="-0.698358">
        <ele>432.4</ele>
        <time>2019-12-31T14:21:17Z</time>
      </trkpt>
      <trkpt lat="38.327794" lon="-0.698373">
        <ele>432.8</ele>
        <time>2019-12-31T14:21:18Z</time>
      </trkpt>
      <trkpt lat="38.327799" lon="-0.698385">
        <ele>433.2</ele>
        <time>2019-12-31T14:21:19Z</time>
      </trkpt>
      <trkpt lat="38.327799" lon="-0.698385">
        <ele>433.4</ele>
        <time>2019-12-31T14:21:20Z</time>
      </trkpt>
      <trkpt lat="38.327808" lon="-0.698398">
        <ele>433.8</ele>
        <time>2019-12-31T14:21:21Z</time>
      </trkpt>
      <trkpt lat="38.327819" lon="-0.698409">
        <ele>434.2</ele>
        <time>2019-12-31T14:21:22Z</time>
      </trkpt>
      <trkpt lat="38.327840" lon="-0.698430">
        <ele>434.4</ele>
        <time>2019-12-31T14:21:23Z</time>
      </trkpt>
      <trkpt lat="38.327840" lon="-0.698430">
        <ele>434.6</ele>
        <time>2019-12-31T14:21:24Z</time>
      </trkpt>
      <trkpt lat="38.327856" lon="-0.698461">
        <ele>434.6</ele>
        <time>2019-12-31T14:21:25Z</time>
      </trkpt>
      <trkpt lat="38.327865" lon="-0.698475">
        <ele>434.8</ele>
        <time>2019-12-31T14:21:26Z</time>
      </trkpt>
      <trkpt lat="38.327865" lon="-0.698475">
        <ele>435.2</ele>
        <time>2019-12-31T14:21:27Z</time>
      </trkpt>
      <trkpt lat="38.327875" lon="-0.698489">
        <ele>435.8</ele>
        <time>2019-12-31T14:21:28Z</time>
      </trkpt>
      <trkpt lat="38.327885" lon="-0.698504">
        <ele>436</ele>
        <time>2019-12-31T14:21:29Z</time>
      </trkpt>
      <trkpt lat="38.327904" lon="-0.698534">
        <ele>436.2</ele>
        <time>2019-12-31T14:21:30Z</time>
      </trkpt>
      <trkpt lat="38.327912" lon="-0.698550">
        <ele>436.4</ele>
        <time>2019-12-31T14:21:31Z</time>
      </trkpt>
      <trkpt lat="38.327912" lon="-0.698550">
        <ele>436.8</ele>
        <time>2019-12-31T14:21:32Z</time>
      </trkpt>
      <trkpt lat="38.327928" lon="-0.698584">
        <ele>437</ele>
        <time>2019-12-31T14:21:33Z</time>
      </trkpt>
      <trkpt lat="38.327932" lon="-0.698603">
        <ele>437.2</ele>
        <time>2019-12-31T14:21:34Z</time>
      </trkpt>
      <trkpt lat="38.327932" lon="-0.698603">
        <ele>437.4</ele>
        <time>2019-12-31T14:21:35Z</time>
      </trkpt>
      <trkpt lat="38.327944" lon="-0.698641">
        <ele>437.6</ele>
        <time>2019-12-31T14:21:36Z</time>
      </trkpt>
      <trkpt lat="38.327948" lon="-0.698660">
        <ele>438</ele>
        <time>2019-12-31T14:21:37Z</time>
      </trkpt>
      <trkpt lat="38.327946" lon="-0.698677">
        <ele>438</ele>
        <time>2019-12-31T14:21:38Z</time>
      </trkpt>
      <trkpt lat="38.327941" lon="-0.698695">
        <ele>438.2</ele>
        <time>2019-12-31T14:21:39Z</time>
      </trkpt>
      <trkpt lat="38.327937" lon="-0.698714">
        <ele>438.4</ele>
        <time>2019-12-31T14:21:40Z</time>
      </trkpt>
      <trkpt lat="38.327932" lon="-0.698733">
        <ele>438.6</ele>
        <time>2019-12-31T14:21:41Z</time>
      </trkpt>
      <trkpt lat="38.327924" lon="-0.698751">
        <ele>438.6</ele>
        <time>2019-12-31T14:21:42Z</time>
      </trkpt>
      <trkpt lat="38.327924" lon="-0.698751">
        <ele>438.6</ele>
        <time>2019-12-31T14:21:43Z</time>
      </trkpt>
      <trkpt lat="38.327904" lon="-0.698785">
        <ele>439</ele>
        <time>2019-12-31T14:21:44Z</time>
      </trkpt>
      <trkpt lat="38.327892" lon="-0.698800">
        <ele>439.2</ele>
        <time>2019-12-31T14:21:45Z</time>
      </trkpt>
      <trkpt lat="38.327880" lon="-0.698816">
        <ele>439.2</ele>
        <time>2019-12-31T14:21:46Z</time>
      </trkpt>
      <trkpt lat="38.327880" lon="-0.698816">
        <ele>439.6</ele>
        <time>2019-12-31T14:21:47Z</time>
      </trkpt>
      <trkpt lat="38.327857" lon="-0.698851">
        <ele>439.8</ele>
        <time>2019-12-31T14:21:48Z</time>
      </trkpt>
      <trkpt lat="38.327844" lon="-0.698868">
        <ele>439.8</ele>
        <time>2019-12-31T14:21:49Z</time>
      </trkpt>
      <trkpt lat="38.327831" lon="-0.698885">
        <ele>440</ele>
        <time>2019-12-31T14:21:50Z</time>
      </trkpt>
      <trkpt lat="38.327831" lon="-0.698885">
        <ele>440</ele>
        <time>2019-12-31T14:21:51Z</time>
      </trkpt>
      <trkpt lat="38.327807" lon="-0.698917">
        <ele>440.2</ele>
        <time>2019-12-31T14:21:52Z</time>
      </trkpt>
      <trkpt lat="38.327807" lon="-0.698917">
        <ele>440.4</ele>
        <time>2019-12-31T14:21:53Z</time>
      </trkpt>
      <trkpt lat="38.327794" lon="-0.698932">
        <ele>440.6</ele>
        <time>2019-12-31T14:21:54Z</time>
      </trkpt>
      <trkpt lat="38.327766" lon="-0.698966">
        <ele>440.8</ele>
        <time>2019-12-31T14:21:55Z</time>
      </trkpt>
      <trkpt lat="38.327753" lon="-0.698985">
        <ele>440.8</ele>
        <time>2019-12-31T14:21:56Z</time>
      </trkpt>
      <trkpt lat="38.327739" lon="-0.699005">
        <ele>441</ele>
        <time>2019-12-31T14:21:57Z</time>
      </trkpt>
      <trkpt lat="38.327739" lon="-0.699005">
        <ele>441</ele>
        <time>2019-12-31T14:21:58Z</time>
      </trkpt>
      <trkpt lat="38.327723" lon="-0.699023">
        <ele>441</ele>
        <time>2019-12-31T14:21:59Z</time>
      </trkpt>
      <trkpt lat="38.327688" lon="-0.699056">
        <ele>441.2</ele>
        <time>2019-12-31T14:22:00Z</time>
      </trkpt>
      <trkpt lat="38.327667" lon="-0.699074">
        <ele>441.4</ele>
        <time>2019-12-31T14:22:01Z</time>
      </trkpt>
      <trkpt lat="38.327667" lon="-0.699074">
        <ele>441.6</ele>
        <time>2019-12-31T14:22:02Z</time>
      </trkpt>
      <trkpt lat="38.327626" lon="-0.699108">
        <ele>441.4</ele>
        <time>2019-12-31T14:22:03Z</time>
      </trkpt>
      <trkpt lat="38.327626" lon="-0.699108">
        <ele>441.6</ele>
        <time>2019-12-31T14:22:04Z</time>
      </trkpt>
      <trkpt lat="38.327603" lon="-0.699121">
        <ele>441.6</ele>
        <time>2019-12-31T14:22:05Z</time>
      </trkpt>
      <trkpt lat="38.327580" lon="-0.699132">
        <ele>441.8</ele>
        <time>2019-12-31T14:22:06Z</time>
      </trkpt>
      <trkpt lat="38.327529" lon="-0.699148">
        <ele>441.8</ele>
        <time>2019-12-31T14:22:07Z</time>
      </trkpt>
      <trkpt lat="38.327529" lon="-0.699148">
        <ele>442</ele>
        <time>2019-12-31T14:22:08Z</time>
      </trkpt>
      <trkpt lat="38.327503" lon="-0.699155">
        <ele>442</ele>
        <time>2019-12-31T14:22:09Z</time>
      </trkpt>
      <trkpt lat="38.327476" lon="-0.699163">
        <ele>442.4</ele>
        <time>2019-12-31T14:22:10Z</time>
      </trkpt>
      <trkpt lat="38.327425" lon="-0.699169">
        <ele>442.6</ele>
        <time>2019-12-31T14:22:11Z</time>
      </trkpt>
      <trkpt lat="38.327400" lon="-0.699173">
        <ele>443</ele>
        <time>2019-12-31T14:22:12Z</time>
      </trkpt>
      <trkpt lat="38.327376" lon="-0.699176">
        <ele>443</ele>
        <time>2019-12-31T14:22:13Z</time>
      </trkpt>
      <trkpt lat="38.327354" lon="-0.699177">
        <ele>443.2</ele>
        <time>2019-12-31T14:22:14Z</time>
      </trkpt>
      <trkpt lat="38.327332" lon="-0.699181">
        <ele>443.6</ele>
        <time>2019-12-31T14:22:15Z</time>
      </trkpt>
      <trkpt lat="38.327332" lon="-0.699181">
        <ele>443.8</ele>
        <time>2019-12-31T14:22:16Z</time>
      </trkpt>
      <trkpt lat="38.327288" lon="-0.699184">
        <ele>443.8</ele>
        <time>2019-12-31T14:22:17Z</time>
      </trkpt>
      <trkpt lat="38.327268" lon="-0.699186">
        <ele>444.2</ele>
        <time>2019-12-31T14:22:18Z</time>
      </trkpt>
      <trkpt lat="38.327268" lon="-0.699186">
        <ele>444.4</ele>
        <time>2019-12-31T14:22:19Z</time>
      </trkpt>
      <trkpt lat="38.327223" lon="-0.699188">
        <ele>444.6</ele>
        <time>2019-12-31T14:22:20Z</time>
      </trkpt>
      <trkpt lat="38.327200" lon="-0.699191">
        <ele>445</ele>
        <time>2019-12-31T14:22:21Z</time>
      </trkpt>
      <trkpt lat="38.327177" lon="-0.699194">
        <ele>445.4</ele>
        <time>2019-12-31T14:22:22Z</time>
      </trkpt>
      <trkpt lat="38.327177" lon="-0.699194">
        <ele>445.4</ele>
        <time>2019-12-31T14:22:23Z</time>
      </trkpt>
      <trkpt lat="38.327132" lon="-0.699197">
        <ele>446</ele>
        <time>2019-12-31T14:22:24Z</time>
      </trkpt>
      <trkpt lat="38.327132" lon="-0.699197">
        <ele>446</ele>
        <time>2019-12-31T14:22:25Z</time>
      </trkpt>
      <trkpt lat="38.327110" lon="-0.699199">
        <ele>446.4</ele>
        <time>2019-12-31T14:22:26Z</time>
      </trkpt>
      <trkpt lat="38.327068" lon="-0.699200">
        <ele>446.6</ele>
        <time>2019-12-31T14:22:27Z</time>
      </trkpt>
      <trkpt lat="38.327049" lon="-0.699203">
        <ele>446.8</ele>
        <time>2019-12-31T14:22:28Z</time>
      </trkpt>
      <trkpt lat="38.327028" lon="-0.699206">
        <ele>447.2</ele>
        <time>2019-12-31T14:22:29Z</time>
      </trkpt>
      <trkpt lat="38.327028" lon="-0.699206">
        <ele>447.4</ele>
        <time>2019-12-31T14:22:30Z</time>
      </trkpt>
      <trkpt lat="38.326986" lon="-0.699210">
        <ele>447.8</ele>
        <time>2019-12-31T14:22:31Z</time>
      </trkpt>
      <trkpt lat="38.326986" lon="-0.699210">
        <ele>448.2</ele>
        <time>2019-12-31T14:22:32Z</time>
      </trkpt>
      <trkpt lat="38.326945" lon="-0.699218">
        <ele>448.2</ele>
        <time>2019-12-31T14:22:33Z</time>
      </trkpt>
      <trkpt lat="38.326925" lon="-0.699220">
        <ele>448.4</ele>
        <time>2019-12-31T14:22:34Z</time>
      </trkpt>
      <trkpt lat="38.326925" lon="-0.699220">
        <ele>448.8</ele>
        <time>2019-12-31T14:22:35Z</time>
      </trkpt>
      <trkpt lat="38.326907" lon="-0.699223">
        <ele>449</ele>
        <time>2019-12-31T14:22:36Z</time>
      </trkpt>
      <trkpt lat="38.326887" lon="-0.699231">
        <ele>449</ele>
        <time>2019-12-31T14:22:37Z</time>
      </trkpt>
      <trkpt lat="38.326867" lon="-0.699241">
        <ele>449.4</ele>
        <time>2019-12-31T14:22:38Z</time>
      </trkpt>
      <trkpt lat="38.326829" lon="-0.699260">
        <ele>449.6</ele>
        <time>2019-12-31T14:22:39Z</time>
      </trkpt>
      <trkpt lat="38.326829" lon="-0.699260">
        <ele>449.8</ele>
        <time>2019-12-31T14:22:40Z</time>
      </trkpt>
      <trkpt lat="38.326810" lon="-0.699273">
        <ele>450</ele>
        <time>2019-12-31T14:22:41Z</time>
      </trkpt>
      <trkpt lat="38.326794" lon="-0.699288">
        <ele>450.6</ele>
        <time>2019-12-31T14:22:42Z</time>
      </trkpt>
      <trkpt lat="38.326768" lon="-0.699324">
        <ele>451</ele>
        <time>2019-12-31T14:22:43Z</time>
      </trkpt>
      <trkpt lat="38.326768" lon="-0.699324">
        <ele>451.4</ele>
        <time>2019-12-31T14:22:44Z</time>
      </trkpt>
      <trkpt lat="38.326764" lon="-0.699348">
        <ele>451.6</ele>
        <time>2019-12-31T14:22:45Z</time>
      </trkpt>
      <trkpt lat="38.326767" lon="-0.699371">
        <ele>451.8</ele>
        <time>2019-12-31T14:22:46Z</time>
      </trkpt>
      <trkpt lat="38.326778" lon="-0.699394">
        <ele>452</ele>
        <time>2019-12-31T14:22:47Z</time>
      </trkpt>
      <trkpt lat="38.326803" lon="-0.699434">
        <ele>452.2</ele>
        <time>2019-12-31T14:22:48Z</time>
      </trkpt>
      <trkpt lat="38.326803" lon="-0.699434">
        <ele>452.4</ele>
        <time>2019-12-31T14:22:49Z</time>
      </trkpt>
      <trkpt lat="38.326818" lon="-0.699452">
        <ele>452.6</ele>
        <time>2019-12-31T14:22:50Z</time>
      </trkpt>
      <trkpt lat="38.326834" lon="-0.699469">
        <ele>452.6</ele>
        <time>2019-12-31T14:22:51Z</time>
      </trkpt>
      <trkpt lat="38.326850" lon="-0.699483">
        <ele>452.8</ele>
        <time>2019-12-31T14:22:52Z</time>
      </trkpt>
      <trkpt lat="38.326883" lon="-0.699503">
        <ele>453.4</ele>
        <time>2019-12-31T14:22:53Z</time>
      </trkpt>
      <trkpt lat="38.326896" lon="-0.699513">
        <ele>453.6</ele>
        <time>2019-12-31T14:22:54Z</time>
      </trkpt>
      <trkpt lat="38.326907" lon="-0.699523">
        <ele>453.8</ele>
        <time>2019-12-31T14:22:55Z</time>
      </trkpt>
      <trkpt lat="38.326907" lon="-0.699523">
        <ele>454.2</ele>
        <time>2019-12-31T14:22:56Z</time>
      </trkpt>
      <trkpt lat="38.326882" lon="-0.699527">
        <ele>454.8</ele>
        <time>2019-12-31T14:27:26Z</time>
      </trkpt>
      <trkpt lat="38.326852" lon="-0.699498">
        <ele>454.4</ele>
        <time>2019-12-31T14:27:27Z</time>
      </trkpt>
      <trkpt lat="38.326816" lon="-0.699459">
        <ele>454</ele>
        <time>2019-12-31T14:27:28Z</time>
      </trkpt>
      <trkpt lat="38.326786" lon="-0.699406">
        <ele>453.2</ele>
        <time>2019-12-31T14:27:29Z</time>
      </trkpt>
      <trkpt lat="38.326771" lon="-0.699350">
        <ele>452.8</ele>
        <time>2019-12-31T14:27:30Z</time>
      </trkpt>
      <trkpt lat="38.326785" lon="-0.699302">
        <ele>452.4</ele>
        <time>2019-12-31T14:27:31Z</time>
      </trkpt>
      <trkpt lat="38.326819" lon="-0.699260">
        <ele>451.8</ele>
        <time>2019-12-31T14:27:32Z</time>
      </trkpt>
      <trkpt lat="38.326873" lon="-0.699232">
        <ele>450.8</ele>
        <time>2019-12-31T14:27:33Z</time>
      </trkpt>
      <trkpt lat="38.326938" lon="-0.699211">
        <ele>450.2</ele>
        <time>2019-12-31T14:27:34Z</time>
      </trkpt>
      <trkpt lat="38.327008" lon="-0.699203">
        <ele>449.4</ele>
        <time>2019-12-31T14:27:35Z</time>
      </trkpt>
      <trkpt lat="38.327082" lon="-0.699196">
        <ele>448.4</ele>
        <time>2019-12-31T14:27:36Z</time>
      </trkpt>
      <trkpt lat="38.327163" lon="-0.699190">
        <ele>447.4</ele>
        <time>2019-12-31T14:27:37Z</time>
      </trkpt>
      <trkpt lat="38.327249" lon="-0.699184">
        <ele>446.4</ele>
        <time>2019-12-31T14:27:38Z</time>
      </trkpt>
      <trkpt lat="38.327341" lon="-0.699178">
        <ele>445.6</ele>
        <time>2019-12-31T14:27:39Z</time>
      </trkpt>
      <trkpt lat="38.327437" lon="-0.699165">
        <ele>444.2</ele>
        <time>2019-12-31T14:27:40Z</time>
      </trkpt>
      <trkpt lat="38.327534" lon="-0.699136">
        <ele>443.4</ele>
        <time>2019-12-31T14:27:41Z</time>
      </trkpt>
      <trkpt lat="38.327627" lon="-0.699090">
        <ele>442.4</ele>
        <time>2019-12-31T14:27:42Z</time>
      </trkpt>
      <trkpt lat="38.327712" lon="-0.699028">
        <ele>442</ele>
        <time>2019-12-31T14:27:43Z</time>
      </trkpt>
      <trkpt lat="38.327785" lon="-0.698950">
        <ele>441.2</ele>
        <time>2019-12-31T14:27:44Z</time>
      </trkpt>
      <trkpt lat="38.327852" lon="-0.698868">
        <ele>440.8</ele>
        <time>2019-12-31T14:27:45Z</time>
      </trkpt>
      <trkpt lat="38.327906" lon="-0.698794">
        <ele>440.2</ele>
        <time>2019-12-31T14:27:46Z</time>
      </trkpt>
      <trkpt lat="38.327945" lon="-0.698735">
        <ele>439.8</ele>
        <time>2019-12-31T14:27:47Z</time>
      </trkpt>
      <trkpt lat="38.327974" lon="-0.698695">
        <ele>439.2</ele>
        <time>2019-12-31T14:27:48Z</time>
      </trkpt>
      <trkpt lat="38.327974" lon="-0.698695">
        <ele>438.8</ele>
        <time>2019-12-31T14:27:49Z</time>
      </trkpt>
      <trkpt lat="38.328024" lon="-0.698684">
        <ele>438.6</ele>
        <time>2019-12-31T14:27:50Z</time>
      </trkpt>
      <trkpt lat="38.328044" lon="-0.698688">
        <ele>438.8</ele>
        <time>2019-12-31T14:27:51Z</time>
      </trkpt>
      <trkpt lat="38.328056" lon="-0.698698">
        <ele>439.2</ele>
        <time>2019-12-31T14:27:52Z</time>
      </trkpt>
      <trkpt lat="38.328070" lon="-0.698707">
        <ele>439.2</ele>
        <time>2019-12-31T14:27:53Z</time>
      </trkpt>
      <trkpt lat="38.328085" lon="-0.698720">
        <ele>439.4</ele>
        <time>2019-12-31T14:27:54Z</time>
      </trkpt>
      <trkpt lat="38.328104" lon="-0.698737">
        <ele>439.6</ele>
        <time>2019-12-31T14:27:55Z</time>
      </trkpt>
      <trkpt lat="38.328129" lon="-0.698749">
        <ele>439.8</ele>
        <time>2019-12-31T14:27:56Z</time>
      </trkpt>
      <trkpt lat="38.328154" lon="-0.698756">
        <ele>440.2</ele>
        <time>2019-12-31T14:27:57Z</time>
      </trkpt>
      <trkpt lat="38.328176" lon="-0.698763">
        <ele>440.4</ele>
        <time>2019-12-31T14:27:58Z</time>
      </trkpt>
      <trkpt lat="38.328201" lon="-0.698772">
        <ele>441</ele>
        <time>2019-12-31T14:27:59Z</time>
      </trkpt>
      <trkpt lat="38.328222" lon="-0.698782">
        <ele>441.4</ele>
        <time>2019-12-31T14:28:00Z</time>
      </trkpt>
      <trkpt lat="38.328245" lon="-0.698790">
        <ele>441.6</ele>
        <time>2019-12-31T14:28:01Z</time>
      </trkpt>
      <trkpt lat="38.328270" lon="-0.698797">
        <ele>442.2</ele>
        <time>2019-12-31T14:28:02Z</time>
      </trkpt>
      <trkpt lat="38.328297" lon="-0.698793">
        <ele>442.2</ele>
        <time>2019-12-31T14:28:03Z</time>
      </trkpt>
      <trkpt lat="38.328331" lon="-0.698780">
        <ele>442.2</ele>
        <time>2019-12-31T14:28:04Z</time>
      </trkpt>
      <trkpt lat="38.328358" lon="-0.698750">
        <ele>442.2</ele>
        <time>2019-12-31T14:28:05Z</time>
      </trkpt>
      <trkpt lat="38.328383" lon="-0.698711">
        <ele>442</ele>
        <time>2019-12-31T14:28:06Z</time>
      </trkpt>
      <trkpt lat="38.328406" lon="-0.698666">
        <ele>442</ele>
        <time>2019-12-31T14:28:07Z</time>
      </trkpt>
      <trkpt lat="38.328431" lon="-0.698621">
        <ele>441.8</ele>
        <time>2019-12-31T14:28:08Z</time>
      </trkpt>
      <trkpt lat="38.328457" lon="-0.698568">
        <ele>441.4</ele>
        <time>2019-12-31T14:28:09Z</time>
      </trkpt>
      <trkpt lat="38.328478" lon="-0.698511">
        <ele>441.2</ele>
        <time>2019-12-31T14:28:10Z</time>
      </trkpt>
      <trkpt lat="38.328485" lon="-0.698458">
        <ele>439.8</ele>
        <time>2019-12-31T14:28:11Z</time>
      </trkpt>
      <trkpt lat="38.328488" lon="-0.698401">
        <ele>439</ele>
        <time>2019-12-31T14:28:12Z</time>
      </trkpt>
      <trkpt lat="38.328492" lon="-0.698332">
        <ele>438</ele>
        <time>2019-12-31T14:28:13Z</time>
      </trkpt>
      <trkpt lat="38.328503" lon="-0.698261">
        <ele>437.2</ele>
        <time>2019-12-31T14:28:14Z</time>
      </trkpt>
      <trkpt lat="38.328519" lon="-0.698183">
        <ele>435.4</ele>
        <time>2019-12-31T14:28:15Z</time>
      </trkpt>
      <trkpt lat="38.328522" lon="-0.698101">
        <ele>434</ele>
        <time>2019-12-31T14:28:16Z</time>
      </trkpt>
      <trkpt lat="38.328512" lon="-0.698020">
        <ele>433</ele>
        <time>2019-12-31T14:28:17Z</time>
      </trkpt>
      <trkpt lat="38.328493" lon="-0.697932">
        <ele>431.6</ele>
        <time>2019-12-31T14:28:18Z</time>
      </trkpt>
      <trkpt lat="38.328480" lon="-0.697835">
        <ele>430.6</ele>
        <time>2019-12-31T14:28:19Z</time>
      </trkpt>
      <trkpt lat="38.328471" lon="-0.697726">
        <ele>429.4</ele>
        <time>2019-12-31T14:28:20Z</time>
      </trkpt>
      <trkpt lat="38.328455" lon="-0.697610">
        <ele>428</ele>
        <time>2019-12-31T14:28:21Z</time>
      </trkpt>
      <trkpt lat="38.328437" lon="-0.697498">
        <ele>427.4</ele>
        <time>2019-12-31T14:28:22Z</time>
      </trkpt>
      <trkpt lat="38.328429" lon="-0.697386">
        <ele>427.2</ele>
        <time>2019-12-31T14:28:23Z</time>
      </trkpt>
      <trkpt lat="38.328424" lon="-0.697274">
        <ele>427.6</ele>
        <time>2019-12-31T14:28:24Z</time>
      </trkpt>
      <trkpt lat="38.328411" lon="-0.697166">
        <ele>427.6</ele>
        <time>2019-12-31T14:28:25Z</time>
      </trkpt>
      <trkpt lat="38.328408" lon="-0.697063">
        <ele>427.8</ele>
        <time>2019-12-31T14:28:26Z</time>
      </trkpt>
      <trkpt lat="38.328409" lon="-0.696968">
        <ele>428.6</ele>
        <time>2019-12-31T14:28:27Z</time>
      </trkpt>
      <trkpt lat="38.328405" lon="-0.696880">
        <ele>428.6</ele>
        <time>2019-12-31T14:28:28Z</time>
      </trkpt>
      <trkpt lat="38.328405" lon="-0.696801">
        <ele>429.2</ele>
        <time>2019-12-31T14:28:29Z</time>
      </trkpt>
      <trkpt lat="38.328405" lon="-0.696729">
        <ele>430.4</ele>
        <time>2019-12-31T14:28:30Z</time>
      </trkpt>
      <trkpt lat="38.328409" lon="-0.696655">
        <ele>430.8</ele>
        <time>2019-12-31T14:28:31Z</time>
      </trkpt>
      <trkpt lat="38.328409" lon="-0.696580">
        <ele>431.2</ele>
        <time>2019-12-31T14:28:32Z</time>
      </trkpt>
      <trkpt lat="38.328407" lon="-0.696502">
        <ele>431.4</ele>
        <time>2019-12-31T14:28:33Z</time>
      </trkpt>
      <trkpt lat="38.328399" lon="-0.696428">
        <ele>431.8</ele>
        <time>2019-12-31T14:28:34Z</time>
      </trkpt>
      <trkpt lat="38.328384" lon="-0.696360">
        <ele>431.8</ele>
        <time>2019-12-31T14:28:35Z</time>
      </trkpt>
      <trkpt lat="38.328370" lon="-0.696289">
        <ele>432</ele>
        <time>2019-12-31T14:28:36Z</time>
      </trkpt>
      <trkpt lat="38.328364" lon="-0.696215">
        <ele>431.8</ele>
        <time>2019-12-31T14:28:37Z</time>
      </trkpt>
      <trkpt lat="38.328368" lon="-0.696147">
        <ele>431.2</ele>
        <time>2019-12-31T14:28:38Z</time>
      </trkpt>
      <trkpt lat="38.328378" lon="-0.696085">
        <ele>430.2</ele>
        <time>2019-12-31T14:28:39Z</time>
      </trkpt>
      <trkpt lat="38.328393" lon="-0.696017">
        <ele>428.8</ele>
        <time>2019-12-31T14:28:40Z</time>
      </trkpt>
      <trkpt lat="38.328413" lon="-0.695933">
        <ele>427.8</ele>
        <time>2019-12-31T14:28:41Z</time>
      </trkpt>
      <trkpt lat="38.328440" lon="-0.695832">
        <ele>425.6</ele>
        <time>2019-12-31T14:28:42Z</time>
      </trkpt>
      <trkpt lat="38.328480" lon="-0.695719">
        <ele>423.2</ele>
        <time>2019-12-31T14:28:43Z</time>
      </trkpt>
      <trkpt lat="38.328537" lon="-0.695607">
        <ele>421.6</ele>
        <time>2019-12-31T14:28:44Z</time>
      </trkpt>
      <trkpt lat="38.328595" lon="-0.695502">
        <ele>420.6</ele>
        <time>2019-12-31T14:28:45Z</time>
      </trkpt>
      <trkpt lat="38.328660" lon="-0.695411">
        <ele>420.2</ele>
        <time>2019-12-31T14:28:46Z</time>
      </trkpt>
      <trkpt lat="38.328724" lon="-0.695330">
        <ele>420.6</ele>
        <time>2019-12-31T14:28:47Z</time>
      </trkpt>
      <trkpt lat="38.328776" lon="-0.695257">
        <ele>420.8</ele>
        <time>2019-12-31T14:28:48Z</time>
      </trkpt>
      <trkpt lat="38.328816" lon="-0.695191">
        <ele>422</ele>
        <time>2019-12-31T14:28:49Z</time>
      </trkpt>
      <trkpt lat="38.328844" lon="-0.695125">
        <ele>423</ele>
        <time>2019-12-31T14:28:50Z</time>
      </trkpt>
      <trkpt lat="38.328864" lon="-0.695061">
        <ele>423.8</ele>
        <time>2019-12-31T14:28:51Z</time>
      </trkpt>
      <trkpt lat="38.328884" lon="-0.695002">
        <ele>424</ele>
        <time>2019-12-31T14:28:52Z</time>
      </trkpt>
      <trkpt lat="38.328900" lon="-0.694943">
        <ele>424.4</ele>
        <time>2019-12-31T14:28:53Z</time>
      </trkpt>
      <trkpt lat="38.328914" lon="-0.694883">
        <ele>424.6</ele>
        <time>2019-12-31T14:28:54Z</time>
      </trkpt>
      <trkpt lat="38.328932" lon="-0.694827">
        <ele>424.8</ele>
        <time>2019-12-31T14:28:55Z</time>
      </trkpt>
      <trkpt lat="38.328951" lon="-0.694768">
        <ele>425.2</ele>
        <time>2019-12-31T14:28:56Z</time>
      </trkpt>
      <trkpt lat="38.328967" lon="-0.694706">
        <ele>425.2</ele>
        <time>2019-12-31T14:28:57Z</time>
      </trkpt>
      <trkpt lat="38.328984" lon="-0.694641">
        <ele>425.4</ele>
        <time>2019-12-31T14:28:58Z</time>
      </trkpt>
      <trkpt lat="38.329006" lon="-0.694572">
        <ele>425</ele>
        <time>2019-12-31T14:28:59Z</time>
      </trkpt>
      <trkpt lat="38.329029" lon="-0.694499">
        <ele>424.8</ele>
        <time>2019-12-31T14:29:00Z</time>
      </trkpt>
      <trkpt lat="38.329050" lon="-0.694425">
        <ele>424.6</ele>
        <time>2019-12-31T14:29:01Z</time>
      </trkpt>
      <trkpt lat="38.329071" lon="-0.694347">
        <ele>424.4</ele>
        <time>2019-12-31T14:29:02Z</time>
      </trkpt>
      <trkpt lat="38.329094" lon="-0.694270">
        <ele>424</ele>
        <time>2019-12-31T14:29:03Z</time>
      </trkpt>
      <trkpt lat="38.329118" lon="-0.694184">
        <ele>423.4</ele>
        <time>2019-12-31T14:29:04Z</time>
      </trkpt>
      <trkpt lat="38.329144" lon="-0.694091">
        <ele>422.8</ele>
        <time>2019-12-31T14:29:05Z</time>
      </trkpt>
      <trkpt lat="38.329173" lon="-0.693997">
        <ele>422</ele>
        <time>2019-12-31T14:29:06Z</time>
      </trkpt>
      <trkpt lat="38.329199" lon="-0.693898">
        <ele>421.2</ele>
        <time>2019-12-31T14:29:07Z</time>
      </trkpt>
      <trkpt lat="38.329220" lon="-0.693798">
        <ele>420.2</ele>
        <time>2019-12-31T14:29:08Z</time>
      </trkpt>
      <trkpt lat="38.329226" lon="-0.693702">
        <ele>420</ele>
        <time>2019-12-31T14:29:09Z</time>
      </trkpt>
      <trkpt lat="38.329233" lon="-0.693614">
        <ele>419.2</ele>
        <time>2019-12-31T14:29:10Z</time>
      </trkpt>
      <trkpt lat="38.329227" lon="-0.693537">
        <ele>418.2</ele>
        <time>2019-12-31T14:29:11Z</time>
      </trkpt>
      <trkpt lat="38.329215" lon="-0.693461">
        <ele>417</ele>
        <time>2019-12-31T14:29:12Z</time>
      </trkpt>
      <trkpt lat="38.329204" lon="-0.693387">
        <ele>416.4</ele>
        <time>2019-12-31T14:29:13Z</time>
      </trkpt>
      <trkpt lat="38.329203" lon="-0.693319">
        <ele>415.4</ele>
        <time>2019-12-31T14:29:14Z</time>
      </trkpt>
      <trkpt lat="38.329203" lon="-0.693235">
        <ele>414.4</ele>
        <time>2019-12-31T14:29:15Z</time>
      </trkpt>
      <trkpt lat="38.329214" lon="-0.693147">
        <ele>413.2</ele>
        <time>2019-12-31T14:29:16Z</time>
      </trkpt>
      <trkpt lat="38.329235" lon="-0.693061">
        <ele>411.8</ele>
        <time>2019-12-31T14:29:17Z</time>
      </trkpt>
      <trkpt lat="38.329260" lon="-0.692982">
        <ele>411.2</ele>
        <time>2019-12-31T14:29:18Z</time>
      </trkpt>
      <trkpt lat="38.329282" lon="-0.692922">
        <ele>411.2</ele>
        <time>2019-12-31T14:29:19Z</time>
      </trkpt>
      <trkpt lat="38.329304" lon="-0.692877">
        <ele>410.8</ele>
        <time>2019-12-31T14:29:20Z</time>
      </trkpt>
      <trkpt lat="38.329326" lon="-0.692823">
        <ele>410</ele>
        <time>2019-12-31T14:29:21Z</time>
      </trkpt>
      <trkpt lat="38.329344" lon="-0.692763">
        <ele>409</ele>
        <time>2019-12-31T14:29:22Z</time>
      </trkpt>
      <trkpt lat="38.329354" lon="-0.692713">
        <ele>407.6</ele>
        <time>2019-12-31T14:29:23Z</time>
      </trkpt>
      <trkpt lat="38.329360" lon="-0.692657">
        <ele>407</ele>
        <time>2019-12-31T14:29:24Z</time>
      </trkpt>
      <trkpt lat="38.329374" lon="-0.692593">
        <ele>406</ele>
        <time>2019-12-31T14:29:25Z</time>
      </trkpt>
      <trkpt lat="38.329387" lon="-0.692520">
        <ele>404.2</ele>
        <time>2019-12-31T14:29:26Z</time>
      </trkpt>
      <trkpt lat="38.329404" lon="-0.692439">
        <ele>402.8</ele>
        <time>2019-12-31T14:29:27Z</time>
      </trkpt>
      <trkpt lat="38.329412" lon="-0.692346">
        <ele>401.8</ele>
        <time>2019-12-31T14:29:28Z</time>
      </trkpt>
      <trkpt lat="38.329411" lon="-0.692242">
        <ele>399.6</ele>
        <time>2019-12-31T14:29:29Z</time>
      </trkpt>
      <trkpt lat="38.329404" lon="-0.692123">
        <ele>397.4</ele>
        <time>2019-12-31T14:29:30Z</time>
      </trkpt>
      <trkpt lat="38.329399" lon="-0.692011">
        <ele>394</ele>
        <time>2019-12-31T14:29:31Z</time>
      </trkpt>
      <trkpt lat="38.329394" lon="-0.691909">
        <ele>394.2</ele>
        <time>2019-12-31T14:29:32Z</time>
      </trkpt>
      <trkpt lat="38.329390" lon="-0.691816">
        <ele>394.2</ele>
        <time>2019-12-31T14:29:33Z</time>
      </trkpt>
      <trkpt lat="38.329388" lon="-0.691732">
        <ele>394</ele>
        <time>2019-12-31T14:29:34Z</time>
      </trkpt>
      <trkpt lat="38.329380" lon="-0.691658">
        <ele>393</ele>
        <time>2019-12-31T14:29:35Z</time>
      </trkpt>
      <trkpt lat="38.329367" lon="-0.691587">
        <ele>392.2</ele>
        <time>2019-12-31T14:29:36Z</time>
      </trkpt>
      <trkpt lat="38.329342" lon="-0.691517">
        <ele>391.6</ele>
        <time>2019-12-31T14:29:37Z</time>
      </trkpt>
      <trkpt lat="38.329306" lon="-0.691448">
        <ele>390.4</ele>
        <time>2019-12-31T14:29:38Z</time>
      </trkpt>
      <trkpt lat="38.329267" lon="-0.691379">
        <ele>389.6</ele>
        <time>2019-12-31T14:29:39Z</time>
      </trkpt>
      <trkpt lat="38.329232" lon="-0.691320">
        <ele>388.8</ele>
        <time>2019-12-31T14:29:40Z</time>
      </trkpt>
      <trkpt lat="38.329213" lon="-0.691276">
        <ele>388.2</ele>
        <time>2019-12-31T14:29:41Z</time>
      </trkpt>
      <trkpt lat="38.329204" lon="-0.691243">
        <ele>388.2</ele>
        <time>2019-12-31T14:29:42Z</time>
      </trkpt>
      <trkpt lat="38.329205" lon="-0.691213">
        <ele>388</ele>
        <time>2019-12-31T14:29:43Z</time>
      </trkpt>
      <trkpt lat="38.329217" lon="-0.691190">
        <ele>387.8</ele>
        <time>2019-12-31T14:29:44Z</time>
      </trkpt>
      <trkpt lat="38.329239" lon="-0.691184">
        <ele>387.6</ele>
        <time>2019-12-31T14:29:45Z</time>
      </trkpt>
      <trkpt lat="38.329264" lon="-0.691192">
        <ele>387.6</ele>
        <time>2019-12-31T14:29:46Z</time>
      </trkpt>
      <trkpt lat="38.329292" lon="-0.691205">
        <ele>387.4</ele>
        <time>2019-12-31T14:29:47Z</time>
      </trkpt>
      <trkpt lat="38.329326" lon="-0.691227">
        <ele>387.2</ele>
        <time>2019-12-31T14:29:48Z</time>
      </trkpt>
      <trkpt lat="38.329368" lon="-0.691254">
        <ele>387.2</ele>
        <time>2019-12-31T14:29:49Z</time>
      </trkpt>
      <trkpt lat="38.329416" lon="-0.691300">
        <ele>386</ele>
        <time>2019-12-31T14:29:50Z</time>
      </trkpt>
      <trkpt lat="38.329465" lon="-0.691360">
        <ele>385</ele>
        <time>2019-12-31T14:29:51Z</time>
      </trkpt>
      <trkpt lat="38.329516" lon="-0.691436">
        <ele>383</ele>
        <time>2019-12-31T14:29:52Z</time>
      </trkpt>
      <trkpt lat="38.329565" lon="-0.691526">
        <ele>382</ele>
        <time>2019-12-31T14:29:53Z</time>
      </trkpt>
      <trkpt lat="38.329612" lon="-0.691628">
        <ele>380.6</ele>
        <time>2019-12-31T14:29:54Z</time>
      </trkpt>
      <trkpt lat="38.329659" lon="-0.691740">
        <ele>379.6</ele>
        <time>2019-12-31T14:29:55Z</time>
      </trkpt>
      <trkpt lat="38.329700" lon="-0.691858">
        <ele>378</ele>
        <time>2019-12-31T14:29:56Z</time>
      </trkpt>
      <trkpt lat="38.329738" lon="-0.691980">
        <ele>377</ele>
        <time>2019-12-31T14:29:57Z</time>
      </trkpt>
      <trkpt lat="38.329772" lon="-0.692101">
        <ele>376.2</ele>
        <time>2019-12-31T14:29:58Z</time>
      </trkpt>
      <trkpt lat="38.329797" lon="-0.692197">
        <ele>375.2</ele>
        <time>2019-12-31T14:29:59Z</time>
      </trkpt>
      <trkpt lat="38.329823" lon="-0.692275">
        <ele>373.4</ele>
        <time>2019-12-31T14:30:00Z</time>
      </trkpt>
      <trkpt lat="38.329852" lon="-0.692334">
        <ele>372.8</ele>
        <time>2019-12-31T14:30:01Z</time>
      </trkpt>
      <trkpt lat="38.329883" lon="-0.692365">
        <ele>372.2</ele>
        <time>2019-12-31T14:30:02Z</time>
      </trkpt>
      <trkpt lat="38.329918" lon="-0.692370">
        <ele>371.4</ele>
        <time>2019-12-31T14:30:03Z</time>
      </trkpt>
      <trkpt lat="38.329948" lon="-0.692349">
        <ele>370.8</ele>
        <time>2019-12-31T14:30:04Z</time>
      </trkpt>
      <trkpt lat="38.329965" lon="-0.692304">
        <ele>370.4</ele>
        <time>2019-12-31T14:30:05Z</time>
      </trkpt>
      <trkpt lat="38.329969" lon="-0.692247">
        <ele>370.2</ele>
        <time>2019-12-31T14:30:06Z</time>
      </trkpt>
      <trkpt lat="38.329969" lon="-0.692181">
        <ele>369.8</ele>
        <time>2019-12-31T14:30:07Z</time>
      </trkpt>
      <trkpt lat="38.329970" lon="-0.692104">
        <ele>369.2</ele>
        <time>2019-12-31T14:30:08Z</time>
      </trkpt>
      <trkpt lat="38.329968" lon="-0.692017">
        <ele>368.4</ele>
        <time>2019-12-31T14:30:09Z</time>
      </trkpt>
      <trkpt lat="38.329968" lon="-0.691923">
        <ele>367.4</ele>
        <time>2019-12-31T14:30:10Z</time>
      </trkpt>
      <trkpt lat="38.329959" lon="-0.691821">
        <ele>366.6</ele>
        <time>2019-12-31T14:30:11Z</time>
      </trkpt>
      <trkpt lat="38.329945" lon="-0.691715">
        <ele>365.6</ele>
        <time>2019-12-31T14:30:12Z</time>
      </trkpt>
      <trkpt lat="38.329926" lon="-0.691601">
        <ele>364.4</ele>
        <time>2019-12-31T14:30:13Z</time>
      </trkpt>
      <trkpt lat="38.329905" lon="-0.691485">
        <ele>363.2</ele>
        <time>2019-12-31T14:30:14Z</time>
      </trkpt>
      <trkpt lat="38.329886" lon="-0.691377">
        <ele>361.8</ele>
        <time>2019-12-31T14:30:15Z</time>
      </trkpt>
      <trkpt lat="38.329872" lon="-0.691283">
        <ele>361</ele>
        <time>2019-12-31T14:30:16Z</time>
      </trkpt>
      <trkpt lat="38.329857" lon="-0.691201">
        <ele>360</ele>
        <time>2019-12-31T14:30:17Z</time>
      </trkpt>
      <trkpt lat="38.329849" lon="-0.691129">
        <ele>359</ele>
        <time>2019-12-31T14:30:18Z</time>
      </trkpt>
      <trkpt lat="38.329858" lon="-0.691072">
        <ele>358.2</ele>
        <time>2019-12-31T14:30:19Z</time>
      </trkpt>
      <trkpt lat="38.329885" lon="-0.691035">
        <ele>357.8</ele>
        <time>2019-12-31T14:30:20Z</time>
      </trkpt>
      <trkpt lat="38.329927" lon="-0.691026">
        <ele>357.2</ele>
        <time>2019-12-31T14:30:21Z</time>
      </trkpt>
      <trkpt lat="38.329974" lon="-0.691041">
        <ele>356.6</ele>
        <time>2019-12-31T14:30:22Z</time>
      </trkpt>
      <trkpt lat="38.330025" lon="-0.691081">
        <ele>355.4</ele>
        <time>2019-12-31T14:30:23Z</time>
      </trkpt>
      <trkpt lat="38.330067" lon="-0.691145">
        <ele>354.6</ele>
        <time>2019-12-31T14:30:24Z</time>
      </trkpt>
      <trkpt lat="38.330102" lon="-0.691226">
        <ele>354</ele>
        <time>2019-12-31T14:30:25Z</time>
      </trkpt>
      <trkpt lat="38.330134" lon="-0.691320">
        <ele>352.8</ele>
        <time>2019-12-31T14:30:26Z</time>
      </trkpt>
      <trkpt lat="38.330177" lon="-0.691417">
        <ele>351.8</ele>
        <time>2019-12-31T14:30:27Z</time>
      </trkpt>
      <trkpt lat="38.330228" lon="-0.691515">
        <ele>350.4</ele>
        <time>2019-12-31T14:30:28Z</time>
      </trkpt>
      <trkpt lat="38.330288" lon="-0.691619">
        <ele>349</ele>
        <time>2019-12-31T14:30:29Z</time>
      </trkpt>
      <trkpt lat="38.330351" lon="-0.691730">
        <ele>347.6</ele>
        <time>2019-12-31T14:30:30Z</time>
      </trkpt>
      <trkpt lat="38.330408" lon="-0.691850">
        <ele>346.4</ele>
        <time>2019-12-31T14:30:31Z</time>
      </trkpt>
      <trkpt lat="38.330467" lon="-0.691977">
        <ele>343.8</ele>
        <time>2019-12-31T14:30:32Z</time>
      </trkpt>
      <trkpt lat="38.330534" lon="-0.692103">
        <ele>342.4</ele>
        <time>2019-12-31T14:30:33Z</time>
      </trkpt>
      <trkpt lat="38.330611" lon="-0.692222">
        <ele>341</ele>
        <time>2019-12-31T14:30:34Z</time>
      </trkpt>
      <trkpt lat="38.330687" lon="-0.692324">
        <ele>339.4</ele>
        <time>2019-12-31T14:30:35Z</time>
      </trkpt>
      <trkpt lat="38.330752" lon="-0.692412">
        <ele>338.2</ele>
        <time>2019-12-31T14:30:36Z</time>
      </trkpt>
      <trkpt lat="38.330813" lon="-0.692481">
        <ele>337.2</ele>
        <time>2019-12-31T14:30:37Z</time>
      </trkpt>
      <trkpt lat="38.330860" lon="-0.692531">
        <ele>336.6</ele>
        <time>2019-12-31T14:30:38Z</time>
      </trkpt>
      <trkpt lat="38.330891" lon="-0.692570">
        <ele>335.6</ele>
        <time>2019-12-31T14:30:39Z</time>
      </trkpt>
      <trkpt lat="38.330908" lon="-0.692599">
        <ele>335</ele>
        <time>2019-12-31T14:30:40Z</time>
      </trkpt>
      <trkpt lat="38.331007" lon="-0.692677">
        <ele>333.4</ele>
        <time>2019-12-31T14:31:15Z</time>
      </trkpt>
      <trkpt lat="38.331015" lon="-0.692708">
        <ele>333</ele>
        <time>2019-12-31T14:31:16Z</time>
      </trkpt>
      <trkpt lat="38.331015" lon="-0.692708">
        <ele>333.2</ele>
        <time>2019-12-31T14:31:17Z</time>
      </trkpt>
      <trkpt lat="38.331027" lon="-0.692774">
        <ele>333.2</ele>
        <time>2019-12-31T14:31:18Z</time>
      </trkpt>
      <trkpt lat="38.331027" lon="-0.692774">
        <ele>333.4</ele>
        <time>2019-12-31T14:31:19Z</time>
      </trkpt>
      <trkpt lat="38.331036" lon="-0.692850">
        <ele>333.4</ele>
        <time>2019-12-31T14:31:20Z</time>
      </trkpt>
      <trkpt lat="38.331039" lon="-0.692891">
        <ele>333.6</ele>
        <time>2019-12-31T14:31:21Z</time>
      </trkpt>
      <trkpt lat="38.331039" lon="-0.692891">
        <ele>333.8</ele>
        <time>2019-12-31T14:31:22Z</time>
      </trkpt>
      <trkpt lat="38.331039" lon="-0.692934">
        <ele>334</ele>
        <time>2019-12-31T14:31:23Z</time>
      </trkpt>
      <trkpt lat="38.331036" lon="-0.692979">
        <ele>334</ele>
        <time>2019-12-31T14:31:24Z</time>
      </trkpt>
      <trkpt lat="38.331034" lon="-0.693026">
        <ele>334.2</ele>
        <time>2019-12-31T14:31:25Z</time>
      </trkpt>
      <trkpt lat="38.331033" lon="-0.693121">
        <ele>334.4</ele>
        <time>2019-12-31T14:31:26Z</time>
      </trkpt>
      <trkpt lat="38.331030" lon="-0.693172">
        <ele>334.8</ele>
        <time>2019-12-31T14:31:27Z</time>
      </trkpt>
      <trkpt lat="38.331026" lon="-0.693219">
        <ele>334.8</ele>
        <time>2019-12-31T14:31:28Z</time>
      </trkpt>
      <trkpt lat="38.331026" lon="-0.693219">
        <ele>335</ele>
        <time>2019-12-31T14:31:29Z</time>
      </trkpt>
      <trkpt lat="38.331021" lon="-0.693265">
        <ele>335.2</ele>
        <time>2019-12-31T14:31:30Z</time>
      </trkpt>
      <trkpt lat="38.331019" lon="-0.693309">
        <ele>335.4</ele>
        <time>2019-12-31T14:31:31Z</time>
      </trkpt>
      <trkpt lat="38.331014" lon="-0.693398">
        <ele>335.6</ele>
        <time>2019-12-31T14:31:32Z</time>
      </trkpt>
      <trkpt lat="38.331010" lon="-0.693447">
        <ele>335.8</ele>
        <time>2019-12-31T14:31:33Z</time>
      </trkpt>
      <trkpt lat="38.331010" lon="-0.693447">
        <ele>336</ele>
        <time>2019-12-31T14:31:34Z</time>
      </trkpt>
      <trkpt lat="38.331004" lon="-0.693497">
        <ele>336.2</ele>
        <time>2019-12-31T14:31:35Z</time>
      </trkpt>
      <trkpt lat="38.331000" lon="-0.693550">
        <ele>336.2</ele>
        <time>2019-12-31T14:31:36Z</time>
      </trkpt>
      <trkpt lat="38.330995" lon="-0.693667">
        <ele>336.2</ele>
        <time>2019-12-31T14:31:37Z</time>
      </trkpt>
      <trkpt lat="38.330995" lon="-0.693667">
        <ele>336.2</ele>
        <time>2019-12-31T14:31:38Z</time>
      </trkpt>
      <trkpt lat="38.330993" lon="-0.693730">
        <ele>336.4</ele>
        <time>2019-12-31T14:31:39Z</time>
      </trkpt>
      <trkpt lat="38.330989" lon="-0.693860">
        <ele>336.6</ele>
        <time>2019-12-31T14:31:40Z</time>
      </trkpt>
      <trkpt lat="38.330989" lon="-0.693860">
        <ele>336.6</ele>
        <time>2019-12-31T14:31:41Z</time>
      </trkpt>
      <trkpt lat="38.330986" lon="-0.693987">
        <ele>336.8</ele>
        <time>2019-12-31T14:31:42Z</time>
      </trkpt>
      <trkpt lat="38.330986" lon="-0.693987">
        <ele>336.8</ele>
        <time>2019-12-31T14:31:43Z</time>
      </trkpt>
      <trkpt lat="38.330988" lon="-0.694051">
        <ele>336.8</ele>
        <time>2019-12-31T14:31:44Z</time>
      </trkpt>
      <trkpt lat="38.330989" lon="-0.694179">
        <ele>336.8</ele>
        <time>2019-12-31T14:31:45Z</time>
      </trkpt>
      <trkpt lat="38.330989" lon="-0.694245">
        <ele>336.8</ele>
        <time>2019-12-31T14:31:46Z</time>
      </trkpt>
      <trkpt lat="38.330989" lon="-0.694245">
        <ele>336.6</ele>
        <time>2019-12-31T14:31:47Z</time>
      </trkpt>
      <trkpt lat="38.330992" lon="-0.694378">
        <ele>336.6</ele>
        <time>2019-12-31T14:31:48Z</time>
      </trkpt>
      <trkpt lat="38.330992" lon="-0.694447">
        <ele>336.6</ele>
        <time>2019-12-31T14:31:49Z</time>
      </trkpt>
      <trkpt lat="38.330993" lon="-0.694519">
        <ele>336.6</ele>
        <time>2019-12-31T14:31:50Z</time>
      </trkpt>
      <trkpt lat="38.330993" lon="-0.694519">
        <ele>336.4</ele>
        <time>2019-12-31T14:31:51Z</time>
      </trkpt>
      <trkpt lat="38.330995" lon="-0.694669">
        <ele>336.2</ele>
        <time>2019-12-31T14:31:52Z</time>
      </trkpt>
      <trkpt lat="38.330994" lon="-0.694748">
        <ele>336.2</ele>
        <time>2019-12-31T14:31:53Z</time>
      </trkpt>
      <trkpt lat="38.330994" lon="-0.694748">
        <ele>335.8</ele>
        <time>2019-12-31T14:31:54Z</time>
      </trkpt>
      <trkpt lat="38.330995" lon="-0.694909">
        <ele>335.6</ele>
        <time>2019-12-31T14:31:55Z</time>
      </trkpt>
      <trkpt lat="38.330995" lon="-0.694909">
        <ele>335.4</ele>
        <time>2019-12-31T14:31:56Z</time>
      </trkpt>
      <trkpt lat="38.330998" lon="-0.694995">
        <ele>335</ele>
        <time>2019-12-31T14:31:57Z</time>
      </trkpt>
      <trkpt lat="38.331000" lon="-0.695082">
        <ele>334.8</ele>
        <time>2019-12-31T14:31:58Z</time>
      </trkpt>
      <trkpt lat="38.331002" lon="-0.695173">
        <ele>334.6</ele>
        <time>2019-12-31T14:31:59Z</time>
      </trkpt>
      <trkpt lat="38.331007" lon="-0.695357">
        <ele>334.2</ele>
        <time>2019-12-31T14:32:00Z</time>
      </trkpt>
      <trkpt lat="38.331007" lon="-0.695357">
        <ele>334</ele>
        <time>2019-12-31T14:32:01Z</time>
      </trkpt>
      <trkpt lat="38.331011" lon="-0.695550">
        <ele>333.6</ele>
        <time>2019-12-31T14:32:02Z</time>
      </trkpt>
      <trkpt lat="38.331011" lon="-0.695650">
        <ele>333.4</ele>
        <time>2019-12-31T14:32:03Z</time>
      </trkpt>
      <trkpt lat="38.331011" lon="-0.695750">
        <ele>333</ele>
        <time>2019-12-31T14:32:04Z</time>
      </trkpt>
      <trkpt lat="38.331011" lon="-0.695851">
        <ele>332.8</ele>
        <time>2019-12-31T14:32:05Z</time>
      </trkpt>
      <trkpt lat="38.331011" lon="-0.695851">
        <ele>332.6</ele>
        <time>2019-12-31T14:32:06Z</time>
      </trkpt>
      <trkpt lat="38.331011" lon="-0.695952">
        <ele>332.2</ele>
        <time>2019-12-31T14:32:07Z</time>
      </trkpt>
      <trkpt lat="38.331001" lon="-0.696154">
        <ele>332</ele>
        <time>2019-12-31T14:32:08Z</time>
      </trkpt>
      <trkpt lat="38.330982" lon="-0.696253">
        <ele>331.8</ele>
        <time>2019-12-31T14:32:09Z</time>
      </trkpt>
      <trkpt lat="38.330953" lon="-0.696350">
        <ele>331.4</ele>
        <time>2019-12-31T14:32:10Z</time>
      </trkpt>
      <trkpt lat="38.330953" lon="-0.696350">
        <ele>330.8</ele>
        <time>2019-12-31T14:32:11Z</time>
      </trkpt>
      <trkpt lat="38.330869" lon="-0.696535">
        <ele>330.8</ele>
        <time>2019-12-31T14:32:12Z</time>
      </trkpt>
      <trkpt lat="38.330823" lon="-0.696626">
        <ele>330.4</ele>
        <time>2019-12-31T14:32:13Z</time>
      </trkpt>
      <trkpt lat="38.330776" lon="-0.696718">
        <ele>330.2</ele>
        <time>2019-12-31T14:32:14Z</time>
      </trkpt>
      <trkpt lat="38.330776" lon="-0.696718">
        <ele>329.8</ele>
        <time>2019-12-31T14:32:15Z</time>
      </trkpt>
      <trkpt lat="38.330701" lon="-0.696913">
        <ele>329.4</ele>
        <time>2019-12-31T14:32:16Z</time>
      </trkpt>
      <trkpt lat="38.330701" lon="-0.696913">
        <ele>329</ele>
        <time>2019-12-31T14:32:17Z</time>
      </trkpt>
      <trkpt lat="38.330678" lon="-0.697018">
        <ele>328.8</ele>
        <time>2019-12-31T14:32:18Z</time>
      </trkpt>
      <trkpt lat="38.330665" lon="-0.697229">
        <ele>328.6</ele>
        <time>2019-12-31T14:32:19Z</time>
      </trkpt>
      <trkpt lat="38.330665" lon="-0.697229">
        <ele>328.2</ele>
        <time>2019-12-31T14:32:20Z</time>
      </trkpt>
      <trkpt lat="38.330664" lon="-0.697334">
        <ele>328.2</ele>
        <time>2019-12-31T14:32:21Z</time>
      </trkpt>
      <trkpt lat="38.330671" lon="-0.697545">
        <ele>328</ele>
        <time>2019-12-31T14:32:22Z</time>
      </trkpt>
      <trkpt lat="38.330672" lon="-0.697647">
        <ele>327.8</ele>
        <time>2019-12-31T14:32:23Z</time>
      </trkpt>
      <trkpt lat="38.330672" lon="-0.697647">
        <ele>327.6</ele>
        <time>2019-12-31T14:32:24Z</time>
      </trkpt>
      <trkpt lat="38.330673" lon="-0.697750">
        <ele>327.4</ele>
        <time>2019-12-31T14:32:25Z</time>
      </trkpt>
      <trkpt lat="38.330675" lon="-0.697952">
        <ele>327.4</ele>
        <time>2019-12-31T14:32:26Z</time>
      </trkpt>
      <trkpt lat="38.330675" lon="-0.697952">
        <ele>327</ele>
        <time>2019-12-31T14:32:27Z</time>
      </trkpt>
      <trkpt lat="38.330673" lon="-0.698053">
        <ele>327</ele>
        <time>2019-12-31T14:32:28Z</time>
      </trkpt>
      <trkpt lat="38.330674" lon="-0.698250">
        <ele>326.8</ele>
        <time>2019-12-31T14:32:29Z</time>
      </trkpt>
      <trkpt lat="38.330674" lon="-0.698250">
        <ele>326.8</ele>
        <time>2019-12-31T14:32:30Z</time>
      </trkpt>
      <trkpt lat="38.330676" lon="-0.698348">
        <ele>326.8</ele>
        <time>2019-12-31T14:32:31Z</time>
      </trkpt>
      <trkpt lat="38.330679" lon="-0.698541">
        <ele>326.6</ele>
        <time>2019-12-31T14:32:32Z</time>
      </trkpt>
      <trkpt lat="38.330679" lon="-0.698541">
        <ele>326.8</ele>
        <time>2019-12-31T14:32:33Z</time>
      </trkpt>
      <trkpt lat="38.330682" lon="-0.698731">
        <ele>326.8</ele>
        <time>2019-12-31T14:32:34Z</time>
      </trkpt>
      <trkpt lat="38.330684" lon="-0.698825">
        <ele>326.6</ele>
        <time>2019-12-31T14:32:35Z</time>
      </trkpt>
      <trkpt lat="38.330686" lon="-0.698920">
        <ele>326.6</ele>
        <time>2019-12-31T14:32:36Z</time>
      </trkpt>
      <trkpt lat="38.330686" lon="-0.698920">
        <ele>326.6</ele>
        <time>2019-12-31T14:32:37Z</time>
      </trkpt>
      <trkpt lat="38.330688" lon="-0.699016">
        <ele>326.6</ele>
        <time>2019-12-31T14:32:38Z</time>
      </trkpt>
      <trkpt lat="38.330681" lon="-0.699203">
        <ele>326.6</ele>
        <time>2019-12-31T14:32:39Z</time>
      </trkpt>
      <trkpt lat="38.330681" lon="-0.699203">
        <ele>326.2</ele>
        <time>2019-12-31T14:32:40Z</time>
      </trkpt>
      <trkpt lat="38.330675" lon="-0.699297">
        <ele>326</ele>
        <time>2019-12-31T14:32:41Z</time>
      </trkpt>
      <trkpt lat="38.330671" lon="-0.699389">
        <ele>326</ele>
        <time>2019-12-31T14:32:42Z</time>
      </trkpt>
      <trkpt lat="38.330668" lon="-0.699482">
        <ele>326</ele>
        <time>2019-12-31T14:32:43Z</time>
      </trkpt>
      <trkpt lat="38.330667" lon="-0.699575">
        <ele>325.8</ele>
        <time>2019-12-31T14:32:44Z</time>
      </trkpt>
      <trkpt lat="38.330671" lon="-0.699669">
        <ele>325.8</ele>
        <time>2019-12-31T14:32:45Z</time>
      </trkpt>
      <trkpt lat="38.330675" lon="-0.699759">
        <ele>325.6</ele>
        <time>2019-12-31T14:32:46Z</time>
      </trkpt>
      <trkpt lat="38.330685" lon="-0.699848">
        <ele>325.6</ele>
        <time>2019-12-31T14:32:47Z</time>
      </trkpt>
      <trkpt lat="38.330697" lon="-0.699937">
        <ele>325.4</ele>
        <time>2019-12-31T14:32:48Z</time>
      </trkpt>
      <trkpt lat="38.330707" lon="-0.700028">
        <ele>325.4</ele>
        <time>2019-12-31T14:32:49Z</time>
      </trkpt>
      <trkpt lat="38.330713" lon="-0.700119">
        <ele>325.4</ele>
        <time>2019-12-31T14:32:50Z</time>
      </trkpt>
      <trkpt lat="38.330720" lon="-0.700213">
        <ele>325.2</ele>
        <time>2019-12-31T14:32:51Z</time>
      </trkpt>
      <trkpt lat="38.330722" lon="-0.700303">
        <ele>325</ele>
        <time>2019-12-31T14:32:52Z</time>
      </trkpt>
      <trkpt lat="38.330722" lon="-0.700395">
        <ele>325</ele>
        <time>2019-12-31T14:32:53Z</time>
      </trkpt>
      <trkpt lat="38.330724" lon="-0.700486">
        <ele>325</ele>
        <time>2019-12-31T14:32:54Z</time>
      </trkpt>
      <trkpt lat="38.330726" lon="-0.700577">
        <ele>325</ele>
        <time>2019-12-31T14:32:55Z</time>
      </trkpt>
      <trkpt lat="38.330725" lon="-0.700667">
        <ele>325</ele>
        <time>2019-12-31T14:32:56Z</time>
      </trkpt>
      <trkpt lat="38.330727" lon="-0.700758">
        <ele>324.8</ele>
        <time>2019-12-31T14:32:57Z</time>
      </trkpt>
      <trkpt lat="38.330724" lon="-0.700847">
        <ele>324.8</ele>
        <time>2019-12-31T14:32:58Z</time>
      </trkpt>
      <trkpt lat="38.330700" lon="-0.700926">
        <ele>324.6</ele>
        <time>2019-12-31T14:32:59Z</time>
      </trkpt>
      <trkpt lat="38.330657" lon="-0.700984">
        <ele>325</ele>
        <time>2019-12-31T14:33:00Z</time>
      </trkpt>
      <trkpt lat="38.330552" lon="-0.701044">
        <ele>325.6</ele>
        <time>2019-12-31T14:33:01Z</time>
      </trkpt>
      <trkpt lat="38.330552" lon="-0.701044">
        <ele>326</ele>
        <time>2019-12-31T14:33:02Z</time>
      </trkpt>
      <trkpt lat="38.330455" lon="-0.701067">
        <ele>327</ele>
        <time>2019-12-31T14:33:03Z</time>
      </trkpt>
      <trkpt lat="38.330409" lon="-0.701076">
        <ele>327.4</ele>
        <time>2019-12-31T14:33:04Z</time>
      </trkpt>
      <trkpt lat="38.330409" lon="-0.701076">
        <ele>327.8</ele>
        <time>2019-12-31T14:33:05Z</time>
      </trkpt>
      <trkpt lat="38.330323" lon="-0.701103">
        <ele>328.4</ele>
        <time>2019-12-31T14:33:06Z</time>
      </trkpt>
      <trkpt lat="38.330323" lon="-0.701103">
        <ele>328.8</ele>
        <time>2019-12-31T14:33:07Z</time>
      </trkpt>
      <trkpt lat="38.330285" lon="-0.701126">
        <ele>329.2</ele>
        <time>2019-12-31T14:33:08Z</time>
      </trkpt>
      <trkpt lat="38.330225" lon="-0.701195">
        <ele>329.6</ele>
        <time>2019-12-31T14:33:09Z</time>
      </trkpt>
      <trkpt lat="38.330208" lon="-0.701237">
        <ele>330</ele>
        <time>2019-12-31T14:33:10Z</time>
      </trkpt>
      <trkpt lat="38.330208" lon="-0.701237">
        <ele>330.4</ele>
        <time>2019-12-31T14:33:11Z</time>
      </trkpt>
      <trkpt lat="38.330187" lon="-0.701332">
        <ele>330.8</ele>
        <time>2019-12-31T14:33:12Z</time>
      </trkpt>
      <trkpt lat="38.330187" lon="-0.701332">
        <ele>331</ele>
        <time>2019-12-31T14:33:13Z</time>
      </trkpt>
      <trkpt lat="38.330191" lon="-0.701433">
        <ele>331.2</ele>
        <time>2019-12-31T14:33:14Z</time>
      </trkpt>
      <trkpt lat="38.330191" lon="-0.701433">
        <ele>331.4</ele>
        <time>2019-12-31T14:33:15Z</time>
      </trkpt>
      <trkpt lat="38.330189" lon="-0.701544">
        <ele>331.6</ele>
        <time>2019-12-31T14:33:16Z</time>
      </trkpt>
      <trkpt lat="38.330189" lon="-0.701601">
        <ele>331.8</ele>
        <time>2019-12-31T14:33:17Z</time>
      </trkpt>
      <trkpt lat="38.330189" lon="-0.701601">
        <ele>331.8</ele>
        <time>2019-12-31T14:33:18Z</time>
      </trkpt>
      <trkpt lat="38.330191" lon="-0.701715">
        <ele>331.8</ele>
        <time>2019-12-31T14:33:19Z</time>
      </trkpt>
      <trkpt lat="38.330191" lon="-0.701715">
        <ele>332</ele>
        <time>2019-12-31T14:33:20Z</time>
      </trkpt>
      <trkpt lat="38.330190" lon="-0.701835">
        <ele>332</ele>
        <time>2019-12-31T14:33:21Z</time>
      </trkpt>
      <trkpt lat="38.330192" lon="-0.701897">
        <ele>332</ele>
        <time>2019-12-31T14:33:22Z</time>
      </trkpt>
      <trkpt lat="38.330192" lon="-0.701897">
        <ele>331.8</ele>
        <time>2019-12-31T14:33:23Z</time>
      </trkpt>
      <trkpt lat="38.330196" lon="-0.701965">
        <ele>331.8</ele>
        <time>2019-12-31T14:33:24Z</time>
      </trkpt>
      <trkpt lat="38.330217" lon="-0.702105">
        <ele>331.6</ele>
        <time>2019-12-31T14:33:25Z</time>
      </trkpt>
      <trkpt lat="38.330217" lon="-0.702105">
        <ele>331.4</ele>
        <time>2019-12-31T14:33:26Z</time>
      </trkpt>
      <trkpt lat="38.330248" lon="-0.702258">
        <ele>330.8</ele>
        <time>2019-12-31T14:33:27Z</time>
      </trkpt>
      <trkpt lat="38.330248" lon="-0.702258">
        <ele>330.2</ele>
        <time>2019-12-31T14:33:28Z</time>
      </trkpt>
      <trkpt lat="38.330268" lon="-0.702341">
        <ele>329.4</ele>
        <time>2019-12-31T14:33:29Z</time>
      </trkpt>
      <trkpt lat="38.330292" lon="-0.702428">
        <ele>328.8</ele>
        <time>2019-12-31T14:33:30Z</time>
      </trkpt>
      <trkpt lat="38.330355" lon="-0.702610">
        <ele>328.2</ele>
        <time>2019-12-31T14:33:31Z</time>
      </trkpt>
      <trkpt lat="38.330396" lon="-0.702705">
        <ele>327.4</ele>
        <time>2019-12-31T14:33:32Z</time>
      </trkpt>
      <trkpt lat="38.330442" lon="-0.702801">
        <ele>326.6</ele>
        <time>2019-12-31T14:33:33Z</time>
      </trkpt>
      <trkpt lat="38.330442" lon="-0.702801">
        <ele>325.8</ele>
        <time>2019-12-31T14:33:34Z</time>
      </trkpt>
      <trkpt lat="38.330493" lon="-0.702898">
        <ele>325</ele>
        <time>2019-12-31T14:33:35Z</time>
      </trkpt>
      <trkpt lat="38.330547" lon="-0.703004">
        <ele>324.2</ele>
        <time>2019-12-31T14:33:36Z</time>
      </trkpt>
      <trkpt lat="38.330603" lon="-0.703109">
        <ele>323.2</ele>
        <time>2019-12-31T14:33:37Z</time>
      </trkpt>
      <trkpt lat="38.330721" lon="-0.703323">
        <ele>322.4</ele>
        <time>2019-12-31T14:33:38Z</time>
      </trkpt>
      <trkpt lat="38.330721" lon="-0.703323">
        <ele>321.6</ele>
        <time>2019-12-31T14:33:39Z</time>
      </trkpt>
      <trkpt lat="38.330843" lon="-0.703546">
        <ele>320.8</ele>
        <time>2019-12-31T14:33:40Z</time>
      </trkpt>
      <trkpt lat="38.330843" lon="-0.703546">
        <ele>319.8</ele>
        <time>2019-12-31T14:33:41Z</time>
      </trkpt>
      <trkpt lat="38.330966" lon="-0.703771">
        <ele>319.2</ele>
        <time>2019-12-31T14:33:42Z</time>
      </trkpt>
      <trkpt lat="38.330966" lon="-0.703771">
        <ele>318.4</ele>
        <time>2019-12-31T14:33:43Z</time>
      </trkpt>
      <trkpt lat="38.331029" lon="-0.703881">
        <ele>317.6</ele>
        <time>2019-12-31T14:33:44Z</time>
      </trkpt>
      <trkpt lat="38.331157" lon="-0.704097">
        <ele>317</ele>
        <time>2019-12-31T14:33:45Z</time>
      </trkpt>
      <trkpt lat="38.331218" lon="-0.704208">
        <ele>316.2</ele>
        <time>2019-12-31T14:33:46Z</time>
      </trkpt>
      <trkpt lat="38.331279" lon="-0.704321">
        <ele>315.6</ele>
        <time>2019-12-31T14:33:47Z</time>
      </trkpt>
      <trkpt lat="38.331340" lon="-0.704433">
        <ele>315</ele>
        <time>2019-12-31T14:33:48Z</time>
      </trkpt>
      <trkpt lat="38.331340" lon="-0.704433">
        <ele>314.2</ele>
        <time>2019-12-31T14:33:49Z</time>
      </trkpt>
      <trkpt lat="38.331402" lon="-0.704544">
        <ele>313.6</ele>
        <time>2019-12-31T14:33:50Z</time>
      </trkpt>
      <trkpt lat="38.331461" lon="-0.704653">
        <ele>313</ele>
        <time>2019-12-31T14:33:51Z</time>
      </trkpt>
      <trkpt lat="38.331520" lon="-0.704759">
        <ele>312.8</ele>
        <time>2019-12-31T14:33:52Z</time>
      </trkpt>
      <trkpt lat="38.331577" lon="-0.704862">
        <ele>313</ele>
        <time>2019-12-31T14:33:53Z</time>
      </trkpt>
      <trkpt lat="38.331633" lon="-0.704962">
        <ele>312.8</ele>
        <time>2019-12-31T14:33:54Z</time>
      </trkpt>
      <trkpt lat="38.331689" lon="-0.705059">
        <ele>312.8</ele>
        <time>2019-12-31T14:33:55Z</time>
      </trkpt>
      <trkpt lat="38.331744" lon="-0.705155">
        <ele>312.8</ele>
        <time>2019-12-31T14:33:56Z</time>
      </trkpt>
      <trkpt lat="38.331797" lon="-0.705251">
        <ele>312.6</ele>
        <time>2019-12-31T14:33:57Z</time>
      </trkpt>
      <trkpt lat="38.331903" lon="-0.705436">
        <ele>312.4</ele>
        <time>2019-12-31T14:33:58Z</time>
      </trkpt>
      <trkpt lat="38.331957" lon="-0.705526">
        <ele>312.4</ele>
        <time>2019-12-31T14:33:59Z</time>
      </trkpt>
      <trkpt lat="38.331957" lon="-0.705526">
        <ele>312</ele>
        <time>2019-12-31T14:34:00Z</time>
      </trkpt>
      <trkpt lat="38.332061" lon="-0.705706">
        <ele>311.8</ele>
        <time>2019-12-31T14:34:01Z</time>
      </trkpt>
      <trkpt lat="38.332113" lon="-0.705797">
        <ele>311.6</ele>
        <time>2019-12-31T14:34:02Z</time>
      </trkpt>
      <trkpt lat="38.332113" lon="-0.705797">
        <ele>311.2</ele>
        <time>2019-12-31T14:34:03Z</time>
      </trkpt>
      <trkpt lat="38.332223" lon="-0.705976">
        <ele>310.8</ele>
        <time>2019-12-31T14:34:04Z</time>
      </trkpt>
      <trkpt lat="38.332282" lon="-0.706062">
        <ele>310.4</ele>
        <time>2019-12-31T14:34:05Z</time>
      </trkpt>
      <trkpt lat="38.332282" lon="-0.706062">
        <ele>310</ele>
        <time>2019-12-31T14:34:06Z</time>
      </trkpt>
      <trkpt lat="38.332342" lon="-0.706148">
        <ele>309.2</ele>
        <time>2019-12-31T14:34:07Z</time>
      </trkpt>
      <trkpt lat="38.332482" lon="-0.706304">
        <ele>308.6</ele>
        <time>2019-12-31T14:34:08Z</time>
      </trkpt>
      <trkpt lat="38.332482" lon="-0.706304">
        <ele>307.6</ele>
        <time>2019-12-31T14:34:09Z</time>
      </trkpt>
      <trkpt lat="38.332646" lon="-0.706434">
        <ele>307</ele>
        <time>2019-12-31T14:34:10Z</time>
      </trkpt>
      <trkpt lat="38.332646" lon="-0.706434">
        <ele>306</ele>
        <time>2019-12-31T14:34:11Z</time>
      </trkpt>
      <trkpt lat="38.332827" lon="-0.706542">
        <ele>305.4</ele>
        <time>2019-12-31T14:34:12Z</time>
      </trkpt>
      <trkpt lat="38.332924" lon="-0.706582">
        <ele>304.8</ele>
        <time>2019-12-31T14:34:13Z</time>
      </trkpt>
      <trkpt lat="38.333024" lon="-0.706616">
        <ele>304</ele>
        <time>2019-12-31T14:34:14Z</time>
      </trkpt>
      <trkpt lat="38.333024" lon="-0.706616">
        <ele>303.2</ele>
        <time>2019-12-31T14:34:15Z</time>
      </trkpt>
      <trkpt lat="38.333126" lon="-0.706638">
        <ele>302.4</ele>
        <time>2019-12-31T14:34:16Z</time>
      </trkpt>
      <trkpt lat="38.333336" lon="-0.706639">
        <ele>301.8</ele>
        <time>2019-12-31T14:34:17Z</time>
      </trkpt>
      <trkpt lat="38.333336" lon="-0.706639">
        <ele>301</ele>
        <time>2019-12-31T14:34:18Z</time>
      </trkpt>
      <trkpt lat="38.333444" lon="-0.706624">
        <ele>300.2</ele>
        <time>2019-12-31T14:34:19Z</time>
      </trkpt>
      <trkpt lat="38.333661" lon="-0.706582">
        <ele>299.4</ele>
        <time>2019-12-31T14:34:20Z</time>
      </trkpt>
      <trkpt lat="38.333661" lon="-0.706582">
        <ele>298.6</ele>
        <time>2019-12-31T14:34:21Z</time>
      </trkpt>
      <trkpt lat="38.333878" lon="-0.706523">
        <ele>298</ele>
        <time>2019-12-31T14:34:22Z</time>
      </trkpt>
      <trkpt lat="38.333989" lon="-0.706495">
        <ele>297.2</ele>
        <time>2019-12-31T14:34:23Z</time>
      </trkpt>
      <trkpt lat="38.333989" lon="-0.706495">
        <ele>296.2</ele>
        <time>2019-12-31T14:34:24Z</time>
      </trkpt>
      <trkpt lat="38.334215" lon="-0.706446">
        <ele>295</ele>
        <time>2019-12-31T14:34:25Z</time>
      </trkpt>
      <trkpt lat="38.334326" lon="-0.706419">
        <ele>294.4</ele>
        <time>2019-12-31T14:34:26Z</time>
      </trkpt>
      <trkpt lat="38.334326" lon="-0.706419">
        <ele>293.4</ele>
        <time>2019-12-31T14:34:27Z</time>
      </trkpt>
      <trkpt lat="38.334552" lon="-0.706361">
        <ele>292.6</ele>
        <time>2019-12-31T14:34:28Z</time>
      </trkpt>
      <trkpt lat="38.334665" lon="-0.706333">
        <ele>292</ele>
        <time>2019-12-31T14:34:29Z</time>
      </trkpt>
      <trkpt lat="38.334665" lon="-0.706333">
        <ele>291.8</ele>
        <time>2019-12-31T14:34:30Z</time>
      </trkpt>
      <trkpt lat="38.334774" lon="-0.706300">
        <ele>291</ele>
        <time>2019-12-31T14:34:31Z</time>
      </trkpt>
      <trkpt lat="38.334981" lon="-0.706211">
        <ele>290.4</ele>
        <time>2019-12-31T14:34:32Z</time>
      </trkpt>
      <trkpt lat="38.334981" lon="-0.706211">
        <ele>289.8</ele>
        <time>2019-12-31T14:34:33Z</time>
      </trkpt>
      <trkpt lat="38.335074" lon="-0.706139">
        <ele>289.2</ele>
        <time>2019-12-31T14:34:34Z</time>
      </trkpt>
      <trkpt lat="38.335203" lon="-0.705940">
        <ele>289</ele>
        <time>2019-12-31T14:34:35Z</time>
      </trkpt>
      <trkpt lat="38.335242" lon="-0.705829">
        <ele>288.8</ele>
        <time>2019-12-31T14:34:36Z</time>
      </trkpt>
      <trkpt lat="38.335242" lon="-0.705829">
        <ele>289.2</ele>
        <time>2019-12-31T14:34:37Z</time>
      </trkpt>
      <trkpt lat="38.335328" lon="-0.705639">
        <ele>289.6</ele>
        <time>2019-12-31T14:34:38Z</time>
      </trkpt>
      <trkpt lat="38.335328" lon="-0.705639">
        <ele>290.2</ele>
        <time>2019-12-31T14:34:39Z</time>
      </trkpt>
      <trkpt lat="38.335464" lon="-0.705580">
        <ele>290.4</ele>
        <time>2019-12-31T14:34:40Z</time>
      </trkpt>
      <trkpt lat="38.335525" lon="-0.705606">
        <ele>290.6</ele>
        <time>2019-12-31T14:34:41Z</time>
      </trkpt>
      <trkpt lat="38.335587" lon="-0.705619">
        <ele>290.8</ele>
        <time>2019-12-31T14:34:42Z</time>
      </trkpt>
      <trkpt lat="38.335587" lon="-0.705619">
        <ele>290.8</ele>
        <time>2019-12-31T14:34:43Z</time>
      </trkpt>
      <trkpt lat="38.335667" lon="-0.705548">
        <ele>290.8</ele>
        <time>2019-12-31T14:34:44Z</time>
      </trkpt>
      <trkpt lat="38.335680" lon="-0.705494">
        <ele>291</ele>
        <time>2019-12-31T14:34:45Z</time>
      </trkpt>
      <trkpt lat="38.335680" lon="-0.705494">
        <ele>291.4</ele>
        <time>2019-12-31T14:34:46Z</time>
      </trkpt>
      <trkpt lat="38.335704" lon="-0.705390">
        <ele>291.6</ele>
        <time>2019-12-31T14:34:47Z</time>
      </trkpt>
      <trkpt lat="38.335704" lon="-0.705390">
        <ele>291.8</ele>
        <time>2019-12-31T14:34:48Z</time>
      </trkpt>
      <trkpt lat="38.335718" lon="-0.705338">
        <ele>292</ele>
        <time>2019-12-31T14:34:49Z</time>
      </trkpt>
      <trkpt lat="38.335744" lon="-0.705234">
        <ele>292.4</ele>
        <time>2019-12-31T14:34:50Z</time>
      </trkpt>
      <trkpt lat="38.335744" lon="-0.705234">
        <ele>292.8</ele>
        <time>2019-12-31T14:34:51Z</time>
      </trkpt>
      <trkpt lat="38.335757" lon="-0.705184">
        <ele>293.2</ele>
        <time>2019-12-31T14:34:52Z</time>
      </trkpt>
      <trkpt lat="38.335766" lon="-0.705132">
        <ele>293.6</ele>
        <time>2019-12-31T14:34:53Z</time>
      </trkpt>
      <trkpt lat="38.335782" lon="-0.705031">
        <ele>294.2</ele>
        <time>2019-12-31T14:34:54Z</time>
      </trkpt>
      <trkpt lat="38.335782" lon="-0.705031">
        <ele>294.8</ele>
        <time>2019-12-31T14:34:55Z</time>
      </trkpt>
      <trkpt lat="38.335796" lon="-0.704932">
        <ele>295.2</ele>
        <time>2019-12-31T14:34:56Z</time>
      </trkpt>
      <trkpt lat="38.335796" lon="-0.704932">
        <ele>295.6</ele>
        <time>2019-12-31T14:34:57Z</time>
      </trkpt>
      <trkpt lat="38.335802" lon="-0.704880">
        <ele>296</ele>
        <time>2019-12-31T14:34:58Z</time>
      </trkpt>
      <trkpt lat="38.335807" lon="-0.704829">
        <ele>296.4</ele>
        <time>2019-12-31T14:34:59Z</time>
      </trkpt>
      <trkpt lat="38.335815" lon="-0.704778">
        <ele>296.8</ele>
        <time>2019-12-31T14:35:00Z</time>
      </trkpt>
      <trkpt lat="38.335831" lon="-0.704684">
        <ele>297.2</ele>
        <time>2019-12-31T14:35:01Z</time>
      </trkpt>
      <trkpt lat="38.335839" lon="-0.704637">
        <ele>297.6</ele>
        <time>2019-12-31T14:35:02Z</time>
      </trkpt>
      <trkpt lat="38.335839" lon="-0.704637">
        <ele>298</ele>
        <time>2019-12-31T14:35:03Z</time>
      </trkpt>
      <trkpt lat="38.335846" lon="-0.704588">
        <ele>298.4</ele>
        <time>2019-12-31T14:35:04Z</time>
      </trkpt>
      <trkpt lat="38.335853" lon="-0.704541">
        <ele>298.8</ele>
        <time>2019-12-31T14:35:05Z</time>
      </trkpt>
      <trkpt lat="38.335862" lon="-0.704493">
        <ele>299.2</ele>
        <time>2019-12-31T14:35:06Z</time>
      </trkpt>
      <trkpt lat="38.335870" lon="-0.704447">
        <ele>299.6</ele>
        <time>2019-12-31T14:35:07Z</time>
      </trkpt>
      <trkpt lat="38.335876" lon="-0.704370">
        <ele>299.8</ele>
        <time>2019-12-31T14:35:08Z</time>
      </trkpt>
      <trkpt lat="38.335878" lon="-0.704330">
        <ele>300.2</ele>
        <time>2019-12-31T14:35:09Z</time>
      </trkpt>
      <trkpt lat="38.335881" lon="-0.704290">
        <ele>300.4</ele>
        <time>2019-12-31T14:35:10Z</time>
      </trkpt>
      <trkpt lat="38.335880" lon="-0.704252">
        <ele>300.8</ele>
        <time>2019-12-31T14:35:11Z</time>
      </trkpt>
      <trkpt lat="38.335880" lon="-0.704252">
        <ele>300.8</ele>
        <time>2019-12-31T14:35:12Z</time>
      </trkpt>
      <trkpt lat="38.335878" lon="-0.704213">
        <ele>301.2</ele>
        <time>2019-12-31T14:35:13Z</time>
      </trkpt>
      <trkpt lat="38.335872" lon="-0.704136">
        <ele>301.4</ele>
        <time>2019-12-31T14:35:14Z</time>
      </trkpt>
      <trkpt lat="38.335872" lon="-0.704136">
        <ele>301.8</ele>
        <time>2019-12-31T14:35:15Z</time>
      </trkpt>
      <trkpt lat="38.335871" lon="-0.704096">
        <ele>302</ele>
        <time>2019-12-31T14:35:16Z</time>
      </trkpt>
      <trkpt lat="38.335870" lon="-0.704057">
        <ele>302.4</ele>
        <time>2019-12-31T14:35:17Z</time>
      </trkpt>
      <trkpt lat="38.335860" lon="-0.703980">
        <ele>302.4</ele>
        <time>2019-12-31T14:35:18Z</time>
      </trkpt>
      <trkpt lat="38.335860" lon="-0.703980">
        <ele>302.6</ele>
        <time>2019-12-31T14:35:19Z</time>
      </trkpt>
      <trkpt lat="38.335841" lon="-0.703906">
        <ele>302.8</ele>
        <time>2019-12-31T14:35:20Z</time>
      </trkpt>
      <trkpt lat="38.335831" lon="-0.703868">
        <ele>303.2</ele>
        <time>2019-12-31T14:35:21Z</time>
      </trkpt>
      <trkpt lat="38.335831" lon="-0.703868">
        <ele>303.4</ele>
        <time>2019-12-31T14:35:22Z</time>
      </trkpt>
      <trkpt lat="38.335822" lon="-0.703830">
        <ele>303.6</ele>
        <time>2019-12-31T14:35:23Z</time>
      </trkpt>
      <trkpt lat="38.335814" lon="-0.703792">
        <ele>303.8</ele>
        <time>2019-12-31T14:35:24Z</time>
      </trkpt>
      <trkpt lat="38.335789" lon="-0.703717">
        <ele>304</ele>
        <time>2019-12-31T14:35:25Z</time>
      </trkpt>
      <trkpt lat="38.335773" lon="-0.703681">
        <ele>304.2</ele>
        <time>2019-12-31T14:35:26Z</time>
      </trkpt>
      <trkpt lat="38.335756" lon="-0.703649">
        <ele>304.4</ele>
        <time>2019-12-31T14:35:27Z</time>
      </trkpt>
      <trkpt lat="38.335738" lon="-0.703615">
        <ele>304.4</ele>
        <time>2019-12-31T14:35:28Z</time>
      </trkpt>
      <trkpt lat="38.335738" lon="-0.703615">
        <ele>304.8</ele>
        <time>2019-12-31T14:35:29Z</time>
      </trkpt>
      <trkpt lat="38.335698" lon="-0.703550">
        <ele>304.8</ele>
        <time>2019-12-31T14:35:30Z</time>
      </trkpt>
      <trkpt lat="38.335679" lon="-0.703516">
        <ele>305</ele>
        <time>2019-12-31T14:35:31Z</time>
      </trkpt>
      <trkpt lat="38.335658" lon="-0.703483">
        <ele>305</ele>
        <time>2019-12-31T14:35:32Z</time>
      </trkpt>
      <trkpt lat="38.335658" lon="-0.703483">
        <ele>305.2</ele>
        <time>2019-12-31T14:35:33Z</time>
      </trkpt>
      <trkpt lat="38.335638" lon="-0.703448">
        <ele>305.6</ele>
        <time>2019-12-31T14:35:34Z</time>
      </trkpt>
      <trkpt lat="38.335617" lon="-0.703414">
        <ele>305.8</ele>
        <time>2019-12-31T14:35:35Z</time>
      </trkpt>
      <trkpt lat="38.335595" lon="-0.703380">
        <ele>305.8</ele>
        <time>2019-12-31T14:35:36Z</time>
      </trkpt>
      <trkpt lat="38.335574" lon="-0.703344">
        <ele>306</ele>
        <time>2019-12-31T14:35:37Z</time>
      </trkpt>
      <trkpt lat="38.335534" lon="-0.703265">
        <ele>306.4</ele>
        <time>2019-12-31T14:35:38Z</time>
      </trkpt>
      <trkpt lat="38.335515" lon="-0.703226">
        <ele>306.4</ele>
        <time>2019-12-31T14:35:39Z</time>
      </trkpt>
      <trkpt lat="38.335493" lon="-0.703189">
        <ele>306.4</ele>
        <time>2019-12-31T14:35:40Z</time>
      </trkpt>
      <trkpt lat="38.335493" lon="-0.703189">
        <ele>306.6</ele>
        <time>2019-12-31T14:35:41Z</time>
      </trkpt>
      <trkpt lat="38.335448" lon="-0.703113">
        <ele>306.8</ele>
        <time>2019-12-31T14:35:42Z</time>
      </trkpt>
      <trkpt lat="38.335448" lon="-0.703113">
        <ele>307</ele>
        <time>2019-12-31T14:35:43Z</time>
      </trkpt>
      <trkpt lat="38.335403" lon="-0.703033">
        <ele>307</ele>
        <time>2019-12-31T14:35:44Z</time>
      </trkpt>
      <trkpt lat="38.335381" lon="-0.702994">
        <ele>307.2</ele>
        <time>2019-12-31T14:35:45Z</time>
      </trkpt>
      <trkpt lat="38.335359" lon="-0.702954">
        <ele>307.4</ele>
        <time>2019-12-31T14:35:46Z</time>
      </trkpt>
      <trkpt lat="38.335359" lon="-0.702954">
        <ele>307.6</ele>
        <time>2019-12-31T14:35:47Z</time>
      </trkpt>
      <trkpt lat="38.335314" lon="-0.702874">
        <ele>307.6</ele>
        <time>2019-12-31T14:35:48Z</time>
      </trkpt>
      <trkpt lat="38.335314" lon="-0.702874">
        <ele>307.8</ele>
        <time>2019-12-31T14:35:49Z</time>
      </trkpt>
      <trkpt lat="38.335268" lon="-0.702795">
        <ele>308</ele>
        <time>2019-12-31T14:35:50Z</time>
      </trkpt>
      <trkpt lat="38.335268" lon="-0.702795">
        <ele>308.2</ele>
        <time>2019-12-31T14:35:51Z</time>
      </trkpt>
      <trkpt lat="38.335244" lon="-0.702756">
        <ele>308.2</ele>
        <time>2019-12-31T14:35:52Z</time>
      </trkpt>
      <trkpt lat="38.335195" lon="-0.702678">
        <ele>308.4</ele>
        <time>2019-12-31T14:35:53Z</time>
      </trkpt>
      <trkpt lat="38.335195" lon="-0.702678">
        <ele>308.4</ele>
        <time>2019-12-31T14:35:54Z</time>
      </trkpt>
      <trkpt lat="38.335171" lon="-0.702638">
        <ele>308.8</ele>
        <time>2019-12-31T14:35:55Z</time>
      </trkpt>
      <trkpt lat="38.335148" lon="-0.702597">
        <ele>309</ele>
        <time>2019-12-31T14:35:56Z</time>
      </trkpt>
      <trkpt lat="38.335127" lon="-0.702552">
        <ele>309.2</ele>
        <time>2019-12-31T14:35:57Z</time>
      </trkpt>
      <trkpt lat="38.335084" lon="-0.702467">
        <ele>309.2</ele>
        <time>2019-12-31T14:35:58Z</time>
      </trkpt>
      <trkpt lat="38.335065" lon="-0.702421">
        <ele>309.2</ele>
        <time>2019-12-31T14:35:59Z</time>
      </trkpt>
      <trkpt lat="38.335044" lon="-0.702377">
        <ele>309.6</ele>
        <time>2019-12-31T14:36:00Z</time>
      </trkpt>
      <trkpt lat="38.335044" lon="-0.702377">
        <ele>309.6</ele>
        <time>2019-12-31T14:36:01Z</time>
      </trkpt>
      <trkpt lat="38.335012" lon="-0.702286">
        <ele>309.8</ele>
        <time>2019-12-31T14:36:02Z</time>
      </trkpt>
      <trkpt lat="38.335012" lon="-0.702286">
        <ele>310</ele>
        <time>2019-12-31T14:36:03Z</time>
      </trkpt>
      <trkpt lat="38.334997" lon="-0.702239">
        <ele>310.2</ele>
        <time>2019-12-31T14:36:04Z</time>
      </trkpt>
      <trkpt lat="38.334984" lon="-0.702192">
        <ele>310.2</ele>
        <time>2019-12-31T14:36:05Z</time>
      </trkpt>
      <trkpt lat="38.334960" lon="-0.702099">
        <ele>310.4</ele>
        <time>2019-12-31T14:36:06Z</time>
      </trkpt>
      <trkpt lat="38.334960" lon="-0.702099">
        <ele>310.6</ele>
        <time>2019-12-31T14:36:07Z</time>
      </trkpt>
      <trkpt lat="38.334938" lon="-0.702004">
        <ele>310.8</ele>
        <time>2019-12-31T14:36:08Z</time>
      </trkpt>
      <trkpt lat="38.334929" lon="-0.701955">
        <ele>310.8</ele>
        <time>2019-12-31T14:36:09Z</time>
      </trkpt>
      <trkpt lat="38.334929" lon="-0.701955">
        <ele>311</ele>
        <time>2019-12-31T14:36:10Z</time>
      </trkpt>
      <trkpt lat="38.334921" lon="-0.701906">
        <ele>311.2</ele>
        <time>2019-12-31T14:36:11Z</time>
      </trkpt>
      <trkpt lat="38.334914" lon="-0.701855">
        <ele>311.4</ele>
        <time>2019-12-31T14:36:12Z</time>
      </trkpt>
      <trkpt lat="38.334899" lon="-0.701754">
        <ele>311.6</ele>
        <time>2019-12-31T14:36:13Z</time>
      </trkpt>
      <trkpt lat="38.334899" lon="-0.701754">
        <ele>311.8</ele>
        <time>2019-12-31T14:36:14Z</time>
      </trkpt>
      <trkpt lat="38.334890" lon="-0.701649">
        <ele>311.8</ele>
        <time>2019-12-31T14:36:15Z</time>
      </trkpt>
      <trkpt lat="38.334890" lon="-0.701649">
        <ele>312</ele>
        <time>2019-12-31T14:36:16Z</time>
      </trkpt>
      <trkpt lat="38.334886" lon="-0.701544">
        <ele>312.2</ele>
        <time>2019-12-31T14:36:17Z</time>
      </trkpt>
      <trkpt lat="38.334885" lon="-0.701491">
        <ele>312.6</ele>
        <time>2019-12-31T14:36:18Z</time>
      </trkpt>
      <trkpt lat="38.334885" lon="-0.701491">
        <ele>312.6</ele>
        <time>2019-12-31T14:36:19Z</time>
      </trkpt>
      <trkpt lat="38.334885" lon="-0.701383">
        <ele>312.8</ele>
        <time>2019-12-31T14:36:20Z</time>
      </trkpt>
      <trkpt lat="38.334885" lon="-0.701383">
        <ele>313</ele>
        <time>2019-12-31T14:36:21Z</time>
      </trkpt>
      <trkpt lat="38.334882" lon="-0.701328">
        <ele>313</ele>
        <time>2019-12-31T14:36:22Z</time>
      </trkpt>
      <trkpt lat="38.334876" lon="-0.701216">
        <ele>313.2</ele>
        <time>2019-12-31T14:36:23Z</time>
      </trkpt>
      <trkpt lat="38.334874" lon="-0.701158">
        <ele>313.4</ele>
        <time>2019-12-31T14:36:24Z</time>
      </trkpt>
      <trkpt lat="38.334874" lon="-0.701158">
        <ele>313.4</ele>
        <time>2019-12-31T14:36:25Z</time>
      </trkpt>
      <trkpt lat="38.334866" lon="-0.701042">
        <ele>313.6</ele>
        <time>2019-12-31T14:36:26Z</time>
      </trkpt>
      <trkpt lat="38.334866" lon="-0.701042">
        <ele>313.8</ele>
        <time>2019-12-31T14:36:27Z</time>
      </trkpt>
      <trkpt lat="38.334862" lon="-0.700985">
        <ele>314</ele>
        <time>2019-12-31T14:36:28Z</time>
      </trkpt>
      <trkpt lat="38.334857" lon="-0.700874">
        <ele>314</ele>
        <time>2019-12-31T14:36:29Z</time>
      </trkpt>
      <trkpt lat="38.334857" lon="-0.700874">
        <ele>314.4</ele>
        <time>2019-12-31T14:36:30Z</time>
      </trkpt>
      <trkpt lat="38.334854" lon="-0.700762">
        <ele>314.4</ele>
        <time>2019-12-31T14:36:31Z</time>
      </trkpt>
      <trkpt lat="38.334854" lon="-0.700762">
        <ele>314.6</ele>
        <time>2019-12-31T14:36:32Z</time>
      </trkpt>
      <trkpt lat="38.334850" lon="-0.700648">
        <ele>314.8</ele>
        <time>2019-12-31T14:36:33Z</time>
      </trkpt>
      <trkpt lat="38.334850" lon="-0.700648">
        <ele>315</ele>
        <time>2019-12-31T14:36:34Z</time>
      </trkpt>
      <trkpt lat="38.334848" lon="-0.700590">
        <ele>315</ele>
        <time>2019-12-31T14:36:35Z</time>
      </trkpt>
      <trkpt lat="38.334845" lon="-0.700477">
        <ele>315.2</ele>
        <time>2019-12-31T14:36:36Z</time>
      </trkpt>
      <trkpt lat="38.334845" lon="-0.700477">
        <ele>315.4</ele>
        <time>2019-12-31T14:36:37Z</time>
      </trkpt>
      <trkpt lat="38.334840" lon="-0.700363">
        <ele>315.6</ele>
        <time>2019-12-31T14:36:38Z</time>
      </trkpt>
      <trkpt lat="38.334840" lon="-0.700363">
        <ele>315.8</ele>
        <time>2019-12-31T14:36:39Z</time>
      </trkpt>
      <trkpt lat="38.334838" lon="-0.700248">
        <ele>315.8</ele>
        <time>2019-12-31T14:36:40Z</time>
      </trkpt>
      <trkpt lat="38.334838" lon="-0.700248">
        <ele>316</ele>
        <time>2019-12-31T14:36:41Z</time>
      </trkpt>
      <trkpt lat="38.334835" lon="-0.700135">
        <ele>316.2</ele>
        <time>2019-12-31T14:36:42Z</time>
      </trkpt>
      <trkpt lat="38.334835" lon="-0.700135">
        <ele>316.4</ele>
        <time>2019-12-31T14:36:43Z</time>
      </trkpt>
      <trkpt lat="38.334832" lon="-0.700020">
        <ele>316.6</ele>
        <time>2019-12-31T14:36:44Z</time>
      </trkpt>
      <trkpt lat="38.334832" lon="-0.700020">
        <ele>316.6</ele>
        <time>2019-12-31T14:36:45Z</time>
      </trkpt>
      <trkpt lat="38.334826" lon="-0.699906">
        <ele>317</ele>
        <time>2019-12-31T14:36:46Z</time>
      </trkpt>
      <trkpt lat="38.334824" lon="-0.699848">
        <ele>317</ele>
        <time>2019-12-31T14:36:47Z</time>
      </trkpt>
      <trkpt lat="38.334821" lon="-0.699791">
        <ele>317.2</ele>
        <time>2019-12-31T14:36:48Z</time>
      </trkpt>
      <trkpt lat="38.334819" lon="-0.699734">
        <ele>317.6</ele>
        <time>2019-12-31T14:36:49Z</time>
      </trkpt>
      <trkpt lat="38.334817" lon="-0.699677">
        <ele>317.6</ele>
        <time>2019-12-31T14:36:50Z</time>
      </trkpt>
      <trkpt lat="38.334816" lon="-0.699620">
        <ele>317.8</ele>
        <time>2019-12-31T14:36:51Z</time>
      </trkpt>
      <trkpt lat="38.334816" lon="-0.699620">
        <ele>317.8</ele>
        <time>2019-12-31T14:36:52Z</time>
      </trkpt>
      <trkpt lat="38.334811" lon="-0.699506">
        <ele>318.2</ele>
        <time>2019-12-31T14:36:53Z</time>
      </trkpt>
      <trkpt lat="38.334809" lon="-0.699449">
        <ele>318.2</ele>
        <time>2019-12-31T14:36:54Z</time>
      </trkpt>
      <trkpt lat="38.334805" lon="-0.699392">
        <ele>318.4</ele>
        <time>2019-12-31T14:36:55Z</time>
      </trkpt>
      <trkpt lat="38.334805" lon="-0.699392">
        <ele>318.6</ele>
        <time>2019-12-31T14:36:56Z</time>
      </trkpt>
      <trkpt lat="38.334802" lon="-0.699336">
        <ele>318.8</ele>
        <time>2019-12-31T14:36:57Z</time>
      </trkpt>
      <trkpt lat="38.334797" lon="-0.699223">
        <ele>319</ele>
        <time>2019-12-31T14:36:58Z</time>
      </trkpt>
      <trkpt lat="38.334797" lon="-0.699223">
        <ele>319</ele>
        <time>2019-12-31T14:36:59Z</time>
      </trkpt>
      <trkpt lat="38.334793" lon="-0.699110">
        <ele>319.2</ele>
        <time>2019-12-31T14:37:00Z</time>
      </trkpt>
      <trkpt lat="38.334791" lon="-0.699053">
        <ele>319.4</ele>
        <time>2019-12-31T14:37:01Z</time>
      </trkpt>
      <trkpt lat="38.334788" lon="-0.698997">
        <ele>319.6</ele>
        <time>2019-12-31T14:37:02Z</time>
      </trkpt>
      <trkpt lat="38.334788" lon="-0.698997">
        <ele>319.8</ele>
        <time>2019-12-31T14:37:03Z</time>
      </trkpt>
      <trkpt lat="38.334786" lon="-0.698941">
        <ele>320</ele>
        <time>2019-12-31T14:37:04Z</time>
      </trkpt>
      <trkpt lat="38.334784" lon="-0.698824">
        <ele>320.2</ele>
        <time>2019-12-31T14:37:05Z</time>
      </trkpt>
      <trkpt lat="38.334784" lon="-0.698824">
        <ele>320.4</ele>
        <time>2019-12-31T14:37:06Z</time>
      </trkpt>
      <trkpt lat="38.334782" lon="-0.698767">
        <ele>320.6</ele>
        <time>2019-12-31T14:37:07Z</time>
      </trkpt>
      <trkpt lat="38.334778" lon="-0.698709">
        <ele>320.8</ele>
        <time>2019-12-31T14:37:08Z</time>
      </trkpt>
      <trkpt lat="38.334774" lon="-0.698654">
        <ele>321</ele>
        <time>2019-12-31T14:37:09Z</time>
      </trkpt>
      <trkpt lat="38.334770" lon="-0.698600">
        <ele>321.2</ele>
        <time>2019-12-31T14:37:10Z</time>
      </trkpt>
      <trkpt lat="38.334764" lon="-0.698492">
        <ele>321.4</ele>
        <time>2019-12-31T14:37:11Z</time>
      </trkpt>
      <trkpt lat="38.334764" lon="-0.698492">
        <ele>321.6</ele>
        <time>2019-12-31T14:37:12Z</time>
      </trkpt>
      <trkpt lat="38.334759" lon="-0.698438">
        <ele>321.8</ele>
        <time>2019-12-31T14:37:13Z</time>
      </trkpt>
      <trkpt lat="38.334749" lon="-0.698331">
        <ele>322</ele>
        <time>2019-12-31T14:37:14Z</time>
      </trkpt>
      <trkpt lat="38.334741" lon="-0.698278">
        <ele>322.2</ele>
        <time>2019-12-31T14:37:15Z</time>
      </trkpt>
      <trkpt lat="38.334734" lon="-0.698227">
        <ele>322.2</ele>
        <time>2019-12-31T14:37:16Z</time>
      </trkpt>
      <trkpt lat="38.334729" lon="-0.698177">
        <ele>322.4</ele>
        <time>2019-12-31T14:37:17Z</time>
      </trkpt>
      <trkpt lat="38.334729" lon="-0.698177">
        <ele>322.8</ele>
        <time>2019-12-31T14:37:18Z</time>
      </trkpt>
      <trkpt lat="38.334724" lon="-0.698125">
        <ele>322.8</ele>
        <time>2019-12-31T14:37:19Z</time>
      </trkpt>
      <trkpt lat="38.334717" lon="-0.698027">
        <ele>323</ele>
        <time>2019-12-31T14:37:20Z</time>
      </trkpt>
      <trkpt lat="38.334721" lon="-0.697982">
        <ele>323.2</ele>
        <time>2019-12-31T14:37:21Z</time>
      </trkpt>
      <trkpt lat="38.334721" lon="-0.697982">
        <ele>323.2</ele>
        <time>2019-12-31T14:37:22Z</time>
      </trkpt>
      <trkpt lat="38.334750" lon="-0.697899">
        <ele>323.6</ele>
        <time>2019-12-31T14:37:23Z</time>
      </trkpt>
      <trkpt lat="38.334750" lon="-0.697899">
        <ele>323.4</ele>
        <time>2019-12-31T14:37:24Z</time>
      </trkpt>
      <trkpt lat="38.334771" lon="-0.697816">
        <ele>323.4</ele>
        <time>2019-12-31T14:37:25Z</time>
      </trkpt>
      <trkpt lat="38.334781" lon="-0.697782">
        <ele>324</ele>
        <time>2019-12-31T14:37:26Z</time>
      </trkpt>
      <trkpt lat="38.334781" lon="-0.697782">
        <ele>324.4</ele>
        <time>2019-12-31T14:37:27Z</time>
      </trkpt>
      <trkpt lat="38.334789" lon="-0.697752">
        <ele>324.8</ele>
        <time>2019-12-31T14:37:28Z</time>
      </trkpt>
      <trkpt lat="38.334805" lon="-0.697700">
        <ele>325.4</ele>
        <time>2019-12-31T14:37:29Z</time>
      </trkpt>
      <trkpt lat="38.334810" lon="-0.697678">
        <ele>325.8</ele>
        <time>2019-12-31T14:37:30Z</time>
      </trkpt>
      <trkpt lat="38.334810" lon="-0.697656">
        <ele>326.2</ele>
        <time>2019-12-31T14:37:31Z</time>
      </trkpt>
      <trkpt lat="38.334810" lon="-0.697656">
        <ele>326.4</ele>
        <time>2019-12-31T14:37:32Z</time>
      </trkpt>
      <trkpt lat="38.334816" lon="-0.697624">
        <ele>326.6</ele>
        <time>2019-12-31T14:37:33Z</time>
      </trkpt>
      <trkpt lat="38.334825" lon="-0.697614">
        <ele>326.6</ele>
        <time>2019-12-31T14:37:34Z</time>
      </trkpt>
      <trkpt lat="38.334825" lon="-0.697614">
        <ele>326.8</ele>
        <time>2019-12-31T14:37:35Z</time>
      </trkpt>
      <trkpt lat="38.334839" lon="-0.697613">
        <ele>327</ele>
        <time>2019-12-31T14:37:36Z</time>
      </trkpt>
      <trkpt lat="38.334853" lon="-0.697621">
        <ele>327.2</ele>
        <time>2019-12-31T14:37:37Z</time>
      </trkpt>
      <trkpt lat="38.334872" lon="-0.697655">
        <ele>327.4</ele>
        <time>2019-12-31T14:37:38Z</time>
      </trkpt>
      <trkpt lat="38.334883" lon="-0.697675">
        <ele>327.8</ele>
        <time>2019-12-31T14:37:39Z</time>
      </trkpt>
      <trkpt lat="38.334894" lon="-0.697695">
        <ele>328.2</ele>
        <time>2019-12-31T14:37:40Z</time>
      </trkpt>
      <trkpt lat="38.334894" lon="-0.697695">
        <ele>328.4</ele>
        <time>2019-12-31T14:37:41Z</time>
      </trkpt>
      <trkpt lat="38.334911" lon="-0.697726">
        <ele>328.8</ele>
        <time>2019-12-31T14:37:42Z</time>
      </trkpt>
      <trkpt lat="38.334909" lon="-0.697748">
        <ele>329</ele>
        <time>2019-12-31T14:37:43Z</time>
      </trkpt>
      <trkpt lat="38.334912" lon="-0.697777">
        <ele>329</ele>
        <time>2019-12-31T14:37:44Z</time>
      </trkpt>
      <trkpt lat="38.334911" lon="-0.697818">
        <ele>328.6</ele>
        <time>2019-12-31T14:37:45Z</time>
      </trkpt>
      <trkpt lat="38.334905" lon="-0.697862">
        <ele>328.2</ele>
        <time>2019-12-31T14:37:46Z</time>
      </trkpt>
      <trkpt lat="38.334899" lon="-0.697910">
        <ele>328.2</ele>
        <time>2019-12-31T14:37:47Z</time>
      </trkpt>
      <trkpt lat="38.334901" lon="-0.697962">
        <ele>327.6</ele>
        <time>2019-12-31T14:37:48Z</time>
      </trkpt>
      <trkpt lat="38.334901" lon="-0.697962">
        <ele>327.6</ele>
        <time>2019-12-31T14:37:49Z</time>
      </trkpt>
      <trkpt lat="38.334901" lon="-0.698073">
        <ele>326.8</ele>
        <time>2019-12-31T14:37:50Z</time>
      </trkpt>
      <trkpt lat="38.334909" lon="-0.698128">
        <ele>327.2</ele>
        <time>2019-12-31T14:37:51Z</time>
      </trkpt>
      <trkpt lat="38.334919" lon="-0.698186">
        <ele>326.6</ele>
        <time>2019-12-31T14:37:52Z</time>
      </trkpt>
      <trkpt lat="38.334933" lon="-0.698244">
        <ele>326.2</ele>
        <time>2019-12-31T14:37:53Z</time>
      </trkpt>
      <trkpt lat="38.334950" lon="-0.698303">
        <ele>326</ele>
        <time>2019-12-31T14:37:54Z</time>
      </trkpt>
      <trkpt lat="38.334965" lon="-0.698358">
        <ele>325.6</ele>
        <time>2019-12-31T14:37:55Z</time>
      </trkpt>
      <trkpt lat="38.334969" lon="-0.698404">
        <ele>325.2</ele>
        <time>2019-12-31T14:37:56Z</time>
      </trkpt>
      <trkpt lat="38.334968" lon="-0.698445">
        <ele>325.4</ele>
        <time>2019-12-31T14:37:57Z</time>
      </trkpt>
      <trkpt lat="38.334967" lon="-0.698484">
        <ele>325.4</ele>
        <time>2019-12-31T14:37:58Z</time>
      </trkpt>
      <trkpt lat="38.334971" lon="-0.698524">
        <ele>325.2</ele>
        <time>2019-12-31T14:37:59Z</time>
      </trkpt>
      <trkpt lat="38.334971" lon="-0.698524">
        <ele>325.2</ele>
        <time>2019-12-31T14:38:00Z</time>
      </trkpt>
      <trkpt lat="38.334980" lon="-0.698554">
        <ele>324.8</ele>
        <time>2019-12-31T14:38:01Z</time>
      </trkpt>
      <trkpt lat="38.334991" lon="-0.698574">
        <ele>324.4</ele>
        <time>2019-12-31T14:38:02Z</time>
      </trkpt>
      <trkpt lat="38.335005" lon="-0.698583">
        <ele>324.6</ele>
        <time>2019-12-31T14:38:03Z</time>
      </trkpt>
      <trkpt lat="38.335018" lon="-0.698585">
        <ele>324.6</ele>
        <time>2019-12-31T14:38:04Z</time>
      </trkpt>
      <trkpt lat="38.335033" lon="-0.698578">
        <ele>324.4</ele>
        <time>2019-12-31T14:38:05Z</time>
      </trkpt>
      <trkpt lat="38.335054" lon="-0.698546">
        <ele>324.4</ele>
        <time>2019-12-31T14:38:06Z</time>
      </trkpt>
      <trkpt lat="38.335059" lon="-0.698525">
        <ele>324.8</ele>
        <time>2019-12-31T14:38:07Z</time>
      </trkpt>
      <trkpt lat="38.335066" lon="-0.698506">
        <ele>325.2</ele>
        <time>2019-12-31T14:38:08Z</time>
      </trkpt>
      <trkpt lat="38.335073" lon="-0.698484">
        <ele>325.4</ele>
        <time>2019-12-31T14:38:09Z</time>
      </trkpt>
      <trkpt lat="38.335080" lon="-0.698462">
        <ele>325.6</ele>
        <time>2019-12-31T14:38:10Z</time>
      </trkpt>
      <trkpt lat="38.335080" lon="-0.698462">
        <ele>326</ele>
        <time>2019-12-31T14:38:11Z</time>
      </trkpt>
      <trkpt lat="38.335093" lon="-0.698420">
        <ele>326.2</ele>
        <time>2019-12-31T14:38:12Z</time>
      </trkpt>
      <trkpt lat="38.335098" lon="-0.698399">
        <ele>326.4</ele>
        <time>2019-12-31T14:38:13Z</time>
      </trkpt>
      <trkpt lat="38.335102" lon="-0.698379">
        <ele>326.8</ele>
        <time>2019-12-31T14:38:14Z</time>
      </trkpt>
      <trkpt lat="38.335102" lon="-0.698379">
        <ele>327.2</ele>
        <time>2019-12-31T14:38:15Z</time>
      </trkpt>
      <trkpt lat="38.335110" lon="-0.698339">
        <ele>327.4</ele>
        <time>2019-12-31T14:38:16Z</time>
      </trkpt>
      <trkpt lat="38.335110" lon="-0.698339">
        <ele>327.6</ele>
        <time>2019-12-31T14:38:17Z</time>
      </trkpt>
      <trkpt lat="38.335114" lon="-0.698319">
        <ele>328</ele>
        <time>2019-12-31T14:38:18Z</time>
      </trkpt>
      <trkpt lat="38.335122" lon="-0.698281">
        <ele>328.4</ele>
        <time>2019-12-31T14:38:19Z</time>
      </trkpt>
      <trkpt lat="38.335126" lon="-0.698262">
        <ele>328.8</ele>
        <time>2019-12-31T14:38:20Z</time>
      </trkpt>
      <trkpt lat="38.335127" lon="-0.698244">
        <ele>329</ele>
        <time>2019-12-31T14:38:21Z</time>
      </trkpt>
      <trkpt lat="38.335130" lon="-0.698225">
        <ele>329.4</ele>
        <time>2019-12-31T14:38:22Z</time>
      </trkpt>
      <trkpt lat="38.335130" lon="-0.698225">
        <ele>329.8</ele>
        <time>2019-12-31T14:38:23Z</time>
      </trkpt>
      <trkpt lat="38.335132" lon="-0.698208">
        <ele>330</ele>
        <time>2019-12-31T14:38:24Z</time>
      </trkpt>
      <trkpt lat="38.335138" lon="-0.698188">
        <ele>330.2</ele>
        <time>2019-12-31T14:38:25Z</time>
      </trkpt>
      <trkpt lat="38.335142" lon="-0.698170">
        <ele>330.4</ele>
        <time>2019-12-31T14:38:26Z</time>
      </trkpt>
      <trkpt lat="38.335147" lon="-0.698136">
        <ele>330.8</ele>
        <time>2019-12-31T14:38:27Z</time>
      </trkpt>
      <trkpt lat="38.335146" lon="-0.698119">
        <ele>331.2</ele>
        <time>2019-12-31T14:38:28Z</time>
      </trkpt>
      <trkpt lat="38.335146" lon="-0.698119">
        <ele>331.4</ele>
        <time>2019-12-31T14:38:29Z</time>
      </trkpt>
      <trkpt lat="38.335144" lon="-0.698103">
        <ele>331.8</ele>
        <time>2019-12-31T14:38:30Z</time>
      </trkpt>
      <trkpt lat="38.335139" lon="-0.698085">
        <ele>332.4</ele>
        <time>2019-12-31T14:38:31Z</time>
      </trkpt>
      <trkpt lat="38.335139" lon="-0.698051">
        <ele>332.6</ele>
        <time>2019-12-31T14:38:32Z</time>
      </trkpt>
      <trkpt lat="38.335139" lon="-0.698051">
        <ele>333</ele>
        <time>2019-12-31T14:38:33Z</time>
      </trkpt>
      <trkpt lat="38.335145" lon="-0.698011">
        <ele>333</ele>
        <time>2019-12-31T14:38:34Z</time>
      </trkpt>
      <trkpt lat="38.335145" lon="-0.698011">
        <ele>333.4</ele>
        <time>2019-12-31T14:38:35Z</time>
      </trkpt>
      <trkpt lat="38.335153" lon="-0.697973">
        <ele>333.6</ele>
        <time>2019-12-31T14:38:36Z</time>
      </trkpt>
      <trkpt lat="38.335153" lon="-0.697973">
        <ele>334</ele>
        <time>2019-12-31T14:38:37Z</time>
      </trkpt>
      <trkpt lat="38.335159" lon="-0.697937">
        <ele>334.4</ele>
        <time>2019-12-31T14:38:38Z</time>
      </trkpt>
      <trkpt lat="38.335161" lon="-0.697919">
        <ele>334.6</ele>
        <time>2019-12-31T14:38:39Z</time>
      </trkpt>
      <trkpt lat="38.335161" lon="-0.697919">
        <ele>335</ele>
        <time>2019-12-31T14:38:40Z</time>
      </trkpt>
      <trkpt lat="38.335163" lon="-0.697903">
        <ele>335.4</ele>
        <time>2019-12-31T14:38:41Z</time>
      </trkpt>
      <trkpt lat="38.335166" lon="-0.697887">
        <ele>335.6</ele>
        <time>2019-12-31T14:38:42Z</time>
      </trkpt>
      <trkpt lat="38.335172" lon="-0.697871">
        <ele>335.8</ele>
        <time>2019-12-31T14:38:43Z</time>
      </trkpt>
      <trkpt lat="38.335179" lon="-0.697839">
        <ele>336</ele>
        <time>2019-12-31T14:38:44Z</time>
      </trkpt>
      <trkpt lat="38.335188" lon="-0.697827">
        <ele>336.4</ele>
        <time>2019-12-31T14:38:45Z</time>
      </trkpt>
      <trkpt lat="38.335188" lon="-0.697827">
        <ele>336.6</ele>
        <time>2019-12-31T14:38:46Z</time>
      </trkpt>
      <trkpt lat="38.335195" lon="-0.697811">
        <ele>337</ele>
        <time>2019-12-31T14:38:47Z</time>
      </trkpt>
      <trkpt lat="38.335201" lon="-0.697794">
        <ele>337.2</ele>
        <time>2019-12-31T14:38:48Z</time>
      </trkpt>
      <trkpt lat="38.335206" lon="-0.697780">
        <ele>337.4</ele>
        <time>2019-12-31T14:38:49Z</time>
      </trkpt>
      <trkpt lat="38.335210" lon="-0.697766">
        <ele>337.8</ele>
        <time>2019-12-31T14:38:50Z</time>
      </trkpt>
      <trkpt lat="38.335222" lon="-0.697739">
        <ele>338.2</ele>
        <time>2019-12-31T14:38:51Z</time>
      </trkpt>
      <trkpt lat="38.335222" lon="-0.697739">
        <ele>338.4</ele>
        <time>2019-12-31T14:38:52Z</time>
      </trkpt>
      <trkpt lat="38.335225" lon="-0.697726">
        <ele>338.6</ele>
        <time>2019-12-31T14:38:53Z</time>
      </trkpt>
      <trkpt lat="38.335234" lon="-0.697701">
        <ele>338.8</ele>
        <time>2019-12-31T14:38:54Z</time>
      </trkpt>
      <trkpt lat="38.335234" lon="-0.697701">
        <ele>339.2</ele>
        <time>2019-12-31T14:38:55Z</time>
      </trkpt>
      <trkpt lat="38.335243" lon="-0.697678">
        <ele>339.4</ele>
        <time>2019-12-31T14:38:56Z</time>
      </trkpt>
      <trkpt lat="38.335243" lon="-0.697678">
        <ele>339.8</ele>
        <time>2019-12-31T14:38:57Z</time>
      </trkpt>
      <trkpt lat="38.335251" lon="-0.697668">
        <ele>340</ele>
        <time>2019-12-31T14:38:58Z</time>
      </trkpt>
      <trkpt lat="38.335260" lon="-0.697657">
        <ele>340.4</ele>
        <time>2019-12-31T14:38:59Z</time>
      </trkpt>
      <trkpt lat="38.335273" lon="-0.697632">
        <ele>340.6</ele>
        <time>2019-12-31T14:39:00Z</time>
      </trkpt>
      <trkpt lat="38.335278" lon="-0.697618">
        <ele>341</ele>
        <time>2019-12-31T14:39:01Z</time>
      </trkpt>
      <trkpt lat="38.335278" lon="-0.697618">
        <ele>341.2</ele>
        <time>2019-12-31T14:39:02Z</time>
      </trkpt>
      <trkpt lat="38.335287" lon="-0.697592">
        <ele>341.6</ele>
        <time>2019-12-31T14:39:03Z</time>
      </trkpt>
      <trkpt lat="38.335287" lon="-0.697592">
        <ele>341.8</ele>
        <time>2019-12-31T14:39:04Z</time>
      </trkpt>
      <trkpt lat="38.335292" lon="-0.697579">
        <ele>342</ele>
        <time>2019-12-31T14:39:05Z</time>
      </trkpt>
      <trkpt lat="38.335301" lon="-0.697553">
        <ele>342.4</ele>
        <time>2019-12-31T14:39:06Z</time>
      </trkpt>
      <trkpt lat="38.335308" lon="-0.697541">
        <ele>342.6</ele>
        <time>2019-12-31T14:39:07Z</time>
      </trkpt>
      <trkpt lat="38.335315" lon="-0.697529">
        <ele>343</ele>
        <time>2019-12-31T14:39:08Z</time>
      </trkpt>
      <trkpt lat="38.335321" lon="-0.697517">
        <ele>343.4</ele>
        <time>2019-12-31T14:39:09Z</time>
      </trkpt>
      <trkpt lat="38.335321" lon="-0.697517">
        <ele>343.4</ele>
        <time>2019-12-31T14:39:10Z</time>
      </trkpt>
      <trkpt lat="38.335326" lon="-0.697504">
        <ele>343.8</ele>
        <time>2019-12-31T14:39:11Z</time>
      </trkpt>
      <trkpt lat="38.335331" lon="-0.697491">
        <ele>344</ele>
        <time>2019-12-31T14:39:12Z</time>
      </trkpt>
      <trkpt lat="38.335337" lon="-0.697477">
        <ele>344.4</ele>
        <time>2019-12-31T14:39:13Z</time>
      </trkpt>
      <trkpt lat="38.335345" lon="-0.697464">
        <ele>344.6</ele>
        <time>2019-12-31T14:39:14Z</time>
      </trkpt>
      <trkpt lat="38.335353" lon="-0.697452">
        <ele>344.8</ele>
        <time>2019-12-31T14:39:15Z</time>
      </trkpt>
      <trkpt lat="38.335362" lon="-0.697442">
        <ele>345</ele>
        <time>2019-12-31T14:39:16Z</time>
      </trkpt>
      <trkpt lat="38.335380" lon="-0.697421">
        <ele>345</ele>
        <time>2019-12-31T14:39:17Z</time>
      </trkpt>
      <trkpt lat="38.335380" lon="-0.697421">
        <ele>345.2</ele>
        <time>2019-12-31T14:39:18Z</time>
      </trkpt>
      <trkpt lat="38.335387" lon="-0.697408">
        <ele>345.6</ele>
        <time>2019-12-31T14:39:19Z</time>
      </trkpt>
      <trkpt lat="38.335395" lon="-0.697398">
        <ele>345.8</ele>
        <time>2019-12-31T14:39:20Z</time>
      </trkpt>
      <trkpt lat="38.335408" lon="-0.697376">
        <ele>346</ele>
        <time>2019-12-31T14:39:21Z</time>
      </trkpt>
      <trkpt lat="38.335408" lon="-0.697376">
        <ele>346.2</ele>
        <time>2019-12-31T14:39:22Z</time>
      </trkpt>
      <trkpt lat="38.335423" lon="-0.697359">
        <ele>346.6</ele>
        <time>2019-12-31T14:39:23Z</time>
      </trkpt>
      <trkpt lat="38.335432" lon="-0.697349">
        <ele>346.8</ele>
        <time>2019-12-31T14:39:24Z</time>
      </trkpt>
      <trkpt lat="38.335432" lon="-0.697349">
        <ele>347</ele>
        <time>2019-12-31T14:39:25Z</time>
      </trkpt>
      <trkpt lat="38.335448" lon="-0.697326">
        <ele>347.2</ele>
        <time>2019-12-31T14:39:26Z</time>
      </trkpt>
      <trkpt lat="38.335448" lon="-0.697326">
        <ele>347.4</ele>
        <time>2019-12-31T14:39:27Z</time>
      </trkpt>
      <trkpt lat="38.335456" lon="-0.697315">
        <ele>347.8</ele>
        <time>2019-12-31T14:39:28Z</time>
      </trkpt>
      <trkpt lat="38.335465" lon="-0.697306">
        <ele>348</ele>
        <time>2019-12-31T14:39:29Z</time>
      </trkpt>
      <trkpt lat="38.335473" lon="-0.697297">
        <ele>348.4</ele>
        <time>2019-12-31T14:39:30Z</time>
      </trkpt>
      <trkpt lat="38.335482" lon="-0.697289">
        <ele>348.6</ele>
        <time>2019-12-31T14:39:31Z</time>
      </trkpt>
      <trkpt lat="38.335501" lon="-0.697269">
        <ele>348.6</ele>
        <time>2019-12-31T14:39:32Z</time>
      </trkpt>
      <trkpt lat="38.335501" lon="-0.697269">
        <ele>349</ele>
        <time>2019-12-31T14:39:33Z</time>
      </trkpt>
      <trkpt lat="38.335518" lon="-0.697250">
        <ele>349.4</ele>
        <time>2019-12-31T14:39:34Z</time>
      </trkpt>
      <trkpt lat="38.335529" lon="-0.697247">
        <ele>349.8</ele>
        <time>2019-12-31T14:39:35Z</time>
      </trkpt>
      <trkpt lat="38.335529" lon="-0.697247">
        <ele>350</ele>
        <time>2019-12-31T14:39:36Z</time>
      </trkpt>
      <trkpt lat="38.335537" lon="-0.697241">
        <ele>350</ele>
        <time>2019-12-31T14:39:37Z</time>
      </trkpt>
      <trkpt lat="38.335544" lon="-0.697231">
        <ele>350.2</ele>
        <time>2019-12-31T14:39:38Z</time>
      </trkpt>
      <trkpt lat="38.335553" lon="-0.697222">
        <ele>350.6</ele>
        <time>2019-12-31T14:39:39Z</time>
      </trkpt>
      <trkpt lat="38.335562" lon="-0.697216">
        <ele>350.8</ele>
        <time>2019-12-31T14:39:40Z</time>
      </trkpt>
      <trkpt lat="38.335584" lon="-0.697201">
        <ele>351.2</ele>
        <time>2019-12-31T14:39:41Z</time>
      </trkpt>
      <trkpt lat="38.335584" lon="-0.697201">
        <ele>351.2</ele>
        <time>2019-12-31T14:39:42Z</time>
      </trkpt>
      <trkpt lat="38.335610" lon="-0.697197">
        <ele>351.6</ele>
        <time>2019-12-31T14:39:43Z</time>
      </trkpt>
      <trkpt lat="38.335610" lon="-0.697197">
        <ele>351.8</ele>
        <time>2019-12-31T14:39:44Z</time>
      </trkpt>
      <trkpt lat="38.335635" lon="-0.697205">
        <ele>351.8</ele>
        <time>2019-12-31T14:39:45Z</time>
      </trkpt>
      <trkpt lat="38.335650" lon="-0.697210">
        <ele>352</ele>
        <time>2019-12-31T14:39:46Z</time>
      </trkpt>
      <trkpt lat="38.335665" lon="-0.697211">
        <ele>352.2</ele>
        <time>2019-12-31T14:39:47Z</time>
      </trkpt>
      <trkpt lat="38.335683" lon="-0.697215">
        <ele>352.2</ele>
        <time>2019-12-31T14:39:48Z</time>
      </trkpt>
      <trkpt lat="38.335683" lon="-0.697215">
        <ele>352.2</ele>
        <time>2019-12-31T14:39:49Z</time>
      </trkpt>
      <trkpt lat="38.335724" lon="-0.697233">
        <ele>352.2</ele>
        <time>2019-12-31T14:39:50Z</time>
      </trkpt>
      <trkpt lat="38.335749" lon="-0.697240">
        <ele>351.8</ele>
        <time>2019-12-31T14:39:51Z</time>
      </trkpt>
      <trkpt lat="38.335780" lon="-0.697248">
        <ele>351.8</ele>
        <time>2019-12-31T14:39:52Z</time>
      </trkpt>
      <trkpt lat="38.335780" lon="-0.697248">
        <ele>351.4</ele>
        <time>2019-12-31T14:39:53Z</time>
      </trkpt>
      <trkpt lat="38.335854" lon="-0.697244">
        <ele>350.8</ele>
        <time>2019-12-31T14:39:54Z</time>
      </trkpt>
      <trkpt lat="38.335895" lon="-0.697235">
        <ele>350.4</ele>
        <time>2019-12-31T14:39:55Z</time>
      </trkpt>
      <trkpt lat="38.335895" lon="-0.697235">
        <ele>349.8</ele>
        <time>2019-12-31T14:39:56Z</time>
      </trkpt>
      <trkpt lat="38.335939" lon="-0.697221">
        <ele>348.8</ele>
        <time>2019-12-31T14:39:57Z</time>
      </trkpt>
      <trkpt lat="38.335980" lon="-0.697211">
        <ele>347.8</ele>
        <time>2019-12-31T14:39:58Z</time>
      </trkpt>
      <trkpt lat="38.336019" lon="-0.697201">
        <ele>347.6</ele>
        <time>2019-12-31T14:39:59Z</time>
      </trkpt>
      <trkpt lat="38.336052" lon="-0.697177">
        <ele>346.6</ele>
        <time>2019-12-31T14:40:00Z</time>
      </trkpt>
      <trkpt lat="38.336107" lon="-0.697092">
        <ele>346</ele>
        <time>2019-12-31T14:40:01Z</time>
      </trkpt>
      <trkpt lat="38.336107" lon="-0.697092">
        <ele>345.6</ele>
        <time>2019-12-31T14:40:02Z</time>
      </trkpt>
      <trkpt lat="38.336122" lon="-0.697034">
        <ele>345.4</ele>
        <time>2019-12-31T14:40:03Z</time>
      </trkpt>
      <trkpt lat="38.336128" lon="-0.696974">
        <ele>345.8</ele>
        <time>2019-12-31T14:40:04Z</time>
      </trkpt>
      <trkpt lat="38.336130" lon="-0.696891">
        <ele>346</ele>
        <time>2019-12-31T14:40:05Z</time>
      </trkpt>
      <trkpt lat="38.336130" lon="-0.696891">
        <ele>346.4</ele>
        <time>2019-12-31T14:40:06Z</time>
      </trkpt>
      <trkpt lat="38.336128" lon="-0.696833">
        <ele>346.8</ele>
        <time>2019-12-31T14:40:07Z</time>
      </trkpt>
      <trkpt lat="38.336128" lon="-0.696833">
        <ele>347.2</ele>
        <time>2019-12-31T14:40:08Z</time>
      </trkpt>
      <trkpt lat="38.336129" lon="-0.696801">
        <ele>347.4</ele>
        <time>2019-12-31T14:40:09Z</time>
      </trkpt>
      <trkpt lat="38.336128" lon="-0.696742">
        <ele>347.4</ele>
        <time>2019-12-31T14:40:10Z</time>
      </trkpt>
      <trkpt lat="38.336136" lon="-0.696711">
        <ele>347.4</ele>
        <time>2019-12-31T14:40:11Z</time>
      </trkpt>
      <trkpt lat="38.336150" lon="-0.696675">
        <ele>347.6</ele>
        <time>2019-12-31T14:40:12Z</time>
      </trkpt>
      <trkpt lat="38.336174" lon="-0.696631">
        <ele>347.2</ele>
        <time>2019-12-31T14:40:13Z</time>
      </trkpt>
      <trkpt lat="38.336174" lon="-0.696631">
        <ele>346.8</ele>
        <time>2019-12-31T14:40:14Z</time>
      </trkpt>
      <trkpt lat="38.336200" lon="-0.696576">
        <ele>346.2</ele>
        <time>2019-12-31T14:40:15Z</time>
      </trkpt>
      <trkpt lat="38.336232" lon="-0.696516">
        <ele>345.8</ele>
        <time>2019-12-31T14:40:16Z</time>
      </trkpt>
      <trkpt lat="38.336299" lon="-0.696402">
        <ele>345.6</ele>
        <time>2019-12-31T14:40:17Z</time>
      </trkpt>
      <trkpt lat="38.336336" lon="-0.696358">
        <ele>345.8</ele>
        <time>2019-12-31T14:40:18Z</time>
      </trkpt>
      <trkpt lat="38.336336" lon="-0.696358">
        <ele>346</ele>
        <time>2019-12-31T14:40:19Z</time>
      </trkpt>
      <trkpt lat="38.336371" lon="-0.696314">
        <ele>346.2</ele>
        <time>2019-12-31T14:40:20Z</time>
      </trkpt>
      <trkpt lat="38.336397" lon="-0.696274">
        <ele>347</ele>
        <time>2019-12-31T14:40:21Z</time>
      </trkpt>
      <trkpt lat="38.336444" lon="-0.696229">
        <ele>347.8</ele>
        <time>2019-12-31T14:40:22Z</time>
      </trkpt>
      <trkpt lat="38.336444" lon="-0.696229">
        <ele>348</ele>
        <time>2019-12-31T14:40:23Z</time>
      </trkpt>
      <trkpt lat="38.336469" lon="-0.696212">
        <ele>348.4</ele>
        <time>2019-12-31T14:40:24Z</time>
      </trkpt>
      <trkpt lat="38.336511" lon="-0.696183">
        <ele>349</ele>
        <time>2019-12-31T14:40:25Z</time>
      </trkpt>
      <trkpt lat="38.336511" lon="-0.696183">
        <ele>349.2</ele>
        <time>2019-12-31T14:40:26Z</time>
      </trkpt>
      <trkpt lat="38.336541" lon="-0.696155">
        <ele>349.6</ele>
        <time>2019-12-31T14:40:27Z</time>
      </trkpt>
      <trkpt lat="38.336555" lon="-0.696138">
        <ele>349.6</ele>
        <time>2019-12-31T14:40:28Z</time>
      </trkpt>
      <trkpt lat="38.336555" lon="-0.696138">
        <ele>350</ele>
        <time>2019-12-31T14:40:29Z</time>
      </trkpt>
      <trkpt lat="38.336569" lon="-0.696121">
        <ele>350</ele>
        <time>2019-12-31T14:40:30Z</time>
      </trkpt>
      <trkpt lat="38.336583" lon="-0.696098">
        <ele>350.2</ele>
        <time>2019-12-31T14:40:31Z</time>
      </trkpt>
      <trkpt lat="38.336596" lon="-0.696072">
        <ele>350.2</ele>
        <time>2019-12-31T14:40:32Z</time>
      </trkpt>
      <trkpt lat="38.336609" lon="-0.696045">
        <ele>350.4</ele>
        <time>2019-12-31T14:40:33Z</time>
      </trkpt>
      <trkpt lat="38.336621" lon="-0.695971">
        <ele>350.4</ele>
        <time>2019-12-31T14:40:34Z</time>
      </trkpt>
      <trkpt lat="38.336621" lon="-0.695971">
        <ele>350.4</ele>
        <time>2019-12-31T14:40:35Z</time>
      </trkpt>
      <trkpt lat="38.336615" lon="-0.695888">
        <ele>350.6</ele>
        <time>2019-12-31T14:40:36Z</time>
      </trkpt>
      <trkpt lat="38.336609" lon="-0.695846">
        <ele>350.6</ele>
        <time>2019-12-31T14:40:37Z</time>
      </trkpt>
      <trkpt lat="38.336603" lon="-0.695801">
        <ele>350.6</ele>
        <time>2019-12-31T14:40:38Z</time>
      </trkpt>
      <trkpt lat="38.336597" lon="-0.695756">
        <ele>350.6</ele>
        <time>2019-12-31T14:40:39Z</time>
      </trkpt>
      <trkpt lat="38.336589" lon="-0.695710">
        <ele>350.8</ele>
        <time>2019-12-31T14:40:40Z</time>
      </trkpt>
      <trkpt lat="38.336589" lon="-0.695710">
        <ele>351</ele>
        <time>2019-12-31T14:40:41Z</time>
      </trkpt>
      <trkpt lat="38.336581" lon="-0.695614">
        <ele>350.8</ele>
        <time>2019-12-31T14:40:42Z</time>
      </trkpt>
      <trkpt lat="38.336581" lon="-0.695614">
        <ele>350.4</ele>
        <time>2019-12-31T14:40:43Z</time>
      </trkpt>
      <trkpt lat="38.336573" lon="-0.695561">
        <ele>350.4</ele>
        <time>2019-12-31T14:40:44Z</time>
      </trkpt>
      <trkpt lat="38.336565" lon="-0.695502">
        <ele>350.2</ele>
        <time>2019-12-31T14:40:45Z</time>
      </trkpt>
      <trkpt lat="38.336563" lon="-0.695438">
        <ele>349.8</ele>
        <time>2019-12-31T14:40:46Z</time>
      </trkpt>
      <trkpt lat="38.336566" lon="-0.695371">
        <ele>349.6</ele>
        <time>2019-12-31T14:40:47Z</time>
      </trkpt>
      <trkpt lat="38.336574" lon="-0.695242">
        <ele>349.6</ele>
        <time>2019-12-31T14:40:48Z</time>
      </trkpt>
      <trkpt lat="38.336580" lon="-0.695174">
        <ele>349.4</ele>
        <time>2019-12-31T14:40:49Z</time>
      </trkpt>
      <trkpt lat="38.336589" lon="-0.695107">
        <ele>349.4</ele>
        <time>2019-12-31T14:40:50Z</time>
      </trkpt>
      <trkpt lat="38.336589" lon="-0.695107">
        <ele>349.4</ele>
        <time>2019-12-31T14:40:51Z</time>
      </trkpt>
      <trkpt lat="38.336622" lon="-0.694982">
        <ele>349.4</ele>
        <time>2019-12-31T14:40:52Z</time>
      </trkpt>
      <trkpt lat="38.336647" lon="-0.694925">
        <ele>349.6</ele>
        <time>2019-12-31T14:40:53Z</time>
      </trkpt>
      <trkpt lat="38.336676" lon="-0.694877">
        <ele>349.6</ele>
        <time>2019-12-31T14:40:54Z</time>
      </trkpt>
      <trkpt lat="38.336708" lon="-0.694838">
        <ele>349.8</ele>
        <time>2019-12-31T14:40:55Z</time>
      </trkpt>
      <trkpt lat="38.336708" lon="-0.694838">
        <ele>350.2</ele>
        <time>2019-12-31T14:40:56Z</time>
      </trkpt>
      <trkpt lat="38.336773" lon="-0.694778">
        <ele>350.4</ele>
        <time>2019-12-31T14:40:57Z</time>
      </trkpt>
      <trkpt lat="38.336805" lon="-0.694759">
        <ele>350.6</ele>
        <time>2019-12-31T14:40:58Z</time>
      </trkpt>
      <trkpt lat="38.336805" lon="-0.694759">
        <ele>351</ele>
        <time>2019-12-31T14:40:59Z</time>
      </trkpt>
      <trkpt lat="38.336863" lon="-0.694726">
        <ele>351.2</ele>
        <time>2019-12-31T14:41:00Z</time>
      </trkpt>
      <trkpt lat="38.336863" lon="-0.694726">
        <ele>351.4</ele>
        <time>2019-12-31T14:41:01Z</time>
      </trkpt>
      <trkpt lat="38.336887" lon="-0.694709">
        <ele>351.6</ele>
        <time>2019-12-31T14:41:02Z</time>
      </trkpt>
      <trkpt lat="38.336907" lon="-0.694688">
        <ele>351.4</ele>
        <time>2019-12-31T14:41:03Z</time>
      </trkpt>
      <trkpt lat="38.336918" lon="-0.694665">
        <ele>351.4</ele>
        <time>2019-12-31T14:41:04Z</time>
      </trkpt>
      <trkpt lat="38.336927" lon="-0.694603">
        <ele>351.4</ele>
        <time>2019-12-31T14:41:05Z</time>
      </trkpt>
      <trkpt lat="38.336920" lon="-0.694570">
        <ele>351.6</ele>
        <time>2019-12-31T14:41:06Z</time>
      </trkpt>
      <trkpt lat="38.336920" lon="-0.694570">
        <ele>352</ele>
        <time>2019-12-31T14:41:07Z</time>
      </trkpt>
      <trkpt lat="38.336899" lon="-0.694512">
        <ele>352.2</ele>
        <time>2019-12-31T14:41:08Z</time>
      </trkpt>
      <trkpt lat="38.336883" lon="-0.694486">
        <ele>352.6</ele>
        <time>2019-12-31T14:41:09Z</time>
      </trkpt>
      <trkpt lat="38.336883" lon="-0.694486">
        <ele>352.8</ele>
        <time>2019-12-31T14:41:10Z</time>
      </trkpt>
      <trkpt lat="38.336870" lon="-0.694461">
        <ele>353</ele>
        <time>2019-12-31T14:41:11Z</time>
      </trkpt>
      <trkpt lat="38.336849" lon="-0.694405">
        <ele>353.2</ele>
        <time>2019-12-31T14:41:12Z</time>
      </trkpt>
      <trkpt lat="38.336849" lon="-0.694405">
        <ele>353.4</ele>
        <time>2019-12-31T14:41:13Z</time>
      </trkpt>
      <trkpt lat="38.336833" lon="-0.694381">
        <ele>353.6</ele>
        <time>2019-12-31T14:41:14Z</time>
      </trkpt>
      <trkpt lat="38.336792" lon="-0.694338">
        <ele>354</ele>
        <time>2019-12-31T14:41:15Z</time>
      </trkpt>
      <trkpt lat="38.336770" lon="-0.694317">
        <ele>354.2</ele>
        <time>2019-12-31T14:41:16Z</time>
      </trkpt>
      <trkpt lat="38.336770" lon="-0.694317">
        <ele>354.4</ele>
        <time>2019-12-31T14:41:17Z</time>
      </trkpt>
      <trkpt lat="38.336750" lon="-0.694295">
        <ele>354.8</ele>
        <time>2019-12-31T14:41:18Z</time>
      </trkpt>
      <trkpt lat="38.336705" lon="-0.694253">
        <ele>355.2</ele>
        <time>2019-12-31T14:41:19Z</time>
      </trkpt>
      <trkpt lat="38.336680" lon="-0.694235">
        <ele>355.4</ele>
        <time>2019-12-31T14:41:20Z</time>
      </trkpt>
      <trkpt lat="38.336653" lon="-0.694220">
        <ele>355.4</ele>
        <time>2019-12-31T14:41:21Z</time>
      </trkpt>
      <trkpt lat="38.336653" lon="-0.694220">
        <ele>355.8</ele>
        <time>2019-12-31T14:41:22Z</time>
      </trkpt>
      <trkpt lat="38.336627" lon="-0.694204">
        <ele>356</ele>
        <time>2019-12-31T14:41:23Z</time>
      </trkpt>
      <trkpt lat="38.336576" lon="-0.694169">
        <ele>356.4</ele>
        <time>2019-12-31T14:41:24Z</time>
      </trkpt>
      <trkpt lat="38.336576" lon="-0.694169">
        <ele>356.6</ele>
        <time>2019-12-31T14:41:25Z</time>
      </trkpt>
      <trkpt lat="38.336555" lon="-0.694153">
        <ele>356.8</ele>
        <time>2019-12-31T14:41:26Z</time>
      </trkpt>
      <trkpt lat="38.336532" lon="-0.694139">
        <ele>357.2</ele>
        <time>2019-12-31T14:41:27Z</time>
      </trkpt>
      <trkpt lat="38.336488" lon="-0.694113">
        <ele>357.6</ele>
        <time>2019-12-31T14:41:28Z</time>
      </trkpt>
      <trkpt lat="38.336488" lon="-0.694113">
        <ele>357.6</ele>
        <time>2019-12-31T14:41:29Z</time>
      </trkpt>
      <trkpt lat="38.336466" lon="-0.694098">
        <ele>357.6</ele>
        <time>2019-12-31T14:41:30Z</time>
      </trkpt>
      <trkpt lat="38.336423" lon="-0.694063">
        <ele>357.8</ele>
        <time>2019-12-31T14:41:31Z</time>
      </trkpt>
      <trkpt lat="38.336423" lon="-0.694063">
        <ele>358</ele>
        <time>2019-12-31T14:41:32Z</time>
      </trkpt>
      <trkpt lat="38.336399" lon="-0.694043">
        <ele>358</ele>
        <time>2019-12-31T14:41:33Z</time>
      </trkpt>
      <trkpt lat="38.336347" lon="-0.693999">
        <ele>358.2</ele>
        <time>2019-12-31T14:41:34Z</time>
      </trkpt>
      <trkpt lat="38.336347" lon="-0.693999">
        <ele>358</ele>
        <time>2019-12-31T14:41:37Z</time>
      </trkpt>
      <trkpt lat="38.336222" lon="-0.693910">
        <ele>358</ele>
        <time>2019-12-31T14:41:38Z</time>
      </trkpt>
      <trkpt lat="38.336222" lon="-0.693910">
        <ele>357.8</ele>
        <time>2019-12-31T14:41:39Z</time>
      </trkpt>
      <trkpt lat="38.336145" lon="-0.693863">
        <ele>357.8</ele>
        <time>2019-12-31T14:41:40Z</time>
      </trkpt>
      <trkpt lat="38.336104" lon="-0.693840">
        <ele>357.6</ele>
        <time>2019-12-31T14:41:41Z</time>
      </trkpt>
      <trkpt lat="38.336104" lon="-0.693840">
        <ele>357.6</ele>
        <time>2019-12-31T14:41:42Z</time>
      </trkpt>
      <trkpt lat="38.336061" lon="-0.693817">
        <ele>357.6</ele>
        <time>2019-12-31T14:41:43Z</time>
      </trkpt>
      <trkpt lat="38.336018" lon="-0.693794">
        <ele>357.6</ele>
        <time>2019-12-31T14:41:44Z</time>
      </trkpt>
      <trkpt lat="38.335974" lon="-0.693771">
        <ele>357.6</ele>
        <time>2019-12-31T14:41:45Z</time>
      </trkpt>
      <trkpt lat="38.335929" lon="-0.693752">
        <ele>357.4</ele>
        <time>2019-12-31T14:41:46Z</time>
      </trkpt>
      <trkpt lat="38.335833" lon="-0.693711">
        <ele>357.4</ele>
        <time>2019-12-31T14:41:47Z</time>
      </trkpt>
      <trkpt lat="38.335833" lon="-0.693711">
        <ele>357.2</ele>
        <time>2019-12-31T14:41:48Z</time>
      </trkpt>
      <trkpt lat="38.335783" lon="-0.693695">
        <ele>357.4</ele>
        <time>2019-12-31T14:41:49Z</time>
      </trkpt>
      <trkpt lat="38.335735" lon="-0.693680">
        <ele>357.4</ele>
        <time>2019-12-31T14:41:50Z</time>
      </trkpt>
      <trkpt lat="38.335684" lon="-0.693662">
        <ele>357.4</ele>
        <time>2019-12-31T14:41:51Z</time>
      </trkpt>
      <trkpt lat="38.335632" lon="-0.693654">
        <ele>357.4</ele>
        <time>2019-12-31T14:41:52Z</time>
      </trkpt>
      <trkpt lat="38.335582" lon="-0.693654">
        <ele>357.2</ele>
        <time>2019-12-31T14:41:53Z</time>
      </trkpt>
      <trkpt lat="38.335531" lon="-0.693662">
        <ele>357</ele>
        <time>2019-12-31T14:41:54Z</time>
      </trkpt>
      <trkpt lat="38.335482" lon="-0.693667">
        <ele>357.2</ele>
        <time>2019-12-31T14:41:55Z</time>
      </trkpt>
      <trkpt lat="38.335433" lon="-0.693672">
        <ele>357.4</ele>
        <time>2019-12-31T14:41:56Z</time>
      </trkpt>
      <trkpt lat="38.335380" lon="-0.693682">
        <ele>357.4</ele>
        <time>2019-12-31T14:41:57Z</time>
      </trkpt>
      <trkpt lat="38.335328" lon="-0.693694">
        <ele>357.4</ele>
        <time>2019-12-31T14:41:58Z</time>
      </trkpt>
      <trkpt lat="38.335222" lon="-0.693714">
        <ele>357.2</ele>
        <time>2019-12-31T14:41:59Z</time>
      </trkpt>
      <trkpt lat="38.335222" lon="-0.693714">
        <ele>357.2</ele>
        <time>2019-12-31T14:42:00Z</time>
      </trkpt>
      <trkpt lat="38.335110" lon="-0.693714">
        <ele>357.2</ele>
        <time>2019-12-31T14:42:01Z</time>
      </trkpt>
      <trkpt lat="38.335110" lon="-0.693714">
        <ele>357.2</ele>
        <time>2019-12-31T14:42:02Z</time>
      </trkpt>
      <trkpt lat="38.334998" lon="-0.693705">
        <ele>357</ele>
        <time>2019-12-31T14:42:03Z</time>
      </trkpt>
      <trkpt lat="38.334940" lon="-0.693695">
        <ele>357</ele>
        <time>2019-12-31T14:42:04Z</time>
      </trkpt>
      <trkpt lat="38.334940" lon="-0.693695">
        <ele>356.6</ele>
        <time>2019-12-31T14:42:05Z</time>
      </trkpt>
      <trkpt lat="38.334883" lon="-0.693677">
        <ele>356.6</ele>
        <time>2019-12-31T14:42:06Z</time>
      </trkpt>
      <trkpt lat="38.334824" lon="-0.693667">
        <ele>356.4</ele>
        <time>2019-12-31T14:42:07Z</time>
      </trkpt>
      <trkpt lat="38.334766" lon="-0.693661">
        <ele>356.2</ele>
        <time>2019-12-31T14:42:08Z</time>
      </trkpt>
      <trkpt lat="38.334648" lon="-0.693665">
        <ele>356</ele>
        <time>2019-12-31T14:42:09Z</time>
      </trkpt>
      <trkpt lat="38.334588" lon="-0.693671">
        <ele>355.8</ele>
        <time>2019-12-31T14:42:10Z</time>
      </trkpt>
      <trkpt lat="38.334588" lon="-0.693671">
        <ele>355.6</ele>
        <time>2019-12-31T14:42:11Z</time>
      </trkpt>
      <trkpt lat="38.334462" lon="-0.693676">
        <ele>355.4</ele>
        <time>2019-12-31T14:42:12Z</time>
      </trkpt>
      <trkpt lat="38.334398" lon="-0.693683">
        <ele>355.2</ele>
        <time>2019-12-31T14:42:13Z</time>
      </trkpt>
      <trkpt lat="38.334398" lon="-0.693683">
        <ele>354.6</ele>
        <time>2019-12-31T14:42:14Z</time>
      </trkpt>
      <trkpt lat="38.334334" lon="-0.693691">
        <ele>354.6</ele>
        <time>2019-12-31T14:42:15Z</time>
      </trkpt>
      <trkpt lat="38.334200" lon="-0.693698">
        <ele>354.4</ele>
        <time>2019-12-31T14:42:16Z</time>
      </trkpt>
      <trkpt lat="38.334128" lon="-0.693700">
        <ele>353.8</ele>
        <time>2019-12-31T14:42:17Z</time>
      </trkpt>
      <trkpt lat="38.334128" lon="-0.693700">
        <ele>353.6</ele>
        <time>2019-12-31T14:42:18Z</time>
      </trkpt>
      <trkpt lat="38.334056" lon="-0.693700">
        <ele>353.4</ele>
        <time>2019-12-31T14:42:19Z</time>
      </trkpt>
      <trkpt lat="38.333983" lon="-0.693699">
        <ele>353</ele>
        <time>2019-12-31T14:42:20Z</time>
      </trkpt>
      <trkpt lat="38.333910" lon="-0.693695">
        <ele>352.2</ele>
        <time>2019-12-31T14:42:21Z</time>
      </trkpt>
      <trkpt lat="38.333833" lon="-0.693688">
        <ele>351.6</ele>
        <time>2019-12-31T14:42:22Z</time>
      </trkpt>
      <trkpt lat="38.333753" lon="-0.693675">
        <ele>351</ele>
        <time>2019-12-31T14:42:23Z</time>
      </trkpt>
      <trkpt lat="38.333584" lon="-0.693626">
        <ele>349.6</ele>
        <time>2019-12-31T14:42:24Z</time>
      </trkpt>
      <trkpt lat="38.333584" lon="-0.693626">
        <ele>348.4</ele>
        <time>2019-12-31T14:42:25Z</time>
      </trkpt>
      <trkpt lat="38.333492" lon="-0.693606">
        <ele>347.4</ele>
        <time>2019-12-31T14:42:26Z</time>
      </trkpt>
      <trkpt lat="38.333401" lon="-0.693581">
        <ele>346.4</ele>
        <time>2019-12-31T14:42:27Z</time>
      </trkpt>
      <trkpt lat="38.333309" lon="-0.693566">
        <ele>346.2</ele>
        <time>2019-12-31T14:42:28Z</time>
      </trkpt>
      <trkpt lat="38.333220" lon="-0.693569">
        <ele>345.8</ele>
        <time>2019-12-31T14:42:29Z</time>
      </trkpt>
      <trkpt lat="38.333131" lon="-0.693582">
        <ele>345.8</ele>
        <time>2019-12-31T14:42:30Z</time>
      </trkpt>
      <trkpt lat="38.332952" lon="-0.693595">
        <ele>345.2</ele>
        <time>2019-12-31T14:42:31Z</time>
      </trkpt>
      <trkpt lat="38.332952" lon="-0.693595">
        <ele>344.8</ele>
        <time>2019-12-31T14:42:32Z</time>
      </trkpt>
      <trkpt lat="38.332861" lon="-0.693604">
        <ele>343.6</ele>
        <time>2019-12-31T14:42:33Z</time>
      </trkpt>
      <trkpt lat="38.332772" lon="-0.693611">
        <ele>343.2</ele>
        <time>2019-12-31T14:42:34Z</time>
      </trkpt>
      <trkpt lat="38.332588" lon="-0.693579">
        <ele>342.6</ele>
        <time>2019-12-31T14:42:35Z</time>
      </trkpt>
      <trkpt lat="38.332588" lon="-0.693579">
        <ele>341.4</ele>
        <time>2019-12-31T14:42:36Z</time>
      </trkpt>
      <trkpt lat="38.332492" lon="-0.693557">
        <ele>339.4</ele>
        <time>2019-12-31T14:42:37Z</time>
      </trkpt>
      <trkpt lat="38.332392" lon="-0.693534">
        <ele>338.6</ele>
        <time>2019-12-31T14:42:38Z</time>
      </trkpt>
      <trkpt lat="38.332288" lon="-0.693505">
        <ele>337.4</ele>
        <time>2019-12-31T14:42:39Z</time>
      </trkpt>
      <trkpt lat="38.332182" lon="-0.693479">
        <ele>336.4</ele>
        <time>2019-12-31T14:42:40Z</time>
      </trkpt>
      <trkpt lat="38.332081" lon="-0.693461">
        <ele>336</ele>
        <time>2019-12-31T14:42:41Z</time>
      </trkpt>
      <trkpt lat="38.332001" lon="-0.693442">
        <ele>335.2</ele>
        <time>2019-12-31T14:42:42Z</time>
      </trkpt>
      <trkpt lat="38.331930" lon="-0.693408">
        <ele>333.8</ele>
        <time>2019-12-31T14:42:43Z</time>
      </trkpt>
      <trkpt lat="38.331872" lon="-0.693375">
        <ele>333.4</ele>
        <time>2019-12-31T14:42:44Z</time>
      </trkpt>
      <trkpt lat="38.331798" lon="-0.693277">
        <ele>333</ele>
        <time>2019-12-31T14:42:45Z</time>
      </trkpt>
      <trkpt lat="38.331798" lon="-0.693277">
        <ele>333</ele>
        <time>2019-12-31T14:42:46Z</time>
      </trkpt>
      <trkpt lat="38.331789" lon="-0.693211">
        <ele>333</ele>
        <time>2019-12-31T14:42:47Z</time>
      </trkpt>
      <trkpt lat="38.331788" lon="-0.693070">
        <ele>333</ele>
        <time>2019-12-31T14:42:48Z</time>
      </trkpt>
      <trkpt lat="38.331788" lon="-0.693070">
        <ele>333</ele>
        <time>2019-12-31T14:42:49Z</time>
      </trkpt>
      <trkpt lat="38.331788" lon="-0.692997">
        <ele>333</ele>
        <time>2019-12-31T14:42:50Z</time>
      </trkpt>
      <trkpt lat="38.331784" lon="-0.692850">
        <ele>333</ele>
        <time>2019-12-31T14:42:51Z</time>
      </trkpt>
      <trkpt lat="38.331784" lon="-0.692850">
        <ele>332.8</ele>
        <time>2019-12-31T14:42:52Z</time>
      </trkpt>
      <trkpt lat="38.331799" lon="-0.692796">
        <ele>333</ele>
        <time>2019-12-31T14:42:53Z</time>
      </trkpt>
      <trkpt lat="38.331825" lon="-0.692740">
        <ele>333</ele>
        <time>2019-12-31T14:42:54Z</time>
      </trkpt>
      <trkpt lat="38.331825" lon="-0.692740">
        <ele>332.8</ele>
        <time>2019-12-31T14:42:55Z</time>
      </trkpt>
      <trkpt lat="38.331824" lon="-0.692728">
        <ele>333</ele>
        <time>2019-12-31T14:42:56Z</time>
      </trkpt>
      <trkpt lat="38.331821" lon="-0.692711">
        <ele>333</ele>
        <time>2019-12-31T14:42:57Z</time>
      </trkpt>
      <trkpt lat="38.331815" lon="-0.692689">
        <ele>332.8</ele>
        <time>2019-12-31T14:42:58Z</time>
      </trkpt>
      <trkpt lat="38.331815" lon="-0.692689">
        <ele>332.8</ele>
        <time>2019-12-31T14:42:59Z</time>
      </trkpt>
      <trkpt lat="38.331807" lon="-0.692625">
        <ele>332.6</ele>
        <time>2019-12-31T14:43:00Z</time>
      </trkpt>
      <trkpt lat="38.331799" lon="-0.692588">
        <ele>332.6</ele>
        <time>2019-12-31T14:43:01Z</time>
      </trkpt>
      <trkpt lat="38.331790" lon="-0.692551">
        <ele>332.6</ele>
        <time>2019-12-31T14:43:02Z</time>
      </trkpt>
      <trkpt lat="38.331784" lon="-0.692510">
        <ele>332.6</ele>
        <time>2019-12-31T14:43:03Z</time>
      </trkpt>
      <trkpt lat="38.331781" lon="-0.692464">
        <ele>332.8</ele>
        <time>2019-12-31T14:43:04Z</time>
      </trkpt>
      <trkpt lat="38.331780" lon="-0.692415">
        <ele>332.6</ele>
        <time>2019-12-31T14:43:05Z</time>
      </trkpt>
      <trkpt lat="38.331781" lon="-0.692361">
        <ele>332.6</ele>
        <time>2019-12-31T14:43:06Z</time>
      </trkpt>
      <trkpt lat="38.331783" lon="-0.692304">
        <ele>332.4</ele>
        <time>2019-12-31T14:43:07Z</time>
      </trkpt>
      <trkpt lat="38.331784" lon="-0.692243">
        <ele>332.4</ele>
        <time>2019-12-31T14:43:08Z</time>
      </trkpt>
      <trkpt lat="38.331785" lon="-0.692181">
        <ele>332.2</ele>
        <time>2019-12-31T14:43:09Z</time>
      </trkpt>
      <trkpt lat="38.331783" lon="-0.692117">
        <ele>331.8</ele>
        <time>2019-12-31T14:43:10Z</time>
      </trkpt>
      <trkpt lat="38.331783" lon="-0.692052">
        <ele>331.8</ele>
        <time>2019-12-31T14:43:11Z</time>
      </trkpt>
      <trkpt lat="38.331784" lon="-0.691986">
        <ele>331.8</ele>
        <time>2019-12-31T14:43:12Z</time>
      </trkpt>
      <trkpt lat="38.331786" lon="-0.691921">
        <ele>331.8</ele>
        <time>2019-12-31T14:43:13Z</time>
      </trkpt>
      <trkpt lat="38.331789" lon="-0.691857">
        <ele>331.8</ele>
        <time>2019-12-31T14:43:14Z</time>
      </trkpt>
      <trkpt lat="38.331789" lon="-0.691794">
        <ele>331.6</ele>
        <time>2019-12-31T14:43:15Z</time>
      </trkpt>
      <trkpt lat="38.331786" lon="-0.691731">
        <ele>331.4</ele>
        <time>2019-12-31T14:43:16Z</time>
      </trkpt>
      <trkpt lat="38.331781" lon="-0.691670">
        <ele>331.2</ele>
        <time>2019-12-31T14:43:17Z</time>
      </trkpt>
      <trkpt lat="38.331776" lon="-0.691610">
        <ele>331.4</ele>
        <time>2019-12-31T14:43:18Z</time>
      </trkpt>
      <trkpt lat="38.331770" lon="-0.691551">
        <ele>331.2</ele>
        <time>2019-12-31T14:43:19Z</time>
      </trkpt>
      <trkpt lat="38.331765" lon="-0.691492">
        <ele>331.2</ele>
        <time>2019-12-31T14:43:20Z</time>
      </trkpt>
      <trkpt lat="38.331761" lon="-0.691434">
        <ele>331.2</ele>
        <time>2019-12-31T14:43:21Z</time>
      </trkpt>
      <trkpt lat="38.331758" lon="-0.691377">
        <ele>331</ele>
        <time>2019-12-31T14:43:22Z</time>
      </trkpt>
      <trkpt lat="38.331758" lon="-0.691320">
        <ele>331</ele>
        <time>2019-12-31T14:43:23Z</time>
      </trkpt>
      <trkpt lat="38.331756" lon="-0.691262">
        <ele>331</ele>
        <time>2019-12-31T14:43:24Z</time>
      </trkpt>
      <trkpt lat="38.331756" lon="-0.691203">
        <ele>331</ele>
        <time>2019-12-31T14:43:25Z</time>
      </trkpt>
      <trkpt lat="38.331756" lon="-0.691143">
        <ele>331</ele>
        <time>2019-12-31T14:43:26Z</time>
      </trkpt>
      <trkpt lat="38.331756" lon="-0.691082">
        <ele>330.8</ele>
        <time>2019-12-31T14:43:27Z</time>
      </trkpt>
      <trkpt lat="38.331758" lon="-0.691019">
        <ele>330.8</ele>
        <time>2019-12-31T14:43:28Z</time>
      </trkpt>
      <trkpt lat="38.331759" lon="-0.690956">
        <ele>330.6</ele>
        <time>2019-12-31T14:43:29Z</time>
      </trkpt>
      <trkpt lat="38.331762" lon="-0.690893">
        <ele>330.4</ele>
        <time>2019-12-31T14:43:30Z</time>
      </trkpt>
      <trkpt lat="38.331763" lon="-0.690828">
        <ele>330.4</ele>
        <time>2019-12-31T14:43:31Z</time>
      </trkpt>
      <trkpt lat="38.331763" lon="-0.690764">
        <ele>330.2</ele>
        <time>2019-12-31T14:43:32Z</time>
      </trkpt>
      <trkpt lat="38.331762" lon="-0.690701">
        <ele>330.4</ele>
        <time>2019-12-31T14:43:33Z</time>
      </trkpt>
      <trkpt lat="38.331757" lon="-0.690637">
        <ele>330.2</ele>
        <time>2019-12-31T14:43:34Z</time>
      </trkpt>
      <trkpt lat="38.331750" lon="-0.690573">
        <ele>330</ele>
        <time>2019-12-31T14:43:35Z</time>
      </trkpt>
      <trkpt lat="38.331739" lon="-0.690508">
        <ele>329.8</ele>
        <time>2019-12-31T14:43:36Z</time>
      </trkpt>
      <trkpt lat="38.331725" lon="-0.690442">
        <ele>329.6</ele>
        <time>2019-12-31T14:43:37Z</time>
      </trkpt>
      <trkpt lat="38.331710" lon="-0.690374">
        <ele>329.4</ele>
        <time>2019-12-31T14:43:38Z</time>
      </trkpt>
      <trkpt lat="38.331692" lon="-0.690301">
        <ele>329</ele>
        <time>2019-12-31T14:43:39Z</time>
      </trkpt>
      <trkpt lat="38.331660" lon="-0.690230">
        <ele>328.4</ele>
        <time>2019-12-31T14:43:40Z</time>
      </trkpt>
      <trkpt lat="38.331617" lon="-0.690161">
        <ele>328</ele>
        <time>2019-12-31T14:43:41Z</time>
      </trkpt>
      <trkpt lat="38.331565" lon="-0.690093">
        <ele>327.4</ele>
        <time>2019-12-31T14:43:42Z</time>
      </trkpt>
      <trkpt lat="38.331514" lon="-0.690026">
        <ele>326.6</ele>
        <time>2019-12-31T14:43:43Z</time>
      </trkpt>
      <trkpt lat="38.331472" lon="-0.689972">
        <ele>325.8</ele>
        <time>2019-12-31T14:43:44Z</time>
      </trkpt>
      <trkpt lat="38.331444" lon="-0.689927">
        <ele>325.6</ele>
        <time>2019-12-31T14:43:45Z</time>
      </trkpt>
      <trkpt lat="38.331430" lon="-0.689886">
        <ele>325</ele>
        <time>2019-12-31T14:43:46Z</time>
      </trkpt>
      <trkpt lat="38.331424" lon="-0.689846">
        <ele>324.8</ele>
        <time>2019-12-31T14:43:47Z</time>
      </trkpt>
      <trkpt lat="38.331418" lon="-0.689802">
        <ele>324.8</ele>
        <time>2019-12-31T14:43:48Z</time>
      </trkpt>
      <trkpt lat="38.331412" lon="-0.689751">
        <ele>324.4</ele>
        <time>2019-12-31T14:43:49Z</time>
      </trkpt>
      <trkpt lat="38.331404" lon="-0.689689">
        <ele>324</ele>
        <time>2019-12-31T14:43:50Z</time>
      </trkpt>
      <trkpt lat="38.331397" lon="-0.689621">
        <ele>323.4</ele>
        <time>2019-12-31T14:43:51Z</time>
      </trkpt>
      <trkpt lat="38.331391" lon="-0.689553">
        <ele>323.2</ele>
        <time>2019-12-31T14:43:52Z</time>
      </trkpt>
      <trkpt lat="38.331383" lon="-0.689487">
        <ele>323.2</ele>
        <time>2019-12-31T14:43:53Z</time>
      </trkpt>
      <trkpt lat="38.331373" lon="-0.689423">
        <ele>323.2</ele>
        <time>2019-12-31T14:43:54Z</time>
      </trkpt>
      <trkpt lat="38.331368" lon="-0.689359">
        <ele>323</ele>
        <time>2019-12-31T14:43:55Z</time>
      </trkpt>
      <trkpt lat="38.331362" lon="-0.689296">
        <ele>322.8</ele>
        <time>2019-12-31T14:43:56Z</time>
      </trkpt>
      <trkpt lat="38.331356" lon="-0.689238">
        <ele>323</ele>
        <time>2019-12-31T14:43:57Z</time>
      </trkpt>
      <trkpt lat="38.331354" lon="-0.689187">
        <ele>323.2</ele>
        <time>2019-12-31T14:43:58Z</time>
      </trkpt>
      <trkpt lat="38.331353" lon="-0.689146">
        <ele>323.6</ele>
        <time>2019-12-31T14:43:59Z</time>
      </trkpt>
      <trkpt lat="38.331351" lon="-0.689105">
        <ele>323.6</ele>
        <time>2019-12-31T14:44:00Z</time>
      </trkpt>
      <trkpt lat="38.331348" lon="-0.689054">
        <ele>323.2</ele>
        <time>2019-12-31T14:44:01Z</time>
      </trkpt>
      <trkpt lat="38.331348" lon="-0.688997">
        <ele>322.6</ele>
        <time>2019-12-31T14:44:02Z</time>
      </trkpt>
      <trkpt lat="38.331339" lon="-0.688947">
        <ele>322.6</ele>
        <time>2019-12-31T14:44:03Z</time>
      </trkpt>
      <trkpt lat="38.331321" lon="-0.688906">
        <ele>322.4</ele>
        <time>2019-12-31T14:44:04Z</time>
      </trkpt>
      <trkpt lat="38.331296" lon="-0.688881">
        <ele>322.6</ele>
        <time>2019-12-31T14:44:05Z</time>
      </trkpt>
      <trkpt lat="38.331270" lon="-0.688864">
        <ele>322.2</ele>
        <time>2019-12-31T14:44:06Z</time>
      </trkpt>
      <trkpt lat="38.331240" lon="-0.688859">
        <ele>321.6</ele>
        <time>2019-12-31T14:44:07Z</time>
      </trkpt>
      <trkpt lat="38.331205" lon="-0.688858">
        <ele>321.2</ele>
        <time>2019-12-31T14:44:08Z</time>
      </trkpt>
      <trkpt lat="38.331167" lon="-0.688863">
        <ele>320.4</ele>
        <time>2019-12-31T14:44:09Z</time>
      </trkpt>
      <trkpt lat="38.331130" lon="-0.688871">
        <ele>319.8</ele>
        <time>2019-12-31T14:44:10Z</time>
      </trkpt>
      <trkpt lat="38.331100" lon="-0.688874">
        <ele>319</ele>
        <time>2019-12-31T14:44:11Z</time>
      </trkpt>
      <trkpt lat="38.331073" lon="-0.688881">
        <ele>318.6</ele>
        <time>2019-12-31T14:44:12Z</time>
      </trkpt>
      <trkpt lat="38.331040" lon="-0.688889">
        <ele>318.2</ele>
        <time>2019-12-31T14:44:13Z</time>
      </trkpt>
      <trkpt lat="38.331009" lon="-0.688886">
        <ele>317.2</ele>
        <time>2019-12-31T14:44:14Z</time>
      </trkpt>
      <trkpt lat="38.330984" lon="-0.688882">
        <ele>317.2</ele>
        <time>2019-12-31T14:44:15Z</time>
      </trkpt>
      <trkpt lat="38.330972" lon="-0.688868">
        <ele>317.2</ele>
        <time>2019-12-31T14:44:16Z</time>
      </trkpt>
      <trkpt lat="38.330970" lon="-0.688850">
        <ele>317</ele>
        <time>2019-12-31T14:44:17Z</time>
      </trkpt>
      <trkpt lat="38.330968" lon="-0.688828">
        <ele>317</ele>
        <time>2019-12-31T14:44:18Z</time>
      </trkpt>
      <trkpt lat="38.330968" lon="-0.688801">
        <ele>317</ele>
        <time>2019-12-31T14:44:19Z</time>
      </trkpt>
      <trkpt lat="38.330970" lon="-0.688769">
        <ele>317.2</ele>
        <time>2019-12-31T14:44:20Z</time>
      </trkpt>
      <trkpt lat="38.330969" lon="-0.688733">
        <ele>317</ele>
        <time>2019-12-31T14:44:21Z</time>
      </trkpt>
      <trkpt lat="38.330966" lon="-0.688690">
        <ele>317.2</ele>
        <time>2019-12-31T14:44:22Z</time>
      </trkpt>
      <trkpt lat="38.330964" lon="-0.688640">
        <ele>317</ele>
        <time>2019-12-31T14:44:23Z</time>
      </trkpt>
      <trkpt lat="38.330965" lon="-0.688585">
        <ele>317.2</ele>
        <time>2019-12-31T14:44:24Z</time>
      </trkpt>
      <trkpt lat="38.330968" lon="-0.688527">
        <ele>317</ele>
        <time>2019-12-31T14:44:25Z</time>
      </trkpt>
      <trkpt lat="38.330967" lon="-0.688462">
        <ele>316.8</ele>
        <time>2019-12-31T14:44:26Z</time>
      </trkpt>
      <trkpt lat="38.330962" lon="-0.688393">
        <ele>316</ele>
        <time>2019-12-31T14:44:27Z</time>
      </trkpt>
      <trkpt lat="38.330958" lon="-0.688316">
        <ele>315.2</ele>
        <time>2019-12-31T14:44:28Z</time>
      </trkpt>
      <trkpt lat="38.330955" lon="-0.688228">
        <ele>314.4</ele>
        <time>2019-12-31T14:44:29Z</time>
      </trkpt>
      <trkpt lat="38.330952" lon="-0.688138">
        <ele>313.8</ele>
        <time>2019-12-31T14:44:30Z</time>
      </trkpt>
      <trkpt lat="38.330945" lon="-0.688048">
        <ele>313</ele>
        <time>2019-12-31T14:44:31Z</time>
      </trkpt>
      <trkpt lat="38.330942" lon="-0.687963">
        <ele>313</ele>
        <time>2019-12-31T14:44:32Z</time>
      </trkpt>
      <trkpt lat="38.330942" lon="-0.687893">
        <ele>313</ele>
        <time>2019-12-31T14:44:33Z</time>
      </trkpt>
      <trkpt lat="38.330936" lon="-0.687836">
        <ele>313.8</ele>
        <time>2019-12-31T14:44:34Z</time>
      </trkpt>
      <trkpt lat="38.330931" lon="-0.687783">
        <ele>314.6</ele>
        <time>2019-12-31T14:44:35Z</time>
      </trkpt>
      <trkpt lat="38.330930" lon="-0.687727">
        <ele>315</ele>
        <time>2019-12-31T14:44:36Z</time>
      </trkpt>
      <trkpt lat="38.330925" lon="-0.687669">
        <ele>315</ele>
        <time>2019-12-31T14:44:37Z</time>
      </trkpt>
      <trkpt lat="38.330921" lon="-0.687606">
        <ele>315</ele>
        <time>2019-12-31T14:44:38Z</time>
      </trkpt>
      <trkpt lat="38.330921" lon="-0.687535">
        <ele>314.6</ele>
        <time>2019-12-31T14:44:39Z</time>
      </trkpt>
      <trkpt lat="38.330925" lon="-0.687461">
        <ele>314.2</ele>
        <time>2019-12-31T14:44:40Z</time>
      </trkpt>
      <trkpt lat="38.330935" lon="-0.687387">
        <ele>314</ele>
        <time>2019-12-31T14:44:41Z</time>
      </trkpt>
      <trkpt lat="38.330944" lon="-0.687321">
        <ele>313.4</ele>
        <time>2019-12-31T14:44:42Z</time>
      </trkpt>
      <trkpt lat="38.330946" lon="-0.687272">
        <ele>314</ele>
        <time>2019-12-31T14:44:43Z</time>
      </trkpt>
      <trkpt lat="38.330947" lon="-0.687238">
        <ele>314.8</ele>
        <time>2019-12-31T14:44:44Z</time>
      </trkpt>
      <trkpt lat="38.330948" lon="-0.687208">
        <ele>315.6</ele>
        <time>2019-12-31T14:44:45Z</time>
      </trkpt>
      <trkpt lat="38.330948" lon="-0.687185">
        <ele>316.2</ele>
        <time>2019-12-31T14:44:46Z</time>
      </trkpt>
      <trkpt lat="38.330946" lon="-0.687160">
        <ele>316.8</ele>
        <time>2019-12-31T14:44:47Z</time>
      </trkpt>
      <trkpt lat="38.330941" lon="-0.687136">
        <ele>317</ele>
        <time>2019-12-31T14:44:48Z</time>
      </trkpt>
      <trkpt lat="38.330937" lon="-0.687107">
        <ele>317</ele>
        <time>2019-12-31T14:44:49Z</time>
      </trkpt>
      <trkpt lat="38.330936" lon="-0.687077">
        <ele>317.4</ele>
        <time>2019-12-31T14:44:50Z</time>
      </trkpt>
      <trkpt lat="38.330936" lon="-0.687048">
        <ele>317.6</ele>
        <time>2019-12-31T14:44:51Z</time>
      </trkpt>
      <trkpt lat="38.330935" lon="-0.687017">
        <ele>318</ele>
        <time>2019-12-31T14:44:52Z</time>
      </trkpt>
      <trkpt lat="38.330933" lon="-0.686986">
        <ele>318.2</ele>
        <time>2019-12-31T14:44:53Z</time>
      </trkpt>
      <trkpt lat="38.330931" lon="-0.686954">
        <ele>318.6</ele>
        <time>2019-12-31T14:44:54Z</time>
      </trkpt>
      <trkpt lat="38.330930" lon="-0.686920">
        <ele>318.6</ele>
        <time>2019-12-31T14:44:55Z</time>
      </trkpt>
      <trkpt lat="38.330931" lon="-0.686884">
        <ele>318.6</ele>
        <time>2019-12-31T14:44:56Z</time>
      </trkpt>
      <trkpt lat="38.330931" lon="-0.686844">
        <ele>318.6</ele>
        <time>2019-12-31T14:44:57Z</time>
      </trkpt>
      <trkpt lat="38.330928" lon="-0.686803">
        <ele>318.6</ele>
        <time>2019-12-31T14:44:58Z</time>
      </trkpt>
      <trkpt lat="38.330928" lon="-0.686803">
        <ele>318.6</ele>
        <time>2019-12-31T14:44:59Z</time>
      </trkpt>
      <trkpt lat="38.330930" lon="-0.686719">
        <ele>318.6</ele>
        <time>2019-12-31T14:45:00Z</time>
      </trkpt>
      <trkpt lat="38.330929" lon="-0.686671">
        <ele>318.6</ele>
        <time>2019-12-31T14:45:01Z</time>
      </trkpt>
      <trkpt lat="38.330927" lon="-0.686612">
        <ele>318.2</ele>
        <time>2019-12-31T14:45:02Z</time>
      </trkpt>
      <trkpt lat="38.330925" lon="-0.686539">
        <ele>317.6</ele>
        <time>2019-12-31T14:45:03Z</time>
      </trkpt>
      <trkpt lat="38.330922" lon="-0.686449">
        <ele>316</ele>
        <time>2019-12-31T14:45:04Z</time>
      </trkpt>
      <trkpt lat="38.330919" lon="-0.686353">
        <ele>314.2</ele>
        <time>2019-12-31T14:45:05Z</time>
      </trkpt>
      <trkpt lat="38.330920" lon="-0.686265">
        <ele>313.2</ele>
        <time>2019-12-31T14:45:06Z</time>
      </trkpt>
      <trkpt lat="38.330915" lon="-0.686176">
        <ele>312.2</ele>
        <time>2019-12-31T14:45:07Z</time>
      </trkpt>
      <trkpt lat="38.330914" lon="-0.686098">
        <ele>312</ele>
        <time>2019-12-31T14:45:08Z</time>
      </trkpt>
      <trkpt lat="38.330910" lon="-0.686028">
        <ele>312.4</ele>
        <time>2019-12-31T14:45:09Z</time>
      </trkpt>
      <trkpt lat="38.330908" lon="-0.685956">
        <ele>312.6</ele>
        <time>2019-12-31T14:45:10Z</time>
      </trkpt>
      <trkpt lat="38.330906" lon="-0.685877">
        <ele>311.4</ele>
        <time>2019-12-31T14:45:11Z</time>
      </trkpt>
      <trkpt lat="38.330905" lon="-0.685802">
        <ele>310</ele>
        <time>2019-12-31T14:45:12Z</time>
      </trkpt>
      <trkpt lat="38.330899" lon="-0.685753">
        <ele>311.2</ele>
        <time>2019-12-31T14:45:13Z</time>
      </trkpt>
      <trkpt lat="38.330899" lon="-0.685722">
        <ele>312.4</ele>
        <time>2019-12-31T14:45:14Z</time>
      </trkpt>
      <trkpt lat="38.330905" lon="-0.685701">
        <ele>313.2</ele>
        <time>2019-12-31T14:45:15Z</time>
      </trkpt>
      <trkpt lat="38.330908" lon="-0.685677">
        <ele>313.8</ele>
        <time>2019-12-31T14:45:16Z</time>
      </trkpt>
      <trkpt lat="38.330908" lon="-0.685648">
        <ele>314</ele>
        <time>2019-12-31T14:45:17Z</time>
      </trkpt>
      <trkpt lat="38.330907" lon="-0.685610">
        <ele>314.2</ele>
        <time>2019-12-31T14:45:18Z</time>
      </trkpt>
      <trkpt lat="38.330907" lon="-0.685564">
        <ele>313.6</ele>
        <time>2019-12-31T14:45:19Z</time>
      </trkpt>
      <trkpt lat="38.330907" lon="-0.685514">
        <ele>313.6</ele>
        <time>2019-12-31T14:45:20Z</time>
      </trkpt>
      <trkpt lat="38.330911" lon="-0.685462">
        <ele>313.6</ele>
        <time>2019-12-31T14:45:21Z</time>
      </trkpt>
      <trkpt lat="38.330912" lon="-0.685416">
        <ele>313.4</ele>
        <time>2019-12-31T14:45:22Z</time>
      </trkpt>
      <trkpt lat="38.330910" lon="-0.685373">
        <ele>313.8</ele>
        <time>2019-12-31T14:45:23Z</time>
      </trkpt>
      <trkpt lat="38.330908" lon="-0.685329">
        <ele>314.4</ele>
        <time>2019-12-31T14:45:24Z</time>
      </trkpt>
      <trkpt lat="38.330908" lon="-0.685282">
        <ele>314.4</ele>
        <time>2019-12-31T14:45:25Z</time>
      </trkpt>
      <trkpt lat="38.330908" lon="-0.685233">
        <ele>314.2</ele>
        <time>2019-12-31T14:45:26Z</time>
      </trkpt>
      <trkpt lat="38.330906" lon="-0.685182">
        <ele>314.2</ele>
        <time>2019-12-31T14:45:27Z</time>
      </trkpt>
      <trkpt lat="38.330903" lon="-0.685131">
        <ele>314.4</ele>
        <time>2019-12-31T14:45:28Z</time>
      </trkpt>
      <trkpt lat="38.330903" lon="-0.685081">
        <ele>314.2</ele>
        <time>2019-12-31T14:45:29Z</time>
      </trkpt>
      <trkpt lat="38.330901" lon="-0.685039">
        <ele>314.6</ele>
        <time>2019-12-31T14:45:30Z</time>
      </trkpt>
      <trkpt lat="38.330901" lon="-0.684990">
        <ele>314.4</ele>
        <time>2019-12-31T14:45:31Z</time>
      </trkpt>
      <trkpt lat="38.330902" lon="-0.684935">
        <ele>314.4</ele>
        <time>2019-12-31T14:45:32Z</time>
      </trkpt>
      <trkpt lat="38.330903" lon="-0.684877">
        <ele>314</ele>
        <time>2019-12-31T14:45:33Z</time>
      </trkpt>
      <trkpt lat="38.330901" lon="-0.684815">
        <ele>313.8</ele>
        <time>2019-12-31T14:45:34Z</time>
      </trkpt>
      <trkpt lat="38.330899" lon="-0.684755">
        <ele>313.8</ele>
        <time>2019-12-31T14:45:35Z</time>
      </trkpt>
      <trkpt lat="38.330898" lon="-0.684697">
        <ele>313.8</ele>
        <time>2019-12-31T14:45:36Z</time>
      </trkpt>
      <trkpt lat="38.330896" lon="-0.684637">
        <ele>313.8</ele>
        <time>2019-12-31T14:45:37Z</time>
      </trkpt>
      <trkpt lat="38.330894" lon="-0.684576">
        <ele>313.8</ele>
        <time>2019-12-31T14:45:38Z</time>
      </trkpt>
      <trkpt lat="38.330892" lon="-0.684513">
        <ele>313.8</ele>
        <time>2019-12-31T14:45:39Z</time>
      </trkpt>
      <trkpt lat="38.330893" lon="-0.684451">
        <ele>313.8</ele>
        <time>2019-12-31T14:45:40Z</time>
      </trkpt>
      <trkpt lat="38.330889" lon="-0.684388">
        <ele>313.8</ele>
        <time>2019-12-31T14:45:41Z</time>
      </trkpt>
      <trkpt lat="38.330880" lon="-0.684326">
        <ele>314</ele>
        <time>2019-12-31T14:45:42Z</time>
      </trkpt>
      <trkpt lat="38.330869" lon="-0.684264">
        <ele>314.2</ele>
        <time>2019-12-31T14:45:43Z</time>
      </trkpt>
      <trkpt lat="38.330864" lon="-0.684204">
        <ele>314.4</ele>
        <time>2019-12-31T14:45:44Z</time>
      </trkpt>
      <trkpt lat="38.330869" lon="-0.684147">
        <ele>314.4</ele>
        <time>2019-12-31T14:45:45Z</time>
      </trkpt>
      <trkpt lat="38.330880" lon="-0.684096">
        <ele>314.6</ele>
        <time>2019-12-31T14:45:46Z</time>
      </trkpt>
      <trkpt lat="38.330890" lon="-0.684043">
        <ele>314.4</ele>
        <time>2019-12-31T14:45:47Z</time>
      </trkpt>
      <trkpt lat="38.330901" lon="-0.683983">
        <ele>314</ele>
        <time>2019-12-31T14:45:48Z</time>
      </trkpt>
      <trkpt lat="38.330921" lon="-0.683930">
        <ele>314.2</ele>
        <time>2019-12-31T14:45:49Z</time>
      </trkpt>
      <trkpt lat="38.330948" lon="-0.683897">
        <ele>314.2</ele>
        <time>2019-12-31T14:45:50Z</time>
      </trkpt>
      <trkpt lat="38.330980" lon="-0.683891">
        <ele>314.4</ele>
        <time>2019-12-31T14:45:51Z</time>
      </trkpt>
      <trkpt lat="38.331011" lon="-0.683890">
        <ele>315</ele>
        <time>2019-12-31T14:45:52Z</time>
      </trkpt>
      <trkpt lat="38.331040" lon="-0.683888">
        <ele>315.6</ele>
        <time>2019-12-31T14:45:53Z</time>
      </trkpt>
      <trkpt lat="38.331064" lon="-0.683885">
        <ele>316</ele>
        <time>2019-12-31T14:45:54Z</time>
      </trkpt>
      <trkpt lat="38.331093" lon="-0.683870">
        <ele>316</ele>
        <time>2019-12-31T14:45:55Z</time>
      </trkpt>
      <trkpt lat="38.331126" lon="-0.683841">
        <ele>315.6</ele>
        <time>2019-12-31T14:45:56Z</time>
      </trkpt>
      <trkpt lat="38.331152" lon="-0.683792">
        <ele>315.2</ele>
        <time>2019-12-31T14:45:57Z</time>
      </trkpt>
      <trkpt lat="38.331163" lon="-0.683727">
        <ele>315</ele>
        <time>2019-12-31T14:45:58Z</time>
      </trkpt>
      <trkpt lat="38.331163" lon="-0.683727">
        <ele>314.2</ele>
        <time>2019-12-31T14:45:59Z</time>
      </trkpt>
      <trkpt lat="38.331159" lon="-0.683563">
        <ele>313</ele>
        <time>2019-12-31T14:46:00Z</time>
      </trkpt>
      <trkpt lat="38.331155" lon="-0.683466">
        <ele>312</ele>
        <time>2019-12-31T14:46:01Z</time>
      </trkpt>
      <trkpt lat="38.331148" lon="-0.683354">
        <ele>310.8</ele>
        <time>2019-12-31T14:46:02Z</time>
      </trkpt>
      <trkpt lat="38.331138" lon="-0.683228">
        <ele>308.6</ele>
        <time>2019-12-31T14:46:03Z</time>
      </trkpt>
      <trkpt lat="38.331131" lon="-0.683093">
        <ele>307.2</ele>
        <time>2019-12-31T14:46:04Z</time>
      </trkpt>
      <trkpt lat="38.331119" lon="-0.682947">
        <ele>304.8</ele>
        <time>2019-12-31T14:46:05Z</time>
      </trkpt>
      <trkpt lat="38.331109" lon="-0.682803">
        <ele>303.4</ele>
        <time>2019-12-31T14:46:06Z</time>
      </trkpt>
      <trkpt lat="38.331098" lon="-0.682669">
        <ele>303</ele>
        <time>2019-12-31T14:46:07Z</time>
      </trkpt>
      <trkpt lat="38.331089" lon="-0.682552">
        <ele>303.8</ele>
        <time>2019-12-31T14:46:08Z</time>
      </trkpt>
      <trkpt lat="38.331080" lon="-0.682448">
        <ele>304.6</ele>
        <time>2019-12-31T14:46:09Z</time>
      </trkpt>
      <trkpt lat="38.331073" lon="-0.682348">
        <ele>305.4</ele>
        <time>2019-12-31T14:46:10Z</time>
      </trkpt>
      <trkpt lat="38.331069" lon="-0.682250">
        <ele>306</ele>
        <time>2019-12-31T14:46:11Z</time>
      </trkpt>
      <trkpt lat="38.331063" lon="-0.682156">
        <ele>305.8</ele>
        <time>2019-12-31T14:46:12Z</time>
      </trkpt>
      <trkpt lat="38.331053" lon="-0.682066">
        <ele>306.4</ele>
        <time>2019-12-31T14:46:13Z</time>
      </trkpt>
      <trkpt lat="38.331045" lon="-0.681981">
        <ele>306.8</ele>
        <time>2019-12-31T14:46:14Z</time>
      </trkpt>
      <trkpt lat="38.331038" lon="-0.681900">
        <ele>307</ele>
        <time>2019-12-31T14:46:15Z</time>
      </trkpt>
      <trkpt lat="38.331034" lon="-0.681820">
        <ele>307.2</ele>
        <time>2019-12-31T14:46:16Z</time>
      </trkpt>
      <trkpt lat="38.331029" lon="-0.681736">
        <ele>307.4</ele>
        <time>2019-12-31T14:46:17Z</time>
      </trkpt>
      <trkpt lat="38.331024" lon="-0.681653">
        <ele>307.4</ele>
        <time>2019-12-31T14:46:18Z</time>
      </trkpt>
      <trkpt lat="38.331023" lon="-0.681576">
        <ele>307.4</ele>
        <time>2019-12-31T14:46:19Z</time>
      </trkpt>
      <trkpt lat="38.331022" lon="-0.681503">
        <ele>307.8</ele>
        <time>2019-12-31T14:46:20Z</time>
      </trkpt>
      <trkpt lat="38.331017" lon="-0.681432">
        <ele>308.4</ele>
        <time>2019-12-31T14:46:21Z</time>
      </trkpt>
      <trkpt lat="38.331011" lon="-0.681360">
        <ele>308.6</ele>
        <time>2019-12-31T14:46:22Z</time>
      </trkpt>
      <trkpt lat="38.331010" lon="-0.681290">
        <ele>308.6</ele>
        <time>2019-12-31T14:46:23Z</time>
      </trkpt>
      <trkpt lat="38.331014" lon="-0.681225">
        <ele>309.2</ele>
        <time>2019-12-31T14:46:24Z</time>
      </trkpt>
      <trkpt lat="38.331014" lon="-0.681168">
        <ele>309.6</ele>
        <time>2019-12-31T14:46:25Z</time>
      </trkpt>
      <trkpt lat="38.331010" lon="-0.681108">
        <ele>310.2</ele>
        <time>2019-12-31T14:46:26Z</time>
      </trkpt>
      <trkpt lat="38.331004" lon="-0.681050">
        <ele>310.6</ele>
        <time>2019-12-31T14:46:27Z</time>
      </trkpt>
      <trkpt lat="38.331004" lon="-0.681050">
        <ele>310.8</ele>
        <time>2019-12-31T14:46:28Z</time>
      </trkpt>
      <trkpt lat="38.330985" lon="-0.680931">
        <ele>310.8</ele>
        <time>2019-12-31T14:46:29Z</time>
      </trkpt>
      <trkpt lat="38.330980" lon="-0.680871">
        <ele>310.8</ele>
        <time>2019-12-31T14:46:30Z</time>
      </trkpt>
      <trkpt lat="38.330971" lon="-0.680812">
        <ele>311</ele>
        <time>2019-12-31T14:46:31Z</time>
      </trkpt>
      <trkpt lat="38.330956" lon="-0.680759">
        <ele>311.4</ele>
        <time>2019-12-31T14:46:32Z</time>
      </trkpt>
      <trkpt lat="38.330941" lon="-0.680706">
        <ele>311.8</ele>
        <time>2019-12-31T14:46:33Z</time>
      </trkpt>
      <trkpt lat="38.330927" lon="-0.680647">
        <ele>312</ele>
        <time>2019-12-31T14:46:34Z</time>
      </trkpt>
      <trkpt lat="38.330912" lon="-0.680582">
        <ele>311.8</ele>
        <time>2019-12-31T14:46:35Z</time>
      </trkpt>
      <trkpt lat="38.330899" lon="-0.680514">
        <ele>311.6</ele>
        <time>2019-12-31T14:46:36Z</time>
      </trkpt>
      <trkpt lat="38.330889" lon="-0.680444">
        <ele>311.4</ele>
        <time>2019-12-31T14:46:37Z</time>
      </trkpt>
      <trkpt lat="38.330883" lon="-0.680371">
        <ele>311</ele>
        <time>2019-12-31T14:46:38Z</time>
      </trkpt>
      <trkpt lat="38.330877" lon="-0.680299">
        <ele>311.2</ele>
        <time>2019-12-31T14:46:39Z</time>
      </trkpt>
      <trkpt lat="38.330868" lon="-0.680226">
        <ele>311</ele>
        <time>2019-12-31T14:46:40Z</time>
      </trkpt>
      <trkpt lat="38.330862" lon="-0.680148">
        <ele>310.4</ele>
        <time>2019-12-31T14:46:41Z</time>
      </trkpt>
      <trkpt lat="38.330850" lon="-0.680066">
        <ele>309.8</ele>
        <time>2019-12-31T14:46:42Z</time>
      </trkpt>
      <trkpt lat="38.330840" lon="-0.679981">
        <ele>308.6</ele>
        <time>2019-12-31T14:46:43Z</time>
      </trkpt>
      <trkpt lat="38.330825" lon="-0.679889">
        <ele>307.2</ele>
        <time>2019-12-31T14:46:44Z</time>
      </trkpt>
      <trkpt lat="38.330810" lon="-0.679785">
        <ele>306</ele>
        <time>2019-12-31T14:46:45Z</time>
      </trkpt>
      <trkpt lat="38.330793" lon="-0.679676">
        <ele>304</ele>
        <time>2019-12-31T14:46:46Z</time>
      </trkpt>
      <trkpt lat="38.330780" lon="-0.679578">
        <ele>302.8</ele>
        <time>2019-12-31T14:46:47Z</time>
      </trkpt>
      <trkpt lat="38.330768" lon="-0.679491">
        <ele>301.6</ele>
        <time>2019-12-31T14:46:48Z</time>
      </trkpt>
      <trkpt lat="38.330755" lon="-0.679405">
        <ele>301.6</ele>
        <time>2019-12-31T14:46:49Z</time>
      </trkpt>
      <trkpt lat="38.330745" lon="-0.679308">
        <ele>300.8</ele>
        <time>2019-12-31T14:46:50Z</time>
      </trkpt>
      <trkpt lat="38.330739" lon="-0.679198">
        <ele>299.8</ele>
        <time>2019-12-31T14:46:51Z</time>
      </trkpt>
      <trkpt lat="38.330734" lon="-0.679084">
        <ele>297.6</ele>
        <time>2019-12-31T14:46:52Z</time>
      </trkpt>
      <trkpt lat="38.330728" lon="-0.678973">
        <ele>297.6</ele>
        <time>2019-12-31T14:46:53Z</time>
      </trkpt>
      <trkpt lat="38.330717" lon="-0.678873">
        <ele>297.6</ele>
        <time>2019-12-31T14:46:54Z</time>
      </trkpt>
      <trkpt lat="38.330707" lon="-0.678782">
        <ele>298.2</ele>
        <time>2019-12-31T14:46:55Z</time>
      </trkpt>
      <trkpt lat="38.330700" lon="-0.678703">
        <ele>298.8</ele>
        <time>2019-12-31T14:46:56Z</time>
      </trkpt>
      <trkpt lat="38.330697" lon="-0.678640">
        <ele>299.6</ele>
        <time>2019-12-31T14:46:57Z</time>
      </trkpt>
      <trkpt lat="38.330689" lon="-0.678580">
        <ele>300.2</ele>
        <time>2019-12-31T14:46:58Z</time>
      </trkpt>
      <trkpt lat="38.330689" lon="-0.678580">
        <ele>300.4</ele>
        <time>2019-12-31T14:46:59Z</time>
      </trkpt>
      <trkpt lat="38.330672" lon="-0.678464">
        <ele>300.6</ele>
        <time>2019-12-31T14:47:00Z</time>
      </trkpt>
      <trkpt lat="38.330667" lon="-0.678403">
        <ele>300.6</ele>
        <time>2019-12-31T14:47:01Z</time>
      </trkpt>
      <trkpt lat="38.330661" lon="-0.678340">
        <ele>300.6</ele>
        <time>2019-12-31T14:47:02Z</time>
      </trkpt>
      <trkpt lat="38.330653" lon="-0.678280">
        <ele>300.8</ele>
        <time>2019-12-31T14:47:03Z</time>
      </trkpt>
      <trkpt lat="38.330647" lon="-0.678224">
        <ele>300.8</ele>
        <time>2019-12-31T14:47:04Z</time>
      </trkpt>
      <trkpt lat="38.330642" lon="-0.678178">
        <ele>301.4</ele>
        <time>2019-12-31T14:47:05Z</time>
      </trkpt>
      <trkpt lat="38.330637" lon="-0.678141">
        <ele>301.8</ele>
        <time>2019-12-31T14:47:06Z</time>
      </trkpt>
      <trkpt lat="38.330635" lon="-0.678104">
        <ele>302.6</ele>
        <time>2019-12-31T14:47:07Z</time>
      </trkpt>
      <trkpt lat="38.330633" lon="-0.678070">
        <ele>303.2</ele>
        <time>2019-12-31T14:47:08Z</time>
      </trkpt>
      <trkpt lat="38.330626" lon="-0.678040">
        <ele>303.8</ele>
        <time>2019-12-31T14:47:09Z</time>
      </trkpt>
      <trkpt lat="38.330620" lon="-0.678009">
        <ele>304.2</ele>
        <time>2019-12-31T14:47:10Z</time>
      </trkpt>
      <trkpt lat="38.330615" lon="-0.677980">
        <ele>304.8</ele>
        <time>2019-12-31T14:47:11Z</time>
      </trkpt>
      <trkpt lat="38.330608" lon="-0.677957">
        <ele>305.4</ele>
        <time>2019-12-31T14:47:12Z</time>
      </trkpt>
      <trkpt lat="38.330605" lon="-0.677932">
        <ele>305.8</ele>
        <time>2019-12-31T14:47:13Z</time>
      </trkpt>
      <trkpt lat="38.330607" lon="-0.677903">
        <ele>306</ele>
        <time>2019-12-31T14:47:14Z</time>
      </trkpt>
      <trkpt lat="38.330605" lon="-0.677866">
        <ele>306</ele>
        <time>2019-12-31T14:47:15Z</time>
      </trkpt>
      <trkpt lat="38.330601" lon="-0.677826">
        <ele>306.4</ele>
        <time>2019-12-31T14:47:16Z</time>
      </trkpt>
      <trkpt lat="38.330600" lon="-0.677790">
        <ele>306.6</ele>
        <time>2019-12-31T14:47:17Z</time>
      </trkpt>
      <trkpt lat="38.330604" lon="-0.677759">
        <ele>306.8</ele>
        <time>2019-12-31T14:47:18Z</time>
      </trkpt>
      <trkpt lat="38.330610" lon="-0.677718">
        <ele>306.8</ele>
        <time>2019-12-31T14:47:19Z</time>
      </trkpt>
      <trkpt lat="38.330622" lon="-0.677675">
        <ele>306.4</ele>
        <time>2019-12-31T14:47:20Z</time>
      </trkpt>
      <trkpt lat="38.330643" lon="-0.677630">
        <ele>306.4</ele>
        <time>2019-12-31T14:47:21Z</time>
      </trkpt>
      <trkpt lat="38.330670" lon="-0.677581">
        <ele>306</ele>
        <time>2019-12-31T14:47:22Z</time>
      </trkpt>
      <trkpt lat="38.330702" lon="-0.677527">
        <ele>305.4</ele>
        <time>2019-12-31T14:47:23Z</time>
      </trkpt>
      <trkpt lat="38.330738" lon="-0.677468">
        <ele>305</ele>
        <time>2019-12-31T14:47:24Z</time>
      </trkpt>
      <trkpt lat="38.330776" lon="-0.677405">
        <ele>305</ele>
        <time>2019-12-31T14:47:25Z</time>
      </trkpt>
      <trkpt lat="38.330817" lon="-0.677341">
        <ele>304.4</ele>
        <time>2019-12-31T14:47:26Z</time>
      </trkpt>
      <trkpt lat="38.330860" lon="-0.677277">
        <ele>304.2</ele>
        <time>2019-12-31T14:47:27Z</time>
      </trkpt>
      <trkpt lat="38.330900" lon="-0.677207">
        <ele>303.6</ele>
        <time>2019-12-31T14:47:28Z</time>
      </trkpt>
      <trkpt lat="38.330941" lon="-0.677133">
        <ele>303.4</ele>
        <time>2019-12-31T14:47:29Z</time>
      </trkpt>
      <trkpt lat="38.330982" lon="-0.677058">
        <ele>303.4</ele>
        <time>2019-12-31T14:47:30Z</time>
      </trkpt>
      <trkpt lat="38.331026" lon="-0.676983">
        <ele>303.2</ele>
        <time>2019-12-31T14:47:31Z</time>
      </trkpt>
      <trkpt lat="38.331068" lon="-0.676906">
        <ele>302.8</ele>
        <time>2019-12-31T14:47:32Z</time>
      </trkpt>
      <trkpt lat="38.331114" lon="-0.676826">
        <ele>302.4</ele>
        <time>2019-12-31T14:47:33Z</time>
      </trkpt>
      <trkpt lat="38.331160" lon="-0.676749">
        <ele>302.4</ele>
        <time>2019-12-31T14:47:34Z</time>
      </trkpt>
      <trkpt lat="38.331210" lon="-0.676674">
        <ele>302.4</ele>
        <time>2019-12-31T14:47:35Z</time>
      </trkpt>
      <trkpt lat="38.331263" lon="-0.676597">
        <ele>302.2</ele>
        <time>2019-12-31T14:47:36Z</time>
      </trkpt>
      <trkpt lat="38.331319" lon="-0.676525">
        <ele>301.4</ele>
        <time>2019-12-31T14:47:37Z</time>
      </trkpt>
      <trkpt lat="38.331370" lon="-0.676446">
        <ele>301.2</ele>
        <time>2019-12-31T14:47:38Z</time>
      </trkpt>
      <trkpt lat="38.331413" lon="-0.676366">
        <ele>301.2</ele>
        <time>2019-12-31T14:47:39Z</time>
      </trkpt>
      <trkpt lat="38.331457" lon="-0.676286">
        <ele>301.4</ele>
        <time>2019-12-31T14:47:40Z</time>
      </trkpt>
      <trkpt lat="38.331501" lon="-0.676205">
        <ele>301.4</ele>
        <time>2019-12-31T14:47:41Z</time>
      </trkpt>
      <trkpt lat="38.331545" lon="-0.676126">
        <ele>301.6</ele>
        <time>2019-12-31T14:47:42Z</time>
      </trkpt>
      <trkpt lat="38.331590" lon="-0.676046">
        <ele>301.8</ele>
        <time>2019-12-31T14:47:43Z</time>
      </trkpt>
      <trkpt lat="38.331636" lon="-0.675968">
        <ele>301.8</ele>
        <time>2019-12-31T14:47:44Z</time>
      </trkpt>
      <trkpt lat="38.331683" lon="-0.675890">
        <ele>301.8</ele>
        <time>2019-12-31T14:47:45Z</time>
      </trkpt>
      <trkpt lat="38.331729" lon="-0.675814">
        <ele>301.8</ele>
        <time>2019-12-31T14:47:46Z</time>
      </trkpt>
      <trkpt lat="38.331773" lon="-0.675739">
        <ele>301.8</ele>
        <time>2019-12-31T14:47:47Z</time>
      </trkpt>
      <trkpt lat="38.331817" lon="-0.675666">
        <ele>302.4</ele>
        <time>2019-12-31T14:47:48Z</time>
      </trkpt>
      <trkpt lat="38.331862" lon="-0.675603">
        <ele>303</ele>
        <time>2019-12-31T14:47:49Z</time>
      </trkpt>
      <trkpt lat="38.331903" lon="-0.675542">
        <ele>303.2</ele>
        <time>2019-12-31T14:47:50Z</time>
      </trkpt>
      <trkpt lat="38.331942" lon="-0.675482">
        <ele>303.6</ele>
        <time>2019-12-31T14:47:51Z</time>
      </trkpt>
      <trkpt lat="38.331977" lon="-0.675418">
        <ele>303.4</ele>
        <time>2019-12-31T14:47:52Z</time>
      </trkpt>
      <trkpt lat="38.332007" lon="-0.675353">
        <ele>303.4</ele>
        <time>2019-12-31T14:47:53Z</time>
      </trkpt>
      <trkpt lat="38.332037" lon="-0.675291">
        <ele>303.8</ele>
        <time>2019-12-31T14:47:54Z</time>
      </trkpt>
      <trkpt lat="38.332069" lon="-0.675239">
        <ele>303.6</ele>
        <time>2019-12-31T14:47:55Z</time>
      </trkpt>
      <trkpt lat="38.332097" lon="-0.675189">
        <ele>304.4</ele>
        <time>2019-12-31T14:47:56Z</time>
      </trkpt>
      <trkpt lat="38.332126" lon="-0.675141">
        <ele>304.6</ele>
        <time>2019-12-31T14:47:57Z</time>
      </trkpt>
      <trkpt lat="38.332153" lon="-0.675095">
        <ele>304.6</ele>
        <time>2019-12-31T14:47:58Z</time>
      </trkpt>
      <trkpt lat="38.332181" lon="-0.675050">
        <ele>305.2</ele>
        <time>2019-12-31T14:47:59Z</time>
      </trkpt>
      <trkpt lat="38.332208" lon="-0.675005">
        <ele>305.4</ele>
        <time>2019-12-31T14:48:00Z</time>
      </trkpt>
      <trkpt lat="38.332237" lon="-0.674960">
        <ele>305.6</ele>
        <time>2019-12-31T14:48:01Z</time>
      </trkpt>
      <trkpt lat="38.332265" lon="-0.674914">
        <ele>305.8</ele>
        <time>2019-12-31T14:48:02Z</time>
      </trkpt>
      <trkpt lat="38.332293" lon="-0.674869">
        <ele>306</ele>
        <time>2019-12-31T14:48:03Z</time>
      </trkpt>
      <trkpt lat="38.332321" lon="-0.674828">
        <ele>306.4</ele>
        <time>2019-12-31T14:48:04Z</time>
      </trkpt>
      <trkpt lat="38.332346" lon="-0.674793">
        <ele>306.6</ele>
        <time>2019-12-31T14:48:05Z</time>
      </trkpt>
      <trkpt lat="38.332369" lon="-0.674761">
        <ele>307.2</ele>
        <time>2019-12-31T14:48:06Z</time>
      </trkpt>
      <trkpt lat="38.332387" lon="-0.674729">
        <ele>308</ele>
        <time>2019-12-31T14:48:07Z</time>
      </trkpt>
      <trkpt lat="38.332405" lon="-0.674698">
        <ele>308.6</ele>
        <time>2019-12-31T14:48:08Z</time>
      </trkpt>
      <trkpt lat="38.332421" lon="-0.674668">
        <ele>308.8</ele>
        <time>2019-12-31T14:48:09Z</time>
      </trkpt>
      <trkpt lat="38.332437" lon="-0.674635">
        <ele>309.2</ele>
        <time>2019-12-31T14:48:10Z</time>
      </trkpt>
      <trkpt lat="38.332458" lon="-0.674600">
        <ele>309.4</ele>
        <time>2019-12-31T14:48:11Z</time>
      </trkpt>
      <trkpt lat="38.332480" lon="-0.674561">
        <ele>309.4</ele>
        <time>2019-12-31T14:48:12Z</time>
      </trkpt>
      <trkpt lat="38.332500" lon="-0.674525">
        <ele>309.6</ele>
        <time>2019-12-31T14:48:13Z</time>
      </trkpt>
      <trkpt lat="38.332514" lon="-0.674493">
        <ele>310.2</ele>
        <time>2019-12-31T14:48:14Z</time>
      </trkpt>
      <trkpt lat="38.332525" lon="-0.674466">
        <ele>310.8</ele>
        <time>2019-12-31T14:48:15Z</time>
      </trkpt>
      <trkpt lat="38.332532" lon="-0.674443">
        <ele>311.2</ele>
        <time>2019-12-31T14:48:16Z</time>
      </trkpt>
      <trkpt lat="38.332538" lon="-0.674419">
        <ele>311.8</ele>
        <time>2019-12-31T14:48:17Z</time>
      </trkpt>
      <trkpt lat="38.332538" lon="-0.674394">
        <ele>312.4</ele>
        <time>2019-12-31T14:48:18Z</time>
      </trkpt>
      <trkpt lat="38.332537" lon="-0.674370">
        <ele>312.6</ele>
        <time>2019-12-31T14:48:19Z</time>
      </trkpt>
      <trkpt lat="38.332533" lon="-0.674341">
        <ele>312.8</ele>
        <time>2019-12-31T14:48:20Z</time>
      </trkpt>
      <trkpt lat="38.332521" lon="-0.674310">
        <ele>313</ele>
        <time>2019-12-31T14:48:21Z</time>
      </trkpt>
      <trkpt lat="38.332506" lon="-0.674277">
        <ele>312.8</ele>
        <time>2019-12-31T14:48:22Z</time>
      </trkpt>
      <trkpt lat="38.332485" lon="-0.674236">
        <ele>312.6</ele>
        <time>2019-12-31T14:48:23Z</time>
      </trkpt>
      <trkpt lat="38.332463" lon="-0.674188">
        <ele>312.4</ele>
        <time>2019-12-31T14:48:24Z</time>
      </trkpt>
      <trkpt lat="38.332433" lon="-0.674129">
        <ele>311.2</ele>
        <time>2019-12-31T14:48:25Z</time>
      </trkpt>
      <trkpt lat="38.332400" lon="-0.674061">
        <ele>310.2</ele>
        <time>2019-12-31T14:48:26Z</time>
      </trkpt>
      <trkpt lat="38.332364" lon="-0.673986">
        <ele>309.2</ele>
        <time>2019-12-31T14:48:27Z</time>
      </trkpt>
      <trkpt lat="38.332325" lon="-0.673912">
        <ele>309</ele>
        <time>2019-12-31T14:48:28Z</time>
      </trkpt>
      <trkpt lat="38.332278" lon="-0.673839">
        <ele>307.6</ele>
        <time>2019-12-31T14:48:29Z</time>
      </trkpt>
      <trkpt lat="38.332231" lon="-0.673766">
        <ele>306.4</ele>
        <time>2019-12-31T14:48:30Z</time>
      </trkpt>
      <trkpt lat="38.332183" lon="-0.673682">
        <ele>305.4</ele>
        <time>2019-12-31T14:48:31Z</time>
      </trkpt>
      <trkpt lat="38.332133" lon="-0.673595">
        <ele>304.2</ele>
        <time>2019-12-31T14:48:32Z</time>
      </trkpt>
      <trkpt lat="38.332081" lon="-0.673509">
        <ele>304</ele>
        <time>2019-12-31T14:48:33Z</time>
      </trkpt>
      <trkpt lat="38.332025" lon="-0.673425">
        <ele>303.4</ele>
        <time>2019-12-31T14:48:34Z</time>
      </trkpt>
      <trkpt lat="38.331961" lon="-0.673340">
        <ele>301.4</ele>
        <time>2019-12-31T14:48:35Z</time>
      </trkpt>
      <trkpt lat="38.331890" lon="-0.673252">
        <ele>300</ele>
        <time>2019-12-31T14:48:36Z</time>
      </trkpt>
      <trkpt lat="38.331812" lon="-0.673162">
        <ele>298.4</ele>
        <time>2019-12-31T14:48:37Z</time>
      </trkpt>
      <trkpt lat="38.331735" lon="-0.673080">
        <ele>296.6</ele>
        <time>2019-12-31T14:48:38Z</time>
      </trkpt>
      <trkpt lat="38.331663" lon="-0.673008">
        <ele>296.6</ele>
        <time>2019-12-31T14:48:39Z</time>
      </trkpt>
      <trkpt lat="38.331588" lon="-0.672938">
        <ele>294.4</ele>
        <time>2019-12-31T14:48:40Z</time>
      </trkpt>
      <trkpt lat="38.331502" lon="-0.672863">
        <ele>293</ele>
        <time>2019-12-31T14:48:41Z</time>
      </trkpt>
      <trkpt lat="38.331412" lon="-0.672788">
        <ele>291</ele>
        <time>2019-12-31T14:48:42Z</time>
      </trkpt>
      <trkpt lat="38.331322" lon="-0.672713">
        <ele>289.6</ele>
        <time>2019-12-31T14:48:43Z</time>
      </trkpt>
      <trkpt lat="38.331236" lon="-0.672640">
        <ele>288.2</ele>
        <time>2019-12-31T14:48:44Z</time>
      </trkpt>
      <trkpt lat="38.331155" lon="-0.672573">
        <ele>286.8</ele>
        <time>2019-12-31T14:48:45Z</time>
      </trkpt>
      <trkpt lat="38.331078" lon="-0.672505">
        <ele>284.8</ele>
        <time>2019-12-31T14:48:46Z</time>
      </trkpt>
      <trkpt lat="38.331003" lon="-0.672426">
        <ele>284.2</ele>
        <time>2019-12-31T14:48:47Z</time>
      </trkpt>
      <trkpt lat="38.330928" lon="-0.672341">
        <ele>282</ele>
        <time>2019-12-31T14:48:48Z</time>
      </trkpt>
      <trkpt lat="38.330854" lon="-0.672252">
        <ele>281.6</ele>
        <time>2019-12-31T14:48:49Z</time>
      </trkpt>
      <trkpt lat="38.330782" lon="-0.672156">
        <ele>280.6</ele>
        <time>2019-12-31T14:48:50Z</time>
      </trkpt>
      <trkpt lat="38.330711" lon="-0.672061">
        <ele>279.8</ele>
        <time>2019-12-31T14:48:51Z</time>
      </trkpt>
      <trkpt lat="38.330642" lon="-0.671963">
        <ele>279</ele>
        <time>2019-12-31T14:48:52Z</time>
      </trkpt>
      <trkpt lat="38.330573" lon="-0.671862">
        <ele>278.2</ele>
        <time>2019-12-31T14:48:53Z</time>
      </trkpt>
      <trkpt lat="38.330508" lon="-0.671757">
        <ele>277.6</ele>
        <time>2019-12-31T14:48:54Z</time>
      </trkpt>
      <trkpt lat="38.330452" lon="-0.671644">
        <ele>277.2</ele>
        <time>2019-12-31T14:48:55Z</time>
      </trkpt>
      <trkpt lat="38.330403" lon="-0.671525">
        <ele>276.4</ele>
        <time>2019-12-31T14:48:56Z</time>
      </trkpt>
      <trkpt lat="38.330364" lon="-0.671402">
        <ele>275.8</ele>
        <time>2019-12-31T14:48:57Z</time>
      </trkpt>
      <trkpt lat="38.330341" lon="-0.671274">
        <ele>274.8</ele>
        <time>2019-12-31T14:48:58Z</time>
      </trkpt>
      <trkpt lat="38.330341" lon="-0.671274">
        <ele>274.6</ele>
        <time>2019-12-31T14:48:59Z</time>
      </trkpt>
      <trkpt lat="38.330334" lon="-0.671022">
        <ele>274.6</ele>
        <time>2019-12-31T14:49:00Z</time>
      </trkpt>
      <trkpt lat="38.330339" lon="-0.670899">
        <ele>274.2</ele>
        <time>2019-12-31T14:49:01Z</time>
      </trkpt>
      <trkpt lat="38.330346" lon="-0.670780">
        <ele>273.8</ele>
        <time>2019-12-31T14:49:02Z</time>
      </trkpt>
      <trkpt lat="38.330346" lon="-0.670659">
        <ele>273.8</ele>
        <time>2019-12-31T14:49:03Z</time>
      </trkpt>
      <trkpt lat="38.330346" lon="-0.670540">
        <ele>273.6</ele>
        <time>2019-12-31T14:49:04Z</time>
      </trkpt>
      <trkpt lat="38.330353" lon="-0.670424">
        <ele>273.2</ele>
        <time>2019-12-31T14:49:05Z</time>
      </trkpt>
      <trkpt lat="38.330364" lon="-0.670310">
        <ele>272.8</ele>
        <time>2019-12-31T14:49:06Z</time>
      </trkpt>
      <trkpt lat="38.330375" lon="-0.670198">
        <ele>273</ele>
        <time>2019-12-31T14:49:07Z</time>
      </trkpt>
      <trkpt lat="38.330381" lon="-0.670087">
        <ele>272.8</ele>
        <time>2019-12-31T14:49:08Z</time>
      </trkpt>
      <trkpt lat="38.330383" lon="-0.669976">
        <ele>273</ele>
        <time>2019-12-31T14:49:09Z</time>
      </trkpt>
      <trkpt lat="38.330381" lon="-0.669866">
        <ele>272.8</ele>
        <time>2019-12-31T14:49:10Z</time>
      </trkpt>
      <trkpt lat="38.330376" lon="-0.669759">
        <ele>273</ele>
        <time>2019-12-31T14:49:11Z</time>
      </trkpt>
      <trkpt lat="38.330372" lon="-0.669653">
        <ele>272.8</ele>
        <time>2019-12-31T14:49:12Z</time>
      </trkpt>
      <trkpt lat="38.330372" lon="-0.669550">
        <ele>273</ele>
        <time>2019-12-31T14:49:13Z</time>
      </trkpt>
      <trkpt lat="38.330378" lon="-0.669450">
        <ele>273.4</ele>
        <time>2019-12-31T14:49:14Z</time>
      </trkpt>
      <trkpt lat="38.330395" lon="-0.669353">
        <ele>273</ele>
        <time>2019-12-31T14:49:15Z</time>
      </trkpt>
      <trkpt lat="38.330421" lon="-0.669255">
        <ele>272.4</ele>
        <time>2019-12-31T14:49:16Z</time>
      </trkpt>
      <trkpt lat="38.330446" lon="-0.669154">
        <ele>272</ele>
        <time>2019-12-31T14:49:17Z</time>
      </trkpt>
      <trkpt lat="38.330472" lon="-0.669050">
        <ele>271.6</ele>
        <time>2019-12-31T14:49:18Z</time>
      </trkpt>
      <trkpt lat="38.330500" lon="-0.668945">
        <ele>271.2</ele>
        <time>2019-12-31T14:49:19Z</time>
      </trkpt>
      <trkpt lat="38.330527" lon="-0.668840">
        <ele>270.8</ele>
        <time>2019-12-31T14:49:20Z</time>
      </trkpt>
      <trkpt lat="38.330554" lon="-0.668733">
        <ele>270.6</ele>
        <time>2019-12-31T14:49:21Z</time>
      </trkpt>
      <trkpt lat="38.330575" lon="-0.668624">
        <ele>270.4</ele>
        <time>2019-12-31T14:49:22Z</time>
      </trkpt>
      <trkpt lat="38.330588" lon="-0.668514">
        <ele>270.2</ele>
        <time>2019-12-31T14:49:23Z</time>
      </trkpt>
      <trkpt lat="38.330591" lon="-0.668403">
        <ele>270.2</ele>
        <time>2019-12-31T14:49:24Z</time>
      </trkpt>
      <trkpt lat="38.330593" lon="-0.668293">
        <ele>269.8</ele>
        <time>2019-12-31T14:49:25Z</time>
      </trkpt>
      <trkpt lat="38.330598" lon="-0.668185">
        <ele>269.6</ele>
        <time>2019-12-31T14:49:26Z</time>
      </trkpt>
      <trkpt lat="38.330605" lon="-0.668079">
        <ele>269.2</ele>
        <time>2019-12-31T14:49:27Z</time>
      </trkpt>
      <trkpt lat="38.330614" lon="-0.667974">
        <ele>269.6</ele>
        <time>2019-12-31T14:49:28Z</time>
      </trkpt>
      <trkpt lat="38.330621" lon="-0.667873">
        <ele>269.6</ele>
        <time>2019-12-31T14:49:29Z</time>
      </trkpt>
      <trkpt lat="38.330629" lon="-0.667777">
        <ele>269.8</ele>
        <time>2019-12-31T14:49:30Z</time>
      </trkpt>
      <trkpt lat="38.330638" lon="-0.667686">
        <ele>270</ele>
        <time>2019-12-31T14:49:31Z</time>
      </trkpt>
      <trkpt lat="38.330641" lon="-0.667600">
        <ele>270.4</ele>
        <time>2019-12-31T14:49:32Z</time>
      </trkpt>
      <trkpt lat="38.330645" lon="-0.667514">
        <ele>270.4</ele>
        <time>2019-12-31T14:49:33Z</time>
      </trkpt>
      <trkpt lat="38.330647" lon="-0.667428">
        <ele>270.6</ele>
        <time>2019-12-31T14:49:34Z</time>
      </trkpt>
      <trkpt lat="38.330641" lon="-0.667341">
        <ele>270.6</ele>
        <time>2019-12-31T14:49:35Z</time>
      </trkpt>
      <trkpt lat="38.330624" lon="-0.667252">
        <ele>270.4</ele>
        <time>2019-12-31T14:49:36Z</time>
      </trkpt>
      <trkpt lat="38.330596" lon="-0.667168">
        <ele>270</ele>
        <time>2019-12-31T14:49:37Z</time>
      </trkpt>
      <trkpt lat="38.330557" lon="-0.667088">
        <ele>269.2</ele>
        <time>2019-12-31T14:49:38Z</time>
      </trkpt>
      <trkpt lat="38.330515" lon="-0.667011">
        <ele>268.6</ele>
        <time>2019-12-31T14:49:39Z</time>
      </trkpt>
      <trkpt lat="38.330474" lon="-0.666930">
        <ele>268.6</ele>
        <time>2019-12-31T14:49:40Z</time>
      </trkpt>
      <trkpt lat="38.330434" lon="-0.666843">
        <ele>268</ele>
        <time>2019-12-31T14:49:41Z</time>
      </trkpt>
      <trkpt lat="38.330398" lon="-0.666745">
        <ele>267</ele>
        <time>2019-12-31T14:49:42Z</time>
      </trkpt>
      <trkpt lat="38.330362" lon="-0.666644">
        <ele>266</ele>
        <time>2019-12-31T14:49:43Z</time>
      </trkpt>
      <trkpt lat="38.330321" lon="-0.666545">
        <ele>265.6</ele>
        <time>2019-12-31T14:49:44Z</time>
      </trkpt>
      <trkpt lat="38.330277" lon="-0.666443">
        <ele>264.2</ele>
        <time>2019-12-31T14:49:45Z</time>
      </trkpt>
      <trkpt lat="38.330228" lon="-0.666341">
        <ele>263.6</ele>
        <time>2019-12-31T14:49:46Z</time>
      </trkpt>
      <trkpt lat="38.330175" lon="-0.666238">
        <ele>263.2</ele>
        <time>2019-12-31T14:49:47Z</time>
      </trkpt>
      <trkpt lat="38.330124" lon="-0.666134">
        <ele>262.2</ele>
        <time>2019-12-31T14:49:48Z</time>
      </trkpt>
      <trkpt lat="38.330080" lon="-0.666025">
        <ele>261.8</ele>
        <time>2019-12-31T14:49:49Z</time>
      </trkpt>
      <trkpt lat="38.330047" lon="-0.665907">
        <ele>260.8</ele>
        <time>2019-12-31T14:49:50Z</time>
      </trkpt>
      <trkpt lat="38.330027" lon="-0.665790">
        <ele>259.8</ele>
        <time>2019-12-31T14:49:51Z</time>
      </trkpt>
      <trkpt lat="38.330012" lon="-0.665670">
        <ele>260</ele>
        <time>2019-12-31T14:49:52Z</time>
      </trkpt>
      <trkpt lat="38.330002" lon="-0.665547">
        <ele>259.4</ele>
        <time>2019-12-31T14:49:53Z</time>
      </trkpt>
      <trkpt lat="38.329995" lon="-0.665423">
        <ele>258.6</ele>
        <time>2019-12-31T14:49:54Z</time>
      </trkpt>
      <trkpt lat="38.329989" lon="-0.665299">
        <ele>258</ele>
        <time>2019-12-31T14:49:55Z</time>
      </trkpt>
      <trkpt lat="38.329982" lon="-0.665176">
        <ele>257.2</ele>
        <time>2019-12-31T14:49:56Z</time>
      </trkpt>
      <trkpt lat="38.329977" lon="-0.665051">
        <ele>256.4</ele>
        <time>2019-12-31T14:49:57Z</time>
      </trkpt>
      <trkpt lat="38.329981" lon="-0.664927">
        <ele>256.2</ele>
        <time>2019-12-31T14:49:58Z</time>
      </trkpt>
      <trkpt lat="38.329989" lon="-0.664804">
        <ele>255.4</ele>
        <time>2019-12-31T14:49:59Z</time>
      </trkpt>
      <trkpt lat="38.329993" lon="-0.664682">
        <ele>254.4</ele>
        <time>2019-12-31T14:50:00Z</time>
      </trkpt>
      <trkpt lat="38.329994" lon="-0.664562">
        <ele>254.4</ele>
        <time>2019-12-31T14:50:01Z</time>
      </trkpt>
      <trkpt lat="38.329994" lon="-0.664444">
        <ele>254</ele>
        <time>2019-12-31T14:50:02Z</time>
      </trkpt>
      <trkpt lat="38.329992" lon="-0.664329">
        <ele>254</ele>
        <time>2019-12-31T14:50:03Z</time>
      </trkpt>
      <trkpt lat="38.329989" lon="-0.664217">
        <ele>253.6</ele>
        <time>2019-12-31T14:50:04Z</time>
      </trkpt>
      <trkpt lat="38.329982" lon="-0.664104">
        <ele>253.4</ele>
        <time>2019-12-31T14:50:05Z</time>
      </trkpt>
      <trkpt lat="38.329980" lon="-0.663989">
        <ele>252.8</ele>
        <time>2019-12-31T14:50:06Z</time>
      </trkpt>
      <trkpt lat="38.329976" lon="-0.663875">
        <ele>252.4</ele>
        <time>2019-12-31T14:50:07Z</time>
      </trkpt>
      <trkpt lat="38.329967" lon="-0.663761">
        <ele>251.8</ele>
        <time>2019-12-31T14:50:08Z</time>
      </trkpt>
      <trkpt lat="38.329963" lon="-0.663644">
        <ele>251.2</ele>
        <time>2019-12-31T14:50:09Z</time>
      </trkpt>
      <trkpt lat="38.329959" lon="-0.663529">
        <ele>250.4</ele>
        <time>2019-12-31T14:50:10Z</time>
      </trkpt>
      <trkpt lat="38.329948" lon="-0.663414">
        <ele>249.8</ele>
        <time>2019-12-31T14:50:11Z</time>
      </trkpt>
      <trkpt lat="38.329935" lon="-0.663313">
        <ele>249.4</ele>
        <time>2019-12-31T14:50:12Z</time>
      </trkpt>
      <trkpt lat="38.329920" lon="-0.663231">
        <ele>248.8</ele>
        <time>2019-12-31T14:50:13Z</time>
      </trkpt>
      <trkpt lat="38.329897" lon="-0.663162">
        <ele>248</ele>
        <time>2019-12-31T14:50:14Z</time>
      </trkpt>
      <trkpt lat="38.329856" lon="-0.663109">
        <ele>247.6</ele>
        <time>2019-12-31T14:50:15Z</time>
      </trkpt>
      <trkpt lat="38.329802" lon="-0.663075">
        <ele>247.2</ele>
        <time>2019-12-31T14:50:16Z</time>
      </trkpt>
      <trkpt lat="38.329742" lon="-0.663060">
        <ele>246.8</ele>
        <time>2019-12-31T14:50:17Z</time>
      </trkpt>
      <trkpt lat="38.329679" lon="-0.663059">
        <ele>246.2</ele>
        <time>2019-12-31T14:50:18Z</time>
      </trkpt>
      <trkpt lat="38.329612" lon="-0.663060">
        <ele>246</ele>
        <time>2019-12-31T14:50:19Z</time>
      </trkpt>
      <trkpt lat="38.329544" lon="-0.663061">
        <ele>245.8</ele>
        <time>2019-12-31T14:50:20Z</time>
      </trkpt>
      <trkpt lat="38.329474" lon="-0.663060">
        <ele>245.2</ele>
        <time>2019-12-31T14:50:21Z</time>
      </trkpt>
      <trkpt lat="38.329402" lon="-0.663059">
        <ele>244.8</ele>
        <time>2019-12-31T14:50:22Z</time>
      </trkpt>
      <trkpt lat="38.329330" lon="-0.663062">
        <ele>244.6</ele>
        <time>2019-12-31T14:50:23Z</time>
      </trkpt>
      <trkpt lat="38.329256" lon="-0.663064">
        <ele>244.2</ele>
        <time>2019-12-31T14:50:24Z</time>
      </trkpt>
      <trkpt lat="38.329181" lon="-0.663067">
        <ele>244</ele>
        <time>2019-12-31T14:50:25Z</time>
      </trkpt>
      <trkpt lat="38.329106" lon="-0.663071">
        <ele>243.8</ele>
        <time>2019-12-31T14:50:26Z</time>
      </trkpt>
      <trkpt lat="38.329031" lon="-0.663075">
        <ele>243.6</ele>
        <time>2019-12-31T14:50:27Z</time>
      </trkpt>
      <trkpt lat="38.328956" lon="-0.663079">
        <ele>243.4</ele>
        <time>2019-12-31T14:50:28Z</time>
      </trkpt>
      <trkpt lat="38.328881" lon="-0.663086">
        <ele>243.4</ele>
        <time>2019-12-31T14:50:29Z</time>
      </trkpt>
      <trkpt lat="38.328807" lon="-0.663093">
        <ele>243.2</ele>
        <time>2019-12-31T14:50:30Z</time>
      </trkpt>
      <trkpt lat="38.328732" lon="-0.663101">
        <ele>243</ele>
        <time>2019-12-31T14:50:31Z</time>
      </trkpt>
      <trkpt lat="38.328656" lon="-0.663111">
        <ele>242.6</ele>
        <time>2019-12-31T14:50:32Z</time>
      </trkpt>
      <trkpt lat="38.328580" lon="-0.663117">
        <ele>242.2</ele>
        <time>2019-12-31T14:50:33Z</time>
      </trkpt>
      <trkpt lat="38.328500" lon="-0.663122">
        <ele>241.6</ele>
        <time>2019-12-31T14:50:34Z</time>
      </trkpt>
      <trkpt lat="38.328418" lon="-0.663131">
        <ele>241</ele>
        <time>2019-12-31T14:50:35Z</time>
      </trkpt>
      <trkpt lat="38.328333" lon="-0.663141">
        <ele>240.4</ele>
        <time>2019-12-31T14:50:36Z</time>
      </trkpt>
      <trkpt lat="38.328247" lon="-0.663148">
        <ele>240</ele>
        <time>2019-12-31T14:50:37Z</time>
      </trkpt>
      <trkpt lat="38.328163" lon="-0.663154">
        <ele>240</ele>
        <time>2019-12-31T14:50:38Z</time>
      </trkpt>
      <trkpt lat="38.328082" lon="-0.663158">
        <ele>239.8</ele>
        <time>2019-12-31T14:50:39Z</time>
      </trkpt>
      <trkpt lat="38.328004" lon="-0.663162">
        <ele>239.8</ele>
        <time>2019-12-31T14:50:40Z</time>
      </trkpt>
      <trkpt lat="38.327929" lon="-0.663167">
        <ele>239.8</ele>
        <time>2019-12-31T14:50:41Z</time>
      </trkpt>
      <trkpt lat="38.327858" lon="-0.663173">
        <ele>240.2</ele>
        <time>2019-12-31T14:50:42Z</time>
      </trkpt>
      <trkpt lat="38.327790" lon="-0.663179">
        <ele>240.4</ele>
        <time>2019-12-31T14:50:43Z</time>
      </trkpt>
      <trkpt lat="38.327790" lon="-0.663179">
        <ele>240.6</ele>
        <time>2019-12-31T14:50:44Z</time>
      </trkpt>
      <trkpt lat="38.327660" lon="-0.663192">
        <ele>240.6</ele>
        <time>2019-12-31T14:50:45Z</time>
      </trkpt>
      <trkpt lat="38.327600" lon="-0.663197">
        <ele>241</ele>
        <time>2019-12-31T14:50:46Z</time>
      </trkpt>
      <trkpt lat="38.327541" lon="-0.663203">
        <ele>241</ele>
        <time>2019-12-31T14:50:47Z</time>
      </trkpt>
      <trkpt lat="38.327483" lon="-0.663207">
        <ele>241.2</ele>
        <time>2019-12-31T14:50:48Z</time>
      </trkpt>
      <trkpt lat="38.327424" lon="-0.663210">
        <ele>241.2</ele>
        <time>2019-12-31T14:50:49Z</time>
      </trkpt>
      <trkpt lat="38.327371" lon="-0.663212">
        <ele>241.2</ele>
        <time>2019-12-31T14:50:50Z</time>
      </trkpt>
      <trkpt lat="38.327315" lon="-0.663213">
        <ele>241.4</ele>
        <time>2019-12-31T14:50:51Z</time>
      </trkpt>
      <trkpt lat="38.327260" lon="-0.663216">
        <ele>241.6</ele>
        <time>2019-12-31T14:50:52Z</time>
      </trkpt>
      <trkpt lat="38.327206" lon="-0.663222">
        <ele>241.8</ele>
        <time>2019-12-31T14:50:53Z</time>
      </trkpt>
      <trkpt lat="38.327153" lon="-0.663228">
        <ele>241.8</ele>
        <time>2019-12-31T14:50:54Z</time>
      </trkpt>
      <trkpt lat="38.327098" lon="-0.663234">
        <ele>241.6</ele>
        <time>2019-12-31T14:50:55Z</time>
      </trkpt>
      <trkpt lat="38.327044" lon="-0.663238">
        <ele>241.8</ele>
        <time>2019-12-31T14:50:56Z</time>
      </trkpt>
      <trkpt lat="38.327044" lon="-0.663238">
        <ele>241.8</ele>
        <time>2019-12-31T14:50:57Z</time>
      </trkpt>
      <trkpt lat="38.326935" lon="-0.663247">
        <ele>241.6</ele>
        <time>2019-12-31T14:50:58Z</time>
      </trkpt>
      <trkpt lat="38.326880" lon="-0.663251">
        <ele>241.8</ele>
        <time>2019-12-31T14:50:59Z</time>
      </trkpt>
      <trkpt lat="38.326824" lon="-0.663256">
        <ele>241.6</ele>
        <time>2019-12-31T14:51:00Z</time>
      </trkpt>
      <trkpt lat="38.326769" lon="-0.663261">
        <ele>241.8</ele>
        <time>2019-12-31T14:51:01Z</time>
      </trkpt>
      <trkpt lat="38.326713" lon="-0.663266">
        <ele>241.6</ele>
        <time>2019-12-31T14:51:02Z</time>
      </trkpt>
      <trkpt lat="38.326658" lon="-0.663272">
        <ele>241.6</ele>
        <time>2019-12-31T14:51:03Z</time>
      </trkpt>
      <trkpt lat="38.326603" lon="-0.663278">
        <ele>241.6</ele>
        <time>2019-12-31T14:51:04Z</time>
      </trkpt>
      <trkpt lat="38.326603" lon="-0.663278">
        <ele>241.8</ele>
        <time>2019-12-31T14:51:05Z</time>
      </trkpt>
      <trkpt lat="38.326492" lon="-0.663294">
        <ele>241.6</ele>
        <time>2019-12-31T14:51:06Z</time>
      </trkpt>
      <trkpt lat="38.326435" lon="-0.663303">
        <ele>241.6</ele>
        <time>2019-12-31T14:51:07Z</time>
      </trkpt>
      <trkpt lat="38.326376" lon="-0.663316">
        <ele>241.4</ele>
        <time>2019-12-31T14:51:08Z</time>
      </trkpt>
      <trkpt lat="38.326316" lon="-0.663334">
        <ele>241.2</ele>
        <time>2019-12-31T14:51:09Z</time>
      </trkpt>
      <trkpt lat="38.326257" lon="-0.663365">
        <ele>240.8</ele>
        <time>2019-12-31T14:51:10Z</time>
      </trkpt>
      <trkpt lat="38.326199" lon="-0.663407">
        <ele>240.2</ele>
        <time>2019-12-31T14:51:11Z</time>
      </trkpt>
      <trkpt lat="38.326139" lon="-0.663457">
        <ele>239.6</ele>
        <time>2019-12-31T14:51:12Z</time>
      </trkpt>
      <trkpt lat="38.326082" lon="-0.663513">
        <ele>239.2</ele>
        <time>2019-12-31T14:51:13Z</time>
      </trkpt>
      <trkpt lat="38.326082" lon="-0.663513">
        <ele>238.8</ele>
        <time>2019-12-31T14:51:14Z</time>
      </trkpt>
      <trkpt lat="38.325967" lon="-0.663627">
        <ele>238.6</ele>
        <time>2019-12-31T14:51:15Z</time>
      </trkpt>
      <trkpt lat="38.325911" lon="-0.663681">
        <ele>238.4</ele>
        <time>2019-12-31T14:51:16Z</time>
      </trkpt>
      <trkpt lat="38.325854" lon="-0.663728">
        <ele>238.2</ele>
        <time>2019-12-31T14:51:17Z</time>
      </trkpt>
      <trkpt lat="38.325796" lon="-0.663768">
        <ele>238.2</ele>
        <time>2019-12-31T14:51:18Z</time>
      </trkpt>
      <trkpt lat="38.325739" lon="-0.663807">
        <ele>237.8</ele>
        <time>2019-12-31T14:51:19Z</time>
      </trkpt>
      <trkpt lat="38.325739" lon="-0.663807">
        <ele>237.8</ele>
        <time>2019-12-31T14:51:20Z</time>
      </trkpt>
      <trkpt lat="38.325638" lon="-0.663904">
        <ele>237.8</ele>
        <time>2019-12-31T14:51:21Z</time>
      </trkpt>
      <trkpt lat="38.325599" lon="-0.663960">
        <ele>238.2</ele>
        <time>2019-12-31T14:51:22Z</time>
      </trkpt>
      <trkpt lat="38.325563" lon="-0.664015">
        <ele>238.4</ele>
        <time>2019-12-31T14:51:23Z</time>
      </trkpt>
      <trkpt lat="38.325528" lon="-0.664068">
        <ele>238.6</ele>
        <time>2019-12-31T14:51:24Z</time>
      </trkpt>
      <trkpt lat="38.325528" lon="-0.664068">
        <ele>239</ele>
        <time>2019-12-31T14:51:25Z</time>
      </trkpt>
      <trkpt lat="38.325479" lon="-0.664182">
        <ele>239</ele>
        <time>2019-12-31T14:51:26Z</time>
      </trkpt>
      <trkpt lat="38.325476" lon="-0.664249">
        <ele>239.2</ele>
        <time>2019-12-31T14:51:27Z</time>
      </trkpt>
      <trkpt lat="38.325486" lon="-0.664311">
        <ele>239.4</ele>
        <time>2019-12-31T14:51:28Z</time>
      </trkpt>
      <trkpt lat="38.325496" lon="-0.664371">
        <ele>239.8</ele>
        <time>2019-12-31T14:51:29Z</time>
      </trkpt>
      <trkpt lat="38.325505" lon="-0.664433">
        <ele>240</ele>
        <time>2019-12-31T14:51:30Z</time>
      </trkpt>
      <trkpt lat="38.325509" lon="-0.664494">
        <ele>240.2</ele>
        <time>2019-12-31T14:51:31Z</time>
      </trkpt>
      <trkpt lat="38.325511" lon="-0.664557">
        <ele>240.2</ele>
        <time>2019-12-31T14:51:32Z</time>
      </trkpt>
      <trkpt lat="38.325503" lon="-0.664617">
        <ele>240.4</ele>
        <time>2019-12-31T14:51:33Z</time>
      </trkpt>
      <trkpt lat="38.325492" lon="-0.664675">
        <ele>240.6</ele>
        <time>2019-12-31T14:51:34Z</time>
      </trkpt>
      <trkpt lat="38.325473" lon="-0.664724">
        <ele>240.6</ele>
        <time>2019-12-31T14:51:35Z</time>
      </trkpt>
      <trkpt lat="38.325447" lon="-0.664768">
        <ele>240.8</ele>
        <time>2019-12-31T14:51:36Z</time>
      </trkpt>
      <trkpt lat="38.325417" lon="-0.664804">
        <ele>241.2</ele>
        <time>2019-12-31T14:51:37Z</time>
      </trkpt>
      <trkpt lat="38.325382" lon="-0.664832">
        <ele>241.4</ele>
        <time>2019-12-31T14:51:38Z</time>
      </trkpt>
      <trkpt lat="38.325345" lon="-0.664852">
        <ele>241.8</ele>
        <time>2019-12-31T14:51:39Z</time>
      </trkpt>
      <trkpt lat="38.325308" lon="-0.664862">
        <ele>242</ele>
        <time>2019-12-31T14:51:40Z</time>
      </trkpt>
      <trkpt lat="38.325272" lon="-0.664866">
        <ele>242.4</ele>
        <time>2019-12-31T14:51:41Z</time>
      </trkpt>
      <trkpt lat="38.325239" lon="-0.664868">
        <ele>242.8</ele>
        <time>2019-12-31T14:51:42Z</time>
      </trkpt>
      <trkpt lat="38.325208" lon="-0.664864">
        <ele>243.2</ele>
        <time>2019-12-31T14:51:43Z</time>
      </trkpt>
      <trkpt lat="38.325178" lon="-0.664859">
        <ele>243.6</ele>
        <time>2019-12-31T14:51:44Z</time>
      </trkpt>
      <trkpt lat="38.325147" lon="-0.664853">
        <ele>243.8</ele>
        <time>2019-12-31T14:51:45Z</time>
      </trkpt>
      <trkpt lat="38.325118" lon="-0.664846">
        <ele>244.2</ele>
        <time>2019-12-31T14:51:46Z</time>
      </trkpt>
      <trkpt lat="38.325089" lon="-0.664841">
        <ele>244.8</ele>
        <time>2019-12-31T14:51:47Z</time>
      </trkpt>
      <trkpt lat="38.325058" lon="-0.664830">
        <ele>245</ele>
        <time>2019-12-31T14:51:48Z</time>
      </trkpt>
      <trkpt lat="38.325025" lon="-0.664823">
        <ele>245.2</ele>
        <time>2019-12-31T14:51:49Z</time>
      </trkpt>
      <trkpt lat="38.324994" lon="-0.664813">
        <ele>245.2</ele>
        <time>2019-12-31T14:51:50Z</time>
      </trkpt>
      <trkpt lat="38.324964" lon="-0.664799">
        <ele>245.6</ele>
        <time>2019-12-31T14:51:51Z</time>
      </trkpt>
      <trkpt lat="38.324932" lon="-0.664788">
        <ele>245.8</ele>
        <time>2019-12-31T14:51:52Z</time>
      </trkpt>
      <trkpt lat="38.324900" lon="-0.664777">
        <ele>245.8</ele>
        <time>2019-12-31T14:51:53Z</time>
      </trkpt>
      <trkpt lat="38.324869" lon="-0.664766">
        <ele>246</ele>
        <time>2019-12-31T14:51:54Z</time>
      </trkpt>
      <trkpt lat="38.324836" lon="-0.664756">
        <ele>246</ele>
        <time>2019-12-31T14:51:55Z</time>
      </trkpt>
      <trkpt lat="38.324802" lon="-0.664746">
        <ele>246</ele>
        <time>2019-12-31T14:51:56Z</time>
      </trkpt>
      <trkpt lat="38.324769" lon="-0.664734">
        <ele>246.2</ele>
        <time>2019-12-31T14:51:57Z</time>
      </trkpt>
      <trkpt lat="38.324733" lon="-0.664724">
        <ele>246.4</ele>
        <time>2019-12-31T14:51:58Z</time>
      </trkpt>
      <trkpt lat="38.324696" lon="-0.664716">
        <ele>246.8</ele>
        <time>2019-12-31T14:51:59Z</time>
      </trkpt>
      <trkpt lat="38.324659" lon="-0.664710">
        <ele>247</ele>
        <time>2019-12-31T14:52:00Z</time>
      </trkpt>
      <trkpt lat="38.324623" lon="-0.664703">
        <ele>247</ele>
        <time>2019-12-31T14:52:01Z</time>
      </trkpt>
      <trkpt lat="38.324623" lon="-0.664703">
        <ele>247.2</ele>
        <time>2019-12-31T14:52:02Z</time>
      </trkpt>
      <trkpt lat="38.324547" lon="-0.664697">
        <ele>247.4</ele>
        <time>2019-12-31T14:52:03Z</time>
      </trkpt>
      <trkpt lat="38.324512" lon="-0.664696">
        <ele>247.4</ele>
        <time>2019-12-31T14:52:04Z</time>
      </trkpt>
      <trkpt lat="38.324475" lon="-0.664699">
        <ele>247.6</ele>
        <time>2019-12-31T14:52:05Z</time>
      </trkpt>
      <trkpt lat="38.324444" lon="-0.664711">
        <ele>247.8</ele>
        <time>2019-12-31T14:52:06Z</time>
      </trkpt>
      <trkpt lat="38.324412" lon="-0.664720">
        <ele>247.8</ele>
        <time>2019-12-31T14:52:07Z</time>
      </trkpt>
      <trkpt lat="38.324378" lon="-0.664728">
        <ele>248</ele>
        <time>2019-12-31T14:52:08Z</time>
      </trkpt>
      <trkpt lat="38.324347" lon="-0.664737">
        <ele>248.2</ele>
        <time>2019-12-31T14:52:09Z</time>
      </trkpt>
      <trkpt lat="38.324320" lon="-0.664750">
        <ele>248.2</ele>
        <time>2019-12-31T14:52:10Z</time>
      </trkpt>
      <trkpt lat="38.324301" lon="-0.664780">
        <ele>248.2</ele>
        <time>2019-12-31T14:52:11Z</time>
      </trkpt>
      <trkpt lat="38.324294" lon="-0.664819">
        <ele>248.6</ele>
        <time>2019-12-31T14:52:12Z</time>
      </trkpt>
      <trkpt lat="38.324294" lon="-0.664859">
        <ele>249</ele>
        <time>2019-12-31T14:52:13Z</time>
      </trkpt>
      <trkpt lat="38.324301" lon="-0.664899">
        <ele>249.4</ele>
        <time>2019-12-31T14:52:14Z</time>
      </trkpt>
      <trkpt lat="38.324314" lon="-0.664938">
        <ele>249.4</ele>
        <time>2019-12-31T14:52:15Z</time>
      </trkpt>
      <trkpt lat="38.324329" lon="-0.664978">
        <ele>249.4</ele>
        <time>2019-12-31T14:52:16Z</time>
      </trkpt>
      <trkpt lat="38.324345" lon="-0.665020">
        <ele>249.6</ele>
        <time>2019-12-31T14:52:17Z</time>
      </trkpt>
      <trkpt lat="38.324360" lon="-0.665066">
        <ele>249.8</ele>
        <time>2019-12-31T14:52:18Z</time>
      </trkpt>
      <trkpt lat="38.324373" lon="-0.665112">
        <ele>249.8</ele>
        <time>2019-12-31T14:52:19Z</time>
      </trkpt>
      <trkpt lat="38.324386" lon="-0.665159">
        <ele>249.8</ele>
        <time>2019-12-31T14:52:20Z</time>
      </trkpt>
      <trkpt lat="38.324399" lon="-0.665208">
        <ele>250</ele>
        <time>2019-12-31T14:52:21Z</time>
      </trkpt>
      <trkpt lat="38.324410" lon="-0.665258">
        <ele>250</ele>
        <time>2019-12-31T14:52:22Z</time>
      </trkpt>
      <trkpt lat="38.324419" lon="-0.665310">
        <ele>250</ele>
        <time>2019-12-31T14:52:23Z</time>
      </trkpt>
      <trkpt lat="38.324426" lon="-0.665363">
        <ele>250</ele>
        <time>2019-12-31T14:52:24Z</time>
      </trkpt>
      <trkpt lat="38.324426" lon="-0.665363">
        <ele>250</ele>
        <time>2019-12-31T14:52:25Z</time>
      </trkpt>
      <trkpt lat="38.324437" lon="-0.665474">
        <ele>250</ele>
        <time>2019-12-31T14:52:26Z</time>
      </trkpt>
      <trkpt lat="38.324444" lon="-0.665530">
        <ele>250</ele>
        <time>2019-12-31T14:52:27Z</time>
      </trkpt>
      <trkpt lat="38.324451" lon="-0.665584">
        <ele>250.2</ele>
        <time>2019-12-31T14:52:28Z</time>
      </trkpt>
      <trkpt lat="38.324456" lon="-0.665640">
        <ele>250.4</ele>
        <time>2019-12-31T14:52:29Z</time>
      </trkpt>
      <trkpt lat="38.324463" lon="-0.665694">
        <ele>250.4</ele>
        <time>2019-12-31T14:52:30Z</time>
      </trkpt>
      <trkpt lat="38.324469" lon="-0.665749">
        <ele>250.6</ele>
        <time>2019-12-31T14:52:31Z</time>
      </trkpt>
      <trkpt lat="38.324476" lon="-0.665803">
        <ele>250.8</ele>
        <time>2019-12-31T14:52:32Z</time>
      </trkpt>
      <trkpt lat="38.324482" lon="-0.665856">
        <ele>251</ele>
        <time>2019-12-31T14:52:33Z</time>
      </trkpt>
      <trkpt lat="38.324488" lon="-0.665911">
        <ele>251.2</ele>
        <time>2019-12-31T14:52:34Z</time>
      </trkpt>
      <trkpt lat="38.324493" lon="-0.665964">
        <ele>251.4</ele>
        <time>2019-12-31T14:52:35Z</time>
      </trkpt>
      <trkpt lat="38.324498" lon="-0.666015">
        <ele>251.6</ele>
        <time>2019-12-31T14:52:36Z</time>
      </trkpt>
      <trkpt lat="38.324502" lon="-0.666065">
        <ele>251.8</ele>
        <time>2019-12-31T14:52:37Z</time>
      </trkpt>
      <trkpt lat="38.324503" lon="-0.666115">
        <ele>251.8</ele>
        <time>2019-12-31T14:52:38Z</time>
      </trkpt>
      <trkpt lat="38.324506" lon="-0.666164">
        <ele>252.2</ele>
        <time>2019-12-31T14:52:39Z</time>
      </trkpt>
      <trkpt lat="38.324511" lon="-0.666215">
        <ele>252</ele>
        <time>2019-12-31T14:52:40Z</time>
      </trkpt>
      <trkpt lat="38.324516" lon="-0.666267">
        <ele>252.2</ele>
        <time>2019-12-31T14:52:41Z</time>
      </trkpt>
      <trkpt lat="38.324522" lon="-0.666318">
        <ele>252.4</ele>
        <time>2019-12-31T14:52:42Z</time>
      </trkpt>
      <trkpt lat="38.324528" lon="-0.666369">
        <ele>252.4</ele>
        <time>2019-12-31T14:52:43Z</time>
      </trkpt>
      <trkpt lat="38.324533" lon="-0.666423">
        <ele>252.4</ele>
        <time>2019-12-31T14:52:44Z</time>
      </trkpt>
      <trkpt lat="38.324539" lon="-0.666479">
        <ele>252.4</ele>
        <time>2019-12-31T14:52:45Z</time>
      </trkpt>
      <trkpt lat="38.324545" lon="-0.666539">
        <ele>252.4</ele>
        <time>2019-12-31T14:52:46Z</time>
      </trkpt>
      <trkpt lat="38.324552" lon="-0.666599">
        <ele>252.4</ele>
        <time>2019-12-31T14:52:47Z</time>
      </trkpt>
      <trkpt lat="38.324560" lon="-0.666659">
        <ele>252.4</ele>
        <time>2019-12-31T14:52:48Z</time>
      </trkpt>
      <trkpt lat="38.324571" lon="-0.666718">
        <ele>252.4</ele>
        <time>2019-12-31T14:52:49Z</time>
      </trkpt>
      <trkpt lat="38.324581" lon="-0.666773">
        <ele>252.6</ele>
        <time>2019-12-31T14:52:50Z</time>
      </trkpt>
      <trkpt lat="38.324590" lon="-0.666830">
        <ele>252.6</ele>
        <time>2019-12-31T14:52:51Z</time>
      </trkpt>
      <trkpt lat="38.324597" lon="-0.666889">
        <ele>252.4</ele>
        <time>2019-12-31T14:52:52Z</time>
      </trkpt>
      <trkpt lat="38.324604" lon="-0.666949">
        <ele>252.4</ele>
        <time>2019-12-31T14:52:53Z</time>
      </trkpt>
      <trkpt lat="38.324612" lon="-0.667010">
        <ele>252.6</ele>
        <time>2019-12-31T14:52:54Z</time>
      </trkpt>
      <trkpt lat="38.324616" lon="-0.667072">
        <ele>252.6</ele>
        <time>2019-12-31T14:52:55Z</time>
      </trkpt>
      <trkpt lat="38.324621" lon="-0.667134">
        <ele>252.6</ele>
        <time>2019-12-31T14:52:56Z</time>
      </trkpt>
      <trkpt lat="38.324626" lon="-0.667199">
        <ele>252.8</ele>
        <time>2019-12-31T14:52:57Z</time>
      </trkpt>
      <trkpt lat="38.324626" lon="-0.667199">
        <ele>253</ele>
        <time>2019-12-31T14:52:58Z</time>
      </trkpt>
      <trkpt lat="38.324633" lon="-0.667329">
        <ele>252.8</ele>
        <time>2019-12-31T14:52:59Z</time>
      </trkpt>
      <trkpt lat="38.324636" lon="-0.667394">
        <ele>252.8</ele>
        <time>2019-12-31T14:53:00Z</time>
      </trkpt>
      <trkpt lat="38.324638" lon="-0.667458">
        <ele>253</ele>
        <time>2019-12-31T14:53:01Z</time>
      </trkpt>
      <trkpt lat="38.324639" lon="-0.667521">
        <ele>253</ele>
        <time>2019-12-31T14:53:02Z</time>
      </trkpt>
      <trkpt lat="38.324636" lon="-0.667585">
        <ele>253</ele>
        <time>2019-12-31T14:53:03Z</time>
      </trkpt>
      <trkpt lat="38.324633" lon="-0.667651">
        <ele>253</ele>
        <time>2019-12-31T14:53:04Z</time>
      </trkpt>
      <trkpt lat="38.324631" lon="-0.667716">
        <ele>253.2</ele>
        <time>2019-12-31T14:53:05Z</time>
      </trkpt>
      <trkpt lat="38.324634" lon="-0.667778">
        <ele>253</ele>
        <time>2019-12-31T14:53:06Z</time>
      </trkpt>
      <trkpt lat="38.324638" lon="-0.667841">
        <ele>253.2</ele>
        <time>2019-12-31T14:53:07Z</time>
      </trkpt>
      <trkpt lat="38.324641" lon="-0.667902">
        <ele>253.2</ele>
        <time>2019-12-31T14:53:08Z</time>
      </trkpt>
      <trkpt lat="38.324644" lon="-0.667963">
        <ele>253.2</ele>
        <time>2019-12-31T14:53:09Z</time>
      </trkpt>
      <trkpt lat="38.324650" lon="-0.668026">
        <ele>253.4</ele>
        <time>2019-12-31T14:53:10Z</time>
      </trkpt>
      <trkpt lat="38.324657" lon="-0.668087">
        <ele>253.4</ele>
        <time>2019-12-31T14:53:11Z</time>
      </trkpt>
      <trkpt lat="38.324662" lon="-0.668149">
        <ele>253.8</ele>
        <time>2019-12-31T14:53:12Z</time>
      </trkpt>
      <trkpt lat="38.324670" lon="-0.668207">
        <ele>253.8</ele>
        <time>2019-12-31T14:53:13Z</time>
      </trkpt>
      <trkpt lat="38.324670" lon="-0.668207">
        <ele>253.8</ele>
        <time>2019-12-31T14:53:14Z</time>
      </trkpt>
      <trkpt lat="38.324686" lon="-0.668324">
        <ele>253.8</ele>
        <time>2019-12-31T14:53:15Z</time>
      </trkpt>
      <trkpt lat="38.324694" lon="-0.668382">
        <ele>253.8</ele>
        <time>2019-12-31T14:53:16Z</time>
      </trkpt>
      <trkpt lat="38.324701" lon="-0.668444">
        <ele>254</ele>
        <time>2019-12-31T14:53:17Z</time>
      </trkpt>
      <trkpt lat="38.324710" lon="-0.668506">
        <ele>254.2</ele>
        <time>2019-12-31T14:53:18Z</time>
      </trkpt>
      <trkpt lat="38.324718" lon="-0.668569">
        <ele>254.4</ele>
        <time>2019-12-31T14:53:19Z</time>
      </trkpt>
      <trkpt lat="38.324726" lon="-0.668631">
        <ele>254.4</ele>
        <time>2019-12-31T14:53:20Z</time>
      </trkpt>
      <trkpt lat="38.324732" lon="-0.668695">
        <ele>254.6</ele>
        <time>2019-12-31T14:53:21Z</time>
      </trkpt>
      <trkpt lat="38.324737" lon="-0.668759">
        <ele>254.6</ele>
        <time>2019-12-31T14:53:22Z</time>
      </trkpt>
      <trkpt lat="38.324743" lon="-0.668822">
        <ele>254.8</ele>
        <time>2019-12-31T14:53:23Z</time>
      </trkpt>
      <trkpt lat="38.324747" lon="-0.668883">
        <ele>255</ele>
        <time>2019-12-31T14:53:24Z</time>
      </trkpt>
      <trkpt lat="38.324751" lon="-0.668944">
        <ele>255</ele>
        <time>2019-12-31T14:53:25Z</time>
      </trkpt>
      <trkpt lat="38.324753" lon="-0.669004">
        <ele>255.2</ele>
        <time>2019-12-31T14:53:26Z</time>
      </trkpt>
      <trkpt lat="38.324752" lon="-0.669059">
        <ele>255.4</ele>
        <time>2019-12-31T14:53:27Z</time>
      </trkpt>
      <trkpt lat="38.324755" lon="-0.669118">
        <ele>255.4</ele>
        <time>2019-12-31T14:53:28Z</time>
      </trkpt>
      <trkpt lat="38.324759" lon="-0.669177">
        <ele>255.4</ele>
        <time>2019-12-31T14:53:29Z</time>
      </trkpt>
      <trkpt lat="38.324763" lon="-0.669235">
        <ele>255.4</ele>
        <time>2019-12-31T14:53:30Z</time>
      </trkpt>
      <trkpt lat="38.324765" lon="-0.669295">
        <ele>255.6</ele>
        <time>2019-12-31T14:53:31Z</time>
      </trkpt>
      <trkpt lat="38.324768" lon="-0.669354">
        <ele>255.6</ele>
        <time>2019-12-31T14:53:32Z</time>
      </trkpt>
      <trkpt lat="38.324774" lon="-0.669411">
        <ele>255.8</ele>
        <time>2019-12-31T14:53:33Z</time>
      </trkpt>
      <trkpt lat="38.324777" lon="-0.669470">
        <ele>256</ele>
        <time>2019-12-31T14:53:34Z</time>
      </trkpt>
      <trkpt lat="38.324782" lon="-0.669528">
        <ele>256.2</ele>
        <time>2019-12-31T14:53:35Z</time>
      </trkpt>
      <trkpt lat="38.324785" lon="-0.669585">
        <ele>256</ele>
        <time>2019-12-31T14:53:36Z</time>
      </trkpt>
      <trkpt lat="38.324787" lon="-0.669641">
        <ele>256.2</ele>
        <time>2019-12-31T14:53:37Z</time>
      </trkpt>
      <trkpt lat="38.324788" lon="-0.669697">
        <ele>256.4</ele>
        <time>2019-12-31T14:53:38Z</time>
      </trkpt>
      <trkpt lat="38.324787" lon="-0.669754">
        <ele>256.4</ele>
        <time>2019-12-31T14:53:39Z</time>
      </trkpt>
      <trkpt lat="38.324785" lon="-0.669810">
        <ele>256.6</ele>
        <time>2019-12-31T14:53:40Z</time>
      </trkpt>
      <trkpt lat="38.324781" lon="-0.669867">
        <ele>256.6</ele>
        <time>2019-12-31T14:53:41Z</time>
      </trkpt>
      <trkpt lat="38.324776" lon="-0.669924">
        <ele>256.6</ele>
        <time>2019-12-31T14:53:42Z</time>
      </trkpt>
      <trkpt lat="38.324770" lon="-0.669979">
        <ele>256.8</ele>
        <time>2019-12-31T14:53:43Z</time>
      </trkpt>
      <trkpt lat="38.324764" lon="-0.670034">
        <ele>257.2</ele>
        <time>2019-12-31T14:53:44Z</time>
      </trkpt>
      <trkpt lat="38.324758" lon="-0.670089">
        <ele>257.4</ele>
        <time>2019-12-31T14:53:45Z</time>
      </trkpt>
      <trkpt lat="38.324752" lon="-0.670144">
        <ele>257.6</ele>
        <time>2019-12-31T14:53:46Z</time>
      </trkpt>
      <trkpt lat="38.324743" lon="-0.670198">
        <ele>258</ele>
        <time>2019-12-31T14:53:47Z</time>
      </trkpt>
      <trkpt lat="38.324733" lon="-0.670253">
        <ele>257.8</ele>
        <time>2019-12-31T14:53:48Z</time>
      </trkpt>
      <trkpt lat="38.324724" lon="-0.670311">
        <ele>258</ele>
        <time>2019-12-31T14:53:49Z</time>
      </trkpt>
      <trkpt lat="38.324714" lon="-0.670366">
        <ele>258.2</ele>
        <time>2019-12-31T14:53:50Z</time>
      </trkpt>
      <trkpt lat="38.324703" lon="-0.670422">
        <ele>258.4</ele>
        <time>2019-12-31T14:53:51Z</time>
      </trkpt>
      <trkpt lat="38.324690" lon="-0.670476">
        <ele>258.4</ele>
        <time>2019-12-31T14:53:52Z</time>
      </trkpt>
      <trkpt lat="38.324676" lon="-0.670531">
        <ele>258.6</ele>
        <time>2019-12-31T14:53:53Z</time>
      </trkpt>
      <trkpt lat="38.324660" lon="-0.670585">
        <ele>259</ele>
        <time>2019-12-31T14:53:54Z</time>
      </trkpt>
      <trkpt lat="38.324645" lon="-0.670641">
        <ele>259</ele>
        <time>2019-12-31T14:53:55Z</time>
      </trkpt>
      <trkpt lat="38.324629" lon="-0.670697">
        <ele>259.2</ele>
        <time>2019-12-31T14:53:56Z</time>
      </trkpt>
      <trkpt lat="38.324612" lon="-0.670752">
        <ele>259</ele>
        <time>2019-12-31T14:53:57Z</time>
      </trkpt>
      <trkpt lat="38.324596" lon="-0.670808">
        <ele>259.2</ele>
        <time>2019-12-31T14:53:58Z</time>
      </trkpt>
      <trkpt lat="38.324596" lon="-0.670808">
        <ele>259.2</ele>
        <time>2019-12-31T14:53:59Z</time>
      </trkpt>
      <trkpt lat="38.324562" lon="-0.670925">
        <ele>259.4</ele>
        <time>2019-12-31T14:54:00Z</time>
      </trkpt>
      <trkpt lat="38.324545" lon="-0.670984">
        <ele>259.2</ele>
        <time>2019-12-31T14:54:01Z</time>
      </trkpt>
      <trkpt lat="38.324529" lon="-0.671044">
        <ele>259.2</ele>
        <time>2019-12-31T14:54:02Z</time>
      </trkpt>
      <trkpt lat="38.324514" lon="-0.671107">
        <ele>259.2</ele>
        <time>2019-12-31T14:54:03Z</time>
      </trkpt>
      <trkpt lat="38.324503" lon="-0.671171">
        <ele>259.2</ele>
        <time>2019-12-31T14:54:04Z</time>
      </trkpt>
      <trkpt lat="38.324501" lon="-0.671238">
        <ele>259.2</ele>
        <time>2019-12-31T14:54:05Z</time>
      </trkpt>
      <trkpt lat="38.324507" lon="-0.671302">
        <ele>259.2</ele>
        <time>2019-12-31T14:54:06Z</time>
      </trkpt>
      <trkpt lat="38.324522" lon="-0.671366">
        <ele>259.2</ele>
        <time>2019-12-31T14:54:07Z</time>
      </trkpt>
      <trkpt lat="38.324550" lon="-0.671425">
        <ele>259.4</ele>
        <time>2019-12-31T14:54:08Z</time>
      </trkpt>
      <trkpt lat="38.324585" lon="-0.671479">
        <ele>259.2</ele>
        <time>2019-12-31T14:54:09Z</time>
      </trkpt>
      <trkpt lat="38.324626" lon="-0.671529">
        <ele>259.2</ele>
        <time>2019-12-31T14:54:10Z</time>
      </trkpt>
      <trkpt lat="38.324673" lon="-0.671574">
        <ele>259</ele>
        <time>2019-12-31T14:54:11Z</time>
      </trkpt>
      <trkpt lat="38.324673" lon="-0.671574">
        <ele>259.2</ele>
        <time>2019-12-31T14:54:12Z</time>
      </trkpt>
      <trkpt lat="38.324763" lon="-0.671666">
        <ele>259.2</ele>
        <time>2019-12-31T14:54:13Z</time>
      </trkpt>
      <trkpt lat="38.324805" lon="-0.671717">
        <ele>259.2</ele>
        <time>2019-12-31T14:54:14Z</time>
      </trkpt>
      <trkpt lat="38.324840" lon="-0.671772">
        <ele>259.2</ele>
        <time>2019-12-31T14:54:15Z</time>
      </trkpt>
      <trkpt lat="38.324869" lon="-0.671831">
        <ele>259.4</ele>
        <time>2019-12-31T14:54:16Z</time>
      </trkpt>
      <trkpt lat="38.324892" lon="-0.671891">
        <ele>259.6</ele>
        <time>2019-12-31T14:54:17Z</time>
      </trkpt>
      <trkpt lat="38.324905" lon="-0.671950">
        <ele>259.8</ele>
        <time>2019-12-31T14:54:18Z</time>
      </trkpt>
      <trkpt lat="38.324912" lon="-0.672003">
        <ele>260</ele>
        <time>2019-12-31T14:54:19Z</time>
      </trkpt>
      <trkpt lat="38.324915" lon="-0.672056">
        <ele>260.2</ele>
        <time>2019-12-31T14:54:20Z</time>
      </trkpt>
      <trkpt lat="38.324919" lon="-0.672104">
        <ele>260.6</ele>
        <time>2019-12-31T14:54:21Z</time>
      </trkpt>
      <trkpt lat="38.324920" lon="-0.672148">
        <ele>260.8</ele>
        <time>2019-12-31T14:54:22Z</time>
      </trkpt>
      <trkpt lat="38.324920" lon="-0.672188">
        <ele>261.2</ele>
        <time>2019-12-31T14:54:23Z</time>
      </trkpt>
      <trkpt lat="38.324917" lon="-0.672227">
        <ele>261.6</ele>
        <time>2019-12-31T14:54:24Z</time>
      </trkpt>
      <trkpt lat="38.324915" lon="-0.672265">
        <ele>262</ele>
        <time>2019-12-31T14:54:25Z</time>
      </trkpt>
      <trkpt lat="38.324913" lon="-0.672301">
        <ele>262.2</ele>
        <time>2019-12-31T14:54:26Z</time>
      </trkpt>
      <trkpt lat="38.324912" lon="-0.672337">
        <ele>262.6</ele>
        <time>2019-12-31T14:54:27Z</time>
      </trkpt>
      <trkpt lat="38.324908" lon="-0.672373">
        <ele>262.8</ele>
        <time>2019-12-31T14:54:28Z</time>
      </trkpt>
      <trkpt lat="38.324905" lon="-0.672410">
        <ele>263</ele>
        <time>2019-12-31T14:54:29Z</time>
      </trkpt>
      <trkpt lat="38.324902" lon="-0.672446">
        <ele>263.4</ele>
        <time>2019-12-31T14:54:30Z</time>
      </trkpt>
      <trkpt lat="38.324896" lon="-0.672479">
        <ele>263.6</ele>
        <time>2019-12-31T14:54:31Z</time>
      </trkpt>
      <trkpt lat="38.324889" lon="-0.672516">
        <ele>263.8</ele>
        <time>2019-12-31T14:54:32Z</time>
      </trkpt>
      <trkpt lat="38.324885" lon="-0.672554">
        <ele>264</ele>
        <time>2019-12-31T14:54:33Z</time>
      </trkpt>
      <trkpt lat="38.324883" lon="-0.672594">
        <ele>264.4</ele>
        <time>2019-12-31T14:54:34Z</time>
      </trkpt>
      <trkpt lat="38.324880" lon="-0.672635">
        <ele>264.4</ele>
        <time>2019-12-31T14:54:35Z</time>
      </trkpt>
      <trkpt lat="38.324877" lon="-0.672676">
        <ele>264.6</ele>
        <time>2019-12-31T14:54:36Z</time>
      </trkpt>
      <trkpt lat="38.324877" lon="-0.672676">
        <ele>264.6</ele>
        <time>2019-12-31T14:54:37Z</time>
      </trkpt>
      <trkpt lat="38.324876" lon="-0.672761">
        <ele>265</ele>
        <time>2019-12-31T14:54:38Z</time>
      </trkpt>
      <trkpt lat="38.324880" lon="-0.672805">
        <ele>265</ele>
        <time>2019-12-31T14:54:39Z</time>
      </trkpt>
      <trkpt lat="38.324886" lon="-0.672848">
        <ele>265</ele>
        <time>2019-12-31T14:54:40Z</time>
      </trkpt>
      <trkpt lat="38.324889" lon="-0.672893">
        <ele>265.2</ele>
        <time>2019-12-31T14:54:41Z</time>
      </trkpt>
      <trkpt lat="38.324892" lon="-0.672938">
        <ele>265.2</ele>
        <time>2019-12-31T14:54:42Z</time>
      </trkpt>
      <trkpt lat="38.324893" lon="-0.672984">
        <ele>265.2</ele>
        <time>2019-12-31T14:54:43Z</time>
      </trkpt>
      <trkpt lat="38.324896" lon="-0.673032">
        <ele>265.4</ele>
        <time>2019-12-31T14:54:44Z</time>
      </trkpt>
      <trkpt lat="38.324899" lon="-0.673080">
        <ele>265.4</ele>
        <time>2019-12-31T14:54:45Z</time>
      </trkpt>
      <trkpt lat="38.324903" lon="-0.673129">
        <ele>265.4</ele>
        <time>2019-12-31T14:54:46Z</time>
      </trkpt>
      <trkpt lat="38.324907" lon="-0.673178">
        <ele>265.6</ele>
        <time>2019-12-31T14:54:47Z</time>
      </trkpt>
      <trkpt lat="38.324911" lon="-0.673226">
        <ele>265.8</ele>
        <time>2019-12-31T14:54:48Z</time>
      </trkpt>
      <trkpt lat="38.324911" lon="-0.673276">
        <ele>265.8</ele>
        <time>2019-12-31T14:54:49Z</time>
      </trkpt>
      <trkpt lat="38.324913" lon="-0.673327">
        <ele>265.8</ele>
        <time>2019-12-31T14:54:50Z</time>
      </trkpt>
      <trkpt lat="38.324913" lon="-0.673379">
        <ele>265.8</ele>
        <time>2019-12-31T14:54:51Z</time>
      </trkpt>
      <trkpt lat="38.324913" lon="-0.673431">
        <ele>266</ele>
        <time>2019-12-31T14:54:52Z</time>
      </trkpt>
      <trkpt lat="38.324913" lon="-0.673482">
        <ele>266.2</ele>
        <time>2019-12-31T14:54:53Z</time>
      </trkpt>
      <trkpt lat="38.324916" lon="-0.673530">
        <ele>266.2</ele>
        <time>2019-12-31T14:54:54Z</time>
      </trkpt>
      <trkpt lat="38.324919" lon="-0.673580">
        <ele>266.4</ele>
        <time>2019-12-31T14:54:55Z</time>
      </trkpt>
      <trkpt lat="38.324922" lon="-0.673630">
        <ele>266.2</ele>
        <time>2019-12-31T14:54:56Z</time>
      </trkpt>
      <trkpt lat="38.324925" lon="-0.673682">
        <ele>266.4</ele>
        <time>2019-12-31T14:54:57Z</time>
      </trkpt>
      <trkpt lat="38.324931" lon="-0.673733">
        <ele>266.6</ele>
        <time>2019-12-31T14:54:58Z</time>
      </trkpt>
      <trkpt lat="38.324939" lon="-0.673785">
        <ele>266.6</ele>
        <time>2019-12-31T14:54:59Z</time>
      </trkpt>
      <trkpt lat="38.324950" lon="-0.673836">
        <ele>266.8</ele>
        <time>2019-12-31T14:55:00Z</time>
      </trkpt>
      <trkpt lat="38.324961" lon="-0.673887">
        <ele>266.8</ele>
        <time>2019-12-31T14:55:01Z</time>
      </trkpt>
      <trkpt lat="38.324975" lon="-0.673937">
        <ele>267</ele>
        <time>2019-12-31T14:55:02Z</time>
      </trkpt>
      <trkpt lat="38.324989" lon="-0.673987">
        <ele>267.2</ele>
        <time>2019-12-31T14:55:03Z</time>
      </trkpt>
      <trkpt lat="38.325008" lon="-0.674031">
        <ele>267.6</ele>
        <time>2019-12-31T14:55:04Z</time>
      </trkpt>
      <trkpt lat="38.325027" lon="-0.674073">
        <ele>267.6</ele>
        <time>2019-12-31T14:55:05Z</time>
      </trkpt>
      <trkpt lat="38.325044" lon="-0.674114">
        <ele>268</ele>
        <time>2019-12-31T14:55:06Z</time>
      </trkpt>
      <trkpt lat="38.325061" lon="-0.674152">
        <ele>267.8</ele>
        <time>2019-12-31T14:55:07Z</time>
      </trkpt>
      <trkpt lat="38.325078" lon="-0.674188">
        <ele>268.2</ele>
        <time>2019-12-31T14:55:08Z</time>
      </trkpt>
      <trkpt lat="38.325095" lon="-0.674224">
        <ele>268.6</ele>
        <time>2019-12-31T14:55:09Z</time>
      </trkpt>
      <trkpt lat="38.325112" lon="-0.674258">
        <ele>268.6</ele>
        <time>2019-12-31T14:55:10Z</time>
      </trkpt>
      <trkpt lat="38.325130" lon="-0.674291">
        <ele>268.8</ele>
        <time>2019-12-31T14:55:11Z</time>
      </trkpt>
      <trkpt lat="38.325146" lon="-0.674326">
        <ele>269.2</ele>
        <time>2019-12-31T14:55:12Z</time>
      </trkpt>
      <trkpt lat="38.325163" lon="-0.674361">
        <ele>269.2</ele>
        <time>2019-12-31T14:55:13Z</time>
      </trkpt>
      <trkpt lat="38.325180" lon="-0.674396">
        <ele>269.6</ele>
        <time>2019-12-31T14:55:14Z</time>
      </trkpt>
      <trkpt lat="38.325197" lon="-0.674434">
        <ele>269.8</ele>
        <time>2019-12-31T14:55:15Z</time>
      </trkpt>
      <trkpt lat="38.325215" lon="-0.674471">
        <ele>269.8</ele>
        <time>2019-12-31T14:55:16Z</time>
      </trkpt>
      <trkpt lat="38.325231" lon="-0.674509">
        <ele>269.8</ele>
        <time>2019-12-31T14:55:17Z</time>
      </trkpt>
      <trkpt lat="38.325246" lon="-0.674550">
        <ele>270.2</ele>
        <time>2019-12-31T14:55:18Z</time>
      </trkpt>
      <trkpt lat="38.325259" lon="-0.674594">
        <ele>270.2</ele>
        <time>2019-12-31T14:55:19Z</time>
      </trkpt>
      <trkpt lat="38.325271" lon="-0.674639">
        <ele>270.4</ele>
        <time>2019-12-31T14:55:20Z</time>
      </trkpt>
      <trkpt lat="38.325281" lon="-0.674683">
        <ele>270.4</ele>
        <time>2019-12-31T14:55:21Z</time>
      </trkpt>
      <trkpt lat="38.325290" lon="-0.674729">
        <ele>270.4</ele>
        <time>2019-12-31T14:55:22Z</time>
      </trkpt>
      <trkpt lat="38.325300" lon="-0.674775">
        <ele>270.6</ele>
        <time>2019-12-31T14:55:23Z</time>
      </trkpt>
      <trkpt lat="38.325308" lon="-0.674822">
        <ele>270.8</ele>
        <time>2019-12-31T14:55:24Z</time>
      </trkpt>
      <trkpt lat="38.325308" lon="-0.674822">
        <ele>270.8</ele>
        <time>2019-12-31T14:55:25Z</time>
      </trkpt>
      <trkpt lat="38.325323" lon="-0.674917">
        <ele>271</ele>
        <time>2019-12-31T14:55:26Z</time>
      </trkpt>
      <trkpt lat="38.325330" lon="-0.674964">
        <ele>271</ele>
        <time>2019-12-31T14:55:27Z</time>
      </trkpt>
      <trkpt lat="38.325338" lon="-0.675011">
        <ele>271</ele>
        <time>2019-12-31T14:55:28Z</time>
      </trkpt>
      <trkpt lat="38.325338" lon="-0.675011">
        <ele>271.2</ele>
        <time>2019-12-31T14:55:29Z</time>
      </trkpt>
      <trkpt lat="38.325353" lon="-0.675104">
        <ele>271.6</ele>
        <time>2019-12-31T14:55:30Z</time>
      </trkpt>
      <trkpt lat="38.325360" lon="-0.675150">
        <ele>271.8</ele>
        <time>2019-12-31T14:55:31Z</time>
      </trkpt>
      <trkpt lat="38.325369" lon="-0.675196">
        <ele>271.8</ele>
        <time>2019-12-31T14:55:32Z</time>
      </trkpt>
      <trkpt lat="38.325383" lon="-0.675240">
        <ele>271.8</ele>
        <time>2019-12-31T14:55:33Z</time>
      </trkpt>
      <trkpt lat="38.325397" lon="-0.675283">
        <ele>271.8</ele>
        <time>2019-12-31T14:55:34Z</time>
      </trkpt>
      <trkpt lat="38.325410" lon="-0.675330">
        <ele>272</ele>
        <time>2019-12-31T14:55:35Z</time>
      </trkpt>
      <trkpt lat="38.325425" lon="-0.675376">
        <ele>271.8</ele>
        <time>2019-12-31T14:55:36Z</time>
      </trkpt>
      <trkpt lat="38.325440" lon="-0.675424">
        <ele>272</ele>
        <time>2019-12-31T14:55:37Z</time>
      </trkpt>
      <trkpt lat="38.325455" lon="-0.675474">
        <ele>272</ele>
        <time>2019-12-31T14:55:38Z</time>
      </trkpt>
      <trkpt lat="38.325469" lon="-0.675526">
        <ele>272</ele>
        <time>2019-12-31T14:55:39Z</time>
      </trkpt>
      <trkpt lat="38.325485" lon="-0.675578">
        <ele>272</ele>
        <time>2019-12-31T14:55:40Z</time>
      </trkpt>
      <trkpt lat="38.325501" lon="-0.675631">
        <ele>272</ele>
        <time>2019-12-31T14:55:41Z</time>
      </trkpt>
      <trkpt lat="38.325517" lon="-0.675684">
        <ele>271.8</ele>
        <time>2019-12-31T14:55:42Z</time>
      </trkpt>
      <trkpt lat="38.325532" lon="-0.675739">
        <ele>272</ele>
        <time>2019-12-31T14:55:43Z</time>
      </trkpt>
      <trkpt lat="38.325543" lon="-0.675795">
        <ele>272.2</ele>
        <time>2019-12-31T14:55:44Z</time>
      </trkpt>
      <trkpt lat="38.325551" lon="-0.675852">
        <ele>272.4</ele>
        <time>2019-12-31T14:55:45Z</time>
      </trkpt>
      <trkpt lat="38.325555" lon="-0.675909">
        <ele>272.4</ele>
        <time>2019-12-31T14:55:46Z</time>
      </trkpt>
      <trkpt lat="38.325554" lon="-0.675965">
        <ele>272.4</ele>
        <time>2019-12-31T14:55:47Z</time>
      </trkpt>
      <trkpt lat="38.325552" lon="-0.676021">
        <ele>272.4</ele>
        <time>2019-12-31T14:55:48Z</time>
      </trkpt>
      <trkpt lat="38.325547" lon="-0.676077">
        <ele>272.6</ele>
        <time>2019-12-31T14:55:49Z</time>
      </trkpt>
      <trkpt lat="38.325539" lon="-0.676130">
        <ele>272.6</ele>
        <time>2019-12-31T14:55:50Z</time>
      </trkpt>
      <trkpt lat="38.325530" lon="-0.676181">
        <ele>272.8</ele>
        <time>2019-12-31T14:55:51Z</time>
      </trkpt>
      <trkpt lat="38.325523" lon="-0.676231">
        <ele>273</ele>
        <time>2019-12-31T14:55:52Z</time>
      </trkpt>
      <trkpt lat="38.325518" lon="-0.676281">
        <ele>273</ele>
        <time>2019-12-31T14:55:53Z</time>
      </trkpt>
      <trkpt lat="38.325514" lon="-0.676331">
        <ele>273.2</ele>
        <time>2019-12-31T14:55:54Z</time>
      </trkpt>
      <trkpt lat="38.325515" lon="-0.676380">
        <ele>273.4</ele>
        <time>2019-12-31T14:55:55Z</time>
      </trkpt>
      <trkpt lat="38.325519" lon="-0.676428">
        <ele>273.4</ele>
        <time>2019-12-31T14:55:56Z</time>
      </trkpt>
      <trkpt lat="38.325528" lon="-0.676475">
        <ele>273.8</ele>
        <time>2019-12-31T14:55:57Z</time>
      </trkpt>
      <trkpt lat="38.325537" lon="-0.676518">
        <ele>274</ele>
        <time>2019-12-31T14:55:58Z</time>
      </trkpt>
      <trkpt lat="38.325549" lon="-0.676557">
        <ele>274</ele>
        <time>2019-12-31T14:55:59Z</time>
      </trkpt>
      <trkpt lat="38.325563" lon="-0.676595">
        <ele>274.4</ele>
        <time>2019-12-31T14:56:00Z</time>
      </trkpt>
      <trkpt lat="38.325576" lon="-0.676632">
        <ele>274.4</ele>
        <time>2019-12-31T14:56:01Z</time>
      </trkpt>
      <trkpt lat="38.325589" lon="-0.676668">
        <ele>274.8</ele>
        <time>2019-12-31T14:56:02Z</time>
      </trkpt>
      <trkpt lat="38.325604" lon="-0.676704">
        <ele>275</ele>
        <time>2019-12-31T14:56:03Z</time>
      </trkpt>
      <trkpt lat="38.325618" lon="-0.676737">
        <ele>275.2</ele>
        <time>2019-12-31T14:56:04Z</time>
      </trkpt>
      <trkpt lat="38.325632" lon="-0.676770">
        <ele>275.4</ele>
        <time>2019-12-31T14:56:05Z</time>
      </trkpt>
      <trkpt lat="38.325647" lon="-0.676800">
        <ele>275.6</ele>
        <time>2019-12-31T14:56:06Z</time>
      </trkpt>
      <trkpt lat="38.325662" lon="-0.676830">
        <ele>276</ele>
        <time>2019-12-31T14:56:07Z</time>
      </trkpt>
      <trkpt lat="38.325677" lon="-0.676859">
        <ele>276.2</ele>
        <time>2019-12-31T14:56:08Z</time>
      </trkpt>
      <trkpt lat="38.325693" lon="-0.676889">
        <ele>276.4</ele>
        <time>2019-12-31T14:56:09Z</time>
      </trkpt>
      <trkpt lat="38.325707" lon="-0.676919">
        <ele>277</ele>
        <time>2019-12-31T14:56:10Z</time>
      </trkpt>
      <trkpt lat="38.325722" lon="-0.676950">
        <ele>277</ele>
        <time>2019-12-31T14:56:11Z</time>
      </trkpt>
      <trkpt lat="38.325739" lon="-0.676978">
        <ele>277.4</ele>
        <time>2019-12-31T14:56:12Z</time>
      </trkpt>
      <trkpt lat="38.325754" lon="-0.677007">
        <ele>277.6</ele>
        <time>2019-12-31T14:56:13Z</time>
      </trkpt>
      <trkpt lat="38.325768" lon="-0.677037">
        <ele>278</ele>
        <time>2019-12-31T14:56:14Z</time>
      </trkpt>
      <trkpt lat="38.325782" lon="-0.677069">
        <ele>278.2</ele>
        <time>2019-12-31T14:56:15Z</time>
      </trkpt>
      <trkpt lat="38.325795" lon="-0.677101">
        <ele>278.2</ele>
        <time>2019-12-31T14:56:16Z</time>
      </trkpt>
      <trkpt lat="38.325809" lon="-0.677133">
        <ele>278.6</ele>
        <time>2019-12-31T14:56:17Z</time>
      </trkpt>
      <trkpt lat="38.325824" lon="-0.677166">
        <ele>279</ele>
        <time>2019-12-31T14:56:18Z</time>
      </trkpt>
      <trkpt lat="38.325838" lon="-0.677198">
        <ele>279.2</ele>
        <time>2019-12-31T14:56:19Z</time>
      </trkpt>
      <trkpt lat="38.325851" lon="-0.677232">
        <ele>279.4</ele>
        <time>2019-12-31T14:56:20Z</time>
      </trkpt>
      <trkpt lat="38.325865" lon="-0.677265">
        <ele>279.6</ele>
        <time>2019-12-31T14:56:21Z</time>
      </trkpt>
      <trkpt lat="38.325878" lon="-0.677300">
        <ele>280</ele>
        <time>2019-12-31T14:56:22Z</time>
      </trkpt>
      <trkpt lat="38.325890" lon="-0.677335">
        <ele>280.2</ele>
        <time>2019-12-31T14:56:23Z</time>
      </trkpt>
      <trkpt lat="38.325901" lon="-0.677372">
        <ele>280.2</ele>
        <time>2019-12-31T14:56:24Z</time>
      </trkpt>
      <trkpt lat="38.325913" lon="-0.677408">
        <ele>280.4</ele>
        <time>2019-12-31T14:56:25Z</time>
      </trkpt>
      <trkpt lat="38.325927" lon="-0.677444">
        <ele>280.6</ele>
        <time>2019-12-31T14:56:26Z</time>
      </trkpt>
      <trkpt lat="38.325939" lon="-0.677482">
        <ele>280.8</ele>
        <time>2019-12-31T14:56:27Z</time>
      </trkpt>
      <trkpt lat="38.325951" lon="-0.677519">
        <ele>281</ele>
        <time>2019-12-31T14:56:28Z</time>
      </trkpt>
      <trkpt lat="38.325962" lon="-0.677555">
        <ele>281.4</ele>
        <time>2019-12-31T14:56:29Z</time>
      </trkpt>
      <trkpt lat="38.325972" lon="-0.677592">
        <ele>281.6</ele>
        <time>2019-12-31T14:56:30Z</time>
      </trkpt>
      <trkpt lat="38.325983" lon="-0.677629">
        <ele>281.6</ele>
        <time>2019-12-31T14:56:31Z</time>
      </trkpt>
      <trkpt lat="38.325993" lon="-0.677665">
        <ele>282</ele>
        <time>2019-12-31T14:56:32Z</time>
      </trkpt>
      <trkpt lat="38.326004" lon="-0.677703">
        <ele>282.2</ele>
        <time>2019-12-31T14:56:33Z</time>
      </trkpt>
      <trkpt lat="38.326013" lon="-0.677740">
        <ele>282.4</ele>
        <time>2019-12-31T14:56:34Z</time>
      </trkpt>
      <trkpt lat="38.326023" lon="-0.677777">
        <ele>282.4</ele>
        <time>2019-12-31T14:56:35Z</time>
      </trkpt>
      <trkpt lat="38.326032" lon="-0.677815">
        <ele>282.6</ele>
        <time>2019-12-31T14:56:36Z</time>
      </trkpt>
      <trkpt lat="38.326041" lon="-0.677852">
        <ele>282.8</ele>
        <time>2019-12-31T14:56:37Z</time>
      </trkpt>
      <trkpt lat="38.326049" lon="-0.677890">
        <ele>283</ele>
        <time>2019-12-31T14:56:38Z</time>
      </trkpt>
      <trkpt lat="38.326058" lon="-0.677929">
        <ele>283.2</ele>
        <time>2019-12-31T14:56:39Z</time>
      </trkpt>
      <trkpt lat="38.326067" lon="-0.677969">
        <ele>283.2</ele>
        <time>2019-12-31T14:56:40Z</time>
      </trkpt>
      <trkpt lat="38.326077" lon="-0.678010">
        <ele>283.4</ele>
        <time>2019-12-31T14:56:41Z</time>
      </trkpt>
      <trkpt lat="38.326087" lon="-0.678050">
        <ele>283.6</ele>
        <time>2019-12-31T14:56:42Z</time>
      </trkpt>
      <trkpt lat="38.326097" lon="-0.678090">
        <ele>283.6</ele>
        <time>2019-12-31T14:56:43Z</time>
      </trkpt>
      <trkpt lat="38.326106" lon="-0.678131">
        <ele>283.8</ele>
        <time>2019-12-31T14:56:44Z</time>
      </trkpt>
      <trkpt lat="38.326114" lon="-0.678172">
        <ele>284.2</ele>
        <time>2019-12-31T14:56:45Z</time>
      </trkpt>
      <trkpt lat="38.326120" lon="-0.678211">
        <ele>284</ele>
        <time>2019-12-31T14:56:46Z</time>
      </trkpt>
      <trkpt lat="38.326126" lon="-0.678250">
        <ele>284.2</ele>
        <time>2019-12-31T14:56:47Z</time>
      </trkpt>
      <trkpt lat="38.326133" lon="-0.678288">
        <ele>284.6</ele>
        <time>2019-12-31T14:56:48Z</time>
      </trkpt>
      <trkpt lat="38.326141" lon="-0.678323">
        <ele>284.6</ele>
        <time>2019-12-31T14:56:49Z</time>
      </trkpt>
      <trkpt lat="38.326149" lon="-0.678356">
        <ele>285</ele>
        <time>2019-12-31T14:56:50Z</time>
      </trkpt>
      <trkpt lat="38.326154" lon="-0.678391">
        <ele>285.4</ele>
        <time>2019-12-31T14:56:51Z</time>
      </trkpt>
      <trkpt lat="38.326159" lon="-0.678426">
        <ele>285.4</ele>
        <time>2019-12-31T14:56:52Z</time>
      </trkpt>
      <trkpt lat="38.326162" lon="-0.678463">
        <ele>285.8</ele>
        <time>2019-12-31T14:56:53Z</time>
      </trkpt>
      <trkpt lat="38.326166" lon="-0.678502">
        <ele>286.2</ele>
        <time>2019-12-31T14:56:54Z</time>
      </trkpt>
      <trkpt lat="38.326171" lon="-0.678539">
        <ele>286.2</ele>
        <time>2019-12-31T14:56:55Z</time>
      </trkpt>
      <trkpt lat="38.326176" lon="-0.678576">
        <ele>286.2</ele>
        <time>2019-12-31T14:56:56Z</time>
      </trkpt>
      <trkpt lat="38.326179" lon="-0.678613">
        <ele>286.6</ele>
        <time>2019-12-31T14:56:57Z</time>
      </trkpt>
      <trkpt lat="38.326182" lon="-0.678649">
        <ele>286.6</ele>
        <time>2019-12-31T14:56:58Z</time>
      </trkpt>
      <trkpt lat="38.326184" lon="-0.678686">
        <ele>286.8</ele>
        <time>2019-12-31T14:56:59Z</time>
      </trkpt>
      <trkpt lat="38.326187" lon="-0.678725">
        <ele>287</ele>
        <time>2019-12-31T14:57:00Z</time>
      </trkpt>
      <trkpt lat="38.326192" lon="-0.678764">
        <ele>287.2</ele>
        <time>2019-12-31T14:57:01Z</time>
      </trkpt>
      <trkpt lat="38.326197" lon="-0.678802">
        <ele>287.2</ele>
        <time>2019-12-31T14:57:02Z</time>
      </trkpt>
      <trkpt lat="38.326202" lon="-0.678842">
        <ele>287.4</ele>
        <time>2019-12-31T14:57:03Z</time>
      </trkpt>
      <trkpt lat="38.326207" lon="-0.678882">
        <ele>287.8</ele>
        <time>2019-12-31T14:57:04Z</time>
      </trkpt>
      <trkpt lat="38.326210" lon="-0.678921">
        <ele>287.8</ele>
        <time>2019-12-31T14:57:05Z</time>
      </trkpt>
      <trkpt lat="38.326213" lon="-0.678961">
        <ele>288</ele>
        <time>2019-12-31T14:57:06Z</time>
      </trkpt>
      <trkpt lat="38.326217" lon="-0.679001">
        <ele>288.2</ele>
        <time>2019-12-31T14:57:07Z</time>
      </trkpt>
      <trkpt lat="38.326223" lon="-0.679042">
        <ele>288.2</ele>
        <time>2019-12-31T14:57:08Z</time>
      </trkpt>
      <trkpt lat="38.326232" lon="-0.679082">
        <ele>288.6</ele>
        <time>2019-12-31T14:57:09Z</time>
      </trkpt>
      <trkpt lat="38.326242" lon="-0.679122">
        <ele>288.6</ele>
        <time>2019-12-31T14:57:10Z</time>
      </trkpt>
      <trkpt lat="38.326242" lon="-0.679122">
        <ele>288.8</ele>
        <time>2019-12-31T14:57:11Z</time>
      </trkpt>
      <trkpt lat="38.326263" lon="-0.679205">
        <ele>288.8</ele>
        <time>2019-12-31T14:57:12Z</time>
      </trkpt>
      <trkpt lat="38.326276" lon="-0.679247">
        <ele>289.4</ele>
        <time>2019-12-31T14:57:13Z</time>
      </trkpt>
      <trkpt lat="38.326288" lon="-0.679290">
        <ele>289.4</ele>
        <time>2019-12-31T14:57:14Z</time>
      </trkpt>
      <trkpt lat="38.326299" lon="-0.679334">
        <ele>289.6</ele>
        <time>2019-12-31T14:57:15Z</time>
      </trkpt>
      <trkpt lat="38.326310" lon="-0.679379">
        <ele>289.8</ele>
        <time>2019-12-31T14:57:16Z</time>
      </trkpt>
      <trkpt lat="38.326324" lon="-0.679424">
        <ele>289.8</ele>
        <time>2019-12-31T14:57:17Z</time>
      </trkpt>
      <trkpt lat="38.326340" lon="-0.679468">
        <ele>290</ele>
        <time>2019-12-31T14:57:18Z</time>
      </trkpt>
      <trkpt lat="38.326354" lon="-0.679512">
        <ele>290.2</ele>
        <time>2019-12-31T14:57:19Z</time>
      </trkpt>
      <trkpt lat="38.326368" lon="-0.679556">
        <ele>290.4</ele>
        <time>2019-12-31T14:57:20Z</time>
      </trkpt>
      <trkpt lat="38.326380" lon="-0.679603">
        <ele>290.4</ele>
        <time>2019-12-31T14:57:21Z</time>
      </trkpt>
      <trkpt lat="38.326392" lon="-0.679652">
        <ele>290.4</ele>
        <time>2019-12-31T14:57:22Z</time>
      </trkpt>
      <trkpt lat="38.326404" lon="-0.679702">
        <ele>290.4</ele>
        <time>2019-12-31T14:57:23Z</time>
      </trkpt>
      <trkpt lat="38.326418" lon="-0.679755">
        <ele>290.6</ele>
        <time>2019-12-31T14:57:24Z</time>
      </trkpt>
      <trkpt lat="38.326432" lon="-0.679808">
        <ele>290.6</ele>
        <time>2019-12-31T14:57:25Z</time>
      </trkpt>
      <trkpt lat="38.326446" lon="-0.679859">
        <ele>290.8</ele>
        <time>2019-12-31T14:57:26Z</time>
      </trkpt>
      <trkpt lat="38.326459" lon="-0.679913">
        <ele>291</ele>
        <time>2019-12-31T14:57:27Z</time>
      </trkpt>
      <trkpt lat="38.326473" lon="-0.679966">
        <ele>291.2</ele>
        <time>2019-12-31T14:57:28Z</time>
      </trkpt>
      <trkpt lat="38.326487" lon="-0.680019">
        <ele>291.2</ele>
        <time>2019-12-31T14:57:29Z</time>
      </trkpt>
      <trkpt lat="38.326499" lon="-0.680074">
        <ele>291.4</ele>
        <time>2019-12-31T14:57:30Z</time>
      </trkpt>
      <trkpt lat="38.326510" lon="-0.680127">
        <ele>291.8</ele>
        <time>2019-12-31T14:57:31Z</time>
      </trkpt>
      <trkpt lat="38.326519" lon="-0.680183">
        <ele>292</ele>
        <time>2019-12-31T14:57:32Z</time>
      </trkpt>
      <trkpt lat="38.326527" lon="-0.680241">
        <ele>292</ele>
        <time>2019-12-31T14:57:33Z</time>
      </trkpt>
      <trkpt lat="38.326539" lon="-0.680304">
        <ele>292</ele>
        <time>2019-12-31T14:57:34Z</time>
      </trkpt>
      <trkpt lat="38.326548" lon="-0.680366">
        <ele>292</ele>
        <time>2019-12-31T14:57:35Z</time>
      </trkpt>
      <trkpt lat="38.326551" lon="-0.680431">
        <ele>292.2</ele>
        <time>2019-12-31T14:57:36Z</time>
      </trkpt>
      <trkpt lat="38.326546" lon="-0.680497">
        <ele>292.4</ele>
        <time>2019-12-31T14:57:37Z</time>
      </trkpt>
      <trkpt lat="38.326528" lon="-0.680558">
        <ele>292.4</ele>
        <time>2019-12-31T14:57:38Z</time>
      </trkpt>
      <trkpt lat="38.326495" lon="-0.680609">
        <ele>292.6</ele>
        <time>2019-12-31T14:57:39Z</time>
      </trkpt>
      <trkpt lat="38.326446" lon="-0.680645">
        <ele>293</ele>
        <time>2019-12-31T14:57:40Z</time>
      </trkpt>
      <trkpt lat="38.326394" lon="-0.680649">
        <ele>293.4</ele>
        <time>2019-12-31T14:57:41Z</time>
      </trkpt>
      <trkpt lat="38.326343" lon="-0.680634">
        <ele>293.6</ele>
        <time>2019-12-31T14:57:42Z</time>
      </trkpt>
      <trkpt lat="38.326295" lon="-0.680605">
        <ele>293.8</ele>
        <time>2019-12-31T14:57:43Z</time>
      </trkpt>
      <trkpt lat="38.326247" lon="-0.680573">
        <ele>294.2</ele>
        <time>2019-12-31T14:57:44Z</time>
      </trkpt>
      <trkpt lat="38.326201" lon="-0.680535">
        <ele>294.4</ele>
        <time>2019-12-31T14:57:45Z</time>
      </trkpt>
      <trkpt lat="38.326159" lon="-0.680492">
        <ele>294.6</ele>
        <time>2019-12-31T14:57:46Z</time>
      </trkpt>
      <trkpt lat="38.326118" lon="-0.680446">
        <ele>294.8</ele>
        <time>2019-12-31T14:57:47Z</time>
      </trkpt>
      <trkpt lat="38.326079" lon="-0.680397">
        <ele>294.8</ele>
        <time>2019-12-31T14:57:48Z</time>
      </trkpt>
      <trkpt lat="38.326043" lon="-0.680340">
        <ele>295</ele>
        <time>2019-12-31T14:57:49Z</time>
      </trkpt>
      <trkpt lat="38.326007" lon="-0.680282">
        <ele>294.6</ele>
        <time>2019-12-31T14:57:50Z</time>
      </trkpt>
      <trkpt lat="38.325968" lon="-0.680223">
        <ele>294.6</ele>
        <time>2019-12-31T14:57:51Z</time>
      </trkpt>
      <trkpt lat="38.325925" lon="-0.680162">
        <ele>294.4</ele>
        <time>2019-12-31T14:57:52Z</time>
      </trkpt>
      <trkpt lat="38.325925" lon="-0.680162">
        <ele>294</ele>
        <time>2019-12-31T14:57:53Z</time>
      </trkpt>
      <trkpt lat="38.325814" lon="-0.680047">
        <ele>293</ele>
        <time>2019-12-31T14:57:54Z</time>
      </trkpt>
      <trkpt lat="38.325744" lon="-0.679998">
        <ele>292</ele>
        <time>2019-12-31T14:57:55Z</time>
      </trkpt>
      <trkpt lat="38.325667" lon="-0.679958">
        <ele>291.2</ele>
        <time>2019-12-31T14:57:56Z</time>
      </trkpt>
      <trkpt lat="38.325583" lon="-0.679929">
        <ele>290.2</ele>
        <time>2019-12-31T14:57:57Z</time>
      </trkpt>
      <trkpt lat="38.325494" lon="-0.679916">
        <ele>289.2</ele>
        <time>2019-12-31T14:57:58Z</time>
      </trkpt>
      <trkpt lat="38.325407" lon="-0.679921">
        <ele>288.6</ele>
        <time>2019-12-31T14:57:59Z</time>
      </trkpt>
      <trkpt lat="38.325317" lon="-0.679930">
        <ele>288.2</ele>
        <time>2019-12-31T14:58:00Z</time>
      </trkpt>
      <trkpt lat="38.325227" lon="-0.679945">
        <ele>287.8</ele>
        <time>2019-12-31T14:58:01Z</time>
      </trkpt>
      <trkpt lat="38.325140" lon="-0.679961">
        <ele>287</ele>
        <time>2019-12-31T14:58:02Z</time>
      </trkpt>
      <trkpt lat="38.325054" lon="-0.679976">
        <ele>287</ele>
        <time>2019-12-31T14:58:03Z</time>
      </trkpt>
      <trkpt lat="38.324969" lon="-0.679989">
        <ele>287</ele>
        <time>2019-12-31T14:58:04Z</time>
      </trkpt>
      <trkpt lat="38.324885" lon="-0.680001">
        <ele>287</ele>
        <time>2019-12-31T14:58:05Z</time>
      </trkpt>
      <trkpt lat="38.324801" lon="-0.680016">
        <ele>286.8</ele>
        <time>2019-12-31T14:58:06Z</time>
      </trkpt>
      <trkpt lat="38.324718" lon="-0.680040">
        <ele>286.4</ele>
        <time>2019-12-31T14:58:07Z</time>
      </trkpt>
      <trkpt lat="38.324635" lon="-0.680075">
        <ele>286</ele>
        <time>2019-12-31T14:58:08Z</time>
      </trkpt>
      <trkpt lat="38.324558" lon="-0.680121">
        <ele>285.6</ele>
        <time>2019-12-31T14:58:09Z</time>
      </trkpt>
      <trkpt lat="38.324480" lon="-0.680175">
        <ele>285.2</ele>
        <time>2019-12-31T14:58:10Z</time>
      </trkpt>
      <trkpt lat="38.324409" lon="-0.680235">
        <ele>284.8</ele>
        <time>2019-12-31T14:58:11Z</time>
      </trkpt>
      <trkpt lat="38.324341" lon="-0.680299">
        <ele>284.4</ele>
        <time>2019-12-31T14:58:12Z</time>
      </trkpt>
      <trkpt lat="38.324273" lon="-0.680364">
        <ele>284.4</ele>
        <time>2019-12-31T14:58:13Z</time>
      </trkpt>
      <trkpt lat="38.324205" lon="-0.680429">
        <ele>284</ele>
        <time>2019-12-31T14:58:14Z</time>
      </trkpt>
      <trkpt lat="38.324137" lon="-0.680497">
        <ele>283.6</ele>
        <time>2019-12-31T14:58:15Z</time>
      </trkpt>
      <trkpt lat="38.324072" lon="-0.680567">
        <ele>283.2</ele>
        <time>2019-12-31T14:58:16Z</time>
      </trkpt>
      <trkpt lat="38.324006" lon="-0.680639">
        <ele>283</ele>
        <time>2019-12-31T14:58:17Z</time>
      </trkpt>
      <trkpt lat="38.323938" lon="-0.680712">
        <ele>282.4</ele>
        <time>2019-12-31T14:58:18Z</time>
      </trkpt>
      <trkpt lat="38.323870" lon="-0.680786">
        <ele>281.8</ele>
        <time>2019-12-31T14:58:19Z</time>
      </trkpt>
      <trkpt lat="38.323870" lon="-0.680786">
        <ele>281.6</ele>
        <time>2019-12-31T14:58:20Z</time>
      </trkpt>
      <trkpt lat="38.323731" lon="-0.680938">
        <ele>281</ele>
        <time>2019-12-31T14:58:21Z</time>
      </trkpt>
      <trkpt lat="38.323662" lon="-0.681011">
        <ele>280.6</ele>
        <time>2019-12-31T14:58:22Z</time>
      </trkpt>
      <trkpt lat="38.323592" lon="-0.681082">
        <ele>280.4</ele>
        <time>2019-12-31T14:58:23Z</time>
      </trkpt>
      <trkpt lat="38.323521" lon="-0.681155">
        <ele>280</ele>
        <time>2019-12-31T14:58:24Z</time>
      </trkpt>
      <trkpt lat="38.323450" lon="-0.681229">
        <ele>279.6</ele>
        <time>2019-12-31T14:58:25Z</time>
      </trkpt>
      <trkpt lat="38.323377" lon="-0.681305">
        <ele>279</ele>
        <time>2019-12-31T14:58:26Z</time>
      </trkpt>
      <trkpt lat="38.323305" lon="-0.681380">
        <ele>278.6</ele>
        <time>2019-12-31T14:58:27Z</time>
      </trkpt>
      <trkpt lat="38.323232" lon="-0.681458">
        <ele>277.8</ele>
        <time>2019-12-31T14:58:28Z</time>
      </trkpt>
      <trkpt lat="38.323232" lon="-0.681458">
        <ele>277.4</ele>
        <time>2019-12-31T14:58:29Z</time>
      </trkpt>
      <trkpt lat="38.323087" lon="-0.681612">
        <ele>276.8</ele>
        <time>2019-12-31T14:58:30Z</time>
      </trkpt>
      <trkpt lat="38.323016" lon="-0.681688">
        <ele>276.6</ele>
        <time>2019-12-31T14:58:31Z</time>
      </trkpt>
      <trkpt lat="38.322945" lon="-0.681762">
        <ele>276.8</ele>
        <time>2019-12-31T14:58:32Z</time>
      </trkpt>
      <trkpt lat="38.322880" lon="-0.681834">
        <ele>277.2</ele>
        <time>2019-12-31T14:58:33Z</time>
      </trkpt>
      <trkpt lat="38.322818" lon="-0.681905">
        <ele>277.4</ele>
        <time>2019-12-31T14:58:34Z</time>
      </trkpt>
      <trkpt lat="38.322761" lon="-0.681973">
        <ele>277.8</ele>
        <time>2019-12-31T14:58:35Z</time>
      </trkpt>
      <trkpt lat="38.322712" lon="-0.682040">
        <ele>278</ele>
        <time>2019-12-31T14:58:36Z</time>
      </trkpt>
      <trkpt lat="38.322665" lon="-0.682107">
        <ele>278</ele>
        <time>2019-12-31T14:58:37Z</time>
      </trkpt>
      <trkpt lat="38.322615" lon="-0.682176">
        <ele>277.8</ele>
        <time>2019-12-31T14:58:38Z</time>
      </trkpt>
      <trkpt lat="38.322556" lon="-0.682241">
        <ele>277.2</ele>
        <time>2019-12-31T14:58:39Z</time>
      </trkpt>
      <trkpt lat="38.322488" lon="-0.682293">
        <ele>276.4</ele>
        <time>2019-12-31T14:58:40Z</time>
      </trkpt>
      <trkpt lat="38.322413" lon="-0.682322">
        <ele>275.8</ele>
        <time>2019-12-31T14:58:41Z</time>
      </trkpt>
      <trkpt lat="38.322346" lon="-0.682329">
        <ele>275.4</ele>
        <time>2019-12-31T14:58:42Z</time>
      </trkpt>
      <trkpt lat="38.322286" lon="-0.682319">
        <ele>275.8</ele>
        <time>2019-12-31T14:58:43Z</time>
      </trkpt>
      <trkpt lat="38.322227" lon="-0.682305">
        <ele>275.8</ele>
        <time>2019-12-31T14:58:44Z</time>
      </trkpt>
      <trkpt lat="38.322165" lon="-0.682290">
        <ele>275.8</ele>
        <time>2019-12-31T14:58:45Z</time>
      </trkpt>
      <trkpt lat="38.322104" lon="-0.682269">
        <ele>275.4</ele>
        <time>2019-12-31T14:58:46Z</time>
      </trkpt>
      <trkpt lat="38.322041" lon="-0.682243">
        <ele>275.2</ele>
        <time>2019-12-31T14:58:47Z</time>
      </trkpt>
      <trkpt lat="38.322041" lon="-0.682243">
        <ele>274.6</ele>
        <time>2019-12-31T14:58:48Z</time>
      </trkpt>
      <trkpt lat="38.321901" lon="-0.682178">
        <ele>273.8</ele>
        <time>2019-12-31T14:58:49Z</time>
      </trkpt>
      <trkpt lat="38.321826" lon="-0.682142">
        <ele>273</ele>
        <time>2019-12-31T14:58:50Z</time>
      </trkpt>
      <trkpt lat="38.321747" lon="-0.682104">
        <ele>272.6</ele>
        <time>2019-12-31T14:58:51Z</time>
      </trkpt>
      <trkpt lat="38.321664" lon="-0.682065">
        <ele>271.4</ele>
        <time>2019-12-31T14:58:52Z</time>
      </trkpt>
      <trkpt lat="38.321579" lon="-0.682023">
        <ele>270.6</ele>
        <time>2019-12-31T14:58:53Z</time>
      </trkpt>
      <trkpt lat="38.321493" lon="-0.681979">
        <ele>270.6</ele>
        <time>2019-12-31T14:58:54Z</time>
      </trkpt>
      <trkpt lat="38.321407" lon="-0.681939">
        <ele>269.4</ele>
        <time>2019-12-31T14:58:55Z</time>
      </trkpt>
      <trkpt lat="38.321319" lon="-0.681927">
        <ele>269</ele>
        <time>2019-12-31T14:58:56Z</time>
      </trkpt>
      <trkpt lat="38.321240" lon="-0.681960">
        <ele>268.4</ele>
        <time>2019-12-31T14:58:57Z</time>
      </trkpt>
      <trkpt lat="38.321174" lon="-0.682024">
        <ele>268.4</ele>
        <time>2019-12-31T14:58:58Z</time>
      </trkpt>
      <trkpt lat="38.321174" lon="-0.682024">
        <ele>268.4</ele>
        <time>2019-12-31T14:58:59Z</time>
      </trkpt>
      <trkpt lat="38.321073" lon="-0.682208">
        <ele>268.2</ele>
        <time>2019-12-31T14:59:00Z</time>
      </trkpt>
      <trkpt lat="38.321029" lon="-0.682307">
        <ele>268.2</ele>
        <time>2019-12-31T14:59:01Z</time>
      </trkpt>
      <trkpt lat="38.320984" lon="-0.682406">
        <ele>267.6</ele>
        <time>2019-12-31T14:59:02Z</time>
      </trkpt>
      <trkpt lat="38.320937" lon="-0.682504">
        <ele>267.6</ele>
        <time>2019-12-31T14:59:03Z</time>
      </trkpt>
      <trkpt lat="38.320889" lon="-0.682599">
        <ele>267.6</ele>
        <time>2019-12-31T14:59:04Z</time>
      </trkpt>
      <trkpt lat="38.320839" lon="-0.682691">
        <ele>267.8</ele>
        <time>2019-12-31T14:59:05Z</time>
      </trkpt>
      <trkpt lat="38.320793" lon="-0.682782">
        <ele>268.2</ele>
        <time>2019-12-31T14:59:06Z</time>
      </trkpt>
      <trkpt lat="38.320748" lon="-0.682870">
        <ele>268.2</ele>
        <time>2019-12-31T14:59:07Z</time>
      </trkpt>
      <trkpt lat="38.320707" lon="-0.682954">
        <ele>268.6</ele>
        <time>2019-12-31T14:59:08Z</time>
      </trkpt>
      <trkpt lat="38.320669" lon="-0.683039">
        <ele>269.2</ele>
        <time>2019-12-31T14:59:09Z</time>
      </trkpt>
      <trkpt lat="38.320632" lon="-0.683121">
        <ele>269.8</ele>
        <time>2019-12-31T14:59:10Z</time>
      </trkpt>
      <trkpt lat="38.320603" lon="-0.683203">
        <ele>270.2</ele>
        <time>2019-12-31T14:59:11Z</time>
      </trkpt>
      <trkpt lat="38.320584" lon="-0.683280">
        <ele>270.8</ele>
        <time>2019-12-31T14:59:12Z</time>
      </trkpt>
      <trkpt lat="38.320572" lon="-0.683360">
        <ele>271.4</ele>
        <time>2019-12-31T14:59:13Z</time>
      </trkpt>
      <trkpt lat="38.320566" lon="-0.683437">
        <ele>271.8</ele>
        <time>2019-12-31T14:59:14Z</time>
      </trkpt>
      <trkpt lat="38.320566" lon="-0.683437">
        <ele>272.2</ele>
        <time>2019-12-31T14:59:15Z</time>
      </trkpt>
      <trkpt lat="38.320553" lon="-0.683593">
        <ele>272.4</ele>
        <time>2019-12-31T14:59:16Z</time>
      </trkpt>
      <trkpt lat="38.320546" lon="-0.683672">
        <ele>272.4</ele>
        <time>2019-12-31T14:59:17Z</time>
      </trkpt>
      <trkpt lat="38.320538" lon="-0.683752">
        <ele>272.6</ele>
        <time>2019-12-31T14:59:18Z</time>
      </trkpt>
      <trkpt lat="38.320526" lon="-0.683831">
        <ele>272.8</ele>
        <time>2019-12-31T14:59:19Z</time>
      </trkpt>
      <trkpt lat="38.320515" lon="-0.683911">
        <ele>272.8</ele>
        <time>2019-12-31T14:59:20Z</time>
      </trkpt>
      <trkpt lat="38.320504" lon="-0.683992">
        <ele>272.8</ele>
        <time>2019-12-31T14:59:21Z</time>
      </trkpt>
      <trkpt lat="38.320493" lon="-0.684075">
        <ele>272.8</ele>
        <time>2019-12-31T14:59:22Z</time>
      </trkpt>
      <trkpt lat="38.320483" lon="-0.684157">
        <ele>273</ele>
        <time>2019-12-31T14:59:23Z</time>
      </trkpt>
      <trkpt lat="38.320473" lon="-0.684240">
        <ele>273.4</ele>
        <time>2019-12-31T14:59:24Z</time>
      </trkpt>
      <trkpt lat="38.320464" lon="-0.684324">
        <ele>273.4</ele>
        <time>2019-12-31T14:59:25Z</time>
      </trkpt>
      <trkpt lat="38.320455" lon="-0.684411">
        <ele>273.6</ele>
        <time>2019-12-31T14:59:26Z</time>
      </trkpt>
      <trkpt lat="38.320447" lon="-0.684497">
        <ele>273.8</ele>
        <time>2019-12-31T14:59:27Z</time>
      </trkpt>
      <trkpt lat="38.320441" lon="-0.684584">
        <ele>273.8</ele>
        <time>2019-12-31T14:59:28Z</time>
      </trkpt>
      <trkpt lat="38.320434" lon="-0.684672">
        <ele>274</ele>
        <time>2019-12-31T14:59:29Z</time>
      </trkpt>
      <trkpt lat="38.320426" lon="-0.684758">
        <ele>274</ele>
        <time>2019-12-31T14:59:30Z</time>
      </trkpt>
      <trkpt lat="38.320418" lon="-0.684841">
        <ele>274.4</ele>
        <time>2019-12-31T14:59:31Z</time>
      </trkpt>
      <trkpt lat="38.320409" lon="-0.684920">
        <ele>274.6</ele>
        <time>2019-12-31T14:59:32Z</time>
      </trkpt>
      <trkpt lat="38.320400" lon="-0.684995">
        <ele>275</ele>
        <time>2019-12-31T14:59:33Z</time>
      </trkpt>
      <trkpt lat="38.320391" lon="-0.685063">
        <ele>275.6</ele>
        <time>2019-12-31T14:59:34Z</time>
      </trkpt>
      <trkpt lat="38.320382" lon="-0.685128">
        <ele>276</ele>
        <time>2019-12-31T14:59:35Z</time>
      </trkpt>
      <trkpt lat="38.320372" lon="-0.685189">
        <ele>276.4</ele>
        <time>2019-12-31T14:59:36Z</time>
      </trkpt>
      <trkpt lat="38.320361" lon="-0.685252">
        <ele>276.6</ele>
        <time>2019-12-31T14:59:37Z</time>
      </trkpt>
      <trkpt lat="38.320350" lon="-0.685309">
        <ele>277</ele>
        <time>2019-12-31T14:59:38Z</time>
      </trkpt>
      <trkpt lat="38.320338" lon="-0.685365">
        <ele>277.2</ele>
        <time>2019-12-31T14:59:39Z</time>
      </trkpt>
      <trkpt lat="38.320327" lon="-0.685423">
        <ele>277.4</ele>
        <time>2019-12-31T14:59:40Z</time>
      </trkpt>
      <trkpt lat="38.320317" lon="-0.685480">
        <ele>277.8</ele>
        <time>2019-12-31T14:59:41Z</time>
      </trkpt>
      <trkpt lat="38.320309" lon="-0.685537">
        <ele>278</ele>
        <time>2019-12-31T14:59:42Z</time>
      </trkpt>
      <trkpt lat="38.320301" lon="-0.685593">
        <ele>278.2</ele>
        <time>2019-12-31T14:59:43Z</time>
      </trkpt>
      <trkpt lat="38.320301" lon="-0.685593">
        <ele>278.4</ele>
        <time>2019-12-31T14:59:44Z</time>
      </trkpt>
      <trkpt lat="38.320285" lon="-0.685704">
        <ele>278.8</ele>
        <time>2019-12-31T14:59:45Z</time>
      </trkpt>
      <trkpt lat="38.320274" lon="-0.685760">
        <ele>279</ele>
        <time>2019-12-31T14:59:46Z</time>
      </trkpt>
      <trkpt lat="38.320263" lon="-0.685816">
        <ele>279.4</ele>
        <time>2019-12-31T14:59:47Z</time>
      </trkpt>
      <trkpt lat="38.320253" lon="-0.685871">
        <ele>279.4</ele>
        <time>2019-12-31T14:59:48Z</time>
      </trkpt>
      <trkpt lat="38.320242" lon="-0.685926">
        <ele>279.6</ele>
        <time>2019-12-31T14:59:49Z</time>
      </trkpt>
      <trkpt lat="38.320232" lon="-0.685981">
        <ele>280</ele>
        <time>2019-12-31T14:59:50Z</time>
      </trkpt>
      <trkpt lat="38.320221" lon="-0.686035">
        <ele>280.2</ele>
        <time>2019-12-31T14:59:51Z</time>
      </trkpt>
      <trkpt lat="38.320210" lon="-0.686089">
        <ele>280.4</ele>
        <time>2019-12-31T14:59:52Z</time>
      </trkpt>
      <trkpt lat="38.320198" lon="-0.686143">
        <ele>280.6</ele>
        <time>2019-12-31T14:59:53Z</time>
      </trkpt>
      <trkpt lat="38.320185" lon="-0.686198">
        <ele>280.6</ele>
        <time>2019-12-31T14:59:54Z</time>
      </trkpt>
      <trkpt lat="38.320172" lon="-0.686253">
        <ele>281</ele>
        <time>2019-12-31T14:59:55Z</time>
      </trkpt>
      <trkpt lat="38.320161" lon="-0.686309">
        <ele>281</ele>
        <time>2019-12-31T14:59:56Z</time>
      </trkpt>
      <trkpt lat="38.320149" lon="-0.686366">
        <ele>281.4</ele>
        <time>2019-12-31T14:59:57Z</time>
      </trkpt>
      <trkpt lat="38.320136" lon="-0.686423">
        <ele>281.4</ele>
        <time>2019-12-31T14:59:58Z</time>
      </trkpt>
      <trkpt lat="38.320136" lon="-0.686423">
        <ele>281.6</ele>
        <time>2019-12-31T14:59:59Z</time>
      </trkpt>
      <trkpt lat="38.320109" lon="-0.686540">
        <ele>281.6</ele>
        <time>2019-12-31T15:00:00Z</time>
      </trkpt>
      <trkpt lat="38.320095" lon="-0.686602">
        <ele>282</ele>
        <time>2019-12-31T15:00:01Z</time>
      </trkpt>
      <trkpt lat="38.320084" lon="-0.686664">
        <ele>281.8</ele>
        <time>2019-12-31T15:00:02Z</time>
      </trkpt>
      <trkpt lat="38.320074" lon="-0.686726">
        <ele>282</ele>
        <time>2019-12-31T15:00:03Z</time>
      </trkpt>
      <trkpt lat="38.320066" lon="-0.686789">
        <ele>282.2</ele>
        <time>2019-12-31T15:00:04Z</time>
      </trkpt>
      <trkpt lat="38.320060" lon="-0.686853">
        <ele>282.2</ele>
        <time>2019-12-31T15:00:05Z</time>
      </trkpt>
      <trkpt lat="38.320056" lon="-0.686917">
        <ele>282.4</ele>
        <time>2019-12-31T15:00:06Z</time>
      </trkpt>
      <trkpt lat="38.320056" lon="-0.686917">
        <ele>282.6</ele>
        <time>2019-12-31T15:00:07Z</time>
      </trkpt>
      <trkpt lat="38.320046" lon="-0.687045">
        <ele>282.6</ele>
        <time>2019-12-31T15:00:08Z</time>
      </trkpt>
      <trkpt lat="38.320041" lon="-0.687110">
        <ele>282.8</ele>
        <time>2019-12-31T15:00:09Z</time>
      </trkpt>
      <trkpt lat="38.320035" lon="-0.687174">
        <ele>283.2</ele>
        <time>2019-12-31T15:00:10Z</time>
      </trkpt>
      <trkpt lat="38.320029" lon="-0.687239">
        <ele>283</ele>
        <time>2019-12-31T15:00:11Z</time>
      </trkpt>
      <trkpt lat="38.320023" lon="-0.687303">
        <ele>283.2</ele>
        <time>2019-12-31T15:00:12Z</time>
      </trkpt>
      <trkpt lat="38.320018" lon="-0.687366">
        <ele>283.2</ele>
        <time>2019-12-31T15:00:13Z</time>
      </trkpt>
      <trkpt lat="38.320014" lon="-0.687427">
        <ele>283.6</ele>
        <time>2019-12-31T15:00:14Z</time>
      </trkpt>
      <trkpt lat="38.320007" lon="-0.687491">
        <ele>283.6</ele>
        <time>2019-12-31T15:00:15Z</time>
      </trkpt>
      <trkpt lat="38.320002" lon="-0.687554">
        <ele>283.6</ele>
        <time>2019-12-31T15:00:16Z</time>
      </trkpt>
      <trkpt lat="38.319996" lon="-0.687620">
        <ele>283.8</ele>
        <time>2019-12-31T15:00:17Z</time>
      </trkpt>
      <trkpt lat="38.319992" lon="-0.687685">
        <ele>283.6</ele>
        <time>2019-12-31T15:00:18Z</time>
      </trkpt>
      <trkpt lat="38.319986" lon="-0.687754">
        <ele>283.6</ele>
        <time>2019-12-31T15:00:19Z</time>
      </trkpt>
      <trkpt lat="38.319982" lon="-0.687825">
        <ele>283.8</ele>
        <time>2019-12-31T15:00:20Z</time>
      </trkpt>
      <trkpt lat="38.319979" lon="-0.687899">
        <ele>283.8</ele>
        <time>2019-12-31T15:00:21Z</time>
      </trkpt>
      <trkpt lat="38.319982" lon="-0.687971">
        <ele>283.8</ele>
        <time>2019-12-31T15:00:22Z</time>
      </trkpt>
      <trkpt lat="38.319988" lon="-0.688045">
        <ele>283.8</ele>
        <time>2019-12-31T15:00:23Z</time>
      </trkpt>
      <trkpt lat="38.319995" lon="-0.688118">
        <ele>283.8</ele>
        <time>2019-12-31T15:00:24Z</time>
      </trkpt>
      <trkpt lat="38.320002" lon="-0.688190">
        <ele>283.8</ele>
        <time>2019-12-31T15:00:25Z</time>
      </trkpt>
      <trkpt lat="38.320009" lon="-0.688265">
        <ele>283.6</ele>
        <time>2019-12-31T15:00:26Z</time>
      </trkpt>
      <trkpt lat="38.320011" lon="-0.688339">
        <ele>283.6</ele>
        <time>2019-12-31T15:00:27Z</time>
      </trkpt>
      <trkpt lat="38.320011" lon="-0.688411">
        <ele>283.6</ele>
        <time>2019-12-31T15:00:28Z</time>
      </trkpt>
      <trkpt lat="38.320010" lon="-0.688483">
        <ele>283.6</ele>
        <time>2019-12-31T15:00:29Z</time>
      </trkpt>
      <trkpt lat="38.320009" lon="-0.688556">
        <ele>283.8</ele>
        <time>2019-12-31T15:00:30Z</time>
      </trkpt>
      <trkpt lat="38.320007" lon="-0.688627">
        <ele>283.8</ele>
        <time>2019-12-31T15:00:31Z</time>
      </trkpt>
      <trkpt lat="38.320002" lon="-0.688702">
        <ele>283.8</ele>
        <time>2019-12-31T15:00:32Z</time>
      </trkpt>
      <trkpt lat="38.319997" lon="-0.688778">
        <ele>284.2</ele>
        <time>2019-12-31T15:00:33Z</time>
      </trkpt>
      <trkpt lat="38.319992" lon="-0.688856">
        <ele>284.2</ele>
        <time>2019-12-31T15:00:34Z</time>
      </trkpt>
      <trkpt lat="38.319988" lon="-0.688935">
        <ele>284.2</ele>
        <time>2019-12-31T15:00:35Z</time>
      </trkpt>
      <trkpt lat="38.319983" lon="-0.689018">
        <ele>284</ele>
        <time>2019-12-31T15:00:36Z</time>
      </trkpt>
      <trkpt lat="38.319978" lon="-0.689102">
        <ele>284.2</ele>
        <time>2019-12-31T15:00:37Z</time>
      </trkpt>
      <trkpt lat="38.319978" lon="-0.689102">
        <ele>284.2</ele>
        <time>2019-12-31T15:00:38Z</time>
      </trkpt>
      <trkpt lat="38.319966" lon="-0.689278">
        <ele>284.2</ele>
        <time>2019-12-31T15:00:39Z</time>
      </trkpt>
      <trkpt lat="38.319960" lon="-0.689369">
        <ele>284</ele>
        <time>2019-12-31T15:00:40Z</time>
      </trkpt>
      <trkpt lat="38.319954" lon="-0.689463">
        <ele>284</ele>
        <time>2019-12-31T15:00:41Z</time>
      </trkpt>
      <trkpt lat="38.319951" lon="-0.689557">
        <ele>284</ele>
        <time>2019-12-31T15:00:42Z</time>
      </trkpt>
      <trkpt lat="38.319948" lon="-0.689651">
        <ele>284.2</ele>
        <time>2019-12-31T15:00:43Z</time>
      </trkpt>
      <trkpt lat="38.319943" lon="-0.689743">
        <ele>284.2</ele>
        <time>2019-12-31T15:00:44Z</time>
      </trkpt>
      <trkpt lat="38.319938" lon="-0.689835">
        <ele>284.4</ele>
        <time>2019-12-31T15:00:45Z</time>
      </trkpt>
      <trkpt lat="38.319927" lon="-0.689923">
        <ele>284.6</ele>
        <time>2019-12-31T15:00:46Z</time>
      </trkpt>
      <trkpt lat="38.319919" lon="-0.690012">
        <ele>284.8</ele>
        <time>2019-12-31T15:00:47Z</time>
      </trkpt>
      <trkpt lat="38.319909" lon="-0.690101">
        <ele>285</ele>
        <time>2019-12-31T15:00:48Z</time>
      </trkpt>
      <trkpt lat="38.319900" lon="-0.690190">
        <ele>285.2</ele>
        <time>2019-12-31T15:00:49Z</time>
      </trkpt>
      <trkpt lat="38.319900" lon="-0.690190">
        <ele>285.4</ele>
        <time>2019-12-31T15:00:50Z</time>
      </trkpt>
      <trkpt lat="38.319880" lon="-0.690367">
        <ele>285.8</ele>
        <time>2019-12-31T15:00:51Z</time>
      </trkpt>
      <trkpt lat="38.319867" lon="-0.690453">
        <ele>286</ele>
        <time>2019-12-31T15:00:52Z</time>
      </trkpt>
      <trkpt lat="38.319855" lon="-0.690540">
        <ele>286.2</ele>
        <time>2019-12-31T15:00:53Z</time>
      </trkpt>
      <trkpt lat="38.319843" lon="-0.690627">
        <ele>286.2</ele>
        <time>2019-12-31T15:00:54Z</time>
      </trkpt>
      <trkpt lat="38.319830" lon="-0.690714">
        <ele>286.6</ele>
        <time>2019-12-31T15:00:55Z</time>
      </trkpt>
      <trkpt lat="38.319830" lon="-0.690714">
        <ele>286.8</ele>
        <time>2019-12-31T15:00:56Z</time>
      </trkpt>
      <trkpt lat="38.319806" lon="-0.690893">
        <ele>286.8</ele>
        <time>2019-12-31T15:00:57Z</time>
      </trkpt>
      <trkpt lat="38.319806" lon="-0.690893">
        <ele>287</ele>
        <time>2019-12-31T15:00:58Z</time>
      </trkpt>
      <trkpt lat="38.319780" lon="-0.691072">
        <ele>287.2</ele>
        <time>2019-12-31T15:00:59Z</time>
      </trkpt>
      <trkpt lat="38.319765" lon="-0.691161">
        <ele>287.4</ele>
        <time>2019-12-31T15:01:00Z</time>
      </trkpt>
      <trkpt lat="38.319750" lon="-0.691250">
        <ele>287.8</ele>
        <time>2019-12-31T15:01:01Z</time>
      </trkpt>
      <trkpt lat="38.319733" lon="-0.691337">
        <ele>288</ele>
        <time>2019-12-31T15:01:02Z</time>
      </trkpt>
      <trkpt lat="38.319715" lon="-0.691423">
        <ele>288.4</ele>
        <time>2019-12-31T15:01:03Z</time>
      </trkpt>
      <trkpt lat="38.319697" lon="-0.691506">
        <ele>288.8</ele>
        <time>2019-12-31T15:01:04Z</time>
      </trkpt>
      <trkpt lat="38.319679" lon="-0.691585">
        <ele>289.2</ele>
        <time>2019-12-31T15:01:05Z</time>
      </trkpt>
      <trkpt lat="38.319660" lon="-0.691664">
        <ele>289.4</ele>
        <time>2019-12-31T15:01:06Z</time>
      </trkpt>
      <trkpt lat="38.319641" lon="-0.691740">
        <ele>289.6</ele>
        <time>2019-12-31T15:01:07Z</time>
      </trkpt>
      <trkpt lat="38.319620" lon="-0.691816">
        <ele>289.8</ele>
        <time>2019-12-31T15:01:08Z</time>
      </trkpt>
      <trkpt lat="38.319595" lon="-0.691889">
        <ele>290</ele>
        <time>2019-12-31T15:01:09Z</time>
      </trkpt>
      <trkpt lat="38.319568" lon="-0.691959">
        <ele>290.2</ele>
        <time>2019-12-31T15:01:10Z</time>
      </trkpt>
      <trkpt lat="38.319540" lon="-0.692027">
        <ele>290.4</ele>
        <time>2019-12-31T15:01:11Z</time>
      </trkpt>
      <trkpt lat="38.319512" lon="-0.692095">
        <ele>290.8</ele>
        <time>2019-12-31T15:01:12Z</time>
      </trkpt>
      <trkpt lat="38.319512" lon="-0.692095">
        <ele>290.8</ele>
        <time>2019-12-31T15:01:13Z</time>
      </trkpt>
      <trkpt lat="38.319470" lon="-0.692230">
        <ele>291</ele>
        <time>2019-12-31T15:01:14Z</time>
      </trkpt>
      <trkpt lat="38.319454" lon="-0.692300">
        <ele>291</ele>
        <time>2019-12-31T15:01:15Z</time>
      </trkpt>
      <trkpt lat="38.319444" lon="-0.692371">
        <ele>291.2</ele>
        <time>2019-12-31T15:01:16Z</time>
      </trkpt>
      <trkpt lat="38.319436" lon="-0.692443">
        <ele>291.4</ele>
        <time>2019-12-31T15:01:17Z</time>
      </trkpt>
      <trkpt lat="38.319429" lon="-0.692513">
        <ele>291.4</ele>
        <time>2019-12-31T15:01:18Z</time>
      </trkpt>
      <trkpt lat="38.319420" lon="-0.692582">
        <ele>291.6</ele>
        <time>2019-12-31T15:01:19Z</time>
      </trkpt>
      <trkpt lat="38.319409" lon="-0.692652">
        <ele>292</ele>
        <time>2019-12-31T15:01:20Z</time>
      </trkpt>
      <trkpt lat="38.319398" lon="-0.692720">
        <ele>292.2</ele>
        <time>2019-12-31T15:01:21Z</time>
      </trkpt>
      <trkpt lat="38.319391" lon="-0.692790">
        <ele>292.2</ele>
        <time>2019-12-31T15:01:22Z</time>
      </trkpt>
      <trkpt lat="38.319386" lon="-0.692860">
        <ele>292.4</ele>
        <time>2019-12-31T15:01:23Z</time>
      </trkpt>
      <trkpt lat="38.319379" lon="-0.692928">
        <ele>292.6</ele>
        <time>2019-12-31T15:01:24Z</time>
      </trkpt>
      <trkpt lat="38.319370" lon="-0.692994">
        <ele>292.8</ele>
        <time>2019-12-31T15:01:25Z</time>
      </trkpt>
      <trkpt lat="38.319359" lon="-0.693054">
        <ele>293.2</ele>
        <time>2019-12-31T15:01:26Z</time>
      </trkpt>
      <trkpt lat="38.319349" lon="-0.693114">
        <ele>293.6</ele>
        <time>2019-12-31T15:01:27Z</time>
      </trkpt>
      <trkpt lat="38.319339" lon="-0.693173">
        <ele>294</ele>
        <time>2019-12-31T15:01:28Z</time>
      </trkpt>
      <trkpt lat="38.319331" lon="-0.693231">
        <ele>294.2</ele>
        <time>2019-12-31T15:01:29Z</time>
      </trkpt>
      <trkpt lat="38.319322" lon="-0.693286">
        <ele>294.6</ele>
        <time>2019-12-31T15:01:30Z</time>
      </trkpt>
      <trkpt lat="38.319307" lon="-0.693339">
        <ele>295</ele>
        <time>2019-12-31T15:01:31Z</time>
      </trkpt>
      <trkpt lat="38.319285" lon="-0.693388">
        <ele>295.6</ele>
        <time>2019-12-31T15:01:32Z</time>
      </trkpt>
      <trkpt lat="38.319259" lon="-0.693440">
        <ele>295.8</ele>
        <time>2019-12-31T15:01:33Z</time>
      </trkpt>
      <trkpt lat="38.319226" lon="-0.693482">
        <ele>296.2</ele>
        <time>2019-12-31T15:01:34Z</time>
      </trkpt>
      <trkpt lat="38.319187" lon="-0.693516">
        <ele>296.2</ele>
        <time>2019-12-31T15:01:35Z</time>
      </trkpt>
      <trkpt lat="38.319142" lon="-0.693538">
        <ele>296.4</ele>
        <time>2019-12-31T15:01:36Z</time>
      </trkpt>
      <trkpt lat="38.319096" lon="-0.693545">
        <ele>296.6</ele>
        <time>2019-12-31T15:01:37Z</time>
      </trkpt>
      <trkpt lat="38.319046" lon="-0.693551">
        <ele>296.6</ele>
        <time>2019-12-31T15:01:38Z</time>
      </trkpt>
      <trkpt lat="38.318995" lon="-0.693559">
        <ele>296.6</ele>
        <time>2019-12-31T15:01:39Z</time>
      </trkpt>
      <trkpt lat="38.318943" lon="-0.693564">
        <ele>296.6</ele>
        <time>2019-12-31T15:01:40Z</time>
      </trkpt>
      <trkpt lat="38.318890" lon="-0.693566">
        <ele>296.6</ele>
        <time>2019-12-31T15:01:41Z</time>
      </trkpt>
      <trkpt lat="38.318836" lon="-0.693566">
        <ele>296.8</ele>
        <time>2019-12-31T15:01:42Z</time>
      </trkpt>
      <trkpt lat="38.318780" lon="-0.693567">
        <ele>296.8</ele>
        <time>2019-12-31T15:01:43Z</time>
      </trkpt>
      <trkpt lat="38.318724" lon="-0.693566">
        <ele>296.6</ele>
        <time>2019-12-31T15:01:44Z</time>
      </trkpt>
      <trkpt lat="38.318668" lon="-0.693566">
        <ele>296.8</ele>
        <time>2019-12-31T15:01:45Z</time>
      </trkpt>
      <trkpt lat="38.318612" lon="-0.693566">
        <ele>296.8</ele>
        <time>2019-12-31T15:01:46Z</time>
      </trkpt>
      <trkpt lat="38.318556" lon="-0.693567">
        <ele>297</ele>
        <time>2019-12-31T15:01:47Z</time>
      </trkpt>
      <trkpt lat="38.318500" lon="-0.693568">
        <ele>297</ele>
        <time>2019-12-31T15:01:48Z</time>
      </trkpt>
      <trkpt lat="38.318444" lon="-0.693569">
        <ele>297</ele>
        <time>2019-12-31T15:01:49Z</time>
      </trkpt>
      <trkpt lat="38.318387" lon="-0.693574">
        <ele>297.2</ele>
        <time>2019-12-31T15:01:50Z</time>
      </trkpt>
      <trkpt lat="38.318330" lon="-0.693578">
        <ele>297</ele>
        <time>2019-12-31T15:01:51Z</time>
      </trkpt>
      <trkpt lat="38.318272" lon="-0.693582">
        <ele>297.2</ele>
        <time>2019-12-31T15:01:52Z</time>
      </trkpt>
      <trkpt lat="38.318213" lon="-0.693585">
        <ele>296.8</ele>
        <time>2019-12-31T15:01:53Z</time>
      </trkpt>
      <trkpt lat="38.318213" lon="-0.693585">
        <ele>296.8</ele>
        <time>2019-12-31T15:01:54Z</time>
      </trkpt>
      <trkpt lat="38.318098" lon="-0.693590">
        <ele>297.2</ele>
        <time>2019-12-31T15:01:55Z</time>
      </trkpt>
      <trkpt lat="38.318043" lon="-0.693595">
        <ele>297.2</ele>
        <time>2019-12-31T15:01:56Z</time>
      </trkpt>
      <trkpt lat="38.317989" lon="-0.693605">
        <ele>297.2</ele>
        <time>2019-12-31T15:01:57Z</time>
      </trkpt>
      <trkpt lat="38.317935" lon="-0.693621">
        <ele>297.2</ele>
        <time>2019-12-31T15:01:58Z</time>
      </trkpt>
      <trkpt lat="38.317886" lon="-0.693646">
        <ele>297.4</ele>
        <time>2019-12-31T15:01:59Z</time>
      </trkpt>
      <trkpt lat="38.317839" lon="-0.693676">
        <ele>297.6</ele>
        <time>2019-12-31T15:02:00Z</time>
      </trkpt>
      <trkpt lat="38.317795" lon="-0.693705">
        <ele>298</ele>
        <time>2019-12-31T15:02:01Z</time>
      </trkpt>
      <trkpt lat="38.317753" lon="-0.693731">
        <ele>298.2</ele>
        <time>2019-12-31T15:02:02Z</time>
      </trkpt>
      <trkpt lat="38.317712" lon="-0.693752">
        <ele>298.6</ele>
        <time>2019-12-31T15:02:03Z</time>
      </trkpt>
      <trkpt lat="38.317672" lon="-0.693777">
        <ele>298.8</ele>
        <time>2019-12-31T15:02:04Z</time>
      </trkpt>
      <trkpt lat="38.317631" lon="-0.693804">
        <ele>299.2</ele>
        <time>2019-12-31T15:02:05Z</time>
      </trkpt>
      <trkpt lat="38.317591" lon="-0.693830">
        <ele>299.4</ele>
        <time>2019-12-31T15:02:06Z</time>
      </trkpt>
      <trkpt lat="38.317550" lon="-0.693856">
        <ele>299.6</ele>
        <time>2019-12-31T15:02:07Z</time>
      </trkpt>
      <trkpt lat="38.317509" lon="-0.693879">
        <ele>299.8</ele>
        <time>2019-12-31T15:02:08Z</time>
      </trkpt>
      <trkpt lat="38.317468" lon="-0.693902">
        <ele>300.2</ele>
        <time>2019-12-31T15:02:09Z</time>
      </trkpt>
      <trkpt lat="38.317430" lon="-0.693925">
        <ele>300.6</ele>
        <time>2019-12-31T15:02:10Z</time>
      </trkpt>
      <trkpt lat="38.317394" lon="-0.693945">
        <ele>301</ele>
        <time>2019-12-31T15:02:11Z</time>
      </trkpt>
      <trkpt lat="38.317362" lon="-0.693960">
        <ele>301.4</ele>
        <time>2019-12-31T15:02:12Z</time>
      </trkpt>
      <trkpt lat="38.317332" lon="-0.693969">
        <ele>301.6</ele>
        <time>2019-12-31T15:02:13Z</time>
      </trkpt>
      <trkpt lat="38.317298" lon="-0.693980">
        <ele>302</ele>
        <time>2019-12-31T15:02:14Z</time>
      </trkpt>
      <trkpt lat="38.317264" lon="-0.693996">
        <ele>302</ele>
        <time>2019-12-31T15:02:15Z</time>
      </trkpt>
      <trkpt lat="38.317228" lon="-0.694011">
        <ele>302.4</ele>
        <time>2019-12-31T15:02:16Z</time>
      </trkpt>
      <trkpt lat="38.317189" lon="-0.694024">
        <ele>302.2</ele>
        <time>2019-12-31T15:02:17Z</time>
      </trkpt>
      <trkpt lat="38.317149" lon="-0.694034">
        <ele>302.4</ele>
        <time>2019-12-31T15:02:18Z</time>
      </trkpt>
      <trkpt lat="38.317110" lon="-0.694042">
        <ele>302.8</ele>
        <time>2019-12-31T15:02:19Z</time>
      </trkpt>
      <trkpt lat="38.317069" lon="-0.694044">
        <ele>302.8</ele>
        <time>2019-12-31T15:02:20Z</time>
      </trkpt>
      <trkpt lat="38.317034" lon="-0.694044">
        <ele>302.8</ele>
        <time>2019-12-31T15:02:21Z</time>
      </trkpt>
      <trkpt lat="38.316995" lon="-0.694041">
        <ele>302.8</ele>
        <time>2019-12-31T15:02:22Z</time>
      </trkpt>
      <trkpt lat="38.316951" lon="-0.694035">
        <ele>302.6</ele>
        <time>2019-12-31T15:02:23Z</time>
      </trkpt>
      <trkpt lat="38.316908" lon="-0.694027">
        <ele>302.8</ele>
        <time>2019-12-31T15:02:24Z</time>
      </trkpt>
      <trkpt lat="38.316863" lon="-0.694012">
        <ele>302.6</ele>
        <time>2019-12-31T15:02:25Z</time>
      </trkpt>
      <trkpt lat="38.316817" lon="-0.693994">
        <ele>302.4</ele>
        <time>2019-12-31T15:02:26Z</time>
      </trkpt>
      <trkpt lat="38.316773" lon="-0.693974">
        <ele>302.4</ele>
        <time>2019-12-31T15:02:27Z</time>
      </trkpt>
      <trkpt lat="38.316728" lon="-0.693950">
        <ele>302.4</ele>
        <time>2019-12-31T15:02:28Z</time>
      </trkpt>
      <trkpt lat="38.316683" lon="-0.693925">
        <ele>302.4</ele>
        <time>2019-12-31T15:02:29Z</time>
      </trkpt>
      <trkpt lat="38.316637" lon="-0.693900">
        <ele>302.2</ele>
        <time>2019-12-31T15:02:30Z</time>
      </trkpt>
      <trkpt lat="38.316588" lon="-0.693875">
        <ele>302</ele>
        <time>2019-12-31T15:02:31Z</time>
      </trkpt>
      <trkpt lat="38.316542" lon="-0.693854">
        <ele>302</ele>
        <time>2019-12-31T15:02:32Z</time>
      </trkpt>
      <trkpt lat="38.316493" lon="-0.693830">
        <ele>301.8</ele>
        <time>2019-12-31T15:02:33Z</time>
      </trkpt>
      <trkpt lat="38.316444" lon="-0.693802">
        <ele>301.4</ele>
        <time>2019-12-31T15:02:34Z</time>
      </trkpt>
      <trkpt lat="38.316391" lon="-0.693777">
        <ele>301</ele>
        <time>2019-12-31T15:02:35Z</time>
      </trkpt>
      <trkpt lat="38.316336" lon="-0.693750">
        <ele>300.6</ele>
        <time>2019-12-31T15:02:36Z</time>
      </trkpt>
      <trkpt lat="38.316280" lon="-0.693723">
        <ele>300</ele>
        <time>2019-12-31T15:02:37Z</time>
      </trkpt>
      <trkpt lat="38.316222" lon="-0.693695">
        <ele>299.6</ele>
        <time>2019-12-31T15:02:38Z</time>
      </trkpt>
      <trkpt lat="38.316163" lon="-0.693666">
        <ele>299</ele>
        <time>2019-12-31T15:02:39Z</time>
      </trkpt>
      <trkpt lat="38.316103" lon="-0.693640">
        <ele>298.8</ele>
        <time>2019-12-31T15:02:40Z</time>
      </trkpt>
      <trkpt lat="38.316045" lon="-0.693612">
        <ele>298.8</ele>
        <time>2019-12-31T15:02:41Z</time>
      </trkpt>
      <trkpt lat="38.315988" lon="-0.693584">
        <ele>298.8</ele>
        <time>2019-12-31T15:02:42Z</time>
      </trkpt>
      <trkpt lat="38.315931" lon="-0.693559">
        <ele>298.4</ele>
        <time>2019-12-31T15:02:43Z</time>
      </trkpt>
      <trkpt lat="38.315874" lon="-0.693535">
        <ele>298.2</ele>
        <time>2019-12-31T15:02:44Z</time>
      </trkpt>
      <trkpt lat="38.315817" lon="-0.693514">
        <ele>298</ele>
        <time>2019-12-31T15:02:45Z</time>
      </trkpt>
      <trkpt lat="38.315759" lon="-0.693495">
        <ele>297.6</ele>
        <time>2019-12-31T15:02:46Z</time>
      </trkpt>
      <trkpt lat="38.315701" lon="-0.693475">
        <ele>297.4</ele>
        <time>2019-12-31T15:02:47Z</time>
      </trkpt>
      <trkpt lat="38.315640" lon="-0.693460">
        <ele>297</ele>
        <time>2019-12-31T15:02:48Z</time>
      </trkpt>
      <trkpt lat="38.315579" lon="-0.693443">
        <ele>296.6</ele>
        <time>2019-12-31T15:02:49Z</time>
      </trkpt>
      <trkpt lat="38.315517" lon="-0.693425">
        <ele>296</ele>
        <time>2019-12-31T15:02:50Z</time>
      </trkpt>
      <trkpt lat="38.315453" lon="-0.693410">
        <ele>295.8</ele>
        <time>2019-12-31T15:02:51Z</time>
      </trkpt>
      <trkpt lat="38.315386" lon="-0.693405">
        <ele>295.4</ele>
        <time>2019-12-31T15:02:52Z</time>
      </trkpt>
      <trkpt lat="38.315316" lon="-0.693415">
        <ele>294.6</ele>
        <time>2019-12-31T15:02:53Z</time>
      </trkpt>
      <trkpt lat="38.315248" lon="-0.693444">
        <ele>294.4</ele>
        <time>2019-12-31T15:02:54Z</time>
      </trkpt>
      <trkpt lat="38.315175" lon="-0.693481">
        <ele>293</ele>
        <time>2019-12-31T15:02:55Z</time>
      </trkpt>
      <trkpt lat="38.315097" lon="-0.693506">
        <ele>292.4</ele>
        <time>2019-12-31T15:02:56Z</time>
      </trkpt>
      <trkpt lat="38.315015" lon="-0.693521">
        <ele>291.6</ele>
        <time>2019-12-31T15:02:57Z</time>
      </trkpt>
      <trkpt lat="38.314931" lon="-0.693530">
        <ele>291</ele>
        <time>2019-12-31T15:02:58Z</time>
      </trkpt>
      <trkpt lat="38.314847" lon="-0.693537">
        <ele>290.6</ele>
        <time>2019-12-31T15:02:59Z</time>
      </trkpt>
      <trkpt lat="38.314764" lon="-0.693541">
        <ele>290.2</ele>
        <time>2019-12-31T15:03:00Z</time>
      </trkpt>
      <trkpt lat="38.314683" lon="-0.693549">
        <ele>289.8</ele>
        <time>2019-12-31T15:03:01Z</time>
      </trkpt>
      <trkpt lat="38.314603" lon="-0.693559">
        <ele>289.4</ele>
        <time>2019-12-31T15:03:02Z</time>
      </trkpt>
      <trkpt lat="38.314523" lon="-0.693563">
        <ele>289</ele>
        <time>2019-12-31T15:03:03Z</time>
      </trkpt>
      <trkpt lat="38.314444" lon="-0.693564">
        <ele>288.4</ele>
        <time>2019-12-31T15:03:04Z</time>
      </trkpt>
      <trkpt lat="38.314362" lon="-0.693562">
        <ele>288.2</ele>
        <time>2019-12-31T15:03:05Z</time>
      </trkpt>
      <trkpt lat="38.314280" lon="-0.693558">
        <ele>288</ele>
        <time>2019-12-31T15:03:06Z</time>
      </trkpt>
      <trkpt lat="38.314195" lon="-0.693550">
        <ele>287.2</ele>
        <time>2019-12-31T15:03:07Z</time>
      </trkpt>
      <trkpt lat="38.314108" lon="-0.693537">
        <ele>286.4</ele>
        <time>2019-12-31T15:03:08Z</time>
      </trkpt>
      <trkpt lat="38.314019" lon="-0.693513">
        <ele>285.6</ele>
        <time>2019-12-31T15:03:09Z</time>
      </trkpt>
      <trkpt lat="38.313932" lon="-0.693476">
        <ele>285</ele>
        <time>2019-12-31T15:03:10Z</time>
      </trkpt>
      <trkpt lat="38.313847" lon="-0.693432">
        <ele>284.2</ele>
        <time>2019-12-31T15:03:11Z</time>
      </trkpt>
      <trkpt lat="38.313762" lon="-0.693390">
        <ele>284</ele>
        <time>2019-12-31T15:03:12Z</time>
      </trkpt>
      <trkpt lat="38.313676" lon="-0.693350">
        <ele>284</ele>
        <time>2019-12-31T15:03:13Z</time>
      </trkpt>
      <trkpt lat="38.313592" lon="-0.693319">
        <ele>283.4</ele>
        <time>2019-12-31T15:03:14Z</time>
      </trkpt>
      <trkpt lat="38.313506" lon="-0.693305">
        <ele>283</ele>
        <time>2019-12-31T15:03:15Z</time>
      </trkpt>
      <trkpt lat="38.313426" lon="-0.693307">
        <ele>283</ele>
        <time>2019-12-31T15:03:16Z</time>
      </trkpt>
      <trkpt lat="38.313345" lon="-0.693319">
        <ele>282</ele>
        <time>2019-12-31T15:03:17Z</time>
      </trkpt>
      <trkpt lat="38.313262" lon="-0.693347">
        <ele>281</ele>
        <time>2019-12-31T15:03:18Z</time>
      </trkpt>
      <trkpt lat="38.313185" lon="-0.693399">
        <ele>280</ele>
        <time>2019-12-31T15:03:19Z</time>
      </trkpt>
      <trkpt lat="38.313122" lon="-0.693474">
        <ele>279.2</ele>
        <time>2019-12-31T15:03:20Z</time>
      </trkpt>
      <trkpt lat="38.313072" lon="-0.693560">
        <ele>279</ele>
        <time>2019-12-31T15:03:21Z</time>
      </trkpt>
      <trkpt lat="38.313026" lon="-0.693635">
        <ele>278.8</ele>
        <time>2019-12-31T15:03:22Z</time>
      </trkpt>
      <trkpt lat="38.312982" lon="-0.693685">
        <ele>278.8</ele>
        <time>2019-12-31T15:03:23Z</time>
      </trkpt>
      <trkpt lat="38.312938" lon="-0.693710">
        <ele>278.8</ele>
        <time>2019-12-31T15:03:24Z</time>
      </trkpt>
      <trkpt lat="38.312897" lon="-0.693711">
        <ele>278.4</ele>
        <time>2019-12-31T15:03:25Z</time>
      </trkpt>
      <trkpt lat="38.312852" lon="-0.693692">
        <ele>278.4</ele>
        <time>2019-12-31T15:03:26Z</time>
      </trkpt>
      <trkpt lat="38.312803" lon="-0.693666">
        <ele>278</ele>
        <time>2019-12-31T15:03:27Z</time>
      </trkpt>
      <trkpt lat="38.312754" lon="-0.693633">
        <ele>277.4</ele>
        <time>2019-12-31T15:03:28Z</time>
      </trkpt>
      <trkpt lat="38.312705" lon="-0.693598">
        <ele>277</ele>
        <time>2019-12-31T15:03:29Z</time>
      </trkpt>
      <trkpt lat="38.312651" lon="-0.693560">
        <ele>276.8</ele>
        <time>2019-12-31T15:03:30Z</time>
      </trkpt>
      <trkpt lat="38.312588" lon="-0.693528">
        <ele>276.2</ele>
        <time>2019-12-31T15:03:31Z</time>
      </trkpt>
      <trkpt lat="38.312519" lon="-0.693510">
        <ele>275.6</ele>
        <time>2019-12-31T15:03:32Z</time>
      </trkpt>
      <trkpt lat="38.312449" lon="-0.693521">
        <ele>275.4</ele>
        <time>2019-12-31T15:03:33Z</time>
      </trkpt>
      <trkpt lat="38.312390" lon="-0.693558">
        <ele>275</ele>
        <time>2019-12-31T15:03:34Z</time>
      </trkpt>
      <trkpt lat="38.312357" lon="-0.693623">
        <ele>274.6</ele>
        <time>2019-12-31T15:03:35Z</time>
      </trkpt>
      <trkpt lat="38.312347" lon="-0.693699">
        <ele>274</ele>
        <time>2019-12-31T15:03:36Z</time>
      </trkpt>
      <trkpt lat="38.312337" lon="-0.693780">
        <ele>273.4</ele>
        <time>2019-12-31T15:03:37Z</time>
      </trkpt>
      <trkpt lat="38.312310" lon="-0.693860">
        <ele>272.2</ele>
        <time>2019-12-31T15:03:38Z</time>
      </trkpt>
      <trkpt lat="38.312260" lon="-0.693914">
        <ele>271.8</ele>
        <time>2019-12-31T15:03:39Z</time>
      </trkpt>
      <trkpt lat="38.312197" lon="-0.693929">
        <ele>271.8</ele>
        <time>2019-12-31T15:03:40Z</time>
      </trkpt>
      <trkpt lat="38.312131" lon="-0.693916">
        <ele>271</ele>
        <time>2019-12-31T15:03:41Z</time>
      </trkpt>
      <trkpt lat="38.312071" lon="-0.693885">
        <ele>270.8</ele>
        <time>2019-12-31T15:03:42Z</time>
      </trkpt>
      <trkpt lat="38.312014" lon="-0.693843">
        <ele>270.2</ele>
        <time>2019-12-31T15:03:43Z</time>
      </trkpt>
      <trkpt lat="38.311962" lon="-0.693794">
        <ele>269.8</ele>
        <time>2019-12-31T15:03:44Z</time>
      </trkpt>
      <trkpt lat="38.311911" lon="-0.693743">
        <ele>269.6</ele>
        <time>2019-12-31T15:03:45Z</time>
      </trkpt>
      <trkpt lat="38.311858" lon="-0.693694">
        <ele>269.4</ele>
        <time>2019-12-31T15:03:46Z</time>
      </trkpt>
      <trkpt lat="38.311803" lon="-0.693645">
        <ele>269</ele>
        <time>2019-12-31T15:03:47Z</time>
      </trkpt>
      <trkpt lat="38.311747" lon="-0.693595">
        <ele>268.8</ele>
        <time>2019-12-31T15:03:48Z</time>
      </trkpt>
      <trkpt lat="38.311692" lon="-0.693542">
        <ele>268.6</ele>
        <time>2019-12-31T15:03:49Z</time>
      </trkpt>
      <trkpt lat="38.311638" lon="-0.693496">
        <ele>268.6</ele>
        <time>2019-12-31T15:03:50Z</time>
      </trkpt>
      <trkpt lat="38.311580" lon="-0.693454">
        <ele>268.2</ele>
        <time>2019-12-31T15:03:51Z</time>
      </trkpt>
      <trkpt lat="38.311531" lon="-0.693404">
        <ele>267.6</ele>
        <time>2019-12-31T15:03:52Z</time>
      </trkpt>
      <trkpt lat="38.311487" lon="-0.693348">
        <ele>267.6</ele>
        <time>2019-12-31T15:03:53Z</time>
      </trkpt>
      <trkpt lat="38.311448" lon="-0.693281">
        <ele>266.6</ele>
        <time>2019-12-31T15:03:54Z</time>
      </trkpt>
      <trkpt lat="38.311410" lon="-0.693215">
        <ele>267</ele>
        <time>2019-12-31T15:03:55Z</time>
      </trkpt>
      <trkpt lat="38.311368" lon="-0.693153">
        <ele>266.2</ele>
        <time>2019-12-31T15:03:56Z</time>
      </trkpt>
      <trkpt lat="38.311315" lon="-0.693100">
        <ele>266.2</ele>
        <time>2019-12-31T15:03:57Z</time>
      </trkpt>
      <trkpt lat="38.311258" lon="-0.693053">
        <ele>265.8</ele>
        <time>2019-12-31T15:03:58Z</time>
      </trkpt>
      <trkpt lat="38.311203" lon="-0.693010">
        <ele>265.4</ele>
        <time>2019-12-31T15:03:59Z</time>
      </trkpt>
      <trkpt lat="38.311143" lon="-0.692968">
        <ele>264.8</ele>
        <time>2019-12-31T15:04:00Z</time>
      </trkpt>
      <trkpt lat="38.311079" lon="-0.692927">
        <ele>264</ele>
        <time>2019-12-31T15:04:01Z</time>
      </trkpt>
      <trkpt lat="38.311014" lon="-0.692893">
        <ele>263.4</ele>
        <time>2019-12-31T15:04:02Z</time>
      </trkpt>
      <trkpt lat="38.310944" lon="-0.692866">
        <ele>262.4</ele>
        <time>2019-12-31T15:04:03Z</time>
      </trkpt>
      <trkpt lat="38.310874" lon="-0.692846">
        <ele>262.2</ele>
        <time>2019-12-31T15:04:04Z</time>
      </trkpt>
      <trkpt lat="38.310805" lon="-0.692828">
        <ele>262</ele>
        <time>2019-12-31T15:04:05Z</time>
      </trkpt>
      <trkpt lat="38.310735" lon="-0.692823">
        <ele>261.8</ele>
        <time>2019-12-31T15:04:06Z</time>
      </trkpt>
      <trkpt lat="38.310668" lon="-0.692833">
        <ele>261.2</ele>
        <time>2019-12-31T15:04:07Z</time>
      </trkpt>
      <trkpt lat="38.310613" lon="-0.692839">
        <ele>261.2</ele>
        <time>2019-12-31T15:04:08Z</time>
      </trkpt>
      <trkpt lat="38.310564" lon="-0.692834">
        <ele>261</ele>
        <time>2019-12-31T15:04:09Z</time>
      </trkpt>
      <trkpt lat="38.310520" lon="-0.692814">
        <ele>261</ele>
        <time>2019-12-31T15:04:10Z</time>
      </trkpt>
      <trkpt lat="38.310484" lon="-0.692790">
        <ele>260.8</ele>
        <time>2019-12-31T15:04:11Z</time>
      </trkpt>
      <trkpt lat="38.310449" lon="-0.692759">
        <ele>260.8</ele>
        <time>2019-12-31T15:04:12Z</time>
      </trkpt>
      <trkpt lat="38.310420" lon="-0.692717">
        <ele>260.6</ele>
        <time>2019-12-31T15:04:13Z</time>
      </trkpt>
      <trkpt lat="38.310399" lon="-0.692664">
        <ele>260.4</ele>
        <time>2019-12-31T15:04:14Z</time>
      </trkpt>
      <trkpt lat="38.310391" lon="-0.692600">
        <ele>260</ele>
        <time>2019-12-31T15:04:15Z</time>
      </trkpt>
      <trkpt lat="38.310394" lon="-0.692532">
        <ele>259.4</ele>
        <time>2019-12-31T15:04:16Z</time>
      </trkpt>
      <trkpt lat="38.310395" lon="-0.692457">
        <ele>259.2</ele>
        <time>2019-12-31T15:04:17Z</time>
      </trkpt>
      <trkpt lat="38.310390" lon="-0.692380">
        <ele>258.8</ele>
        <time>2019-12-31T15:04:18Z</time>
      </trkpt>
      <trkpt lat="38.310362" lon="-0.692311">
        <ele>258.4</ele>
        <time>2019-12-31T15:04:19Z</time>
      </trkpt>
      <trkpt lat="38.310317" lon="-0.692259">
        <ele>258.2</ele>
        <time>2019-12-31T15:04:20Z</time>
      </trkpt>
      <trkpt lat="38.310262" lon="-0.692216">
        <ele>257.4</ele>
        <time>2019-12-31T15:04:21Z</time>
      </trkpt>
      <trkpt lat="38.310204" lon="-0.692176">
        <ele>257</ele>
        <time>2019-12-31T15:04:22Z</time>
      </trkpt>
      <trkpt lat="38.310143" lon="-0.692141">
        <ele>256.8</ele>
        <time>2019-12-31T15:04:23Z</time>
      </trkpt>
      <trkpt lat="38.310081" lon="-0.692103">
        <ele>256.4</ele>
        <time>2019-12-31T15:04:24Z</time>
      </trkpt>
      <trkpt lat="38.310022" lon="-0.692060">
        <ele>256.2</ele>
        <time>2019-12-31T15:04:25Z</time>
      </trkpt>
      <trkpt lat="38.309967" lon="-0.692010">
        <ele>256</ele>
        <time>2019-12-31T15:04:26Z</time>
      </trkpt>
      <trkpt lat="38.309915" lon="-0.691952">
        <ele>255.8</ele>
        <time>2019-12-31T15:04:27Z</time>
      </trkpt>
      <trkpt lat="38.309862" lon="-0.691891">
        <ele>255.4</ele>
        <time>2019-12-31T15:04:28Z</time>
      </trkpt>
      <trkpt lat="38.309811" lon="-0.691831">
        <ele>255.2</ele>
        <time>2019-12-31T15:04:29Z</time>
      </trkpt>
      <trkpt lat="38.309765" lon="-0.691774">
        <ele>255.2</ele>
        <time>2019-12-31T15:04:30Z</time>
      </trkpt>
      <trkpt lat="38.309717" lon="-0.691721">
        <ele>255.4</ele>
        <time>2019-12-31T15:04:31Z</time>
      </trkpt>
      <trkpt lat="38.309666" lon="-0.691682">
        <ele>255.6</ele>
        <time>2019-12-31T15:04:32Z</time>
      </trkpt>
      <trkpt lat="38.309611" lon="-0.691652">
        <ele>255.6</ele>
        <time>2019-12-31T15:04:33Z</time>
      </trkpt>
      <trkpt lat="38.309555" lon="-0.691630">
        <ele>255.6</ele>
        <time>2019-12-31T15:04:34Z</time>
      </trkpt>
      <trkpt lat="38.309496" lon="-0.691607">
        <ele>255.4</ele>
        <time>2019-12-31T15:04:35Z</time>
      </trkpt>
      <trkpt lat="38.309432" lon="-0.691585">
        <ele>255</ele>
        <time>2019-12-31T15:04:36Z</time>
      </trkpt>
      <trkpt lat="38.309364" lon="-0.691568">
        <ele>254.4</ele>
        <time>2019-12-31T15:04:37Z</time>
      </trkpt>
      <trkpt lat="38.309364" lon="-0.691568">
        <ele>253.8</ele>
        <time>2019-12-31T15:04:38Z</time>
      </trkpt>
      <trkpt lat="38.309217" lon="-0.691576">
        <ele>252.8</ele>
        <time>2019-12-31T15:04:39Z</time>
      </trkpt>
      <trkpt lat="38.309137" lon="-0.691592">
        <ele>252.2</ele>
        <time>2019-12-31T15:04:40Z</time>
      </trkpt>
      <trkpt lat="38.309066" lon="-0.691617">
        <ele>252</ele>
        <time>2019-12-31T15:04:41Z</time>
      </trkpt>
      <trkpt lat="38.308991" lon="-0.691645">
        <ele>251.4</ele>
        <time>2019-12-31T15:04:42Z</time>
      </trkpt>
      <trkpt lat="38.308916" lon="-0.691666">
        <ele>251.2</ele>
        <time>2019-12-31T15:04:43Z</time>
      </trkpt>
      <trkpt lat="38.308840" lon="-0.691682">
        <ele>250.8</ele>
        <time>2019-12-31T15:04:44Z</time>
      </trkpt>
      <trkpt lat="38.308764" lon="-0.691687">
        <ele>250.8</ele>
        <time>2019-12-31T15:04:45Z</time>
      </trkpt>
      <trkpt lat="38.308694" lon="-0.691676">
        <ele>250.8</ele>
        <time>2019-12-31T15:04:46Z</time>
      </trkpt>
      <trkpt lat="38.308625" lon="-0.691658">
        <ele>250.8</ele>
        <time>2019-12-31T15:04:47Z</time>
      </trkpt>
      <trkpt lat="38.308554" lon="-0.691623">
        <ele>249.4</ele>
        <time>2019-12-31T15:04:48Z</time>
      </trkpt>
      <trkpt lat="38.308478" lon="-0.691581">
        <ele>248.6</ele>
        <time>2019-12-31T15:04:49Z</time>
      </trkpt>
      <trkpt lat="38.308398" lon="-0.691552">
        <ele>247.8</ele>
        <time>2019-12-31T15:04:50Z</time>
      </trkpt>
      <trkpt lat="38.308319" lon="-0.691549">
        <ele>246.6</ele>
        <time>2019-12-31T15:04:51Z</time>
      </trkpt>
      <trkpt lat="38.308242" lon="-0.691571">
        <ele>245.4</ele>
        <time>2019-12-31T15:04:52Z</time>
      </trkpt>
      <trkpt lat="38.308168" lon="-0.691590">
        <ele>244.2</ele>
        <time>2019-12-31T15:04:53Z</time>
      </trkpt>
      <trkpt lat="38.308106" lon="-0.691589">
        <ele>244.2</ele>
        <time>2019-12-31T15:04:54Z</time>
      </trkpt>
      <trkpt lat="38.308050" lon="-0.691563">
        <ele>244.6</ele>
        <time>2019-12-31T15:04:55Z</time>
      </trkpt>
      <trkpt lat="38.307998" lon="-0.691524">
        <ele>244.6</ele>
        <time>2019-12-31T15:04:56Z</time>
      </trkpt>
      <trkpt lat="38.307951" lon="-0.691482">
        <ele>244.6</ele>
        <time>2019-12-31T15:04:57Z</time>
      </trkpt>
      <trkpt lat="38.307907" lon="-0.691427">
        <ele>244.2</ele>
        <time>2019-12-31T15:04:58Z</time>
      </trkpt>
      <trkpt lat="38.307858" lon="-0.691371">
        <ele>243.8</ele>
        <time>2019-12-31T15:04:59Z</time>
      </trkpt>
      <trkpt lat="38.307816" lon="-0.691307">
        <ele>243.2</ele>
        <time>2019-12-31T15:05:00Z</time>
      </trkpt>
      <trkpt lat="38.307774" lon="-0.691239">
        <ele>242.4</ele>
        <time>2019-12-31T15:05:01Z</time>
      </trkpt>
      <trkpt lat="38.307731" lon="-0.691172">
        <ele>242.4</ele>
        <time>2019-12-31T15:05:02Z</time>
      </trkpt>
      <trkpt lat="38.307684" lon="-0.691108">
        <ele>242.2</ele>
        <time>2019-12-31T15:05:03Z</time>
      </trkpt>
      <trkpt lat="38.307631" lon="-0.691053">
        <ele>241.6</ele>
        <time>2019-12-31T15:05:04Z</time>
      </trkpt>
      <trkpt lat="38.307569" lon="-0.691013">
        <ele>241</ele>
        <time>2019-12-31T15:05:05Z</time>
      </trkpt>
      <trkpt lat="38.307502" lon="-0.690985">
        <ele>241</ele>
        <time>2019-12-31T15:05:06Z</time>
      </trkpt>
      <trkpt lat="38.307439" lon="-0.690946">
        <ele>240.6</ele>
        <time>2019-12-31T15:05:07Z</time>
      </trkpt>
      <trkpt lat="38.307387" lon="-0.690889">
        <ele>240.4</ele>
        <time>2019-12-31T15:05:08Z</time>
      </trkpt>
      <trkpt lat="38.307344" lon="-0.690817">
        <ele>239.8</ele>
        <time>2019-12-31T15:05:09Z</time>
      </trkpt>
      <trkpt lat="38.307309" lon="-0.690739">
        <ele>238.8</ele>
        <time>2019-12-31T15:05:10Z</time>
      </trkpt>
      <trkpt lat="38.307268" lon="-0.690673">
        <ele>238.4</ele>
        <time>2019-12-31T15:05:11Z</time>
      </trkpt>
      <trkpt lat="38.307219" lon="-0.690630">
        <ele>237.8</ele>
        <time>2019-12-31T15:05:12Z</time>
      </trkpt>
      <trkpt lat="38.307165" lon="-0.690612">
        <ele>237.8</ele>
        <time>2019-12-31T15:05:13Z</time>
      </trkpt>
      <trkpt lat="38.307114" lon="-0.690614">
        <ele>237.8</ele>
        <time>2019-12-31T15:05:14Z</time>
      </trkpt>
      <trkpt lat="38.307065" lon="-0.690628">
        <ele>238.2</ele>
        <time>2019-12-31T15:05:15Z</time>
      </trkpt>
      <trkpt lat="38.307017" lon="-0.690639">
        <ele>238.4</ele>
        <time>2019-12-31T15:05:16Z</time>
      </trkpt>
      <trkpt lat="38.306974" lon="-0.690636">
        <ele>238.8</ele>
        <time>2019-12-31T15:05:17Z</time>
      </trkpt>
      <trkpt lat="38.306937" lon="-0.690623">
        <ele>239.2</ele>
        <time>2019-12-31T15:05:18Z</time>
      </trkpt>
      <trkpt lat="38.306905" lon="-0.690609">
        <ele>240</ele>
        <time>2019-12-31T15:05:19Z</time>
      </trkpt>
      <trkpt lat="38.306873" lon="-0.690592">
        <ele>240.2</ele>
        <time>2019-12-31T15:05:20Z</time>
      </trkpt>
      <trkpt lat="38.306838" lon="-0.690577">
        <ele>240.2</ele>
        <time>2019-12-31T15:05:21Z</time>
      </trkpt>
      <trkpt lat="38.306801" lon="-0.690575">
        <ele>240.2</ele>
        <time>2019-12-31T15:05:22Z</time>
      </trkpt>
      <trkpt lat="38.306761" lon="-0.690590">
        <ele>239.8</ele>
        <time>2019-12-31T15:05:23Z</time>
      </trkpt>
      <trkpt lat="38.306715" lon="-0.690612">
        <ele>239.4</ele>
        <time>2019-12-31T15:05:24Z</time>
      </trkpt>
      <trkpt lat="38.306660" lon="-0.690627">
        <ele>238.8</ele>
        <time>2019-12-31T15:05:25Z</time>
      </trkpt>
      <trkpt lat="38.306602" lon="-0.690622">
        <ele>238.2</ele>
        <time>2019-12-31T15:05:26Z</time>
      </trkpt>
      <trkpt lat="38.306546" lon="-0.690595">
        <ele>238</ele>
        <time>2019-12-31T15:05:27Z</time>
      </trkpt>
      <trkpt lat="38.306493" lon="-0.690556">
        <ele>237.8</ele>
        <time>2019-12-31T15:05:28Z</time>
      </trkpt>
      <trkpt lat="38.306443" lon="-0.690510">
        <ele>237.4</ele>
        <time>2019-12-31T15:05:29Z</time>
      </trkpt>
      <trkpt lat="38.306398" lon="-0.690461">
        <ele>237.2</ele>
        <time>2019-12-31T15:05:30Z</time>
      </trkpt>
      <trkpt lat="38.306352" lon="-0.690415">
        <ele>237.2</ele>
        <time>2019-12-31T15:05:31Z</time>
      </trkpt>
      <trkpt lat="38.306303" lon="-0.690372">
        <ele>237.2</ele>
        <time>2019-12-31T15:05:32Z</time>
      </trkpt>
      <trkpt lat="38.306247" lon="-0.690333">
        <ele>236.8</ele>
        <time>2019-12-31T15:05:33Z</time>
      </trkpt>
      <trkpt lat="38.306247" lon="-0.690333">
        <ele>236.4</ele>
        <time>2019-12-31T15:05:34Z</time>
      </trkpt>
      <trkpt lat="38.306119" lon="-0.690285">
        <ele>236.2</ele>
        <time>2019-12-31T15:05:35Z</time>
      </trkpt>
      <trkpt lat="38.306050" lon="-0.690272">
        <ele>235.4</ele>
        <time>2019-12-31T15:05:36Z</time>
      </trkpt>
      <trkpt lat="38.305976" lon="-0.690257">
        <ele>234.6</ele>
        <time>2019-12-31T15:05:37Z</time>
      </trkpt>
      <trkpt lat="38.305901" lon="-0.690244">
        <ele>234.2</ele>
        <time>2019-12-31T15:05:38Z</time>
      </trkpt>
      <trkpt lat="38.305826" lon="-0.690226">
        <ele>233.4</ele>
        <time>2019-12-31T15:05:39Z</time>
      </trkpt>
      <trkpt lat="38.305748" lon="-0.690224">
        <ele>232.8</ele>
        <time>2019-12-31T15:05:40Z</time>
      </trkpt>
      <trkpt lat="38.305676" lon="-0.690248">
        <ele>232.6</ele>
        <time>2019-12-31T15:05:41Z</time>
      </trkpt>
      <trkpt lat="38.305606" lon="-0.690283">
        <ele>232</ele>
        <time>2019-12-31T15:05:42Z</time>
      </trkpt>
      <trkpt lat="38.305530" lon="-0.690311">
        <ele>231.2</ele>
        <time>2019-12-31T15:05:43Z</time>
      </trkpt>
      <trkpt lat="38.305447" lon="-0.690331">
        <ele>230.4</ele>
        <time>2019-12-31T15:05:44Z</time>
      </trkpt>
      <trkpt lat="38.305362" lon="-0.690351">
        <ele>229.6</ele>
        <time>2019-12-31T15:05:45Z</time>
      </trkpt>
      <trkpt lat="38.305279" lon="-0.690376">
        <ele>229.2</ele>
        <time>2019-12-31T15:05:46Z</time>
      </trkpt>
      <trkpt lat="38.305198" lon="-0.690403">
        <ele>228.6</ele>
        <time>2019-12-31T15:05:47Z</time>
      </trkpt>
      <trkpt lat="38.305117" lon="-0.690417">
        <ele>228.4</ele>
        <time>2019-12-31T15:05:48Z</time>
      </trkpt>
      <trkpt lat="38.305040" lon="-0.690419">
        <ele>228.2</ele>
        <time>2019-12-31T15:05:49Z</time>
      </trkpt>
      <trkpt lat="38.305040" lon="-0.690419">
        <ele>228.2</ele>
        <time>2019-12-31T15:05:50Z</time>
      </trkpt>
      <trkpt lat="38.304903" lon="-0.690426">
        <ele>228.6</ele>
        <time>2019-12-31T15:05:51Z</time>
      </trkpt>
      <trkpt lat="38.304839" lon="-0.690429">
        <ele>228.8</ele>
        <time>2019-12-31T15:05:52Z</time>
      </trkpt>
      <trkpt lat="38.304777" lon="-0.690425">
        <ele>228.6</ele>
        <time>2019-12-31T15:05:53Z</time>
      </trkpt>
      <trkpt lat="38.304715" lon="-0.690411">
        <ele>228.4</ele>
        <time>2019-12-31T15:05:54Z</time>
      </trkpt>
      <trkpt lat="38.304652" lon="-0.690396">
        <ele>228.2</ele>
        <time>2019-12-31T15:05:55Z</time>
      </trkpt>
      <trkpt lat="38.304588" lon="-0.690392">
        <ele>228.2</ele>
        <time>2019-12-31T15:05:56Z</time>
      </trkpt>
      <trkpt lat="38.304524" lon="-0.690395">
        <ele>227.8</ele>
        <time>2019-12-31T15:05:57Z</time>
      </trkpt>
      <trkpt lat="38.304459" lon="-0.690398">
        <ele>227.6</ele>
        <time>2019-12-31T15:05:58Z</time>
      </trkpt>
      <trkpt lat="38.304394" lon="-0.690396">
        <ele>227.4</ele>
        <time>2019-12-31T15:05:59Z</time>
      </trkpt>
      <trkpt lat="38.304330" lon="-0.690387">
        <ele>227.2</ele>
        <time>2019-12-31T15:06:00Z</time>
      </trkpt>
      <trkpt lat="38.304265" lon="-0.690376">
        <ele>227.2</ele>
        <time>2019-12-31T15:06:01Z</time>
      </trkpt>
      <trkpt lat="38.304201" lon="-0.690362">
        <ele>226.8</ele>
        <time>2019-12-31T15:06:02Z</time>
      </trkpt>
      <trkpt lat="38.304135" lon="-0.690352">
        <ele>226.6</ele>
        <time>2019-12-31T15:06:03Z</time>
      </trkpt>
      <trkpt lat="38.304065" lon="-0.690345">
        <ele>225.8</ele>
        <time>2019-12-31T15:06:04Z</time>
      </trkpt>
      <trkpt lat="38.303992" lon="-0.690337">
        <ele>225.2</ele>
        <time>2019-12-31T15:06:05Z</time>
      </trkpt>
      <trkpt lat="38.303918" lon="-0.690332">
        <ele>224.6</ele>
        <time>2019-12-31T15:06:06Z</time>
      </trkpt>
      <trkpt lat="38.303841" lon="-0.690333">
        <ele>224.6</ele>
        <time>2019-12-31T15:06:07Z</time>
      </trkpt>
      <trkpt lat="38.303765" lon="-0.690336">
        <ele>224</ele>
        <time>2019-12-31T15:06:08Z</time>
      </trkpt>
      <trkpt lat="38.303765" lon="-0.690336">
        <ele>224</ele>
        <time>2019-12-31T15:06:09Z</time>
      </trkpt>
      <trkpt lat="38.303616" lon="-0.690354">
        <ele>223.4</ele>
        <time>2019-12-31T15:06:10Z</time>
      </trkpt>
      <trkpt lat="38.303540" lon="-0.690371">
        <ele>222.6</ele>
        <time>2019-12-31T15:06:11Z</time>
      </trkpt>
      <trkpt lat="38.303459" lon="-0.690389">
        <ele>222.4</ele>
        <time>2019-12-31T15:06:12Z</time>
      </trkpt>
      <trkpt lat="38.303379" lon="-0.690399">
        <ele>221.8</ele>
        <time>2019-12-31T15:06:13Z</time>
      </trkpt>
      <trkpt lat="38.303297" lon="-0.690410">
        <ele>221</ele>
        <time>2019-12-31T15:06:14Z</time>
      </trkpt>
      <trkpt lat="38.303217" lon="-0.690407">
        <ele>220.2</ele>
        <time>2019-12-31T15:06:15Z</time>
      </trkpt>
      <trkpt lat="38.303142" lon="-0.690395">
        <ele>219.4</ele>
        <time>2019-12-31T15:06:16Z</time>
      </trkpt>
      <trkpt lat="38.303072" lon="-0.690383">
        <ele>218.2</ele>
        <time>2019-12-31T15:06:17Z</time>
      </trkpt>
      <trkpt lat="38.303012" lon="-0.690372">
        <ele>217.6</ele>
        <time>2019-12-31T15:06:18Z</time>
      </trkpt>
      <trkpt lat="38.302964" lon="-0.690364">
        <ele>217.2</ele>
        <time>2019-12-31T15:06:19Z</time>
      </trkpt>
      <trkpt lat="38.302929" lon="-0.690356">
        <ele>217</ele>
        <time>2019-12-31T15:06:20Z</time>
      </trkpt>
      <trkpt lat="38.302905" lon="-0.690352">
        <ele>216.8</ele>
        <time>2019-12-31T15:06:21Z</time>
      </trkpt>
      <trkpt lat="38.302885" lon="-0.690349">
        <ele>216.8</ele>
        <time>2019-12-31T15:06:22Z</time>
      </trkpt>
      <trkpt lat="38.302865" lon="-0.690344">
        <ele>216.6</ele>
        <time>2019-12-31T15:06:23Z</time>
      </trkpt>
      <trkpt lat="38.302843" lon="-0.690343">
        <ele>216.4</ele>
        <time>2019-12-31T15:06:24Z</time>
      </trkpt>
      <trkpt lat="38.302813" lon="-0.690345">
        <ele>216.4</ele>
        <time>2019-12-31T15:06:25Z</time>
      </trkpt>
      <trkpt lat="38.302776" lon="-0.690349">
        <ele>216.2</ele>
        <time>2019-12-31T15:06:26Z</time>
      </trkpt>
      <trkpt lat="38.302727" lon="-0.690356">
        <ele>216</ele>
        <time>2019-12-31T15:06:27Z</time>
      </trkpt>
      <trkpt lat="38.302680" lon="-0.690358">
        <ele>215.8</ele>
        <time>2019-12-31T15:06:28Z</time>
      </trkpt>
      <trkpt lat="38.302628" lon="-0.690365">
        <ele>215.8</ele>
        <time>2019-12-31T15:06:29Z</time>
      </trkpt>
      <trkpt lat="38.302573" lon="-0.690372">
        <ele>215.8</ele>
        <time>2019-12-31T15:06:30Z</time>
      </trkpt>
      <trkpt lat="38.302520" lon="-0.690378">
        <ele>215.8</ele>
        <time>2019-12-31T15:06:31Z</time>
      </trkpt>
      <trkpt lat="38.302467" lon="-0.690382">
        <ele>216.2</ele>
        <time>2019-12-31T15:06:32Z</time>
      </trkpt>
      <trkpt lat="38.302410" lon="-0.690385">
        <ele>216.4</ele>
        <time>2019-12-31T15:06:33Z</time>
      </trkpt>
      <trkpt lat="38.302356" lon="-0.690392">
        <ele>216.2</ele>
        <time>2019-12-31T15:06:34Z</time>
      </trkpt>
      <trkpt lat="38.302297" lon="-0.690395">
        <ele>215.8</ele>
        <time>2019-12-31T15:06:35Z</time>
      </trkpt>
      <trkpt lat="38.302235" lon="-0.690401">
        <ele>215.6</ele>
        <time>2019-12-31T15:06:36Z</time>
      </trkpt>
      <trkpt lat="38.302235" lon="-0.690401">
        <ele>215.2</ele>
        <time>2019-12-31T15:06:37Z</time>
      </trkpt>
      <trkpt lat="38.302102" lon="-0.690411">
        <ele>214.6</ele>
        <time>2019-12-31T15:06:38Z</time>
      </trkpt>
      <trkpt lat="38.302030" lon="-0.690407">
        <ele>214.2</ele>
        <time>2019-12-31T15:06:39Z</time>
      </trkpt>
      <trkpt lat="38.301957" lon="-0.690401">
        <ele>213.8</ele>
        <time>2019-12-31T15:06:40Z</time>
      </trkpt>
      <trkpt lat="38.301884" lon="-0.690390">
        <ele>213.4</ele>
        <time>2019-12-31T15:06:41Z</time>
      </trkpt>
      <trkpt lat="38.301811" lon="-0.690379">
        <ele>213.2</ele>
        <time>2019-12-31T15:06:42Z</time>
      </trkpt>
      <trkpt lat="38.301738" lon="-0.690369">
        <ele>213</ele>
        <time>2019-12-31T15:06:43Z</time>
      </trkpt>
      <trkpt lat="38.301664" lon="-0.690363">
        <ele>212.8</ele>
        <time>2019-12-31T15:06:44Z</time>
      </trkpt>
      <trkpt lat="38.301589" lon="-0.690363">
        <ele>212.6</ele>
        <time>2019-12-31T15:06:45Z</time>
      </trkpt>
      <trkpt lat="38.301513" lon="-0.690367">
        <ele>212.2</ele>
        <time>2019-12-31T15:06:46Z</time>
      </trkpt>
      <trkpt lat="38.301439" lon="-0.690376">
        <ele>211.8</ele>
        <time>2019-12-31T15:06:47Z</time>
      </trkpt>
      <trkpt lat="38.301365" lon="-0.690387">
        <ele>211.8</ele>
        <time>2019-12-31T15:06:48Z</time>
      </trkpt>
      <trkpt lat="38.301292" lon="-0.690398">
        <ele>212</ele>
        <time>2019-12-31T15:06:49Z</time>
      </trkpt>
      <trkpt lat="38.301222" lon="-0.690399">
        <ele>212</ele>
        <time>2019-12-31T15:06:50Z</time>
      </trkpt>
      <trkpt lat="38.301152" lon="-0.690398">
        <ele>212</ele>
        <time>2019-12-31T15:06:51Z</time>
      </trkpt>
      <trkpt lat="38.301084" lon="-0.690394">
        <ele>212.2</ele>
        <time>2019-12-31T15:06:52Z</time>
      </trkpt>
      <trkpt lat="38.301022" lon="-0.690381">
        <ele>212.6</ele>
        <time>2019-12-31T15:06:53Z</time>
      </trkpt>
      <trkpt lat="38.300965" lon="-0.690367">
        <ele>212.6</ele>
        <time>2019-12-31T15:06:54Z</time>
      </trkpt>
      <trkpt lat="38.300909" lon="-0.690355">
        <ele>212.8</ele>
        <time>2019-12-31T15:06:55Z</time>
      </trkpt>
      <trkpt lat="38.300850" lon="-0.690348">
        <ele>212.8</ele>
        <time>2019-12-31T15:06:56Z</time>
      </trkpt>
      <trkpt lat="38.300791" lon="-0.690347">
        <ele>212.8</ele>
        <time>2019-12-31T15:06:57Z</time>
      </trkpt>
      <trkpt lat="38.300730" lon="-0.690351">
        <ele>212.4</ele>
        <time>2019-12-31T15:06:58Z</time>
      </trkpt>
      <trkpt lat="38.300671" lon="-0.690358">
        <ele>212.2</ele>
        <time>2019-12-31T15:06:59Z</time>
      </trkpt>
      <trkpt lat="38.300611" lon="-0.690366">
        <ele>212.4</ele>
        <time>2019-12-31T15:07:00Z</time>
      </trkpt>
      <trkpt lat="38.300551" lon="-0.690375">
        <ele>212.2</ele>
        <time>2019-12-31T15:07:01Z</time>
      </trkpt>
      <trkpt lat="38.300490" lon="-0.690382">
        <ele>212.2</ele>
        <time>2019-12-31T15:07:02Z</time>
      </trkpt>
      <trkpt lat="38.300429" lon="-0.690391">
        <ele>212</ele>
        <time>2019-12-31T15:07:03Z</time>
      </trkpt>
      <trkpt lat="38.300371" lon="-0.690407">
        <ele>212.2</ele>
        <time>2019-12-31T15:07:04Z</time>
      </trkpt>
      <trkpt lat="38.300312" lon="-0.690423">
        <ele>212</ele>
        <time>2019-12-31T15:07:05Z</time>
      </trkpt>
      <trkpt lat="38.300251" lon="-0.690442">
        <ele>211.8</ele>
        <time>2019-12-31T15:07:06Z</time>
      </trkpt>
      <trkpt lat="38.300192" lon="-0.690461">
        <ele>211.6</ele>
        <time>2019-12-31T15:07:07Z</time>
      </trkpt>
      <trkpt lat="38.300128" lon="-0.690484">
        <ele>211.6</ele>
        <time>2019-12-31T15:07:08Z</time>
      </trkpt>
      <trkpt lat="38.300062" lon="-0.690505">
        <ele>211</ele>
        <time>2019-12-31T15:07:09Z</time>
      </trkpt>
      <trkpt lat="38.299993" lon="-0.690521">
        <ele>210.8</ele>
        <time>2019-12-31T15:07:10Z</time>
      </trkpt>
      <trkpt lat="38.299917" lon="-0.690528">
        <ele>209.8</ele>
        <time>2019-12-31T15:07:11Z</time>
      </trkpt>
      <trkpt lat="38.299837" lon="-0.690526">
        <ele>209</ele>
        <time>2019-12-31T15:07:12Z</time>
      </trkpt>
      <trkpt lat="38.299756" lon="-0.690520">
        <ele>208.2</ele>
        <time>2019-12-31T15:07:13Z</time>
      </trkpt>
      <trkpt lat="38.299671" lon="-0.690521">
        <ele>207</ele>
        <time>2019-12-31T15:07:14Z</time>
      </trkpt>
      <trkpt lat="38.299585" lon="-0.690537">
        <ele>206.6</ele>
        <time>2019-12-31T15:07:15Z</time>
      </trkpt>
      <trkpt lat="38.299499" lon="-0.690562">
        <ele>206</ele>
        <time>2019-12-31T15:07:16Z</time>
      </trkpt>
      <trkpt lat="38.299416" lon="-0.690595">
        <ele>206</ele>
        <time>2019-12-31T15:07:17Z</time>
      </trkpt>
      <trkpt lat="38.299334" lon="-0.690625">
        <ele>205.8</ele>
        <time>2019-12-31T15:07:18Z</time>
      </trkpt>
      <trkpt lat="38.299254" lon="-0.690649">
        <ele>205.8</ele>
        <time>2019-12-31T15:07:19Z</time>
      </trkpt>
      <trkpt lat="38.299173" lon="-0.690675">
        <ele>205.8</ele>
        <time>2019-12-31T15:07:20Z</time>
      </trkpt>
      <trkpt lat="38.299095" lon="-0.690699">
        <ele>205.6</ele>
        <time>2019-12-31T15:07:21Z</time>
      </trkpt>
      <trkpt lat="38.299020" lon="-0.690720">
        <ele>205.8</ele>
        <time>2019-12-31T15:07:22Z</time>
      </trkpt>
      <trkpt lat="38.298948" lon="-0.690739">
        <ele>206</ele>
        <time>2019-12-31T15:07:23Z</time>
      </trkpt>
      <trkpt lat="38.298877" lon="-0.690757">
        <ele>206</ele>
        <time>2019-12-31T15:07:24Z</time>
      </trkpt>
      <trkpt lat="38.298877" lon="-0.690757">
        <ele>206.4</ele>
        <time>2019-12-31T15:07:25Z</time>
      </trkpt>
      <trkpt lat="38.298743" lon="-0.690792">
        <ele>206.8</ele>
        <time>2019-12-31T15:07:26Z</time>
      </trkpt>
      <trkpt lat="38.298677" lon="-0.690808">
        <ele>206.6</ele>
        <time>2019-12-31T15:07:27Z</time>
      </trkpt>
      <trkpt lat="38.298612" lon="-0.690822">
        <ele>206.6</ele>
        <time>2019-12-31T15:07:28Z</time>
      </trkpt>
      <trkpt lat="38.298551" lon="-0.690838">
        <ele>206.8</ele>
        <time>2019-12-31T15:07:29Z</time>
      </trkpt>
      <trkpt lat="38.298492" lon="-0.690854">
        <ele>207</ele>
        <time>2019-12-31T15:07:30Z</time>
      </trkpt>
      <trkpt lat="38.298434" lon="-0.690867">
        <ele>207.4</ele>
        <time>2019-12-31T15:07:31Z</time>
      </trkpt>
      <trkpt lat="38.298379" lon="-0.690881">
        <ele>207.8</ele>
        <time>2019-12-31T15:07:32Z</time>
      </trkpt>
      <trkpt lat="38.298330" lon="-0.690893">
        <ele>208</ele>
        <time>2019-12-31T15:07:33Z</time>
      </trkpt>
      <trkpt lat="38.298282" lon="-0.690904">
        <ele>208.2</ele>
        <time>2019-12-31T15:07:34Z</time>
      </trkpt>
      <trkpt lat="38.298235" lon="-0.690914">
        <ele>208.8</ele>
        <time>2019-12-31T15:07:35Z</time>
      </trkpt>
      <trkpt lat="38.298191" lon="-0.690921">
        <ele>209</ele>
        <time>2019-12-31T15:07:36Z</time>
      </trkpt>
      <trkpt lat="38.298146" lon="-0.690923">
        <ele>209.4</ele>
        <time>2019-12-31T15:07:37Z</time>
      </trkpt>
      <trkpt lat="38.298100" lon="-0.690916">
        <ele>209.8</ele>
        <time>2019-12-31T15:07:38Z</time>
      </trkpt>
      <trkpt lat="38.298059" lon="-0.690908">
        <ele>210.2</ele>
        <time>2019-12-31T15:07:39Z</time>
      </trkpt>
      <trkpt lat="38.298017" lon="-0.690904">
        <ele>210.4</ele>
        <time>2019-12-31T15:07:40Z</time>
      </trkpt>
      <trkpt lat="38.297975" lon="-0.690902">
        <ele>210.6</ele>
        <time>2019-12-31T15:07:41Z</time>
      </trkpt>
      <trkpt lat="38.297934" lon="-0.690898">
        <ele>210.8</ele>
        <time>2019-12-31T15:07:42Z</time>
      </trkpt>
      <trkpt lat="38.297895" lon="-0.690890">
        <ele>211.2</ele>
        <time>2019-12-31T15:07:43Z</time>
      </trkpt>
      <trkpt lat="38.297853" lon="-0.690879">
        <ele>211.6</ele>
        <time>2019-12-31T15:07:44Z</time>
      </trkpt>
      <trkpt lat="38.297813" lon="-0.690865">
        <ele>211.8</ele>
        <time>2019-12-31T15:07:45Z</time>
      </trkpt>
      <trkpt lat="38.297774" lon="-0.690848">
        <ele>211.8</ele>
        <time>2019-12-31T15:07:46Z</time>
      </trkpt>
      <trkpt lat="38.297735" lon="-0.690836">
        <ele>212.4</ele>
        <time>2019-12-31T15:07:47Z</time>
      </trkpt>
      <trkpt lat="38.297694" lon="-0.690835">
        <ele>212.8</ele>
        <time>2019-12-31T15:07:48Z</time>
      </trkpt>
      <trkpt lat="38.297657" lon="-0.690843">
        <ele>213</ele>
        <time>2019-12-31T15:07:49Z</time>
      </trkpt>
      <trkpt lat="38.297621" lon="-0.690857">
        <ele>213.2</ele>
        <time>2019-12-31T15:07:50Z</time>
      </trkpt>
      <trkpt lat="38.297587" lon="-0.690872">
        <ele>213.4</ele>
        <time>2019-12-31T15:07:51Z</time>
      </trkpt>
      <trkpt lat="38.297549" lon="-0.690890">
        <ele>213.6</ele>
        <time>2019-12-31T15:07:52Z</time>
      </trkpt>
      <trkpt lat="38.297508" lon="-0.690910">
        <ele>213.4</ele>
        <time>2019-12-31T15:07:53Z</time>
      </trkpt>
      <trkpt lat="38.297466" lon="-0.690929">
        <ele>213.2</ele>
        <time>2019-12-31T15:07:54Z</time>
      </trkpt>
      <trkpt lat="38.297421" lon="-0.690946">
        <ele>213.2</ele>
        <time>2019-12-31T15:07:55Z</time>
      </trkpt>
      <trkpt lat="38.297378" lon="-0.690967">
        <ele>213.2</ele>
        <time>2019-12-31T15:07:56Z</time>
      </trkpt>
      <trkpt lat="38.297332" lon="-0.690986">
        <ele>213.2</ele>
        <time>2019-12-31T15:07:57Z</time>
      </trkpt>
      <trkpt lat="38.297284" lon="-0.691007">
        <ele>213</ele>
        <time>2019-12-31T15:07:58Z</time>
      </trkpt>
      <trkpt lat="38.297284" lon="-0.691007">
        <ele>212.6</ele>
        <time>2019-12-31T15:07:59Z</time>
      </trkpt>
      <trkpt lat="38.297175" lon="-0.691050">
        <ele>212.4</ele>
        <time>2019-12-31T15:08:00Z</time>
      </trkpt>
      <trkpt lat="38.297117" lon="-0.691072">
        <ele>212.2</ele>
        <time>2019-12-31T15:08:01Z</time>
      </trkpt>
      <trkpt lat="38.297057" lon="-0.691092">
        <ele>211.6</ele>
        <time>2019-12-31T15:08:02Z</time>
      </trkpt>
      <trkpt lat="38.296993" lon="-0.691113">
        <ele>211.2</ele>
        <time>2019-12-31T15:08:03Z</time>
      </trkpt>
      <trkpt lat="38.296925" lon="-0.691138">
        <ele>210.6</ele>
        <time>2019-12-31T15:08:04Z</time>
      </trkpt>
      <trkpt lat="38.296855" lon="-0.691163">
        <ele>210</ele>
        <time>2019-12-31T15:08:05Z</time>
      </trkpt>
      <trkpt lat="38.296785" lon="-0.691188">
        <ele>209.8</ele>
        <time>2019-12-31T15:08:06Z</time>
      </trkpt>
      <trkpt lat="38.296715" lon="-0.691214">
        <ele>209.6</ele>
        <time>2019-12-31T15:08:07Z</time>
      </trkpt>
      <trkpt lat="38.296644" lon="-0.691240">
        <ele>209.2</ele>
        <time>2019-12-31T15:08:08Z</time>
      </trkpt>
      <trkpt lat="38.296575" lon="-0.691266">
        <ele>209.4</ele>
        <time>2019-12-31T15:08:09Z</time>
      </trkpt>
      <trkpt lat="38.296506" lon="-0.691291">
        <ele>209.4</ele>
        <time>2019-12-31T15:08:10Z</time>
      </trkpt>
      <trkpt lat="38.296440" lon="-0.691315">
        <ele>209.2</ele>
        <time>2019-12-31T15:08:11Z</time>
      </trkpt>
      <trkpt lat="38.296374" lon="-0.691338">
        <ele>209.4</ele>
        <time>2019-12-31T15:08:12Z</time>
      </trkpt>
      <trkpt lat="38.296307" lon="-0.691362">
        <ele>209.2</ele>
        <time>2019-12-31T15:08:13Z</time>
      </trkpt>
      <trkpt lat="38.296240" lon="-0.691386">
        <ele>209</ele>
        <time>2019-12-31T15:08:14Z</time>
      </trkpt>
      <trkpt lat="38.296174" lon="-0.691411">
        <ele>208.8</ele>
        <time>2019-12-31T15:08:15Z</time>
      </trkpt>
      <trkpt lat="38.296107" lon="-0.691438">
        <ele>208.6</ele>
        <time>2019-12-31T15:08:16Z</time>
      </trkpt>
      <trkpt lat="38.296040" lon="-0.691466">
        <ele>208.2</ele>
        <time>2019-12-31T15:08:17Z</time>
      </trkpt>
      <trkpt lat="38.295974" lon="-0.691494">
        <ele>208</ele>
        <time>2019-12-31T15:08:18Z</time>
      </trkpt>
      <trkpt lat="38.295905" lon="-0.691522">
        <ele>207.8</ele>
        <time>2019-12-31T15:08:19Z</time>
      </trkpt>
      <trkpt lat="38.295837" lon="-0.691550">
        <ele>207.4</ele>
        <time>2019-12-31T15:08:20Z</time>
      </trkpt>
      <trkpt lat="38.295767" lon="-0.691580">
        <ele>207</ele>
        <time>2019-12-31T15:08:21Z</time>
      </trkpt>
      <trkpt lat="38.295697" lon="-0.691614">
        <ele>206.8</ele>
        <time>2019-12-31T15:08:22Z</time>
      </trkpt>
      <trkpt lat="38.295627" lon="-0.691651">
        <ele>206.4</ele>
        <time>2019-12-31T15:08:23Z</time>
      </trkpt>
      <trkpt lat="38.295557" lon="-0.691690">
        <ele>206.2</ele>
        <time>2019-12-31T15:08:24Z</time>
      </trkpt>
      <trkpt lat="38.295486" lon="-0.691728">
        <ele>205.8</ele>
        <time>2019-12-31T15:08:25Z</time>
      </trkpt>
      <trkpt lat="38.295415" lon="-0.691769">
        <ele>205.8</ele>
        <time>2019-12-31T15:08:26Z</time>
      </trkpt>
      <trkpt lat="38.295345" lon="-0.691810">
        <ele>205.2</ele>
        <time>2019-12-31T15:08:27Z</time>
      </trkpt>
      <trkpt lat="38.295274" lon="-0.691850">
        <ele>205</ele>
        <time>2019-12-31T15:08:28Z</time>
      </trkpt>
      <trkpt lat="38.295203" lon="-0.691889">
        <ele>204.8</ele>
        <time>2019-12-31T15:08:29Z</time>
      </trkpt>
      <trkpt lat="38.295131" lon="-0.691926">
        <ele>204.6</ele>
        <time>2019-12-31T15:08:30Z</time>
      </trkpt>
      <trkpt lat="38.295059" lon="-0.691962">
        <ele>204.4</ele>
        <time>2019-12-31T15:08:31Z</time>
      </trkpt>
      <trkpt lat="38.294986" lon="-0.691999">
        <ele>204.2</ele>
        <time>2019-12-31T15:08:32Z</time>
      </trkpt>
      <trkpt lat="38.294914" lon="-0.692036">
        <ele>203.8</ele>
        <time>2019-12-31T15:08:33Z</time>
      </trkpt>
      <trkpt lat="38.294842" lon="-0.692073">
        <ele>203.6</ele>
        <time>2019-12-31T15:08:34Z</time>
      </trkpt>
      <trkpt lat="38.294769" lon="-0.692110">
        <ele>203.2</ele>
        <time>2019-12-31T15:08:35Z</time>
      </trkpt>
      <trkpt lat="38.294695" lon="-0.692147">
        <ele>202.6</ele>
        <time>2019-12-31T15:08:36Z</time>
      </trkpt>
      <trkpt lat="38.294619" lon="-0.692183">
        <ele>202.2</ele>
        <time>2019-12-31T15:08:37Z</time>
      </trkpt>
      <trkpt lat="38.294539" lon="-0.692213">
        <ele>201.8</ele>
        <time>2019-12-31T15:08:38Z</time>
      </trkpt>
      <trkpt lat="38.294455" lon="-0.692246">
        <ele>201</ele>
        <time>2019-12-31T15:08:39Z</time>
      </trkpt>
      <trkpt lat="38.294371" lon="-0.692286">
        <ele>200</ele>
        <time>2019-12-31T15:08:40Z</time>
      </trkpt>
      <trkpt lat="38.294284" lon="-0.692338">
        <ele>199</ele>
        <time>2019-12-31T15:08:41Z</time>
      </trkpt>
      <trkpt lat="38.294200" lon="-0.692410">
        <ele>197.8</ele>
        <time>2019-12-31T15:08:42Z</time>
      </trkpt>
      <trkpt lat="38.294121" lon="-0.692494">
        <ele>196.6</ele>
        <time>2019-12-31T15:08:43Z</time>
      </trkpt>
      <trkpt lat="38.294041" lon="-0.692582">
        <ele>195.4</ele>
        <time>2019-12-31T15:08:44Z</time>
      </trkpt>
      <trkpt lat="38.293954" lon="-0.692666">
        <ele>194.2</ele>
        <time>2019-12-31T15:08:45Z</time>
      </trkpt>
      <trkpt lat="38.293860" lon="-0.692740">
        <ele>193.2</ele>
        <time>2019-12-31T15:08:46Z</time>
      </trkpt>
      <trkpt lat="38.293759" lon="-0.692804">
        <ele>192.2</ele>
        <time>2019-12-31T15:08:47Z</time>
      </trkpt>
      <trkpt lat="38.293654" lon="-0.692853">
        <ele>191</ele>
        <time>2019-12-31T15:08:48Z</time>
      </trkpt>
      <trkpt lat="38.293548" lon="-0.692893">
        <ele>190.2</ele>
        <time>2019-12-31T15:08:49Z</time>
      </trkpt>
      <trkpt lat="38.293444" lon="-0.692926">
        <ele>189.8</ele>
        <time>2019-12-31T15:08:50Z</time>
      </trkpt>
      <trkpt lat="38.293341" lon="-0.692949">
        <ele>190</ele>
        <time>2019-12-31T15:08:51Z</time>
      </trkpt>
      <trkpt lat="38.293230" lon="-0.692991">
        <ele>189.8</ele>
        <time>2019-12-31T15:08:52Z</time>
      </trkpt>
      <trkpt lat="38.293143" lon="-0.693008">
        <ele>190</ele>
        <time>2019-12-31T15:08:53Z</time>
      </trkpt>
      <trkpt lat="38.293062" lon="-0.693033">
        <ele>190</ele>
        <time>2019-12-31T15:08:54Z</time>
      </trkpt>
      <trkpt lat="38.292983" lon="-0.693062">
        <ele>190.4</ele>
        <time>2019-12-31T15:08:55Z</time>
      </trkpt>
      <trkpt lat="38.292914" lon="-0.693086">
        <ele>190.6</ele>
        <time>2019-12-31T15:08:56Z</time>
      </trkpt>
      <trkpt lat="38.292845" lon="-0.693114">
        <ele>191</ele>
        <time>2019-12-31T15:08:57Z</time>
      </trkpt>
      <trkpt lat="38.292781" lon="-0.693139">
        <ele>191.4</ele>
        <time>2019-12-31T15:08:58Z</time>
      </trkpt>
      <trkpt lat="38.292723" lon="-0.693160">
        <ele>192</ele>
        <time>2019-12-31T15:08:59Z</time>
      </trkpt>
      <trkpt lat="38.292667" lon="-0.693179">
        <ele>192.4</ele>
        <time>2019-12-31T15:09:00Z</time>
      </trkpt>
      <trkpt lat="38.292614" lon="-0.693199">
        <ele>192.6</ele>
        <time>2019-12-31T15:09:01Z</time>
      </trkpt>
      <trkpt lat="38.292564" lon="-0.693219">
        <ele>192.6</ele>
        <time>2019-12-31T15:09:02Z</time>
      </trkpt>
      <trkpt lat="38.292516" lon="-0.693241">
        <ele>193</ele>
        <time>2019-12-31T15:09:03Z</time>
      </trkpt>
      <trkpt lat="38.292468" lon="-0.693261">
        <ele>193.2</ele>
        <time>2019-12-31T15:09:04Z</time>
      </trkpt>
      <trkpt lat="38.292421" lon="-0.693283">
        <ele>193.4</ele>
        <time>2019-12-31T15:09:05Z</time>
      </trkpt>
      <trkpt lat="38.292374" lon="-0.693303">
        <ele>193.4</ele>
        <time>2019-12-31T15:09:06Z</time>
      </trkpt>
      <trkpt lat="38.292328" lon="-0.693322">
        <ele>193.4</ele>
        <time>2019-12-31T15:09:07Z</time>
      </trkpt>
      <trkpt lat="38.292279" lon="-0.693343">
        <ele>193.4</ele>
        <time>2019-12-31T15:09:08Z</time>
      </trkpt>
      <trkpt lat="38.292231" lon="-0.693365">
        <ele>193.4</ele>
        <time>2019-12-31T15:09:09Z</time>
      </trkpt>
      <trkpt lat="38.292181" lon="-0.693392">
        <ele>193</ele>
        <time>2019-12-31T15:09:10Z</time>
      </trkpt>
      <trkpt lat="38.292130" lon="-0.693420">
        <ele>193</ele>
        <time>2019-12-31T15:09:11Z</time>
      </trkpt>
      <trkpt lat="38.292078" lon="-0.693447">
        <ele>192.8</ele>
        <time>2019-12-31T15:09:12Z</time>
      </trkpt>
      <trkpt lat="38.292024" lon="-0.693475">
        <ele>192.8</ele>
        <time>2019-12-31T15:09:13Z</time>
      </trkpt>
      <trkpt lat="38.291971" lon="-0.693506">
        <ele>192.6</ele>
        <time>2019-12-31T15:09:14Z</time>
      </trkpt>
      <trkpt lat="38.291918" lon="-0.693539">
        <ele>192.4</ele>
        <time>2019-12-31T15:09:15Z</time>
      </trkpt>
      <trkpt lat="38.291864" lon="-0.693571">
        <ele>192.2</ele>
        <time>2019-12-31T15:09:16Z</time>
      </trkpt>
      <trkpt lat="38.291809" lon="-0.693606">
        <ele>191.8</ele>
        <time>2019-12-31T15:09:17Z</time>
      </trkpt>
      <trkpt lat="38.291755" lon="-0.693642">
        <ele>191.8</ele>
        <time>2019-12-31T15:09:18Z</time>
      </trkpt>
      <trkpt lat="38.291755" lon="-0.693642">
        <ele>191.6</ele>
        <time>2019-12-31T15:09:19Z</time>
      </trkpt>
      <trkpt lat="38.291647" lon="-0.693717">
        <ele>191.6</ele>
        <time>2019-12-31T15:09:20Z</time>
      </trkpt>
      <trkpt lat="38.291592" lon="-0.693756">
        <ele>191.6</ele>
        <time>2019-12-31T15:09:21Z</time>
      </trkpt>
      <trkpt lat="38.291536" lon="-0.693794">
        <ele>191.2</ele>
        <time>2019-12-31T15:09:22Z</time>
      </trkpt>
      <trkpt lat="38.291479" lon="-0.693832">
        <ele>191.2</ele>
        <time>2019-12-31T15:09:23Z</time>
      </trkpt>
      <trkpt lat="38.291422" lon="-0.693872">
        <ele>191</ele>
        <time>2019-12-31T15:09:24Z</time>
      </trkpt>
      <trkpt lat="38.291365" lon="-0.693911">
        <ele>191</ele>
        <time>2019-12-31T15:09:25Z</time>
      </trkpt>
      <trkpt lat="38.291307" lon="-0.693949">
        <ele>190.8</ele>
        <time>2019-12-31T15:09:26Z</time>
      </trkpt>
      <trkpt lat="38.291249" lon="-0.693987">
        <ele>190.6</ele>
        <time>2019-12-31T15:09:27Z</time>
      </trkpt>
      <trkpt lat="38.291190" lon="-0.694026">
        <ele>190.4</ele>
        <time>2019-12-31T15:09:28Z</time>
      </trkpt>
      <trkpt lat="38.291132" lon="-0.694066">
        <ele>190.2</ele>
        <time>2019-12-31T15:09:29Z</time>
      </trkpt>
      <trkpt lat="38.291132" lon="-0.694066">
        <ele>190</ele>
        <time>2019-12-31T15:09:30Z</time>
      </trkpt>
      <trkpt lat="38.291015" lon="-0.694152">
        <ele>189.8</ele>
        <time>2019-12-31T15:09:31Z</time>
      </trkpt>
      <trkpt lat="38.290955" lon="-0.694199">
        <ele>189.4</ele>
        <time>2019-12-31T15:09:32Z</time>
      </trkpt>
      <trkpt lat="38.290896" lon="-0.694250">
        <ele>189</ele>
        <time>2019-12-31T15:09:33Z</time>
      </trkpt>
      <trkpt lat="38.290837" lon="-0.694305">
        <ele>188.6</ele>
        <time>2019-12-31T15:09:34Z</time>
      </trkpt>
      <trkpt lat="38.290776" lon="-0.694366">
        <ele>188</ele>
        <time>2019-12-31T15:09:35Z</time>
      </trkpt>
      <trkpt lat="38.290712" lon="-0.694432">
        <ele>187.4</ele>
        <time>2019-12-31T15:09:36Z</time>
      </trkpt>
      <trkpt lat="38.290647" lon="-0.694500">
        <ele>186.6</ele>
        <time>2019-12-31T15:09:37Z</time>
      </trkpt>
      <trkpt lat="38.290579" lon="-0.694565">
        <ele>185.8</ele>
        <time>2019-12-31T15:09:38Z</time>
      </trkpt>
      <trkpt lat="38.290508" lon="-0.694624">
        <ele>185.4</ele>
        <time>2019-12-31T15:09:39Z</time>
      </trkpt>
      <trkpt lat="38.290436" lon="-0.694684">
        <ele>184.6</ele>
        <time>2019-12-31T15:09:40Z</time>
      </trkpt>
      <trkpt lat="38.290363" lon="-0.694744">
        <ele>184.2</ele>
        <time>2019-12-31T15:09:41Z</time>
      </trkpt>
      <trkpt lat="38.290289" lon="-0.694797">
        <ele>184</ele>
        <time>2019-12-31T15:09:42Z</time>
      </trkpt>
      <trkpt lat="38.290214" lon="-0.694844">
        <ele>183.8</ele>
        <time>2019-12-31T15:09:43Z</time>
      </trkpt>
      <trkpt lat="38.290140" lon="-0.694889">
        <ele>183.6</ele>
        <time>2019-12-31T15:09:44Z</time>
      </trkpt>
      <trkpt lat="38.290068" lon="-0.694931">
        <ele>183.2</ele>
        <time>2019-12-31T15:09:45Z</time>
      </trkpt>
      <trkpt lat="38.289995" lon="-0.694972">
        <ele>183.2</ele>
        <time>2019-12-31T15:09:46Z</time>
      </trkpt>
      <trkpt lat="38.289922" lon="-0.695013">
        <ele>183.2</ele>
        <time>2019-12-31T15:09:47Z</time>
      </trkpt>
      <trkpt lat="38.289851" lon="-0.695055">
        <ele>183</ele>
        <time>2019-12-31T15:09:48Z</time>
      </trkpt>
      <trkpt lat="38.289781" lon="-0.695098">
        <ele>183</ele>
        <time>2019-12-31T15:09:49Z</time>
      </trkpt>
      <trkpt lat="38.289711" lon="-0.695139">
        <ele>182.8</ele>
        <time>2019-12-31T15:09:50Z</time>
      </trkpt>
      <trkpt lat="38.289641" lon="-0.695182">
        <ele>182.4</ele>
        <time>2019-12-31T15:09:51Z</time>
      </trkpt>
      <trkpt lat="38.289571" lon="-0.695225">
        <ele>182</ele>
        <time>2019-12-31T15:09:52Z</time>
      </trkpt>
      <trkpt lat="38.289501" lon="-0.695268">
        <ele>181.8</ele>
        <time>2019-12-31T15:09:53Z</time>
      </trkpt>
      <trkpt lat="38.289431" lon="-0.695310">
        <ele>181.4</ele>
        <time>2019-12-31T15:09:54Z</time>
      </trkpt>
      <trkpt lat="38.289362" lon="-0.695353">
        <ele>181</ele>
        <time>2019-12-31T15:09:55Z</time>
      </trkpt>
      <trkpt lat="38.289294" lon="-0.695393">
        <ele>181</ele>
        <time>2019-12-31T15:09:56Z</time>
      </trkpt>
      <trkpt lat="38.289225" lon="-0.695431">
        <ele>180.8</ele>
        <time>2019-12-31T15:09:57Z</time>
      </trkpt>
      <trkpt lat="38.289155" lon="-0.695469">
        <ele>180.8</ele>
        <time>2019-12-31T15:09:58Z</time>
      </trkpt>
      <trkpt lat="38.289155" lon="-0.695469">
        <ele>180.4</ele>
        <time>2019-12-31T15:09:59Z</time>
      </trkpt>
      <trkpt lat="38.289015" lon="-0.695547">
        <ele>180</ele>
        <time>2019-12-31T15:10:00Z</time>
      </trkpt>
      <trkpt lat="38.288946" lon="-0.695589">
        <ele>179.8</ele>
        <time>2019-12-31T15:10:01Z</time>
      </trkpt>
      <trkpt lat="38.288880" lon="-0.695637">
        <ele>179.6</ele>
        <time>2019-12-31T15:10:02Z</time>
      </trkpt>
      <trkpt lat="38.288817" lon="-0.695691">
        <ele>179.2</ele>
        <time>2019-12-31T15:10:03Z</time>
      </trkpt>
      <trkpt lat="38.288755" lon="-0.695750">
        <ele>179</ele>
        <time>2019-12-31T15:10:04Z</time>
      </trkpt>
      <trkpt lat="38.288695" lon="-0.695814">
        <ele>178.6</ele>
        <time>2019-12-31T15:10:05Z</time>
      </trkpt>
      <trkpt lat="38.288640" lon="-0.695885">
        <ele>178</ele>
        <time>2019-12-31T15:10:06Z</time>
      </trkpt>
      <trkpt lat="38.288590" lon="-0.695959">
        <ele>177.8</ele>
        <time>2019-12-31T15:10:07Z</time>
      </trkpt>
      <trkpt lat="38.288543" lon="-0.696038">
        <ele>177.4</ele>
        <time>2019-12-31T15:10:08Z</time>
      </trkpt>
      <trkpt lat="38.288500" lon="-0.696118">
        <ele>177.4</ele>
        <time>2019-12-31T15:10:09Z</time>
      </trkpt>
      <trkpt lat="38.288459" lon="-0.696199">
        <ele>177.2</ele>
        <time>2019-12-31T15:10:10Z</time>
      </trkpt>
      <trkpt lat="38.288423" lon="-0.696284">
        <ele>176.8</ele>
        <time>2019-12-31T15:10:11Z</time>
      </trkpt>
      <trkpt lat="38.288387" lon="-0.696370">
        <ele>176.2</ele>
        <time>2019-12-31T15:10:12Z</time>
      </trkpt>
      <trkpt lat="38.288338" lon="-0.696451">
        <ele>175.6</ele>
        <time>2019-12-31T15:10:13Z</time>
      </trkpt>
      <trkpt lat="38.288276" lon="-0.696520">
        <ele>175</ele>
        <time>2019-12-31T15:10:14Z</time>
      </trkpt>
      <trkpt lat="38.288205" lon="-0.696572">
        <ele>174.4</ele>
        <time>2019-12-31T15:10:15Z</time>
      </trkpt>
      <trkpt lat="38.288125" lon="-0.696604">
        <ele>173.6</ele>
        <time>2019-12-31T15:10:16Z</time>
      </trkpt>
      <trkpt lat="38.288042" lon="-0.696604">
        <ele>173.2</ele>
        <time>2019-12-31T15:10:17Z</time>
      </trkpt>
      <trkpt lat="38.287961" lon="-0.696575">
        <ele>173</ele>
        <time>2019-12-31T15:10:18Z</time>
      </trkpt>
      <trkpt lat="38.287884" lon="-0.696528">
        <ele>172.4</ele>
        <time>2019-12-31T15:10:19Z</time>
      </trkpt>
      <trkpt lat="38.287804" lon="-0.696484">
        <ele>172</ele>
        <time>2019-12-31T15:10:20Z</time>
      </trkpt>
      <trkpt lat="38.287720" lon="-0.696452">
        <ele>171.6</ele>
        <time>2019-12-31T15:10:21Z</time>
      </trkpt>
      <trkpt lat="38.287634" lon="-0.696446">
        <ele>171.2</ele>
        <time>2019-12-31T15:10:22Z</time>
      </trkpt>
      <trkpt lat="38.287551" lon="-0.696470">
        <ele>171</ele>
        <time>2019-12-31T15:10:23Z</time>
      </trkpt>
      <trkpt lat="38.287472" lon="-0.696510">
        <ele>170.6</ele>
        <time>2019-12-31T15:10:24Z</time>
      </trkpt>
      <trkpt lat="38.287395" lon="-0.696556">
        <ele>170.2</ele>
        <time>2019-12-31T15:10:25Z</time>
      </trkpt>
      <trkpt lat="38.287322" lon="-0.696602">
        <ele>170.2</ele>
        <time>2019-12-31T15:10:26Z</time>
      </trkpt>
      <trkpt lat="38.287249" lon="-0.696646">
        <ele>170.2</ele>
        <time>2019-12-31T15:10:27Z</time>
      </trkpt>
      <trkpt lat="38.287175" lon="-0.696685">
        <ele>170</ele>
        <time>2019-12-31T15:10:28Z</time>
      </trkpt>
      <trkpt lat="38.287101" lon="-0.696720">
        <ele>170</ele>
        <time>2019-12-31T15:10:29Z</time>
      </trkpt>
      <trkpt lat="38.287026" lon="-0.696749">
        <ele>169.6</ele>
        <time>2019-12-31T15:10:30Z</time>
      </trkpt>
      <trkpt lat="38.286951" lon="-0.696774">
        <ele>169.6</ele>
        <time>2019-12-31T15:10:31Z</time>
      </trkpt>
      <trkpt lat="38.286876" lon="-0.696795">
        <ele>169.6</ele>
        <time>2019-12-31T15:10:32Z</time>
      </trkpt>
      <trkpt lat="38.286801" lon="-0.696806">
        <ele>169.4</ele>
        <time>2019-12-31T15:10:33Z</time>
      </trkpt>
      <trkpt lat="38.286726" lon="-0.696813">
        <ele>169.6</ele>
        <time>2019-12-31T15:10:34Z</time>
      </trkpt>
      <trkpt lat="38.286651" lon="-0.696820">
        <ele>169.2</ele>
        <time>2019-12-31T15:10:35Z</time>
      </trkpt>
      <trkpt lat="38.286577" lon="-0.696827">
        <ele>169.4</ele>
        <time>2019-12-31T15:10:36Z</time>
      </trkpt>
      <trkpt lat="38.286503" lon="-0.696834">
        <ele>169.2</ele>
        <time>2019-12-31T15:10:37Z</time>
      </trkpt>
      <trkpt lat="38.286430" lon="-0.696844">
        <ele>169.2</ele>
        <time>2019-12-31T15:10:38Z</time>
      </trkpt>
      <trkpt lat="38.286359" lon="-0.696858">
        <ele>168.8</ele>
        <time>2019-12-31T15:10:39Z</time>
      </trkpt>
      <trkpt lat="38.286288" lon="-0.696875">
        <ele>169</ele>
        <time>2019-12-31T15:10:40Z</time>
      </trkpt>
      <trkpt lat="38.286219" lon="-0.696898">
        <ele>168.8</ele>
        <time>2019-12-31T15:10:41Z</time>
      </trkpt>
      <trkpt lat="38.286153" lon="-0.696927">
        <ele>168.6</ele>
        <time>2019-12-31T15:10:42Z</time>
      </trkpt>
      <trkpt lat="38.286090" lon="-0.696963">
        <ele>168.6</ele>
        <time>2019-12-31T15:10:43Z</time>
      </trkpt>
      <trkpt lat="38.286028" lon="-0.697002">
        <ele>168.4</ele>
        <time>2019-12-31T15:10:44Z</time>
      </trkpt>
      <trkpt lat="38.285968" lon="-0.697040">
        <ele>168.2</ele>
        <time>2019-12-31T15:10:45Z</time>
      </trkpt>
      <trkpt lat="38.285908" lon="-0.697077">
        <ele>168.4</ele>
        <time>2019-12-31T15:10:46Z</time>
      </trkpt>
      <trkpt lat="38.285849" lon="-0.697115">
        <ele>168.2</ele>
        <time>2019-12-31T15:10:47Z</time>
      </trkpt>
      <trkpt lat="38.285790" lon="-0.697153">
        <ele>168</ele>
        <time>2019-12-31T15:10:48Z</time>
      </trkpt>
      <trkpt lat="38.285732" lon="-0.697191">
        <ele>168</ele>
        <time>2019-12-31T15:10:49Z</time>
      </trkpt>
      <trkpt lat="38.285674" lon="-0.697229">
        <ele>168.2</ele>
        <time>2019-12-31T15:10:50Z</time>
      </trkpt>
      <trkpt lat="38.285617" lon="-0.697268">
        <ele>168.2</ele>
        <time>2019-12-31T15:10:51Z</time>
      </trkpt>
      <trkpt lat="38.285561" lon="-0.697308">
        <ele>168</ele>
        <time>2019-12-31T15:10:52Z</time>
      </trkpt>
      <trkpt lat="38.285503" lon="-0.697347">
        <ele>168</ele>
        <time>2019-12-31T15:10:53Z</time>
      </trkpt>
      <trkpt lat="38.285444" lon="-0.697386">
        <ele>167.6</ele>
        <time>2019-12-31T15:10:54Z</time>
      </trkpt>
      <trkpt lat="38.285444" lon="-0.697386">
        <ele>167.2</ele>
        <time>2019-12-31T15:10:55Z</time>
      </trkpt>
      <trkpt lat="38.285312" lon="-0.697454">
        <ele>166.6</ele>
        <time>2019-12-31T15:10:56Z</time>
      </trkpt>
      <trkpt lat="38.285239" lon="-0.697479">
        <ele>166.2</ele>
        <time>2019-12-31T15:10:57Z</time>
      </trkpt>
      <trkpt lat="38.285161" lon="-0.697498">
        <ele>165.4</ele>
        <time>2019-12-31T15:10:58Z</time>
      </trkpt>
      <trkpt lat="38.285080" lon="-0.697506">
        <ele>164.8</ele>
        <time>2019-12-31T15:10:59Z</time>
      </trkpt>
      <trkpt lat="38.284995" lon="-0.697508">
        <ele>164</ele>
        <time>2019-12-31T15:11:00Z</time>
      </trkpt>
      <trkpt lat="38.284907" lon="-0.697506">
        <ele>163.4</ele>
        <time>2019-12-31T15:11:01Z</time>
      </trkpt>
      <trkpt lat="38.284820" lon="-0.697500">
        <ele>163.2</ele>
        <time>2019-12-31T15:11:02Z</time>
      </trkpt>
      <trkpt lat="38.284731" lon="-0.697495">
        <ele>162.8</ele>
        <time>2019-12-31T15:11:03Z</time>
      </trkpt>
      <trkpt lat="38.284640" lon="-0.697491">
        <ele>162.4</ele>
        <time>2019-12-31T15:11:04Z</time>
      </trkpt>
      <trkpt lat="38.284549" lon="-0.697491">
        <ele>161.8</ele>
        <time>2019-12-31T15:11:05Z</time>
      </trkpt>
      <trkpt lat="38.284460" lon="-0.697493">
        <ele>161.6</ele>
        <time>2019-12-31T15:11:06Z</time>
      </trkpt>
      <trkpt lat="38.284377" lon="-0.697492">
        <ele>161.8</ele>
        <time>2019-12-31T15:11:07Z</time>
      </trkpt>
      <trkpt lat="38.284303" lon="-0.697487">
        <ele>162</ele>
        <time>2019-12-31T15:11:08Z</time>
      </trkpt>
      <trkpt lat="38.284232" lon="-0.697479">
        <ele>162.6</ele>
        <time>2019-12-31T15:11:09Z</time>
      </trkpt>
      <trkpt lat="38.284165" lon="-0.697470">
        <ele>163</ele>
        <time>2019-12-31T15:11:10Z</time>
      </trkpt>
      <trkpt lat="38.284104" lon="-0.697457">
        <ele>163.4</ele>
        <time>2019-12-31T15:11:11Z</time>
      </trkpt>
      <trkpt lat="38.284047" lon="-0.697445">
        <ele>163.8</ele>
        <time>2019-12-31T15:11:12Z</time>
      </trkpt>
      <trkpt lat="38.283995" lon="-0.697431">
        <ele>164.2</ele>
        <time>2019-12-31T15:11:13Z</time>
      </trkpt>
      <trkpt lat="38.283944" lon="-0.697417">
        <ele>164.6</ele>
        <time>2019-12-31T15:11:14Z</time>
      </trkpt>
      <trkpt lat="38.283897" lon="-0.697401">
        <ele>165.2</ele>
        <time>2019-12-31T15:11:15Z</time>
      </trkpt>
      <trkpt lat="38.283851" lon="-0.697383">
        <ele>165.6</ele>
        <time>2019-12-31T15:11:16Z</time>
      </trkpt>
      <trkpt lat="38.283807" lon="-0.697370">
        <ele>166</ele>
        <time>2019-12-31T15:11:17Z</time>
      </trkpt>
      <trkpt lat="38.283763" lon="-0.697360">
        <ele>166</ele>
        <time>2019-12-31T15:11:18Z</time>
      </trkpt>
      <trkpt lat="38.283723" lon="-0.697342">
        <ele>166.6</ele>
        <time>2019-12-31T15:11:19Z</time>
      </trkpt>
      <trkpt lat="38.283680" lon="-0.697325">
        <ele>166.6</ele>
        <time>2019-12-31T15:11:20Z</time>
      </trkpt>
      <trkpt lat="38.283631" lon="-0.697310">
        <ele>166.4</ele>
        <time>2019-12-31T15:11:21Z</time>
      </trkpt>
      <trkpt lat="38.283582" lon="-0.697296">
        <ele>166.2</ele>
        <time>2019-12-31T15:11:22Z</time>
      </trkpt>
      <trkpt lat="38.283528" lon="-0.697284">
        <ele>165.8</ele>
        <time>2019-12-31T15:11:23Z</time>
      </trkpt>
      <trkpt lat="38.283472" lon="-0.697270">
        <ele>165.8</ele>
        <time>2019-12-31T15:11:24Z</time>
      </trkpt>
      <trkpt lat="38.283417" lon="-0.697253">
        <ele>165.8</ele>
        <time>2019-12-31T15:11:25Z</time>
      </trkpt>
      <trkpt lat="38.283360" lon="-0.697239">
        <ele>165.6</ele>
        <time>2019-12-31T15:11:26Z</time>
      </trkpt>
      <trkpt lat="38.283302" lon="-0.697228">
        <ele>165.6</ele>
        <time>2019-12-31T15:11:27Z</time>
      </trkpt>
      <trkpt lat="38.283245" lon="-0.697218">
        <ele>165.4</ele>
        <time>2019-12-31T15:11:28Z</time>
      </trkpt>
      <trkpt lat="38.283188" lon="-0.697204">
        <ele>165.2</ele>
        <time>2019-12-31T15:11:29Z</time>
      </trkpt>
      <trkpt lat="38.283128" lon="-0.697190">
        <ele>165.2</ele>
        <time>2019-12-31T15:11:30Z</time>
      </trkpt>
      <trkpt lat="38.283128" lon="-0.697190">
        <ele>165</ele>
        <time>2019-12-31T15:11:31Z</time>
      </trkpt>
      <trkpt lat="38.283005" lon="-0.697163">
        <ele>164.8</ele>
        <time>2019-12-31T15:11:32Z</time>
      </trkpt>
      <trkpt lat="38.282943" lon="-0.697142">
        <ele>164.6</ele>
        <time>2019-12-31T15:11:33Z</time>
      </trkpt>
      <trkpt lat="38.282881" lon="-0.697122">
        <ele>164.4</ele>
        <time>2019-12-31T15:11:34Z</time>
      </trkpt>
      <trkpt lat="38.282817" lon="-0.697107">
        <ele>164.2</ele>
        <time>2019-12-31T15:11:35Z</time>
      </trkpt>
      <trkpt lat="38.282753" lon="-0.697091">
        <ele>164.2</ele>
        <time>2019-12-31T15:11:36Z</time>
      </trkpt>
      <trkpt lat="38.282688" lon="-0.697074">
        <ele>164</ele>
        <time>2019-12-31T15:11:37Z</time>
      </trkpt>
      <trkpt lat="38.282624" lon="-0.697059">
        <ele>163.8</ele>
        <time>2019-12-31T15:11:38Z</time>
      </trkpt>
      <trkpt lat="38.282560" lon="-0.697047">
        <ele>163.8</ele>
        <time>2019-12-31T15:11:39Z</time>
      </trkpt>
      <trkpt lat="38.282499" lon="-0.697033">
        <ele>163.8</ele>
        <time>2019-12-31T15:11:40Z</time>
      </trkpt>
      <trkpt lat="38.282437" lon="-0.697020">
        <ele>163.4</ele>
        <time>2019-12-31T15:11:41Z</time>
      </trkpt>
      <trkpt lat="38.282376" lon="-0.697006">
        <ele>163.4</ele>
        <time>2019-12-31T15:11:42Z</time>
      </trkpt>
      <trkpt lat="38.282316" lon="-0.696991">
        <ele>163.4</ele>
        <time>2019-12-31T15:11:43Z</time>
      </trkpt>
      <trkpt lat="38.282258" lon="-0.696970">
        <ele>163.4</ele>
        <time>2019-12-31T15:11:44Z</time>
      </trkpt>
      <trkpt lat="38.282202" lon="-0.696941">
        <ele>163.4</ele>
        <time>2019-12-31T15:11:45Z</time>
      </trkpt>
      <trkpt lat="38.282146" lon="-0.696915">
        <ele>163.2</ele>
        <time>2019-12-31T15:11:46Z</time>
      </trkpt>
      <trkpt lat="38.282092" lon="-0.696885">
        <ele>163.2</ele>
        <time>2019-12-31T15:11:47Z</time>
      </trkpt>
      <trkpt lat="38.282037" lon="-0.696856">
        <ele>163.2</ele>
        <time>2019-12-31T15:11:48Z</time>
      </trkpt>
      <trkpt lat="38.281978" lon="-0.696834">
        <ele>163</ele>
        <time>2019-12-31T15:11:49Z</time>
      </trkpt>
      <trkpt lat="38.281978" lon="-0.696834">
        <ele>163</ele>
        <time>2019-12-31T15:11:50Z</time>
      </trkpt>
      <trkpt lat="38.281920" lon="-0.696813">
        <ele>163</ele>
        <time>2019-12-31T15:11:51Z</time>
      </trkpt>
      <trkpt lat="38.281803" lon="-0.696775">
        <ele>163</ele>
        <time>2019-12-31T15:11:52Z</time>
      </trkpt>
      <trkpt lat="38.281744" lon="-0.696761">
        <ele>163</ele>
        <time>2019-12-31T15:11:53Z</time>
      </trkpt>
      <trkpt lat="38.281685" lon="-0.696750">
        <ele>162.8</ele>
        <time>2019-12-31T15:11:54Z</time>
      </trkpt>
      <trkpt lat="38.281627" lon="-0.696741">
        <ele>162.8</ele>
        <time>2019-12-31T15:11:55Z</time>
      </trkpt>
      <trkpt lat="38.281570" lon="-0.696731">
        <ele>162.8</ele>
        <time>2019-12-31T15:11:56Z</time>
      </trkpt>
      <trkpt lat="38.281514" lon="-0.696721">
        <ele>162.8</ele>
        <time>2019-12-31T15:11:57Z</time>
      </trkpt>
      <trkpt lat="38.281458" lon="-0.696715">
        <ele>162.8</ele>
        <time>2019-12-31T15:11:58Z</time>
      </trkpt>
      <trkpt lat="38.281458" lon="-0.696715">
        <ele>162.8</ele>
        <time>2019-12-31T15:11:59Z</time>
      </trkpt>
      <trkpt lat="38.281342" lon="-0.696710">
        <ele>162.4</ele>
        <time>2019-12-31T15:12:00Z</time>
      </trkpt>
      <trkpt lat="38.281284" lon="-0.696704">
        <ele>162.6</ele>
        <time>2019-12-31T15:12:01Z</time>
      </trkpt>
      <trkpt lat="38.281226" lon="-0.696703">
        <ele>162.4</ele>
        <time>2019-12-31T15:12:02Z</time>
      </trkpt>
      <trkpt lat="38.281168" lon="-0.696707">
        <ele>162.4</ele>
        <time>2019-12-31T15:12:03Z</time>
      </trkpt>
      <trkpt lat="38.281107" lon="-0.696711">
        <ele>162.4</ele>
        <time>2019-12-31T15:12:04Z</time>
      </trkpt>
      <trkpt lat="38.281044" lon="-0.696714">
        <ele>162.2</ele>
        <time>2019-12-31T15:12:05Z</time>
      </trkpt>
      <trkpt lat="38.280980" lon="-0.696715">
        <ele>161.8</ele>
        <time>2019-12-31T15:12:06Z</time>
      </trkpt>
      <trkpt lat="38.280916" lon="-0.696713">
        <ele>161.6</ele>
        <time>2019-12-31T15:12:07Z</time>
      </trkpt>
      <trkpt lat="38.280850" lon="-0.696711">
        <ele>161.4</ele>
        <time>2019-12-31T15:12:08Z</time>
      </trkpt>
      <trkpt lat="38.280779" lon="-0.696711">
        <ele>161</ele>
        <time>2019-12-31T15:12:09Z</time>
      </trkpt>
      <trkpt lat="38.280709" lon="-0.696709">
        <ele>160.8</ele>
        <time>2019-12-31T15:12:10Z</time>
      </trkpt>
      <trkpt lat="38.280638" lon="-0.696709">
        <ele>160.4</ele>
        <time>2019-12-31T15:12:11Z</time>
      </trkpt>
      <trkpt lat="38.280566" lon="-0.696708">
        <ele>160.2</ele>
        <time>2019-12-31T15:12:12Z</time>
      </trkpt>
      <trkpt lat="38.280495" lon="-0.696707">
        <ele>160</ele>
        <time>2019-12-31T15:12:13Z</time>
      </trkpt>
      <trkpt lat="38.280425" lon="-0.696703">
        <ele>159.8</ele>
        <time>2019-12-31T15:12:14Z</time>
      </trkpt>
      <trkpt lat="38.280355" lon="-0.696699">
        <ele>159.6</ele>
        <time>2019-12-31T15:12:15Z</time>
      </trkpt>
      <trkpt lat="38.280284" lon="-0.696699">
        <ele>159.4</ele>
        <time>2019-12-31T15:12:16Z</time>
      </trkpt>
      <trkpt lat="38.280214" lon="-0.696701">
        <ele>159.4</ele>
        <time>2019-12-31T15:12:17Z</time>
      </trkpt>
      <trkpt lat="38.280145" lon="-0.696720">
        <ele>159.2</ele>
        <time>2019-12-31T15:12:18Z</time>
      </trkpt>
      <trkpt lat="38.280086" lon="-0.696761">
        <ele>158.8</ele>
        <time>2019-12-31T15:12:19Z</time>
      </trkpt>
      <trkpt lat="38.280029" lon="-0.696809">
        <ele>159</ele>
        <time>2019-12-31T15:12:20Z</time>
      </trkpt>
      <trkpt lat="38.279970" lon="-0.696856">
        <ele>159</ele>
        <time>2019-12-31T15:12:21Z</time>
      </trkpt>
      <trkpt lat="38.279909" lon="-0.696895">
        <ele>159</ele>
        <time>2019-12-31T15:12:22Z</time>
      </trkpt>
      <trkpt lat="38.279842" lon="-0.696919">
        <ele>158.6</ele>
        <time>2019-12-31T15:12:23Z</time>
      </trkpt>
      <trkpt lat="38.279774" lon="-0.696925">
        <ele>158.4</ele>
        <time>2019-12-31T15:12:24Z</time>
      </trkpt>
      <trkpt lat="38.279706" lon="-0.696915">
        <ele>158.4</ele>
        <time>2019-12-31T15:12:25Z</time>
      </trkpt>
      <trkpt lat="38.279639" lon="-0.696893">
        <ele>158.4</ele>
        <time>2019-12-31T15:12:26Z</time>
      </trkpt>
      <trkpt lat="38.279575" lon="-0.696859">
        <ele>158.2</ele>
        <time>2019-12-31T15:12:27Z</time>
      </trkpt>
      <trkpt lat="38.279511" lon="-0.696824">
        <ele>158.4</ele>
        <time>2019-12-31T15:12:28Z</time>
      </trkpt>
      <trkpt lat="38.279445" lon="-0.696798">
        <ele>158</ele>
        <time>2019-12-31T15:12:29Z</time>
      </trkpt>
      <trkpt lat="38.279376" lon="-0.696789">
        <ele>157.8</ele>
        <time>2019-12-31T15:12:30Z</time>
      </trkpt>
      <trkpt lat="38.279307" lon="-0.696787">
        <ele>157.8</ele>
        <time>2019-12-31T15:12:31Z</time>
      </trkpt>
      <trkpt lat="38.279235" lon="-0.696783">
        <ele>157.6</ele>
        <time>2019-12-31T15:12:32Z</time>
      </trkpt>
      <trkpt lat="38.279163" lon="-0.696774">
        <ele>157.6</ele>
        <time>2019-12-31T15:12:33Z</time>
      </trkpt>
      <trkpt lat="38.279091" lon="-0.696760">
        <ele>157.2</ele>
        <time>2019-12-31T15:12:34Z</time>
      </trkpt>
      <trkpt lat="38.279018" lon="-0.696743">
        <ele>157</ele>
        <time>2019-12-31T15:12:35Z</time>
      </trkpt>
      <trkpt lat="38.278945" lon="-0.696721">
        <ele>156.6</ele>
        <time>2019-12-31T15:12:36Z</time>
      </trkpt>
      <trkpt lat="38.278871" lon="-0.696695">
        <ele>156.6</ele>
        <time>2019-12-31T15:12:37Z</time>
      </trkpt>
      <trkpt lat="38.278799" lon="-0.696667">
        <ele>156.4</ele>
        <time>2019-12-31T15:12:38Z</time>
      </trkpt>
      <trkpt lat="38.278726" lon="-0.696641">
        <ele>156.2</ele>
        <time>2019-12-31T15:12:39Z</time>
      </trkpt>
      <trkpt lat="38.278652" lon="-0.696617">
        <ele>156</ele>
        <time>2019-12-31T15:12:40Z</time>
      </trkpt>
      <trkpt lat="38.278578" lon="-0.696594">
        <ele>155.8</ele>
        <time>2019-12-31T15:12:41Z</time>
      </trkpt>
      <trkpt lat="38.278505" lon="-0.696575">
        <ele>155.8</ele>
        <time>2019-12-31T15:12:42Z</time>
      </trkpt>
      <trkpt lat="38.278505" lon="-0.696575">
        <ele>155.6</ele>
        <time>2019-12-31T15:12:43Z</time>
      </trkpt>
      <trkpt lat="38.278357" lon="-0.696537">
        <ele>155.6</ele>
        <time>2019-12-31T15:12:44Z</time>
      </trkpt>
      <trkpt lat="38.278285" lon="-0.696515">
        <ele>155.6</ele>
        <time>2019-12-31T15:12:45Z</time>
      </trkpt>
      <trkpt lat="38.278214" lon="-0.696493">
        <ele>155.6</ele>
        <time>2019-12-31T15:12:46Z</time>
      </trkpt>
      <trkpt lat="38.278143" lon="-0.696467">
        <ele>155.6</ele>
        <time>2019-12-31T15:12:47Z</time>
      </trkpt>
      <trkpt lat="38.278074" lon="-0.696441">
        <ele>155.4</ele>
        <time>2019-12-31T15:12:48Z</time>
      </trkpt>
      <trkpt lat="38.278005" lon="-0.696412">
        <ele>155.4</ele>
        <time>2019-12-31T15:12:49Z</time>
      </trkpt>
      <trkpt lat="38.277935" lon="-0.696386">
        <ele>155.2</ele>
        <time>2019-12-31T15:12:50Z</time>
      </trkpt>
      <trkpt lat="38.277866" lon="-0.696356">
        <ele>155</ele>
        <time>2019-12-31T15:12:51Z</time>
      </trkpt>
      <trkpt lat="38.277795" lon="-0.696328">
        <ele>154.8</ele>
        <time>2019-12-31T15:12:52Z</time>
      </trkpt>
      <trkpt lat="38.277725" lon="-0.696303">
        <ele>154.6</ele>
        <time>2019-12-31T15:12:53Z</time>
      </trkpt>
      <trkpt lat="38.277725" lon="-0.696303">
        <ele>154.6</ele>
        <time>2019-12-31T15:12:54Z</time>
      </trkpt>
      <trkpt lat="38.277576" lon="-0.696270">
        <ele>154.2</ele>
        <time>2019-12-31T15:12:55Z</time>
      </trkpt>
      <trkpt lat="38.277501" lon="-0.696261">
        <ele>154</ele>
        <time>2019-12-31T15:12:56Z</time>
      </trkpt>
      <trkpt lat="38.277425" lon="-0.696258">
        <ele>153.8</ele>
        <time>2019-12-31T15:12:57Z</time>
      </trkpt>
      <trkpt lat="38.277351" lon="-0.696255">
        <ele>153.8</ele>
        <time>2019-12-31T15:12:58Z</time>
      </trkpt>
      <trkpt lat="38.277276" lon="-0.696253">
        <ele>153.8</ele>
        <time>2019-12-31T15:12:59Z</time>
      </trkpt>
      <trkpt lat="38.277202" lon="-0.696256">
        <ele>153.6</ele>
        <time>2019-12-31T15:13:00Z</time>
      </trkpt>
      <trkpt lat="38.277127" lon="-0.696255">
        <ele>153.4</ele>
        <time>2019-12-31T15:13:01Z</time>
      </trkpt>
      <trkpt lat="38.277054" lon="-0.696251">
        <ele>153.8</ele>
        <time>2019-12-31T15:13:02Z</time>
      </trkpt>
      <trkpt lat="38.276984" lon="-0.696250">
        <ele>153.6</ele>
        <time>2019-12-31T15:13:03Z</time>
      </trkpt>
      <trkpt lat="38.276984" lon="-0.696250">
        <ele>153.6</ele>
        <time>2019-12-31T15:13:04Z</time>
      </trkpt>
      <trkpt lat="38.276913" lon="-0.696250">
        <ele>153.6</ele>
        <time>2019-12-31T15:13:05Z</time>
      </trkpt>
      <trkpt lat="38.276781" lon="-0.696268">
        <ele>153.6</ele>
        <time>2019-12-31T15:13:06Z</time>
      </trkpt>
      <trkpt lat="38.276709" lon="-0.696290">
        <ele>153.4</ele>
        <time>2019-12-31T15:13:07Z</time>
      </trkpt>
      <trkpt lat="38.276637" lon="-0.696311">
        <ele>153.2</ele>
        <time>2019-12-31T15:13:08Z</time>
      </trkpt>
      <trkpt lat="38.276565" lon="-0.696336">
        <ele>153.2</ele>
        <time>2019-12-31T15:13:09Z</time>
      </trkpt>
      <trkpt lat="38.276500" lon="-0.696361">
        <ele>153.2</ele>
        <time>2019-12-31T15:13:10Z</time>
      </trkpt>
      <trkpt lat="38.276431" lon="-0.696383">
        <ele>153.2</ele>
        <time>2019-12-31T15:13:11Z</time>
      </trkpt>
      <trkpt lat="38.276363" lon="-0.696404">
        <ele>153</ele>
        <time>2019-12-31T15:13:12Z</time>
      </trkpt>
      <trkpt lat="38.276300" lon="-0.696429">
        <ele>153.2</ele>
        <time>2019-12-31T15:13:13Z</time>
      </trkpt>
      <trkpt lat="38.276233" lon="-0.696453">
        <ele>153.2</ele>
        <time>2019-12-31T15:13:14Z</time>
      </trkpt>
      <trkpt lat="38.276162" lon="-0.696470">
        <ele>153.2</ele>
        <time>2019-12-31T15:13:15Z</time>
      </trkpt>
      <trkpt lat="38.276089" lon="-0.696485">
        <ele>153.2</ele>
        <time>2019-12-31T15:13:16Z</time>
      </trkpt>
      <trkpt lat="38.276015" lon="-0.696497">
        <ele>153.2</ele>
        <time>2019-12-31T15:13:17Z</time>
      </trkpt>
      <trkpt lat="38.275941" lon="-0.696504">
        <ele>153</ele>
        <time>2019-12-31T15:13:18Z</time>
      </trkpt>
      <trkpt lat="38.275867" lon="-0.696501">
        <ele>153</ele>
        <time>2019-12-31T15:13:19Z</time>
      </trkpt>
      <trkpt lat="38.275797" lon="-0.696483">
        <ele>152.8</ele>
        <time>2019-12-31T15:13:20Z</time>
      </trkpt>
      <trkpt lat="38.275727" lon="-0.696461">
        <ele>152.8</ele>
        <time>2019-12-31T15:13:21Z</time>
      </trkpt>
      <trkpt lat="38.275657" lon="-0.696434">
        <ele>153</ele>
        <time>2019-12-31T15:13:22Z</time>
      </trkpt>
      <trkpt lat="38.275588" lon="-0.696403">
        <ele>153</ele>
        <time>2019-12-31T15:13:23Z</time>
      </trkpt>
      <trkpt lat="38.275521" lon="-0.696369">
        <ele>152.8</ele>
        <time>2019-12-31T15:13:24Z</time>
      </trkpt>
      <trkpt lat="38.275453" lon="-0.696332">
        <ele>152.6</ele>
        <time>2019-12-31T15:13:25Z</time>
      </trkpt>
      <trkpt lat="38.275386" lon="-0.696294">
        <ele>152.6</ele>
        <time>2019-12-31T15:13:26Z</time>
      </trkpt>
      <trkpt lat="38.275322" lon="-0.696251">
        <ele>152.6</ele>
        <time>2019-12-31T15:13:27Z</time>
      </trkpt>
      <trkpt lat="38.275259" lon="-0.696208">
        <ele>152.6</ele>
        <time>2019-12-31T15:13:28Z</time>
      </trkpt>
      <trkpt lat="38.275196" lon="-0.696165">
        <ele>152.4</ele>
        <time>2019-12-31T15:13:29Z</time>
      </trkpt>
      <trkpt lat="38.275135" lon="-0.696120">
        <ele>152.4</ele>
        <time>2019-12-31T15:13:30Z</time>
      </trkpt>
      <trkpt lat="38.275073" lon="-0.696075">
        <ele>152.2</ele>
        <time>2019-12-31T15:13:31Z</time>
      </trkpt>
      <trkpt lat="38.275011" lon="-0.696027">
        <ele>152.2</ele>
        <time>2019-12-31T15:13:32Z</time>
      </trkpt>
      <trkpt lat="38.274950" lon="-0.695977">
        <ele>152.2</ele>
        <time>2019-12-31T15:13:33Z</time>
      </trkpt>
      <trkpt lat="38.274950" lon="-0.695977">
        <ele>152.2</ele>
        <time>2019-12-31T15:13:34Z</time>
      </trkpt>
      <trkpt lat="38.274824" lon="-0.695865">
        <ele>152.2</ele>
        <time>2019-12-31T15:13:35Z</time>
      </trkpt>
      <trkpt lat="38.274764" lon="-0.695814">
        <ele>152.2</ele>
        <time>2019-12-31T15:13:36Z</time>
      </trkpt>
      <trkpt lat="38.274704" lon="-0.695762">
        <ele>151.8</ele>
        <time>2019-12-31T15:13:37Z</time>
      </trkpt>
      <trkpt lat="38.274644" lon="-0.695709">
        <ele>151.6</ele>
        <time>2019-12-31T15:13:38Z</time>
      </trkpt>
      <trkpt lat="38.274583" lon="-0.695658">
        <ele>151.6</ele>
        <time>2019-12-31T15:13:39Z</time>
      </trkpt>
      <trkpt lat="38.274522" lon="-0.695606">
        <ele>151.2</ele>
        <time>2019-12-31T15:13:40Z</time>
      </trkpt>
      <trkpt lat="38.274461" lon="-0.695553">
        <ele>151.4</ele>
        <time>2019-12-31T15:13:41Z</time>
      </trkpt>
      <trkpt lat="38.274400" lon="-0.695499">
        <ele>151.4</ele>
        <time>2019-12-31T15:13:42Z</time>
      </trkpt>
      <trkpt lat="38.274400" lon="-0.695499">
        <ele>151.6</ele>
        <time>2019-12-31T15:13:43Z</time>
      </trkpt>
      <trkpt lat="38.274283" lon="-0.695406">
        <ele>151.2</ele>
        <time>2019-12-31T15:13:44Z</time>
      </trkpt>
      <trkpt lat="38.274222" lon="-0.695358">
        <ele>151.2</ele>
        <time>2019-12-31T15:13:45Z</time>
      </trkpt>
      <trkpt lat="38.274152" lon="-0.695322">
        <ele>150.6</ele>
        <time>2019-12-31T15:13:46Z</time>
      </trkpt>
      <trkpt lat="38.274078" lon="-0.695302">
        <ele>150.6</ele>
        <time>2019-12-31T15:13:47Z</time>
      </trkpt>
      <trkpt lat="38.274006" lon="-0.695296">
        <ele>150.4</ele>
        <time>2019-12-31T15:13:48Z</time>
      </trkpt>
      <trkpt lat="38.273936" lon="-0.695290">
        <ele>150.4</ele>
        <time>2019-12-31T15:13:49Z</time>
      </trkpt>
      <trkpt lat="38.273870" lon="-0.695288">
        <ele>150.2</ele>
        <time>2019-12-31T15:13:50Z</time>
      </trkpt>
      <trkpt lat="38.273801" lon="-0.695277">
        <ele>150</ele>
        <time>2019-12-31T15:13:51Z</time>
      </trkpt>
      <trkpt lat="38.273736" lon="-0.695262">
        <ele>150</ele>
        <time>2019-12-31T15:13:52Z</time>
      </trkpt>
      <trkpt lat="38.273665" lon="-0.695242">
        <ele>150</ele>
        <time>2019-12-31T15:13:53Z</time>
      </trkpt>
      <trkpt lat="38.273596" lon="-0.695211">
        <ele>150</ele>
        <time>2019-12-31T15:13:54Z</time>
      </trkpt>
      <trkpt lat="38.273526" lon="-0.695183">
        <ele>150.2</ele>
        <time>2019-12-31T15:13:55Z</time>
      </trkpt>
      <trkpt lat="38.273453" lon="-0.695157">
        <ele>150.2</ele>
        <time>2019-12-31T15:13:56Z</time>
      </trkpt>
      <trkpt lat="38.273381" lon="-0.695126">
        <ele>150.4</ele>
        <time>2019-12-31T15:13:57Z</time>
      </trkpt>
      <trkpt lat="38.273315" lon="-0.695100">
        <ele>150.4</ele>
        <time>2019-12-31T15:13:58Z</time>
      </trkpt>
      <trkpt lat="38.273315" lon="-0.695100">
        <ele>150.2</ele>
        <time>2019-12-31T15:13:59Z</time>
      </trkpt>
      <trkpt lat="38.273172" lon="-0.695048">
        <ele>150</ele>
        <time>2019-12-31T15:14:00Z</time>
      </trkpt>
      <trkpt lat="38.273104" lon="-0.695027">
        <ele>150</ele>
        <time>2019-12-31T15:14:01Z</time>
      </trkpt>
      <trkpt lat="38.273037" lon="-0.695006">
        <ele>149.8</ele>
        <time>2019-12-31T15:14:02Z</time>
      </trkpt>
      <trkpt lat="38.272968" lon="-0.694985">
        <ele>149.8</ele>
        <time>2019-12-31T15:14:03Z</time>
      </trkpt>
      <trkpt lat="38.272902" lon="-0.694963">
        <ele>149.8</ele>
        <time>2019-12-31T15:14:04Z</time>
      </trkpt>
      <trkpt lat="38.272834" lon="-0.694948">
        <ele>149.8</ele>
        <time>2019-12-31T15:14:05Z</time>
      </trkpt>
      <trkpt lat="38.272762" lon="-0.694931">
        <ele>149.4</ele>
        <time>2019-12-31T15:14:06Z</time>
      </trkpt>
      <trkpt lat="38.272691" lon="-0.694912">
        <ele>149.4</ele>
        <time>2019-12-31T15:14:07Z</time>
      </trkpt>
      <trkpt lat="38.272622" lon="-0.694893">
        <ele>149.2</ele>
        <time>2019-12-31T15:14:08Z</time>
      </trkpt>
      <trkpt lat="38.272553" lon="-0.694880">
        <ele>149.4</ele>
        <time>2019-12-31T15:14:09Z</time>
      </trkpt>
      <trkpt lat="38.272485" lon="-0.694877">
        <ele>149.2</ele>
        <time>2019-12-31T15:14:10Z</time>
      </trkpt>
      <trkpt lat="38.272416" lon="-0.694889">
        <ele>149</ele>
        <time>2019-12-31T15:14:11Z</time>
      </trkpt>
      <trkpt lat="38.272350" lon="-0.694904">
        <ele>148.8</ele>
        <time>2019-12-31T15:14:12Z</time>
      </trkpt>
      <trkpt lat="38.272281" lon="-0.694914">
        <ele>148.8</ele>
        <time>2019-12-31T15:14:13Z</time>
      </trkpt>
      <trkpt lat="38.272211" lon="-0.694903">
        <ele>148.6</ele>
        <time>2019-12-31T15:14:14Z</time>
      </trkpt>
      <trkpt lat="38.272144" lon="-0.694865">
        <ele>148.6</ele>
        <time>2019-12-31T15:14:15Z</time>
      </trkpt>
      <trkpt lat="38.272144" lon="-0.694865">
        <ele>148.4</ele>
        <time>2019-12-31T15:14:16Z</time>
      </trkpt>
      <trkpt lat="38.272094" lon="-0.694802">
        <ele>148.4</ele>
        <time>2019-12-31T15:14:17Z</time>
      </trkpt>
      <trkpt lat="38.272055" lon="-0.694626">
        <ele>148.4</ele>
        <time>2019-12-31T15:14:18Z</time>
      </trkpt>
      <trkpt lat="38.272073" lon="-0.694540">
        <ele>148</ele>
        <time>2019-12-31T15:14:19Z</time>
      </trkpt>
      <trkpt lat="38.272105" lon="-0.694458">
        <ele>148</ele>
        <time>2019-12-31T15:14:20Z</time>
      </trkpt>
      <trkpt lat="38.272144" lon="-0.694381">
        <ele>148.2</ele>
        <time>2019-12-31T15:14:21Z</time>
      </trkpt>
      <trkpt lat="38.272177" lon="-0.694303">
        <ele>148.2</ele>
        <time>2019-12-31T15:14:22Z</time>
      </trkpt>
      <trkpt lat="38.272202" lon="-0.694218">
        <ele>148.4</ele>
        <time>2019-12-31T15:14:23Z</time>
      </trkpt>
      <trkpt lat="38.272220" lon="-0.694127">
        <ele>148.4</ele>
        <time>2019-12-31T15:14:24Z</time>
      </trkpt>
      <trkpt lat="38.272234" lon="-0.694034">
        <ele>148.4</ele>
        <time>2019-12-31T15:14:25Z</time>
      </trkpt>
      <trkpt lat="38.272248" lon="-0.693944">
        <ele>148.2</ele>
        <time>2019-12-31T15:14:26Z</time>
      </trkpt>
      <trkpt lat="38.272263" lon="-0.693853">
        <ele>148.2</ele>
        <time>2019-12-31T15:14:27Z</time>
      </trkpt>
      <trkpt lat="38.272275" lon="-0.693763">
        <ele>148.4</ele>
        <time>2019-12-31T15:14:28Z</time>
      </trkpt>
      <trkpt lat="38.272288" lon="-0.693672">
        <ele>148.4</ele>
        <time>2019-12-31T15:14:29Z</time>
      </trkpt>
      <trkpt lat="38.272288" lon="-0.693672">
        <ele>148.4</ele>
        <time>2019-12-31T15:14:30Z</time>
      </trkpt>
      <trkpt lat="38.272296" lon="-0.693589">
        <ele>148</ele>
        <time>2019-12-31T15:14:31Z</time>
      </trkpt>
      <trkpt lat="38.272321" lon="-0.693416">
        <ele>148.2</ele>
        <time>2019-12-31T15:14:32Z</time>
      </trkpt>
      <trkpt lat="38.272338" lon="-0.693328">
        <ele>148.4</ele>
        <time>2019-12-31T15:14:33Z</time>
      </trkpt>
      <trkpt lat="38.272353" lon="-0.693238">
        <ele>148.2</ele>
        <time>2019-12-31T15:14:34Z</time>
      </trkpt>
      <trkpt lat="38.272366" lon="-0.693150">
        <ele>148</ele>
        <time>2019-12-31T15:14:35Z</time>
      </trkpt>
      <trkpt lat="38.272381" lon="-0.693061">
        <ele>148.2</ele>
        <time>2019-12-31T15:14:36Z</time>
      </trkpt>
      <trkpt lat="38.272396" lon="-0.692972">
        <ele>148.2</ele>
        <time>2019-12-31T15:14:37Z</time>
      </trkpt>
      <trkpt lat="38.272410" lon="-0.692885">
        <ele>148.2</ele>
        <time>2019-12-31T15:14:38Z</time>
      </trkpt>
      <trkpt lat="38.272421" lon="-0.692799">
        <ele>148.4</ele>
        <time>2019-12-31T15:14:39Z</time>
      </trkpt>
      <trkpt lat="38.272435" lon="-0.692710">
        <ele>148.4</ele>
        <time>2019-12-31T15:14:40Z</time>
      </trkpt>
      <trkpt lat="38.272451" lon="-0.692621">
        <ele>148</ele>
        <time>2019-12-31T15:14:41Z</time>
      </trkpt>
      <trkpt lat="38.272465" lon="-0.692533">
        <ele>148</ele>
        <time>2019-12-31T15:14:42Z</time>
      </trkpt>
      <trkpt lat="38.272465" lon="-0.692533">
        <ele>148.2</ele>
        <time>2019-12-31T15:14:43Z</time>
      </trkpt>
      <trkpt lat="38.272491" lon="-0.692359">
        <ele>148.2</ele>
        <time>2019-12-31T15:14:44Z</time>
      </trkpt>
      <trkpt lat="38.272505" lon="-0.692271">
        <ele>148.4</ele>
        <time>2019-12-31T15:14:45Z</time>
      </trkpt>
      <trkpt lat="38.272519" lon="-0.692182">
        <ele>148.2</ele>
        <time>2019-12-31T15:14:46Z</time>
      </trkpt>
      <trkpt lat="38.272534" lon="-0.692094">
        <ele>148</ele>
        <time>2019-12-31T15:14:47Z</time>
      </trkpt>
      <trkpt lat="38.272549" lon="-0.692007">
        <ele>148</ele>
        <time>2019-12-31T15:14:48Z</time>
      </trkpt>
      <trkpt lat="38.272565" lon="-0.691918">
        <ele>148.2</ele>
        <time>2019-12-31T15:14:49Z</time>
      </trkpt>
      <trkpt lat="38.272580" lon="-0.691831">
        <ele>148.2</ele>
        <time>2019-12-31T15:14:50Z</time>
      </trkpt>
      <trkpt lat="38.272597" lon="-0.691742">
        <ele>148</ele>
        <time>2019-12-31T15:14:51Z</time>
      </trkpt>
      <trkpt lat="38.272611" lon="-0.691654">
        <ele>148.2</ele>
        <time>2019-12-31T15:14:52Z</time>
      </trkpt>
      <trkpt lat="38.272627" lon="-0.691565">
        <ele>148.2</ele>
        <time>2019-12-31T15:14:53Z</time>
      </trkpt>
      <trkpt lat="38.272643" lon="-0.691477">
        <ele>148.2</ele>
        <time>2019-12-31T15:14:54Z</time>
      </trkpt>
      <trkpt lat="38.272659" lon="-0.691387">
        <ele>148.2</ele>
        <time>2019-12-31T15:14:55Z</time>
      </trkpt>
      <trkpt lat="38.272676" lon="-0.691298">
        <ele>148.2</ele>
        <time>2019-12-31T15:14:56Z</time>
      </trkpt>
      <trkpt lat="38.272692" lon="-0.691210">
        <ele>148.2</ele>
        <time>2019-12-31T15:14:57Z</time>
      </trkpt>
      <trkpt lat="38.272707" lon="-0.691122">
        <ele>148.2</ele>
        <time>2019-12-31T15:14:58Z</time>
      </trkpt>
      <trkpt lat="38.272722" lon="-0.691034">
        <ele>148.2</ele>
        <time>2019-12-31T15:14:59Z</time>
      </trkpt>
      <trkpt lat="38.272736" lon="-0.690946">
        <ele>148.2</ele>
        <time>2019-12-31T15:15:00Z</time>
      </trkpt>
      <trkpt lat="38.272737" lon="-0.690857">
        <ele>148.4</ele>
        <time>2019-12-31T15:15:01Z</time>
      </trkpt>
      <trkpt lat="38.272726" lon="-0.690771">
        <ele>148.4</ele>
        <time>2019-12-31T15:15:02Z</time>
      </trkpt>
      <trkpt lat="38.272709" lon="-0.690687">
        <ele>148</ele>
        <time>2019-12-31T15:15:03Z</time>
      </trkpt>
      <trkpt lat="38.272703" lon="-0.690603">
        <ele>148</ele>
        <time>2019-12-31T15:15:04Z</time>
      </trkpt>
      <trkpt lat="38.272713" lon="-0.690518">
        <ele>147.8</ele>
        <time>2019-12-31T15:15:05Z</time>
      </trkpt>
      <trkpt lat="38.272741" lon="-0.690437">
        <ele>147.8</ele>
        <time>2019-12-31T15:15:06Z</time>
      </trkpt>
      <trkpt lat="38.272778" lon="-0.690367">
        <ele>148</ele>
        <time>2019-12-31T15:15:07Z</time>
      </trkpt>
      <trkpt lat="38.272816" lon="-0.690298">
        <ele>148</ele>
        <time>2019-12-31T15:15:08Z</time>
      </trkpt>
      <trkpt lat="38.272840" lon="-0.690221">
        <ele>148.2</ele>
        <time>2019-12-31T15:15:09Z</time>
      </trkpt>
      <trkpt lat="38.272843" lon="-0.690138">
        <ele>148.2</ele>
        <time>2019-12-31T15:15:10Z</time>
      </trkpt>
      <trkpt lat="38.272829" lon="-0.690053">
        <ele>147.8</ele>
        <time>2019-12-31T15:15:11Z</time>
      </trkpt>
      <trkpt lat="38.272816" lon="-0.689970">
        <ele>147.6</ele>
        <time>2019-12-31T15:15:12Z</time>
      </trkpt>
      <trkpt lat="38.272815" lon="-0.689885">
        <ele>147.6</ele>
        <time>2019-12-31T15:15:13Z</time>
      </trkpt>
      <trkpt lat="38.272822" lon="-0.689802">
        <ele>147.4</ele>
        <time>2019-12-31T15:15:14Z</time>
      </trkpt>
      <trkpt lat="38.272832" lon="-0.689716">
        <ele>147.4</ele>
        <time>2019-12-31T15:15:15Z</time>
      </trkpt>
      <trkpt lat="38.272832" lon="-0.689716">
        <ele>147.4</ele>
        <time>2019-12-31T15:15:16Z</time>
      </trkpt>
      <trkpt lat="38.272854" lon="-0.689546">
        <ele>147.4</ele>
        <time>2019-12-31T15:15:17Z</time>
      </trkpt>
      <trkpt lat="38.272866" lon="-0.689459">
        <ele>147.4</ele>
        <time>2019-12-31T15:15:18Z</time>
      </trkpt>
      <trkpt lat="38.272880" lon="-0.689374">
        <ele>147.4</ele>
        <time>2019-12-31T15:15:19Z</time>
      </trkpt>
      <trkpt lat="38.272895" lon="-0.689289">
        <ele>147.2</ele>
        <time>2019-12-31T15:15:20Z</time>
      </trkpt>
      <trkpt lat="38.272909" lon="-0.689203">
        <ele>147.2</ele>
        <time>2019-12-31T15:15:21Z</time>
      </trkpt>
      <trkpt lat="38.272922" lon="-0.689115">
        <ele>147</ele>
        <time>2019-12-31T15:15:22Z</time>
      </trkpt>
      <trkpt lat="38.272936" lon="-0.689030">
        <ele>147</ele>
        <time>2019-12-31T15:15:23Z</time>
      </trkpt>
      <trkpt lat="38.272947" lon="-0.688942">
        <ele>146.8</ele>
        <time>2019-12-31T15:15:24Z</time>
      </trkpt>
      <trkpt lat="38.272961" lon="-0.688855">
        <ele>146.8</ele>
        <time>2019-12-31T15:15:25Z</time>
      </trkpt>
      <trkpt lat="38.272975" lon="-0.688768">
        <ele>147</ele>
        <time>2019-12-31T15:15:26Z</time>
      </trkpt>
      <trkpt lat="38.272988" lon="-0.688684">
        <ele>146.8</ele>
        <time>2019-12-31T15:15:27Z</time>
      </trkpt>
      <trkpt lat="38.273001" lon="-0.688596">
        <ele>147</ele>
        <time>2019-12-31T15:15:28Z</time>
      </trkpt>
      <trkpt lat="38.273015" lon="-0.688510">
        <ele>146.8</ele>
        <time>2019-12-31T15:15:29Z</time>
      </trkpt>
      <trkpt lat="38.273029" lon="-0.688421">
        <ele>146.6</ele>
        <time>2019-12-31T15:15:30Z</time>
      </trkpt>
      <trkpt lat="38.273041" lon="-0.688332">
        <ele>146.6</ele>
        <time>2019-12-31T15:15:31Z</time>
      </trkpt>
      <trkpt lat="38.273054" lon="-0.688245">
        <ele>146.4</ele>
        <time>2019-12-31T15:15:32Z</time>
      </trkpt>
      <trkpt lat="38.273069" lon="-0.688157">
        <ele>146.2</ele>
        <time>2019-12-31T15:15:33Z</time>
      </trkpt>
      <trkpt lat="38.273082" lon="-0.688071">
        <ele>146.4</ele>
        <time>2019-12-31T15:15:34Z</time>
      </trkpt>
      <trkpt lat="38.273096" lon="-0.687987">
        <ele>146.4</ele>
        <time>2019-12-31T15:15:35Z</time>
      </trkpt>
      <trkpt lat="38.273111" lon="-0.687900">
        <ele>146.2</ele>
        <time>2019-12-31T15:15:36Z</time>
      </trkpt>
      <trkpt lat="38.273126" lon="-0.687811">
        <ele>146.4</ele>
        <time>2019-12-31T15:15:37Z</time>
      </trkpt>
      <trkpt lat="38.273135" lon="-0.687723">
        <ele>146</ele>
        <time>2019-12-31T15:15:38Z</time>
      </trkpt>
      <trkpt lat="38.273148" lon="-0.687634">
        <ele>146.2</ele>
        <time>2019-12-31T15:15:39Z</time>
      </trkpt>
      <trkpt lat="38.273161" lon="-0.687546">
        <ele>146.2</ele>
        <time>2019-12-31T15:15:40Z</time>
      </trkpt>
      <trkpt lat="38.273174" lon="-0.687459">
        <ele>146</ele>
        <time>2019-12-31T15:15:41Z</time>
      </trkpt>
      <trkpt lat="38.273187" lon="-0.687372">
        <ele>146</ele>
        <time>2019-12-31T15:15:42Z</time>
      </trkpt>
      <trkpt lat="38.273201" lon="-0.687286">
        <ele>145.8</ele>
        <time>2019-12-31T15:15:43Z</time>
      </trkpt>
      <trkpt lat="38.273214" lon="-0.687201">
        <ele>145.8</ele>
        <time>2019-12-31T15:15:44Z</time>
      </trkpt>
      <trkpt lat="38.273229" lon="-0.687113">
        <ele>145.8</ele>
        <time>2019-12-31T15:15:45Z</time>
      </trkpt>
      <trkpt lat="38.273245" lon="-0.687026">
        <ele>145.6</ele>
        <time>2019-12-31T15:15:46Z</time>
      </trkpt>
      <trkpt lat="38.273260" lon="-0.686941">
        <ele>145.6</ele>
        <time>2019-12-31T15:15:47Z</time>
      </trkpt>
      <trkpt lat="38.273278" lon="-0.686853">
        <ele>145.8</ele>
        <time>2019-12-31T15:15:48Z</time>
      </trkpt>
      <trkpt lat="38.273292" lon="-0.686769">
        <ele>145.8</ele>
        <time>2019-12-31T15:15:49Z</time>
      </trkpt>
      <trkpt lat="38.273292" lon="-0.686769">
        <ele>146</ele>
        <time>2019-12-31T15:15:50Z</time>
      </trkpt>
      <trkpt lat="38.273320" lon="-0.686601">
        <ele>146</ele>
        <time>2019-12-31T15:15:51Z</time>
      </trkpt>
      <trkpt lat="38.273332" lon="-0.686520">
        <ele>146</ele>
        <time>2019-12-31T15:15:52Z</time>
      </trkpt>
      <trkpt lat="38.273343" lon="-0.686441">
        <ele>146</ele>
        <time>2019-12-31T15:15:53Z</time>
      </trkpt>
      <trkpt lat="38.273356" lon="-0.686361">
        <ele>146.2</ele>
        <time>2019-12-31T15:15:54Z</time>
      </trkpt>
      <trkpt lat="38.273370" lon="-0.686277">
        <ele>146</ele>
        <time>2019-12-31T15:15:55Z</time>
      </trkpt>
      <trkpt lat="38.273386" lon="-0.686194">
        <ele>146.2</ele>
        <time>2019-12-31T15:15:56Z</time>
      </trkpt>
      <trkpt lat="38.273402" lon="-0.686112">
        <ele>146</ele>
        <time>2019-12-31T15:15:57Z</time>
      </trkpt>
      <trkpt lat="38.273416" lon="-0.686033">
        <ele>146</ele>
        <time>2019-12-31T15:15:58Z</time>
      </trkpt>
      <trkpt lat="38.273416" lon="-0.686033">
        <ele>146</ele>
        <time>2019-12-31T15:15:59Z</time>
      </trkpt>
      <trkpt lat="38.273446" lon="-0.685879">
        <ele>146</ele>
        <time>2019-12-31T15:16:00Z</time>
      </trkpt>
      <trkpt lat="38.273459" lon="-0.685800">
        <ele>146</ele>
        <time>2019-12-31T15:16:01Z</time>
      </trkpt>
      <trkpt lat="38.273472" lon="-0.685718">
        <ele>146</ele>
        <time>2019-12-31T15:16:02Z</time>
      </trkpt>
      <trkpt lat="38.273483" lon="-0.685640">
        <ele>146</ele>
        <time>2019-12-31T15:16:03Z</time>
      </trkpt>
      <trkpt lat="38.273495" lon="-0.685561">
        <ele>146</ele>
        <time>2019-12-31T15:16:04Z</time>
      </trkpt>
      <trkpt lat="38.273508" lon="-0.685483">
        <ele>146</ele>
        <time>2019-12-31T15:16:05Z</time>
      </trkpt>
      <trkpt lat="38.273524" lon="-0.685403">
        <ele>146</ele>
        <time>2019-12-31T15:16:06Z</time>
      </trkpt>
      <trkpt lat="38.273539" lon="-0.685324">
        <ele>146</ele>
        <time>2019-12-31T15:16:07Z</time>
      </trkpt>
      <trkpt lat="38.273553" lon="-0.685246">
        <ele>146</ele>
        <time>2019-12-31T15:16:08Z</time>
      </trkpt>
      <trkpt lat="38.273564" lon="-0.685169">
        <ele>146</ele>
        <time>2019-12-31T15:16:09Z</time>
      </trkpt>
      <trkpt lat="38.273579" lon="-0.685086">
        <ele>146</ele>
        <time>2019-12-31T15:16:10Z</time>
      </trkpt>
      <trkpt lat="38.273591" lon="-0.685004">
        <ele>146</ele>
        <time>2019-12-31T15:16:11Z</time>
      </trkpt>
      <trkpt lat="38.273603" lon="-0.684923">
        <ele>146</ele>
        <time>2019-12-31T15:16:12Z</time>
      </trkpt>
      <trkpt lat="38.273616" lon="-0.684841">
        <ele>146.2</ele>
        <time>2019-12-31T15:16:13Z</time>
      </trkpt>
      <trkpt lat="38.273630" lon="-0.684760">
        <ele>146</ele>
        <time>2019-12-31T15:16:14Z</time>
      </trkpt>
      <trkpt lat="38.273643" lon="-0.684679">
        <ele>146</ele>
        <time>2019-12-31T15:16:15Z</time>
      </trkpt>
      <trkpt lat="38.273655" lon="-0.684601">
        <ele>146</ele>
        <time>2019-12-31T15:16:16Z</time>
      </trkpt>
      <trkpt lat="38.273668" lon="-0.684523">
        <ele>146.2</ele>
        <time>2019-12-31T15:16:17Z</time>
      </trkpt>
      <trkpt lat="38.273682" lon="-0.684445">
        <ele>146</ele>
        <time>2019-12-31T15:16:18Z</time>
      </trkpt>
      <trkpt lat="38.273695" lon="-0.684367">
        <ele>146.2</ele>
        <time>2019-12-31T15:16:19Z</time>
      </trkpt>
      <trkpt lat="38.273707" lon="-0.684291">
        <ele>146</ele>
        <time>2019-12-31T15:16:20Z</time>
      </trkpt>
      <trkpt lat="38.273720" lon="-0.684215">
        <ele>146</ele>
        <time>2019-12-31T15:16:21Z</time>
      </trkpt>
      <trkpt lat="38.273727" lon="-0.684143">
        <ele>146.2</ele>
        <time>2019-12-31T15:16:22Z</time>
      </trkpt>
      <trkpt lat="38.273735" lon="-0.684078">
        <ele>146.2</ele>
        <time>2019-12-31T15:16:23Z</time>
      </trkpt>
      <trkpt lat="38.273727" lon="-0.684040">
        <ele>146.2</ele>
        <time>2019-12-31T15:16:24Z</time>
      </trkpt>
      <trkpt lat="38.273721" lon="-0.683997">
        <ele>146.2</ele>
        <time>2019-12-31T15:16:25Z</time>
      </trkpt>
      <trkpt lat="38.273727" lon="-0.683957">
        <ele>146.6</ele>
        <time>2019-12-31T15:16:26Z</time>
      </trkpt>
      <trkpt lat="38.2741040" lon="-0.6841490">
        <ele>86.1</ele>
        <time>2017-12-18T13:18:38Z</time>
      </trkpt>
      <trkpt lat="38.2740970" lon="-0.6841980">
        <ele>86.1</ele>
        <time>2017-12-18T13:18:39Z</time>
      </trkpt>
      <trkpt lat="38.2740880" lon="-0.6842510">
        <ele>86.1</ele>
        <time>2017-12-18T13:18:40Z</time>
      </trkpt>
      <trkpt lat="38.2740770" lon="-0.6843060">
        <ele>86.1</ele>
        <time>2017-12-18T13:18:41Z</time>
      </trkpt>
      <trkpt lat="38.2740670" lon="-0.6843630">
        <ele>86.1</ele>
        <time>2017-12-18T13:18:42Z</time>
      </trkpt>
      <trkpt lat="38.2740590" lon="-0.6844220">
        <ele>85.2</ele>
        <time>2017-12-18T13:18:43Z</time>
      </trkpt>
      <trkpt lat="38.2740500" lon="-0.6844840">
        <ele>85.2</ele>
        <time>2017-12-18T13:18:44Z</time>
      </trkpt>
      <trkpt lat="38.2740400" lon="-0.6845470">
        <ele>85.2</ele>
        <time>2017-12-18T13:18:45Z</time>
      </trkpt>
      <trkpt lat="38.2740310" lon="-0.6846110">
        <ele>85.2</ele>
        <time>2017-12-18T13:18:46Z</time>
      </trkpt>
      <trkpt lat="38.2740200" lon="-0.6846760">
        <ele>85.2</ele>
        <time>2017-12-18T13:18:47Z</time>
      </trkpt>
      <trkpt lat="38.2740080" lon="-0.6847430">
        <ele>85.2</ele>
        <time>2017-12-18T13:18:48Z</time>
      </trkpt>
      <trkpt lat="38.2739960" lon="-0.6848110">
        <ele>85.2</ele>
        <time>2017-12-18T13:18:49Z</time>
      </trkpt>
      <trkpt lat="38.2739850" lon="-0.6848810">
        <ele>85.2</ele>
        <time>2017-12-18T13:18:50Z</time>
      </trkpt>
      <trkpt lat="38.2739730" lon="-0.6849510">
        <ele>85.2</ele>
        <time>2017-12-18T13:18:51Z</time>
      </trkpt>
      <trkpt lat="38.2739610" lon="-0.6850220">
        <ele>85.2</ele>
        <time>2017-12-18T13:18:52Z</time>
      </trkpt>
      <trkpt lat="38.2739480" lon="-0.6850930">
        <ele>85.2</ele>
        <time>2017-12-18T13:18:53Z</time>
      </trkpt>
      <trkpt lat="38.2739350" lon="-0.6851650">
        <ele>85.2</ele>
        <time>2017-12-18T13:18:54Z</time>
      </trkpt>
      <trkpt lat="38.2739220" lon="-0.6852370">
        <ele>85.2</ele>
        <time>2017-12-18T13:18:55Z</time>
      </trkpt>
      <trkpt lat="38.2739090" lon="-0.6853100">
        <ele>85.2</ele>
        <time>2017-12-18T13:18:56Z</time>
      </trkpt>
      <trkpt lat="38.2738970" lon="-0.6853820">
        <ele>85.2</ele>
        <time>2017-12-18T13:18:57Z</time>
      </trkpt>
      <trkpt lat="38.2738840" lon="-0.6854550">
        <ele>85.2</ele>
        <time>2017-12-18T13:18:58Z</time>
      </trkpt>
      <trkpt lat="38.2738720" lon="-0.6855290">
        <ele>85.2</ele>
        <time>2017-12-18T13:18:59Z</time>
      </trkpt>
      <trkpt lat="38.2738600" lon="-0.6856020">
        <ele>85.2</ele>
        <time>2017-12-18T13:19:00Z</time>
      </trkpt>
      <trkpt lat="38.2738470" lon="-0.6856760">
        <ele>84.1</ele>
        <time>2017-12-18T13:19:01Z</time>
      </trkpt>
      <trkpt lat="38.2738350" lon="-0.6857510">
        <ele>84.1</ele>
        <time>2017-12-18T13:19:02Z</time>
      </trkpt>
      <trkpt lat="38.2738210" lon="-0.6858250">
        <ele>84.1</ele>
        <time>2017-12-18T13:19:03Z</time>
      </trkpt>
      <trkpt lat="38.2738060" lon="-0.6858990">
        <ele>84.1</ele>
        <time>2017-12-18T13:19:04Z</time>
      </trkpt>
      <trkpt lat="38.2737940" lon="-0.6859730">
        <ele>84.1</ele>
        <time>2017-12-18T13:19:05Z</time>
      </trkpt>
      <trkpt lat="38.2737810" lon="-0.6860480">
        <ele>84.1</ele>
        <time>2017-12-18T13:19:06Z</time>
      </trkpt>
      <trkpt lat="38.2737680" lon="-0.6861230">
        <ele>84.1</ele>
        <time>2017-12-18T13:19:07Z</time>
      </trkpt>
      <trkpt lat="38.2737550" lon="-0.6861980">
        <ele>84.1</ele>
        <time>2017-12-18T13:19:08Z</time>
      </trkpt>
      <trkpt lat="38.2737440" lon="-0.6862740">
        <ele>84.1</ele>
        <time>2017-12-18T13:19:09Z</time>
      </trkpt>
      <trkpt lat="38.2737310" lon="-0.6863500">
        <ele>84.1</ele>
        <time>2017-12-18T13:19:10Z</time>
      </trkpt>
      <trkpt lat="38.2737180" lon="-0.6864270">
        <ele>84.1</ele>
        <time>2017-12-18T13:19:11Z</time>
      </trkpt>
      <trkpt lat="38.2737050" lon="-0.6865020">
        <ele>84.1</ele>
        <time>2017-12-18T13:19:12Z</time>
      </trkpt>
      <trkpt lat="38.2736910" lon="-0.6865770">
        <ele>84.1</ele>
        <time>2017-12-18T13:19:13Z</time>
      </trkpt>
      <trkpt lat="38.2736770" lon="-0.6866520">
        <ele>84.1</ele>
        <time>2017-12-18T13:19:14Z</time>
      </trkpt>
      <trkpt lat="38.2736610" lon="-0.6867260">
        <ele>84.1</ele>
        <time>2017-12-18T13:19:15Z</time>
      </trkpt>
      <trkpt lat="38.2736440" lon="-0.6868010">
        <ele>84.1</ele>
        <time>2017-12-18T13:19:16Z</time>
      </trkpt>
      <trkpt lat="38.2736290" lon="-0.6868760">
        <ele>84.1</ele>
        <time>2017-12-18T13:19:17Z</time>
      </trkpt>
      <trkpt lat="38.2736200" lon="-0.6869520">
        <ele>84.1</ele>
        <time>2017-12-18T13:19:18Z</time>
      </trkpt>
      <trkpt lat="38.2736150" lon="-0.6870280">
        <ele>84.1</ele>
        <time>2017-12-18T13:19:19Z</time>
      </trkpt>
      <trkpt lat="38.2736070" lon="-0.6871040">
        <ele>84.1</ele>
        <time>2017-12-18T13:19:20Z</time>
      </trkpt>
      <trkpt lat="38.2735940" lon="-0.6871780">
        <ele>84.1</ele>
        <time>2017-12-18T13:19:21Z</time>
      </trkpt>
      <trkpt lat="38.2735790" lon="-0.6872520">
        <ele>84.1</ele>
        <time>2017-12-18T13:19:22Z</time>
      </trkpt>
      <trkpt lat="38.2735660" lon="-0.6873260">
        <ele>84.1</ele>
        <time>2017-12-18T13:19:23Z</time>
      </trkpt>
      <trkpt lat="38.2735530" lon="-0.6873990">
        <ele>84.1</ele>
        <time>2017-12-18T13:19:24Z</time>
      </trkpt>
      <trkpt lat="38.2735400" lon="-0.6874700">
        <ele>84.1</ele>
        <time>2017-12-18T13:19:25Z</time>
      </trkpt>
      <trkpt lat="38.2735270" lon="-0.6875410">
        <ele>84.1</ele>
        <time>2017-12-18T13:19:26Z</time>
      </trkpt>
      <trkpt lat="38.2735160" lon="-0.6876100">
        <ele>84.1</ele>
        <time>2017-12-18T13:19:27Z</time>
      </trkpt>
      <trkpt lat="38.2735060" lon="-0.6876750">
        <ele>84.1</ele>
        <time>2017-12-18T13:19:28Z</time>
      </trkpt>
      <trkpt lat="38.2734970" lon="-0.6877380">
        <ele>84.1</ele>
        <time>2017-12-18T13:19:29Z</time>
      </trkpt>
      <trkpt lat="38.2734870" lon="-0.6877980">
        <ele>84.1</ele>
        <time>2017-12-18T13:19:30Z</time>
      </trkpt>
      <trkpt lat="38.2734770" lon="-0.6878510">
        <ele>85.2</ele>
        <time>2017-12-18T13:19:31Z</time>
      </trkpt>
      <trkpt lat="38.2734680" lon="-0.6879000">
        <ele>85.2</ele>
        <time>2017-12-18T13:19:32Z</time>
      </trkpt>
      <trkpt lat="38.2734610" lon="-0.6879450">
        <ele>85.2</ele>
        <time>2017-12-18T13:19:33Z</time>
      </trkpt>
      <trkpt lat="38.2734560" lon="-0.6879820">
        <ele>85.2</ele>
        <time>2017-12-18T13:19:34Z</time>
      </trkpt>
      <trkpt lat="38.2734520" lon="-0.6880130">
        <ele>85.2</ele>
        <time>2017-12-18T13:19:35Z</time>
      </trkpt>
      <trkpt lat="38.2734440" lon="-0.6880460">
        <ele>85.2</ele>
        <time>2017-12-18T13:19:36Z</time>
      </trkpt>
      <trkpt lat="38.2734380" lon="-0.6880830">
        <ele>85.2</ele>
        <time>2017-12-18T13:19:37Z</time>
      </trkpt>
      <trkpt lat="38.2734300" lon="-0.6881280">
        <ele>85.2</ele>
        <time>2017-12-18T13:19:38Z</time>
      </trkpt>
      <trkpt lat="38.2734230" lon="-0.6881770">
        <ele>85.2</ele>
        <time>2017-12-18T13:19:39Z</time>
      </trkpt>
      <trkpt lat="38.2734140" lon="-0.6882300">
        <ele>85.2</ele>
        <time>2017-12-18T13:19:40Z</time>
      </trkpt>
      <trkpt lat="38.2734050" lon="-0.6882850">
        <ele>85.2</ele>
        <time>2017-12-18T13:19:41Z</time>
      </trkpt>
      <trkpt lat="38.2733950" lon="-0.6883490">
        <ele>85.2</ele>
        <time>2017-12-18T13:19:42Z</time>
      </trkpt>
      <trkpt lat="38.2733830" lon="-0.6884140">
        <ele>85.2</ele>
        <time>2017-12-18T13:19:43Z</time>
      </trkpt>
      <trkpt lat="38.2733740" lon="-0.6884750">
        <ele>85.2</ele>
        <time>2017-12-18T13:19:44Z</time>
      </trkpt>
      <trkpt lat="38.2733630" lon="-0.6885380">
        <ele>85.2</ele>
        <time>2017-12-18T13:19:45Z</time>
      </trkpt>
      <trkpt lat="38.2733520" lon="-0.6886010">
        <ele>85.2</ele>
        <time>2017-12-18T13:19:46Z</time>
      </trkpt>
      <trkpt lat="38.2733410" lon="-0.6886660">
        <ele>85.2</ele>
        <time>2017-12-18T13:19:47Z</time>
      </trkpt>
      <trkpt lat="38.2733290" lon="-0.6887300">
        <ele>85.2</ele>
        <time>2017-12-18T13:19:48Z</time>
      </trkpt>
      <trkpt lat="38.2733170" lon="-0.6887950">
        <ele>85.2</ele>
        <time>2017-12-18T13:19:49Z</time>
      </trkpt>
      <trkpt lat="38.2733060" lon="-0.6888610">
        <ele>85.2</ele>
        <time>2017-12-18T13:19:50Z</time>
      </trkpt>
      <trkpt lat="38.2732950" lon="-0.6889270">
        <ele>85.2</ele>
        <time>2017-12-18T13:19:51Z</time>
      </trkpt>
      <trkpt lat="38.2732840" lon="-0.6889950">
        <ele>85.2</ele>
        <time>2017-12-18T13:19:52Z</time>
      </trkpt>
      <trkpt lat="38.2732730" lon="-0.6890620">
        <ele>85.2</ele>
        <time>2017-12-18T13:19:53Z</time>
      </trkpt>
      <trkpt lat="38.2732620" lon="-0.6891280">
        <ele>85.2</ele>
        <time>2017-12-18T13:19:54Z</time>
      </trkpt>
      <trkpt lat="38.2732510" lon="-0.6891950">
        <ele>85.2</ele>
        <time>2017-12-18T13:19:55Z</time>
      </trkpt>
      <trkpt lat="38.2732390" lon="-0.6892610">
        <ele>85.2</ele>
        <time>2017-12-18T13:19:56Z</time>
      </trkpt>
      <trkpt lat="38.2732260" lon="-0.6893280">
        <ele>85.2</ele>
        <time>2017-12-18T13:19:57Z</time>
      </trkpt>
      <trkpt lat="38.2732160" lon="-0.6893940">
        <ele>85.2</ele>
        <time>2017-12-18T13:19:58Z</time>
      </trkpt>
      <trkpt lat="38.2732030" lon="-0.6894600">
        <ele>85.2</ele>
        <time>2017-12-18T13:19:59Z</time>
      </trkpt>
      <trkpt lat="38.2731920" lon="-0.6895250">
        <ele>85.2</ele>
        <time>2017-12-18T13:20:00Z</time>
      </trkpt>
      <trkpt lat="38.2731810" lon="-0.6895920">
        <ele>86.1</ele>
        <time>2017-12-18T13:20:01Z</time>
      </trkpt>
      <trkpt lat="38.2731720" lon="-0.6896580">
        <ele>86.1</ele>
        <time>2017-12-18T13:20:02Z</time>
      </trkpt>
      <trkpt lat="38.2731590" lon="-0.6897240">
        <ele>86.1</ele>
        <time>2017-12-18T13:20:03Z</time>
      </trkpt>
      <trkpt lat="38.2731480" lon="-0.6897920">
        <ele>86.1</ele>
        <time>2017-12-18T13:20:04Z</time>
      </trkpt>
      <trkpt lat="38.2731380" lon="-0.6898600">
        <ele>86.1</ele>
        <time>2017-12-18T13:20:05Z</time>
      </trkpt>
      <trkpt lat="38.2731270" lon="-0.6899270">
        <ele>86.1</ele>
        <time>2017-12-18T13:20:06Z</time>
      </trkpt>
      <trkpt lat="38.2731150" lon="-0.6899930">
        <ele>86.1</ele>
        <time>2017-12-18T13:20:07Z</time>
      </trkpt>
      <trkpt lat="38.2731040" lon="-0.6900600">
        <ele>86.1</ele>
        <time>2017-12-18T13:20:08Z</time>
      </trkpt>
      <trkpt lat="38.2730940" lon="-0.6901270">
        <ele>86.1</ele>
        <time>2017-12-18T13:20:09Z</time>
      </trkpt>
      <trkpt lat="38.2730860" lon="-0.6901950">
        <ele>86.1</ele>
        <time>2017-12-18T13:20:10Z</time>
      </trkpt>
      <trkpt lat="38.2730830" lon="-0.6902610">
        <ele>86.1</ele>
        <time>2017-12-18T13:20:11Z</time>
      </trkpt>
      <trkpt lat="38.2730920" lon="-0.6903220">
        <ele>86.1</ele>
        <time>2017-12-18T13:20:12Z</time>
      </trkpt>
      <trkpt lat="38.2731050" lon="-0.6903860">
        <ele>86.1</ele>
        <time>2017-12-18T13:20:13Z</time>
      </trkpt>
      <trkpt lat="38.2731210" lon="-0.6904480">
        <ele>86.1</ele>
        <time>2017-12-18T13:20:14Z</time>
      </trkpt>
      <trkpt lat="38.2731390" lon="-0.6905130">
        <ele>86.1</ele>
        <time>2017-12-18T13:20:15Z</time>
      </trkpt>
      <trkpt lat="38.2731450" lon="-0.6905810">
        <ele>86.1</ele>
        <time>2017-12-18T13:20:16Z</time>
      </trkpt>
      <trkpt lat="38.2731340" lon="-0.6906470">
        <ele>86.1</ele>
        <time>2017-12-18T13:20:17Z</time>
      </trkpt>
      <trkpt lat="38.2731090" lon="-0.6907110">
        <ele>86.1</ele>
        <time>2017-12-18T13:20:18Z</time>
      </trkpt>
      <trkpt lat="38.2730750" lon="-0.6907690">
        <ele>86.1</ele>
        <time>2017-12-18T13:20:19Z</time>
      </trkpt>
      <trkpt lat="38.2730350" lon="-0.6908210">
        <ele>86.1</ele>
        <time>2017-12-18T13:20:20Z</time>
      </trkpt>
      <trkpt lat="38.2729970" lon="-0.6908760">
        <ele>86.1</ele>
        <time>2017-12-18T13:20:21Z</time>
      </trkpt>
      <trkpt lat="38.2729670" lon="-0.6909400">
        <ele>86.1</ele>
        <time>2017-12-18T13:20:22Z</time>
      </trkpt>
      <trkpt lat="38.2729470" lon="-0.6910090">
        <ele>86.1</ele>
        <time>2017-12-18T13:20:23Z</time>
      </trkpt>
      <trkpt lat="38.2729330" lon="-0.6910820">
        <ele>86.1</ele>
        <time>2017-12-18T13:20:24Z</time>
      </trkpt>
      <trkpt lat="38.2729220" lon="-0.6911570">
        <ele>87.2</ele>
        <time>2017-12-18T13:20:25Z</time>
      </trkpt>
      <trkpt lat="38.2729120" lon="-0.6912320">
        <ele>87.2</ele>
        <time>2017-12-18T13:20:26Z</time>
      </trkpt>
      <trkpt lat="38.2728980" lon="-0.6913060">
        <ele>87.2</ele>
        <time>2017-12-18T13:20:27Z</time>
      </trkpt>
      <trkpt lat="38.2728840" lon="-0.6913810">
        <ele>87.2</ele>
        <time>2017-12-18T13:20:28Z</time>
      </trkpt>
      <trkpt lat="38.2728700" lon="-0.6914560">
        <ele>87.2</ele>
        <time>2017-12-18T13:20:29Z</time>
      </trkpt>
      <trkpt lat="38.2728590" lon="-0.6915310">
        <ele>87.2</ele>
        <time>2017-12-18T13:20:30Z</time>
      </trkpt>
      <trkpt lat="38.2728490" lon="-0.6916060">
        <ele>87.2</ele>
        <time>2017-12-18T13:20:31Z</time>
      </trkpt>
      <trkpt lat="38.2728420" lon="-0.6916820">
        <ele>87.2</ele>
        <time>2017-12-18T13:20:32Z</time>
      </trkpt>
      <trkpt lat="38.2728320" lon="-0.6917560">
        <ele>87.2</ele>
        <time>2017-12-18T13:20:33Z</time>
      </trkpt>
      <trkpt lat="38.2728210" lon="-0.6918320">
        <ele>87.2</ele>
        <time>2017-12-18T13:20:34Z</time>
      </trkpt>
      <trkpt lat="38.2728080" lon="-0.6919060">
        <ele>87.2</ele>
        <time>2017-12-18T13:20:35Z</time>
      </trkpt>
      <trkpt lat="38.2727950" lon="-0.6919800">
        <ele>87.2</ele>
        <time>2017-12-18T13:20:36Z</time>
      </trkpt>
      <trkpt lat="38.2727820" lon="-0.6920540">
        <ele>87.2</ele>
        <time>2017-12-18T13:20:37Z</time>
      </trkpt>
      <trkpt lat="38.2727700" lon="-0.6921290">
        <ele>87.2</ele>
        <time>2017-12-18T13:20:38Z</time>
      </trkpt>
      <trkpt lat="38.2727570" lon="-0.6922020">
        <ele>87.2</ele>
        <time>2017-12-18T13:20:39Z</time>
      </trkpt>
      <trkpt lat="38.2727450" lon="-0.6922770">
        <ele>87.2</ele>
        <time>2017-12-18T13:20:40Z</time>
      </trkpt>
      <trkpt lat="38.2727330" lon="-0.6923530">
        <ele>87.2</ele>
        <time>2017-12-18T13:20:41Z</time>
      </trkpt>
      <trkpt lat="38.2727200" lon="-0.6924290">
        <ele>87.2</ele>
        <time>2017-12-18T13:20:42Z</time>
      </trkpt>
      <trkpt lat="38.2727080" lon="-0.6925060">
        <ele>87.2</ele>
        <time>2017-12-18T13:20:43Z</time>
      </trkpt>
      <trkpt lat="38.2726960" lon="-0.6925820">
        <ele>87.2</ele>
        <time>2017-12-18T13:20:44Z</time>
      </trkpt>
      <trkpt lat="38.2726810" lon="-0.6926580">
        <ele>87.2</ele>
        <time>2017-12-18T13:20:45Z</time>
      </trkpt>
      <trkpt lat="38.2726680" lon="-0.6927340">
        <ele>87.2</ele>
        <time>2017-12-18T13:20:46Z</time>
      </trkpt>
      <trkpt lat="38.2726560" lon="-0.6928120">
        <ele>87.2</ele>
        <time>2017-12-18T13:20:47Z</time>
      </trkpt>
      <trkpt lat="38.2726420" lon="-0.6928880">
        <ele>87.2</ele>
        <time>2017-12-18T13:20:48Z</time>
      </trkpt>
      <trkpt lat="38.2726290" lon="-0.6929650">
        <ele>87.2</ele>
        <time>2017-12-18T13:20:49Z</time>
      </trkpt>
      <trkpt lat="38.2726170" lon="-0.6930440">
        <ele>87.2</ele>
        <time>2017-12-18T13:20:50Z</time>
      </trkpt>
      <trkpt lat="38.2726050" lon="-0.6931210">
        <ele>87.2</ele>
        <time>2017-12-18T13:20:51Z</time>
      </trkpt>
      <trkpt lat="38.2725920" lon="-0.6931980">
        <ele>87.2</ele>
        <time>2017-12-18T13:20:52Z</time>
      </trkpt>
      <trkpt lat="38.2725780" lon="-0.6932750">
        <ele>87.2</ele>
        <time>2017-12-18T13:20:53Z</time>
      </trkpt>
      <trkpt lat="38.2725640" lon="-0.6933500">
        <ele>87.2</ele>
        <time>2017-12-18T13:20:54Z</time>
      </trkpt>
      <trkpt lat="38.2725510" lon="-0.6934250">
        <ele>87.2</ele>
        <time>2017-12-18T13:20:55Z</time>
      </trkpt>
      <trkpt lat="38.2725370" lon="-0.6935000">
        <ele>87.2</ele>
        <time>2017-12-18T13:20:56Z</time>
      </trkpt>
      <trkpt lat="38.2725240" lon="-0.6935750">
        <ele>87.2</ele>
        <time>2017-12-18T13:20:57Z</time>
      </trkpt>
      <trkpt lat="38.2725120" lon="-0.6936500">
        <ele>87.2</ele>
        <time>2017-12-18T13:20:58Z</time>
      </trkpt>
      <trkpt lat="38.2725010" lon="-0.6937260">
        <ele>87.2</ele>
        <time>2017-12-18T13:20:59Z</time>
      </trkpt>
      <trkpt lat="38.2724880" lon="-0.6938010">
        <ele>87.2</ele>
        <time>2017-12-18T13:21:00Z</time>
      </trkpt>
      <trkpt lat="38.2724770" lon="-0.6938770">
        <ele>87.2</ele>
        <time>2017-12-18T13:21:01Z</time>
      </trkpt>
      <trkpt lat="38.2724640" lon="-0.6939530">
        <ele>87.2</ele>
        <time>2017-12-18T13:21:02Z</time>
      </trkpt>
      <trkpt lat="38.2724510" lon="-0.6940280">
        <ele>87.2</ele>
        <time>2017-12-18T13:21:03Z</time>
      </trkpt>
      <trkpt lat="38.2724370" lon="-0.6941020">
        <ele>87.2</ele>
        <time>2017-12-18T13:21:04Z</time>
      </trkpt>
      <trkpt lat="38.2724230" lon="-0.6941740">
        <ele>87.2</ele>
        <time>2017-12-18T13:21:05Z</time>
      </trkpt>
      <trkpt lat="38.2724120" lon="-0.6942460">
        <ele>87.2</ele>
        <time>2017-12-18T13:21:06Z</time>
      </trkpt>
      <trkpt lat="38.2724080" lon="-0.6943180">
        <ele>87.2</ele>
        <time>2017-12-18T13:21:07Z</time>
      </trkpt>
      <trkpt lat="38.2724130" lon="-0.6943890">
        <ele>87.2</ele>
        <time>2017-12-18T13:21:08Z</time>
      </trkpt>
      <trkpt lat="38.2724310" lon="-0.6944610">
        <ele>87.2</ele>
        <time>2017-12-18T13:21:09Z</time>
      </trkpt>
      <trkpt lat="38.2724490" lon="-0.6945250">
        <ele>87.2</ele>
        <time>2017-12-18T13:21:10Z</time>
      </trkpt>
      <trkpt lat="38.2724660" lon="-0.6945910">
        <ele>87.2</ele>
        <time>2017-12-18T13:21:11Z</time>
      </trkpt>
      <trkpt lat="38.2724860" lon="-0.6946580">
        <ele>87.2</ele>
        <time>2017-12-18T13:21:12Z</time>
      </trkpt>
      <trkpt lat="38.2725150" lon="-0.6947180">
        <ele>87.2</ele>
        <time>2017-12-18T13:21:13Z</time>
      </trkpt>
      <trkpt lat="38.2725600" lon="-0.6947590">
        <ele>88.1</ele>
        <time>2017-12-18T13:21:14Z</time>
      </trkpt>
      <trkpt lat="38.2726080" lon="-0.6947890">
        <ele>88.1</ele>
        <time>2017-12-18T13:21:15Z</time>
      </trkpt>
      <trkpt lat="38.2726600" lon="-0.6948070">
        <ele>88.1</ele>
        <time>2017-12-18T13:21:16Z</time>
      </trkpt>
      <trkpt lat="38.2727130" lon="-0.6948250">
        <ele>88.1</ele>
        <time>2017-12-18T13:21:17Z</time>
      </trkpt>
      <trkpt lat="38.2727660" lon="-0.6948410">
        <ele>88.1</ele>
        <time>2017-12-18T13:21:18Z</time>
      </trkpt>
      <trkpt lat="38.2728200" lon="-0.6948550">
        <ele>88.1</ele>
        <time>2017-12-18T13:21:19Z</time>
      </trkpt>
      <trkpt lat="38.2728740" lon="-0.6948700">
        <ele>88.1</ele>
        <time>2017-12-18T13:21:20Z</time>
      </trkpt>
      <trkpt lat="38.2729270" lon="-0.6948840">
        <ele>88.1</ele>
        <time>2017-12-18T13:21:21Z</time>
      </trkpt>
      <trkpt lat="38.2729800" lon="-0.6948990">
        <ele>88.1</ele>
        <time>2017-12-18T13:21:22Z</time>
      </trkpt>
      <trkpt lat="38.2730340" lon="-0.6949170">
        <ele>88.1</ele>
        <time>2017-12-18T13:21:23Z</time>
      </trkpt>
      <trkpt lat="38.2730890" lon="-0.6949380">
        <ele>88.1</ele>
        <time>2017-12-18T13:21:24Z</time>
      </trkpt>
      <trkpt lat="38.2731450" lon="-0.6949530">
        <ele>88.1</ele>
        <time>2017-12-18T13:21:25Z</time>
      </trkpt>
      <trkpt lat="38.2732010" lon="-0.6949670">
        <ele>88.1</ele>
        <time>2017-12-18T13:21:26Z</time>
      </trkpt>
      <trkpt lat="38.2732570" lon="-0.6949830">
        <ele>88.1</ele>
        <time>2017-12-18T13:21:27Z</time>
      </trkpt>
      <trkpt lat="38.2733130" lon="-0.6950030">
        <ele>89.2</ele>
        <time>2017-12-18T13:21:28Z</time>
      </trkpt>
      <trkpt lat="38.2733690" lon="-0.6950250">
        <ele>89.2</ele>
        <time>2017-12-18T13:21:29Z</time>
      </trkpt>
      <trkpt lat="38.2734240" lon="-0.6950470">
        <ele>89.2</ele>
        <time>2017-12-18T13:21:30Z</time>
      </trkpt>
      <trkpt lat="38.2734810" lon="-0.6950670">
        <ele>89.2</ele>
        <time>2017-12-18T13:21:31Z</time>
      </trkpt>
      <trkpt lat="38.2735380" lon="-0.6950890">
        <ele>89.2</ele>
        <time>2017-12-18T13:21:32Z</time>
      </trkpt>
      <trkpt lat="38.2735960" lon="-0.6951110">
        <ele>89.2</ele>
        <time>2017-12-18T13:21:33Z</time>
      </trkpt>
      <trkpt lat="38.2736540" lon="-0.6951310">
        <ele>89.2</ele>
        <time>2017-12-18T13:21:34Z</time>
      </trkpt>
      <trkpt lat="38.2737140" lon="-0.6951470">
        <ele>89.2</ele>
        <time>2017-12-18T13:21:35Z</time>
      </trkpt>
      <trkpt lat="38.2737740" lon="-0.6951610">
        <ele>89.2</ele>
        <time>2017-12-18T13:21:36Z</time>
      </trkpt>
      <trkpt lat="38.2738350" lon="-0.6951730">
        <ele>89.2</ele>
        <time>2017-12-18T13:21:37Z</time>
      </trkpt>
      <trkpt lat="38.2738970" lon="-0.6951820">
        <ele>89.2</ele>
        <time>2017-12-18T13:21:38Z</time>
      </trkpt>
      <trkpt lat="38.2739560" lon="-0.6951860">
        <ele>89.2</ele>
        <time>2017-12-18T13:21:39Z</time>
      </trkpt>
      <trkpt lat="38.2740140" lon="-0.6951880">
        <ele>89.2</ele>
        <time>2017-12-18T13:21:40Z</time>
      </trkpt>
      <trkpt lat="38.2740730" lon="-0.6951990">
        <ele>89.2</ele>
        <time>2017-12-18T13:21:41Z</time>
      </trkpt>
      <trkpt lat="38.2741280" lon="-0.6952130">
        <ele>89.2</ele>
        <time>2017-12-18T13:21:42Z</time>
      </trkpt>
      <trkpt lat="38.2741840" lon="-0.6952340">
        <ele>89.2</ele>
        <time>2017-12-18T13:21:43Z</time>
      </trkpt>
      <trkpt lat="38.2742390" lon="-0.6952620">
        <ele>89.2</ele>
        <time>2017-12-18T13:21:44Z</time>
      </trkpt>
      <trkpt lat="38.2742890" lon="-0.6952970">
        <ele>89.2</ele>
        <time>2017-12-18T13:21:45Z</time>
      </trkpt>
      <trkpt lat="38.2743390" lon="-0.6953340">
        <ele>89.2</ele>
        <time>2017-12-18T13:21:46Z</time>
      </trkpt>
      <trkpt lat="38.2743910" lon="-0.6953710">
        <ele>89.2</ele>
        <time>2017-12-18T13:21:47Z</time>
      </trkpt>
      <trkpt lat="38.2744400" lon="-0.6954120">
        <ele>89.2</ele>
        <time>2017-12-18T13:21:48Z</time>
      </trkpt>
      <trkpt lat="38.2744860" lon="-0.6954560">
        <ele>89.2</ele>
        <time>2017-12-18T13:21:49Z</time>
      </trkpt>
      <trkpt lat="38.2745320" lon="-0.6955020">
        <ele>89.2</ele>
        <time>2017-12-18T13:21:50Z</time>
      </trkpt>
      <trkpt lat="38.2745810" lon="-0.6955450">
        <ele>89.2</ele>
        <time>2017-12-18T13:21:51Z</time>
      </trkpt>
      <trkpt lat="38.2746290" lon="-0.6955850">
        <ele>89.2</ele>
        <time>2017-12-18T13:21:52Z</time>
      </trkpt>
      <trkpt lat="38.2746780" lon="-0.6956280">
        <ele>89.2</ele>
        <time>2017-12-18T13:21:53Z</time>
      </trkpt>
      <trkpt lat="38.2747270" lon="-0.6956700">
        <ele>89.2</ele>
        <time>2017-12-18T13:21:54Z</time>
      </trkpt>
      <trkpt lat="38.2747760" lon="-0.6957120">
        <ele>89.2</ele>
        <time>2017-12-18T13:21:55Z</time>
      </trkpt>
      <trkpt lat="38.2748230" lon="-0.6957540">
        <ele>89.2</ele>
        <time>2017-12-18T13:21:56Z</time>
      </trkpt>
      <trkpt lat="38.2748720" lon="-0.6957960">
        <ele>89.2</ele>
        <time>2017-12-18T13:21:57Z</time>
      </trkpt>
      <trkpt lat="38.2749210" lon="-0.6958350">
        <ele>89.2</ele>
        <time>2017-12-18T13:21:58Z</time>
      </trkpt>
      <trkpt lat="38.2749710" lon="-0.6958740">
        <ele>89.2</ele>
        <time>2017-12-18T13:21:59Z</time>
      </trkpt>
      <trkpt lat="38.2750210" lon="-0.6959150">
        <ele>90.1</ele>
        <time>2017-12-18T13:22:00Z</time>
      </trkpt>
      <trkpt lat="38.2750720" lon="-0.6959530">
        <ele>90.1</ele>
        <time>2017-12-18T13:22:01Z</time>
      </trkpt>
      <trkpt lat="38.2751230" lon="-0.6959910">
        <ele>90.1</ele>
        <time>2017-12-18T13:22:02Z</time>
      </trkpt>
      <trkpt lat="38.2751750" lon="-0.6960290">
        <ele>90.1</ele>
        <time>2017-12-18T13:22:03Z</time>
      </trkpt>
      <trkpt lat="38.2752270" lon="-0.6960680">
        <ele>90.1</ele>
        <time>2017-12-18T13:22:04Z</time>
      </trkpt>
      <trkpt lat="38.2752780" lon="-0.6961040">
        <ele>90.1</ele>
        <time>2017-12-18T13:22:05Z</time>
      </trkpt>
      <trkpt lat="38.2753290" lon="-0.6961400">
        <ele>90.1</ele>
        <time>2017-12-18T13:22:06Z</time>
      </trkpt>
      <trkpt lat="38.2753820" lon="-0.6961740">
        <ele>90.1</ele>
        <time>2017-12-18T13:22:07Z</time>
      </trkpt>
      <trkpt lat="38.2754340" lon="-0.6962070">
        <ele>90.1</ele>
        <time>2017-12-18T13:22:08Z</time>
      </trkpt>
      <trkpt lat="38.2754880" lon="-0.6962380">
        <ele>90.1</ele>
        <time>2017-12-18T13:22:09Z</time>
      </trkpt>
      <trkpt lat="38.2755420" lon="-0.6962680">
        <ele>90.1</ele>
        <time>2017-12-18T13:22:10Z</time>
      </trkpt>
      <trkpt lat="38.2755960" lon="-0.6962960">
        <ele>90.1</ele>
        <time>2017-12-18T13:22:11Z</time>
      </trkpt>
      <trkpt lat="38.2756520" lon="-0.6963220">
        <ele>90.1</ele>
        <time>2017-12-18T13:22:12Z</time>
      </trkpt>
      <trkpt lat="38.2757090" lon="-0.6963460">
        <ele>90.1</ele>
        <time>2017-12-18T13:22:13Z</time>
      </trkpt>
      <trkpt lat="38.2757670" lon="-0.6963650">
        <ele>90.1</ele>
        <time>2017-12-18T13:22:14Z</time>
      </trkpt>
      <trkpt lat="38.2758250" lon="-0.6963780">
        <ele>90.1</ele>
        <time>2017-12-18T13:22:15Z</time>
      </trkpt>
      <trkpt lat="38.2758850" lon="-0.6963850">
        <ele>90.1</ele>
        <time>2017-12-18T13:22:16Z</time>
      </trkpt>
      <trkpt lat="38.2759450" lon="-0.6963860">
        <ele>90.1</ele>
        <time>2017-12-18T13:22:17Z</time>
      </trkpt>
      <trkpt lat="38.2760050" lon="-0.6963820">
        <ele>91.1</ele>
        <time>2017-12-18T13:22:18Z</time>
      </trkpt>
      <trkpt lat="38.2760630" lon="-0.6963730">
        <ele>91.1</ele>
        <time>2017-12-18T13:22:19Z</time>
      </trkpt>
      <trkpt lat="38.2761210" lon="-0.6963610">
        <ele>91.1</ele>
        <time>2017-12-18T13:22:20Z</time>
      </trkpt>
      <trkpt lat="38.2761800" lon="-0.6963480">
        <ele>91.1</ele>
        <time>2017-12-18T13:22:21Z</time>
      </trkpt>
      <trkpt lat="38.2762380" lon="-0.6963340">
        <ele>92.2</ele>
        <time>2017-12-18T13:22:22Z</time>
      </trkpt>
      <trkpt lat="38.2762940" lon="-0.6963200">
        <ele>92.2</ele>
        <time>2017-12-18T13:22:23Z</time>
      </trkpt>
      <trkpt lat="38.2763510" lon="-0.6963050">
        <ele>92.2</ele>
        <time>2017-12-18T13:22:24Z</time>
      </trkpt>
      <trkpt lat="38.2764080" lon="-0.6962870">
        <ele>92.2</ele>
        <time>2017-12-18T13:22:25Z</time>
      </trkpt>
      <trkpt lat="38.2764650" lon="-0.6962670">
        <ele>92.2</ele>
        <time>2017-12-18T13:22:26Z</time>
      </trkpt>
      <trkpt lat="38.2765220" lon="-0.6962480">
        <ele>92.2</ele>
        <time>2017-12-18T13:22:27Z</time>
      </trkpt>
      <trkpt lat="38.2765780" lon="-0.6962260">
        <ele>92.2</ele>
        <time>2017-12-18T13:22:28Z</time>
      </trkpt>
      <trkpt lat="38.2766340" lon="-0.6962060">
        <ele>92.2</ele>
        <time>2017-12-18T13:22:29Z</time>
      </trkpt>
      <trkpt lat="38.2766910" lon="-0.6961860">
        <ele>91.1</ele>
        <time>2017-12-18T13:22:30Z</time>
      </trkpt>
      <trkpt lat="38.2767470" lon="-0.6961720">
        <ele>91.1</ele>
        <time>2017-12-18T13:22:31Z</time>
      </trkpt>
      <trkpt lat="38.2768050" lon="-0.6961590">
        <ele>91.1</ele>
        <time>2017-12-18T13:22:32Z</time>
      </trkpt>
      <trkpt lat="38.2768600" lon="-0.6961490">
        <ele>91.1</ele>
        <time>2017-12-18T13:22:33Z</time>
      </trkpt>
      <trkpt lat="38.2769130" lon="-0.6961420">
        <ele>91.1</ele>
        <time>2017-12-18T13:22:34Z</time>
      </trkpt>
      <trkpt lat="38.2769730" lon="-0.6961460">
        <ele>91.1</ele>
        <time>2017-12-18T13:22:35Z</time>
      </trkpt>
      <trkpt lat="38.2770310" lon="-0.6961450">
        <ele>91.1</ele>
        <time>2017-12-18T13:22:36Z</time>
      </trkpt>
      <trkpt lat="38.2770920" lon="-0.6961450">
        <ele>91.1</ele>
        <time>2017-12-18T13:22:37Z</time>
      </trkpt>
      <trkpt lat="38.2771530" lon="-0.6961460">
        <ele>92.2</ele>
        <time>2017-12-18T13:22:38Z</time>
      </trkpt>
      <trkpt lat="38.2772130" lon="-0.6961470">
        <ele>92.2</ele>
        <time>2017-12-18T13:22:39Z</time>
      </trkpt>
      <trkpt lat="38.2772740" lon="-0.6961490">
        <ele>92.2</ele>
        <time>2017-12-18T13:22:40Z</time>
      </trkpt>
      <trkpt lat="38.2773320" lon="-0.6961490">
        <ele>92.2</ele>
        <time>2017-12-18T13:22:41Z</time>
      </trkpt>
      <trkpt lat="38.2773910" lon="-0.6961520">
        <ele>92.2</ele>
        <time>2017-12-18T13:22:42Z</time>
      </trkpt>
      <trkpt lat="38.2774510" lon="-0.6961550">
        <ele>92.2</ele>
        <time>2017-12-18T13:22:43Z</time>
      </trkpt>
      <trkpt lat="38.2775100" lon="-0.6961590">
        <ele>92.2</ele>
        <time>2017-12-18T13:22:44Z</time>
      </trkpt>
      <trkpt lat="38.2775670" lon="-0.6961650">
        <ele>92.2</ele>
        <time>2017-12-18T13:22:45Z</time>
      </trkpt>
      <trkpt lat="38.2776240" lon="-0.6961750">
        <ele>93.1</ele>
        <time>2017-12-18T13:22:46Z</time>
      </trkpt>
      <trkpt lat="38.2776800" lon="-0.6961870">
        <ele>93.1</ele>
        <time>2017-12-18T13:22:47Z</time>
      </trkpt>
      <trkpt lat="38.2777350" lon="-0.6962040">
        <ele>93.1</ele>
        <time>2017-12-18T13:22:48Z</time>
      </trkpt>
      <trkpt lat="38.2777900" lon="-0.6962240">
        <ele>93.1</ele>
        <time>2017-12-18T13:22:49Z</time>
      </trkpt>
      <trkpt lat="38.2778440" lon="-0.6962480">
        <ele>93.1</ele>
        <time>2017-12-18T13:22:50Z</time>
      </trkpt>
      <trkpt lat="38.2778960" lon="-0.6962720">
        <ele>93.1</ele>
        <time>2017-12-18T13:22:51Z</time>
      </trkpt>
      <trkpt lat="38.2779480" lon="-0.6962970">
        <ele>93.1</ele>
        <time>2017-12-18T13:22:52Z</time>
      </trkpt>
      <trkpt lat="38.2780020" lon="-0.6963200">
        <ele>93.1</ele>
        <time>2017-12-18T13:22:53Z</time>
      </trkpt>
      <trkpt lat="38.2780550" lon="-0.6963430">
        <ele>93.1</ele>
        <time>2017-12-18T13:22:54Z</time>
      </trkpt>
      <trkpt lat="38.2781080" lon="-0.6963660">
        <ele>93.1</ele>
        <time>2017-12-18T13:22:55Z</time>
      </trkpt>
      <trkpt lat="38.2781630" lon="-0.6963870">
        <ele>94.2</ele>
        <time>2017-12-18T13:22:56Z</time>
      </trkpt>
      <trkpt lat="38.2782180" lon="-0.6964080">
        <ele>94.2</ele>
        <time>2017-12-18T13:22:57Z</time>
      </trkpt>
      <trkpt lat="38.2782750" lon="-0.6964270">
        <ele>94.2</ele>
        <time>2017-12-18T13:22:58Z</time>
      </trkpt>
      <trkpt lat="38.2783310" lon="-0.6964450">
        <ele>94.2</ele>
        <time>2017-12-18T13:22:59Z</time>
      </trkpt>
      <trkpt lat="38.2783860" lon="-0.6964600">
        <ele>94.2</ele>
        <time>2017-12-18T13:23:00Z</time>
      </trkpt>
      <trkpt lat="38.2784410" lon="-0.6964760">
        <ele>94.2</ele>
        <time>2017-12-18T13:23:01Z</time>
      </trkpt>
      <trkpt lat="38.2784970" lon="-0.6964940">
        <ele>94.2</ele>
        <time>2017-12-18T13:23:02Z</time>
      </trkpt>
      <trkpt lat="38.2785510" lon="-0.6965120">
        <ele>94.2</ele>
        <time>2017-12-18T13:23:03Z</time>
      </trkpt>
      <trkpt lat="38.2786050" lon="-0.6965290">
        <ele>94.2</ele>
        <time>2017-12-18T13:23:04Z</time>
      </trkpt>
      <trkpt lat="38.2786590" lon="-0.6965400">
        <ele>94.2</ele>
        <time>2017-12-18T13:23:05Z</time>
      </trkpt>
      <trkpt lat="38.2787120" lon="-0.6965520">
        <ele>94.2</ele>
        <time>2017-12-18T13:23:06Z</time>
      </trkpt>
      <trkpt lat="38.2787660" lon="-0.6965650">
        <ele>94.2</ele>
        <time>2017-12-18T13:23:07Z</time>
      </trkpt>
      <trkpt lat="38.2788180" lon="-0.6965820">
        <ele>94.2</ele>
        <time>2017-12-18T13:23:08Z</time>
      </trkpt>
      <trkpt lat="38.2788690" lon="-0.6966010">
        <ele>94.2</ele>
        <time>2017-12-18T13:23:09Z</time>
      </trkpt>
      <trkpt lat="38.2789180" lon="-0.6966180">
        <ele>94.2</ele>
        <time>2017-12-18T13:23:10Z</time>
      </trkpt>
      <trkpt lat="38.2789660" lon="-0.6966350">
        <ele>94.2</ele>
        <time>2017-12-18T13:23:11Z</time>
      </trkpt>
      <trkpt lat="38.2790120" lon="-0.6966510">
        <ele>95.1</ele>
        <time>2017-12-18T13:23:12Z</time>
      </trkpt>
      <trkpt lat="38.2790560" lon="-0.6966650">
        <ele>95.1</ele>
        <time>2017-12-18T13:23:13Z</time>
      </trkpt>
      <trkpt lat="38.2790980" lon="-0.6966770">
        <ele>95.1</ele>
        <time>2017-12-18T13:23:14Z</time>
      </trkpt>
      <trkpt lat="38.2791370" lon="-0.6966860">
        <ele>95.1</ele>
        <time>2017-12-18T13:23:15Z</time>
      </trkpt>
      <trkpt lat="38.2791640" lon="-0.6966920">
        <ele>95.1</ele>
        <time>2017-12-18T13:23:16Z</time>
      </trkpt>
      <trkpt lat="38.2791850" lon="-0.6966940">
        <ele>95.1</ele>
        <time>2017-12-18T13:23:17Z</time>
      </trkpt>
      <trkpt lat="38.2792030" lon="-0.6966980">
        <ele>96.2</ele>
        <time>2017-12-18T13:23:18Z</time>
      </trkpt>
      <trkpt lat="38.2792230" lon="-0.6966990">
        <ele>96.2</ele>
        <time>2017-12-18T13:23:19Z</time>
      </trkpt>
      <trkpt lat="38.2792440" lon="-0.6966960">
        <ele>96.2</ele>
        <time>2017-12-18T13:23:20Z</time>
      </trkpt>
      <trkpt lat="38.2792660" lon="-0.6966880">
        <ele>96.2</ele>
        <time>2017-12-18T13:23:21Z</time>
      </trkpt>
      <trkpt lat="38.2792890" lon="-0.6966760">
        <ele>97.1</ele>
        <time>2017-12-18T13:23:22Z</time>
      </trkpt>
      <trkpt lat="38.2793130" lon="-0.6966570">
        <ele>97.1</ele>
        <time>2017-12-18T13:23:23Z</time>
      </trkpt>
      <trkpt lat="38.2793340" lon="-0.6966330">
        <ele>97.1</ele>
        <time>2017-12-18T13:23:24Z</time>
      </trkpt>
      <trkpt lat="38.2793550" lon="-0.6966030">
        <ele>97.1</ele>
        <time>2017-12-18T13:23:25Z</time>
      </trkpt>
      <trkpt lat="38.2793730" lon="-0.6965640">
        <ele>97.1</ele>
        <time>2017-12-18T13:23:26Z</time>
      </trkpt>
      <trkpt lat="38.2793870" lon="-0.6965160">
        <ele>97.1</ele>
        <time>2017-12-18T13:23:27Z</time>
      </trkpt>
      <trkpt lat="38.2794030" lon="-0.6964600">
        <ele>97.1</ele>
        <time>2017-12-18T13:23:28Z</time>
      </trkpt>
      <trkpt lat="38.2794090" lon="-0.6963880">
        <ele>97.1</ele>
        <time>2017-12-18T13:23:29Z</time>
      </trkpt>
      <trkpt lat="38.2794240" lon="-0.6963200">
        <ele>97.1</ele>
        <time>2017-12-18T13:23:30Z</time>
      </trkpt>
      <trkpt lat="38.2794470" lon="-0.6962550">
        <ele>97.1</ele>
        <time>2017-12-18T13:23:31Z</time>
      </trkpt>
      <trkpt lat="38.2794800" lon="-0.6961970">
        <ele>97.1</ele>
        <time>2017-12-18T13:23:32Z</time>
      </trkpt>
      <trkpt lat="38.2795180" lon="-0.6961430">
        <ele>97.1</ele>
        <time>2017-12-18T13:23:33Z</time>
      </trkpt>
      <trkpt lat="38.2795600" lon="-0.6960930">
        <ele>97.1</ele>
        <time>2017-12-18T13:23:34Z</time>
      </trkpt>
      <trkpt lat="38.2796150" lon="-0.6960550">
        <ele>97.1</ele>
        <time>2017-12-18T13:23:35Z</time>
      </trkpt>
      <trkpt lat="38.2796730" lon="-0.6960290">
        <ele>97.1</ele>
        <time>2017-12-18T13:23:36Z</time>
      </trkpt>
      <trkpt lat="38.2797300" lon="-0.6960130">
        <ele>97.1</ele>
        <time>2017-12-18T13:23:37Z</time>
      </trkpt>
      <trkpt lat="38.2797880" lon="-0.6960080">
        <ele>97.1</ele>
        <time>2017-12-18T13:23:38Z</time>
      </trkpt>
      <trkpt lat="38.2798490" lon="-0.6960200">
        <ele>97.1</ele>
        <time>2017-12-18T13:23:39Z</time>
      </trkpt>
      <trkpt lat="38.2799080" lon="-0.6960420">
        <ele>97.1</ele>
        <time>2017-12-18T13:23:40Z</time>
      </trkpt>
      <trkpt lat="38.2799630" lon="-0.6960770">
        <ele>97.1</ele>
        <time>2017-12-18T13:23:41Z</time>
      </trkpt>
      <trkpt lat="38.2800110" lon="-0.6961230">
        <ele>97.1</ele>
        <time>2017-12-18T13:23:42Z</time>
      </trkpt>
      <trkpt lat="38.2800550" lon="-0.6961780">
        <ele>97.1</ele>
        <time>2017-12-18T13:23:43Z</time>
      </trkpt>
      <trkpt lat="38.2800910" lon="-0.6962420">
        <ele>97.1</ele>
        <time>2017-12-18T13:23:44Z</time>
      </trkpt>
      <trkpt lat="38.2801210" lon="-0.6963120">
        <ele>97.1</ele>
        <time>2017-12-18T13:23:45Z</time>
      </trkpt>
      <trkpt lat="38.2801440" lon="-0.6963880">
        <ele>97.1</ele>
        <time>2017-12-18T13:23:46Z</time>
      </trkpt>
      <trkpt lat="38.2801690" lon="-0.6964630">
        <ele>97.1</ele>
        <time>2017-12-18T13:23:47Z</time>
      </trkpt>
      <trkpt lat="38.2802030" lon="-0.6965330">
        <ele>97.1</ele>
        <time>2017-12-18T13:23:48Z</time>
      </trkpt>
      <trkpt lat="38.2802550" lon="-0.6965840">
        <ele>97.1</ele>
        <time>2017-12-18T13:23:49Z</time>
      </trkpt>
      <trkpt lat="38.2803130" lon="-0.6966160">
        <ele>97.1</ele>
        <time>2017-12-18T13:23:50Z</time>
      </trkpt>
      <trkpt lat="38.2803720" lon="-0.6966360">
        <ele>97.1</ele>
        <time>2017-12-18T13:23:51Z</time>
      </trkpt>
      <trkpt lat="38.2804340" lon="-0.6966470">
        <ele>97.1</ele>
        <time>2017-12-18T13:23:52Z</time>
      </trkpt>
      <trkpt lat="38.2804940" lon="-0.6966480">
        <ele>97.1</ele>
        <time>2017-12-18T13:23:53Z</time>
      </trkpt>
      <trkpt lat="38.2805540" lon="-0.6966480">
        <ele>98.1</ele>
        <time>2017-12-18T13:23:54Z</time>
      </trkpt>
      <trkpt lat="38.2806120" lon="-0.6966500">
        <ele>98.1</ele>
        <time>2017-12-18T13:23:55Z</time>
      </trkpt>
      <trkpt lat="38.2806690" lon="-0.6966520">
        <ele>98.1</ele>
        <time>2017-12-18T13:23:56Z</time>
      </trkpt>
      <trkpt lat="38.2807250" lon="-0.6966550">
        <ele>98.1</ele>
        <time>2017-12-18T13:23:57Z</time>
      </trkpt>
      <trkpt lat="38.2807810" lon="-0.6966560">
        <ele>98.1</ele>
        <time>2017-12-18T13:23:58Z</time>
      </trkpt>
      <trkpt lat="38.2808360" lon="-0.6966560">
        <ele>98.1</ele>
        <time>2017-12-18T13:23:59Z</time>
      </trkpt>
      <trkpt lat="38.2808910" lon="-0.6966550">
        <ele>99.2</ele>
        <time>2017-12-18T13:24:00Z</time>
      </trkpt>
      <trkpt lat="38.2809450" lon="-0.6966550">
        <ele>99.2</ele>
        <time>2017-12-18T13:24:01Z</time>
      </trkpt>
      <trkpt lat="38.2810030" lon="-0.6966530">
        <ele>100.1</ele>
        <time>2017-12-18T13:24:02Z</time>
      </trkpt>
      <trkpt lat="38.2810600" lon="-0.6966500">
        <ele>100.1</ele>
        <time>2017-12-18T13:24:03Z</time>
      </trkpt>
      <trkpt lat="38.2811160" lon="-0.6966490">
        <ele>100.1</ele>
        <time>2017-12-18T13:24:04Z</time>
      </trkpt>
      <trkpt lat="38.2811730" lon="-0.6966470">
        <ele>100.1</ele>
        <time>2017-12-18T13:24:05Z</time>
      </trkpt>
      <trkpt lat="38.2812280" lon="-0.6966430">
        <ele>101.2</ele>
        <time>2017-12-18T13:24:06Z</time>
      </trkpt>
      <trkpt lat="38.2812840" lon="-0.6966380">
        <ele>101.2</ele>
        <time>2017-12-18T13:24:07Z</time>
      </trkpt>
      <trkpt lat="38.2813390" lon="-0.6966390">
        <ele>101.2</ele>
        <time>2017-12-18T13:24:08Z</time>
      </trkpt>
      <trkpt lat="38.2813950" lon="-0.6966510">
        <ele>101.2</ele>
        <time>2017-12-18T13:24:09Z</time>
      </trkpt>
      <trkpt lat="38.2814490" lon="-0.6966660">
        <ele>101.2</ele>
        <time>2017-12-18T13:24:10Z</time>
      </trkpt>
      <trkpt lat="38.2815050" lon="-0.6966820">
        <ele>101.2</ele>
        <time>2017-12-18T13:24:11Z</time>
      </trkpt>
      <trkpt lat="38.2815620" lon="-0.6966930">
        <ele>101.2</ele>
        <time>2017-12-18T13:24:12Z</time>
      </trkpt>
      <trkpt lat="38.2816180" lon="-0.6967040">
        <ele>101.2</ele>
        <time>2017-12-18T13:24:13Z</time>
      </trkpt>
      <trkpt lat="38.2816740" lon="-0.6967170">
        <ele>101.2</ele>
        <time>2017-12-18T13:24:14Z</time>
      </trkpt>
      <trkpt lat="38.2817300" lon="-0.6967310">
        <ele>101.2</ele>
        <time>2017-12-18T13:24:15Z</time>
      </trkpt>
      <trkpt lat="38.2817850" lon="-0.6967520">
        <ele>101.2</ele>
        <time>2017-12-18T13:24:16Z</time>
      </trkpt>
      <trkpt lat="38.2818390" lon="-0.6967730">
        <ele>101.2</ele>
        <time>2017-12-18T13:24:17Z</time>
      </trkpt>
      <trkpt lat="38.2818950" lon="-0.6967950">
        <ele>102.1</ele>
        <time>2017-12-18T13:24:18Z</time>
      </trkpt>
      <trkpt lat="38.2819490" lon="-0.6968170">
        <ele>102.1</ele>
        <time>2017-12-18T13:24:19Z</time>
      </trkpt>
      <trkpt lat="38.2820000" lon="-0.6968400">
        <ele>102.1</ele>
        <time>2017-12-18T13:24:20Z</time>
      </trkpt>
      <trkpt lat="38.2820540" lon="-0.6968640">
        <ele>102.1</ele>
        <time>2017-12-18T13:24:21Z</time>
      </trkpt>
      <trkpt lat="38.2821080" lon="-0.6968890">
        <ele>102.1</ele>
        <time>2017-12-18T13:24:22Z</time>
      </trkpt>
      <trkpt lat="38.2821630" lon="-0.6969170">
        <ele>102.1</ele>
        <time>2017-12-18T13:24:23Z</time>
      </trkpt>
      <trkpt lat="38.2822190" lon="-0.6969410">
        <ele>102.1</ele>
        <time>2017-12-18T13:24:24Z</time>
      </trkpt>
      <trkpt lat="38.2822720" lon="-0.6969680">
        <ele>102.1</ele>
        <time>2017-12-18T13:24:25Z</time>
      </trkpt>
      <trkpt lat="38.2823260" lon="-0.6969950">
        <ele>102.1</ele>
        <time>2017-12-18T13:24:26Z</time>
      </trkpt>
      <trkpt lat="38.2823810" lon="-0.6970120">
        <ele>102.1</ele>
        <time>2017-12-18T13:24:27Z</time>
      </trkpt>
      <trkpt lat="38.2824380" lon="-0.6970220">
        <ele>102.1</ele>
        <time>2017-12-18T13:24:28Z</time>
      </trkpt>
      <trkpt lat="38.2824950" lon="-0.6970310">
        <ele>102.1</ele>
        <time>2017-12-18T13:24:29Z</time>
      </trkpt>
      <trkpt lat="38.2825530" lon="-0.6970410">
        <ele>102.1</ele>
        <time>2017-12-18T13:24:30Z</time>
      </trkpt>
      <trkpt lat="38.2826100" lon="-0.6970530">
        <ele>102.1</ele>
        <time>2017-12-18T13:24:31Z</time>
      </trkpt>
      <trkpt lat="38.2826670" lon="-0.6970660">
        <ele>102.1</ele>
        <time>2017-12-18T13:24:32Z</time>
      </trkpt>
      <trkpt lat="38.2827240" lon="-0.6970780">
        <ele>102.1</ele>
        <time>2017-12-18T13:24:33Z</time>
      </trkpt>
      <trkpt lat="38.2827810" lon="-0.6970920">
        <ele>102.1</ele>
        <time>2017-12-18T13:24:34Z</time>
      </trkpt>
      <trkpt lat="38.2828370" lon="-0.6971070">
        <ele>102.1</ele>
        <time>2017-12-18T13:24:35Z</time>
      </trkpt>
      <trkpt lat="38.2828930" lon="-0.6971200">
        <ele>102.1</ele>
        <time>2017-12-18T13:24:36Z</time>
      </trkpt>
      <trkpt lat="38.2829490" lon="-0.6971370">
        <ele>102.1</ele>
        <time>2017-12-18T13:24:37Z</time>
      </trkpt>
      <trkpt lat="38.2830040" lon="-0.6971540">
        <ele>102.1</ele>
        <time>2017-12-18T13:24:38Z</time>
      </trkpt>
      <trkpt lat="38.2830590" lon="-0.6971700">
        <ele>102.1</ele>
        <time>2017-12-18T13:24:39Z</time>
      </trkpt>
      <trkpt lat="38.2831130" lon="-0.6971820">
        <ele>102.1</ele>
        <time>2017-12-18T13:24:40Z</time>
      </trkpt>
      <trkpt lat="38.2831680" lon="-0.6971910">
        <ele>102.1</ele>
        <time>2017-12-18T13:24:41Z</time>
      </trkpt>
      <trkpt lat="38.2832250" lon="-0.6972000">
        <ele>102.1</ele>
        <time>2017-12-18T13:24:42Z</time>
      </trkpt>
      <trkpt lat="38.2832800" lon="-0.6972100">
        <ele>102.1</ele>
        <time>2017-12-18T13:24:43Z</time>
      </trkpt>
      <trkpt lat="38.2833360" lon="-0.6972200">
        <ele>105.2</ele>
        <time>2017-12-18T13:24:44Z</time>
      </trkpt>
      <trkpt lat="38.2833930" lon="-0.6972320">
        <ele>105.2</ele>
        <time>2017-12-18T13:24:45Z</time>
      </trkpt>
      <trkpt lat="38.2834490" lon="-0.6972450">
        <ele>105.2</ele>
        <time>2017-12-18T13:24:46Z</time>
      </trkpt>
      <trkpt lat="38.2835050" lon="-0.6972600">
        <ele>105.2</ele>
        <time>2017-12-18T13:24:47Z</time>
      </trkpt>
      <trkpt lat="38.2835600" lon="-0.6972750">
        <ele>105.2</ele>
        <time>2017-12-18T13:24:48Z</time>
      </trkpt>
      <trkpt lat="38.2836150" lon="-0.6972910">
        <ele>105.2</ele>
        <time>2017-12-18T13:24:49Z</time>
      </trkpt>
      <trkpt lat="38.2836680" lon="-0.6973070">
        <ele>105.2</ele>
        <time>2017-12-18T13:24:50Z</time>
      </trkpt>
      <trkpt lat="38.2837210" lon="-0.6973250">
        <ele>105.2</ele>
        <time>2017-12-18T13:24:51Z</time>
      </trkpt>
      <trkpt lat="38.2837730" lon="-0.6973430">
        <ele>105.2</ele>
        <time>2017-12-18T13:24:52Z</time>
      </trkpt>
      <trkpt lat="38.2838290" lon="-0.6973600">
        <ele>105.2</ele>
        <time>2017-12-18T13:24:53Z</time>
      </trkpt>
      <trkpt lat="38.2838870" lon="-0.6973810">
        <ele>105.2</ele>
        <time>2017-12-18T13:24:54Z</time>
      </trkpt>
      <trkpt lat="38.2839480" lon="-0.6974020">
        <ele>105.2</ele>
        <time>2017-12-18T13:24:55Z</time>
      </trkpt>
      <trkpt lat="38.2840160" lon="-0.6974210">
        <ele>105.2</ele>
        <time>2017-12-18T13:24:56Z</time>
      </trkpt>
      <trkpt lat="38.2840900" lon="-0.6974390">
        <ele>105.2</ele>
        <time>2017-12-18T13:24:57Z</time>
      </trkpt>
      <trkpt lat="38.2841670" lon="-0.6974540">
        <ele>105.2</ele>
        <time>2017-12-18T13:24:58Z</time>
      </trkpt>
      <trkpt lat="38.2842460" lon="-0.6974640">
        <ele>105.2</ele>
        <time>2017-12-18T13:24:59Z</time>
      </trkpt>
      <trkpt lat="38.2843280" lon="-0.6974700">
        <ele>102.1</ele>
        <time>2017-12-18T13:25:00Z</time>
      </trkpt>
      <trkpt lat="38.2844120" lon="-0.6974690">
        <ele>102.1</ele>
        <time>2017-12-18T13:25:01Z</time>
      </trkpt>
      <trkpt lat="38.2844960" lon="-0.6974670">
        <ele>101.2</ele>
        <time>2017-12-18T13:25:02Z</time>
      </trkpt>
      <trkpt lat="38.2845800" lon="-0.6974660">
        <ele>101.2</ele>
        <time>2017-12-18T13:25:03Z</time>
      </trkpt>
      <trkpt lat="38.2846610" lon="-0.6974660">
        <ele>100.1</ele>
        <time>2017-12-18T13:25:04Z</time>
      </trkpt>
      <trkpt lat="38.2847390" lon="-0.6974670">
        <ele>100.1</ele>
        <time>2017-12-18T13:25:05Z</time>
      </trkpt>
      <trkpt lat="38.2848110" lon="-0.6974700">
        <ele>100.1</ele>
        <time>2017-12-18T13:25:06Z</time>
      </trkpt>
      <trkpt lat="38.2848780" lon="-0.6974740">
        <ele>100.1</ele>
        <time>2017-12-18T13:25:07Z</time>
      </trkpt>
      <trkpt lat="38.2849430" lon="-0.6974760">
        <ele>101.2</ele>
        <time>2017-12-18T13:25:08Z</time>
      </trkpt>
      <trkpt lat="38.2850040" lon="-0.6974750">
        <ele>101.2</ele>
        <time>2017-12-18T13:25:09Z</time>
      </trkpt>
      <trkpt lat="38.2850620" lon="-0.6974720">
        <ele>102.1</ele>
        <time>2017-12-18T13:25:10Z</time>
      </trkpt>
      <trkpt lat="38.2851190" lon="-0.6974690">
        <ele>102.1</ele>
        <time>2017-12-18T13:25:11Z</time>
      </trkpt>
      <trkpt lat="38.2851720" lon="-0.6974620">
        <ele>103.2</ele>
        <time>2017-12-18T13:25:12Z</time>
      </trkpt>
      <trkpt lat="38.2852240" lon="-0.6974510">
        <ele>103.2</ele>
        <time>2017-12-18T13:25:13Z</time>
      </trkpt>
      <trkpt lat="38.2852740" lon="-0.6974350">
        <ele>104.1</ele>
        <time>2017-12-18T13:25:14Z</time>
      </trkpt>
      <trkpt lat="38.2853230" lon="-0.6974160">
        <ele>104.1</ele>
        <time>2017-12-18T13:25:15Z</time>
      </trkpt>
      <trkpt lat="38.2853650" lon="-0.6973890">
        <ele>105.2</ele>
        <time>2017-12-18T13:25:16Z</time>
      </trkpt>
      <trkpt lat="38.2854050" lon="-0.6973630">
        <ele>105.2</ele>
        <time>2017-12-18T13:25:17Z</time>
      </trkpt>
      <trkpt lat="38.2854440" lon="-0.6973360">
        <ele>106.1</ele>
        <time>2017-12-18T13:25:18Z</time>
      </trkpt>
      <trkpt lat="38.2854830" lon="-0.6973070">
        <ele>106.1</ele>
        <time>2017-12-18T13:25:19Z</time>
      </trkpt>
      <trkpt lat="38.2855240" lon="-0.6972780">
        <ele>107.1</ele>
        <time>2017-12-18T13:25:20Z</time>
      </trkpt>
      <trkpt lat="38.2855670" lon="-0.6972470">
        <ele>107.1</ele>
        <time>2017-12-18T13:25:21Z</time>
      </trkpt>
      <trkpt lat="38.2856150" lon="-0.6972160">
        <ele>107.1</ele>
        <time>2017-12-18T13:25:22Z</time>
      </trkpt>
      <trkpt lat="38.2856640" lon="-0.6971850">
        <ele>107.1</ele>
        <time>2017-12-18T13:25:23Z</time>
      </trkpt>
      <trkpt lat="38.2857130" lon="-0.6971520">
        <ele>108.2</ele>
        <time>2017-12-18T13:25:24Z</time>
      </trkpt>
      <trkpt lat="38.2857630" lon="-0.6971190">
        <ele>108.2</ele>
        <time>2017-12-18T13:25:25Z</time>
      </trkpt>
      <trkpt lat="38.2858140" lon="-0.6970870">
        <ele>108.2</ele>
        <time>2017-12-18T13:25:26Z</time>
      </trkpt>
      <trkpt lat="38.2858670" lon="-0.6970540">
        <ele>108.2</ele>
        <time>2017-12-18T13:25:27Z</time>
      </trkpt>
      <trkpt lat="38.2859190" lon="-0.6970220">
        <ele>108.2</ele>
        <time>2017-12-18T13:25:28Z</time>
      </trkpt>
      <trkpt lat="38.2859730" lon="-0.6969900">
        <ele>108.2</ele>
        <time>2017-12-18T13:25:29Z</time>
      </trkpt>
      <trkpt lat="38.2860280" lon="-0.6969580">
        <ele>108.2</ele>
        <time>2017-12-18T13:25:30Z</time>
      </trkpt>
      <trkpt lat="38.2860850" lon="-0.6969290">
        <ele>108.2</ele>
        <time>2017-12-18T13:25:31Z</time>
      </trkpt>
      <trkpt lat="38.2861430" lon="-0.6969010">
        <ele>108.2</ele>
        <time>2017-12-18T13:25:32Z</time>
      </trkpt>
      <trkpt lat="38.2862010" lon="-0.6968760">
        <ele>108.2</ele>
        <time>2017-12-18T13:25:33Z</time>
      </trkpt>
      <trkpt lat="38.2862620" lon="-0.6968550">
        <ele>108.2</ele>
        <time>2017-12-18T13:25:34Z</time>
      </trkpt>
      <trkpt lat="38.2863230" lon="-0.6968380">
        <ele>108.2</ele>
        <time>2017-12-18T13:25:35Z</time>
      </trkpt>
      <trkpt lat="38.2863850" lon="-0.6968250">
        <ele>108.2</ele>
        <time>2017-12-18T13:25:36Z</time>
      </trkpt>
      <trkpt lat="38.2864470" lon="-0.6968150">
        <ele>108.2</ele>
        <time>2017-12-18T13:25:37Z</time>
      </trkpt>
      <trkpt lat="38.2865090" lon="-0.6968060">
        <ele>108.2</ele>
        <time>2017-12-18T13:25:38Z</time>
      </trkpt>
      <trkpt lat="38.2865730" lon="-0.6968000">
        <ele>108.2</ele>
        <time>2017-12-18T13:25:39Z</time>
      </trkpt>
      <trkpt lat="38.2866360" lon="-0.6967950">
        <ele>108.2</ele>
        <time>2017-12-18T13:25:40Z</time>
      </trkpt>
      <trkpt lat="38.2866980" lon="-0.6967890">
        <ele>108.2</ele>
        <time>2017-12-18T13:25:41Z</time>
      </trkpt>
      <trkpt lat="38.2867600" lon="-0.6967790">
        <ele>108.2</ele>
        <time>2017-12-18T13:25:42Z</time>
      </trkpt>
      <trkpt lat="38.2868230" lon="-0.6967700">
        <ele>108.2</ele>
        <time>2017-12-18T13:25:43Z</time>
      </trkpt>
      <trkpt lat="38.2868850" lon="-0.6967580">
        <ele>108.2</ele>
        <time>2017-12-18T13:25:44Z</time>
      </trkpt>
      <trkpt lat="38.2869450" lon="-0.6967420">
        <ele>108.2</ele>
        <time>2017-12-18T13:25:45Z</time>
      </trkpt>
      <trkpt lat="38.2870060" lon="-0.6967230">
        <ele>108.2</ele>
        <time>2017-12-18T13:25:46Z</time>
      </trkpt>
      <trkpt lat="38.2870680" lon="-0.6967000">
        <ele>108.2</ele>
        <time>2017-12-18T13:25:47Z</time>
      </trkpt>
      <trkpt lat="38.2871260" lon="-0.6966730">
        <ele>108.2</ele>
        <time>2017-12-18T13:25:48Z</time>
      </trkpt>
      <trkpt lat="38.2871860" lon="-0.6966450">
        <ele>108.2</ele>
        <time>2017-12-18T13:25:49Z</time>
      </trkpt>
      <trkpt lat="38.2872420" lon="-0.6966120">
        <ele>109.1</ele>
        <time>2017-12-18T13:25:50Z</time>
      </trkpt>
      <trkpt lat="38.2872970" lon="-0.6965770">
        <ele>109.1</ele>
        <time>2017-12-18T13:25:51Z</time>
      </trkpt>
      <trkpt lat="38.2873530" lon="-0.6965430">
        <ele>109.1</ele>
        <time>2017-12-18T13:25:52Z</time>
      </trkpt>
      <trkpt lat="38.2874090" lon="-0.6965080">
        <ele>109.1</ele>
        <time>2017-12-18T13:25:53Z</time>
      </trkpt>
      <trkpt lat="38.2874650" lon="-0.6964750">
        <ele>109.1</ele>
        <time>2017-12-18T13:25:54Z</time>
      </trkpt>
      <trkpt lat="38.2875220" lon="-0.6964450">
        <ele>109.1</ele>
        <time>2017-12-18T13:25:55Z</time>
      </trkpt>
      <trkpt lat="38.2875810" lon="-0.6964230">
        <ele>110.2</ele>
        <time>2017-12-18T13:25:56Z</time>
      </trkpt>
      <trkpt lat="38.2876410" lon="-0.6964090">
        <ele>110.2</ele>
        <time>2017-12-18T13:25:57Z</time>
      </trkpt>
      <trkpt lat="38.2877030" lon="-0.6964110">
        <ele>110.2</ele>
        <time>2017-12-18T13:25:58Z</time>
      </trkpt>
      <trkpt lat="38.2877620" lon="-0.6964320">
        <ele>110.2</ele>
        <time>2017-12-18T13:25:59Z</time>
      </trkpt>
      <trkpt lat="38.2878180" lon="-0.6964640">
        <ele>110.2</ele>
        <time>2017-12-18T13:26:00Z</time>
      </trkpt>
      <trkpt lat="38.2878690" lon="-0.6964990">
        <ele>110.2</ele>
        <time>2017-12-18T13:26:01Z</time>
      </trkpt>
      <trkpt lat="38.2879190" lon="-0.6965340">
        <ele>111.1</ele>
        <time>2017-12-18T13:26:02Z</time>
      </trkpt>
      <trkpt lat="38.2879680" lon="-0.6965650">
        <ele>111.1</ele>
        <time>2017-12-18T13:26:03Z</time>
      </trkpt>
      <trkpt lat="38.2880170" lon="-0.6965880">
        <ele>111.1</ele>
        <time>2017-12-18T13:26:04Z</time>
      </trkpt>
      <trkpt lat="38.2880690" lon="-0.6965940">
        <ele>111.1</ele>
        <time>2017-12-18T13:26:05Z</time>
      </trkpt>
      <trkpt lat="38.2881200" lon="-0.6965850">
        <ele>111.1</ele>
        <time>2017-12-18T13:26:06Z</time>
      </trkpt>
      <trkpt lat="38.2881670" lon="-0.6965650">
        <ele>111.1</ele>
        <time>2017-12-18T13:26:07Z</time>
      </trkpt>
      <trkpt lat="38.2882180" lon="-0.6965430">
        <ele>112.2</ele>
        <time>2017-12-18T13:26:08Z</time>
      </trkpt>
      <trkpt lat="38.2882630" lon="-0.6965120">
        <ele>112.2</ele>
        <time>2017-12-18T13:26:09Z</time>
      </trkpt>
      <trkpt lat="38.2883040" lon="-0.6964760">
        <ele>112.2</ele>
        <time>2017-12-18T13:26:10Z</time>
      </trkpt>
      <trkpt lat="38.2883320" lon="-0.6964280">
        <ele>112.2</ele>
        <time>2017-12-18T13:26:11Z</time>
      </trkpt>
      <trkpt lat="38.2883530" lon="-0.6963710">
        <ele>112.2</ele>
        <time>2017-12-18T13:26:12Z</time>
      </trkpt>
      <trkpt lat="38.2883740" lon="-0.6963220">
        <ele>112.2</ele>
        <time>2017-12-18T13:26:13Z</time>
      </trkpt>
      <trkpt lat="38.2883940" lon="-0.6962750">
        <ele>112.2</ele>
        <time>2017-12-18T13:26:14Z</time>
      </trkpt>
      <trkpt lat="38.2884170" lon="-0.6962290">
        <ele>112.2</ele>
        <time>2017-12-18T13:26:15Z</time>
      </trkpt>
      <trkpt lat="38.2884390" lon="-0.6961840">
        <ele>115.2</ele>
        <time>2017-12-18T13:26:16Z</time>
      </trkpt>
      <trkpt lat="38.2884610" lon="-0.6961350">
        <ele>115.2</ele>
        <time>2017-12-18T13:26:17Z</time>
      </trkpt>
      <trkpt lat="38.2884870" lon="-0.6960870">
        <ele>116.1</ele>
        <time>2017-12-18T13:26:18Z</time>
      </trkpt>
      <trkpt lat="38.2885140" lon="-0.6960390">
        <ele>116.1</ele>
        <time>2017-12-18T13:26:19Z</time>
      </trkpt>
      <trkpt lat="38.2885460" lon="-0.6959910">
        <ele>116.1</ele>
        <time>2017-12-18T13:26:20Z</time>
      </trkpt>
      <trkpt lat="38.2885770" lon="-0.6959420">
        <ele>116.1</ele>
        <time>2017-12-18T13:26:21Z</time>
      </trkpt>
      <trkpt lat="38.2886110" lon="-0.6958910">
        <ele>117.2</ele>
        <time>2017-12-18T13:26:22Z</time>
      </trkpt>
      <trkpt lat="38.2886460" lon="-0.6958430">
        <ele>117.2</ele>
        <time>2017-12-18T13:26:23Z</time>
      </trkpt>
      <trkpt lat="38.2886830" lon="-0.6957970">
        <ele>117.2</ele>
        <time>2017-12-18T13:26:24Z</time>
      </trkpt>
      <trkpt lat="38.2887190" lon="-0.6957530">
        <ele>117.2</ele>
        <time>2017-12-18T13:26:25Z</time>
      </trkpt>
      <trkpt lat="38.2887570" lon="-0.6957130">
        <ele>118.1</ele>
        <time>2017-12-18T13:26:26Z</time>
      </trkpt>
      <trkpt lat="38.2887960" lon="-0.6956760">
        <ele>118.1</ele>
        <time>2017-12-18T13:26:27Z</time>
      </trkpt>
      <trkpt lat="38.2888360" lon="-0.6956400">
        <ele>119.2</ele>
        <time>2017-12-18T13:26:28Z</time>
      </trkpt>
      <trkpt lat="38.2888760" lon="-0.6956050">
        <ele>119.2</ele>
        <time>2017-12-18T13:26:29Z</time>
      </trkpt>
      <trkpt lat="38.2889190" lon="-0.6955740">
        <ele>119.2</ele>
        <time>2017-12-18T13:26:30Z</time>
      </trkpt>
      <trkpt lat="38.2889640" lon="-0.6955440">
        <ele>119.2</ele>
        <time>2017-12-18T13:26:31Z</time>
      </trkpt>
      <trkpt lat="38.2890100" lon="-0.6955170">
        <ele>119.2</ele>
        <time>2017-12-18T13:26:32Z</time>
      </trkpt>
      <trkpt lat="38.2890570" lon="-0.6954930">
        <ele>119.2</ele>
        <time>2017-12-18T13:26:33Z</time>
      </trkpt>
      <trkpt lat="38.2891040" lon="-0.6954680">
        <ele>119.2</ele>
        <time>2017-12-18T13:26:34Z</time>
      </trkpt>
      <trkpt lat="38.2891530" lon="-0.6954430">
        <ele>119.2</ele>
        <time>2017-12-18T13:26:35Z</time>
      </trkpt>
      <trkpt lat="38.2892020" lon="-0.6954190">
        <ele>120.1</ele>
        <time>2017-12-18T13:26:36Z</time>
      </trkpt>
      <trkpt lat="38.2892500" lon="-0.6953960">
        <ele>120.1</ele>
        <time>2017-12-18T13:26:37Z</time>
      </trkpt>
      <trkpt lat="38.2892970" lon="-0.6953720">
        <ele>120.1</ele>
        <time>2017-12-18T13:26:38Z</time>
      </trkpt>
      <trkpt lat="38.2893430" lon="-0.6953470">
        <ele>120.1</ele>
        <time>2017-12-18T13:26:39Z</time>
      </trkpt>
      <trkpt lat="38.2893890" lon="-0.6953190">
        <ele>120.1</ele>
        <time>2017-12-18T13:26:40Z</time>
      </trkpt>
      <trkpt lat="38.2894360" lon="-0.6952910">
        <ele>120.1</ele>
        <time>2017-12-18T13:26:41Z</time>
      </trkpt>
      <trkpt lat="38.2894820" lon="-0.6952630">
        <ele>120.1</ele>
        <time>2017-12-18T13:26:42Z</time>
      </trkpt>
      <trkpt lat="38.2895290" lon="-0.6952350">
        <ele>120.1</ele>
        <time>2017-12-18T13:26:43Z</time>
      </trkpt>
      <trkpt lat="38.2895760" lon="-0.6952070">
        <ele>120.1</ele>
        <time>2017-12-18T13:26:44Z</time>
      </trkpt>
      <trkpt lat="38.2896220" lon="-0.6951780">
        <ele>120.1</ele>
        <time>2017-12-18T13:26:45Z</time>
      </trkpt>
      <trkpt lat="38.2896690" lon="-0.6951500">
        <ele>120.1</ele>
        <time>2017-12-18T13:26:46Z</time>
      </trkpt>
      <trkpt lat="38.2897150" lon="-0.6951230">
        <ele>120.1</ele>
        <time>2017-12-18T13:26:47Z</time>
      </trkpt>
      <trkpt lat="38.2897600" lon="-0.6950950">
        <ele>120.1</ele>
        <time>2017-12-18T13:26:48Z</time>
      </trkpt>
      <trkpt lat="38.2898060" lon="-0.6950700">
        <ele>120.1</ele>
        <time>2017-12-18T13:26:49Z</time>
      </trkpt>
      <trkpt lat="38.2898520" lon="-0.6950430">
        <ele>120.1</ele>
        <time>2017-12-18T13:26:50Z</time>
      </trkpt>
      <trkpt lat="38.2898980" lon="-0.6950170">
        <ele>120.1</ele>
        <time>2017-12-18T13:26:51Z</time>
      </trkpt>
      <trkpt lat="38.2899440" lon="-0.6949890">
        <ele>122.1</ele>
        <time>2017-12-18T13:26:52Z</time>
      </trkpt>
      <trkpt lat="38.2899890" lon="-0.6949600">
        <ele>122.1</ele>
        <time>2017-12-18T13:26:53Z</time>
      </trkpt>
      <trkpt lat="38.2900340" lon="-0.6949300">
        <ele>122.1</ele>
        <time>2017-12-18T13:26:54Z</time>
      </trkpt>
      <trkpt lat="38.2900820" lon="-0.6949020">
        <ele>122.1</ele>
        <time>2017-12-18T13:26:55Z</time>
      </trkpt>
      <trkpt lat="38.2901300" lon="-0.6948740">
        <ele>122.1</ele>
        <time>2017-12-18T13:26:56Z</time>
      </trkpt>
      <trkpt lat="38.2901780" lon="-0.6948440">
        <ele>122.1</ele>
        <time>2017-12-18T13:26:57Z</time>
      </trkpt>
      <trkpt lat="38.2902260" lon="-0.6948120">
        <ele>122.1</ele>
        <time>2017-12-18T13:26:58Z</time>
      </trkpt>
      <trkpt lat="38.2902740" lon="-0.6947780">
        <ele>122.1</ele>
        <time>2017-12-18T13:26:59Z</time>
      </trkpt>
      <trkpt lat="38.2903210" lon="-0.6947430">
        <ele>122.1</ele>
        <time>2017-12-18T13:27:00Z</time>
      </trkpt>
      <trkpt lat="38.2903670" lon="-0.6947060">
        <ele>122.1</ele>
        <time>2017-12-18T13:27:01Z</time>
      </trkpt>
      <trkpt lat="38.2904110" lon="-0.6946690">
        <ele>122.1</ele>
        <time>2017-12-18T13:27:02Z</time>
      </trkpt>
      <trkpt lat="38.2904560" lon="-0.6946340">
        <ele>122.1</ele>
        <time>2017-12-18T13:27:03Z</time>
      </trkpt>
      <trkpt lat="38.2904990" lon="-0.6945960">
        <ele>123.1</ele>
        <time>2017-12-18T13:27:04Z</time>
      </trkpt>
      <trkpt lat="38.2905380" lon="-0.6945570">
        <ele>123.1</ele>
        <time>2017-12-18T13:27:05Z</time>
      </trkpt>
      <trkpt lat="38.2905760" lon="-0.6945170">
        <ele>124.2</ele>
        <time>2017-12-18T13:27:06Z</time>
      </trkpt>
      <trkpt lat="38.2906140" lon="-0.6944790">
        <ele>124.2</ele>
        <time>2017-12-18T13:27:07Z</time>
      </trkpt>
      <trkpt lat="38.2906510" lon="-0.6944420">
        <ele>125.1</ele>
        <time>2017-12-18T13:27:08Z</time>
      </trkpt>
      <trkpt lat="38.2906870" lon="-0.6944050">
        <ele>125.1</ele>
        <time>2017-12-18T13:27:09Z</time>
      </trkpt>
      <trkpt lat="38.2907230" lon="-0.6943670">
        <ele>125.1</ele>
        <time>2017-12-18T13:27:10Z</time>
      </trkpt>
      <trkpt lat="38.2907580" lon="-0.6943310">
        <ele>125.1</ele>
        <time>2017-12-18T13:27:11Z</time>
      </trkpt>
      <trkpt lat="38.2907940" lon="-0.6942990">
        <ele>127.1</ele>
        <time>2017-12-18T13:27:12Z</time>
      </trkpt>
      <trkpt lat="38.2908280" lon="-0.6942670">
        <ele>127.1</ele>
        <time>2017-12-18T13:27:13Z</time>
      </trkpt>
      <trkpt lat="38.2908600" lon="-0.6942360">
        <ele>127.1</ele>
        <time>2017-12-18T13:27:14Z</time>
      </trkpt>
      <trkpt lat="38.2908910" lon="-0.6942030">
        <ele>127.1</ele>
        <time>2017-12-18T13:27:15Z</time>
      </trkpt>
      <trkpt lat="38.2909230" lon="-0.6941710">
        <ele>128.2</ele>
        <time>2017-12-18T13:27:16Z</time>
      </trkpt>
      <trkpt lat="38.2909570" lon="-0.6941390">
        <ele>128.2</ele>
        <time>2017-12-18T13:27:17Z</time>
      </trkpt>
      <trkpt lat="38.2909940" lon="-0.6941100">
        <ele>128.2</ele>
        <time>2017-12-18T13:27:18Z</time>
      </trkpt>
      <trkpt lat="38.2910320" lon="-0.6940820">
        <ele>128.2</ele>
        <time>2017-12-18T13:27:19Z</time>
      </trkpt>
      <trkpt lat="38.2910730" lon="-0.6940550">
        <ele>129.1</ele>
        <time>2017-12-18T13:27:20Z</time>
      </trkpt>
      <trkpt lat="38.2911150" lon="-0.6940270">
        <ele>129.1</ele>
        <time>2017-12-18T13:27:21Z</time>
      </trkpt>
      <trkpt lat="38.2911570" lon="-0.6939970">
        <ele>129.1</ele>
        <time>2017-12-18T13:27:22Z</time>
      </trkpt>
      <trkpt lat="38.2912020" lon="-0.6939650">
        <ele>129.1</ele>
        <time>2017-12-18T13:27:23Z</time>
      </trkpt>
      <trkpt lat="38.2912460" lon="-0.6939360">
        <ele>129.1</ele>
        <time>2017-12-18T13:27:24Z</time>
      </trkpt>
      <trkpt lat="38.2912920" lon="-0.6939080">
        <ele>129.1</ele>
        <time>2017-12-18T13:27:25Z</time>
      </trkpt>
      <trkpt lat="38.2913370" lon="-0.6938790">
        <ele>130.2</ele>
        <time>2017-12-18T13:27:26Z</time>
      </trkpt>
      <trkpt lat="38.2913830" lon="-0.6938490">
        <ele>130.2</ele>
        <time>2017-12-18T13:27:27Z</time>
      </trkpt>
      <trkpt lat="38.2914270" lon="-0.6938190">
        <ele>130.2</ele>
        <time>2017-12-18T13:27:28Z</time>
      </trkpt>
      <trkpt lat="38.2914720" lon="-0.6937880">
        <ele>130.2</ele>
        <time>2017-12-18T13:27:29Z</time>
      </trkpt>
      <trkpt lat="38.2915170" lon="-0.6937570">
        <ele>130.2</ele>
        <time>2017-12-18T13:27:30Z</time>
      </trkpt>
      <trkpt lat="38.2915640" lon="-0.6937270">
        <ele>130.2</ele>
        <time>2017-12-18T13:27:31Z</time>
      </trkpt>
      <trkpt lat="38.2916120" lon="-0.6936960">
        <ele>130.2</ele>
        <time>2017-12-18T13:27:32Z</time>
      </trkpt>
      <trkpt lat="38.2916590" lon="-0.6936650">
        <ele>130.2</ele>
        <time>2017-12-18T13:27:33Z</time>
      </trkpt>
      <trkpt lat="38.2917060" lon="-0.6936340">
        <ele>131.2</ele>
        <time>2017-12-18T13:27:34Z</time>
      </trkpt>
      <trkpt lat="38.2917540" lon="-0.6936030">
        <ele>131.2</ele>
        <time>2017-12-18T13:27:35Z</time>
      </trkpt>
      <trkpt lat="38.2918020" lon="-0.6935730">
        <ele>131.2</ele>
        <time>2017-12-18T13:27:36Z</time>
      </trkpt>
      <trkpt lat="38.2918490" lon="-0.6935430">
        <ele>131.2</ele>
        <time>2017-12-18T13:27:37Z</time>
      </trkpt>
      <trkpt lat="38.2918960" lon="-0.6935130">
        <ele>132.1</ele>
        <time>2017-12-18T13:27:38Z</time>
      </trkpt>
      <trkpt lat="38.2919440" lon="-0.6934820">
        <ele>132.1</ele>
        <time>2017-12-18T13:27:39Z</time>
      </trkpt>
      <trkpt lat="38.2919910" lon="-0.6934500">
        <ele>132.1</ele>
        <time>2017-12-18T13:27:40Z</time>
      </trkpt>
      <trkpt lat="38.2920390" lon="-0.6934190">
        <ele>132.1</ele>
        <time>2017-12-18T13:27:41Z</time>
      </trkpt>
      <trkpt lat="38.2920880" lon="-0.6933890">
        <ele>132.1</ele>
        <time>2017-12-18T13:27:42Z</time>
      </trkpt>
      <trkpt lat="38.2921380" lon="-0.6933600">
        <ele>132.1</ele>
        <time>2017-12-18T13:27:43Z</time>
      </trkpt>
      <trkpt lat="38.2921880" lon="-0.6933320">
        <ele>132.1</ele>
        <time>2017-12-18T13:27:44Z</time>
      </trkpt>
      <trkpt lat="38.2922380" lon="-0.6933030">
        <ele>132.1</ele>
        <time>2017-12-18T13:27:45Z</time>
      </trkpt>
      <trkpt lat="38.2922890" lon="-0.6932800">
        <ele>132.1</ele>
        <time>2017-12-18T13:27:46Z</time>
      </trkpt>
      <trkpt lat="38.2923400" lon="-0.6932570">
        <ele>132.1</ele>
        <time>2017-12-18T13:27:47Z</time>
      </trkpt>
      <trkpt lat="38.2923920" lon="-0.6932340">
        <ele>132.1</ele>
        <time>2017-12-18T13:27:48Z</time>
      </trkpt>
      <trkpt lat="38.2924440" lon="-0.6932110">
        <ele>132.1</ele>
        <time>2017-12-18T13:27:49Z</time>
      </trkpt>
      <trkpt lat="38.2924970" lon="-0.6931860">
        <ele>133.2</ele>
        <time>2017-12-18T13:27:50Z</time>
      </trkpt>
      <trkpt lat="38.2925530" lon="-0.6931640">
        <ele>133.2</ele>
        <time>2017-12-18T13:27:51Z</time>
      </trkpt>
      <trkpt lat="38.2926120" lon="-0.6931420">
        <ele>133.2</ele>
        <time>2017-12-18T13:27:52Z</time>
      </trkpt>
      <trkpt lat="38.2926730" lon="-0.6931190">
        <ele>133.2</ele>
        <time>2017-12-18T13:27:53Z</time>
      </trkpt>
      <trkpt lat="38.2927380" lon="-0.6930970">
        <ele>132.1</ele>
        <time>2017-12-18T13:27:54Z</time>
      </trkpt>
      <trkpt lat="38.2928080" lon="-0.6930780">
        <ele>132.1</ele>
        <time>2017-12-18T13:27:55Z</time>
      </trkpt>
      <trkpt lat="38.2928810" lon="-0.6930580">
        <ele>132.1</ele>
        <time>2017-12-18T13:27:56Z</time>
      </trkpt>
      <trkpt lat="38.2929550" lon="-0.6930360">
        <ele>132.1</ele>
        <time>2017-12-18T13:27:57Z</time>
      </trkpt>
      <trkpt lat="38.2930320" lon="-0.6930130">
        <ele>131.2</ele>
        <time>2017-12-18T13:27:58Z</time>
      </trkpt>
      <trkpt lat="38.2931080" lon="-0.6929910">
        <ele>131.2</ele>
        <time>2017-12-18T13:27:59Z</time>
      </trkpt>
      <trkpt lat="38.2931850" lon="-0.6929700">
        <ele>131.2</ele>
        <time>2017-12-18T13:28:00Z</time>
      </trkpt>
      <trkpt lat="38.2932610" lon="-0.6929490">
        <ele>131.2</ele>
        <time>2017-12-18T13:28:01Z</time>
      </trkpt>
      <trkpt lat="38.2933360" lon="-0.6929280">
        <ele>131.2</ele>
        <time>2017-12-18T13:28:02Z</time>
      </trkpt>
      <trkpt lat="38.2934100" lon="-0.6929080">
        <ele>131.2</ele>
        <time>2017-12-18T13:28:03Z</time>
      </trkpt>
      <trkpt lat="38.2934820" lon="-0.6928870">
        <ele>131.2</ele>
        <time>2017-12-18T13:28:04Z</time>
      </trkpt>
      <trkpt lat="38.2935540" lon="-0.6928650">
        <ele>131.2</ele>
        <time>2017-12-18T13:28:05Z</time>
      </trkpt>
      <trkpt lat="38.2936100" lon="-0.6928270">
        <ele>131.2</ele>
        <time>2017-12-18T13:28:06Z</time>
      </trkpt>
      <trkpt lat="38.2936650" lon="-0.6928010">
        <ele>131.2</ele>
        <time>2017-12-18T13:28:07Z</time>
      </trkpt>
      <trkpt lat="38.2937230" lon="-0.6927720">
        <ele>131.2</ele>
        <time>2017-12-18T13:28:08Z</time>
      </trkpt>
      <trkpt lat="38.2937770" lon="-0.6927430">
        <ele>131.2</ele>
        <time>2017-12-18T13:28:09Z</time>
      </trkpt>
      <trkpt lat="38.2938280" lon="-0.6927160">
        <ele>131.2</ele>
        <time>2017-12-18T13:28:10Z</time>
      </trkpt>
      <trkpt lat="38.2938740" lon="-0.6926870">
        <ele>131.2</ele>
        <time>2017-12-18T13:28:11Z</time>
      </trkpt>
      <trkpt lat="38.2939160" lon="-0.6926550">
        <ele>132.1</ele>
        <time>2017-12-18T13:28:12Z</time>
      </trkpt>
      <trkpt lat="38.2939520" lon="-0.6926220">
        <ele>132.1</ele>
        <time>2017-12-18T13:28:13Z</time>
      </trkpt>
      <trkpt lat="38.2939840" lon="-0.6925890">
        <ele>132.1</ele>
        <time>2017-12-18T13:28:14Z</time>
      </trkpt>
      <trkpt lat="38.2940160" lon="-0.6925590">
        <ele>132.1</ele>
        <time>2017-12-18T13:28:15Z</time>
      </trkpt>
      <trkpt lat="38.2940440" lon="-0.6925290">
        <ele>132.1</ele>
        <time>2017-12-18T13:28:16Z</time>
      </trkpt>
      <trkpt lat="38.2940730" lon="-0.6924980">
        <ele>132.1</ele>
        <time>2017-12-18T13:28:17Z</time>
      </trkpt>
      <trkpt lat="38.2941020" lon="-0.6924690">
        <ele>134.1</ele>
        <time>2017-12-18T13:28:18Z</time>
      </trkpt>
      <trkpt lat="38.2941300" lon="-0.6924410">
        <ele>134.1</ele>
        <time>2017-12-18T13:28:19Z</time>
      </trkpt>
      <trkpt lat="38.2941590" lon="-0.6924150">
        <ele>134.1</ele>
        <time>2017-12-18T13:28:20Z</time>
      </trkpt>
      <trkpt lat="38.2941890" lon="-0.6923900">
        <ele>134.1</ele>
        <time>2017-12-18T13:28:21Z</time>
      </trkpt>
      <trkpt lat="38.2942180" lon="-0.6923650">
        <ele>134.1</ele>
        <time>2017-12-18T13:28:22Z</time>
      </trkpt>
      <trkpt lat="38.2942470" lon="-0.6923420">
        <ele>134.1</ele>
        <time>2017-12-18T13:28:23Z</time>
      </trkpt>
      <trkpt lat="38.2942770" lon="-0.6923200">
        <ele>137.2</ele>
        <time>2017-12-18T13:28:24Z</time>
      </trkpt>
      <trkpt lat="38.2943070" lon="-0.6922980">
        <ele>137.2</ele>
        <time>2017-12-18T13:28:25Z</time>
      </trkpt>
      <trkpt lat="38.2943340" lon="-0.6922760">
        <ele>139.1</ele>
        <time>2017-12-18T13:28:26Z</time>
      </trkpt>
      <trkpt lat="38.2943630" lon="-0.6922590">
        <ele>139.1</ele>
        <time>2017-12-18T13:28:27Z</time>
      </trkpt>
      <trkpt lat="38.2943920" lon="-0.6922440">
        <ele>139.1</ele>
        <time>2017-12-18T13:28:28Z</time>
      </trkpt>
      <trkpt lat="38.2944230" lon="-0.6922280">
        <ele>139.1</ele>
        <time>2017-12-18T13:28:29Z</time>
      </trkpt>
      <trkpt lat="38.2944550" lon="-0.6922140">
        <ele>140.2</ele>
        <time>2017-12-18T13:28:30Z</time>
      </trkpt>
      <trkpt lat="38.2944860" lon="-0.6921990">
        <ele>140.2</ele>
        <time>2017-12-18T13:28:31Z</time>
      </trkpt>
      <trkpt lat="38.2945180" lon="-0.6921850">
        <ele>140.2</ele>
        <time>2017-12-18T13:28:32Z</time>
      </trkpt>
      <trkpt lat="38.2945490" lon="-0.6921700">
        <ele>140.2</ele>
        <time>2017-12-18T13:28:33Z</time>
      </trkpt>
      <trkpt lat="38.2945810" lon="-0.6921560">
        <ele>141.1</ele>
        <time>2017-12-18T13:28:34Z</time>
      </trkpt>
      <trkpt lat="38.2946140" lon="-0.6921410">
        <ele>141.1</ele>
        <time>2017-12-18T13:28:35Z</time>
      </trkpt>
      <trkpt lat="38.2946480" lon="-0.6921260">
        <ele>141.1</ele>
        <time>2017-12-18T13:28:36Z</time>
      </trkpt>
      <trkpt lat="38.2946830" lon="-0.6921100">
        <ele>141.1</ele>
        <time>2017-12-18T13:28:37Z</time>
      </trkpt>
      <trkpt lat="38.2947160" lon="-0.6920930">
        <ele>142.2</ele>
        <time>2017-12-18T13:28:38Z</time>
      </trkpt>
      <trkpt lat="38.2947510" lon="-0.6920750">
        <ele>142.2</ele>
        <time>2017-12-18T13:28:39Z</time>
      </trkpt>
      <trkpt lat="38.2947860" lon="-0.6920560">
        <ele>143.1</ele>
        <time>2017-12-18T13:28:40Z</time>
      </trkpt>
      <trkpt lat="38.2948240" lon="-0.6920370">
        <ele>143.1</ele>
        <time>2017-12-18T13:28:41Z</time>
      </trkpt>
      <trkpt lat="38.2948650" lon="-0.6920160">
        <ele>143.1</ele>
        <time>2017-12-18T13:28:42Z</time>
      </trkpt>
      <trkpt lat="38.2949050" lon="-0.6919960">
        <ele>143.1</ele>
        <time>2017-12-18T13:28:43Z</time>
      </trkpt>
      <trkpt lat="38.2949460" lon="-0.6919750">
        <ele>143.1</ele>
        <time>2017-12-18T13:28:44Z</time>
      </trkpt>
      <trkpt lat="38.2949850" lon="-0.6919550">
        <ele>143.1</ele>
        <time>2017-12-18T13:28:45Z</time>
      </trkpt>
      <trkpt lat="38.2950270" lon="-0.6919370">
        <ele>144.2</ele>
        <time>2017-12-18T13:28:46Z</time>
      </trkpt>
      <trkpt lat="38.2950680" lon="-0.6919190">
        <ele>144.2</ele>
        <time>2017-12-18T13:28:47Z</time>
      </trkpt>
      <trkpt lat="38.2951080" lon="-0.6919000">
        <ele>144.2</ele>
        <time>2017-12-18T13:28:48Z</time>
      </trkpt>
      <trkpt lat="38.2951480" lon="-0.6918790">
        <ele>144.2</ele>
        <time>2017-12-18T13:28:49Z</time>
      </trkpt>
      <trkpt lat="38.2951890" lon="-0.6918590">
        <ele>145.1</ele>
        <time>2017-12-18T13:28:50Z</time>
      </trkpt>
      <trkpt lat="38.2952290" lon="-0.6918370">
        <ele>145.1</ele>
        <time>2017-12-18T13:28:51Z</time>
      </trkpt>
      <trkpt lat="38.2952710" lon="-0.6918150">
        <ele>145.1</ele>
        <time>2017-12-18T13:28:52Z</time>
      </trkpt>
      <trkpt lat="38.2953130" lon="-0.6917920">
        <ele>145.1</ele>
        <time>2017-12-18T13:28:53Z</time>
      </trkpt>
      <trkpt lat="38.2953560" lon="-0.6917700">
        <ele>145.1</ele>
        <time>2017-12-18T13:28:54Z</time>
      </trkpt>
      <trkpt lat="38.2953990" lon="-0.6917460">
        <ele>145.1</ele>
        <time>2017-12-18T13:28:55Z</time>
      </trkpt>
      <trkpt lat="38.2954410" lon="-0.6917220">
        <ele>145.1</ele>
        <time>2017-12-18T13:28:56Z</time>
      </trkpt>
      <trkpt lat="38.2954850" lon="-0.6916980">
        <ele>145.1</ele>
        <time>2017-12-18T13:28:57Z</time>
      </trkpt>
      <trkpt lat="38.2955280" lon="-0.6916740">
        <ele>145.1</ele>
        <time>2017-12-18T13:28:58Z</time>
      </trkpt>
      <trkpt lat="38.2955720" lon="-0.6916510">
        <ele>145.1</ele>
        <time>2017-12-18T13:28:59Z</time>
      </trkpt>
      <trkpt lat="38.2956160" lon="-0.6916280">
        <ele>146.2</ele>
        <time>2017-12-18T13:29:00Z</time>
      </trkpt>
      <trkpt lat="38.2956590" lon="-0.6916050">
        <ele>146.2</ele>
        <time>2017-12-18T13:29:01Z</time>
      </trkpt>
      <trkpt lat="38.2957030" lon="-0.6915840">
        <ele>146.2</ele>
        <time>2017-12-18T13:29:02Z</time>
      </trkpt>
      <trkpt lat="38.2957480" lon="-0.6915640">
        <ele>146.2</ele>
        <time>2017-12-18T13:29:03Z</time>
      </trkpt>
      <trkpt lat="38.2957930" lon="-0.6915450">
        <ele>147.2</ele>
        <time>2017-12-18T13:29:04Z</time>
      </trkpt>
      <trkpt lat="38.2958390" lon="-0.6915260">
        <ele>147.2</ele>
        <time>2017-12-18T13:29:05Z</time>
      </trkpt>
      <trkpt lat="38.2958840" lon="-0.6915090">
        <ele>147.2</ele>
        <time>2017-12-18T13:29:06Z</time>
      </trkpt>
      <trkpt lat="38.2959300" lon="-0.6914910">
        <ele>147.2</ele>
        <time>2017-12-18T13:29:07Z</time>
      </trkpt>
      <trkpt lat="38.2959750" lon="-0.6914730">
        <ele>148.1</ele>
        <time>2017-12-18T13:29:08Z</time>
      </trkpt>
      <trkpt lat="38.2960210" lon="-0.6914550">
        <ele>148.1</ele>
        <time>2017-12-18T13:29:09Z</time>
      </trkpt>
      <trkpt lat="38.2960670" lon="-0.6914370">
        <ele>148.1</ele>
        <time>2017-12-18T13:29:10Z</time>
      </trkpt>
      <trkpt lat="38.2961140" lon="-0.6914180">
        <ele>148.1</ele>
        <time>2017-12-18T13:29:11Z</time>
      </trkpt>
      <trkpt lat="38.2961610" lon="-0.6913990">
        <ele>148.1</ele>
        <time>2017-12-18T13:29:12Z</time>
      </trkpt>
      <trkpt lat="38.2962070" lon="-0.6913800">
        <ele>148.1</ele>
        <time>2017-12-18T13:29:13Z</time>
      </trkpt>
      <trkpt lat="38.2962540" lon="-0.6913620">
        <ele>149.2</ele>
        <time>2017-12-18T13:29:14Z</time>
      </trkpt>
      <trkpt lat="38.2963010" lon="-0.6913440">
        <ele>149.2</ele>
        <time>2017-12-18T13:29:15Z</time>
      </trkpt>
      <trkpt lat="38.2963490" lon="-0.6913260">
        <ele>149.2</ele>
        <time>2017-12-18T13:29:16Z</time>
      </trkpt>
      <trkpt lat="38.2963960" lon="-0.6913090">
        <ele>149.2</ele>
        <time>2017-12-18T13:29:17Z</time>
      </trkpt>
      <trkpt lat="38.2964430" lon="-0.6912900">
        <ele>150.1</ele>
        <time>2017-12-18T13:29:18Z</time>
      </trkpt>
      <trkpt lat="38.2964900" lon="-0.6912710">
        <ele>150.1</ele>
        <time>2017-12-18T13:29:19Z</time>
      </trkpt>
      <trkpt lat="38.2965390" lon="-0.6912510">
        <ele>150.1</ele>
        <time>2017-12-18T13:29:20Z</time>
      </trkpt>
      <trkpt lat="38.2965890" lon="-0.6912310">
        <ele>150.1</ele>
        <time>2017-12-18T13:29:21Z</time>
      </trkpt>
      <trkpt lat="38.2966410" lon="-0.6912130">
        <ele>150.1</ele>
        <time>2017-12-18T13:29:22Z</time>
      </trkpt>
      <trkpt lat="38.2966940" lon="-0.6911970">
        <ele>150.1</ele>
        <time>2017-12-18T13:29:23Z</time>
      </trkpt>
      <trkpt lat="38.2967480" lon="-0.6911790">
        <ele>150.1</ele>
        <time>2017-12-18T13:29:24Z</time>
      </trkpt>
      <trkpt lat="38.2968010" lon="-0.6911610">
        <ele>150.1</ele>
        <time>2017-12-18T13:29:25Z</time>
      </trkpt>
      <trkpt lat="38.2968530" lon="-0.6911390">
        <ele>150.1</ele>
        <time>2017-12-18T13:29:26Z</time>
      </trkpt>
      <trkpt lat="38.2969050" lon="-0.6911200">
        <ele>150.1</ele>
        <time>2017-12-18T13:29:27Z</time>
      </trkpt>
      <trkpt lat="38.2969570" lon="-0.6911040">
        <ele>150.1</ele>
        <time>2017-12-18T13:29:28Z</time>
      </trkpt>
      <trkpt lat="38.2970060" lon="-0.6910890">
        <ele>150.1</ele>
        <time>2017-12-18T13:29:29Z</time>
      </trkpt>
      <trkpt lat="38.2970530" lon="-0.6910730">
        <ele>151.2</ele>
        <time>2017-12-18T13:29:30Z</time>
      </trkpt>
      <trkpt lat="38.2970970" lon="-0.6910570">
        <ele>151.2</ele>
        <time>2017-12-18T13:29:31Z</time>
      </trkpt>
      <trkpt lat="38.2971390" lon="-0.6910410">
        <ele>152.1</ele>
        <time>2017-12-18T13:29:32Z</time>
      </trkpt>
      <trkpt lat="38.2971820" lon="-0.6910250">
        <ele>152.1</ele>
        <time>2017-12-18T13:29:33Z</time>
      </trkpt>
      <trkpt lat="38.2972260" lon="-0.6910100">
        <ele>152.1</ele>
        <time>2017-12-18T13:29:34Z</time>
      </trkpt>
      <trkpt lat="38.2972690" lon="-0.6909940">
        <ele>152.1</ele>
        <time>2017-12-18T13:29:35Z</time>
      </trkpt>
      <trkpt lat="38.2973120" lon="-0.6909790">
        <ele>153.2</ele>
        <time>2017-12-18T13:29:36Z</time>
      </trkpt>
      <trkpt lat="38.2973550" lon="-0.6909650">
        <ele>153.2</ele>
        <time>2017-12-18T13:29:37Z</time>
      </trkpt>
      <trkpt lat="38.2973970" lon="-0.6909510">
        <ele>153.2</ele>
        <time>2017-12-18T13:29:38Z</time>
      </trkpt>
      <trkpt lat="38.2974420" lon="-0.6909340">
        <ele>153.2</ele>
        <time>2017-12-18T13:29:39Z</time>
      </trkpt>
      <trkpt lat="38.2974890" lon="-0.6909140">
        <ele>153.2</ele>
        <time>2017-12-18T13:29:40Z</time>
      </trkpt>
      <trkpt lat="38.2975360" lon="-0.6908930">
        <ele>153.2</ele>
        <time>2017-12-18T13:29:41Z</time>
      </trkpt>
      <trkpt lat="38.2975820" lon="-0.6908720">
        <ele>153.2</ele>
        <time>2017-12-18T13:29:42Z</time>
      </trkpt>
      <trkpt lat="38.2976270" lon="-0.6908530">
        <ele>153.2</ele>
        <time>2017-12-18T13:29:43Z</time>
      </trkpt>
      <trkpt lat="38.2976740" lon="-0.6908390">
        <ele>153.2</ele>
        <time>2017-12-18T13:29:44Z</time>
      </trkpt>
      <trkpt lat="38.2977290" lon="-0.6908340">
        <ele>153.2</ele>
        <time>2017-12-18T13:29:45Z</time>
      </trkpt>
      <trkpt lat="38.2977940" lon="-0.6908430">
        <ele>153.2</ele>
        <time>2017-12-18T13:29:46Z</time>
      </trkpt>
      <trkpt lat="38.2978600" lon="-0.6908600">
        <ele>153.2</ele>
        <time>2017-12-18T13:29:47Z</time>
      </trkpt>
      <trkpt lat="38.2979270" lon="-0.6908810">
        <ele>152.1</ele>
        <time>2017-12-18T13:29:48Z</time>
      </trkpt>
      <trkpt lat="38.2979980" lon="-0.6909000">
        <ele>152.1</ele>
        <time>2017-12-18T13:29:49Z</time>
      </trkpt>
      <trkpt lat="38.2980730" lon="-0.6909110">
        <ele>151.2</ele>
        <time>2017-12-18T13:29:50Z</time>
      </trkpt>
      <trkpt lat="38.2981520" lon="-0.6909080">
        <ele>151.2</ele>
        <time>2017-12-18T13:29:51Z</time>
      </trkpt>
      <trkpt lat="38.2982370" lon="-0.6908980">
        <ele>150.1</ele>
        <time>2017-12-18T13:29:52Z</time>
      </trkpt>
      <trkpt lat="38.2983240" lon="-0.6908800">
        <ele>150.1</ele>
        <time>2017-12-18T13:29:53Z</time>
      </trkpt>
      <trkpt lat="38.2984140" lon="-0.6908570">
        <ele>149.2</ele>
        <time>2017-12-18T13:29:54Z</time>
      </trkpt>
      <trkpt lat="38.2985060" lon="-0.6908310">
        <ele>149.2</ele>
        <time>2017-12-18T13:29:55Z</time>
      </trkpt>
      <trkpt lat="38.2985990" lon="-0.6908070">
        <ele>148.1</ele>
        <time>2017-12-18T13:29:56Z</time>
      </trkpt>
      <trkpt lat="38.2986920" lon="-0.6907830">
        <ele>148.1</ele>
        <time>2017-12-18T13:29:57Z</time>
      </trkpt>
      <trkpt lat="38.2987830" lon="-0.6907580">
        <ele>147.2</ele>
        <time>2017-12-18T13:29:58Z</time>
      </trkpt>
      <trkpt lat="38.2988740" lon="-0.6907330">
        <ele>147.2</ele>
        <time>2017-12-18T13:29:59Z</time>
      </trkpt>
      <trkpt lat="38.2989620" lon="-0.6907090">
        <ele>146.2</ele>
        <time>2017-12-18T13:30:00Z</time>
      </trkpt>
      <trkpt lat="38.2990510" lon="-0.6906850">
        <ele>146.2</ele>
        <time>2017-12-18T13:30:01Z</time>
      </trkpt>
      <trkpt lat="38.2991390" lon="-0.6906590">
        <ele>146.2</ele>
        <time>2017-12-18T13:30:02Z</time>
      </trkpt>
      <trkpt lat="38.2992260" lon="-0.6906340">
        <ele>146.2</ele>
        <time>2017-12-18T13:30:03Z</time>
      </trkpt>
      <trkpt lat="38.2993120" lon="-0.6906060">
        <ele>146.2</ele>
        <time>2017-12-18T13:30:04Z</time>
      </trkpt>
      <trkpt lat="38.2993950" lon="-0.6905780">
        <ele>146.2</ele>
        <time>2017-12-18T13:30:05Z</time>
      </trkpt>
      <trkpt lat="38.2994760" lon="-0.6905460">
        <ele>146.2</ele>
        <time>2017-12-18T13:30:06Z</time>
      </trkpt>
      <trkpt lat="38.2995560" lon="-0.6905180">
        <ele>146.2</ele>
        <time>2017-12-18T13:30:07Z</time>
      </trkpt>
      <trkpt lat="38.2996320" lon="-0.6905030">
        <ele>146.2</ele>
        <time>2017-12-18T13:30:08Z</time>
      </trkpt>
      <trkpt lat="38.2997050" lon="-0.6904990">
        <ele>146.2</ele>
        <time>2017-12-18T13:30:09Z</time>
      </trkpt>
      <trkpt lat="38.2997740" lon="-0.6905000">
        <ele>146.2</ele>
        <time>2017-12-18T13:30:10Z</time>
      </trkpt>
      <trkpt lat="38.2998340" lon="-0.6905080">
        <ele>146.2</ele>
        <time>2017-12-18T13:30:11Z</time>
      </trkpt>
      <trkpt lat="38.2998920" lon="-0.6905130">
        <ele>146.2</ele>
        <time>2017-12-18T13:30:12Z</time>
      </trkpt>
      <trkpt lat="38.2999460" lon="-0.6905120">
        <ele>146.2</ele>
        <time>2017-12-18T13:30:13Z</time>
      </trkpt>
      <trkpt lat="38.3000000" lon="-0.6905080">
        <ele>146.2</ele>
        <time>2017-12-18T13:30:14Z</time>
      </trkpt>
      <trkpt lat="38.3000510" lon="-0.6904980">
        <ele>146.2</ele>
        <time>2017-12-18T13:30:15Z</time>
      </trkpt>
      <trkpt lat="38.3000980" lon="-0.6904830">
        <ele>150.1</ele>
        <time>2017-12-18T13:30:16Z</time>
      </trkpt>
      <trkpt lat="38.3001440" lon="-0.6904670">
        <ele>150.1</ele>
        <time>2017-12-18T13:30:17Z</time>
      </trkpt>
      <trkpt lat="38.3001880" lon="-0.6904500">
        <ele>151.2</ele>
        <time>2017-12-18T13:30:18Z</time>
      </trkpt>
      <trkpt lat="38.3002350" lon="-0.6904330">
        <ele>151.2</ele>
        <time>2017-12-18T13:30:19Z</time>
      </trkpt>
      <trkpt lat="38.3002840" lon="-0.6904160">
        <ele>151.2</ele>
        <time>2017-12-18T13:30:20Z</time>
      </trkpt>
      <trkpt lat="38.3003330" lon="-0.6903970">
        <ele>151.2</ele>
        <time>2017-12-18T13:30:21Z</time>
      </trkpt>
      <trkpt lat="38.3003850" lon="-0.6903830">
        <ele>152.1</ele>
        <time>2017-12-18T13:30:22Z</time>
      </trkpt>
      <trkpt lat="38.3004370" lon="-0.6903700">
        <ele>152.1</ele>
        <time>2017-12-18T13:30:23Z</time>
      </trkpt>
      <trkpt lat="38.3004920" lon="-0.6903620">
        <ele>152.1</ele>
        <time>2017-12-18T13:30:24Z</time>
      </trkpt>
      <trkpt lat="38.3005470" lon="-0.6903570">
        <ele>152.1</ele>
        <time>2017-12-18T13:30:25Z</time>
      </trkpt>
      <trkpt lat="38.3006040" lon="-0.6903540">
        <ele>152.1</ele>
        <time>2017-12-18T13:30:26Z</time>
      </trkpt>
      <trkpt lat="38.3006610" lon="-0.6903520">
        <ele>152.1</ele>
        <time>2017-12-18T13:30:27Z</time>
      </trkpt>
      <trkpt lat="38.3007190" lon="-0.6903520">
        <ele>152.1</ele>
        <time>2017-12-18T13:30:28Z</time>
      </trkpt>
      <trkpt lat="38.3007770" lon="-0.6903500">
        <ele>152.1</ele>
        <time>2017-12-18T13:30:29Z</time>
      </trkpt>
      <trkpt lat="38.3008350" lon="-0.6903490">
        <ele>152.1</ele>
        <time>2017-12-18T13:30:30Z</time>
      </trkpt>
      <trkpt lat="38.3008930" lon="-0.6903490">
        <ele>152.1</ele>
        <time>2017-12-18T13:30:31Z</time>
      </trkpt>
      <trkpt lat="38.3009510" lon="-0.6903560">
        <ele>152.1</ele>
        <time>2017-12-18T13:30:32Z</time>
      </trkpt>
      <trkpt lat="38.3010080" lon="-0.6903660">
        <ele>152.1</ele>
        <time>2017-12-18T13:30:33Z</time>
      </trkpt>
      <trkpt lat="38.3010680" lon="-0.6903770">
        <ele>152.1</ele>
        <time>2017-12-18T13:30:34Z</time>
      </trkpt>
      <trkpt lat="38.3011320" lon="-0.6903860">
        <ele>152.1</ele>
        <time>2017-12-18T13:30:35Z</time>
      </trkpt>
      <trkpt lat="38.3011970" lon="-0.6903860">
        <ele>152.1</ele>
        <time>2017-12-18T13:30:36Z</time>
      </trkpt>
      <trkpt lat="38.3012630" lon="-0.6903810">
        <ele>152.1</ele>
        <time>2017-12-18T13:30:37Z</time>
      </trkpt>
      <trkpt lat="38.3013300" lon="-0.6903730">
        <ele>152.1</ele>
        <time>2017-12-18T13:30:38Z</time>
      </trkpt>
      <trkpt lat="38.3013980" lon="-0.6903620">
        <ele>152.1</ele>
        <time>2017-12-18T13:30:39Z</time>
      </trkpt>
      <trkpt lat="38.3014650" lon="-0.6903530">
        <ele>153.2</ele>
        <time>2017-12-18T13:30:40Z</time>
      </trkpt>
      <trkpt lat="38.3015320" lon="-0.6903470">
        <ele>153.2</ele>
        <time>2017-12-18T13:30:41Z</time>
      </trkpt>
      <trkpt lat="38.3015990" lon="-0.6903460">
        <ele>153.2</ele>
        <time>2017-12-18T13:30:42Z</time>
      </trkpt>
      <trkpt lat="38.3016630" lon="-0.6903460">
        <ele>153.2</ele>
        <time>2017-12-18T13:30:43Z</time>
      </trkpt>
      <trkpt lat="38.3017260" lon="-0.6903500">
        <ele>153.2</ele>
        <time>2017-12-18T13:30:44Z</time>
      </trkpt>
      <trkpt lat="38.3017870" lon="-0.6903580">
        <ele>153.2</ele>
        <time>2017-12-18T13:30:45Z</time>
      </trkpt>
      <trkpt lat="38.3018470" lon="-0.6903660">
        <ele>153.2</ele>
        <time>2017-12-18T13:30:46Z</time>
      </trkpt>
      <trkpt lat="38.3019060" lon="-0.6903740">
        <ele>153.2</ele>
        <time>2017-12-18T13:30:47Z</time>
      </trkpt>
      <trkpt lat="38.3019660" lon="-0.6903820">
        <ele>153.2</ele>
        <time>2017-12-18T13:30:48Z</time>
      </trkpt>
      <trkpt lat="38.3020240" lon="-0.6903890">
        <ele>153.2</ele>
        <time>2017-12-18T13:30:49Z</time>
      </trkpt>
      <trkpt lat="38.3020820" lon="-0.6903910">
        <ele>153.2</ele>
        <time>2017-12-18T13:30:50Z</time>
      </trkpt>
      <trkpt lat="38.3021400" lon="-0.6903900">
        <ele>153.2</ele>
        <time>2017-12-18T13:30:51Z</time>
      </trkpt>
      <trkpt lat="38.3021960" lon="-0.6903880">
        <ele>153.2</ele>
        <time>2017-12-18T13:30:52Z</time>
      </trkpt>
      <trkpt lat="38.3022520" lon="-0.6903940">
        <ele>153.2</ele>
        <time>2017-12-18T13:30:53Z</time>
      </trkpt>
      <trkpt lat="38.3023090" lon="-0.6903950">
        <ele>156.2</ele>
        <time>2017-12-18T13:30:54Z</time>
      </trkpt>
      <trkpt lat="38.3023630" lon="-0.6903900">
        <ele>156.2</ele>
        <time>2017-12-18T13:30:55Z</time>
      </trkpt>
      <trkpt lat="38.3024160" lon="-0.6903850">
        <ele>156.2</ele>
        <time>2017-12-18T13:30:56Z</time>
      </trkpt>
      <trkpt lat="38.3024700" lon="-0.6903790">
        <ele>156.2</ele>
        <time>2017-12-18T13:30:57Z</time>
      </trkpt>
      <trkpt lat="38.3025260" lon="-0.6903720">
        <ele>157.1</ele>
        <time>2017-12-18T13:30:58Z</time>
      </trkpt>
      <trkpt lat="38.3025840" lon="-0.6903640">
        <ele>157.1</ele>
        <time>2017-12-18T13:30:59Z</time>
      </trkpt>
      <trkpt lat="38.3026460" lon="-0.6903560">
        <ele>157.1</ele>
        <time>2017-12-18T13:31:00Z</time>
      </trkpt>
      <trkpt lat="38.3027070" lon="-0.6903490">
        <ele>157.1</ele>
        <time>2017-12-18T13:31:01Z</time>
      </trkpt>
      <trkpt lat="38.3027680" lon="-0.6903430">
        <ele>157.1</ele>
        <time>2017-12-18T13:31:02Z</time>
      </trkpt>
      <trkpt lat="38.3028290" lon="-0.6903420">
        <ele>157.1</ele>
        <time>2017-12-18T13:31:03Z</time>
      </trkpt>
      <trkpt lat="38.3028890" lon="-0.6903440">
        <ele>157.1</ele>
        <time>2017-12-18T13:31:04Z</time>
      </trkpt>
      <trkpt lat="38.3029460" lon="-0.6903460">
        <ele>157.1</ele>
        <time>2017-12-18T13:31:05Z</time>
      </trkpt>
      <trkpt lat="38.3030010" lon="-0.6903540">
        <ele>157.1</ele>
        <time>2017-12-18T13:31:06Z</time>
      </trkpt>
      <trkpt lat="38.3030510" lon="-0.6903630">
        <ele>157.1</ele>
        <time>2017-12-18T13:31:07Z</time>
      </trkpt>
      <trkpt lat="38.3030970" lon="-0.6903690">
        <ele>158.2</ele>
        <time>2017-12-18T13:31:08Z</time>
      </trkpt>
      <trkpt lat="38.3031430" lon="-0.6903760">
        <ele>158.2</ele>
        <time>2017-12-18T13:31:09Z</time>
      </trkpt>
      <trkpt lat="38.3031850" lon="-0.6903820">
        <ele>159.1</ele>
        <time>2017-12-18T13:31:10Z</time>
      </trkpt>
      <trkpt lat="38.3032270" lon="-0.6903870">
        <ele>159.1</ele>
        <time>2017-12-18T13:31:11Z</time>
      </trkpt>
      <trkpt lat="38.3032670" lon="-0.6903900">
        <ele>160.2</ele>
        <time>2017-12-18T13:31:12Z</time>
      </trkpt>
      <trkpt lat="38.3033050" lon="-0.6903850">
        <ele>160.2</ele>
        <time>2017-12-18T13:31:13Z</time>
      </trkpt>
      <trkpt lat="38.3033430" lon="-0.6903830">
        <ele>161.1</ele>
        <time>2017-12-18T13:31:14Z</time>
      </trkpt>
      <trkpt lat="38.3033810" lon="-0.6903790">
        <ele>161.1</ele>
        <time>2017-12-18T13:31:15Z</time>
      </trkpt>
      <trkpt lat="38.3034190" lon="-0.6903730">
        <ele>162.2</ele>
        <time>2017-12-18T13:31:16Z</time>
      </trkpt>
      <trkpt lat="38.3034590" lon="-0.6903680">
        <ele>162.2</ele>
        <time>2017-12-18T13:31:17Z</time>
      </trkpt>
      <trkpt lat="38.3034950" lon="-0.6903600">
        <ele>163.1</ele>
        <time>2017-12-18T13:31:18Z</time>
      </trkpt>
      <trkpt lat="38.3035340" lon="-0.6903530">
        <ele>163.1</ele>
        <time>2017-12-18T13:31:19Z</time>
      </trkpt>
      <trkpt lat="38.3035740" lon="-0.6903460">
        <ele>164.1</ele>
        <time>2017-12-18T13:31:20Z</time>
      </trkpt>
      <trkpt lat="38.3036100" lon="-0.6903350">
        <ele>164.1</ele>
        <time>2017-12-18T13:31:21Z</time>
      </trkpt>
      <trkpt lat="38.3036470" lon="-0.6903260">
        <ele>165.2</ele>
        <time>2017-12-18T13:31:22Z</time>
      </trkpt>
      <trkpt lat="38.3036880" lon="-0.6903190">
        <ele>165.2</ele>
        <time>2017-12-18T13:31:23Z</time>
      </trkpt>
      <trkpt lat="38.3037310" lon="-0.6903140">
        <ele>165.2</ele>
        <time>2017-12-18T13:31:24Z</time>
      </trkpt>
      <trkpt lat="38.3037740" lon="-0.6903130">
        <ele>165.2</ele>
        <time>2017-12-18T13:31:25Z</time>
      </trkpt>
      <trkpt lat="38.3038170" lon="-0.6903110">
        <ele>165.2</ele>
        <time>2017-12-18T13:31:26Z</time>
      </trkpt>
      <trkpt lat="38.3038610" lon="-0.6903110">
        <ele>165.2</ele>
        <time>2017-12-18T13:31:27Z</time>
      </trkpt>
      <trkpt lat="38.3039050" lon="-0.6903100">
        <ele>165.2</ele>
        <time>2017-12-18T13:31:28Z</time>
      </trkpt>
      <trkpt lat="38.3039480" lon="-0.6903090">
        <ele>165.2</ele>
        <time>2017-12-18T13:31:29Z</time>
      </trkpt>
      <trkpt lat="38.3039900" lon="-0.6903090">
        <ele>165.2</ele>
        <time>2017-12-18T13:31:30Z</time>
      </trkpt>
      <trkpt lat="38.3040320" lon="-0.6903110">
        <ele>165.2</ele>
        <time>2017-12-18T13:31:31Z</time>
      </trkpt>
      <trkpt lat="38.3040720" lon="-0.6903180">
        <ele>166.1</ele>
        <time>2017-12-18T13:31:32Z</time>
      </trkpt>
      <trkpt lat="38.3041110" lon="-0.6903270">
        <ele>166.1</ele>
        <time>2017-12-18T13:31:33Z</time>
      </trkpt>
      <trkpt lat="38.3041480" lon="-0.6903350">
        <ele>166.1</ele>
        <time>2017-12-18T13:31:34Z</time>
      </trkpt>
      <trkpt lat="38.3041850" lon="-0.6903420">
        <ele>166.1</ele>
        <time>2017-12-18T13:31:35Z</time>
      </trkpt>
      <trkpt lat="38.3042240" lon="-0.6903470">
        <ele>167.2</ele>
        <time>2017-12-18T13:31:36Z</time>
      </trkpt>
      <trkpt lat="38.3042630" lon="-0.6903520">
        <ele>167.2</ele>
        <time>2017-12-18T13:31:37Z</time>
      </trkpt>
      <trkpt lat="38.3043020" lon="-0.6903570">
        <ele>168.1</ele>
        <time>2017-12-18T13:31:38Z</time>
      </trkpt>
      <trkpt lat="38.3043420" lon="-0.6903630">
        <ele>168.1</ele>
        <time>2017-12-18T13:31:39Z</time>
      </trkpt>
      <trkpt lat="38.3043840" lon="-0.6903710">
        <ele>168.1</ele>
        <time>2017-12-18T13:31:40Z</time>
      </trkpt>
      <trkpt lat="38.3044250" lon="-0.6903790">
        <ele>168.1</ele>
        <time>2017-12-18T13:31:41Z</time>
      </trkpt>
      <trkpt lat="38.3044680" lon="-0.6903840">
        <ele>169.2</ele>
        <time>2017-12-18T13:31:42Z</time>
      </trkpt>
      <trkpt lat="38.3045120" lon="-0.6903880">
        <ele>169.2</ele>
        <time>2017-12-18T13:31:43Z</time>
      </trkpt>
      <trkpt lat="38.3045570" lon="-0.6903920">
        <ele>169.2</ele>
        <time>2017-12-18T13:31:44Z</time>
      </trkpt>
      <trkpt lat="38.3046020" lon="-0.6903950">
        <ele>169.2</ele>
        <time>2017-12-18T13:31:45Z</time>
      </trkpt>
      <trkpt lat="38.3046470" lon="-0.6903970">
        <ele>169.2</ele>
        <time>2017-12-18T13:31:46Z</time>
      </trkpt>
      <trkpt lat="38.3046930" lon="-0.6903990">
        <ele>169.2</ele>
        <time>2017-12-18T13:31:47Z</time>
      </trkpt>
      <trkpt lat="38.3047390" lon="-0.6904020">
        <ele>169.2</ele>
        <time>2017-12-18T13:31:48Z</time>
      </trkpt>
      <trkpt lat="38.3047860" lon="-0.6904040">
        <ele>169.2</ele>
        <time>2017-12-18T13:31:49Z</time>
      </trkpt>
      <trkpt lat="38.3048330" lon="-0.6904070">
        <ele>170.1</ele>
        <time>2017-12-18T13:31:50Z</time>
      </trkpt>
      <trkpt lat="38.3048800" lon="-0.6904090">
        <ele>170.1</ele>
        <time>2017-12-18T13:31:51Z</time>
      </trkpt>
      <trkpt lat="38.3049280" lon="-0.6904110">
        <ele>170.1</ele>
        <time>2017-12-18T13:31:52Z</time>
      </trkpt>
      <trkpt lat="38.3049780" lon="-0.6904130">
        <ele>170.1</ele>
        <time>2017-12-18T13:31:53Z</time>
      </trkpt>
      <trkpt lat="38.3050310" lon="-0.6904160">
        <ele>170.1</ele>
        <time>2017-12-18T13:31:54Z</time>
      </trkpt>
      <trkpt lat="38.3050870" lon="-0.6904170">
        <ele>170.1</ele>
        <time>2017-12-18T13:31:55Z</time>
      </trkpt>
      <trkpt lat="38.3051440" lon="-0.6904150">
        <ele>170.1</ele>
        <time>2017-12-18T13:31:56Z</time>
      </trkpt>
      <trkpt lat="38.3052010" lon="-0.6904070">
        <ele>170.1</ele>
        <time>2017-12-18T13:31:57Z</time>
      </trkpt>
      <trkpt lat="38.3052530" lon="-0.6903900">
        <ele>171.1</ele>
        <time>2017-12-18T13:31:58Z</time>
      </trkpt>
      <trkpt lat="38.3053050" lon="-0.6903720">
        <ele>171.1</ele>
        <time>2017-12-18T13:31:59Z</time>
      </trkpt>
      <trkpt lat="38.3053540" lon="-0.6903590">
        <ele>171.1</ele>
        <time>2017-12-18T13:32:00Z</time>
      </trkpt>
      <trkpt lat="38.3054020" lon="-0.6903500">
        <ele>171.1</ele>
        <time>2017-12-18T13:32:01Z</time>
      </trkpt>
      <trkpt lat="38.3054470" lon="-0.6903420">
        <ele>172.2</ele>
        <time>2017-12-18T13:32:02Z</time>
      </trkpt>
      <trkpt lat="38.3054910" lon="-0.6903330">
        <ele>172.2</ele>
        <time>2017-12-18T13:32:03Z</time>
      </trkpt>
      <trkpt lat="38.3055290" lon="-0.6903170">
        <ele>172.2</ele>
        <time>2017-12-18T13:32:04Z</time>
      </trkpt>
      <trkpt lat="38.3055660" lon="-0.6903000">
        <ele>172.2</ele>
        <time>2017-12-18T13:32:05Z</time>
      </trkpt>
      <trkpt lat="38.3055990" lon="-0.6902760">
        <ele>173.1</ele>
        <time>2017-12-18T13:32:06Z</time>
      </trkpt>
      <trkpt lat="38.3056320" lon="-0.6902620">
        <ele>173.1</ele>
        <time>2017-12-18T13:32:07Z</time>
      </trkpt>
      <trkpt lat="38.3056640" lon="-0.6902480">
        <ele>174.2</ele>
        <time>2017-12-18T13:32:08Z</time>
      </trkpt>
      <trkpt lat="38.3056940" lon="-0.6902320">
        <ele>174.2</ele>
        <time>2017-12-18T13:32:09Z</time>
      </trkpt>
      <trkpt lat="38.3057290" lon="-0.6902200">
        <ele>174.2</ele>
        <time>2017-12-18T13:32:10Z</time>
      </trkpt>
      <trkpt lat="38.3057700" lon="-0.6902150">
        <ele>174.2</ele>
        <time>2017-12-18T13:32:11Z</time>
      </trkpt>
      <trkpt lat="38.3058100" lon="-0.6902120">
        <ele>175.1</ele>
        <time>2017-12-18T13:32:12Z</time>
      </trkpt>
      <trkpt lat="38.3058500" lon="-0.6902160">
        <ele>175.1</ele>
        <time>2017-12-18T13:32:13Z</time>
      </trkpt>
      <trkpt lat="38.3058880" lon="-0.6902280">
        <ele>175.1</ele>
        <time>2017-12-18T13:32:14Z</time>
      </trkpt>
      <trkpt lat="38.3059240" lon="-0.6902410">
        <ele>175.1</ele>
        <time>2017-12-18T13:32:15Z</time>
      </trkpt>
      <trkpt lat="38.3059600" lon="-0.6902520">
        <ele>175.1</ele>
        <time>2017-12-18T13:32:16Z</time>
      </trkpt>
      <trkpt lat="38.3059950" lon="-0.6902610">
        <ele>175.1</ele>
        <time>2017-12-18T13:32:17Z</time>
      </trkpt>
      <trkpt lat="38.3060310" lon="-0.6902670">
        <ele>175.1</ele>
        <time>2017-12-18T13:32:18Z</time>
      </trkpt>
      <trkpt lat="38.3060670" lon="-0.6902700">
        <ele>175.1</ele>
        <time>2017-12-18T13:32:19Z</time>
      </trkpt>
      <trkpt lat="38.3061030" lon="-0.6902740">
        <ele>176.2</ele>
        <time>2017-12-18T13:32:20Z</time>
      </trkpt>
      <trkpt lat="38.3061370" lon="-0.6902780">
        <ele>176.2</ele>
        <time>2017-12-18T13:32:21Z</time>
      </trkpt>
      <trkpt lat="38.3061720" lon="-0.6902870">
        <ele>177.1</ele>
        <time>2017-12-18T13:32:22Z</time>
      </trkpt>
      <trkpt lat="38.3062050" lon="-0.6902990">
        <ele>177.1</ele>
        <time>2017-12-18T13:32:23Z</time>
      </trkpt>
      <trkpt lat="38.3062370" lon="-0.6903140">
        <ele>177.1</ele>
        <time>2017-12-18T13:32:24Z</time>
      </trkpt>
      <trkpt lat="38.3062680" lon="-0.6903320">
        <ele>177.1</ele>
        <time>2017-12-18T13:32:25Z</time>
      </trkpt>
      <trkpt lat="38.3063000" lon="-0.6903530">
        <ele>177.1</ele>
        <time>2017-12-18T13:32:26Z</time>
      </trkpt>
      <trkpt lat="38.3063320" lon="-0.6903770">
        <ele>177.1</ele>
        <time>2017-12-18T13:32:27Z</time>
      </trkpt>
      <trkpt lat="38.3063640" lon="-0.6904040">
        <ele>179.1</ele>
        <time>2017-12-18T13:32:28Z</time>
      </trkpt>
      <trkpt lat="38.3063960" lon="-0.6904320">
        <ele>179.1</ele>
        <time>2017-12-18T13:32:29Z</time>
      </trkpt>
      <trkpt lat="38.3064280" lon="-0.6904620">
        <ele>180.1</ele>
        <time>2017-12-18T13:32:30Z</time>
      </trkpt>
      <trkpt lat="38.3064610" lon="-0.6904940">
        <ele>180.1</ele>
        <time>2017-12-18T13:32:31Z</time>
      </trkpt>
      <trkpt lat="38.3064950" lon="-0.6905270">
        <ele>180.1</ele>
        <time>2017-12-18T13:32:32Z</time>
      </trkpt>
      <trkpt lat="38.3065290" lon="-0.6905610">
        <ele>180.1</ele>
        <time>2017-12-18T13:32:33Z</time>
      </trkpt>
      <trkpt lat="38.3065640" lon="-0.6905930">
        <ele>180.1</ele>
        <time>2017-12-18T13:32:34Z</time>
      </trkpt>
      <trkpt lat="38.3066060" lon="-0.6906140">
        <ele>180.1</ele>
        <time>2017-12-18T13:32:35Z</time>
      </trkpt>
      <trkpt lat="38.3066480" lon="-0.6906200">
        <ele>180.1</ele>
        <time>2017-12-18T13:32:36Z</time>
      </trkpt>
      <trkpt lat="38.3066870" lon="-0.6906100">
        <ele>180.1</ele>
        <time>2017-12-18T13:32:37Z</time>
      </trkpt>
      <trkpt lat="38.3067240" lon="-0.6905960">
        <ele>181.2</ele>
        <time>2017-12-18T13:32:38Z</time>
      </trkpt>
      <trkpt lat="38.3067580" lon="-0.6905820">
        <ele>181.2</ele>
        <time>2017-12-18T13:32:39Z</time>
      </trkpt>
      <trkpt lat="38.3067900" lon="-0.6905720">
        <ele>182.1</ele>
        <time>2017-12-18T13:32:40Z</time>
      </trkpt>
      <trkpt lat="38.3068200" lon="-0.6905670">
        <ele>182.1</ele>
        <time>2017-12-18T13:32:41Z</time>
      </trkpt>
      <trkpt lat="38.3068490" lon="-0.6905710">
        <ele>182.1</ele>
        <time>2017-12-18T13:32:42Z</time>
      </trkpt>
      <trkpt lat="38.3068790" lon="-0.6905800">
        <ele>182.1</ele>
        <time>2017-12-18T13:32:43Z</time>
      </trkpt>
      <trkpt lat="38.3069120" lon="-0.6905960">
        <ele>182.1</ele>
        <time>2017-12-18T13:32:44Z</time>
      </trkpt>
      <trkpt lat="38.3069500" lon="-0.6906130">
        <ele>182.1</ele>
        <time>2017-12-18T13:32:45Z</time>
      </trkpt>
      <trkpt lat="38.3069920" lon="-0.6906300">
        <ele>182.1</ele>
        <time>2017-12-18T13:32:46Z</time>
      </trkpt>
      <trkpt lat="38.3070470" lon="-0.6906310">
        <ele>182.1</ele>
        <time>2017-12-18T13:32:47Z</time>
      </trkpt>
      <trkpt lat="38.3071030" lon="-0.6906120">
        <ele>182.1</ele>
        <time>2017-12-18T13:32:48Z</time>
      </trkpt>
      <trkpt lat="38.3071590" lon="-0.6905950">
        <ele>182.1</ele>
        <time>2017-12-18T13:32:49Z</time>
      </trkpt>
      <trkpt lat="38.3072180" lon="-0.6906090">
        <ele>181.2</ele>
        <time>2017-12-18T13:32:50Z</time>
      </trkpt>
      <trkpt lat="38.3072710" lon="-0.6906380">
        <ele>181.2</ele>
        <time>2017-12-18T13:32:51Z</time>
      </trkpt>
      <trkpt lat="38.3073080" lon="-0.6906840">
        <ele>180.1</ele>
        <time>2017-12-18T13:32:52Z</time>
      </trkpt>
      <trkpt lat="38.3073360" lon="-0.6907380">
        <ele>180.1</ele>
        <time>2017-12-18T13:32:53Z</time>
      </trkpt>
      <trkpt lat="38.3073540" lon="-0.6907860">
        <ele>180.1</ele>
        <time>2017-12-18T13:32:54Z</time>
      </trkpt>
      <trkpt lat="38.3073700" lon="-0.6908310">
        <ele>180.1</ele>
        <time>2017-12-18T13:32:55Z</time>
      </trkpt>
      <trkpt lat="38.3073890" lon="-0.6908710">
        <ele>181.2</ele>
        <time>2017-12-18T13:32:56Z</time>
      </trkpt>
      <trkpt lat="38.3074110" lon="-0.6909070">
        <ele>181.2</ele>
        <time>2017-12-18T13:32:57Z</time>
      </trkpt>
      <trkpt lat="38.3074370" lon="-0.6909420">
        <ele>182.1</ele>
        <time>2017-12-18T13:32:58Z</time>
      </trkpt>
      <trkpt lat="38.3074700" lon="-0.6909680">
        <ele>182.1</ele>
        <time>2017-12-18T13:32:59Z</time>
      </trkpt>
      <trkpt lat="38.3075070" lon="-0.6909840">
        <ele>182.1</ele>
        <time>2017-12-18T13:33:00Z</time>
      </trkpt>
      <trkpt lat="38.3075430" lon="-0.6909900">
        <ele>182.1</ele>
        <time>2017-12-18T13:33:01Z</time>
      </trkpt>
      <trkpt lat="38.3075790" lon="-0.6910000">
        <ele>183.2</ele>
        <time>2017-12-18T13:33:02Z</time>
      </trkpt>
      <trkpt lat="38.3076130" lon="-0.6910180">
        <ele>183.2</ele>
        <time>2017-12-18T13:33:03Z</time>
      </trkpt>
      <trkpt lat="38.3076450" lon="-0.6910410">
        <ele>183.2</ele>
        <time>2017-12-18T13:33:04Z</time>
      </trkpt>
      <trkpt lat="38.3076760" lon="-0.6910660">
        <ele>183.2</ele>
        <time>2017-12-18T13:33:05Z</time>
      </trkpt>
      <trkpt lat="38.3077020" lon="-0.6910960">
        <ele>184.1</ele>
        <time>2017-12-18T13:33:06Z</time>
      </trkpt>
      <trkpt lat="38.3077270" lon="-0.6911290">
        <ele>184.1</ele>
        <time>2017-12-18T13:33:07Z</time>
      </trkpt>
      <trkpt lat="38.3077520" lon="-0.6911610">
        <ele>184.1</ele>
        <time>2017-12-18T13:33:08Z</time>
      </trkpt>
      <trkpt lat="38.3077770" lon="-0.6911950">
        <ele>184.1</ele>
        <time>2017-12-18T13:33:09Z</time>
      </trkpt>
      <trkpt lat="38.3078010" lon="-0.6912320">
        <ele>185.2</ele>
        <time>2017-12-18T13:33:10Z</time>
      </trkpt>
      <trkpt lat="38.3078250" lon="-0.6912710">
        <ele>185.2</ele>
        <time>2017-12-18T13:33:11Z</time>
      </trkpt>
      <trkpt lat="38.3078480" lon="-0.6913120">
        <ele>186.1</ele>
        <time>2017-12-18T13:33:12Z</time>
      </trkpt>
      <trkpt lat="38.3078730" lon="-0.6913500">
        <ele>186.1</ele>
        <time>2017-12-18T13:33:13Z</time>
      </trkpt>
      <trkpt lat="38.3078970" lon="-0.6913870">
        <ele>187.1</ele>
        <time>2017-12-18T13:33:14Z</time>
      </trkpt>
      <trkpt lat="38.3079240" lon="-0.6914190">
        <ele>187.1</ele>
        <time>2017-12-18T13:33:15Z</time>
      </trkpt>
      <trkpt lat="38.3079500" lon="-0.6914510">
        <ele>187.1</ele>
        <time>2017-12-18T13:33:16Z</time>
      </trkpt>
      <trkpt lat="38.3079770" lon="-0.6914810">
        <ele>187.1</ele>
        <time>2017-12-18T13:33:17Z</time>
      </trkpt>
      <trkpt lat="38.3080060" lon="-0.6915080">
        <ele>188.2</ele>
        <time>2017-12-18T13:33:18Z</time>
      </trkpt>
      <trkpt lat="38.3080390" lon="-0.6915340">
        <ele>188.2</ele>
        <time>2017-12-18T13:33:19Z</time>
      </trkpt>
      <trkpt lat="38.3080750" lon="-0.6915550">
        <ele>188.2</ele>
        <time>2017-12-18T13:33:20Z</time>
      </trkpt>
      <trkpt lat="38.3081150" lon="-0.6915730">
        <ele>188.2</ele>
        <time>2017-12-18T13:33:21Z</time>
      </trkpt>
      <trkpt lat="38.3081580" lon="-0.6915800">
        <ele>188.2</ele>
        <time>2017-12-18T13:33:22Z</time>
      </trkpt>
      <trkpt lat="38.3082030" lon="-0.6915740">
        <ele>188.2</ele>
        <time>2017-12-18T13:33:23Z</time>
      </trkpt>
      <trkpt lat="38.3082480" lon="-0.6915660">
        <ele>187.1</ele>
        <time>2017-12-18T13:33:24Z</time>
      </trkpt>
      <trkpt lat="38.3082890" lon="-0.6915610">
        <ele>187.1</ele>
        <time>2017-12-18T13:33:25Z</time>
      </trkpt>
      <trkpt lat="38.3083250" lon="-0.6915560">
        <ele>187.1</ele>
        <time>2017-12-18T13:33:26Z</time>
      </trkpt>
      <trkpt lat="38.3083580" lon="-0.6915560">
        <ele>187.1</ele>
        <time>2017-12-18T13:33:27Z</time>
      </trkpt>
      <trkpt lat="38.3083890" lon="-0.6915590">
        <ele>187.1</ele>
        <time>2017-12-18T13:33:28Z</time>
      </trkpt>
      <trkpt lat="38.3084210" lon="-0.6915650">
        <ele>187.1</ele>
        <time>2017-12-18T13:33:29Z</time>
      </trkpt>
      <trkpt lat="38.3084520" lon="-0.6915740">
        <ele>187.1</ele>
        <time>2017-12-18T13:33:30Z</time>
      </trkpt>
      <trkpt lat="38.3084840" lon="-0.6915840">
        <ele>187.1</ele>
        <time>2017-12-18T13:33:31Z</time>
      </trkpt>
      <trkpt lat="38.3085140" lon="-0.6915960">
        <ele>190.2</ele>
        <time>2017-12-18T13:33:32Z</time>
      </trkpt>
      <trkpt lat="38.3085420" lon="-0.6916080">
        <ele>190.2</ele>
        <time>2017-12-18T13:33:33Z</time>
      </trkpt>
      <trkpt lat="38.3085680" lon="-0.6916220">
        <ele>191.1</ele>
        <time>2017-12-18T13:33:34Z</time>
      </trkpt>
      <trkpt lat="38.3085940" lon="-0.6916360">
        <ele>191.1</ele>
        <time>2017-12-18T13:33:35Z</time>
      </trkpt>
      <trkpt lat="38.3086190" lon="-0.6916460">
        <ele>192.2</ele>
        <time>2017-12-18T13:33:36Z</time>
      </trkpt>
      <trkpt lat="38.3086440" lon="-0.6916550">
        <ele>192.2</ele>
        <time>2017-12-18T13:33:37Z</time>
      </trkpt>
      <trkpt lat="38.3086700" lon="-0.6916610">
        <ele>192.2</ele>
        <time>2017-12-18T13:33:38Z</time>
      </trkpt>
      <trkpt lat="38.3086980" lon="-0.6916660">
        <ele>192.2</ele>
        <time>2017-12-18T13:33:39Z</time>
      </trkpt>
      <trkpt lat="38.3087310" lon="-0.6916730">
        <ele>193.1</ele>
        <time>2017-12-18T13:33:40Z</time>
      </trkpt>
      <trkpt lat="38.3087640" lon="-0.6916770">
        <ele>193.1</ele>
        <time>2017-12-18T13:33:41Z</time>
      </trkpt>
      <trkpt lat="38.3087990" lon="-0.6916760">
        <ele>193.1</ele>
        <time>2017-12-18T13:33:42Z</time>
      </trkpt>
      <trkpt lat="38.3088360" lon="-0.6916730">
        <ele>193.1</ele>
        <time>2017-12-18T13:33:43Z</time>
      </trkpt>
      <trkpt lat="38.3088750" lon="-0.6916670">
        <ele>193.1</ele>
        <time>2017-12-18T13:33:44Z</time>
      </trkpt>
      <trkpt lat="38.3089160" lon="-0.6916590">
        <ele>193.1</ele>
        <time>2017-12-18T13:33:45Z</time>
      </trkpt>
      <trkpt lat="38.3089570" lon="-0.6916520">
        <ele>193.1</ele>
        <time>2017-12-18T13:33:46Z</time>
      </trkpt>
      <trkpt lat="38.3089970" lon="-0.6916430">
        <ele>193.1</ele>
        <time>2017-12-18T13:33:47Z</time>
      </trkpt>
      <trkpt lat="38.3090350" lon="-0.6916320">
        <ele>196.1</ele>
        <time>2017-12-18T13:33:48Z</time>
      </trkpt>
      <trkpt lat="38.3090740" lon="-0.6916200">
        <ele>196.1</ele>
        <time>2017-12-18T13:33:49Z</time>
      </trkpt>
      <trkpt lat="38.3091120" lon="-0.6916090">
        <ele>196.1</ele>
        <time>2017-12-18T13:33:50Z</time>
      </trkpt>
      <trkpt lat="38.3091470" lon="-0.6915950">
        <ele>196.1</ele>
        <time>2017-12-18T13:33:51Z</time>
      </trkpt>
      <trkpt lat="38.3091820" lon="-0.6915820">
        <ele>197.2</ele>
        <time>2017-12-18T13:33:52Z</time>
      </trkpt>
      <trkpt lat="38.3092180" lon="-0.6915690">
        <ele>197.2</ele>
        <time>2017-12-18T13:33:53Z</time>
      </trkpt>
      <trkpt lat="38.3092540" lon="-0.6915590">
        <ele>197.2</ele>
        <time>2017-12-18T13:33:54Z</time>
      </trkpt>
      <trkpt lat="38.3092910" lon="-0.6915510">
        <ele>197.2</ele>
        <time>2017-12-18T13:33:55Z</time>
      </trkpt>
      <trkpt lat="38.3093290" lon="-0.6915460">
        <ele>197.2</ele>
        <time>2017-12-18T13:33:56Z</time>
      </trkpt>
      <trkpt lat="38.3093660" lon="-0.6915480">
        <ele>197.2</ele>
        <time>2017-12-18T13:33:57Z</time>
      </trkpt>
      <trkpt lat="38.3094020" lon="-0.6915540">
        <ele>197.2</ele>
        <time>2017-12-18T13:33:58Z</time>
      </trkpt>
      <trkpt lat="38.3094380" lon="-0.6915620">
        <ele>197.2</ele>
        <time>2017-12-18T13:33:59Z</time>
      </trkpt>
      <trkpt lat="38.3094730" lon="-0.6915720">
        <ele>198.1</ele>
        <time>2017-12-18T13:34:00Z</time>
      </trkpt>
      <trkpt lat="38.3095080" lon="-0.6915850">
        <ele>198.1</ele>
        <time>2017-12-18T13:34:01Z</time>
      </trkpt>
      <trkpt lat="38.3095410" lon="-0.6916020">
        <ele>199.2</ele>
        <time>2017-12-18T13:34:02Z</time>
      </trkpt>
      <trkpt lat="38.3095720" lon="-0.6916170">
        <ele>199.2</ele>
        <time>2017-12-18T13:34:03Z</time>
      </trkpt>
      <trkpt lat="38.3096040" lon="-0.6916310">
        <ele>199.2</ele>
        <time>2017-12-18T13:34:04Z</time>
      </trkpt>
      <trkpt lat="38.3096380" lon="-0.6916470">
        <ele>199.2</ele>
        <time>2017-12-18T13:34:05Z</time>
      </trkpt>
      <trkpt lat="38.3096730" lon="-0.6916660">
        <ele>200.1</ele>
        <time>2017-12-18T13:34:06Z</time>
      </trkpt>
      <trkpt lat="38.3097070" lon="-0.6916910">
        <ele>200.1</ele>
        <time>2017-12-18T13:34:07Z</time>
      </trkpt>
      <trkpt lat="38.3097410" lon="-0.6917230">
        <ele>200.1</ele>
        <time>2017-12-18T13:34:08Z</time>
      </trkpt>
      <trkpt lat="38.3097750" lon="-0.6917610">
        <ele>200.1</ele>
        <time>2017-12-18T13:34:09Z</time>
      </trkpt>
      <trkpt lat="38.3098100" lon="-0.6918050">
        <ele>200.1</ele>
        <time>2017-12-18T13:34:10Z</time>
      </trkpt>
      <trkpt lat="38.3098480" lon="-0.6918520">
        <ele>200.1</ele>
        <time>2017-12-18T13:34:11Z</time>
      </trkpt>
      <trkpt lat="38.3098850" lon="-0.6919000">
        <ele>200.1</ele>
        <time>2017-12-18T13:34:12Z</time>
      </trkpt>
      <trkpt lat="38.3099240" lon="-0.6919460">
        <ele>200.1</ele>
        <time>2017-12-18T13:34:13Z</time>
      </trkpt>
      <trkpt lat="38.3099630" lon="-0.6919890">
        <ele>200.1</ele>
        <time>2017-12-18T13:34:14Z</time>
      </trkpt>
      <trkpt lat="38.3100030" lon="-0.6920300">
        <ele>200.1</ele>
        <time>2017-12-18T13:34:15Z</time>
      </trkpt>
      <trkpt lat="38.3100450" lon="-0.6920640">
        <ele>201.2</ele>
        <time>2017-12-18T13:34:16Z</time>
      </trkpt>
      <trkpt lat="38.3100900" lon="-0.6920890">
        <ele>201.2</ele>
        <time>2017-12-18T13:34:17Z</time>
      </trkpt>
      <trkpt lat="38.3101360" lon="-0.6921160">
        <ele>201.2</ele>
        <time>2017-12-18T13:34:18Z</time>
      </trkpt>
      <trkpt lat="38.3101790" lon="-0.6921440">
        <ele>201.2</ele>
        <time>2017-12-18T13:34:19Z</time>
      </trkpt>
      <trkpt lat="38.3102240" lon="-0.6921720">
        <ele>202.1</ele>
        <time>2017-12-18T13:34:20Z</time>
      </trkpt>
      <trkpt lat="38.3102670" lon="-0.6921980">
        <ele>202.1</ele>
        <time>2017-12-18T13:34:21Z</time>
      </trkpt>
      <trkpt lat="38.3103080" lon="-0.6922250">
        <ele>202.1</ele>
        <time>2017-12-18T13:34:22Z</time>
      </trkpt>
      <trkpt lat="38.3103450" lon="-0.6922580">
        <ele>202.1</ele>
        <time>2017-12-18T13:34:23Z</time>
      </trkpt>
      <trkpt lat="38.3103710" lon="-0.6923010">
        <ele>202.1</ele>
        <time>2017-12-18T13:34:24Z</time>
      </trkpt>
      <trkpt lat="38.3103880" lon="-0.6923470">
        <ele>202.1</ele>
        <time>2017-12-18T13:34:25Z</time>
      </trkpt>
      <trkpt lat="38.3103980" lon="-0.6923980">
        <ele>202.1</ele>
        <time>2017-12-18T13:34:26Z</time>
      </trkpt>
      <trkpt lat="38.3104050" lon="-0.6924460">
        <ele>202.1</ele>
        <time>2017-12-18T13:34:27Z</time>
      </trkpt>
      <trkpt lat="38.3104120" lon="-0.6924950">
        <ele>203.2</ele>
        <time>2017-12-18T13:34:28Z</time>
      </trkpt>
      <trkpt lat="38.3104140" lon="-0.6925430">
        <ele>203.2</ele>
        <time>2017-12-18T13:34:29Z</time>
      </trkpt>
      <trkpt lat="38.3104140" lon="-0.6925910">
        <ele>204.2</ele>
        <time>2017-12-18T13:34:30Z</time>
      </trkpt>
      <trkpt lat="38.3104180" lon="-0.6926370">
        <ele>204.2</ele>
        <time>2017-12-18T13:34:31Z</time>
      </trkpt>
      <trkpt lat="38.3104300" lon="-0.6926790">
        <ele>205.1</ele>
        <time>2017-12-18T13:34:32Z</time>
      </trkpt>
      <trkpt lat="38.3104480" lon="-0.6927160">
        <ele>205.1</ele>
        <time>2017-12-18T13:34:33Z</time>
      </trkpt>
      <trkpt lat="38.3104720" lon="-0.6927500">
        <ele>205.1</ele>
        <time>2017-12-18T13:34:34Z</time>
      </trkpt>
      <trkpt lat="38.3105040" lon="-0.6927770">
        <ele>205.1</ele>
        <time>2017-12-18T13:34:35Z</time>
      </trkpt>
      <trkpt lat="38.3105390" lon="-0.6927980">
        <ele>205.1</ele>
        <time>2017-12-18T13:34:36Z</time>
      </trkpt>
      <trkpt lat="38.3105780" lon="-0.6928100">
        <ele>205.1</ele>
        <time>2017-12-18T13:34:37Z</time>
      </trkpt>
      <trkpt lat="38.3106180" lon="-0.6928240">
        <ele>205.1</ele>
        <time>2017-12-18T13:34:38Z</time>
      </trkpt>
      <trkpt lat="38.3106580" lon="-0.6928280">
        <ele>205.1</ele>
        <time>2017-12-18T13:34:39Z</time>
      </trkpt>
      <trkpt lat="38.3106950" lon="-0.6928130">
        <ele>205.1</ele>
        <time>2017-12-18T13:34:40Z</time>
      </trkpt>
      <trkpt lat="38.3107350" lon="-0.6928020">
        <ele>205.1</ele>
        <time>2017-12-18T13:34:41Z</time>
      </trkpt>
      <trkpt lat="38.3107760" lon="-0.6927970">
        <ele>206.2</ele>
        <time>2017-12-18T13:34:42Z</time>
      </trkpt>
      <trkpt lat="38.3108150" lon="-0.6927940">
        <ele>206.2</ele>
        <time>2017-12-18T13:34:43Z</time>
      </trkpt>
      <trkpt lat="38.3108590" lon="-0.6928010">
        <ele>206.2</ele>
        <time>2017-12-18T13:34:44Z</time>
      </trkpt>
      <trkpt lat="38.3109000" lon="-0.6928110">
        <ele>206.2</ele>
        <time>2017-12-18T13:34:45Z</time>
      </trkpt>
      <trkpt lat="38.3109400" lon="-0.6928230">
        <ele>206.2</ele>
        <time>2017-12-18T13:34:46Z</time>
      </trkpt>
      <trkpt lat="38.3109800" lon="-0.6928400">
        <ele>206.2</ele>
        <time>2017-12-18T13:34:47Z</time>
      </trkpt>
      <trkpt lat="38.3110200" lon="-0.6928620">
        <ele>207.1</ele>
        <time>2017-12-18T13:34:48Z</time>
      </trkpt>
      <trkpt lat="38.3110570" lon="-0.6928820">
        <ele>207.1</ele>
        <time>2017-12-18T13:34:49Z</time>
      </trkpt>
      <trkpt lat="38.3110910" lon="-0.6929020">
        <ele>207.1</ele>
        <time>2017-12-18T13:34:50Z</time>
      </trkpt>
      <trkpt lat="38.3111230" lon="-0.6929240">
        <ele>207.1</ele>
        <time>2017-12-18T13:34:51Z</time>
      </trkpt>
      <trkpt lat="38.3111520" lon="-0.6929450">
        <ele>208.2</ele>
        <time>2017-12-18T13:34:52Z</time>
      </trkpt>
      <trkpt lat="38.3111830" lon="-0.6929620">
        <ele>208.2</ele>
        <time>2017-12-18T13:34:53Z</time>
      </trkpt>
      <trkpt lat="38.3112170" lon="-0.6929800">
        <ele>208.2</ele>
        <time>2017-12-18T13:34:54Z</time>
      </trkpt>
      <trkpt lat="38.3112500" lon="-0.6930020">
        <ele>208.2</ele>
        <time>2017-12-18T13:34:55Z</time>
      </trkpt>
      <trkpt lat="38.3112790" lon="-0.6930280">
        <ele>209.1</ele>
        <time>2017-12-18T13:34:56Z</time>
      </trkpt>
      <trkpt lat="38.3113090" lon="-0.6930550">
        <ele>209.1</ele>
        <time>2017-12-18T13:34:57Z</time>
      </trkpt>
      <trkpt lat="38.3113390" lon="-0.6930820">
        <ele>210.2</ele>
        <time>2017-12-18T13:34:58Z</time>
      </trkpt>
      <trkpt lat="38.3113620" lon="-0.6931130">
        <ele>210.2</ele>
        <time>2017-12-18T13:34:59Z</time>
      </trkpt>
      <trkpt lat="38.3113870" lon="-0.6931490">
        <ele>210.2</ele>
        <time>2017-12-18T13:35:00Z</time>
      </trkpt>
      <trkpt lat="38.3114090" lon="-0.6931840">
        <ele>210.2</ele>
        <time>2017-12-18T13:35:01Z</time>
      </trkpt>
      <trkpt lat="38.3114310" lon="-0.6932220">
        <ele>211.1</ele>
        <time>2017-12-18T13:35:02Z</time>
      </trkpt>
      <trkpt lat="38.3114520" lon="-0.6932600">
        <ele>211.1</ele>
        <time>2017-12-18T13:35:03Z</time>
      </trkpt>
      <trkpt lat="38.3114750" lon="-0.6932990">
        <ele>212.1</ele>
        <time>2017-12-18T13:35:04Z</time>
      </trkpt>
      <trkpt lat="38.3114970" lon="-0.6933390">
        <ele>212.1</ele>
        <time>2017-12-18T13:35:05Z</time>
      </trkpt>
      <trkpt lat="38.3115240" lon="-0.6933760">
        <ele>212.1</ele>
        <time>2017-12-18T13:35:06Z</time>
      </trkpt>
      <trkpt lat="38.3115510" lon="-0.6934130">
        <ele>212.1</ele>
        <time>2017-12-18T13:35:07Z</time>
      </trkpt>
      <trkpt lat="38.3115810" lon="-0.6934420">
        <ele>212.1</ele>
        <time>2017-12-18T13:35:08Z</time>
      </trkpt>
      <trkpt lat="38.3116150" lon="-0.6934660">
        <ele>212.1</ele>
        <time>2017-12-18T13:35:09Z</time>
      </trkpt>
      <trkpt lat="38.3116470" lon="-0.6934910">
        <ele>213.2</ele>
        <time>2017-12-18T13:35:10Z</time>
      </trkpt>
      <trkpt lat="38.3116770" lon="-0.6935180">
        <ele>213.2</ele>
        <time>2017-12-18T13:35:11Z</time>
      </trkpt>
      <trkpt lat="38.3117110" lon="-0.6935440">
        <ele>213.2</ele>
        <time>2017-12-18T13:35:12Z</time>
      </trkpt>
      <trkpt lat="38.3117430" lon="-0.6935710">
        <ele>213.2</ele>
        <time>2017-12-18T13:35:13Z</time>
      </trkpt>
      <trkpt lat="38.3117750" lon="-0.6935990">
        <ele>214.1</ele>
        <time>2017-12-18T13:35:14Z</time>
      </trkpt>
      <trkpt lat="38.3118090" lon="-0.6936270">
        <ele>214.1</ele>
        <time>2017-12-18T13:35:15Z</time>
      </trkpt>
      <trkpt lat="38.3118420" lon="-0.6936570">
        <ele>214.1</ele>
        <time>2017-12-18T13:35:16Z</time>
      </trkpt>
      <trkpt lat="38.3118750" lon="-0.6936860">
        <ele>214.1</ele>
        <time>2017-12-18T13:35:17Z</time>
      </trkpt>
      <trkpt lat="38.3119070" lon="-0.6937160">
        <ele>214.1</ele>
        <time>2017-12-18T13:35:18Z</time>
      </trkpt>
      <trkpt lat="38.3119390" lon="-0.6937460">
        <ele>214.1</ele>
        <time>2017-12-18T13:35:19Z</time>
      </trkpt>
      <trkpt lat="38.3119720" lon="-0.6937740">
        <ele>215.2</ele>
        <time>2017-12-18T13:35:20Z</time>
      </trkpt>
      <trkpt lat="38.3120020" lon="-0.6938070">
        <ele>215.2</ele>
        <time>2017-12-18T13:35:21Z</time>
      </trkpt>
      <trkpt lat="38.3120300" lon="-0.6938420">
        <ele>215.2</ele>
        <time>2017-12-18T13:35:22Z</time>
      </trkpt>
      <trkpt lat="38.3120610" lon="-0.6938720">
        <ele>215.2</ele>
        <time>2017-12-18T13:35:23Z</time>
      </trkpt>
      <trkpt lat="38.3120940" lon="-0.6938910">
        <ele>215.2</ele>
        <time>2017-12-18T13:35:24Z</time>
      </trkpt>
      <trkpt lat="38.3121280" lon="-0.6939030">
        <ele>215.2</ele>
        <time>2017-12-18T13:35:25Z</time>
      </trkpt>
      <trkpt lat="38.3121610" lon="-0.6939090">
        <ele>216.1</ele>
        <time>2017-12-18T13:35:26Z</time>
      </trkpt>
      <trkpt lat="38.3121950" lon="-0.6939110">
        <ele>216.1</ele>
        <time>2017-12-18T13:35:27Z</time>
      </trkpt>
      <trkpt lat="38.3122280" lon="-0.6939060">
        <ele>216.1</ele>
        <time>2017-12-18T13:35:28Z</time>
      </trkpt>
      <trkpt lat="38.3122600" lon="-0.6938950">
        <ele>216.1</ele>
        <time>2017-12-18T13:35:29Z</time>
      </trkpt>
      <trkpt lat="38.3122850" lon="-0.6938700">
        <ele>217.2</ele>
        <time>2017-12-18T13:35:30Z</time>
      </trkpt>
      <trkpt lat="38.3123090" lon="-0.6938420">
        <ele>217.2</ele>
        <time>2017-12-18T13:35:31Z</time>
      </trkpt>
      <trkpt lat="38.3123300" lon="-0.6938100">
        <ele>217.2</ele>
        <time>2017-12-18T13:35:32Z</time>
      </trkpt>
      <trkpt lat="38.3123430" lon="-0.6937720">
        <ele>217.2</ele>
        <time>2017-12-18T13:35:33Z</time>
      </trkpt>
      <trkpt lat="38.3123410" lon="-0.6937290">
        <ele>217.2</ele>
        <time>2017-12-18T13:35:34Z</time>
      </trkpt>
      <trkpt lat="38.3123370" lon="-0.6936850">
        <ele>217.2</ele>
        <time>2017-12-18T13:35:35Z</time>
      </trkpt>
      <trkpt lat="38.3123450" lon="-0.6936440">
        <ele>218.1</ele>
        <time>2017-12-18T13:35:36Z</time>
      </trkpt>
      <trkpt lat="38.3123580" lon="-0.6936060">
        <ele>218.1</ele>
        <time>2017-12-18T13:35:37Z</time>
      </trkpt>
      <trkpt lat="38.3123770" lon="-0.6935730">
        <ele>218.1</ele>
        <time>2017-12-18T13:35:38Z</time>
      </trkpt>
      <trkpt lat="38.3124010" lon="-0.6935450">
        <ele>218.1</ele>
        <time>2017-12-18T13:35:39Z</time>
      </trkpt>
      <trkpt lat="38.3124280" lon="-0.6935220">
        <ele>218.1</ele>
        <time>2017-12-18T13:35:40Z</time>
      </trkpt>
      <trkpt lat="38.3124590" lon="-0.6935090">
        <ele>218.1</ele>
        <time>2017-12-18T13:35:41Z</time>
      </trkpt>
      <trkpt lat="38.3124890" lon="-0.6935030">
        <ele>219.2</ele>
        <time>2017-12-18T13:35:42Z</time>
      </trkpt>
      <trkpt lat="38.3125200" lon="-0.6935020">
        <ele>219.2</ele>
        <time>2017-12-18T13:35:43Z</time>
      </trkpt>
      <trkpt lat="38.3125480" lon="-0.6935060">
        <ele>219.2</ele>
        <time>2017-12-18T13:35:44Z</time>
      </trkpt>
      <trkpt lat="38.3125770" lon="-0.6935130">
        <ele>219.2</ele>
        <time>2017-12-18T13:35:45Z</time>
      </trkpt>
      <trkpt lat="38.3126060" lon="-0.6935220">
        <ele>220.2</ele>
        <time>2017-12-18T13:35:46Z</time>
      </trkpt>
      <trkpt lat="38.3126330" lon="-0.6935340">
        <ele>220.2</ele>
        <time>2017-12-18T13:35:47Z</time>
      </trkpt>
      <trkpt lat="38.3126610" lon="-0.6935500">
        <ele>220.2</ele>
        <time>2017-12-18T13:35:48Z</time>
      </trkpt>
      <trkpt lat="38.3126880" lon="-0.6935710">
        <ele>220.2</ele>
        <time>2017-12-18T13:35:49Z</time>
      </trkpt>
      <trkpt lat="38.3127160" lon="-0.6935920">
        <ele>221.1</ele>
        <time>2017-12-18T13:35:50Z</time>
      </trkpt>
      <trkpt lat="38.3127440" lon="-0.6936110">
        <ele>221.1</ele>
        <time>2017-12-18T13:35:51Z</time>
      </trkpt>
      <trkpt lat="38.3127710" lon="-0.6936290">
        <ele>221.1</ele>
        <time>2017-12-18T13:35:52Z</time>
      </trkpt>
      <trkpt lat="38.3127990" lon="-0.6936480">
        <ele>221.1</ele>
        <time>2017-12-18T13:35:53Z</time>
      </trkpt>
      <trkpt lat="38.3128270" lon="-0.6936660">
        <ele>222.2</ele>
        <time>2017-12-18T13:35:54Z</time>
      </trkpt>
      <trkpt lat="38.3128570" lon="-0.6936810">
        <ele>222.2</ele>
        <time>2017-12-18T13:35:55Z</time>
      </trkpt>
      <trkpt lat="38.3128890" lon="-0.6936910">
        <ele>222.2</ele>
        <time>2017-12-18T13:35:56Z</time>
      </trkpt>
      <trkpt lat="38.3129210" lon="-0.6936950">
        <ele>222.2</ele>
        <time>2017-12-18T13:35:57Z</time>
      </trkpt>
      <trkpt lat="38.3129530" lon="-0.6936910">
        <ele>222.2</ele>
        <time>2017-12-18T13:35:58Z</time>
      </trkpt>
      <trkpt lat="38.3129810" lon="-0.6936700">
        <ele>222.2</ele>
        <time>2017-12-18T13:35:59Z</time>
      </trkpt>
      <trkpt lat="38.3130080" lon="-0.6936430">
        <ele>223.1</ele>
        <time>2017-12-18T13:36:00Z</time>
      </trkpt>
      <trkpt lat="38.3130280" lon="-0.6936080">
        <ele>223.1</ele>
        <time>2017-12-18T13:36:01Z</time>
      </trkpt>
      <trkpt lat="38.3130440" lon="-0.6935680">
        <ele>223.1</ele>
        <time>2017-12-18T13:36:02Z</time>
      </trkpt>
      <trkpt lat="38.3130640" lon="-0.6935290">
        <ele>223.1</ele>
        <time>2017-12-18T13:36:03Z</time>
      </trkpt>
      <trkpt lat="38.3130860" lon="-0.6934900">
        <ele>223.1</ele>
        <time>2017-12-18T13:36:04Z</time>
      </trkpt>
      <trkpt lat="38.3131100" lon="-0.6934530">
        <ele>223.1</ele>
        <time>2017-12-18T13:36:05Z</time>
      </trkpt>
      <trkpt lat="38.3131390" lon="-0.6934220">
        <ele>224.2</ele>
        <time>2017-12-18T13:36:06Z</time>
      </trkpt>
      <trkpt lat="38.3131710" lon="-0.6933960">
        <ele>224.2</ele>
        <time>2017-12-18T13:36:07Z</time>
      </trkpt>
      <trkpt lat="38.3132020" lon="-0.6933750">
        <ele>224.2</ele>
        <time>2017-12-18T13:36:08Z</time>
      </trkpt>
      <trkpt lat="38.3132310" lon="-0.6933550">
        <ele>224.2</ele>
        <time>2017-12-18T13:36:09Z</time>
      </trkpt>
      <trkpt lat="38.3132590" lon="-0.6933390">
        <ele>224.2</ele>
        <time>2017-12-18T13:36:10Z</time>
      </trkpt>
      <trkpt lat="38.3132860" lon="-0.6933240">
        <ele>224.2</ele>
        <time>2017-12-18T13:36:11Z</time>
      </trkpt>
      <trkpt lat="38.3133130" lon="-0.6933140">
        <ele>225.1</ele>
        <time>2017-12-18T13:36:12Z</time>
      </trkpt>
      <trkpt lat="38.3133390" lon="-0.6933080">
        <ele>225.1</ele>
        <time>2017-12-18T13:36:13Z</time>
      </trkpt>
      <trkpt lat="38.3133620" lon="-0.6933040">
        <ele>225.1</ele>
        <time>2017-12-18T13:36:14Z</time>
      </trkpt>
      <trkpt lat="38.3133880" lon="-0.6933000">
        <ele>225.1</ele>
        <time>2017-12-18T13:36:15Z</time>
      </trkpt>
      <trkpt lat="38.3134160" lon="-0.6932990">
        <ele>225.1</ele>
        <time>2017-12-18T13:36:16Z</time>
      </trkpt>
      <trkpt lat="38.3134450" lon="-0.6932960">
        <ele>225.1</ele>
        <time>2017-12-18T13:36:17Z</time>
      </trkpt>
      <trkpt lat="38.3134740" lon="-0.6932990">
        <ele>225.1</ele>
        <time>2017-12-18T13:36:18Z</time>
      </trkpt>
      <trkpt lat="38.3135020" lon="-0.6933000">
        <ele>225.1</ele>
        <time>2017-12-18T13:36:19Z</time>
      </trkpt>
      <trkpt lat="38.3135300" lon="-0.6933030">
        <ele>225.1</ele>
        <time>2017-12-18T13:36:20Z</time>
      </trkpt>
      <trkpt lat="38.3135590" lon="-0.6933080">
        <ele>225.1</ele>
        <time>2017-12-18T13:36:21Z</time>
      </trkpt>
      <trkpt lat="38.3135870" lon="-0.6933170">
        <ele>228.1</ele>
        <time>2017-12-18T13:36:22Z</time>
      </trkpt>
      <trkpt lat="38.3136190" lon="-0.6933260">
        <ele>228.1</ele>
        <time>2017-12-18T13:36:23Z</time>
      </trkpt>
      <trkpt lat="38.3136510" lon="-0.6933370">
        <ele>228.1</ele>
        <time>2017-12-18T13:36:24Z</time>
      </trkpt>
      <trkpt lat="38.3136830" lon="-0.6933480">
        <ele>228.1</ele>
        <time>2017-12-18T13:36:25Z</time>
      </trkpt>
      <trkpt lat="38.3137160" lon="-0.6933620">
        <ele>228.1</ele>
        <time>2017-12-18T13:36:26Z</time>
      </trkpt>
      <trkpt lat="38.3137500" lon="-0.6933770">
        <ele>228.1</ele>
        <time>2017-12-18T13:36:27Z</time>
      </trkpt>
      <trkpt lat="38.3137840" lon="-0.6933940">
        <ele>229.2</ele>
        <time>2017-12-18T13:36:28Z</time>
      </trkpt>
      <trkpt lat="38.3138180" lon="-0.6934100">
        <ele>229.2</ele>
        <time>2017-12-18T13:36:29Z</time>
      </trkpt>
      <trkpt lat="38.3138530" lon="-0.6934260">
        <ele>229.2</ele>
        <time>2017-12-18T13:36:30Z</time>
      </trkpt>
      <trkpt lat="38.3138890" lon="-0.6934420">
        <ele>229.2</ele>
        <time>2017-12-18T13:36:31Z</time>
      </trkpt>
      <trkpt lat="38.3139240" lon="-0.6934580">
        <ele>229.2</ele>
        <time>2017-12-18T13:36:32Z</time>
      </trkpt>
      <trkpt lat="38.3139590" lon="-0.6934740">
        <ele>229.2</ele>
        <time>2017-12-18T13:36:33Z</time>
      </trkpt>
      <trkpt lat="38.3139930" lon="-0.6934890">
        <ele>230.1</ele>
        <time>2017-12-18T13:36:34Z</time>
      </trkpt>
      <trkpt lat="38.3140270" lon="-0.6935020">
        <ele>230.1</ele>
        <time>2017-12-18T13:36:35Z</time>
      </trkpt>
      <trkpt lat="38.3140610" lon="-0.6935130">
        <ele>230.1</ele>
        <time>2017-12-18T13:36:36Z</time>
      </trkpt>
      <trkpt lat="38.3140940" lon="-0.6935240">
        <ele>230.1</ele>
        <time>2017-12-18T13:36:37Z</time>
      </trkpt>
      <trkpt lat="38.3141260" lon="-0.6935330">
        <ele>230.1</ele>
        <time>2017-12-18T13:36:38Z</time>
      </trkpt>
      <trkpt lat="38.3141580" lon="-0.6935410">
        <ele>230.1</ele>
        <time>2017-12-18T13:36:39Z</time>
      </trkpt>
      <trkpt lat="38.3141890" lon="-0.6935450">
        <ele>230.1</ele>
        <time>2017-12-18T13:36:40Z</time>
      </trkpt>
      <trkpt lat="38.3142200" lon="-0.6935480">
        <ele>230.1</ele>
        <time>2017-12-18T13:36:41Z</time>
      </trkpt>
      <trkpt lat="38.3142520" lon="-0.6935520">
        <ele>231.2</ele>
        <time>2017-12-18T13:36:42Z</time>
      </trkpt>
      <trkpt lat="38.3142830" lon="-0.6935560">
        <ele>231.2</ele>
        <time>2017-12-18T13:36:43Z</time>
      </trkpt>
      <trkpt lat="38.3143140" lon="-0.6935570">
        <ele>231.2</ele>
        <time>2017-12-18T13:36:44Z</time>
      </trkpt>
      <trkpt lat="38.3143460" lon="-0.6935570">
        <ele>231.2</ele>
        <time>2017-12-18T13:36:45Z</time>
      </trkpt>
      <trkpt lat="38.3143800" lon="-0.6935570">
        <ele>232.1</ele>
        <time>2017-12-18T13:36:46Z</time>
      </trkpt>
      <trkpt lat="38.3144150" lon="-0.6935580">
        <ele>232.1</ele>
        <time>2017-12-18T13:36:47Z</time>
      </trkpt>
      <trkpt lat="38.3144500" lon="-0.6935550">
        <ele>232.1</ele>
        <time>2017-12-18T13:36:48Z</time>
      </trkpt>
      <trkpt lat="38.3144850" lon="-0.6935540">
        <ele>232.1</ele>
        <time>2017-12-18T13:36:49Z</time>
      </trkpt>
      <trkpt lat="38.3145200" lon="-0.6935520">
        <ele>233.2</ele>
        <time>2017-12-18T13:36:50Z</time>
      </trkpt>
      <trkpt lat="38.3145550" lon="-0.6935490">
        <ele>233.2</ele>
        <time>2017-12-18T13:36:51Z</time>
      </trkpt>
      <trkpt lat="38.3145900" lon="-0.6935450">
        <ele>233.2</ele>
        <time>2017-12-18T13:36:52Z</time>
      </trkpt>
      <trkpt lat="38.3146260" lon="-0.6935430">
        <ele>233.2</ele>
        <time>2017-12-18T13:36:53Z</time>
      </trkpt>
      <trkpt lat="38.3146620" lon="-0.6935410">
        <ele>234.1</ele>
        <time>2017-12-18T13:36:54Z</time>
      </trkpt>
      <trkpt lat="38.3146990" lon="-0.6935380">
        <ele>234.1</ele>
        <time>2017-12-18T13:36:55Z</time>
      </trkpt>
      <trkpt lat="38.3147360" lon="-0.6935350">
        <ele>234.1</ele>
        <time>2017-12-18T13:36:56Z</time>
      </trkpt>
      <trkpt lat="38.3147720" lon="-0.6935320">
        <ele>234.1</ele>
        <time>2017-12-18T13:36:57Z</time>
      </trkpt>
      <trkpt lat="38.3148080" lon="-0.6935300">
        <ele>235.2</ele>
        <time>2017-12-18T13:36:58Z</time>
      </trkpt>
      <trkpt lat="38.3148440" lon="-0.6935290">
        <ele>235.2</ele>
        <time>2017-12-18T13:36:59Z</time>
      </trkpt>
      <trkpt lat="38.3148800" lon="-0.6935280">
        <ele>235.2</ele>
        <time>2017-12-18T13:37:00Z</time>
      </trkpt>
      <trkpt lat="38.3149170" lon="-0.6935270">
        <ele>235.2</ele>
        <time>2017-12-18T13:37:01Z</time>
      </trkpt>
      <trkpt lat="38.3149510" lon="-0.6935250">
        <ele>235.2</ele>
        <time>2017-12-18T13:37:02Z</time>
      </trkpt>
      <trkpt lat="38.3149870" lon="-0.6935220">
        <ele>235.2</ele>
        <time>2017-12-18T13:37:03Z</time>
      </trkpt>
      <trkpt lat="38.3150230" lon="-0.6935180">
        <ele>235.2</ele>
        <time>2017-12-18T13:37:04Z</time>
      </trkpt>
      <trkpt lat="38.3150580" lon="-0.6935130">
        <ele>235.2</ele>
        <time>2017-12-18T13:37:05Z</time>
      </trkpt>
      <trkpt lat="38.3150920" lon="-0.6935060">
        <ele>235.2</ele>
        <time>2017-12-18T13:37:06Z</time>
      </trkpt>
      <trkpt lat="38.3151250" lon="-0.6935000">
        <ele>235.2</ele>
        <time>2017-12-18T13:37:07Z</time>
      </trkpt>
      <trkpt lat="38.3151590" lon="-0.6934940">
        <ele>235.2</ele>
        <time>2017-12-18T13:37:08Z</time>
      </trkpt>
      <trkpt lat="38.3151930" lon="-0.6934840">
        <ele>235.2</ele>
        <time>2017-12-18T13:37:09Z</time>
      </trkpt>
      <trkpt lat="38.3152250" lon="-0.6934730">
        <ele>238.2</ele>
        <time>2017-12-18T13:37:10Z</time>
      </trkpt>
      <trkpt lat="38.3152550" lon="-0.6934600">
        <ele>238.2</ele>
        <time>2017-12-18T13:37:11Z</time>
      </trkpt>
      <trkpt lat="38.3152800" lon="-0.6934470">
        <ele>238.2</ele>
        <time>2017-12-18T13:37:12Z</time>
      </trkpt>
      <trkpt lat="38.3153030" lon="-0.6934380">
        <ele>238.2</ele>
        <time>2017-12-18T13:37:13Z</time>
      </trkpt>
      <trkpt lat="38.3153240" lon="-0.6934300">
        <ele>239.1</ele>
        <time>2017-12-18T13:37:14Z</time>
      </trkpt>
      <trkpt lat="38.3153470" lon="-0.6934210">
        <ele>239.1</ele>
        <time>2017-12-18T13:37:15Z</time>
      </trkpt>
      <trkpt lat="38.3153710" lon="-0.6934140">
        <ele>239.1</ele>
        <time>2017-12-18T13:37:16Z</time>
      </trkpt>
      <trkpt lat="38.3153930" lon="-0.6934100">
        <ele>239.1</ele>
        <time>2017-12-18T13:37:17Z</time>
      </trkpt>
      <trkpt lat="38.3154170" lon="-0.6934090">
        <ele>240.2</ele>
        <time>2017-12-18T13:37:18Z</time>
      </trkpt>
      <trkpt lat="38.3154430" lon="-0.6934090">
        <ele>240.2</ele>
        <time>2017-12-18T13:37:19Z</time>
      </trkpt>
      <trkpt lat="38.3154820" lon="-0.6934140">
        <ele>240.2</ele>
        <time>2017-12-18T13:37:20Z</time>
      </trkpt>
      <trkpt lat="38.3155130" lon="-0.6934190">
        <ele>240.2</ele>
        <time>2017-12-18T13:37:21Z</time>
      </trkpt>
      <trkpt lat="38.3155450" lon="-0.6934240">
        <ele>240.2</ele>
        <time>2017-12-18T13:37:22Z</time>
      </trkpt>
      <trkpt lat="38.3155780" lon="-0.6934280">
        <ele>240.2</ele>
        <time>2017-12-18T13:37:23Z</time>
      </trkpt>
      <trkpt lat="38.3156110" lon="-0.6934360">
        <ele>241.1</ele>
        <time>2017-12-18T13:37:24Z</time>
      </trkpt>
      <trkpt lat="38.3156430" lon="-0.6934460">
        <ele>241.1</ele>
        <time>2017-12-18T13:37:25Z</time>
      </trkpt>
      <trkpt lat="38.3156750" lon="-0.6934540">
        <ele>241.1</ele>
        <time>2017-12-18T13:37:26Z</time>
      </trkpt>
      <trkpt lat="38.3157040" lon="-0.6934620">
        <ele>241.1</ele>
        <time>2017-12-18T13:37:27Z</time>
      </trkpt>
      <trkpt lat="38.3157360" lon="-0.6934710">
        <ele>241.1</ele>
        <time>2017-12-18T13:37:28Z</time>
      </trkpt>
      <trkpt lat="38.3157660" lon="-0.6934800">
        <ele>241.1</ele>
        <time>2017-12-18T13:37:29Z</time>
      </trkpt>
      <trkpt lat="38.3157970" lon="-0.6934850">
        <ele>242.2</ele>
        <time>2017-12-18T13:37:30Z</time>
      </trkpt>
      <trkpt lat="38.3158290" lon="-0.6934930">
        <ele>242.2</ele>
        <time>2017-12-18T13:37:31Z</time>
      </trkpt>
      <trkpt lat="38.3158620" lon="-0.6935060">
        <ele>242.2</ele>
        <time>2017-12-18T13:37:32Z</time>
      </trkpt>
      <trkpt lat="38.3158950" lon="-0.6935210">
        <ele>242.2</ele>
        <time>2017-12-18T13:37:33Z</time>
      </trkpt>
      <trkpt lat="38.3159300" lon="-0.6935360">
        <ele>242.2</ele>
        <time>2017-12-18T13:37:34Z</time>
      </trkpt>
      <trkpt lat="38.3159650" lon="-0.6935530">
        <ele>242.2</ele>
        <time>2017-12-18T13:37:35Z</time>
      </trkpt>
      <trkpt lat="38.3160000" lon="-0.6935690">
        <ele>242.2</ele>
        <time>2017-12-18T13:37:36Z</time>
      </trkpt>
      <trkpt lat="38.3160370" lon="-0.6935840">
        <ele>242.2</ele>
        <time>2017-12-18T13:37:37Z</time>
      </trkpt>
      <trkpt lat="38.3160760" lon="-0.6935980">
        <ele>242.2</ele>
        <time>2017-12-18T13:37:38Z</time>
      </trkpt>
      <trkpt lat="38.3161160" lon="-0.6936140">
        <ele>242.2</ele>
        <time>2017-12-18T13:37:39Z</time>
      </trkpt>
      <trkpt lat="38.3161550" lon="-0.6936300">
        <ele>242.2</ele>
        <time>2017-12-18T13:37:40Z</time>
      </trkpt>
      <trkpt lat="38.3161940" lon="-0.6936470">
        <ele>242.2</ele>
        <time>2017-12-18T13:37:41Z</time>
      </trkpt>
      <trkpt lat="38.3162320" lon="-0.6936620">
        <ele>242.2</ele>
        <time>2017-12-18T13:37:42Z</time>
      </trkpt>
      <trkpt lat="38.3162710" lon="-0.6936770">
        <ele>242.2</ele>
        <time>2017-12-18T13:37:43Z</time>
      </trkpt>
      <trkpt lat="38.3163080" lon="-0.6936930">
        <ele>244.1</ele>
        <time>2017-12-18T13:37:44Z</time>
      </trkpt>
      <trkpt lat="38.3163440" lon="-0.6937100">
        <ele>244.1</ele>
        <time>2017-12-18T13:37:45Z</time>
      </trkpt>
      <trkpt lat="38.3163780" lon="-0.6937280">
        <ele>244.1</ele>
        <time>2017-12-18T13:37:46Z</time>
      </trkpt>
      <trkpt lat="38.3164110" lon="-0.6937460">
        <ele>244.1</ele>
        <time>2017-12-18T13:37:47Z</time>
      </trkpt>
      <trkpt lat="38.3164450" lon="-0.6937640">
        <ele>246.1</ele>
        <time>2017-12-18T13:37:48Z</time>
      </trkpt>
      <trkpt lat="38.3164790" lon="-0.6937800">
        <ele>246.1</ele>
        <time>2017-12-18T13:37:49Z</time>
      </trkpt>
      <trkpt lat="38.3165130" lon="-0.6937970">
        <ele>246.1</ele>
        <time>2017-12-18T13:37:50Z</time>
      </trkpt>
      <trkpt lat="38.3165470" lon="-0.6938150">
        <ele>246.1</ele>
        <time>2017-12-18T13:37:51Z</time>
      </trkpt>
      <trkpt lat="38.3165820" lon="-0.6938330">
        <ele>247.2</ele>
        <time>2017-12-18T13:37:52Z</time>
      </trkpt>
      <trkpt lat="38.3166180" lon="-0.6938510">
        <ele>247.2</ele>
        <time>2017-12-18T13:37:53Z</time>
      </trkpt>
      <trkpt lat="38.3166530" lon="-0.6938700">
        <ele>247.2</ele>
        <time>2017-12-18T13:37:54Z</time>
      </trkpt>
      <trkpt lat="38.3166890" lon="-0.6938900">
        <ele>247.2</ele>
        <time>2017-12-18T13:37:55Z</time>
      </trkpt>
      <trkpt lat="38.3167230" lon="-0.6939130">
        <ele>247.2</ele>
        <time>2017-12-18T13:37:56Z</time>
      </trkpt>
      <trkpt lat="38.3167590" lon="-0.6939330">
        <ele>247.2</ele>
        <time>2017-12-18T13:37:57Z</time>
      </trkpt>
      <trkpt lat="38.3167970" lon="-0.6939520">
        <ele>247.2</ele>
        <time>2017-12-18T13:37:58Z</time>
      </trkpt>
      <trkpt lat="38.3168360" lon="-0.6939700">
        <ele>247.2</ele>
        <time>2017-12-18T13:37:59Z</time>
      </trkpt>
      <trkpt lat="38.3168780" lon="-0.6939840">
        <ele>247.2</ele>
        <time>2017-12-18T13:38:00Z</time>
      </trkpt>
      <trkpt lat="38.3169190" lon="-0.6939970">
        <ele>247.2</ele>
        <time>2017-12-18T13:38:01Z</time>
      </trkpt>
      <trkpt lat="38.3169610" lon="-0.6940060">
        <ele>247.2</ele>
        <time>2017-12-18T13:38:02Z</time>
      </trkpt>
      <trkpt lat="38.3170050" lon="-0.6940130">
        <ele>247.2</ele>
        <time>2017-12-18T13:38:03Z</time>
      </trkpt>
      <trkpt lat="38.3170500" lon="-0.6940100">
        <ele>248.1</ele>
        <time>2017-12-18T13:38:04Z</time>
      </trkpt>
      <trkpt lat="38.3170970" lon="-0.6940020">
        <ele>248.1</ele>
        <time>2017-12-18T13:38:05Z</time>
      </trkpt>
      <trkpt lat="38.3171470" lon="-0.6939920">
        <ele>248.1</ele>
        <time>2017-12-18T13:38:06Z</time>
      </trkpt>
      <trkpt lat="38.3171990" lon="-0.6939790">
        <ele>248.1</ele>
        <time>2017-12-18T13:38:07Z</time>
      </trkpt>
      <trkpt lat="38.3172520" lon="-0.6939630">
        <ele>248.1</ele>
        <time>2017-12-18T13:38:08Z</time>
      </trkpt>
      <trkpt lat="38.3173060" lon="-0.6939430">
        <ele>248.1</ele>
        <time>2017-12-18T13:38:09Z</time>
      </trkpt>
      <trkpt lat="38.3173630" lon="-0.6939160">
        <ele>248.1</ele>
        <time>2017-12-18T13:38:10Z</time>
      </trkpt>
      <trkpt lat="38.3174240" lon="-0.6938850">
        <ele>248.1</ele>
        <time>2017-12-18T13:38:11Z</time>
      </trkpt>
      <trkpt lat="38.3174910" lon="-0.6938480">
        <ele>248.1</ele>
        <time>2017-12-18T13:38:12Z</time>
      </trkpt>
      <trkpt lat="38.3175610" lon="-0.6938050">
        <ele>248.1</ele>
        <time>2017-12-18T13:38:13Z</time>
      </trkpt>
      <trkpt lat="38.3176350" lon="-0.6937590">
        <ele>248.1</ele>
        <time>2017-12-18T13:38:14Z</time>
      </trkpt>
      <trkpt lat="38.3177110" lon="-0.6937130">
        <ele>248.1</ele>
        <time>2017-12-18T13:38:15Z</time>
      </trkpt>
      <trkpt lat="38.3177910" lon="-0.6936660">
        <ele>243.1</ele>
        <time>2017-12-18T13:38:16Z</time>
      </trkpt>
      <trkpt lat="38.3178730" lon="-0.6936200">
        <ele>243.1</ele>
        <time>2017-12-18T13:38:17Z</time>
      </trkpt>
      <trkpt lat="38.3179600" lon="-0.6935840">
        <ele>242.2</ele>
        <time>2017-12-18T13:38:18Z</time>
      </trkpt>
      <trkpt lat="38.3180440" lon="-0.6935610">
        <ele>242.2</ele>
        <time>2017-12-18T13:38:19Z</time>
      </trkpt>
      <trkpt lat="38.3181300" lon="-0.6935490">
        <ele>241.1</ele>
        <time>2017-12-18T13:38:20Z</time>
      </trkpt>
      <trkpt lat="38.3182220" lon="-0.6935420">
        <ele>241.1</ele>
        <time>2017-12-18T13:38:21Z</time>
      </trkpt>
      <trkpt lat="38.3183130" lon="-0.6935360">
        <ele>240.2</ele>
        <time>2017-12-18T13:38:22Z</time>
      </trkpt>
      <trkpt lat="38.3184020" lon="-0.6935280">
        <ele>240.2</ele>
        <time>2017-12-18T13:38:23Z</time>
      </trkpt>
      <trkpt lat="38.3184880" lon="-0.6935220">
        <ele>240.2</ele>
        <time>2017-12-18T13:38:24Z</time>
      </trkpt>
      <trkpt lat="38.3185740" lon="-0.6935200">
        <ele>240.2</ele>
        <time>2017-12-18T13:38:25Z</time>
      </trkpt>
      <trkpt lat="38.3186600" lon="-0.6935210">
        <ele>240.2</ele>
        <time>2017-12-18T13:38:26Z</time>
      </trkpt>
      <trkpt lat="38.3187460" lon="-0.6935240">
        <ele>240.2</ele>
        <time>2017-12-18T13:38:27Z</time>
      </trkpt>
      <trkpt lat="38.3188300" lon="-0.6935270">
        <ele>240.2</ele>
        <time>2017-12-18T13:38:28Z</time>
      </trkpt>
      <trkpt lat="38.3189120" lon="-0.6935310">
        <ele>240.2</ele>
        <time>2017-12-18T13:38:29Z</time>
      </trkpt>
      <trkpt lat="38.3189950" lon="-0.6935350">
        <ele>240.2</ele>
        <time>2017-12-18T13:38:30Z</time>
      </trkpt>
      <trkpt lat="38.3190770" lon="-0.6935330">
        <ele>240.2</ele>
        <time>2017-12-18T13:38:31Z</time>
      </trkpt>
      <trkpt lat="38.3191540" lon="-0.6935090">
        <ele>240.2</ele>
        <time>2017-12-18T13:38:32Z</time>
      </trkpt>
      <trkpt lat="38.3192260" lon="-0.6934580">
        <ele>240.2</ele>
        <time>2017-12-18T13:38:33Z</time>
      </trkpt>
      <trkpt lat="38.3192730" lon="-0.6933780">
        <ele>240.2</ele>
        <time>2017-12-18T13:38:34Z</time>
      </trkpt>
      <trkpt lat="38.3192870" lon="-0.6932670">
        <ele>240.2</ele>
        <time>2017-12-18T13:38:35Z</time>
      </trkpt>
      <trkpt lat="38.3193030" lon="-0.6931530">
        <ele>240.2</ele>
        <time>2017-12-18T13:38:36Z</time>
      </trkpt>
      <trkpt lat="38.3193210" lon="-0.6930350">
        <ele>240.2</ele>
        <time>2017-12-18T13:38:37Z</time>
      </trkpt>
      <trkpt lat="38.3193370" lon="-0.6929120">
        <ele>238.2</ele>
        <time>2017-12-18T13:38:38Z</time>
      </trkpt>
      <trkpt lat="38.3193520" lon="-0.6927860">
        <ele>238.2</ele>
        <time>2017-12-18T13:38:39Z</time>
      </trkpt>
      <trkpt lat="38.3193660" lon="-0.6926590">
        <ele>237.1</ele>
        <time>2017-12-18T13:38:40Z</time>
      </trkpt>
      <trkpt lat="38.3193810" lon="-0.6925330">
        <ele>237.1</ele>
        <time>2017-12-18T13:38:41Z</time>
      </trkpt>
      <trkpt lat="38.3193980" lon="-0.6924070">
        <ele>236.1</ele>
        <time>2017-12-18T13:38:42Z</time>
      </trkpt>
      <trkpt lat="38.3194200" lon="-0.6922830">
        <ele>236.1</ele>
        <time>2017-12-18T13:38:43Z</time>
      </trkpt>
      <trkpt lat="38.3194520" lon="-0.6921650">
        <ele>235.2</ele>
        <time>2017-12-18T13:38:44Z</time>
      </trkpt>
      <trkpt lat="38.3194950" lon="-0.6920530">
        <ele>235.2</ele>
        <time>2017-12-18T13:38:45Z</time>
      </trkpt>
      <trkpt lat="38.3195420" lon="-0.6919450">
        <ele>234.1</ele>
        <time>2017-12-18T13:38:46Z</time>
      </trkpt>
      <trkpt lat="38.3195850" lon="-0.6918350">
        <ele>234.1</ele>
        <time>2017-12-18T13:38:47Z</time>
      </trkpt>
      <trkpt lat="38.3196180" lon="-0.6917180">
        <ele>234.1</ele>
        <time>2017-12-18T13:38:48Z</time>
      </trkpt>
      <trkpt lat="38.3196450" lon="-0.6915990">
        <ele>234.1</ele>
        <time>2017-12-18T13:38:49Z</time>
      </trkpt>
      <trkpt lat="38.3196680" lon="-0.6914750">
        <ele>233.2</ele>
        <time>2017-12-18T13:38:50Z</time>
      </trkpt>
      <trkpt lat="38.3196910" lon="-0.6913510">
        <ele>233.2</ele>
        <time>2017-12-18T13:38:51Z</time>
      </trkpt>
      <trkpt lat="38.3197120" lon="-0.6912250">
        <ele>233.2</ele>
        <time>2017-12-18T13:38:52Z</time>
      </trkpt>
      <trkpt lat="38.3197340" lon="-0.6910970">
        <ele>233.2</ele>
        <time>2017-12-18T13:38:53Z</time>
      </trkpt>
      <trkpt lat="38.3197540" lon="-0.6909700">
        <ele>232.1</ele>
        <time>2017-12-18T13:38:54Z</time>
      </trkpt>
      <trkpt lat="38.3197730" lon="-0.6908430">
        <ele>232.1</ele>
        <time>2017-12-18T13:38:55Z</time>
      </trkpt>
      <trkpt lat="38.3197930" lon="-0.6907190">
        <ele>231.2</ele>
        <time>2017-12-18T13:38:56Z</time>
      </trkpt>
      <trkpt lat="38.3198110" lon="-0.6905950">
        <ele>231.2</ele>
        <time>2017-12-18T13:38:57Z</time>
      </trkpt>
      <trkpt lat="38.3198280" lon="-0.6904720">
        <ele>231.2</ele>
        <time>2017-12-18T13:38:58Z</time>
      </trkpt>
      <trkpt lat="38.3198450" lon="-0.6903500">
        <ele>231.2</ele>
        <time>2017-12-18T13:38:59Z</time>
      </trkpt>
      <trkpt lat="38.3198610" lon="-0.6902270">
        <ele>230.1</ele>
        <time>2017-12-18T13:39:00Z</time>
      </trkpt>
      <trkpt lat="38.3198760" lon="-0.6901040">
        <ele>230.1</ele>
        <time>2017-12-18T13:39:01Z</time>
      </trkpt>
      <trkpt lat="38.3198890" lon="-0.6899790">
        <ele>230.1</ele>
        <time>2017-12-18T13:39:02Z</time>
      </trkpt>
      <trkpt lat="38.3199010" lon="-0.6898540">
        <ele>230.1</ele>
        <time>2017-12-18T13:39:03Z</time>
      </trkpt>
      <trkpt lat="38.3199090" lon="-0.6897290">
        <ele>229.2</ele>
        <time>2017-12-18T13:39:04Z</time>
      </trkpt>
      <trkpt lat="38.3199160" lon="-0.6896040">
        <ele>229.2</ele>
        <time>2017-12-18T13:39:05Z</time>
      </trkpt>
      <trkpt lat="38.3199220" lon="-0.6894820">
        <ele>229.2</ele>
        <time>2017-12-18T13:39:06Z</time>
      </trkpt>
      <trkpt lat="38.3199290" lon="-0.6893620">
        <ele>229.2</ele>
        <time>2017-12-18T13:39:07Z</time>
      </trkpt>
      <trkpt lat="38.3199360" lon="-0.6892430">
        <ele>229.2</ele>
        <time>2017-12-18T13:39:08Z</time>
      </trkpt>
      <trkpt lat="38.3199410" lon="-0.6891280">
        <ele>229.2</ele>
        <time>2017-12-18T13:39:09Z</time>
      </trkpt>
      <trkpt lat="38.3199460" lon="-0.6890150">
        <ele>229.2</ele>
        <time>2017-12-18T13:39:10Z</time>
      </trkpt>
      <trkpt lat="38.3199510" lon="-0.6889020">
        <ele>229.2</ele>
        <time>2017-12-18T13:39:11Z</time>
      </trkpt>
      <trkpt lat="38.3199570" lon="-0.6887920">
        <ele>229.2</ele>
        <time>2017-12-18T13:39:12Z</time>
      </trkpt>
      <trkpt lat="38.3199630" lon="-0.6886820">
        <ele>229.2</ele>
        <time>2017-12-18T13:39:13Z</time>
      </trkpt>
      <trkpt lat="38.3199700" lon="-0.6885730">
        <ele>229.2</ele>
        <time>2017-12-18T13:39:14Z</time>
      </trkpt>
      <trkpt lat="38.3199740" lon="-0.6884630">
        <ele>229.2</ele>
        <time>2017-12-18T13:39:15Z</time>
      </trkpt>
      <trkpt lat="38.3199730" lon="-0.6883540">
        <ele>228.1</ele>
        <time>2017-12-18T13:39:16Z</time>
      </trkpt>
      <trkpt lat="38.3199680" lon="-0.6882460">
        <ele>228.1</ele>
        <time>2017-12-18T13:39:17Z</time>
      </trkpt>
      <trkpt lat="38.3199580" lon="-0.6881400">
        <ele>228.1</ele>
        <time>2017-12-18T13:39:18Z</time>
      </trkpt>
      <trkpt lat="38.3199480" lon="-0.6880350">
        <ele>228.1</ele>
        <time>2017-12-18T13:39:19Z</time>
      </trkpt>
      <trkpt lat="38.3199410" lon="-0.6879310">
        <ele>228.1</ele>
        <time>2017-12-18T13:39:20Z</time>
      </trkpt>
      <trkpt lat="38.3199480" lon="-0.6878270">
        <ele>228.1</ele>
        <time>2017-12-18T13:39:21Z</time>
      </trkpt>
      <trkpt lat="38.3199680" lon="-0.6877270">
        <ele>228.1</ele>
        <time>2017-12-18T13:39:22Z</time>
      </trkpt>
      <trkpt lat="38.3199980" lon="-0.6876360">
        <ele>228.1</ele>
        <time>2017-12-18T13:39:23Z</time>
      </trkpt>
      <trkpt lat="38.3200360" lon="-0.6875480">
        <ele>228.1</ele>
        <time>2017-12-18T13:39:24Z</time>
      </trkpt>
      <trkpt lat="38.3200720" lon="-0.6874620">
        <ele>228.1</ele>
        <time>2017-12-18T13:39:25Z</time>
      </trkpt>
      <trkpt lat="38.3201000" lon="-0.6873760">
        <ele>228.1</ele>
        <time>2017-12-18T13:39:26Z</time>
      </trkpt>
      <trkpt lat="38.3201260" lon="-0.6872950">
        <ele>228.1</ele>
        <time>2017-12-18T13:39:27Z</time>
      </trkpt>
      <trkpt lat="38.3201540" lon="-0.6872230">
        <ele>228.1</ele>
        <time>2017-12-18T13:39:28Z</time>
      </trkpt>
      <trkpt lat="38.3201840" lon="-0.6871580">
        <ele>228.1</ele>
        <time>2017-12-18T13:39:29Z</time>
      </trkpt>
      <trkpt lat="38.3202140" lon="-0.6871020">
        <ele>228.1</ele>
        <time>2017-12-18T13:39:30Z</time>
      </trkpt>
      <trkpt lat="38.3202450" lon="-0.6870480">
        <ele>228.1</ele>
        <time>2017-12-18T13:39:31Z</time>
      </trkpt>
      <trkpt lat="38.3202750" lon="-0.6869930">
        <ele>232.1</ele>
        <time>2017-12-18T13:39:32Z</time>
      </trkpt>
      <trkpt lat="38.3203070" lon="-0.6869370">
        <ele>232.1</ele>
        <time>2017-12-18T13:39:33Z</time>
      </trkpt>
      <trkpt lat="38.3203420" lon="-0.6868820">
        <ele>232.1</ele>
        <time>2017-12-18T13:39:34Z</time>
      </trkpt>
      <trkpt lat="38.3203790" lon="-0.6868260">
        <ele>232.1</ele>
        <time>2017-12-18T13:39:35Z</time>
      </trkpt>
      <trkpt lat="38.3204150" lon="-0.6867660">
        <ele>232.1</ele>
        <time>2017-12-18T13:39:36Z</time>
      </trkpt>
      <trkpt lat="38.3204500" lon="-0.6867040">
        <ele>232.1</ele>
        <time>2017-12-18T13:39:37Z</time>
      </trkpt>
      <trkpt lat="38.3204840" lon="-0.6866440">
        <ele>232.1</ele>
        <time>2017-12-18T13:39:38Z</time>
      </trkpt>
      <trkpt lat="38.3205140" lon="-0.6865870">
        <ele>232.1</ele>
        <time>2017-12-18T13:39:39Z</time>
      </trkpt>
      <trkpt lat="38.3205420" lon="-0.6865390">
        <ele>233.2</ele>
        <time>2017-12-18T13:39:40Z</time>
      </trkpt>
      <trkpt lat="38.3205660" lon="-0.6864900">
        <ele>233.2</ele>
        <time>2017-12-18T13:39:41Z</time>
      </trkpt>
      <trkpt lat="38.3205850" lon="-0.6864480">
        <ele>234.1</ele>
        <time>2017-12-18T13:39:42Z</time>
      </trkpt>
      <trkpt lat="38.3206000" lon="-0.6864110">
        <ele>234.1</ele>
        <time>2017-12-18T13:39:43Z</time>
      </trkpt>
      <trkpt lat="38.3206130" lon="-0.6863780">
        <ele>235.2</ele>
        <time>2017-12-18T13:39:44Z</time>
      </trkpt>
      <trkpt lat="38.3206240" lon="-0.6863490">
        <ele>235.2</ele>
        <time>2017-12-18T13:39:45Z</time>
      </trkpt>
      <trkpt lat="38.3206380" lon="-0.6863220">
        <ele>236.1</ele>
        <time>2017-12-18T13:39:46Z</time>
      </trkpt>
      <trkpt lat="38.3206540" lon="-0.6862930">
        <ele>236.1</ele>
        <time>2017-12-18T13:39:47Z</time>
      </trkpt>
      <trkpt lat="38.3206700" lon="-0.6862620">
        <ele>236.1</ele>
        <time>2017-12-18T13:39:48Z</time>
      </trkpt>
      <trkpt lat="38.3206860" lon="-0.6862340">
        <ele>236.1</ele>
        <time>2017-12-18T13:39:49Z</time>
      </trkpt>
      <trkpt lat="38.3207000" lon="-0.6862060">
        <ele>236.1</ele>
        <time>2017-12-18T13:39:50Z</time>
      </trkpt>
      <trkpt lat="38.3207100" lon="-0.6861770">
        <ele>236.1</ele>
        <time>2017-12-18T13:39:51Z</time>
      </trkpt>
      <trkpt lat="38.3207190" lon="-0.6861510">
        <ele>239.1</ele>
        <time>2017-12-18T13:39:52Z</time>
      </trkpt>
      <trkpt lat="38.3207280" lon="-0.6861230">
        <ele>239.1</ele>
        <time>2017-12-18T13:39:53Z</time>
      </trkpt>
      <trkpt lat="38.3207360" lon="-0.6860980">
        <ele>240.2</ele>
        <time>2017-12-18T13:39:54Z</time>
      </trkpt>
      <trkpt lat="38.3207440" lon="-0.6860740">
        <ele>240.2</ele>
        <time>2017-12-18T13:39:55Z</time>
      </trkpt>
      <trkpt lat="38.3207520" lon="-0.6860540">
        <ele>241.1</ele>
        <time>2017-12-18T13:39:56Z</time>
      </trkpt>
      <trkpt lat="38.3207650" lon="-0.6860320">
        <ele>241.1</ele>
        <time>2017-12-18T13:39:57Z</time>
      </trkpt>
      <trkpt lat="38.3207780" lon="-0.6860070">
        <ele>241.1</ele>
        <time>2017-12-18T13:39:58Z</time>
      </trkpt>
      <trkpt lat="38.3207890" lon="-0.6859770">
        <ele>241.1</ele>
        <time>2017-12-18T13:39:59Z</time>
      </trkpt>
      <trkpt lat="38.3208060" lon="-0.6859530">
        <ele>242.2</ele>
        <time>2017-12-18T13:40:00Z</time>
      </trkpt>
      <trkpt lat="38.3208220" lon="-0.6859350">
        <ele>242.2</ele>
        <time>2017-12-18T13:40:01Z</time>
      </trkpt>
      <trkpt lat="38.3208370" lon="-0.6859230">
        <ele>243.1</ele>
        <time>2017-12-18T13:40:02Z</time>
      </trkpt>
      <trkpt lat="38.3208590" lon="-0.6859080">
        <ele>243.1</ele>
        <time>2017-12-18T13:40:03Z</time>
      </trkpt>
      <trkpt lat="38.3208830" lon="-0.6858930">
        <ele>244.1</ele>
        <time>2017-12-18T13:40:04Z</time>
      </trkpt>
      <trkpt lat="38.3209080" lon="-0.6858770">
        <ele>244.1</ele>
        <time>2017-12-18T13:40:05Z</time>
      </trkpt>
      <trkpt lat="38.3209350" lon="-0.6858620">
        <ele>245.2</ele>
        <time>2017-12-18T13:40:06Z</time>
      </trkpt>
      <trkpt lat="38.3209630" lon="-0.6858500">
        <ele>245.2</ele>
        <time>2017-12-18T13:40:07Z</time>
      </trkpt>
      <trkpt lat="38.3209860" lon="-0.6858400">
        <ele>245.2</ele>
        <time>2017-12-18T13:40:08Z</time>
      </trkpt>
      <trkpt lat="38.3210100" lon="-0.6858280">
        <ele>245.2</ele>
        <time>2017-12-18T13:40:09Z</time>
      </trkpt>
      <trkpt lat="38.3210350" lon="-0.6858160">
        <ele>246.1</ele>
        <time>2017-12-18T13:40:10Z</time>
      </trkpt>
      <trkpt lat="38.3210610" lon="-0.6858040">
        <ele>246.1</ele>
        <time>2017-12-18T13:40:11Z</time>
      </trkpt>
      <trkpt lat="38.3210890" lon="-0.6857950">
        <ele>246.1</ele>
        <time>2017-12-18T13:40:12Z</time>
      </trkpt>
      <trkpt lat="38.3211170" lon="-0.6857880">
        <ele>246.1</ele>
        <time>2017-12-18T13:40:13Z</time>
      </trkpt>
      <trkpt lat="38.3211490" lon="-0.6857890">
        <ele>246.1</ele>
        <time>2017-12-18T13:40:14Z</time>
      </trkpt>
      <trkpt lat="38.3211770" lon="-0.6857890">
        <ele>246.1</ele>
        <time>2017-12-18T13:40:15Z</time>
      </trkpt>
      <trkpt lat="38.3212000" lon="-0.6857950">
        <ele>246.1</ele>
        <time>2017-12-18T13:40:16Z</time>
      </trkpt>
      <trkpt lat="38.3212270" lon="-0.6857960">
        <ele>246.1</ele>
        <time>2017-12-18T13:40:17Z</time>
      </trkpt>
      <trkpt lat="38.3212580" lon="-0.6857930">
        <ele>246.1</ele>
        <time>2017-12-18T13:40:18Z</time>
      </trkpt>
      <trkpt lat="38.3212940" lon="-0.6857870">
        <ele>246.1</ele>
        <time>2017-12-18T13:40:19Z</time>
      </trkpt>
      <trkpt lat="38.3213310" lon="-0.6857860">
        <ele>247.2</ele>
        <time>2017-12-18T13:40:20Z</time>
      </trkpt>
      <trkpt lat="38.3213650" lon="-0.6857950">
        <ele>247.2</ele>
        <time>2017-12-18T13:40:21Z</time>
      </trkpt>
      <trkpt lat="38.3213990" lon="-0.6858060">
        <ele>247.2</ele>
        <time>2017-12-18T13:40:22Z</time>
      </trkpt>
      <trkpt lat="38.3214440" lon="-0.6858240">
        <ele>247.2</ele>
        <time>2017-12-18T13:40:23Z</time>
      </trkpt>
      <trkpt lat="38.3214950" lon="-0.6858490">
        <ele>247.2</ele>
        <time>2017-12-18T13:40:24Z</time>
      </trkpt>
      <trkpt lat="38.3215550" lon="-0.6858770">
        <ele>247.2</ele>
        <time>2017-12-18T13:40:25Z</time>
      </trkpt>
      <trkpt lat="38.3216190" lon="-0.6859090">
        <ele>246.1</ele>
        <time>2017-12-18T13:40:26Z</time>
      </trkpt>
      <trkpt lat="38.3216830" lon="-0.6859490">
        <ele>246.1</ele>
        <time>2017-12-18T13:40:27Z</time>
      </trkpt>
      <trkpt lat="38.3217480" lon="-0.6859840">
        <ele>245.2</ele>
        <time>2017-12-18T13:40:28Z</time>
      </trkpt>
      <trkpt lat="38.3218090" lon="-0.6860180">
        <ele>245.2</ele>
        <time>2017-12-18T13:40:29Z</time>
      </trkpt>
      <trkpt lat="38.3218690" lon="-0.6860510">
        <ele>245.2</ele>
        <time>2017-12-18T13:40:30Z</time>
      </trkpt>
      <trkpt lat="38.3219300" lon="-0.6860810">
        <ele>245.2</ele>
        <time>2017-12-18T13:40:31Z</time>
      </trkpt>
      <trkpt lat="38.3219850" lon="-0.6861140">
        <ele>244.1</ele>
        <time>2017-12-18T13:40:32Z</time>
      </trkpt>
      <trkpt lat="38.3220380" lon="-0.6861440">
        <ele>244.1</ele>
        <time>2017-12-18T13:40:33Z</time>
      </trkpt>
      <trkpt lat="38.3220830" lon="-0.6861670">
        <ele>244.1</ele>
        <time>2017-12-18T13:40:34Z</time>
      </trkpt>
      <trkpt lat="38.3221120" lon="-0.6861830">
        <ele>244.1</ele>
        <time>2017-12-18T13:40:35Z</time>
      </trkpt>
      <trkpt lat="38.3221360" lon="-0.6861910">
        <ele>244.1</ele>
        <time>2017-12-18T13:40:36Z</time>
      </trkpt>
      <trkpt lat="38.3221590" lon="-0.6861930">
        <ele>244.1</ele>
        <time>2017-12-18T13:40:37Z</time>
      </trkpt>
      <trkpt lat="38.3221770" lon="-0.6861860">
        <ele>244.1</ele>
        <time>2017-12-18T13:40:38Z</time>
      </trkpt>
      <trkpt lat="38.3221910" lon="-0.6861870">
        <ele>244.1</ele>
        <time>2017-12-18T13:40:39Z</time>
      </trkpt>
      <trkpt lat="38.3221990" lon="-0.6861940">
        <ele>248.1</ele>
        <time>2017-12-18T13:40:40Z</time>
      </trkpt>
      <trkpt lat="38.3222030" lon="-0.6861960">
        <ele>248.1</ele>
        <time>2017-12-18T13:40:41Z</time>
      </trkpt>
      <trkpt lat="38.3222060" lon="-0.6861990">
        <ele>249.2</ele>
        <time>2017-12-18T13:40:42Z</time>
      </trkpt>
      <trkpt lat="38.3222110" lon="-0.6862050">
        <ele>249.2</ele>
        <time>2017-12-18T13:40:43Z</time>
      </trkpt>
      <trkpt lat="38.3222180" lon="-0.6862130">
        <ele>249.2</ele>
        <time>2017-12-18T13:40:44Z</time>
      </trkpt>
      <trkpt lat="38.3222230" lon="-0.6862180">
        <ele>249.2</ele>
        <time>2017-12-18T13:40:45Z</time>
      </trkpt>
      <trkpt lat="38.3222280" lon="-0.6862210">
        <ele>249.2</ele>
        <time>2017-12-18T13:40:46Z</time>
      </trkpt>
      <trkpt lat="38.3222290" lon="-0.6862220">
        <ele>249.2</ele>
        <time>2017-12-18T13:40:47Z</time>
      </trkpt>
      <trkpt lat="38.3222370" lon="-0.6862250">
        <ele>249.2</ele>
        <time>2017-12-18T13:40:48Z</time>
      </trkpt>
      <trkpt lat="38.3222420" lon="-0.6862280">
        <ele>249.2</ele>
        <time>2017-12-18T13:40:49Z</time>
      </trkpt>
      <trkpt lat="38.3222520" lon="-0.6862300">
        <ele>249.2</ele>
        <time>2017-12-18T13:40:50Z</time>
      </trkpt>
      <trkpt lat="38.3222640" lon="-0.6862360">
        <ele>249.2</ele>
        <time>2017-12-18T13:40:51Z</time>
      </trkpt>
      <trkpt lat="38.3222800" lon="-0.6862440">
        <ele>249.2</ele>
        <time>2017-12-18T13:40:52Z</time>
      </trkpt>
      <trkpt lat="38.3222960" lon="-0.6862490">
        <ele>249.2</ele>
        <time>2017-12-18T13:40:53Z</time>
      </trkpt>
      <trkpt lat="38.3223220" lon="-0.6862540">
        <ele>249.2</ele>
        <time>2017-12-18T13:40:54Z</time>
      </trkpt>
      <trkpt lat="38.3223520" lon="-0.6862600">
        <ele>249.2</ele>
        <time>2017-12-18T13:40:55Z</time>
      </trkpt>
      <trkpt lat="38.3223750" lon="-0.6862700">
        <ele>250.1</ele>
        <time>2017-12-18T13:40:56Z</time>
      </trkpt>
      <trkpt lat="38.3223970" lon="-0.6862810">
        <ele>250.1</ele>
        <time>2017-12-18T13:40:57Z</time>
      </trkpt>
      <trkpt lat="38.3224220" lon="-0.6862900">
        <ele>250.1</ele>
        <time>2017-12-18T13:40:58Z</time>
      </trkpt>
      <trkpt lat="38.3224470" lon="-0.6862990">
        <ele>250.1</ele>
        <time>2017-12-18T13:40:59Z</time>
      </trkpt>
      <trkpt lat="38.3224770" lon="-0.6863140">
        <ele>250.1</ele>
        <time>2017-12-18T13:41:00Z</time>
      </trkpt>
      <trkpt lat="38.3225120" lon="-0.6863310">
        <ele>250.1</ele>
        <time>2017-12-18T13:41:01Z</time>
      </trkpt>
      <trkpt lat="38.3225540" lon="-0.6863420">
        <ele>249.2</ele>
        <time>2017-12-18T13:41:02Z</time>
      </trkpt>
      <trkpt lat="38.3226010" lon="-0.6863590">
        <ele>249.2</ele>
        <time>2017-12-18T13:41:03Z</time>
      </trkpt>
      <trkpt lat="38.3226510" lon="-0.6863820">
        <ele>248.1</ele>
        <time>2017-12-18T13:41:04Z</time>
      </trkpt>
      <trkpt lat="38.3226990" lon="-0.6863990">
        <ele>248.1</ele>
        <time>2017-12-18T13:41:05Z</time>
      </trkpt>
      <trkpt lat="38.3227470" lon="-0.6864360">
        <ele>247.2</ele>
        <time>2017-12-18T13:41:06Z</time>
      </trkpt>
      <trkpt lat="38.3227870" lon="-0.6864890">
        <ele>247.2</ele>
        <time>2017-12-18T13:41:07Z</time>
      </trkpt>
      <trkpt lat="38.3228310" lon="-0.6865430">
        <ele>247.2</ele>
        <time>2017-12-18T13:41:08Z</time>
      </trkpt>
      <trkpt lat="38.3228630" lon="-0.6866120">
        <ele>247.2</ele>
        <time>2017-12-18T13:41:09Z</time>
      </trkpt>
      <trkpt lat="38.3228830" lon="-0.6866910">
        <ele>247.2</ele>
        <time>2017-12-18T13:41:10Z</time>
      </trkpt>
      <trkpt lat="38.3229010" lon="-0.6867710">
        <ele>247.2</ele>
        <time>2017-12-18T13:41:11Z</time>
      </trkpt>
      <trkpt lat="38.3229190" lon="-0.6868500">
        <ele>243.1</ele>
        <time>2017-12-18T13:41:12Z</time>
      </trkpt>
      <trkpt lat="38.3229370" lon="-0.6869260">
        <ele>243.1</ele>
        <time>2017-12-18T13:41:13Z</time>
      </trkpt>
      <trkpt lat="38.3229520" lon="-0.6870020">
        <ele>242.2</ele>
        <time>2017-12-18T13:41:14Z</time>
      </trkpt>
      <trkpt lat="38.3229600" lon="-0.6870800">
        <ele>242.2</ele>
        <time>2017-12-18T13:41:15Z</time>
      </trkpt>
      <trkpt lat="38.3229680" lon="-0.6871580">
        <ele>242.2</ele>
        <time>2017-12-18T13:41:16Z</time>
      </trkpt>
      <trkpt lat="38.3229760" lon="-0.6872400">
        <ele>242.2</ele>
        <time>2017-12-18T13:41:17Z</time>
      </trkpt>
      <trkpt lat="38.3229820" lon="-0.6873240">
        <ele>242.2</ele>
        <time>2017-12-18T13:41:18Z</time>
      </trkpt>
      <trkpt lat="38.3229830" lon="-0.6874090">
        <ele>242.2</ele>
        <time>2017-12-18T13:41:19Z</time>
      </trkpt>
      <trkpt lat="38.3229790" lon="-0.6874950">
        <ele>241.1</ele>
        <time>2017-12-18T13:41:20Z</time>
      </trkpt>
      <trkpt lat="38.3229730" lon="-0.6875810">
        <ele>241.1</ele>
        <time>2017-12-18T13:41:21Z</time>
      </trkpt>
      <trkpt lat="38.3229630" lon="-0.6876690">
        <ele>241.1</ele>
        <time>2017-12-18T13:41:22Z</time>
      </trkpt>
      <trkpt lat="38.3229540" lon="-0.6877540">
        <ele>241.1</ele>
        <time>2017-12-18T13:41:23Z</time>
      </trkpt>
      <trkpt lat="38.3229480" lon="-0.6878380">
        <ele>241.1</ele>
        <time>2017-12-18T13:41:24Z</time>
      </trkpt>
      <trkpt lat="38.3229470" lon="-0.6879210">
        <ele>241.1</ele>
        <time>2017-12-18T13:41:25Z</time>
      </trkpt>
      <trkpt lat="38.3229460" lon="-0.6880050">
        <ele>240.2</ele>
        <time>2017-12-18T13:41:26Z</time>
      </trkpt>
      <trkpt lat="38.3229420" lon="-0.6880920">
        <ele>240.2</ele>
        <time>2017-12-18T13:41:27Z</time>
      </trkpt>
      <trkpt lat="38.3229320" lon="-0.6881820">
        <ele>240.2</ele>
        <time>2017-12-18T13:41:28Z</time>
      </trkpt>
      <trkpt lat="38.3229180" lon="-0.6882730">
        <ele>240.2</ele>
        <time>2017-12-18T13:41:29Z</time>
      </trkpt>
      <trkpt lat="38.3229040" lon="-0.6883650">
        <ele>240.2</ele>
        <time>2017-12-18T13:41:30Z</time>
      </trkpt>
      <trkpt lat="38.3229120" lon="-0.6884550">
        <ele>240.2</ele>
        <time>2017-12-18T13:41:31Z</time>
      </trkpt>
      <trkpt lat="38.3229540" lon="-0.6885200">
        <ele>240.2</ele>
        <time>2017-12-18T13:41:32Z</time>
      </trkpt>
      <trkpt lat="38.3230050" lon="-0.6885790">
        <ele>240.2</ele>
        <time>2017-12-18T13:41:33Z</time>
      </trkpt>
      <trkpt lat="38.3230710" lon="-0.6885950">
        <ele>240.2</ele>
        <time>2017-12-18T13:41:34Z</time>
      </trkpt>
      <trkpt lat="38.3231350" lon="-0.6885970">
        <ele>240.2</ele>
        <time>2017-12-18T13:41:35Z</time>
      </trkpt>
      <trkpt lat="38.3231960" lon="-0.6885800">
        <ele>240.2</ele>
        <time>2017-12-18T13:41:36Z</time>
      </trkpt>
      <trkpt lat="38.3232490" lon="-0.6885470">
        <ele>240.2</ele>
        <time>2017-12-18T13:41:37Z</time>
      </trkpt>
      <trkpt lat="38.3232950" lon="-0.6884950">
        <ele>240.2</ele>
        <time>2017-12-18T13:41:38Z</time>
      </trkpt>
      <trkpt lat="38.3233240" lon="-0.6884260">
        <ele>240.2</ele>
        <time>2017-12-18T13:41:39Z</time>
      </trkpt>
      <trkpt lat="38.3233600" lon="-0.6883570">
        <ele>239.1</ele>
        <time>2017-12-18T13:41:40Z</time>
      </trkpt>
      <trkpt lat="38.3233920" lon="-0.6882880">
        <ele>239.1</ele>
        <time>2017-12-18T13:41:41Z</time>
      </trkpt>
      <trkpt lat="38.3234240" lon="-0.6882140">
        <ele>239.1</ele>
        <time>2017-12-18T13:41:42Z</time>
      </trkpt>
      <trkpt lat="38.3234560" lon="-0.6881390">
        <ele>239.1</ele>
        <time>2017-12-18T13:41:43Z</time>
      </trkpt>
      <trkpt lat="38.3234950" lon="-0.6880690">
        <ele>239.1</ele>
        <time>2017-12-18T13:41:44Z</time>
      </trkpt>
      <trkpt lat="38.3235350" lon="-0.6880030">
        <ele>239.1</ele>
        <time>2017-12-18T13:41:45Z</time>
      </trkpt>
      <trkpt lat="38.3235810" lon="-0.6879430">
        <ele>239.1</ele>
        <time>2017-12-18T13:41:46Z</time>
      </trkpt>
      <trkpt lat="38.3236320" lon="-0.6878880">
        <ele>239.1</ele>
        <time>2017-12-18T13:41:47Z</time>
      </trkpt>
      <trkpt lat="38.3236800" lon="-0.6878310">
        <ele>239.1</ele>
        <time>2017-12-18T13:41:48Z</time>
      </trkpt>
      <trkpt lat="38.3237280" lon="-0.6877700">
        <ele>239.1</ele>
        <time>2017-12-18T13:41:49Z</time>
      </trkpt>
      <trkpt lat="38.3237770" lon="-0.6877080">
        <ele>238.2</ele>
        <time>2017-12-18T13:41:50Z</time>
      </trkpt>
      <trkpt lat="38.3238180" lon="-0.6876390">
        <ele>238.2</ele>
        <time>2017-12-18T13:41:51Z</time>
      </trkpt>
      <trkpt lat="38.3238740" lon="-0.6875670">
        <ele>238.2</ele>
        <time>2017-12-18T13:41:52Z</time>
      </trkpt>
      <trkpt lat="38.3239370" lon="-0.6874990">
        <ele>238.2</ele>
        <time>2017-12-18T13:41:53Z</time>
      </trkpt>
      <trkpt lat="38.3240100" lon="-0.6874400">
        <ele>238.2</ele>
        <time>2017-12-18T13:41:54Z</time>
      </trkpt>
      <trkpt lat="38.3240860" lon="-0.6874060">
        <ele>238.2</ele>
        <time>2017-12-18T13:41:55Z</time>
      </trkpt>
      <trkpt lat="38.3241580" lon="-0.6873780">
        <ele>235.2</ele>
        <time>2017-12-18T13:41:56Z</time>
      </trkpt>
      <trkpt lat="38.3242070" lon="-0.6873240">
        <ele>235.2</ele>
        <time>2017-12-18T13:41:57Z</time>
      </trkpt>
      <trkpt lat="38.3242210" lon="-0.6872410">
        <ele>235.2</ele>
        <time>2017-12-18T13:41:58Z</time>
      </trkpt>
      <trkpt lat="38.3242290" lon="-0.6871560">
        <ele>235.2</ele>
        <time>2017-12-18T13:41:59Z</time>
      </trkpt>
      <trkpt lat="38.3242330" lon="-0.6870750">
        <ele>235.2</ele>
        <time>2017-12-18T13:42:00Z</time>
      </trkpt>
      <trkpt lat="38.3242360" lon="-0.6869960">
        <ele>235.2</ele>
        <time>2017-12-18T13:42:01Z</time>
      </trkpt>
      <trkpt lat="38.3242370" lon="-0.6869100">
        <ele>235.2</ele>
        <time>2017-12-18T13:42:02Z</time>
      </trkpt>
      <trkpt lat="38.3242240" lon="-0.6868250">
        <ele>235.2</ele>
        <time>2017-12-18T13:42:03Z</time>
      </trkpt>
      <trkpt lat="38.3241970" lon="-0.6867510">
        <ele>235.2</ele>
        <time>2017-12-18T13:42:04Z</time>
      </trkpt>
      <trkpt lat="38.3241670" lon="-0.6866760">
        <ele>235.2</ele>
        <time>2017-12-18T13:42:05Z</time>
      </trkpt>
      <trkpt lat="38.3241410" lon="-0.6866000">
        <ele>235.2</ele>
        <time>2017-12-18T13:42:06Z</time>
      </trkpt>
      <trkpt lat="38.3241280" lon="-0.6865250">
        <ele>235.2</ele>
        <time>2017-12-18T13:42:07Z</time>
      </trkpt>
      <trkpt lat="38.3241290" lon="-0.6864470">
        <ele>236.1</ele>
        <time>2017-12-18T13:42:08Z</time>
      </trkpt>
      <trkpt lat="38.3241600" lon="-0.6863810">
        <ele>236.1</ele>
        <time>2017-12-18T13:42:09Z</time>
      </trkpt>
      <trkpt lat="38.3241940" lon="-0.6863180">
        <ele>236.1</ele>
        <time>2017-12-18T13:42:10Z</time>
      </trkpt>
      <trkpt lat="38.3242320" lon="-0.6862580">
        <ele>236.1</ele>
        <time>2017-12-18T13:42:11Z</time>
      </trkpt>
      <trkpt lat="38.3242710" lon="-0.6861940">
        <ele>236.1</ele>
        <time>2017-12-18T13:42:12Z</time>
      </trkpt>
      <trkpt lat="38.3243150" lon="-0.6861240">
        <ele>236.1</ele>
        <time>2017-12-18T13:42:13Z</time>
      </trkpt>
      <trkpt lat="38.3243560" lon="-0.6860470">
        <ele>236.1</ele>
        <time>2017-12-18T13:42:14Z</time>
      </trkpt>
      <trkpt lat="38.3244000" lon="-0.6859700">
        <ele>236.1</ele>
        <time>2017-12-18T13:42:15Z</time>
      </trkpt>
      <trkpt lat="38.3244510" lon="-0.6859010">
        <ele>235.2</ele>
        <time>2017-12-18T13:42:16Z</time>
      </trkpt>
      <trkpt lat="38.3245160" lon="-0.6858460">
        <ele>235.2</ele>
        <time>2017-12-18T13:42:17Z</time>
      </trkpt>
      <trkpt lat="38.3245880" lon="-0.6858020">
        <ele>235.2</ele>
        <time>2017-12-18T13:42:18Z</time>
      </trkpt>
      <trkpt lat="38.3246610" lon="-0.6857570">
        <ele>235.2</ele>
        <time>2017-12-18T13:42:19Z</time>
      </trkpt>
      <trkpt lat="38.3247320" lon="-0.6857000">
        <ele>234.1</ele>
        <time>2017-12-18T13:42:20Z</time>
      </trkpt>
      <trkpt lat="38.3247940" lon="-0.6856290">
        <ele>234.1</ele>
        <time>2017-12-18T13:42:21Z</time>
      </trkpt>
      <trkpt lat="38.3248420" lon="-0.6855430">
        <ele>233.2</ele>
        <time>2017-12-18T13:42:22Z</time>
      </trkpt>
      <trkpt lat="38.3248750" lon="-0.6854480">
        <ele>233.2</ele>
        <time>2017-12-18T13:42:23Z</time>
      </trkpt>
      <trkpt lat="38.3249040" lon="-0.6853500">
        <ele>233.2</ele>
        <time>2017-12-18T13:42:24Z</time>
      </trkpt>
      <trkpt lat="38.3249290" lon="-0.6852500">
        <ele>233.2</ele>
        <time>2017-12-18T13:42:25Z</time>
      </trkpt>
      <trkpt lat="38.3249480" lon="-0.6851490">
        <ele>233.2</ele>
        <time>2017-12-18T13:42:26Z</time>
      </trkpt>
      <trkpt lat="38.3249640" lon="-0.6850520">
        <ele>233.2</ele>
        <time>2017-12-18T13:42:27Z</time>
      </trkpt>
      <trkpt lat="38.3249800" lon="-0.6849560">
        <ele>233.2</ele>
        <time>2017-12-18T13:42:28Z</time>
      </trkpt>
      <trkpt lat="38.3249980" lon="-0.6848630">
        <ele>233.2</ele>
        <time>2017-12-18T13:42:29Z</time>
      </trkpt>
      <trkpt lat="38.3250170" lon="-0.6847750">
        <ele>233.2</ele>
        <time>2017-12-18T13:42:30Z</time>
      </trkpt>
      <trkpt lat="38.3250320" lon="-0.6846940">
        <ele>233.2</ele>
        <time>2017-12-18T13:42:31Z</time>
      </trkpt>
      <trkpt lat="38.3250450" lon="-0.6846250">
        <ele>234.1</ele>
        <time>2017-12-18T13:42:32Z</time>
      </trkpt>
      <trkpt lat="38.3250650" lon="-0.6845810">
        <ele>234.1</ele>
        <time>2017-12-18T13:42:33Z</time>
      </trkpt>
      <trkpt lat="38.3250900" lon="-0.6845550">
        <ele>234.1</ele>
        <time>2017-12-18T13:42:34Z</time>
      </trkpt>
      <trkpt lat="38.3251180" lon="-0.6845490">
        <ele>234.1</ele>
        <time>2017-12-18T13:42:35Z</time>
      </trkpt>
      <trkpt lat="38.3251460" lon="-0.6845490">
        <ele>234.1</ele>
        <time>2017-12-18T13:42:36Z</time>
      </trkpt>
      <trkpt lat="38.3251750" lon="-0.6845570">
        <ele>234.1</ele>
        <time>2017-12-18T13:42:37Z</time>
      </trkpt>
      <trkpt lat="38.3252050" lon="-0.6845670">
        <ele>234.1</ele>
        <time>2017-12-18T13:42:38Z</time>
      </trkpt>
      <trkpt lat="38.3252360" lon="-0.6845820">
        <ele>234.1</ele>
        <time>2017-12-18T13:42:39Z</time>
      </trkpt>
      <trkpt lat="38.3252670" lon="-0.6845990">
        <ele>235.2</ele>
        <time>2017-12-18T13:42:40Z</time>
      </trkpt>
      <trkpt lat="38.3252970" lon="-0.6846170">
        <ele>235.2</ele>
        <time>2017-12-18T13:42:41Z</time>
      </trkpt>
      <trkpt lat="38.3253290" lon="-0.6846340">
        <ele>235.2</ele>
        <time>2017-12-18T13:42:42Z</time>
      </trkpt>
      <trkpt lat="38.3253610" lon="-0.6846550">
        <ele>235.2</ele>
        <time>2017-12-18T13:42:43Z</time>
      </trkpt>
      <trkpt lat="38.3253940" lon="-0.6846780">
        <ele>235.2</ele>
        <time>2017-12-18T13:42:44Z</time>
      </trkpt>
      <trkpt lat="38.3254260" lon="-0.6847020">
        <ele>235.2</ele>
        <time>2017-12-18T13:42:45Z</time>
      </trkpt>
      <trkpt lat="38.3254570" lon="-0.6847300">
        <ele>235.2</ele>
        <time>2017-12-18T13:42:46Z</time>
      </trkpt>
      <trkpt lat="38.3254900" lon="-0.6847560">
        <ele>235.2</ele>
        <time>2017-12-18T13:42:47Z</time>
      </trkpt>
      <trkpt lat="38.3255220" lon="-0.6847820">
        <ele>235.2</ele>
        <time>2017-12-18T13:42:48Z</time>
      </trkpt>
      <trkpt lat="38.3255560" lon="-0.6848080">
        <ele>235.2</ele>
        <time>2017-12-18T13:42:49Z</time>
      </trkpt>
      <trkpt lat="38.3255890" lon="-0.6848340">
        <ele>235.2</ele>
        <time>2017-12-18T13:42:50Z</time>
      </trkpt>
      <trkpt lat="38.3256220" lon="-0.6848600">
        <ele>235.2</ele>
        <time>2017-12-18T13:42:51Z</time>
      </trkpt>
      <trkpt lat="38.3256550" lon="-0.6848850">
        <ele>235.2</ele>
        <time>2017-12-18T13:42:52Z</time>
      </trkpt>
      <trkpt lat="38.3256880" lon="-0.6849090">
        <ele>235.2</ele>
        <time>2017-12-18T13:42:53Z</time>
      </trkpt>
      <trkpt lat="38.3257200" lon="-0.6849340">
        <ele>237.1</ele>
        <time>2017-12-18T13:42:54Z</time>
      </trkpt>
      <trkpt lat="38.3257520" lon="-0.6849590">
        <ele>237.1</ele>
        <time>2017-12-18T13:42:55Z</time>
      </trkpt>
      <trkpt lat="38.3257840" lon="-0.6849830">
        <ele>237.1</ele>
        <time>2017-12-18T13:42:56Z</time>
      </trkpt>
      <trkpt lat="38.3258170" lon="-0.6850060">
        <ele>237.1</ele>
        <time>2017-12-18T13:42:57Z</time>
      </trkpt>
      <trkpt lat="38.3258480" lon="-0.6850310">
        <ele>237.1</ele>
        <time>2017-12-18T13:42:58Z</time>
      </trkpt>
      <trkpt lat="38.3258790" lon="-0.6850560">
        <ele>237.1</ele>
        <time>2017-12-18T13:42:59Z</time>
      </trkpt>
      <trkpt lat="38.3259110" lon="-0.6850800">
        <ele>237.1</ele>
        <time>2017-12-18T13:43:00Z</time>
      </trkpt>
      <trkpt lat="38.3259420" lon="-0.6851040">
        <ele>237.1</ele>
        <time>2017-12-18T13:43:01Z</time>
      </trkpt>
      <trkpt lat="38.3259710" lon="-0.6851280">
        <ele>237.1</ele>
        <time>2017-12-18T13:43:02Z</time>
      </trkpt>
      <trkpt lat="38.3260010" lon="-0.6851490">
        <ele>237.1</ele>
        <time>2017-12-18T13:43:03Z</time>
      </trkpt>
      <trkpt lat="38.3260320" lon="-0.6851670">
        <ele>239.1</ele>
        <time>2017-12-18T13:43:04Z</time>
      </trkpt>
      <trkpt lat="38.3260630" lon="-0.6851870">
        <ele>239.1</ele>
        <time>2017-12-18T13:43:05Z</time>
      </trkpt>
      <trkpt lat="38.3260940" lon="-0.6852090">
        <ele>239.1</ele>
        <time>2017-12-18T13:43:06Z</time>
      </trkpt>
      <trkpt lat="38.3261240" lon="-0.6852330">
        <ele>239.1</ele>
        <time>2017-12-18T13:43:07Z</time>
      </trkpt>
      <trkpt lat="38.3261540" lon="-0.6852550">
        <ele>239.1</ele>
        <time>2017-12-18T13:43:08Z</time>
      </trkpt>
      <trkpt lat="38.3261830" lon="-0.6852790">
        <ele>239.1</ele>
        <time>2017-12-18T13:43:09Z</time>
      </trkpt>
      <trkpt lat="38.3262130" lon="-0.6852990">
        <ele>240.2</ele>
        <time>2017-12-18T13:43:10Z</time>
      </trkpt>
      <trkpt lat="38.3262420" lon="-0.6853200">
        <ele>240.2</ele>
        <time>2017-12-18T13:43:11Z</time>
      </trkpt>
      <trkpt lat="38.3262710" lon="-0.6853400">
        <ele>241.1</ele>
        <time>2017-12-18T13:43:12Z</time>
      </trkpt>
      <trkpt lat="38.3262970" lon="-0.6853610">
        <ele>241.1</ele>
        <time>2017-12-18T13:43:13Z</time>
      </trkpt>
      <trkpt lat="38.3263260" lon="-0.6853840">
        <ele>241.1</ele>
        <time>2017-12-18T13:43:14Z</time>
      </trkpt>
      <trkpt lat="38.3263540" lon="-0.6854080">
        <ele>241.1</ele>
        <time>2017-12-18T13:43:15Z</time>
      </trkpt>
      <trkpt lat="38.3263830" lon="-0.6854310">
        <ele>242.2</ele>
        <time>2017-12-18T13:43:16Z</time>
      </trkpt>
      <trkpt lat="38.3264130" lon="-0.6854530">
        <ele>242.2</ele>
        <time>2017-12-18T13:43:17Z</time>
      </trkpt>
      <trkpt lat="38.3264430" lon="-0.6854760">
        <ele>242.2</ele>
        <time>2017-12-18T13:43:18Z</time>
      </trkpt>
      <trkpt lat="38.3264740" lon="-0.6855000">
        <ele>242.2</ele>
        <time>2017-12-18T13:43:19Z</time>
      </trkpt>
      <trkpt lat="38.3265060" lon="-0.6855220">
        <ele>243.1</ele>
        <time>2017-12-18T13:43:20Z</time>
      </trkpt>
      <trkpt lat="38.3265380" lon="-0.6855440">
        <ele>243.1</ele>
        <time>2017-12-18T13:43:21Z</time>
      </trkpt>
      <trkpt lat="38.3265720" lon="-0.6855660">
        <ele>243.1</ele>
        <time>2017-12-18T13:43:22Z</time>
      </trkpt>
      <trkpt lat="38.3266040" lon="-0.6855880">
        <ele>243.1</ele>
        <time>2017-12-18T13:43:23Z</time>
      </trkpt>
      <trkpt lat="38.3266350" lon="-0.6856120">
        <ele>244.1</ele>
        <time>2017-12-18T13:43:24Z</time>
      </trkpt>
      <trkpt lat="38.3266650" lon="-0.6856350">
        <ele>244.1</ele>
        <time>2017-12-18T13:43:25Z</time>
      </trkpt>
      <trkpt lat="38.3266950" lon="-0.6856580">
        <ele>246.1</ele>
        <time>2017-12-18T13:43:26Z</time>
      </trkpt>
      <trkpt lat="38.3267250" lon="-0.6856820">
        <ele>246.1</ele>
        <time>2017-12-18T13:43:27Z</time>
      </trkpt>
      <trkpt lat="38.3267560" lon="-0.6857040">
        <ele>246.1</ele>
        <time>2017-12-18T13:43:28Z</time>
      </trkpt>
      <trkpt lat="38.3267850" lon="-0.6857270">
        <ele>246.1</ele>
        <time>2017-12-18T13:43:29Z</time>
      </trkpt>
      <trkpt lat="38.3268130" lon="-0.6857510">
        <ele>246.1</ele>
        <time>2017-12-18T13:43:30Z</time>
      </trkpt>
      <trkpt lat="38.3268430" lon="-0.6857740">
        <ele>246.1</ele>
        <time>2017-12-18T13:43:31Z</time>
      </trkpt>
      <trkpt lat="38.3268730" lon="-0.6857960">
        <ele>247.2</ele>
        <time>2017-12-18T13:43:32Z</time>
      </trkpt>
      <trkpt lat="38.3269030" lon="-0.6858200">
        <ele>247.2</ele>
        <time>2017-12-18T13:43:33Z</time>
      </trkpt>
      <trkpt lat="38.3269320" lon="-0.6858440">
        <ele>247.2</ele>
        <time>2017-12-18T13:43:34Z</time>
      </trkpt>
      <trkpt lat="38.3269600" lon="-0.6858680">
        <ele>247.2</ele>
        <time>2017-12-18T13:43:35Z</time>
      </trkpt>
      <trkpt lat="38.3269880" lon="-0.6858910">
        <ele>247.2</ele>
        <time>2017-12-18T13:43:36Z</time>
      </trkpt>
      <trkpt lat="38.3270170" lon="-0.6859130">
        <ele>247.2</ele>
        <time>2017-12-18T13:43:37Z</time>
      </trkpt>
      <trkpt lat="38.3270450" lon="-0.6859350">
        <ele>248.1</ele>
        <time>2017-12-18T13:43:38Z</time>
      </trkpt>
      <trkpt lat="38.3270730" lon="-0.6859560">
        <ele>248.1</ele>
        <time>2017-12-18T13:43:39Z</time>
      </trkpt>
      <trkpt lat="38.3271020" lon="-0.6859770">
        <ele>248.1</ele>
        <time>2017-12-18T13:43:40Z</time>
      </trkpt>
      <trkpt lat="38.3271300" lon="-0.6859980">
        <ele>248.1</ele>
        <time>2017-12-18T13:43:41Z</time>
      </trkpt>
      <trkpt lat="38.3271580" lon="-0.6860190">
        <ele>249.2</ele>
        <time>2017-12-18T13:43:42Z</time>
      </trkpt>
      <trkpt lat="38.3271860" lon="-0.6860400">
        <ele>249.2</ele>
        <time>2017-12-18T13:43:43Z</time>
      </trkpt>
      <trkpt lat="38.3272140" lon="-0.6860600">
        <ele>249.2</ele>
        <time>2017-12-18T13:43:44Z</time>
      </trkpt>
      <trkpt lat="38.3272430" lon="-0.6860800">
        <ele>249.2</ele>
        <time>2017-12-18T13:43:45Z</time>
      </trkpt>
      <trkpt lat="38.3272710" lon="-0.6861020">
        <ele>249.2</ele>
        <time>2017-12-18T13:43:46Z</time>
      </trkpt>
      <trkpt lat="38.3273010" lon="-0.6861230">
        <ele>249.2</ele>
        <time>2017-12-18T13:43:47Z</time>
      </trkpt>
      <trkpt lat="38.3273300" lon="-0.6861440">
        <ele>249.2</ele>
        <time>2017-12-18T13:43:48Z</time>
      </trkpt>
      <trkpt lat="38.3273590" lon="-0.6861660">
        <ele>249.2</ele>
        <time>2017-12-18T13:43:49Z</time>
      </trkpt>
      <trkpt lat="38.3273890" lon="-0.6861870">
        <ele>251.2</ele>
        <time>2017-12-18T13:43:50Z</time>
      </trkpt>
      <trkpt lat="38.3274190" lon="-0.6862090">
        <ele>251.2</ele>
        <time>2017-12-18T13:43:51Z</time>
      </trkpt>
      <trkpt lat="38.3274490" lon="-0.6862320">
        <ele>251.2</ele>
        <time>2017-12-18T13:43:52Z</time>
      </trkpt>
      <trkpt lat="38.3274790" lon="-0.6862570">
        <ele>251.2</ele>
        <time>2017-12-18T13:43:53Z</time>
      </trkpt>
      <trkpt lat="38.3275090" lon="-0.6862810">
        <ele>251.2</ele>
        <time>2017-12-18T13:43:54Z</time>
      </trkpt>
      <trkpt lat="38.3275400" lon="-0.6863040">
        <ele>251.2</ele>
        <time>2017-12-18T13:43:55Z</time>
      </trkpt>
      <trkpt lat="38.3275710" lon="-0.6863260">
        <ele>251.2</ele>
        <time>2017-12-18T13:43:56Z</time>
      </trkpt>
      <trkpt lat="38.3276030" lon="-0.6863490">
        <ele>251.2</ele>
        <time>2017-12-18T13:43:57Z</time>
      </trkpt>
      <trkpt lat="38.3276350" lon="-0.6863730">
        <ele>251.2</ele>
        <time>2017-12-18T13:43:58Z</time>
      </trkpt>
      <trkpt lat="38.3276660" lon="-0.6863990">
        <ele>251.2</ele>
        <time>2017-12-18T13:43:59Z</time>
      </trkpt>
      <trkpt lat="38.3276980" lon="-0.6864230">
        <ele>251.2</ele>
        <time>2017-12-18T13:44:00Z</time>
      </trkpt>
      <trkpt lat="38.3277290" lon="-0.6864470">
        <ele>251.2</ele>
        <time>2017-12-18T13:44:01Z</time>
      </trkpt>
      <trkpt lat="38.3277590" lon="-0.6864720">
        <ele>252.1</ele>
        <time>2017-12-18T13:44:02Z</time>
      </trkpt>
      <trkpt lat="38.3277900" lon="-0.6864960">
        <ele>252.1</ele>
        <time>2017-12-18T13:44:03Z</time>
      </trkpt>
      <trkpt lat="38.3278210" lon="-0.6865200">
        <ele>252.1</ele>
        <time>2017-12-18T13:44:04Z</time>
      </trkpt>
      <trkpt lat="38.3278530" lon="-0.6865420">
        <ele>252.1</ele>
        <time>2017-12-18T13:44:05Z</time>
      </trkpt>
      <trkpt lat="38.3278840" lon="-0.6865640">
        <ele>253.1</ele>
        <time>2017-12-18T13:44:06Z</time>
      </trkpt>
      <trkpt lat="38.3279150" lon="-0.6865870">
        <ele>253.1</ele>
        <time>2017-12-18T13:44:07Z</time>
      </trkpt>
      <trkpt lat="38.3279460" lon="-0.6866090">
        <ele>253.1</ele>
        <time>2017-12-18T13:44:08Z</time>
      </trkpt>
      <trkpt lat="38.3279730" lon="-0.6866340">
        <ele>253.1</ele>
        <time>2017-12-18T13:44:09Z</time>
      </trkpt>
      <trkpt lat="38.3280000" lon="-0.6866610">
        <ele>253.1</ele>
        <time>2017-12-18T13:44:10Z</time>
      </trkpt>
      <trkpt lat="38.3280270" lon="-0.6866870">
        <ele>253.1</ele>
        <time>2017-12-18T13:44:11Z</time>
      </trkpt>
      <trkpt lat="38.3280570" lon="-0.6867090">
        <ele>254.2</ele>
        <time>2017-12-18T13:44:12Z</time>
      </trkpt>
      <trkpt lat="38.3280890" lon="-0.6867300">
        <ele>254.2</ele>
        <time>2017-12-18T13:44:13Z</time>
      </trkpt>
      <trkpt lat="38.3281200" lon="-0.6867510">
        <ele>254.2</ele>
        <time>2017-12-18T13:44:14Z</time>
      </trkpt>
      <trkpt lat="38.3281510" lon="-0.6867720">
        <ele>254.2</ele>
        <time>2017-12-18T13:44:15Z</time>
      </trkpt>
      <trkpt lat="38.3281820" lon="-0.6867940">
        <ele>255.1</ele>
        <time>2017-12-18T13:44:16Z</time>
      </trkpt>
      <trkpt lat="38.3282130" lon="-0.6868150">
        <ele>255.1</ele>
        <time>2017-12-18T13:44:17Z</time>
      </trkpt>
      <trkpt lat="38.3282440" lon="-0.6868380">
        <ele>255.1</ele>
        <time>2017-12-18T13:44:18Z</time>
      </trkpt>
      <trkpt lat="38.3282750" lon="-0.6868620">
        <ele>255.1</ele>
        <time>2017-12-18T13:44:19Z</time>
      </trkpt>
      <trkpt lat="38.3283060" lon="-0.6868860">
        <ele>256.2</ele>
        <time>2017-12-18T13:44:20Z</time>
      </trkpt>
      <trkpt lat="38.3283370" lon="-0.6869110">
        <ele>256.2</ele>
        <time>2017-12-18T13:44:21Z</time>
      </trkpt>
      <trkpt lat="38.3283690" lon="-0.6869350">
        <ele>256.2</ele>
        <time>2017-12-18T13:44:22Z</time>
      </trkpt>
      <trkpt lat="38.3284010" lon="-0.6869590">
        <ele>256.2</ele>
        <time>2017-12-18T13:44:23Z</time>
      </trkpt>
      <trkpt lat="38.3284320" lon="-0.6869850">
        <ele>256.2</ele>
        <time>2017-12-18T13:44:24Z</time>
      </trkpt>
      <trkpt lat="38.3284640" lon="-0.6870120">
        <ele>256.2</ele>
        <time>2017-12-18T13:44:25Z</time>
      </trkpt>
      <trkpt lat="38.3284970" lon="-0.6870380">
        <ele>256.2</ele>
        <time>2017-12-18T13:44:26Z</time>
      </trkpt>
      <trkpt lat="38.3285320" lon="-0.6870660">
        <ele>256.2</ele>
        <time>2017-12-18T13:44:27Z</time>
      </trkpt>
      <trkpt lat="38.3285690" lon="-0.6870950">
        <ele>256.2</ele>
        <time>2017-12-18T13:44:28Z</time>
      </trkpt>
      <trkpt lat="38.3286070" lon="-0.6871250">
        <ele>256.2</ele>
        <time>2017-12-18T13:44:29Z</time>
      </trkpt>
      <trkpt lat="38.3286460" lon="-0.6871550">
        <ele>256.2</ele>
        <time>2017-12-18T13:44:30Z</time>
      </trkpt>
      <trkpt lat="38.3286850" lon="-0.6871850">
        <ele>256.2</ele>
        <time>2017-12-18T13:44:31Z</time>
      </trkpt>
      <trkpt lat="38.3287240" lon="-0.6872150">
        <ele>256.2</ele>
        <time>2017-12-18T13:44:32Z</time>
      </trkpt>
      <trkpt lat="38.3287630" lon="-0.6872460">
        <ele>256.2</ele>
        <time>2017-12-18T13:44:33Z</time>
      </trkpt>
      <trkpt lat="38.3288030" lon="-0.6872750">
        <ele>256.2</ele>
        <time>2017-12-18T13:44:34Z</time>
      </trkpt>
      <trkpt lat="38.3288410" lon="-0.6873030">
        <ele>256.2</ele>
        <time>2017-12-18T13:44:35Z</time>
      </trkpt>
      <trkpt lat="38.3288780" lon="-0.6873320">
        <ele>256.2</ele>
        <time>2017-12-18T13:44:36Z</time>
      </trkpt>
      <trkpt lat="38.3289160" lon="-0.6873590">
        <ele>256.2</ele>
        <time>2017-12-18T13:44:37Z</time>
      </trkpt>
      <trkpt lat="38.3289520" lon="-0.6873870">
        <ele>257.1</ele>
        <time>2017-12-18T13:44:38Z</time>
      </trkpt>
      <trkpt lat="38.3289870" lon="-0.6874160">
        <ele>257.1</ele>
        <time>2017-12-18T13:44:39Z</time>
      </trkpt>
      <trkpt lat="38.3290220" lon="-0.6874430">
        <ele>257.1</ele>
        <time>2017-12-18T13:44:40Z</time>
      </trkpt>
      <trkpt lat="38.3290570" lon="-0.6874680">
        <ele>257.1</ele>
        <time>2017-12-18T13:44:41Z</time>
      </trkpt>
      <trkpt lat="38.3290920" lon="-0.6874910">
        <ele>258.2</ele>
        <time>2017-12-18T13:44:42Z</time>
      </trkpt>
      <trkpt lat="38.3291260" lon="-0.6875160">
        <ele>258.2</ele>
        <time>2017-12-18T13:44:43Z</time>
      </trkpt>
      <trkpt lat="38.3291600" lon="-0.6875400">
        <ele>258.2</ele>
        <time>2017-12-18T13:44:44Z</time>
      </trkpt>
      <trkpt lat="38.3291930" lon="-0.6875640">
        <ele>258.2</ele>
        <time>2017-12-18T13:44:45Z</time>
      </trkpt>
      <trkpt lat="38.3292250" lon="-0.6875870">
        <ele>259.1</ele>
        <time>2017-12-18T13:44:46Z</time>
      </trkpt>
      <trkpt lat="38.3292580" lon="-0.6876120">
        <ele>259.1</ele>
        <time>2017-12-18T13:44:47Z</time>
      </trkpt>
      <trkpt lat="38.3292890" lon="-0.6876370">
        <ele>259.1</ele>
        <time>2017-12-18T13:44:48Z</time>
      </trkpt>
      <trkpt lat="38.3293210" lon="-0.6876610">
        <ele>259.1</ele>
        <time>2017-12-18T13:44:49Z</time>
      </trkpt>
      <trkpt lat="38.3293530" lon="-0.6876860">
        <ele>260.2</ele>
        <time>2017-12-18T13:44:50Z</time>
      </trkpt>
      <trkpt lat="38.3293840" lon="-0.6877110">
        <ele>260.2</ele>
        <time>2017-12-18T13:44:51Z</time>
      </trkpt>
      <trkpt lat="38.3294140" lon="-0.6877340">
        <ele>261.2</ele>
        <time>2017-12-18T13:44:52Z</time>
      </trkpt>
      <trkpt lat="38.3294450" lon="-0.6877580">
        <ele>261.2</ele>
        <time>2017-12-18T13:44:53Z</time>
      </trkpt>
      <trkpt lat="38.3294750" lon="-0.6877830">
        <ele>261.2</ele>
        <time>2017-12-18T13:44:54Z</time>
      </trkpt>
      <trkpt lat="38.3295050" lon="-0.6878050">
        <ele>261.2</ele>
        <time>2017-12-18T13:44:55Z</time>
      </trkpt>
      <trkpt lat="38.3295350" lon="-0.6878290">
        <ele>262.1</ele>
        <time>2017-12-18T13:44:56Z</time>
      </trkpt>
      <trkpt lat="38.3295640" lon="-0.6878530">
        <ele>262.1</ele>
        <time>2017-12-18T13:44:57Z</time>
      </trkpt>
      <trkpt lat="38.3295950" lon="-0.6878780">
        <ele>262.1</ele>
        <time>2017-12-18T13:44:58Z</time>
      </trkpt>
      <trkpt lat="38.3296260" lon="-0.6879020">
        <ele>262.1</ele>
        <time>2017-12-18T13:44:59Z</time>
      </trkpt>
      <trkpt lat="38.3296580" lon="-0.6879270">
        <ele>262.1</ele>
        <time>2017-12-18T13:45:00Z</time>
      </trkpt>
      <trkpt lat="38.3296890" lon="-0.6879550">
        <ele>262.1</ele>
        <time>2017-12-18T13:45:01Z</time>
      </trkpt>
      <trkpt lat="38.3297210" lon="-0.6879840">
        <ele>262.1</ele>
        <time>2017-12-18T13:45:02Z</time>
      </trkpt>
      <trkpt lat="38.3297540" lon="-0.6880130">
        <ele>262.1</ele>
        <time>2017-12-18T13:45:03Z</time>
      </trkpt>
      <trkpt lat="38.3297870" lon="-0.6880430">
        <ele>262.1</ele>
        <time>2017-12-18T13:45:04Z</time>
      </trkpt>
      <trkpt lat="38.3298200" lon="-0.6880760">
        <ele>262.1</ele>
        <time>2017-12-18T13:45:05Z</time>
      </trkpt>
      <trkpt lat="38.3298550" lon="-0.6881100">
        <ele>262.1</ele>
        <time>2017-12-18T13:45:06Z</time>
      </trkpt>
      <trkpt lat="38.3298900" lon="-0.6881460">
        <ele>262.1</ele>
        <time>2017-12-18T13:45:07Z</time>
      </trkpt>
      <trkpt lat="38.3299240" lon="-0.6881840">
        <ele>262.1</ele>
        <time>2017-12-18T13:45:08Z</time>
      </trkpt>
      <trkpt lat="38.3299570" lon="-0.6882220">
        <ele>262.1</ele>
        <time>2017-12-18T13:45:09Z</time>
      </trkpt>
      <trkpt lat="38.3299880" lon="-0.6882630">
        <ele>262.1</ele>
        <time>2017-12-18T13:45:10Z</time>
      </trkpt>
      <trkpt lat="38.3300190" lon="-0.6883030">
        <ele>262.1</ele>
        <time>2017-12-18T13:45:11Z</time>
      </trkpt>
      <trkpt lat="38.3300490" lon="-0.6883430">
        <ele>262.1</ele>
        <time>2017-12-18T13:45:12Z</time>
      </trkpt>
      <trkpt lat="38.3300780" lon="-0.6883830">
        <ele>262.1</ele>
        <time>2017-12-18T13:45:13Z</time>
      </trkpt>
      <trkpt lat="38.3301070" lon="-0.6884220">
        <ele>262.1</ele>
        <time>2017-12-18T13:45:14Z</time>
      </trkpt>
      <trkpt lat="38.3301360" lon="-0.6884590">
        <ele>262.1</ele>
        <time>2017-12-18T13:45:15Z</time>
      </trkpt>
      <trkpt lat="38.3301650" lon="-0.6884970">
        <ele>262.1</ele>
        <time>2017-12-18T13:45:16Z</time>
      </trkpt>
      <trkpt lat="38.3301930" lon="-0.6885370">
        <ele>262.1</ele>
        <time>2017-12-18T13:45:17Z</time>
      </trkpt>
      <trkpt lat="38.3302200" lon="-0.6885750">
        <ele>263.2</ele>
        <time>2017-12-18T13:45:18Z</time>
      </trkpt>
      <trkpt lat="38.3302470" lon="-0.6886140">
        <ele>263.2</ele>
        <time>2017-12-18T13:45:19Z</time>
      </trkpt>
      <trkpt lat="38.3302740" lon="-0.6886530">
        <ele>263.2</ele>
        <time>2017-12-18T13:45:20Z</time>
      </trkpt>
      <trkpt lat="38.3303010" lon="-0.6886940">
        <ele>263.2</ele>
        <time>2017-12-18T13:45:21Z</time>
      </trkpt>
      <trkpt lat="38.3303270" lon="-0.6887350">
        <ele>264.1</ele>
        <time>2017-12-18T13:45:22Z</time>
      </trkpt>
      <trkpt lat="38.3303530" lon="-0.6887770">
        <ele>264.1</ele>
        <time>2017-12-18T13:45:23Z</time>
      </trkpt>
      <trkpt lat="38.3303790" lon="-0.6888200">
        <ele>264.1</ele>
        <time>2017-12-18T13:45:24Z</time>
      </trkpt>
      <trkpt lat="38.3304040" lon="-0.6888630">
        <ele>264.1</ele>
        <time>2017-12-18T13:45:25Z</time>
      </trkpt>
      <trkpt lat="38.3304280" lon="-0.6889080">
        <ele>264.1</ele>
        <time>2017-12-18T13:45:26Z</time>
      </trkpt>
      <trkpt lat="38.3304540" lon="-0.6889530">
        <ele>264.1</ele>
        <time>2017-12-18T13:45:27Z</time>
      </trkpt>
      <trkpt lat="38.3304780" lon="-0.6889990">
        <ele>265.2</ele>
        <time>2017-12-18T13:45:28Z</time>
      </trkpt>
      <trkpt lat="38.3305010" lon="-0.6890470">
        <ele>265.2</ele>
        <time>2017-12-18T13:45:29Z</time>
      </trkpt>
      <trkpt lat="38.3305220" lon="-0.6890950">
        <ele>265.2</ele>
        <time>2017-12-18T13:45:30Z</time>
      </trkpt>
      <trkpt lat="38.3305420" lon="-0.6891440">
        <ele>265.2</ele>
        <time>2017-12-18T13:45:31Z</time>
      </trkpt>
      <trkpt lat="38.3305600" lon="-0.6891930">
        <ele>265.2</ele>
        <time>2017-12-18T13:45:32Z</time>
      </trkpt>
      <trkpt lat="38.3305770" lon="-0.6892440">
        <ele>265.2</ele>
        <time>2017-12-18T13:45:33Z</time>
      </trkpt>
      <trkpt lat="38.3305930" lon="-0.6892950">
        <ele>265.2</ele>
        <time>2017-12-18T13:45:34Z</time>
      </trkpt>
      <trkpt lat="38.3306080" lon="-0.6893470">
        <ele>265.2</ele>
        <time>2017-12-18T13:45:35Z</time>
      </trkpt>
      <trkpt lat="38.3306240" lon="-0.6893990">
        <ele>265.2</ele>
        <time>2017-12-18T13:45:36Z</time>
      </trkpt>
      <trkpt lat="38.3306410" lon="-0.6894490">
        <ele>265.2</ele>
        <time>2017-12-18T13:45:37Z</time>
      </trkpt>
      <trkpt lat="38.3306570" lon="-0.6894990">
        <ele>265.2</ele>
        <time>2017-12-18T13:45:38Z</time>
      </trkpt>
      <trkpt lat="38.3306720" lon="-0.6895500">
        <ele>265.2</ele>
        <time>2017-12-18T13:45:39Z</time>
      </trkpt>
      <trkpt lat="38.3306890" lon="-0.6895980">
        <ele>265.2</ele>
        <time>2017-12-18T13:45:40Z</time>
      </trkpt>
      <trkpt lat="38.3307060" lon="-0.6896450">
        <ele>265.2</ele>
        <time>2017-12-18T13:45:41Z</time>
      </trkpt>
      <trkpt lat="38.3307260" lon="-0.6896910">
        <ele>265.2</ele>
        <time>2017-12-18T13:45:42Z</time>
      </trkpt>
      <trkpt lat="38.3307460" lon="-0.6897340">
        <ele>265.2</ele>
        <time>2017-12-18T13:45:43Z</time>
      </trkpt>
      <trkpt lat="38.3307710" lon="-0.6897740">
        <ele>266.1</ele>
        <time>2017-12-18T13:45:44Z</time>
      </trkpt>
      <trkpt lat="38.3307960" lon="-0.6898100">
        <ele>266.1</ele>
        <time>2017-12-18T13:45:45Z</time>
      </trkpt>
      <trkpt lat="38.3308210" lon="-0.6898410">
        <ele>267.2</ele>
        <time>2017-12-18T13:45:46Z</time>
      </trkpt>
      <trkpt lat="38.3308490" lon="-0.6898660">
        <ele>267.2</ele>
        <time>2017-12-18T13:45:47Z</time>
      </trkpt>
      <trkpt lat="38.3308810" lon="-0.6898740">
        <ele>268.1</ele>
        <time>2017-12-18T13:45:48Z</time>
      </trkpt>
      <trkpt lat="38.3309150" lon="-0.6898630">
        <ele>268.1</ele>
        <time>2017-12-18T13:45:49Z</time>
      </trkpt>
      <trkpt lat="38.3309480" lon="-0.6898430">
        <ele>268.1</ele>
        <time>2017-12-18T13:45:50Z</time>
      </trkpt>
      <trkpt lat="38.3309840" lon="-0.6898210">
        <ele>268.1</ele>
        <time>2017-12-18T13:45:51Z</time>
      </trkpt>
      <trkpt lat="38.3310220" lon="-0.6898010">
        <ele>269.1</ele>
        <time>2017-12-18T13:45:52Z</time>
      </trkpt>
      <trkpt lat="38.3310620" lon="-0.6897830">
        <ele>269.1</ele>
        <time>2017-12-18T13:45:53Z</time>
      </trkpt>
      <trkpt lat="38.3311040" lon="-0.6897730">
        <ele>269.1</ele>
        <time>2017-12-18T13:45:54Z</time>
      </trkpt>
      <trkpt lat="38.3311470" lon="-0.6897740">
        <ele>269.1</ele>
        <time>2017-12-18T13:45:55Z</time>
      </trkpt>
      <trkpt lat="38.3311890" lon="-0.6897840">
        <ele>268.1</ele>
        <time>2017-12-18T13:45:56Z</time>
      </trkpt>
      <trkpt lat="38.3312290" lon="-0.6897960">
        <ele>268.1</ele>
        <time>2017-12-18T13:45:57Z</time>
      </trkpt>
      <trkpt lat="38.3312660" lon="-0.6898080">
        <ele>268.1</ele>
        <time>2017-12-18T13:45:58Z</time>
      </trkpt>
      <trkpt lat="38.3313050" lon="-0.6898220">
        <ele>268.1</ele>
        <time>2017-12-18T13:45:59Z</time>
      </trkpt>
      <trkpt lat="38.3313420" lon="-0.6898380">
        <ele>268.1</ele>
        <time>2017-12-18T13:46:00Z</time>
      </trkpt>
      <trkpt lat="38.3313760" lon="-0.6898570">
        <ele>268.1</ele>
        <time>2017-12-18T13:46:01Z</time>
      </trkpt>
      <trkpt lat="38.3314070" lon="-0.6898790">
        <ele>268.1</ele>
        <time>2017-12-18T13:46:02Z</time>
      </trkpt>
      <trkpt lat="38.3314370" lon="-0.6899030">
        <ele>268.1</ele>
        <time>2017-12-18T13:46:03Z</time>
      </trkpt>
      <trkpt lat="38.3314660" lon="-0.6899270">
        <ele>271.1</ele>
        <time>2017-12-18T13:46:04Z</time>
      </trkpt>
      <trkpt lat="38.3314930" lon="-0.6899510">
        <ele>271.1</ele>
        <time>2017-12-18T13:46:05Z</time>
      </trkpt>
      <trkpt lat="38.3315200" lon="-0.6899740">
        <ele>271.1</ele>
        <time>2017-12-18T13:46:06Z</time>
      </trkpt>
      <trkpt lat="38.3315460" lon="-0.6899990">
        <ele>271.1</ele>
        <time>2017-12-18T13:46:07Z</time>
      </trkpt>
      <trkpt lat="38.3315690" lon="-0.6900280">
        <ele>271.1</ele>
        <time>2017-12-18T13:46:08Z</time>
      </trkpt>
      <trkpt lat="38.3315890" lon="-0.6900590">
        <ele>271.1</ele>
        <time>2017-12-18T13:46:09Z</time>
      </trkpt>
      <trkpt lat="38.3316090" lon="-0.6900900">
        <ele>271.1</ele>
        <time>2017-12-18T13:46:10Z</time>
      </trkpt>
      <trkpt lat="38.3316310" lon="-0.6901180">
        <ele>271.1</ele>
        <time>2017-12-18T13:46:11Z</time>
      </trkpt>
      <trkpt lat="38.3316510" lon="-0.6901490">
        <ele>271.1</ele>
        <time>2017-12-18T13:46:12Z</time>
      </trkpt>
      <trkpt lat="38.3316690" lon="-0.6901840">
        <ele>271.1</ele>
        <time>2017-12-18T13:46:13Z</time>
      </trkpt>
      <trkpt lat="38.3316840" lon="-0.6902180">
        <ele>273.1</ele>
        <time>2017-12-18T13:46:14Z</time>
      </trkpt>
      <trkpt lat="38.3316990" lon="-0.6902530">
        <ele>273.1</ele>
        <time>2017-12-18T13:46:15Z</time>
      </trkpt>
      <trkpt lat="38.3317130" lon="-0.6902900">
        <ele>274.2</ele>
        <time>2017-12-18T13:46:16Z</time>
      </trkpt>
      <trkpt lat="38.3317250" lon="-0.6903280">
        <ele>274.2</ele>
        <time>2017-12-18T13:46:17Z</time>
      </trkpt>
      <trkpt lat="38.3317330" lon="-0.6903660">
        <ele>274.2</ele>
        <time>2017-12-18T13:46:18Z</time>
      </trkpt>
      <trkpt lat="38.3317430" lon="-0.6904060">
        <ele>274.2</ele>
        <time>2017-12-18T13:46:19Z</time>
      </trkpt>
      <trkpt lat="38.3317500" lon="-0.6904470">
        <ele>276.2</ele>
        <time>2017-12-18T13:46:20Z</time>
      </trkpt>
      <trkpt lat="38.3317560" lon="-0.6904900">
        <ele>276.2</ele>
        <time>2017-12-18T13:46:21Z</time>
      </trkpt>
      <trkpt lat="38.3317600" lon="-0.6905330">
        <ele>276.2</ele>
        <time>2017-12-18T13:46:22Z</time>
      </trkpt>
      <trkpt lat="38.3317650" lon="-0.6905770">
        <ele>276.2</ele>
        <time>2017-12-18T13:46:23Z</time>
      </trkpt>
      <trkpt lat="38.3317680" lon="-0.6906220">
        <ele>276.2</ele>
        <time>2017-12-18T13:46:24Z</time>
      </trkpt>
      <trkpt lat="38.3317720" lon="-0.6906670">
        <ele>276.2</ele>
        <time>2017-12-18T13:46:25Z</time>
      </trkpt>
      <trkpt lat="38.3317750" lon="-0.6907140">
        <ele>277.2</ele>
        <time>2017-12-18T13:46:26Z</time>
      </trkpt>
      <trkpt lat="38.3317770" lon="-0.6907620">
        <ele>277.2</ele>
        <time>2017-12-18T13:46:27Z</time>
      </trkpt>
      <trkpt lat="38.3317760" lon="-0.6908130">
        <ele>277.2</ele>
        <time>2017-12-18T13:46:28Z</time>
      </trkpt>
      <trkpt lat="38.3317770" lon="-0.6908650">
        <ele>277.2</ele>
        <time>2017-12-18T13:46:29Z</time>
      </trkpt>
      <trkpt lat="38.3317770" lon="-0.6909180">
        <ele>277.2</ele>
        <time>2017-12-18T13:46:30Z</time>
      </trkpt>
      <trkpt lat="38.3317770" lon="-0.6909720">
        <ele>277.2</ele>
        <time>2017-12-18T13:46:31Z</time>
      </trkpt>
      <trkpt lat="38.3317770" lon="-0.6910270">
        <ele>277.2</ele>
        <time>2017-12-18T13:46:32Z</time>
      </trkpt>
      <trkpt lat="38.3317780" lon="-0.6910820">
        <ele>277.2</ele>
        <time>2017-12-18T13:46:33Z</time>
      </trkpt>
      <trkpt lat="38.3317780" lon="-0.6911380">
        <ele>277.2</ele>
        <time>2017-12-18T13:46:34Z</time>
      </trkpt>
      <trkpt lat="38.3317780" lon="-0.6911940">
        <ele>277.2</ele>
        <time>2017-12-18T13:46:35Z</time>
      </trkpt>
      <trkpt lat="38.3317790" lon="-0.6912510">
        <ele>277.2</ele>
        <time>2017-12-18T13:46:36Z</time>
      </trkpt>
      <trkpt lat="38.3317810" lon="-0.6913080">
        <ele>277.2</ele>
        <time>2017-12-18T13:46:37Z</time>
      </trkpt>
      <trkpt lat="38.3317820" lon="-0.6913670">
        <ele>277.2</ele>
        <time>2017-12-18T13:46:38Z</time>
      </trkpt>
      <trkpt lat="38.3317840" lon="-0.6914270">
        <ele>277.2</ele>
        <time>2017-12-18T13:46:39Z</time>
      </trkpt>
      <trkpt lat="38.3317860" lon="-0.6914870">
        <ele>277.2</ele>
        <time>2017-12-18T13:46:40Z</time>
      </trkpt>
      <trkpt lat="38.3317880" lon="-0.6915470">
        <ele>277.2</ele>
        <time>2017-12-18T13:46:41Z</time>
      </trkpt>
      <trkpt lat="38.3317900" lon="-0.6916080">
        <ele>277.2</ele>
        <time>2017-12-18T13:46:42Z</time>
      </trkpt>
      <trkpt lat="38.3317910" lon="-0.6916700">
        <ele>277.2</ele>
        <time>2017-12-18T13:46:43Z</time>
      </trkpt>
      <trkpt lat="38.3317910" lon="-0.6917310">
        <ele>277.2</ele>
        <time>2017-12-18T13:46:44Z</time>
      </trkpt>
      <trkpt lat="38.3317920" lon="-0.6917930">
        <ele>277.2</ele>
        <time>2017-12-18T13:46:45Z</time>
      </trkpt>
      <trkpt lat="38.3317940" lon="-0.6918550">
        <ele>277.2</ele>
        <time>2017-12-18T13:46:46Z</time>
      </trkpt>
      <trkpt lat="38.3317960" lon="-0.6919170">
        <ele>277.2</ele>
        <time>2017-12-18T13:46:47Z</time>
      </trkpt>
      <trkpt lat="38.3317990" lon="-0.6919790">
        <ele>277.2</ele>
        <time>2017-12-18T13:46:48Z</time>
      </trkpt>
      <trkpt lat="38.3318000" lon="-0.6920420">
        <ele>277.2</ele>
        <time>2017-12-18T13:46:49Z</time>
      </trkpt>
      <trkpt lat="38.3318010" lon="-0.6921040">
        <ele>277.2</ele>
        <time>2017-12-18T13:46:50Z</time>
      </trkpt>
      <trkpt lat="38.3318000" lon="-0.6921650">
        <ele>277.2</ele>
        <time>2017-12-18T13:46:51Z</time>
      </trkpt>
      <trkpt lat="38.3318000" lon="-0.6922260">
        <ele>277.2</ele>
        <time>2017-12-18T13:46:52Z</time>
      </trkpt>
      <trkpt lat="38.3317970" lon="-0.6922870">
        <ele>277.2</ele>
        <time>2017-12-18T13:46:53Z</time>
      </trkpt>
      <trkpt lat="38.3317950" lon="-0.6923480">
        <ele>277.2</ele>
        <time>2017-12-18T13:46:54Z</time>
      </trkpt>
      <trkpt lat="38.3317960" lon="-0.6924080">
        <ele>277.2</ele>
        <time>2017-12-18T13:46:55Z</time>
      </trkpt>
      <trkpt lat="38.3317960" lon="-0.6924700">
        <ele>277.2</ele>
        <time>2017-12-18T13:46:56Z</time>
      </trkpt>
      <trkpt lat="38.3317970" lon="-0.6925310">
        <ele>277.2</ele>
        <time>2017-12-18T13:46:57Z</time>
      </trkpt>
      <trkpt lat="38.3317960" lon="-0.6925930">
        <ele>277.2</ele>
        <time>2017-12-18T13:46:58Z</time>
      </trkpt>
      <trkpt lat="38.3317960" lon="-0.6926530">
        <ele>277.2</ele>
        <time>2017-12-18T13:46:59Z</time>
      </trkpt>
      <trkpt lat="38.3317960" lon="-0.6927140">
        <ele>277.2</ele>
        <time>2017-12-18T13:47:00Z</time>
      </trkpt>
      <trkpt lat="38.3317980" lon="-0.6927750">
        <ele>277.2</ele>
        <time>2017-12-18T13:47:01Z</time>
      </trkpt>
      <trkpt lat="38.3318000" lon="-0.6928360">
        <ele>277.2</ele>
        <time>2017-12-18T13:47:02Z</time>
      </trkpt>
      <trkpt lat="38.3317990" lon="-0.6928990">
        <ele>277.2</ele>
        <time>2017-12-18T13:47:03Z</time>
      </trkpt>
      <trkpt lat="38.3317970" lon="-0.6929610">
        <ele>278.1</ele>
        <time>2017-12-18T13:47:04Z</time>
      </trkpt>
      <trkpt lat="38.3317950" lon="-0.6930230">
        <ele>278.1</ele>
        <time>2017-12-18T13:47:05Z</time>
      </trkpt>
      <trkpt lat="38.3317910" lon="-0.6930850">
        <ele>278.1</ele>
        <time>2017-12-18T13:47:06Z</time>
      </trkpt>
      <trkpt lat="38.3317890" lon="-0.6931460">
        <ele>278.1</ele>
        <time>2017-12-18T13:47:07Z</time>
      </trkpt>
      <trkpt lat="38.3317890" lon="-0.6932070">
        <ele>278.1</ele>
        <time>2017-12-18T13:47:08Z</time>
      </trkpt>
      <trkpt lat="38.3317990" lon="-0.6932630">
        <ele>278.1</ele>
        <time>2017-12-18T13:47:09Z</time>
      </trkpt>
      <trkpt lat="38.3318190" lon="-0.6933170">
        <ele>279.2</ele>
        <time>2017-12-18T13:47:10Z</time>
      </trkpt>
      <trkpt lat="38.3318560" lon="-0.6933560">
        <ele>279.2</ele>
        <time>2017-12-18T13:47:11Z</time>
      </trkpt>
      <trkpt lat="38.3318940" lon="-0.6933860">
        <ele>279.2</ele>
        <time>2017-12-18T13:47:12Z</time>
      </trkpt>
      <trkpt lat="38.3319330" lon="-0.6934080">
        <ele>279.2</ele>
        <time>2017-12-18T13:47:13Z</time>
      </trkpt>
      <trkpt lat="38.3319700" lon="-0.6934230">
        <ele>280.1</ele>
        <time>2017-12-18T13:47:14Z</time>
      </trkpt>
      <trkpt lat="38.3320020" lon="-0.6934300">
        <ele>280.1</ele>
        <time>2017-12-18T13:47:15Z</time>
      </trkpt>
      <trkpt lat="38.3320310" lon="-0.6934350">
        <ele>281.2</ele>
        <time>2017-12-18T13:47:16Z</time>
      </trkpt>
      <trkpt lat="38.3320590" lon="-0.6934390">
        <ele>281.2</ele>
        <time>2017-12-18T13:47:17Z</time>
      </trkpt>
      <trkpt lat="38.3320880" lon="-0.6934430">
        <ele>282.1</ele>
        <time>2017-12-18T13:47:18Z</time>
      </trkpt>
      <trkpt lat="38.3321180" lon="-0.6934480">
        <ele>282.1</ele>
        <time>2017-12-18T13:47:19Z</time>
      </trkpt>
      <trkpt lat="38.3321510" lon="-0.6934530">
        <ele>282.1</ele>
        <time>2017-12-18T13:47:20Z</time>
      </trkpt>
      <trkpt lat="38.3321850" lon="-0.6934580">
        <ele>282.1</ele>
        <time>2017-12-18T13:47:21Z</time>
      </trkpt>
      <trkpt lat="38.3322160" lon="-0.6934660">
        <ele>282.1</ele>
        <time>2017-12-18T13:47:22Z</time>
      </trkpt>
      <trkpt lat="38.3322470" lon="-0.6934730">
        <ele>282.1</ele>
        <time>2017-12-18T13:47:23Z</time>
      </trkpt>
      <trkpt lat="38.3322760" lon="-0.6934800">
        <ele>282.1</ele>
        <time>2017-12-18T13:47:24Z</time>
      </trkpt>
      <trkpt lat="38.3323050" lon="-0.6934870">
        <ele>282.1</ele>
        <time>2017-12-18T13:47:25Z</time>
      </trkpt>
      <trkpt lat="38.3323340" lon="-0.6934950">
        <ele>285.1</ele>
        <time>2017-12-18T13:47:26Z</time>
      </trkpt>
      <trkpt lat="38.3323610" lon="-0.6935030">
        <ele>285.1</ele>
        <time>2017-12-18T13:47:27Z</time>
      </trkpt>
      <trkpt lat="38.3323880" lon="-0.6935120">
        <ele>285.1</ele>
        <time>2017-12-18T13:47:28Z</time>
      </trkpt>
      <trkpt lat="38.3324150" lon="-0.6935200">
        <ele>285.1</ele>
        <time>2017-12-18T13:47:29Z</time>
      </trkpt>
      <trkpt lat="38.3324400" lon="-0.6935300">
        <ele>286.2</ele>
        <time>2017-12-18T13:47:30Z</time>
      </trkpt>
      <trkpt lat="38.3324630" lon="-0.6935380">
        <ele>286.2</ele>
        <time>2017-12-18T13:47:31Z</time>
      </trkpt>
      <trkpt lat="38.3324880" lon="-0.6935460">
        <ele>286.2</ele>
        <time>2017-12-18T13:47:32Z</time>
      </trkpt>
      <trkpt lat="38.3325120" lon="-0.6935510">
        <ele>286.2</ele>
        <time>2017-12-18T13:47:33Z</time>
      </trkpt>
      <trkpt lat="38.3325390" lon="-0.6935570">
        <ele>287.1</ele>
        <time>2017-12-18T13:47:34Z</time>
      </trkpt>
      <trkpt lat="38.3325640" lon="-0.6935630">
        <ele>287.1</ele>
        <time>2017-12-18T13:47:35Z</time>
      </trkpt>
      <trkpt lat="38.3325890" lon="-0.6935680">
        <ele>288.2</ele>
        <time>2017-12-18T13:47:36Z</time>
      </trkpt>
      <trkpt lat="38.3326160" lon="-0.6935730">
        <ele>288.2</ele>
        <time>2017-12-18T13:47:37Z</time>
      </trkpt>
      <trkpt lat="38.3326420" lon="-0.6935790">
        <ele>288.2</ele>
        <time>2017-12-18T13:47:38Z</time>
      </trkpt>
      <trkpt lat="38.3326690" lon="-0.6935840">
        <ele>288.2</ele>
        <time>2017-12-18T13:47:39Z</time>
      </trkpt>
      <trkpt lat="38.3326960" lon="-0.6935840">
        <ele>289.1</ele>
        <time>2017-12-18T13:47:40Z</time>
      </trkpt>
      <trkpt lat="38.3327250" lon="-0.6935860">
        <ele>289.1</ele>
        <time>2017-12-18T13:47:41Z</time>
      </trkpt>
      <trkpt lat="38.3327540" lon="-0.6935880">
        <ele>289.1</ele>
        <time>2017-12-18T13:47:42Z</time>
      </trkpt>
      <trkpt lat="38.3327820" lon="-0.6935910">
        <ele>289.1</ele>
        <time>2017-12-18T13:47:43Z</time>
      </trkpt>
      <trkpt lat="38.3328090" lon="-0.6935940">
        <ele>290.2</ele>
        <time>2017-12-18T13:47:44Z</time>
      </trkpt>
      <trkpt lat="38.3328370" lon="-0.6935970">
        <ele>290.2</ele>
        <time>2017-12-18T13:47:45Z</time>
      </trkpt>
      <trkpt lat="38.3328680" lon="-0.6935960">
        <ele>290.2</ele>
        <time>2017-12-18T13:47:46Z</time>
      </trkpt>
      <trkpt lat="38.3328980" lon="-0.6935900">
        <ele>290.2</ele>
        <time>2017-12-18T13:47:47Z</time>
      </trkpt>
      <trkpt lat="38.3329270" lon="-0.6935860">
        <ele>291.1</ele>
        <time>2017-12-18T13:47:48Z</time>
      </trkpt>
      <trkpt lat="38.3329560" lon="-0.6935840">
        <ele>291.1</ele>
        <time>2017-12-18T13:47:49Z</time>
      </trkpt>
      <trkpt lat="38.3329860" lon="-0.6935820">
        <ele>291.1</ele>
        <time>2017-12-18T13:47:50Z</time>
      </trkpt>
      <trkpt lat="38.3330180" lon="-0.6935790">
        <ele>291.1</ele>
        <time>2017-12-18T13:47:51Z</time>
      </trkpt>
      <trkpt lat="38.3330500" lon="-0.6935760">
        <ele>291.1</ele>
        <time>2017-12-18T13:47:52Z</time>
      </trkpt>
      <trkpt lat="38.3330820" lon="-0.6935760">
        <ele>291.1</ele>
        <time>2017-12-18T13:47:53Z</time>
      </trkpt>
      <trkpt lat="38.3331130" lon="-0.6935750">
        <ele>292.2</ele>
        <time>2017-12-18T13:47:54Z</time>
      </trkpt>
      <trkpt lat="38.3331450" lon="-0.6935720">
        <ele>292.2</ele>
        <time>2017-12-18T13:47:55Z</time>
      </trkpt>
      <trkpt lat="38.3331750" lon="-0.6935690">
        <ele>292.2</ele>
        <time>2017-12-18T13:47:56Z</time>
      </trkpt>
      <trkpt lat="38.3332060" lon="-0.6935680">
        <ele>292.2</ele>
        <time>2017-12-18T13:47:57Z</time>
      </trkpt>
      <trkpt lat="38.3332360" lon="-0.6935670">
        <ele>292.2</ele>
        <time>2017-12-18T13:47:58Z</time>
      </trkpt>
      <trkpt lat="38.3332670" lon="-0.6935660">
        <ele>292.2</ele>
        <time>2017-12-18T13:47:59Z</time>
      </trkpt>
      <trkpt lat="38.3332990" lon="-0.6935620">
        <ele>292.2</ele>
        <time>2017-12-18T13:48:00Z</time>
      </trkpt>
      <trkpt lat="38.3333290" lon="-0.6935660">
        <ele>292.2</ele>
        <time>2017-12-18T13:48:01Z</time>
      </trkpt>
      <trkpt lat="38.3333570" lon="-0.6935700">
        <ele>292.2</ele>
        <time>2017-12-18T13:48:02Z</time>
      </trkpt>
      <trkpt lat="38.3333840" lon="-0.6935780">
        <ele>292.2</ele>
        <time>2017-12-18T13:48:03Z</time>
      </trkpt>
      <trkpt lat="38.3334110" lon="-0.6935840">
        <ele>294.1</ele>
        <time>2017-12-18T13:48:04Z</time>
      </trkpt>
      <trkpt lat="38.3334390" lon="-0.6935900">
        <ele>294.1</ele>
        <time>2017-12-18T13:48:05Z</time>
      </trkpt>
      <trkpt lat="38.3334670" lon="-0.6935960">
        <ele>294.1</ele>
        <time>2017-12-18T13:48:06Z</time>
      </trkpt>
      <trkpt lat="38.3334950" lon="-0.6936000">
        <ele>294.1</ele>
        <time>2017-12-18T13:48:07Z</time>
      </trkpt>
      <trkpt lat="38.3335240" lon="-0.6936060">
        <ele>294.1</ele>
        <time>2017-12-18T13:48:08Z</time>
      </trkpt>
      <trkpt lat="38.3335500" lon="-0.6936160">
        <ele>294.1</ele>
        <time>2017-12-18T13:48:09Z</time>
      </trkpt>
      <trkpt lat="38.3335760" lon="-0.6936230">
        <ele>296.1</ele>
        <time>2017-12-18T13:48:10Z</time>
      </trkpt>
      <trkpt lat="38.3336010" lon="-0.6936300">
        <ele>296.1</ele>
        <time>2017-12-18T13:48:11Z</time>
      </trkpt>
      <trkpt lat="38.3336260" lon="-0.6936370">
        <ele>296.1</ele>
        <time>2017-12-18T13:48:12Z</time>
      </trkpt>
      <trkpt lat="38.3336510" lon="-0.6936430">
        <ele>296.1</ele>
        <time>2017-12-18T13:48:13Z</time>
      </trkpt>
      <trkpt lat="38.3336760" lon="-0.6936500">
        <ele>296.1</ele>
        <time>2017-12-18T13:48:14Z</time>
      </trkpt>
      <trkpt lat="38.3337010" lon="-0.6936550">
        <ele>296.1</ele>
        <time>2017-12-18T13:48:15Z</time>
      </trkpt>
      <trkpt lat="38.3337250" lon="-0.6936610">
        <ele>296.1</ele>
        <time>2017-12-18T13:48:16Z</time>
      </trkpt>
      <trkpt lat="38.3337490" lon="-0.6936660">
        <ele>296.1</ele>
        <time>2017-12-18T13:48:17Z</time>
      </trkpt>
      <trkpt lat="38.3337730" lon="-0.6936720">
        <ele>297.2</ele>
        <time>2017-12-18T13:48:18Z</time>
      </trkpt>
      <trkpt lat="38.3337960" lon="-0.6936760">
        <ele>297.2</ele>
        <time>2017-12-18T13:48:19Z</time>
      </trkpt>
      <trkpt lat="38.3338200" lon="-0.6936800">
        <ele>297.2</ele>
        <time>2017-12-18T13:48:20Z</time>
      </trkpt>
      <trkpt lat="38.3338460" lon="-0.6936840">
        <ele>297.2</ele>
        <time>2017-12-18T13:48:21Z</time>
      </trkpt>
      <trkpt lat="38.3338710" lon="-0.6936870">
        <ele>298.1</ele>
        <time>2017-12-18T13:48:22Z</time>
      </trkpt>
      <trkpt lat="38.3338960" lon="-0.6936890">
        <ele>298.1</ele>
        <time>2017-12-18T13:48:23Z</time>
      </trkpt>
      <trkpt lat="38.3339200" lon="-0.6936930">
        <ele>299.2</ele>
        <time>2017-12-18T13:48:24Z</time>
      </trkpt>
      <trkpt lat="38.3339440" lon="-0.6936960">
        <ele>299.2</ele>
        <time>2017-12-18T13:48:25Z</time>
      </trkpt>
      <trkpt lat="38.3339700" lon="-0.6936950">
        <ele>299.2</ele>
        <time>2017-12-18T13:48:26Z</time>
      </trkpt>
      <trkpt lat="38.3339990" lon="-0.6936940">
        <ele>299.2</ele>
        <time>2017-12-18T13:48:27Z</time>
      </trkpt>
      <trkpt lat="38.3340280" lon="-0.6936950">
        <ele>299.2</ele>
        <time>2017-12-18T13:48:28Z</time>
      </trkpt>
      <trkpt lat="38.3340560" lon="-0.6936960">
        <ele>299.2</ele>
        <time>2017-12-18T13:48:29Z</time>
      </trkpt>
      <trkpt lat="38.3340830" lon="-0.6936970">
        <ele>299.2</ele>
        <time>2017-12-18T13:48:30Z</time>
      </trkpt>
      <trkpt lat="38.3341110" lon="-0.6936960">
        <ele>299.2</ele>
        <time>2017-12-18T13:48:31Z</time>
      </trkpt>
      <trkpt lat="38.3341410" lon="-0.6936940">
        <ele>300.1</ele>
        <time>2017-12-18T13:48:32Z</time>
      </trkpt>
      <trkpt lat="38.3341710" lon="-0.6936940">
        <ele>300.1</ele>
        <time>2017-12-18T13:48:33Z</time>
      </trkpt>
      <trkpt lat="38.3342020" lon="-0.6936940">
        <ele>300.1</ele>
        <time>2017-12-18T13:48:34Z</time>
      </trkpt>
      <trkpt lat="38.3342320" lon="-0.6936910">
        <ele>300.1</ele>
        <time>2017-12-18T13:48:35Z</time>
      </trkpt>
      <trkpt lat="38.3342640" lon="-0.6936890">
        <ele>301.1</ele>
        <time>2017-12-18T13:48:36Z</time>
      </trkpt>
      <trkpt lat="38.3342950" lon="-0.6936860">
        <ele>301.1</ele>
        <time>2017-12-18T13:48:37Z</time>
      </trkpt>
      <trkpt lat="38.3343290" lon="-0.6936890">
        <ele>301.1</ele>
        <time>2017-12-18T13:48:38Z</time>
      </trkpt>
      <trkpt lat="38.3343620" lon="-0.6936880">
        <ele>301.1</ele>
        <time>2017-12-18T13:48:39Z</time>
      </trkpt>
      <trkpt lat="38.3343960" lon="-0.6936850">
        <ele>302.2</ele>
        <time>2017-12-18T13:48:40Z</time>
      </trkpt>
      <trkpt lat="38.3344320" lon="-0.6936800">
        <ele>302.2</ele>
        <time>2017-12-18T13:48:41Z</time>
      </trkpt>
      <trkpt lat="38.3344690" lon="-0.6936750">
        <ele>302.2</ele>
        <time>2017-12-18T13:48:42Z</time>
      </trkpt>
      <trkpt lat="38.3345060" lon="-0.6936700">
        <ele>302.2</ele>
        <time>2017-12-18T13:48:43Z</time>
      </trkpt>
      <trkpt lat="38.3345440" lon="-0.6936630">
        <ele>302.2</ele>
        <time>2017-12-18T13:48:44Z</time>
      </trkpt>
      <trkpt lat="38.3345810" lon="-0.6936590">
        <ele>302.2</ele>
        <time>2017-12-18T13:48:45Z</time>
      </trkpt>
      <trkpt lat="38.3346180" lon="-0.6936570">
        <ele>302.2</ele>
        <time>2017-12-18T13:48:46Z</time>
      </trkpt>
      <trkpt lat="38.3346550" lon="-0.6936550">
        <ele>302.2</ele>
        <time>2017-12-18T13:48:47Z</time>
      </trkpt>
      <trkpt lat="38.3346940" lon="-0.6936520">
        <ele>302.2</ele>
        <time>2017-12-18T13:48:48Z</time>
      </trkpt>
      <trkpt lat="38.3347310" lon="-0.6936500">
        <ele>302.2</ele>
        <time>2017-12-18T13:48:49Z</time>
      </trkpt>
      <trkpt lat="38.3347690" lon="-0.6936520">
        <ele>302.2</ele>
        <time>2017-12-18T13:48:50Z</time>
      </trkpt>
      <trkpt lat="38.3348070" lon="-0.6936550">
        <ele>302.2</ele>
        <time>2017-12-18T13:48:51Z</time>
      </trkpt>
      <trkpt lat="38.3348460" lon="-0.6936590">
        <ele>303.1</ele>
        <time>2017-12-18T13:48:52Z</time>
      </trkpt>
      <trkpt lat="38.3348860" lon="-0.6936600">
        <ele>303.1</ele>
        <time>2017-12-18T13:48:53Z</time>
      </trkpt>
      <trkpt lat="38.3349260" lon="-0.6936620">
        <ele>303.1</ele>
        <time>2017-12-18T13:48:54Z</time>
      </trkpt>
      <trkpt lat="38.3349670" lon="-0.6936670">
        <ele>303.1</ele>
        <time>2017-12-18T13:48:55Z</time>
      </trkpt>
      <trkpt lat="38.3350070" lon="-0.6936730">
        <ele>304.2</ele>
        <time>2017-12-18T13:48:56Z</time>
      </trkpt>
      <trkpt lat="38.3350470" lon="-0.6936780">
        <ele>304.2</ele>
        <time>2017-12-18T13:48:57Z</time>
      </trkpt>
      <trkpt lat="38.3350870" lon="-0.6936810">
        <ele>304.2</ele>
        <time>2017-12-18T13:48:58Z</time>
      </trkpt>
      <trkpt lat="38.3351290" lon="-0.6936810">
        <ele>304.2</ele>
        <time>2017-12-18T13:48:59Z</time>
      </trkpt>
      <trkpt lat="38.3351710" lon="-0.6936800">
        <ele>304.2</ele>
        <time>2017-12-18T13:49:00Z</time>
      </trkpt>
      <trkpt lat="38.3352140" lon="-0.6936760">
        <ele>304.2</ele>
        <time>2017-12-18T13:49:01Z</time>
      </trkpt>
      <trkpt lat="38.3352580" lon="-0.6936660">
        <ele>304.2</ele>
        <time>2017-12-18T13:49:02Z</time>
      </trkpt>
      <trkpt lat="38.3353010" lon="-0.6936560">
        <ele>304.2</ele>
        <time>2017-12-18T13:49:03Z</time>
      </trkpt>
      <trkpt lat="38.3353430" lon="-0.6936410">
        <ele>305.1</ele>
        <time>2017-12-18T13:49:04Z</time>
      </trkpt>
      <trkpt lat="38.3353860" lon="-0.6936280">
        <ele>305.1</ele>
        <time>2017-12-18T13:49:05Z</time>
      </trkpt>
      <trkpt lat="38.3354350" lon="-0.6936220">
        <ele>305.1</ele>
        <time>2017-12-18T13:49:06Z</time>
      </trkpt>
      <trkpt lat="38.3354850" lon="-0.6936200">
        <ele>305.1</ele>
        <time>2017-12-18T13:49:07Z</time>
      </trkpt>
      <trkpt lat="38.3355360" lon="-0.6936190">
        <ele>305.1</ele>
        <time>2017-12-18T13:49:08Z</time>
      </trkpt>
      <trkpt lat="38.3355890" lon="-0.6936200">
        <ele>305.1</ele>
        <time>2017-12-18T13:49:09Z</time>
      </trkpt>
      <trkpt lat="38.3356390" lon="-0.6936240">
        <ele>305.1</ele>
        <time>2017-12-18T13:49:10Z</time>
      </trkpt>
      <trkpt lat="38.3356930" lon="-0.6936330">
        <ele>305.1</ele>
        <time>2017-12-18T13:49:11Z</time>
      </trkpt>
      <trkpt lat="38.3357470" lon="-0.6936500">
        <ele>304.2</ele>
        <time>2017-12-18T13:49:12Z</time>
      </trkpt>
      <trkpt lat="38.3357990" lon="-0.6936740">
        <ele>304.2</ele>
        <time>2017-12-18T13:49:13Z</time>
      </trkpt>
      <trkpt lat="38.3358510" lon="-0.6936980">
        <ele>304.2</ele>
        <time>2017-12-18T13:49:14Z</time>
      </trkpt>
      <trkpt lat="38.3359020" lon="-0.6937230">
        <ele>304.2</ele>
        <time>2017-12-18T13:49:15Z</time>
      </trkpt>
      <trkpt lat="38.3359520" lon="-0.6937480">
        <ele>304.2</ele>
        <time>2017-12-18T13:49:16Z</time>
      </trkpt>
      <trkpt lat="38.3360020" lon="-0.6937730">
        <ele>304.2</ele>
        <time>2017-12-18T13:49:17Z</time>
      </trkpt>
      <trkpt lat="38.3360510" lon="-0.6938000">
        <ele>304.2</ele>
        <time>2017-12-18T13:49:18Z</time>
      </trkpt>
      <trkpt lat="38.3361000" lon="-0.6938230">
        <ele>304.2</ele>
        <time>2017-12-18T13:49:19Z</time>
      </trkpt>
      <trkpt lat="38.3361490" lon="-0.6938500">
        <ele>304.2</ele>
        <time>2017-12-18T13:49:20Z</time>
      </trkpt>
      <trkpt lat="38.3361970" lon="-0.6938770">
        <ele>304.2</ele>
        <time>2017-12-18T13:49:21Z</time>
      </trkpt>
      <trkpt lat="38.3362440" lon="-0.6939040">
        <ele>304.2</ele>
        <time>2017-12-18T13:49:22Z</time>
      </trkpt>
      <trkpt lat="38.3362900" lon="-0.6939320">
        <ele>304.2</ele>
        <time>2017-12-18T13:49:23Z</time>
      </trkpt>
      <trkpt lat="38.3363340" lon="-0.6939630">
        <ele>304.2</ele>
        <time>2017-12-18T13:49:24Z</time>
      </trkpt>
      <trkpt lat="38.3363780" lon="-0.6939960">
        <ele>304.2</ele>
        <time>2017-12-18T13:49:25Z</time>
      </trkpt>
      <trkpt lat="38.3364220" lon="-0.6940340">
        <ele>305.1</ele>
        <time>2017-12-18T13:49:26Z</time>
      </trkpt>
      <trkpt lat="38.3364680" lon="-0.6940700">
        <ele>305.1</ele>
        <time>2017-12-18T13:49:27Z</time>
      </trkpt>
      <trkpt lat="38.3365160" lon="-0.6941060">
        <ele>305.1</ele>
        <time>2017-12-18T13:49:28Z</time>
      </trkpt>
      <trkpt lat="38.3365690" lon="-0.6941440">
        <ele>305.1</ele>
        <time>2017-12-18T13:49:29Z</time>
      </trkpt>
      <trkpt lat="38.3366280" lon="-0.6941860">
        <ele>304.2</ele>
        <time>2017-12-18T13:49:30Z</time>
      </trkpt>
      <trkpt lat="38.3366910" lon="-0.6942290">
        <ele>304.2</ele>
        <time>2017-12-18T13:49:31Z</time>
      </trkpt>
      <trkpt lat="38.3367540" lon="-0.6942870">
        <ele>303.1</ele>
        <time>2017-12-18T13:49:32Z</time>
      </trkpt>
      <trkpt lat="38.3368110" lon="-0.6943600">
        <ele>303.1</ele>
        <time>2017-12-18T13:49:33Z</time>
      </trkpt>
      <trkpt lat="38.3368630" lon="-0.6944430">
        <ele>303.1</ele>
        <time>2017-12-18T13:49:34Z</time>
      </trkpt>
      <trkpt lat="38.3369100" lon="-0.6945400">
        <ele>303.1</ele>
        <time>2017-12-18T13:49:35Z</time>
      </trkpt>
      <trkpt lat="38.3369550" lon="-0.6946440">
        <ele>303.1</ele>
        <time>2017-12-18T13:49:36Z</time>
      </trkpt>
      <trkpt lat="38.3369980" lon="-0.6947530">
        <ele>303.1</ele>
        <time>2017-12-18T13:49:37Z</time>
      </trkpt>
      <trkpt lat="38.3370350" lon="-0.6948620">
        <ele>297.2</ele>
        <time>2017-12-18T13:49:38Z</time>
      </trkpt>
      <trkpt lat="38.3370670" lon="-0.6949620">
        <ele>297.2</ele>
        <time>2017-12-18T13:49:39Z</time>
      </trkpt>
      <trkpt lat="38.3370970" lon="-0.6950490">
        <ele>297.2</ele>
        <time>2017-12-18T13:49:40Z</time>
      </trkpt>
      <trkpt lat="38.3371300" lon="-0.6951130">
        <ele>297.2</ele>
        <time>2017-12-18T13:49:41Z</time>
      </trkpt>
      <trkpt lat="38.3371640" lon="-0.6951590">
        <ele>297.2</ele>
        <time>2017-12-18T13:49:42Z</time>
      </trkpt>
      <trkpt lat="38.3372000" lon="-0.6951920">
        <ele>297.2</ele>
        <time>2017-12-18T13:49:43Z</time>
      </trkpt>
      <trkpt lat="38.3372350" lon="-0.6952040">
        <ele>297.2</ele>
        <time>2017-12-18T13:49:44Z</time>
      </trkpt>
      <trkpt lat="38.3372690" lon="-0.6951950">
        <ele>297.2</ele>
        <time>2017-12-18T13:49:45Z</time>
      </trkpt>
      <trkpt lat="38.3373020" lon="-0.6951680">
        <ele>297.2</ele>
        <time>2017-12-18T13:49:46Z</time>
      </trkpt>
      <trkpt lat="38.3373320" lon="-0.6951320">
        <ele>297.2</ele>
        <time>2017-12-18T13:49:47Z</time>
      </trkpt>
      <trkpt lat="38.3373530" lon="-0.6950820">
        <ele>296.1</ele>
        <time>2017-12-18T13:49:48Z</time>
      </trkpt>
      <trkpt lat="38.3373600" lon="-0.6950230">
        <ele>296.1</ele>
        <time>2017-12-18T13:49:49Z</time>
      </trkpt>
      <trkpt lat="38.3373610" lon="-0.6949620">
        <ele>296.1</ele>
        <time>2017-12-18T13:49:50Z</time>
      </trkpt>
      <trkpt lat="38.3373630" lon="-0.6948980">
        <ele>296.1</ele>
        <time>2017-12-18T13:49:51Z</time>
      </trkpt>
      <trkpt lat="38.3373650" lon="-0.6948340">
        <ele>296.1</ele>
        <time>2017-12-18T13:49:52Z</time>
      </trkpt>
      <trkpt lat="38.3373670" lon="-0.6947680">
        <ele>296.1</ele>
        <time>2017-12-18T13:49:53Z</time>
      </trkpt>
      <trkpt lat="38.3373690" lon="-0.6947000">
        <ele>295.2</ele>
        <time>2017-12-18T13:49:54Z</time>
      </trkpt>
      <trkpt lat="38.3373750" lon="-0.6946310">
        <ele>295.2</ele>
        <time>2017-12-18T13:49:55Z</time>
      </trkpt>
      <trkpt lat="38.3373900" lon="-0.6945630">
        <ele>295.2</ele>
        <time>2017-12-18T13:49:56Z</time>
      </trkpt>
      <trkpt lat="38.3374180" lon="-0.6945040">
        <ele>295.2</ele>
        <time>2017-12-18T13:49:57Z</time>
      </trkpt>
      <trkpt lat="38.3374580" lon="-0.6944540">
        <ele>295.2</ele>
        <time>2017-12-18T13:49:58Z</time>
      </trkpt>
      <trkpt lat="38.3375060" lon="-0.6944170">
        <ele>295.2</ele>
        <time>2017-12-18T13:49:59Z</time>
      </trkpt>
      <trkpt lat="38.3375620" lon="-0.6943960">
        <ele>295.2</ele>
        <time>2017-12-18T13:50:00Z</time>
      </trkpt>
      <trkpt lat="38.3376200" lon="-0.6943860">
        <ele>295.2</ele>
        <time>2017-12-18T13:50:01Z</time>
      </trkpt>
      <trkpt lat="38.3376820" lon="-0.6943790">
        <ele>295.2</ele>
        <time>2017-12-18T13:50:02Z</time>
      </trkpt>
      <trkpt lat="38.3377440" lon="-0.6943680">
        <ele>295.2</ele>
        <time>2017-12-18T13:50:03Z</time>
      </trkpt>
      <trkpt lat="38.3378060" lon="-0.6943490">
        <ele>295.2</ele>
        <time>2017-12-18T13:50:04Z</time>
      </trkpt>
      <trkpt lat="38.3378690" lon="-0.6943270">
        <ele>295.2</ele>
        <time>2017-12-18T13:50:05Z</time>
      </trkpt>
      <trkpt lat="38.3379300" lon="-0.6942980">
        <ele>293.2</ele>
        <time>2017-12-18T13:50:06Z</time>
      </trkpt>
      <trkpt lat="38.3379910" lon="-0.6942640">
        <ele>293.2</ele>
        <time>2017-12-18T13:50:07Z</time>
      </trkpt>
      <trkpt lat="38.3380520" lon="-0.6942290">
        <ele>293.2</ele>
        <time>2017-12-18T13:50:08Z</time>
      </trkpt>
      <trkpt lat="38.3381130" lon="-0.6941920">
        <ele>293.2</ele>
        <time>2017-12-18T13:50:09Z</time>
      </trkpt>
      <trkpt lat="38.3381740" lon="-0.6941560">
        <ele>293.2</ele>
        <time>2017-12-18T13:50:10Z</time>
      </trkpt>
      <trkpt lat="38.3382340" lon="-0.6941200">
        <ele>293.2</ele>
        <time>2017-12-18T13:50:11Z</time>
      </trkpt>
      <trkpt lat="38.3382920" lon="-0.6940820">
        <ele>293.2</ele>
        <time>2017-12-18T13:50:12Z</time>
      </trkpt>
      <trkpt lat="38.3383510" lon="-0.6940450">
        <ele>293.2</ele>
        <time>2017-12-18T13:50:13Z</time>
      </trkpt>
      <trkpt lat="38.3384120" lon="-0.6940100">
        <ele>293.2</ele>
        <time>2017-12-18T13:50:14Z</time>
      </trkpt>
      <trkpt lat="38.3384770" lon="-0.6939760">
        <ele>293.2</ele>
        <time>2017-12-18T13:50:15Z</time>
      </trkpt>
      <trkpt lat="38.3385460" lon="-0.6939450">
        <ele>293.2</ele>
        <time>2017-12-18T13:50:16Z</time>
      </trkpt>
      <trkpt lat="38.3386170" lon="-0.6939170">
        <ele>293.2</ele>
        <time>2017-12-18T13:50:17Z</time>
      </trkpt>
      <trkpt lat="38.3386900" lon="-0.6938920">
        <ele>292.2</ele>
        <time>2017-12-18T13:50:18Z</time>
      </trkpt>
      <trkpt lat="38.3387620" lon="-0.6938720">
        <ele>292.2</ele>
        <time>2017-12-18T13:50:19Z</time>
      </trkpt>
      <trkpt lat="38.3388370" lon="-0.6938530">
        <ele>292.2</ele>
        <time>2017-12-18T13:50:20Z</time>
      </trkpt>
      <trkpt lat="38.3389150" lon="-0.6938350">
        <ele>292.2</ele>
        <time>2017-12-18T13:50:21Z</time>
      </trkpt>
      <trkpt lat="38.3389950" lon="-0.6938150">
        <ele>291.1</ele>
        <time>2017-12-18T13:50:22Z</time>
      </trkpt>
      <trkpt lat="38.3390790" lon="-0.6937940">
        <ele>291.1</ele>
        <time>2017-12-18T13:50:23Z</time>
      </trkpt>
      <trkpt lat="38.3391670" lon="-0.6937780">
        <ele>289.1</ele>
        <time>2017-12-18T13:50:24Z</time>
      </trkpt>
      <trkpt lat="38.3392540" lon="-0.6937690">
        <ele>289.1</ele>
        <time>2017-12-18T13:50:25Z</time>
      </trkpt>
      <trkpt lat="38.3393390" lon="-0.6937620">
        <ele>289.1</ele>
        <time>2017-12-18T13:50:26Z</time>
      </trkpt>
      <trkpt lat="38.3394270" lon="-0.6937720">
        <ele>289.1</ele>
        <time>2017-12-18T13:50:27Z</time>
      </trkpt>
      <trkpt lat="38.3395160" lon="-0.6937820">
        <ele>288.2</ele>
        <time>2017-12-18T13:50:28Z</time>
      </trkpt>
      <trkpt lat="38.3396050" lon="-0.6937920">
        <ele>288.2</ele>
        <time>2017-12-18T13:50:29Z</time>
      </trkpt>
      <trkpt lat="38.3396980" lon="-0.6938030">
        <ele>287.1</ele>
        <time>2017-12-18T13:50:30Z</time>
      </trkpt>
      <trkpt lat="38.3397920" lon="-0.6938110">
        <ele>287.1</ele>
        <time>2017-12-18T13:50:31Z</time>
      </trkpt>
      <trkpt lat="38.3398870" lon="-0.6938180">
        <ele>286.2</ele>
        <time>2017-12-18T13:50:32Z</time>
      </trkpt>
      <trkpt lat="38.3399830" lon="-0.6938250">
        <ele>286.2</ele>
        <time>2017-12-18T13:50:33Z</time>
      </trkpt>
      <trkpt lat="38.3400810" lon="-0.6938390">
        <ele>284.1</ele>
        <time>2017-12-18T13:50:34Z</time>
      </trkpt>
      <trkpt lat="38.3401880" lon="-0.6938610">
        <ele>284.1</ele>
        <time>2017-12-18T13:50:35Z</time>
      </trkpt>
      <trkpt lat="38.3402930" lon="-0.6938860">
        <ele>284.1</ele>
        <time>2017-12-18T13:50:36Z</time>
      </trkpt>
      <trkpt lat="38.3403980" lon="-0.6939180">
        <ele>284.1</ele>
        <time>2017-12-18T13:50:37Z</time>
      </trkpt>
      <trkpt lat="38.3405010" lon="-0.6939590">
        <ele>284.1</ele>
        <time>2017-12-18T13:50:38Z</time>
      </trkpt>
      <trkpt lat="38.3406040" lon="-0.6940030">
        <ele>284.1</ele>
        <time>2017-12-18T13:50:39Z</time>
      </trkpt>
      <trkpt lat="38.3407070" lon="-0.6940500">
        <ele>279.2</ele>
        <time>2017-12-18T13:50:40Z</time>
      </trkpt>
      <trkpt lat="38.3408120" lon="-0.6940980">
        <ele>279.2</ele>
        <time>2017-12-18T13:50:41Z</time>
      </trkpt>
      <trkpt lat="38.3409200" lon="-0.6941310">
        <ele>277.2</ele>
        <time>2017-12-18T13:50:42Z</time>
      </trkpt>
      <trkpt lat="38.3410290" lon="-0.6941400">
        <ele>277.2</ele>
        <time>2017-12-18T13:50:43Z</time>
      </trkpt>
      <trkpt lat="38.3411380" lon="-0.6941330">
        <ele>276.2</ele>
        <time>2017-12-18T13:50:44Z</time>
      </trkpt>
      <trkpt lat="38.3412460" lon="-0.6941240">
        <ele>276.2</ele>
        <time>2017-12-18T13:50:45Z</time>
      </trkpt>
      <trkpt lat="38.3413520" lon="-0.6941460">
        <ele>276.2</ele>
        <time>2017-12-18T13:50:46Z</time>
      </trkpt>
      <trkpt lat="38.3414530" lon="-0.6941830">
        <ele>276.2</ele>
        <time>2017-12-18T13:50:47Z</time>
      </trkpt>
      <trkpt lat="38.3415520" lon="-0.6942220">
        <ele>274.2</ele>
        <time>2017-12-18T13:50:48Z</time>
      </trkpt>
      <trkpt lat="38.3416550" lon="-0.6942570">
        <ele>274.2</ele>
        <time>2017-12-18T13:50:49Z</time>
      </trkpt>
      <trkpt lat="38.3417590" lon="-0.6942740">
        <ele>273.1</ele>
        <time>2017-12-18T13:50:50Z</time>
      </trkpt>
      <trkpt lat="38.3418610" lon="-0.6942670">
        <ele>273.1</ele>
        <time>2017-12-18T13:50:51Z</time>
      </trkpt>
      <trkpt lat="38.3419610" lon="-0.6942530">
        <ele>273.1</ele>
        <time>2017-12-18T13:50:52Z</time>
      </trkpt>
      <trkpt lat="38.3420580" lon="-0.6942340">
        <ele>273.1</ele>
        <time>2017-12-18T13:50:53Z</time>
      </trkpt>
      <trkpt lat="38.3421510" lon="-0.6941980">
        <ele>273.1</ele>
        <time>2017-12-18T13:50:54Z</time>
      </trkpt>
      <trkpt lat="38.3422420" lon="-0.6941590">
        <ele>273.1</ele>
        <time>2017-12-18T13:50:55Z</time>
      </trkpt>
      <trkpt lat="38.3423320" lon="-0.6941240">
        <ele>273.1</ele>
        <time>2017-12-18T13:50:56Z</time>
      </trkpt>
      <trkpt lat="38.3424210" lon="-0.6940960">
        <ele>273.1</ele>
        <time>2017-12-18T13:50:57Z</time>
      </trkpt>
      <trkpt lat="38.3425110" lon="-0.6940750">
        <ele>273.1</ele>
        <time>2017-12-18T13:50:58Z</time>
      </trkpt>
      <trkpt lat="38.3426000" lon="-0.6940580">
        <ele>273.1</ele>
        <time>2017-12-18T13:50:59Z</time>
      </trkpt>
      <trkpt lat="38.3426890" lon="-0.6940470">
        <ele>272.2</ele>
        <time>2017-12-18T13:51:00Z</time>
      </trkpt>
      <trkpt lat="38.3427760" lon="-0.6940370">
        <ele>272.2</ele>
        <time>2017-12-18T13:51:01Z</time>
      </trkpt>
      <trkpt lat="38.3428620" lon="-0.6940310">
        <ele>272.2</ele>
        <time>2017-12-18T13:51:02Z</time>
      </trkpt>
      <trkpt lat="38.3429470" lon="-0.6940280">
        <ele>272.2</ele>
        <time>2017-12-18T13:51:03Z</time>
      </trkpt>
      <trkpt lat="38.3430310" lon="-0.6940220">
        <ele>271.1</ele>
        <time>2017-12-18T13:51:04Z</time>
      </trkpt>
      <trkpt lat="38.3431150" lon="-0.6940140">
        <ele>271.1</ele>
        <time>2017-12-18T13:51:05Z</time>
      </trkpt>
      <trkpt lat="38.3431990" lon="-0.6940020">
        <ele>271.1</ele>
        <time>2017-12-18T13:51:06Z</time>
      </trkpt>
      <trkpt lat="38.3432840" lon="-0.6939830">
        <ele>271.1</ele>
        <time>2017-12-18T13:51:07Z</time>
      </trkpt>
      <trkpt lat="38.3433650" lon="-0.6939580">
        <ele>271.1</ele>
        <time>2017-12-18T13:51:08Z</time>
      </trkpt>
      <trkpt lat="38.3434490" lon="-0.6939380">
        <ele>271.1</ele>
        <time>2017-12-18T13:51:09Z</time>
      </trkpt>
      <trkpt lat="38.3435330" lon="-0.6939330">
        <ele>271.1</ele>
        <time>2017-12-18T13:51:10Z</time>
      </trkpt>
      <trkpt lat="38.3436180" lon="-0.6939440">
        <ele>271.1</ele>
        <time>2017-12-18T13:51:11Z</time>
      </trkpt>
      <trkpt lat="38.3437020" lon="-0.6939630">
        <ele>271.1</ele>
        <time>2017-12-18T13:51:12Z</time>
      </trkpt>
      <trkpt lat="38.3437850" lon="-0.6939850">
        <ele>271.1</ele>
        <time>2017-12-18T13:51:13Z</time>
      </trkpt>
      <trkpt lat="38.3438710" lon="-0.6940030">
        <ele>271.1</ele>
        <time>2017-12-18T13:51:14Z</time>
      </trkpt>
      <trkpt lat="38.3439570" lon="-0.6940210">
        <ele>271.1</ele>
        <time>2017-12-18T13:51:15Z</time>
      </trkpt>
      <trkpt lat="38.3440460" lon="-0.6940400">
        <ele>271.1</ele>
        <time>2017-12-18T13:51:16Z</time>
      </trkpt>
      <trkpt lat="38.3441360" lon="-0.6940590">
        <ele>271.1</ele>
        <time>2017-12-18T13:51:17Z</time>
      </trkpt>
      <trkpt lat="38.3442290" lon="-0.6940780">
        <ele>271.1</ele>
        <time>2017-12-18T13:51:18Z</time>
      </trkpt>
      <trkpt lat="38.3443200" lon="-0.6940930">
        <ele>271.1</ele>
        <time>2017-12-18T13:51:19Z</time>
      </trkpt>
      <trkpt lat="38.3444130" lon="-0.6940950">
        <ele>267.2</ele>
        <time>2017-12-18T13:51:20Z</time>
      </trkpt>
      <trkpt lat="38.3445030" lon="-0.6940830">
        <ele>267.2</ele>
        <time>2017-12-18T13:51:21Z</time>
      </trkpt>
      <trkpt lat="38.3445930" lon="-0.6940630">
        <ele>267.2</ele>
        <time>2017-12-18T13:51:22Z</time>
      </trkpt>
      <trkpt lat="38.3446800" lon="-0.6940410">
        <ele>267.2</ele>
        <time>2017-12-18T13:51:23Z</time>
      </trkpt>
      <trkpt lat="38.3447660" lon="-0.6940200">
        <ele>267.2</ele>
        <time>2017-12-18T13:51:24Z</time>
      </trkpt>
      <trkpt lat="38.3448510" lon="-0.6940040">
        <ele>267.2</ele>
        <time>2017-12-18T13:51:25Z</time>
      </trkpt>
      <trkpt lat="38.3449350" lon="-0.6939900">
        <ele>266.1</ele>
        <time>2017-12-18T13:51:26Z</time>
      </trkpt>
      <trkpt lat="38.3450180" lon="-0.6939790">
        <ele>266.1</ele>
        <time>2017-12-18T13:51:27Z</time>
      </trkpt>
      <trkpt lat="38.3451000" lon="-0.6939710">
        <ele>265.2</ele>
        <time>2017-12-18T13:51:28Z</time>
      </trkpt>
      <trkpt lat="38.3451820" lon="-0.6939640">
        <ele>265.2</ele>
        <time>2017-12-18T13:51:29Z</time>
      </trkpt>
      <trkpt lat="38.3452630" lon="-0.6939530">
        <ele>265.2</ele>
        <time>2017-12-18T13:51:30Z</time>
      </trkpt>
      <trkpt lat="38.3453440" lon="-0.6939380">
        <ele>265.2</ele>
        <time>2017-12-18T13:51:31Z</time>
      </trkpt>
      <trkpt lat="38.3454250" lon="-0.6939190">
        <ele>265.2</ele>
        <time>2017-12-18T13:51:32Z</time>
      </trkpt>
      <trkpt lat="38.3455080" lon="-0.6938980">
        <ele>265.2</ele>
        <time>2017-12-18T13:51:33Z</time>
      </trkpt>
      <trkpt lat="38.3455880" lon="-0.6938730">
        <ele>265.2</ele>
        <time>2017-12-18T13:51:34Z</time>
      </trkpt>
      <trkpt lat="38.3456680" lon="-0.6938460">
        <ele>265.2</ele>
        <time>2017-12-18T13:51:35Z</time>
      </trkpt>
      <trkpt lat="38.3457480" lon="-0.6938180">
        <ele>265.2</ele>
        <time>2017-12-18T13:51:36Z</time>
      </trkpt>
      <trkpt lat="38.3458270" lon="-0.6937880">
        <ele>265.2</ele>
        <time>2017-12-18T13:51:37Z</time>
      </trkpt>
      <trkpt lat="38.3459070" lon="-0.6937590">
        <ele>264.1</ele>
        <time>2017-12-18T13:51:38Z</time>
      </trkpt>
      <trkpt lat="38.3459860" lon="-0.6937320">
        <ele>264.1</ele>
        <time>2017-12-18T13:51:39Z</time>
      </trkpt>
      <trkpt lat="38.3460630" lon="-0.6937060">
        <ele>264.1</ele>
        <time>2017-12-18T13:51:40Z</time>
      </trkpt>
      <trkpt lat="38.3461410" lon="-0.6936840">
        <ele>264.1</ele>
        <time>2017-12-18T13:51:41Z</time>
      </trkpt>
      <trkpt lat="38.3462190" lon="-0.6936650">
        <ele>264.1</ele>
        <time>2017-12-18T13:51:42Z</time>
      </trkpt>
      <trkpt lat="38.3462960" lon="-0.6936480">
        <ele>264.1</ele>
        <time>2017-12-18T13:51:43Z</time>
      </trkpt>
      <trkpt lat="38.3463720" lon="-0.6936330">
        <ele>264.1</ele>
        <time>2017-12-18T13:51:44Z</time>
      </trkpt>
      <trkpt lat="38.3464480" lon="-0.6936230">
        <ele>264.1</ele>
        <time>2017-12-18T13:51:45Z</time>
      </trkpt>
      <trkpt lat="38.3465220" lon="-0.6936160">
        <ele>263.2</ele>
        <time>2017-12-18T13:51:46Z</time>
      </trkpt>
      <trkpt lat="38.3465950" lon="-0.6936090">
        <ele>263.2</ele>
        <time>2017-12-18T13:51:47Z</time>
      </trkpt>
      <trkpt lat="38.3466660" lon="-0.6936030">
        <ele>263.2</ele>
        <time>2017-12-18T13:51:48Z</time>
      </trkpt>
      <trkpt lat="38.3467360" lon="-0.6936000">
        <ele>263.2</ele>
        <time>2017-12-18T13:51:49Z</time>
      </trkpt>
      <trkpt lat="38.3468030" lon="-0.6935920">
        <ele>263.2</ele>
        <time>2017-12-18T13:51:50Z</time>
      </trkpt>
      <trkpt lat="38.3468700" lon="-0.6935790">
        <ele>263.2</ele>
        <time>2017-12-18T13:51:51Z</time>
      </trkpt>
      <trkpt lat="38.3469370" lon="-0.6935620">
        <ele>264.1</ele>
        <time>2017-12-18T13:51:52Z</time>
      </trkpt>
      <trkpt lat="38.3470030" lon="-0.6935400">
        <ele>264.1</ele>
        <time>2017-12-18T13:51:53Z</time>
      </trkpt>
      <trkpt lat="38.3470670" lon="-0.6935150">
        <ele>264.1</ele>
        <time>2017-12-18T13:51:54Z</time>
      </trkpt>
      <trkpt lat="38.3471310" lon="-0.6934870">
        <ele>264.1</ele>
        <time>2017-12-18T13:51:55Z</time>
      </trkpt>
      <trkpt lat="38.3471960" lon="-0.6934590">
        <ele>264.1</ele>
        <time>2017-12-18T13:51:56Z</time>
      </trkpt>
      <trkpt lat="38.3472610" lon="-0.6934300">
        <ele>264.1</ele>
        <time>2017-12-18T13:51:57Z</time>
      </trkpt>
      <trkpt lat="38.3473260" lon="-0.6934000">
        <ele>264.1</ele>
        <time>2017-12-18T13:51:58Z</time>
      </trkpt>
      <trkpt lat="38.3473910" lon="-0.6933690">
        <ele>264.1</ele>
        <time>2017-12-18T13:51:59Z</time>
      </trkpt>
      <trkpt lat="38.3474570" lon="-0.6933420">
        <ele>264.1</ele>
        <time>2017-12-18T13:52:00Z</time>
      </trkpt>
      <trkpt lat="38.3475240" lon="-0.6933190">
        <ele>264.1</ele>
        <time>2017-12-18T13:52:01Z</time>
      </trkpt>
      <trkpt lat="38.3475910" lon="-0.6932990">
        <ele>264.1</ele>
        <time>2017-12-18T13:52:02Z</time>
      </trkpt>
      <trkpt lat="38.3476600" lon="-0.6932780">
        <ele>264.1</ele>
        <time>2017-12-18T13:52:03Z</time>
      </trkpt>
      <trkpt lat="38.3477270" lon="-0.6932540">
        <ele>264.1</ele>
        <time>2017-12-18T13:52:04Z</time>
      </trkpt>
      <trkpt lat="38.3477940" lon="-0.6932270">
        <ele>264.1</ele>
        <time>2017-12-18T13:52:05Z</time>
      </trkpt>
      <trkpt lat="38.3478610" lon="-0.6932020">
        <ele>264.1</ele>
        <time>2017-12-18T13:52:06Z</time>
      </trkpt>
      <trkpt lat="38.3479300" lon="-0.6931800">
        <ele>264.1</ele>
        <time>2017-12-18T13:52:07Z</time>
      </trkpt>
      <trkpt lat="38.3479990" lon="-0.6931570">
        <ele>263.2</ele>
        <time>2017-12-18T13:52:08Z</time>
      </trkpt>
      <trkpt lat="38.3480650" lon="-0.6931250">
        <ele>263.2</ele>
        <time>2017-12-18T13:52:09Z</time>
      </trkpt>
      <trkpt lat="38.3481280" lon="-0.6930860">
        <ele>263.2</ele>
        <time>2017-12-18T13:52:10Z</time>
      </trkpt>
      <trkpt lat="38.3481870" lon="-0.6930390">
        <ele>263.2</ele>
        <time>2017-12-18T13:52:11Z</time>
      </trkpt>
      <trkpt lat="38.3482440" lon="-0.6929880">
        <ele>263.2</ele>
        <time>2017-12-18T13:52:12Z</time>
      </trkpt>
      <trkpt lat="38.3483020" lon="-0.6929400">
        <ele>263.2</ele>
        <time>2017-12-18T13:52:13Z</time>
      </trkpt>
      <trkpt lat="38.3483610" lon="-0.6928960">
        <ele>263.2</ele>
        <time>2017-12-18T13:52:14Z</time>
      </trkpt>
      <trkpt lat="38.3484210" lon="-0.6928570">
        <ele>263.2</ele>
        <time>2017-12-18T13:52:15Z</time>
      </trkpt>
      <trkpt lat="38.3484810" lon="-0.6928240">
        <ele>263.2</ele>
        <time>2017-12-18T13:52:16Z</time>
      </trkpt>
      <trkpt lat="38.3485410" lon="-0.6927960">
        <ele>263.2</ele>
        <time>2017-12-18T13:52:17Z</time>
      </trkpt>
      <trkpt lat="38.3486010" lon="-0.6927710">
        <ele>263.2</ele>
        <time>2017-12-18T13:52:18Z</time>
      </trkpt>
      <trkpt lat="38.3486620" lon="-0.6927480">
        <ele>263.2</ele>
        <time>2017-12-18T13:52:19Z</time>
      </trkpt>
      <trkpt lat="38.3487220" lon="-0.6927260">
        <ele>263.2</ele>
        <time>2017-12-18T13:52:20Z</time>
      </trkpt>
      <trkpt lat="38.3487800" lon="-0.6927000">
        <ele>263.2</ele>
        <time>2017-12-18T13:52:21Z</time>
      </trkpt>
      <trkpt lat="38.3488370" lon="-0.6926740">
        <ele>262.1</ele>
        <time>2017-12-18T13:52:22Z</time>
      </trkpt>
      <trkpt lat="38.3488940" lon="-0.6926510">
        <ele>262.1</ele>
        <time>2017-12-18T13:52:23Z</time>
      </trkpt>
      <trkpt lat="38.3489500" lon="-0.6926320">
        <ele>262.1</ele>
        <time>2017-12-18T13:52:24Z</time>
      </trkpt>
      <trkpt lat="38.3490050" lon="-0.6926130">
        <ele>262.1</ele>
        <time>2017-12-18T13:52:25Z</time>
      </trkpt>
      <trkpt lat="38.3490590" lon="-0.6925950">
        <ele>262.1</ele>
        <time>2017-12-18T13:52:26Z</time>
      </trkpt>
      <trkpt lat="38.3491130" lon="-0.6925780">
        <ele>262.1</ele>
        <time>2017-12-18T13:52:27Z</time>
      </trkpt>
      <trkpt lat="38.3491640" lon="-0.6925610">
        <ele>262.1</ele>
        <time>2017-12-18T13:52:28Z</time>
      </trkpt>
      <trkpt lat="38.3492140" lon="-0.6925420">
        <ele>262.1</ele>
        <time>2017-12-18T13:52:29Z</time>
      </trkpt>
      <trkpt lat="38.3492650" lon="-0.6925220">
        <ele>262.1</ele>
        <time>2017-12-18T13:52:30Z</time>
      </trkpt>
      <trkpt lat="38.3493150" lon="-0.6925020">
        <ele>262.1</ele>
        <time>2017-12-18T13:52:31Z</time>
      </trkpt>
      <trkpt lat="38.3493650" lon="-0.6924790">
        <ele>262.1</ele>
        <time>2017-12-18T13:52:32Z</time>
      </trkpt>
      <trkpt lat="38.3494100" lon="-0.6924470">
        <ele>262.1</ele>
        <time>2017-12-18T13:52:33Z</time>
      </trkpt>
      <trkpt lat="38.3494510" lon="-0.6924070">
        <ele>262.1</ele>
        <time>2017-12-18T13:52:34Z</time>
      </trkpt>
      <trkpt lat="38.3494900" lon="-0.6923790">
        <ele>262.1</ele>
        <time>2017-12-18T13:52:35Z</time>
      </trkpt>
      <trkpt lat="38.3495250" lon="-0.6923570">
        <ele>262.1</ele>
        <time>2017-12-18T13:52:36Z</time>
      </trkpt>
      <trkpt lat="38.3495630" lon="-0.6923330">
        <ele>262.1</ele>
        <time>2017-12-18T13:52:37Z</time>
      </trkpt>
      <trkpt lat="38.3496010" lon="-0.6923020">
        <ele>262.1</ele>
        <time>2017-12-18T13:52:38Z</time>
      </trkpt>
      <trkpt lat="38.3496420" lon="-0.6922670">
        <ele>262.1</ele>
        <time>2017-12-18T13:52:39Z</time>
      </trkpt>
      <trkpt lat="38.3496880" lon="-0.6922320">
        <ele>262.1</ele>
        <time>2017-12-18T13:52:40Z</time>
      </trkpt>
      <trkpt lat="38.3497340" lon="-0.6921990">
        <ele>262.1</ele>
        <time>2017-12-18T13:52:41Z</time>
      </trkpt>
      <trkpt lat="38.3497810" lon="-0.6921670">
        <ele>262.1</ele>
        <time>2017-12-18T13:52:42Z</time>
      </trkpt>
      <trkpt lat="38.3498280" lon="-0.6921350">
        <ele>262.1</ele>
        <time>2017-12-18T13:52:43Z</time>
      </trkpt>
      <trkpt lat="38.3498740" lon="-0.6921040">
        <ele>262.1</ele>
        <time>2017-12-18T13:52:44Z</time>
      </trkpt>
      <trkpt lat="38.3499230" lon="-0.6920760">
        <ele>262.1</ele>
        <time>2017-12-18T13:52:45Z</time>
      </trkpt>
      <trkpt lat="38.3499730" lon="-0.6920520">
        <ele>263.2</ele>
        <time>2017-12-18T13:52:46Z</time>
      </trkpt>
      <trkpt lat="38.3500260" lon="-0.6920340">
        <ele>263.2</ele>
        <time>2017-12-18T13:52:47Z</time>
      </trkpt>
      <trkpt lat="38.3500790" lon="-0.6920150">
        <ele>263.2</ele>
        <time>2017-12-18T13:52:48Z</time>
      </trkpt>
      <trkpt lat="38.3501340" lon="-0.6919960">
        <ele>263.2</ele>
        <time>2017-12-18T13:52:49Z</time>
      </trkpt>
      <trkpt lat="38.3501890" lon="-0.6919780">
        <ele>263.2</ele>
        <time>2017-12-18T13:52:50Z</time>
      </trkpt>
      <trkpt lat="38.3502450" lon="-0.6919560">
        <ele>263.2</ele>
        <time>2017-12-18T13:52:51Z</time>
      </trkpt>
      <trkpt lat="38.3503010" lon="-0.6919370">
        <ele>263.2</ele>
        <time>2017-12-18T13:52:52Z</time>
      </trkpt>
      <trkpt lat="38.3503570" lon="-0.6919200">
        <ele>263.2</ele>
        <time>2017-12-18T13:52:53Z</time>
      </trkpt>
      <trkpt lat="38.3504150" lon="-0.6919050">
        <ele>263.2</ele>
        <time>2017-12-18T13:52:54Z</time>
      </trkpt>
      <trkpt lat="38.3504740" lon="-0.6918900">
        <ele>263.2</ele>
        <time>2017-12-18T13:52:55Z</time>
      </trkpt>
      <trkpt lat="38.3505320" lon="-0.6918750">
        <ele>262.1</ele>
        <time>2017-12-18T13:52:56Z</time>
      </trkpt>
      <trkpt lat="38.3505910" lon="-0.6918590">
        <ele>262.1</ele>
        <time>2017-12-18T13:52:57Z</time>
      </trkpt>
      <trkpt lat="38.3506500" lon="-0.6918430">
        <ele>262.1</ele>
        <time>2017-12-18T13:52:58Z</time>
      </trkpt>
      <trkpt lat="38.3507100" lon="-0.6918290">
        <ele>262.1</ele>
        <time>2017-12-18T13:52:59Z</time>
      </trkpt>
      <trkpt lat="38.3507700" lon="-0.6918130">
        <ele>262.1</ele>
        <time>2017-12-18T13:53:00Z</time>
      </trkpt>
      <trkpt lat="38.3508320" lon="-0.6917970">
        <ele>262.1</ele>
        <time>2017-12-18T13:53:01Z</time>
      </trkpt>
      <trkpt lat="38.3508970" lon="-0.6917840">
        <ele>262.1</ele>
        <time>2017-12-18T13:53:02Z</time>
      </trkpt>
      <trkpt lat="38.3509630" lon="-0.6917780">
        <ele>262.1</ele>
        <time>2017-12-18T13:53:03Z</time>
      </trkpt>
      <trkpt lat="38.3510290" lon="-0.6917790">
        <ele>261.2</ele>
        <time>2017-12-18T13:53:04Z</time>
      </trkpt>
      <trkpt lat="38.3510930" lon="-0.6917880">
        <ele>261.2</ele>
        <time>2017-12-18T13:53:05Z</time>
      </trkpt>
      <trkpt lat="38.3511560" lon="-0.6918020">
        <ele>261.2</ele>
        <time>2017-12-18T13:53:06Z</time>
      </trkpt>
      <trkpt lat="38.3512200" lon="-0.6918190">
        <ele>261.2</ele>
        <time>2017-12-18T13:53:07Z</time>
      </trkpt>
      <trkpt lat="38.3512840" lon="-0.6918390">
        <ele>261.2</ele>
        <time>2017-12-18T13:53:08Z</time>
      </trkpt>
      <trkpt lat="38.3513480" lon="-0.6918620">
        <ele>261.2</ele>
        <time>2017-12-18T13:53:09Z</time>
      </trkpt>
      <trkpt lat="38.3514120" lon="-0.6918850">
        <ele>261.2</ele>
        <time>2017-12-18T13:53:10Z</time>
      </trkpt>
      <trkpt lat="38.3514770" lon="-0.6919060">
        <ele>261.2</ele>
        <time>2017-12-18T13:53:11Z</time>
      </trkpt>
      <trkpt lat="38.3515430" lon="-0.6919270">
        <ele>261.2</ele>
        <time>2017-12-18T13:53:12Z</time>
      </trkpt>
      <trkpt lat="38.3516100" lon="-0.6919490">
        <ele>261.2</ele>
        <time>2017-12-18T13:53:13Z</time>
      </trkpt>
      <trkpt lat="38.3516760" lon="-0.6919760">
        <ele>260.2</ele>
        <time>2017-12-18T13:53:14Z</time>
      </trkpt>
      <trkpt lat="38.3517410" lon="-0.6920070">
        <ele>260.2</ele>
        <time>2017-12-18T13:53:15Z</time>
      </trkpt>
      <trkpt lat="38.3518030" lon="-0.6920420">
        <ele>260.2</ele>
        <time>2017-12-18T13:53:16Z</time>
      </trkpt>
      <trkpt lat="38.3518660" lon="-0.6920810">
        <ele>260.2</ele>
        <time>2017-12-18T13:53:17Z</time>
      </trkpt>
      <trkpt lat="38.3519270" lon="-0.6921200">
        <ele>260.2</ele>
        <time>2017-12-18T13:53:18Z</time>
      </trkpt>
      <trkpt lat="38.3519890" lon="-0.6921620">
        <ele>260.2</ele>
        <time>2017-12-18T13:53:19Z</time>
      </trkpt>
      <trkpt lat="38.3520520" lon="-0.6922010">
        <ele>260.2</ele>
        <time>2017-12-18T13:53:20Z</time>
      </trkpt>
      <trkpt lat="38.3521170" lon="-0.6922350">
        <ele>260.2</ele>
        <time>2017-12-18T13:53:21Z</time>
      </trkpt>
      <trkpt lat="38.3521870" lon="-0.6922640">
        <ele>259.1</ele>
        <time>2017-12-18T13:53:22Z</time>
      </trkpt>
      <trkpt lat="38.3522610" lon="-0.6922770">
        <ele>259.1</ele>
        <time>2017-12-18T13:53:23Z</time>
      </trkpt>
      <trkpt lat="38.3523380" lon="-0.6922820">
        <ele>259.1</ele>
        <time>2017-12-18T13:53:24Z</time>
      </trkpt>
      <trkpt lat="38.3524160" lon="-0.6922830">
        <ele>259.1</ele>
        <time>2017-12-18T13:53:25Z</time>
      </trkpt>
      <trkpt lat="38.3524950" lon="-0.6922810">
        <ele>258.2</ele>
        <time>2017-12-18T13:53:26Z</time>
      </trkpt>
      <trkpt lat="38.3525740" lon="-0.6922760">
        <ele>258.2</ele>
        <time>2017-12-18T13:53:27Z</time>
      </trkpt>
      <trkpt lat="38.3526530" lon="-0.6922720">
        <ele>258.2</ele>
        <time>2017-12-18T13:53:28Z</time>
      </trkpt>
      <trkpt lat="38.3527310" lon="-0.6922670">
        <ele>258.2</ele>
        <time>2017-12-18T13:53:29Z</time>
      </trkpt>
      <trkpt lat="38.3528090" lon="-0.6922620">
        <ele>257.1</ele>
        <time>2017-12-18T13:53:30Z</time>
      </trkpt>
      <trkpt lat="38.3528880" lon="-0.6922580">
        <ele>257.1</ele>
        <time>2017-12-18T13:53:31Z</time>
      </trkpt>
      <trkpt lat="38.3529660" lon="-0.6922530">
        <ele>257.1</ele>
        <time>2017-12-18T13:53:32Z</time>
      </trkpt>
      <trkpt lat="38.3530450" lon="-0.6922480">
        <ele>257.1</ele>
        <time>2017-12-18T13:53:33Z</time>
      </trkpt>
      <trkpt lat="38.3531230" lon="-0.6922440">
        <ele>257.1</ele>
        <time>2017-12-18T13:53:34Z</time>
      </trkpt>
      <trkpt lat="38.3532020" lon="-0.6922410">
        <ele>257.1</ele>
        <time>2017-12-18T13:53:35Z</time>
      </trkpt>
      <trkpt lat="38.3532800" lon="-0.6922360">
        <ele>256.2</ele>
        <time>2017-12-18T13:53:36Z</time>
      </trkpt>
      <trkpt lat="38.3533570" lon="-0.6922320">
        <ele>256.2</ele>
        <time>2017-12-18T13:53:37Z</time>
      </trkpt>
      <trkpt lat="38.3534340" lon="-0.6922300">
        <ele>256.2</ele>
        <time>2017-12-18T13:53:38Z</time>
      </trkpt>
      <trkpt lat="38.3535100" lon="-0.6922310">
        <ele>256.2</ele>
        <time>2017-12-18T13:53:39Z</time>
      </trkpt>
      <trkpt lat="38.3535870" lon="-0.6922380">
        <ele>256.2</ele>
        <time>2017-12-18T13:53:40Z</time>
      </trkpt>
      <trkpt lat="38.3536630" lon="-0.6922510">
        <ele>256.2</ele>
        <time>2017-12-18T13:53:41Z</time>
      </trkpt>
      <trkpt lat="38.3537400" lon="-0.6922710">
        <ele>256.2</ele>
        <time>2017-12-18T13:53:42Z</time>
      </trkpt>
      <trkpt lat="38.3538160" lon="-0.6922890">
        <ele>256.2</ele>
        <time>2017-12-18T13:53:43Z</time>
      </trkpt>
      <trkpt lat="38.3538920" lon="-0.6923040">
        <ele>256.2</ele>
        <time>2017-12-18T13:53:44Z</time>
      </trkpt>
      <trkpt lat="38.3539660" lon="-0.6923140">
        <ele>256.2</ele>
        <time>2017-12-18T13:53:45Z</time>
      </trkpt>
      <trkpt lat="38.3540390" lon="-0.6923230">
        <ele>256.2</ele>
        <time>2017-12-18T13:53:46Z</time>
      </trkpt>
      <trkpt lat="38.3541110" lon="-0.6923340">
        <ele>256.2</ele>
        <time>2017-12-18T13:53:47Z</time>
      </trkpt>
      <trkpt lat="38.3541830" lon="-0.6923420">
        <ele>256.2</ele>
        <time>2017-12-18T13:53:48Z</time>
      </trkpt>
      <trkpt lat="38.3542540" lon="-0.6923480">
        <ele>256.2</ele>
        <time>2017-12-18T13:53:49Z</time>
      </trkpt>
      <trkpt lat="38.3543250" lon="-0.6923520">
        <ele>256.2</ele>
        <time>2017-12-18T13:53:50Z</time>
      </trkpt>
      <trkpt lat="38.3543960" lon="-0.6923520">
        <ele>256.2</ele>
        <time>2017-12-18T13:53:51Z</time>
      </trkpt>
      <trkpt lat="38.3544670" lon="-0.6923450">
        <ele>256.2</ele>
        <time>2017-12-18T13:53:52Z</time>
      </trkpt>
      <trkpt lat="38.3545360" lon="-0.6923320">
        <ele>256.2</ele>
        <time>2017-12-18T13:53:53Z</time>
      </trkpt>
      <trkpt lat="38.3546040" lon="-0.6923130">
        <ele>256.2</ele>
        <time>2017-12-18T13:53:54Z</time>
      </trkpt>
      <trkpt lat="38.3546730" lon="-0.6922910">
        <ele>256.2</ele>
        <time>2017-12-18T13:53:55Z</time>
      </trkpt>
      <trkpt lat="38.3547400" lon="-0.6922660">
        <ele>256.2</ele>
        <time>2017-12-18T13:53:56Z</time>
      </trkpt>
      <trkpt lat="38.3548070" lon="-0.6922400">
        <ele>256.2</ele>
        <time>2017-12-18T13:53:57Z</time>
      </trkpt>
      <trkpt lat="38.3548730" lon="-0.6922150">
        <ele>258.2</ele>
        <time>2017-12-18T13:53:58Z</time>
      </trkpt>
      <trkpt lat="38.3549400" lon="-0.6921900">
        <ele>258.2</ele>
        <time>2017-12-18T13:53:59Z</time>
      </trkpt>
      <trkpt lat="38.3550060" lon="-0.6921670">
        <ele>258.2</ele>
        <time>2017-12-18T13:54:00Z</time>
      </trkpt>
      <trkpt lat="38.3550720" lon="-0.6921460">
        <ele>258.2</ele>
        <time>2017-12-18T13:54:01Z</time>
      </trkpt>
      <trkpt lat="38.3551380" lon="-0.6921250">
        <ele>258.2</ele>
        <time>2017-12-18T13:54:02Z</time>
      </trkpt>
      <trkpt lat="38.3552030" lon="-0.6921040">
        <ele>258.2</ele>
        <time>2017-12-18T13:54:03Z</time>
      </trkpt>
      <trkpt lat="38.3552670" lon="-0.6920800">
        <ele>258.2</ele>
        <time>2017-12-18T13:54:04Z</time>
      </trkpt>
      <trkpt lat="38.3553300" lon="-0.6920550">
        <ele>258.2</ele>
        <time>2017-12-18T13:54:05Z</time>
      </trkpt>
      <trkpt lat="38.3553930" lon="-0.6920300">
        <ele>258.2</ele>
        <time>2017-12-18T13:54:06Z</time>
      </trkpt>
      <trkpt lat="38.3554550" lon="-0.6920030">
        <ele>258.2</ele>
        <time>2017-12-18T13:54:07Z</time>
      </trkpt>
      <trkpt lat="38.3555170" lon="-0.6919740">
        <ele>259.1</ele>
        <time>2017-12-18T13:54:08Z</time>
      </trkpt>
      <trkpt lat="38.3555790" lon="-0.6919450">
        <ele>259.1</ele>
        <time>2017-12-18T13:54:09Z</time>
      </trkpt>
      <trkpt lat="38.3556400" lon="-0.6919140">
        <ele>259.1</ele>
        <time>2017-12-18T13:54:10Z</time>
      </trkpt>
      <trkpt lat="38.3557010" lon="-0.6918840">
        <ele>259.1</ele>
        <time>2017-12-18T13:54:11Z</time>
      </trkpt>
      <trkpt lat="38.3557610" lon="-0.6918520">
        <ele>259.1</ele>
        <time>2017-12-18T13:54:12Z</time>
      </trkpt>
      <trkpt lat="38.3558210" lon="-0.6918210">
        <ele>259.1</ele>
        <time>2017-12-18T13:54:13Z</time>
      </trkpt>
      <trkpt lat="38.3558800" lon="-0.6917900">
        <ele>259.1</ele>
        <time>2017-12-18T13:54:14Z</time>
      </trkpt>
      <trkpt lat="38.3559380" lon="-0.6917600">
        <ele>259.1</ele>
        <time>2017-12-18T13:54:15Z</time>
      </trkpt>
      <trkpt lat="38.3559980" lon="-0.6917330">
        <ele>259.1</ele>
        <time>2017-12-18T13:54:16Z</time>
      </trkpt>
      <trkpt lat="38.3560560" lon="-0.6917040">
        <ele>259.1</ele>
        <time>2017-12-18T13:54:17Z</time>
      </trkpt>
      <trkpt lat="38.3561150" lon="-0.6916770">
        <ele>259.1</ele>
        <time>2017-12-18T13:54:18Z</time>
      </trkpt>
      <trkpt lat="38.3561740" lon="-0.6916530">
        <ele>259.1</ele>
        <time>2017-12-18T13:54:19Z</time>
      </trkpt>
      <trkpt lat="38.3562330" lon="-0.6916320">
        <ele>260.2</ele>
        <time>2017-12-18T13:54:20Z</time>
      </trkpt>
      <trkpt lat="38.3562920" lon="-0.6916140">
        <ele>260.2</ele>
        <time>2017-12-18T13:54:21Z</time>
      </trkpt>
      <trkpt lat="38.3563520" lon="-0.6916000">
        <ele>260.2</ele>
        <time>2017-12-18T13:54:22Z</time>
      </trkpt>
      <trkpt lat="38.3564120" lon="-0.6915860">
        <ele>260.2</ele>
        <time>2017-12-18T13:54:23Z</time>
      </trkpt>
      <trkpt lat="38.3564720" lon="-0.6915710">
        <ele>260.2</ele>
        <time>2017-12-18T13:54:24Z</time>
      </trkpt>
      <trkpt lat="38.3565310" lon="-0.6915550">
        <ele>260.2</ele>
        <time>2017-12-18T13:54:25Z</time>
      </trkpt>
      <trkpt lat="38.3565950" lon="-0.6915390">
        <ele>260.2</ele>
        <time>2017-12-18T13:54:26Z</time>
      </trkpt>
      <trkpt lat="38.3566610" lon="-0.6915230">
        <ele>260.2</ele>
        <time>2017-12-18T13:54:27Z</time>
      </trkpt>
      <trkpt lat="38.3567250" lon="-0.6915050">
        <ele>260.2</ele>
        <time>2017-12-18T13:54:28Z</time>
      </trkpt>
      <trkpt lat="38.3567920" lon="-0.6914840">
        <ele>260.2</ele>
        <time>2017-12-18T13:54:29Z</time>
      </trkpt>
      <trkpt lat="38.3568580" lon="-0.6914630">
        <ele>260.2</ele>
        <time>2017-12-18T13:54:30Z</time>
      </trkpt>
      <trkpt lat="38.3569240" lon="-0.6914370">
        <ele>260.2</ele>
        <time>2017-12-18T13:54:31Z</time>
      </trkpt>
      <trkpt lat="38.3569890" lon="-0.6914100">
        <ele>260.2</ele>
        <time>2017-12-18T13:54:32Z</time>
      </trkpt>
      <trkpt lat="38.3570540" lon="-0.6913860">
        <ele>260.2</ele>
        <time>2017-12-18T13:54:33Z</time>
      </trkpt>
      <trkpt lat="38.3571200" lon="-0.6913640">
        <ele>260.2</ele>
        <time>2017-12-18T13:54:34Z</time>
      </trkpt>
      <trkpt lat="38.3571860" lon="-0.6913430">
        <ele>260.2</ele>
        <time>2017-12-18T13:54:35Z</time>
      </trkpt>
      <trkpt lat="38.3572510" lon="-0.6913210">
        <ele>261.2</ele>
        <time>2017-12-18T13:54:36Z</time>
      </trkpt>
      <trkpt lat="38.3573150" lon="-0.6912990">
        <ele>261.2</ele>
        <time>2017-12-18T13:54:37Z</time>
      </trkpt>
      <trkpt lat="38.3573800" lon="-0.6912760">
        <ele>261.2</ele>
        <time>2017-12-18T13:54:38Z</time>
      </trkpt>
      <trkpt lat="38.3574440" lon="-0.6912540">
        <ele>261.2</ele>
        <time>2017-12-18T13:54:39Z</time>
      </trkpt>
      <trkpt lat="38.3575070" lon="-0.6912330">
        <ele>261.2</ele>
        <time>2017-12-18T13:54:40Z</time>
      </trkpt>
      <trkpt lat="38.3575710" lon="-0.6912130">
        <ele>261.2</ele>
        <time>2017-12-18T13:54:41Z</time>
      </trkpt>
      <trkpt lat="38.3576340" lon="-0.6911950">
        <ele>261.2</ele>
        <time>2017-12-18T13:54:42Z</time>
      </trkpt>
      <trkpt lat="38.3576960" lon="-0.6911760">
        <ele>261.2</ele>
        <time>2017-12-18T13:54:43Z</time>
      </trkpt>
      <trkpt lat="38.3577570" lon="-0.6911590">
        <ele>261.2</ele>
        <time>2017-12-18T13:54:44Z</time>
      </trkpt>
      <trkpt lat="38.3578200" lon="-0.6911480">
        <ele>261.2</ele>
        <time>2017-12-18T13:54:45Z</time>
      </trkpt>
      <trkpt lat="38.3578830" lon="-0.6911390">
        <ele>261.2</ele>
        <time>2017-12-18T13:54:46Z</time>
      </trkpt>
      <trkpt lat="38.3579470" lon="-0.6911300">
        <ele>261.2</ele>
        <time>2017-12-18T13:54:47Z</time>
      </trkpt>
      <trkpt lat="38.3580110" lon="-0.6911200">
        <ele>261.2</ele>
        <time>2017-12-18T13:54:48Z</time>
      </trkpt>
      <trkpt lat="38.3580740" lon="-0.6911120">
        <ele>261.2</ele>
        <time>2017-12-18T13:54:49Z</time>
      </trkpt>
      <trkpt lat="38.3581380" lon="-0.6911040">
        <ele>261.2</ele>
        <time>2017-12-18T13:54:50Z</time>
      </trkpt>
      <trkpt lat="38.3582020" lon="-0.6910960">
        <ele>261.2</ele>
        <time>2017-12-18T13:54:51Z</time>
      </trkpt>
      <trkpt lat="38.3582670" lon="-0.6910870">
        <ele>261.2</ele>
        <time>2017-12-18T13:54:52Z</time>
      </trkpt>
      <trkpt lat="38.3583320" lon="-0.6910800">
        <ele>261.2</ele>
        <time>2017-12-18T13:54:53Z</time>
      </trkpt>
      <trkpt lat="38.3583980" lon="-0.6910730">
        <ele>262.1</ele>
        <time>2017-12-18T13:54:54Z</time>
      </trkpt>
      <trkpt lat="38.3584640" lon="-0.6910660">
        <ele>262.1</ele>
        <time>2017-12-18T13:54:55Z</time>
      </trkpt>
      <trkpt lat="38.3585310" lon="-0.6910580">
        <ele>262.1</ele>
        <time>2017-12-18T13:54:56Z</time>
      </trkpt>
      <trkpt lat="38.3585980" lon="-0.6910520">
        <ele>262.1</ele>
        <time>2017-12-18T13:54:57Z</time>
      </trkpt>
      <trkpt lat="38.3586660" lon="-0.6910490">
        <ele>262.1</ele>
        <time>2017-12-18T13:54:58Z</time>
      </trkpt>
      <trkpt lat="38.3587320" lon="-0.6910490">
        <ele>262.1</ele>
        <time>2017-12-18T13:54:59Z</time>
      </trkpt>
      <trkpt lat="38.3587990" lon="-0.6910500">
        <ele>262.1</ele>
        <time>2017-12-18T13:55:00Z</time>
      </trkpt>
      <trkpt lat="38.3588660" lon="-0.6910520">
        <ele>262.1</ele>
        <time>2017-12-18T13:55:01Z</time>
      </trkpt>
      <trkpt lat="38.3589340" lon="-0.6910540">
        <ele>262.1</ele>
        <time>2017-12-18T13:55:02Z</time>
      </trkpt>
      <trkpt lat="38.3590020" lon="-0.6910550">
        <ele>262.1</ele>
        <time>2017-12-18T13:55:03Z</time>
      </trkpt>
      <trkpt lat="38.3590710" lon="-0.6910540">
        <ele>262.1</ele>
        <time>2017-12-18T13:55:04Z</time>
      </trkpt>
      <trkpt lat="38.3591390" lon="-0.6910540">
        <ele>262.1</ele>
        <time>2017-12-18T13:55:05Z</time>
      </trkpt>
      <trkpt lat="38.3592070" lon="-0.6910510">
        <ele>262.1</ele>
        <time>2017-12-18T13:55:06Z</time>
      </trkpt>
      <trkpt lat="38.3592730" lon="-0.6910440">
        <ele>262.1</ele>
        <time>2017-12-18T13:55:07Z</time>
      </trkpt>
      <trkpt lat="38.3593400" lon="-0.6910350">
        <ele>262.1</ele>
        <time>2017-12-18T13:55:08Z</time>
      </trkpt>
      <trkpt lat="38.3594050" lon="-0.6910260">
        <ele>262.1</ele>
        <time>2017-12-18T13:55:09Z</time>
      </trkpt>
      <trkpt lat="38.3594710" lon="-0.6910120">
        <ele>262.1</ele>
        <time>2017-12-18T13:55:10Z</time>
      </trkpt>
      <trkpt lat="38.3595350" lon="-0.6909940">
        <ele>262.1</ele>
        <time>2017-12-18T13:55:11Z</time>
      </trkpt>
      <trkpt lat="38.3595980" lon="-0.6909720">
        <ele>263.2</ele>
        <time>2017-12-18T13:55:12Z</time>
      </trkpt>
      <trkpt lat="38.3596610" lon="-0.6909490">
        <ele>263.2</ele>
        <time>2017-12-18T13:55:13Z</time>
      </trkpt>
      <trkpt lat="38.3597230" lon="-0.6909260">
        <ele>263.2</ele>
        <time>2017-12-18T13:55:14Z</time>
      </trkpt>
      <trkpt lat="38.3597860" lon="-0.6909030">
        <ele>263.2</ele>
        <time>2017-12-18T13:55:15Z</time>
      </trkpt>
      <trkpt lat="38.3598470" lon="-0.6908780">
        <ele>263.2</ele>
        <time>2017-12-18T13:55:16Z</time>
      </trkpt>
      <trkpt lat="38.3599100" lon="-0.6908550">
        <ele>263.2</ele>
        <time>2017-12-18T13:55:17Z</time>
      </trkpt>
      <trkpt lat="38.3599730" lon="-0.6908330">
        <ele>263.2</ele>
        <time>2017-12-18T13:55:18Z</time>
      </trkpt>
      <trkpt lat="38.3600360" lon="-0.6908110">
        <ele>263.2</ele>
        <time>2017-12-18T13:55:19Z</time>
      </trkpt>
      <trkpt lat="38.3601000" lon="-0.6907900">
        <ele>263.2</ele>
        <time>2017-12-18T13:55:20Z</time>
      </trkpt>
      <trkpt lat="38.3601640" lon="-0.6907700">
        <ele>263.2</ele>
        <time>2017-12-18T13:55:21Z</time>
      </trkpt>
      <trkpt lat="38.3602290" lon="-0.6907520">
        <ele>263.2</ele>
        <time>2017-12-18T13:55:22Z</time>
      </trkpt>
      <trkpt lat="38.3602930" lon="-0.6907380">
        <ele>263.2</ele>
        <time>2017-12-18T13:55:23Z</time>
      </trkpt>
      <trkpt lat="38.3603580" lon="-0.6907240">
        <ele>263.2</ele>
        <time>2017-12-18T13:55:24Z</time>
      </trkpt>
      <trkpt lat="38.3604210" lon="-0.6907080">
        <ele>263.2</ele>
        <time>2017-12-18T13:55:25Z</time>
      </trkpt>
      <trkpt lat="38.3604830" lon="-0.6906840">
        <ele>263.2</ele>
        <time>2017-12-18T13:55:26Z</time>
      </trkpt>
      <trkpt lat="38.3605430" lon="-0.6906540">
        <ele>263.2</ele>
        <time>2017-12-18T13:55:27Z</time>
      </trkpt>
      <trkpt lat="38.3606020" lon="-0.6906200">
        <ele>263.2</ele>
        <time>2017-12-18T13:55:28Z</time>
      </trkpt>
      <trkpt lat="38.3606610" lon="-0.6905840">
        <ele>263.2</ele>
        <time>2017-12-18T13:55:29Z</time>
      </trkpt>
      <trkpt lat="38.3607200" lon="-0.6905460">
        <ele>263.2</ele>
        <time>2017-12-18T13:55:30Z</time>
      </trkpt>
      <trkpt lat="38.3607810" lon="-0.6905050">
        <ele>263.2</ele>
        <time>2017-12-18T13:55:31Z</time>
      </trkpt>
      <trkpt lat="38.3608410" lon="-0.6904620">
        <ele>263.2</ele>
        <time>2017-12-18T13:55:32Z</time>
      </trkpt>
      <trkpt lat="38.3609010" lon="-0.6904170">
        <ele>263.2</ele>
        <time>2017-12-18T13:55:33Z</time>
      </trkpt>
      <trkpt lat="38.3609610" lon="-0.6903720">
        <ele>263.2</ele>
        <time>2017-12-18T13:55:34Z</time>
      </trkpt>
      <trkpt lat="38.3610240" lon="-0.6903280">
        <ele>263.2</ele>
        <time>2017-12-18T13:55:35Z</time>
      </trkpt>
      <trkpt lat="38.3610860" lon="-0.6902840">
        <ele>263.2</ele>
        <time>2017-12-18T13:55:36Z</time>
      </trkpt>
      <trkpt lat="38.3611480" lon="-0.6902450">
        <ele>263.2</ele>
        <time>2017-12-18T13:55:37Z</time>
      </trkpt>
      <trkpt lat="38.3612110" lon="-0.6902090">
        <ele>263.2</ele>
        <time>2017-12-18T13:55:38Z</time>
      </trkpt>
      <trkpt lat="38.3612750" lon="-0.6901790">
        <ele>263.2</ele>
        <time>2017-12-18T13:55:39Z</time>
      </trkpt>
      <trkpt lat="38.3613400" lon="-0.6901580">
        <ele>263.2</ele>
        <time>2017-12-18T13:55:40Z</time>
      </trkpt>
      <trkpt lat="38.3614090" lon="-0.6901450">
        <ele>263.2</ele>
        <time>2017-12-18T13:55:41Z</time>
      </trkpt>
      <trkpt lat="38.3614760" lon="-0.6901340">
        <ele>262.1</ele>
        <time>2017-12-18T13:55:42Z</time>
      </trkpt>
      <trkpt lat="38.3615450" lon="-0.6901270">
        <ele>262.1</ele>
        <time>2017-12-18T13:55:43Z</time>
      </trkpt>
      <trkpt lat="38.3616130" lon="-0.6901190">
        <ele>262.1</ele>
        <time>2017-12-18T13:55:44Z</time>
      </trkpt>
      <trkpt lat="38.3616780" lon="-0.6901090">
        <ele>262.1</ele>
        <time>2017-12-18T13:55:45Z</time>
      </trkpt>
      <trkpt lat="38.3617440" lon="-0.6900990">
        <ele>262.1</ele>
        <time>2017-12-18T13:55:46Z</time>
      </trkpt>
      <trkpt lat="38.3618090" lon="-0.6900910">
        <ele>262.1</ele>
        <time>2017-12-18T13:55:47Z</time>
      </trkpt>
      <trkpt lat="38.3618730" lon="-0.6900860">
        <ele>262.1</ele>
        <time>2017-12-18T13:55:48Z</time>
      </trkpt>
      <trkpt lat="38.3619390" lon="-0.6900830">
        <ele>262.1</ele>
        <time>2017-12-18T13:55:49Z</time>
      </trkpt>
      <trkpt lat="38.3620030" lon="-0.6900760">
        <ele>263.2</ele>
        <time>2017-12-18T13:55:50Z</time>
      </trkpt>
      <trkpt lat="38.3620660" lon="-0.6900660">
        <ele>263.2</ele>
        <time>2017-12-18T13:55:51Z</time>
      </trkpt>
      <trkpt lat="38.3621280" lon="-0.6900540">
        <ele>263.2</ele>
        <time>2017-12-18T13:55:52Z</time>
      </trkpt>
      <trkpt lat="38.3621900" lon="-0.6900420">
        <ele>263.2</ele>
        <time>2017-12-18T13:55:53Z</time>
      </trkpt>
      <trkpt lat="38.3622500" lon="-0.6900300">
        <ele>263.2</ele>
        <time>2017-12-18T13:55:54Z</time>
      </trkpt>
      <trkpt lat="38.3623020" lon="-0.6900200">
        <ele>263.2</ele>
        <time>2017-12-18T13:55:55Z</time>
      </trkpt>
      <trkpt lat="38.3623380" lon="-0.6900150">
        <ele>263.2</ele>
        <time>2017-12-18T13:55:56Z</time>
      </trkpt>
      <trkpt lat="38.3623630" lon="-0.6900370">
        <ele>263.2</ele>
        <time>2017-12-18T13:55:57Z</time>
      </trkpt>
      <trkpt lat="38.3623820" lon="-0.6900740">
        <ele>263.2</ele>
        <time>2017-12-18T13:55:58Z</time>
      </trkpt>
      <trkpt lat="38.3624030" lon="-0.6901200">
        <ele>263.2</ele>
        <time>2017-12-18T13:55:59Z</time>
      </trkpt>
      <trkpt lat="38.3624230" lon="-0.6901750">
        <ele>263.2</ele>
        <time>2017-12-18T13:56:00Z</time>
      </trkpt>
      <trkpt lat="38.3624420" lon="-0.6902340">
        <ele>263.2</ele>
        <time>2017-12-18T13:56:01Z</time>
      </trkpt>
      <trkpt lat="38.3624640" lon="-0.6902960">
        <ele>262.1</ele>
        <time>2017-12-18T13:56:02Z</time>
      </trkpt>
      <trkpt lat="38.3624900" lon="-0.6903570">
        <ele>262.1</ele>
        <time>2017-12-18T13:56:03Z</time>
      </trkpt>
      <trkpt lat="38.3625220" lon="-0.6904090">
        <ele>262.1</ele>
        <time>2017-12-18T13:56:04Z</time>
      </trkpt>
      <trkpt lat="38.3625610" lon="-0.6904580">
        <ele>262.1</ele>
        <time>2017-12-18T13:56:05Z</time>
      </trkpt>
      <trkpt lat="38.3626000" lon="-0.6905080">
        <ele>262.1</ele>
        <time>2017-12-18T13:56:06Z</time>
      </trkpt>
      <trkpt lat="38.3626360" lon="-0.6905640">
        <ele>262.1</ele>
        <time>2017-12-18T13:56:07Z</time>
      </trkpt>
      <trkpt lat="38.3626640" lon="-0.6906280">
        <ele>262.1</ele>
        <time>2017-12-18T13:56:08Z</time>
      </trkpt>
      <trkpt lat="38.3626870" lon="-0.6906940">
        <ele>262.1</ele>
        <time>2017-12-18T13:56:09Z</time>
      </trkpt>
      <trkpt lat="38.3627110" lon="-0.6907590">
        <ele>260.2</ele>
        <time>2017-12-18T13:56:10Z</time>
      </trkpt>
      <trkpt lat="38.3627380" lon="-0.6908230">
        <ele>260.2</ele>
        <time>2017-12-18T13:56:11Z</time>
      </trkpt>
      <trkpt lat="38.3627660" lon="-0.6908860">
        <ele>260.2</ele>
        <time>2017-12-18T13:56:12Z</time>
      </trkpt>
      <trkpt lat="38.3628070" lon="-0.6909330">
        <ele>260.2</ele>
        <time>2017-12-18T13:56:13Z</time>
      </trkpt>
      <trkpt lat="38.3628570" lon="-0.6909380">
        <ele>260.2</ele>
        <time>2017-12-18T13:56:14Z</time>
      </trkpt>
      <trkpt lat="38.3629060" lon="-0.6909190">
        <ele>260.2</ele>
        <time>2017-12-18T13:56:15Z</time>
      </trkpt>
      <trkpt lat="38.3629600" lon="-0.6909160">
        <ele>260.2</ele>
        <time>2017-12-18T13:56:16Z</time>
      </trkpt>
      <trkpt lat="38.3630090" lon="-0.6909350">
        <ele>260.2</ele>
        <time>2017-12-18T13:56:17Z</time>
      </trkpt>
      <trkpt lat="38.3630570" lon="-0.6909630">
        <ele>260.2</ele>
        <time>2017-12-18T13:56:18Z</time>
      </trkpt>
      <trkpt lat="38.3631090" lon="-0.6909760">
        <ele>260.2</ele>
        <time>2017-12-18T13:56:19Z</time>
      </trkpt>
      <trkpt lat="38.3631610" lon="-0.6909630">
        <ele>260.2</ele>
        <time>2017-12-18T13:56:20Z</time>
      </trkpt>
      <trkpt lat="38.3632080" lon="-0.6909330">
        <ele>260.2</ele>
        <time>2017-12-18T13:56:21Z</time>
      </trkpt>
      <trkpt lat="38.3632590" lon="-0.6909020">
        <ele>260.2</ele>
        <time>2017-12-18T13:56:22Z</time>
      </trkpt>
      <trkpt lat="38.3633120" lon="-0.6908780">
        <ele>260.2</ele>
        <time>2017-12-18T13:56:23Z</time>
      </trkpt>
      <trkpt lat="38.3633670" lon="-0.6908570">
        <ele>260.2</ele>
        <time>2017-12-18T13:56:24Z</time>
      </trkpt>
      <trkpt lat="38.3634220" lon="-0.6908340">
        <ele>260.2</ele>
        <time>2017-12-18T13:56:25Z</time>
      </trkpt>
      <trkpt lat="38.3634760" lon="-0.6908060">
        <ele>260.2</ele>
        <time>2017-12-18T13:56:26Z</time>
      </trkpt>
      <trkpt lat="38.3635300" lon="-0.6907780">
        <ele>260.2</ele>
        <time>2017-12-18T13:56:27Z</time>
      </trkpt>
      <trkpt lat="38.3635840" lon="-0.6907500">
        <ele>260.2</ele>
        <time>2017-12-18T13:56:28Z</time>
      </trkpt>
      <trkpt lat="38.3636380" lon="-0.6907190">
        <ele>260.2</ele>
        <time>2017-12-18T13:56:29Z</time>
      </trkpt>
      <trkpt lat="38.3636930" lon="-0.6906930">
        <ele>260.2</ele>
        <time>2017-12-18T13:56:30Z</time>
      </trkpt>
      <trkpt lat="38.3637490" lon="-0.6906680">
        <ele>260.2</ele>
        <time>2017-12-18T13:56:31Z</time>
      </trkpt>
      <trkpt lat="38.3638050" lon="-0.6906410">
        <ele>260.2</ele>
        <time>2017-12-18T13:56:32Z</time>
      </trkpt>
      <trkpt lat="38.3638590" lon="-0.6906080">
        <ele>260.2</ele>
        <time>2017-12-18T13:56:33Z</time>
      </trkpt>
      <trkpt lat="38.3639120" lon="-0.6905760">
        <ele>260.2</ele>
        <time>2017-12-18T13:56:34Z</time>
      </trkpt>
      <trkpt lat="38.3639670" lon="-0.6905470">
        <ele>260.2</ele>
        <time>2017-12-18T13:56:35Z</time>
      </trkpt>
      <trkpt lat="38.3640230" lon="-0.6905230">
        <ele>260.2</ele>
        <time>2017-12-18T13:56:36Z</time>
      </trkpt>
      <trkpt lat="38.3640780" lon="-0.6904980">
        <ele>260.2</ele>
        <time>2017-12-18T13:56:37Z</time>
      </trkpt>
      <trkpt lat="38.3641290" lon="-0.6904680">
        <ele>260.2</ele>
        <time>2017-12-18T13:56:38Z</time>
      </trkpt>
      <trkpt lat="38.3641780" lon="-0.6904390">
        <ele>260.2</ele>
        <time>2017-12-18T13:56:39Z</time>
      </trkpt>
      <trkpt lat="38.3642160" lon="-0.6904010">
        <ele>260.2</ele>
        <time>2017-12-18T13:56:40Z</time>
      </trkpt>
      <trkpt lat="38.3642360" lon="-0.6903490">
        <ele>260.2</ele>
        <time>2017-12-18T13:56:41Z</time>
      </trkpt>
      <trkpt lat="38.3642420" lon="-0.6903150">
        <ele>260.2</ele>
        <time>2017-12-18T13:56:42Z</time>
      </trkpt>
      <trkpt lat="38.3642440" lon="-0.6903050">
        <ele>260.2</ele>
        <time>2017-12-18T13:56:43Z</time>
      </trkpt>
      <trkpt lat="38.3642470" lon="-0.6903030">
        <ele>260.2</ele>
        <time>2017-12-18T13:56:44Z</time>
      </trkpt>
      <trkpt lat="38.3642430" lon="-0.6902990">
        <ele>260.2</ele>
        <time>2017-12-18T13:56:45Z</time>
      </trkpt>
      <trkpt lat="38.3642390" lon="-0.6902930">
        <ele>260.2</ele>
        <time>2017-12-18T13:56:46Z</time>
      </trkpt>
      <trkpt lat="38.3642370" lon="-0.6902810">
        <ele>260.2</ele>
        <time>2017-12-18T13:56:47Z</time>
      </trkpt>
      <trkpt lat="38.3642390" lon="-0.6902690">
        <ele>260.2</ele>
        <time>2017-12-18T13:56:48Z</time>
      </trkpt>
      <trkpt lat="38.3642500" lon="-0.6902620">
        <ele>260.2</ele>
        <time>2017-12-18T13:56:49Z</time>
      </trkpt>
      <trkpt lat="38.3642590" lon="-0.6902570">
        <ele>260.2</ele>
        <time>2017-12-18T13:56:50Z</time>
      </trkpt>
      <trkpt lat="38.3642700" lon="-0.6902540">
        <ele>260.2</ele>
        <time>2017-12-18T13:56:51Z</time>
      </trkpt>
      <trkpt lat="38.3642790" lon="-0.6902630">
        <ele>260.2</ele>
        <time>2017-12-18T13:56:52Z</time>
      </trkpt>
      <trkpt lat="38.3642860" lon="-0.6902740">
        <ele>260.2</ele>
        <time>2017-12-18T13:56:53Z</time>
      </trkpt>
      <trkpt lat="38.3642910" lon="-0.6902800">
        <ele>260.2</ele>
        <time>2017-12-18T13:56:54Z</time>
      </trkpt>
      <trkpt lat="38.3642980" lon="-0.6902940">
        <ele>260.2</ele>
        <time>2017-12-18T13:56:55Z</time>
      </trkpt>
      <trkpt lat="38.3643050" lon="-0.6903140">
        <ele>260.2</ele>
        <time>2017-12-18T13:56:56Z</time>
      </trkpt>
      <trkpt lat="38.3643170" lon="-0.6903410">
        <ele>260.2</ele>
        <time>2017-12-18T13:56:57Z</time>
      </trkpt>
      <trkpt lat="38.3643310" lon="-0.6903750">
        <ele>260.2</ele>
        <time>2017-12-18T13:56:58Z</time>
      </trkpt>
      <trkpt lat="38.3643510" lon="-0.6904170">
        <ele>260.2</ele>
        <time>2017-12-18T13:56:59Z</time>
      </trkpt>
      <trkpt lat="38.3643720" lon="-0.6904660">
        <ele>260.2</ele>
        <time>2017-12-18T13:57:00Z</time>
      </trkpt>
      <trkpt lat="38.3643990" lon="-0.6905250">
        <ele>260.2</ele>
        <time>2017-12-18T13:57:01Z</time>
      </trkpt>
      <trkpt lat="38.3644280" lon="-0.6905880">
        <ele>260.2</ele>
        <time>2017-12-18T13:57:02Z</time>
      </trkpt>
      <trkpt lat="38.3644590" lon="-0.6906540">
        <ele>260.2</ele>
        <time>2017-12-18T13:57:03Z</time>
      </trkpt>
      <trkpt lat="38.3644870" lon="-0.6907230">
        <ele>260.2</ele>
        <time>2017-12-18T13:57:04Z</time>
      </trkpt>
      <trkpt lat="38.3645130" lon="-0.6907930">
        <ele>260.2</ele>
        <time>2017-12-18T13:57:05Z</time>
      </trkpt>
      <trkpt lat="38.3645370" lon="-0.6908640">
        <ele>256.2</ele>
        <time>2017-12-18T13:57:06Z</time>
      </trkpt>
      <trkpt lat="38.3645630" lon="-0.6909350">
        <ele>256.2</ele>
        <time>2017-12-18T13:57:07Z</time>
      </trkpt>
      <trkpt lat="38.3645900" lon="-0.6910060">
        <ele>256.2</ele>
        <time>2017-12-18T13:57:08Z</time>
      </trkpt>
      <trkpt lat="38.3646200" lon="-0.6910810">
        <ele>256.2</ele>
        <time>2017-12-18T13:57:09Z</time>
      </trkpt>
      <trkpt lat="38.3646520" lon="-0.6911580">
        <ele>255.1</ele>
        <time>2017-12-18T13:57:10Z</time>
      </trkpt>
      <trkpt lat="38.3646820" lon="-0.6912370">
        <ele>255.1</ele>
        <time>2017-12-18T13:57:11Z</time>
      </trkpt>
      <trkpt lat="38.3647130" lon="-0.6913170">
        <ele>255.1</ele>
        <time>2017-12-18T13:57:12Z</time>
      </trkpt>
      <trkpt lat="38.3647440" lon="-0.6913960">
        <ele>255.1</ele>
        <time>2017-12-18T13:57:13Z</time>
      </trkpt>
      <trkpt lat="38.3647740" lon="-0.6914750">
        <ele>255.1</ele>
        <time>2017-12-18T13:57:14Z</time>
      </trkpt>
      <trkpt lat="38.3648050" lon="-0.6915560">
        <ele>255.1</ele>
        <time>2017-12-18T13:57:15Z</time>
      </trkpt>
      <trkpt lat="38.3648340" lon="-0.6916410">
        <ele>255.1</ele>
        <time>2017-12-18T13:57:16Z</time>
      </trkpt>
      <trkpt lat="38.3648620" lon="-0.6917280">
        <ele>255.1</ele>
        <time>2017-12-18T13:57:17Z</time>
      </trkpt>
      <trkpt lat="38.3648920" lon="-0.6918140">
        <ele>254.2</ele>
        <time>2017-12-18T13:57:18Z</time>
      </trkpt>
      <trkpt lat="38.3649220" lon="-0.6919010">
        <ele>254.2</ele>
        <time>2017-12-18T13:57:19Z</time>
      </trkpt>
      <trkpt lat="38.3649520" lon="-0.6919900">
        <ele>254.2</ele>
        <time>2017-12-18T13:57:20Z</time>
      </trkpt>
      <trkpt lat="38.3649800" lon="-0.6920810">
        <ele>254.2</ele>
        <time>2017-12-18T13:57:21Z</time>
      </trkpt>
      <trkpt lat="38.3650060" lon="-0.6921710">
        <ele>253.1</ele>
        <time>2017-12-18T13:57:22Z</time>
      </trkpt>
      <trkpt lat="38.3650360" lon="-0.6922580">
        <ele>253.1</ele>
        <time>2017-12-18T13:57:23Z</time>
      </trkpt>
      <trkpt lat="38.3650610" lon="-0.6923450">
        <ele>253.1</ele>
        <time>2017-12-18T13:57:24Z</time>
      </trkpt>
      <trkpt lat="38.3650830" lon="-0.6924310">
        <ele>253.1</ele>
        <time>2017-12-18T13:57:25Z</time>
      </trkpt>
      <trkpt lat="38.3651060" lon="-0.6925150">
        <ele>253.1</ele>
        <time>2017-12-18T13:57:26Z</time>
      </trkpt>
      <trkpt lat="38.3651280" lon="-0.6926010">
        <ele>253.1</ele>
        <time>2017-12-18T13:57:27Z</time>
      </trkpt>
      <trkpt lat="38.3651500" lon="-0.6926920">
        <ele>253.1</ele>
        <time>2017-12-18T13:57:28Z</time>
      </trkpt>
      <trkpt lat="38.3651730" lon="-0.6927840">
        <ele>253.1</ele>
        <time>2017-12-18T13:57:29Z</time>
      </trkpt>
      <trkpt lat="38.3651940" lon="-0.6928740">
        <ele>253.1</ele>
        <time>2017-12-18T13:57:30Z</time>
      </trkpt>
      <trkpt lat="38.3652120" lon="-0.6929610">
        <ele>253.1</ele>
        <time>2017-12-18T13:57:31Z</time>
      </trkpt>
      <trkpt lat="38.3652300" lon="-0.6930480">
        <ele>251.2</ele>
        <time>2017-12-18T13:57:32Z</time>
      </trkpt>
      <trkpt lat="38.3652500" lon="-0.6931310">
        <ele>251.2</ele>
        <time>2017-12-18T13:57:33Z</time>
      </trkpt>
      <trkpt lat="38.3652700" lon="-0.6932130">
        <ele>251.2</ele>
        <time>2017-12-18T13:57:34Z</time>
      </trkpt>
      <trkpt lat="38.3652890" lon="-0.6932940">
        <ele>251.2</ele>
        <time>2017-12-18T13:57:35Z</time>
      </trkpt>
      <trkpt lat="38.3653070" lon="-0.6933780">
        <ele>251.2</ele>
        <time>2017-12-18T13:57:36Z</time>
      </trkpt>
      <trkpt lat="38.3653280" lon="-0.6934640">
        <ele>251.2</ele>
        <time>2017-12-18T13:57:37Z</time>
      </trkpt>
      <trkpt lat="38.3653480" lon="-0.6935480">
        <ele>251.2</ele>
        <time>2017-12-18T13:57:38Z</time>
      </trkpt>
      <trkpt lat="38.3653680" lon="-0.6936330">
        <ele>251.2</ele>
        <time>2017-12-18T13:57:39Z</time>
      </trkpt>
      <trkpt lat="38.3653900" lon="-0.6937180">
        <ele>251.2</ele>
        <time>2017-12-18T13:57:40Z</time>
      </trkpt>
      <trkpt lat="38.3654120" lon="-0.6938030">
        <ele>251.2</ele>
        <time>2017-12-18T13:57:41Z</time>
      </trkpt>
      <trkpt lat="38.3654330" lon="-0.6938880">
        <ele>251.2</ele>
        <time>2017-12-18T13:57:42Z</time>
      </trkpt>
      <trkpt lat="38.3654530" lon="-0.6939720">
        <ele>251.2</ele>
        <time>2017-12-18T13:57:43Z</time>
      </trkpt>
      <trkpt lat="38.3654740" lon="-0.6940540">
        <ele>251.2</ele>
        <time>2017-12-18T13:57:44Z</time>
      </trkpt>
      <trkpt lat="38.3654940" lon="-0.6941370">
        <ele>251.2</ele>
        <time>2017-12-18T13:57:45Z</time>
      </trkpt>
      <trkpt lat="38.3655140" lon="-0.6942180">
        <ele>251.2</ele>
        <time>2017-12-18T13:57:46Z</time>
      </trkpt>
      <trkpt lat="38.3655360" lon="-0.6942980">
        <ele>251.2</ele>
        <time>2017-12-18T13:57:47Z</time>
      </trkpt>
      <trkpt lat="38.3655550" lon="-0.6943790">
        <ele>251.2</ele>
        <time>2017-12-18T13:57:48Z</time>
      </trkpt>
      <trkpt lat="38.3655750" lon="-0.6944590">
        <ele>251.2</ele>
        <time>2017-12-18T13:57:49Z</time>
      </trkpt>
      <trkpt lat="38.3655950" lon="-0.6945370">
        <ele>251.2</ele>
        <time>2017-12-18T13:57:50Z</time>
      </trkpt>
      <trkpt lat="38.3656130" lon="-0.6946150">
        <ele>251.2</ele>
        <time>2017-12-18T13:57:51Z</time>
      </trkpt>
      <trkpt lat="38.3656310" lon="-0.6946920">
        <ele>251.2</ele>
        <time>2017-12-18T13:57:52Z</time>
      </trkpt>
      <trkpt lat="38.3656490" lon="-0.6947680">
        <ele>251.2</ele>
        <time>2017-12-18T13:57:53Z</time>
      </trkpt>
      <trkpt lat="38.3656670" lon="-0.6948450">
        <ele>251.2</ele>
        <time>2017-12-18T13:57:54Z</time>
      </trkpt>
      <trkpt lat="38.3656850" lon="-0.6949220">
        <ele>251.2</ele>
        <time>2017-12-18T13:57:55Z</time>
      </trkpt>
      <trkpt lat="38.3657050" lon="-0.6949980">
        <ele>251.2</ele>
        <time>2017-12-18T13:57:56Z</time>
      </trkpt>
      <trkpt lat="38.3657280" lon="-0.6950730">
        <ele>251.2</ele>
        <time>2017-12-18T13:57:57Z</time>
      </trkpt>
      <trkpt lat="38.3657490" lon="-0.6951490">
        <ele>251.2</ele>
        <time>2017-12-18T13:57:58Z</time>
      </trkpt>
      <trkpt lat="38.3657670" lon="-0.6952260">
        <ele>251.2</ele>
        <time>2017-12-18T13:57:59Z</time>
      </trkpt>
      <trkpt lat="38.3657850" lon="-0.6953010">
        <ele>251.2</ele>
        <time>2017-12-18T13:58:00Z</time>
      </trkpt>
      <trkpt lat="38.3658030" lon="-0.6953800">
        <ele>251.2</ele>
        <time>2017-12-18T13:58:01Z</time>
      </trkpt>
      <trkpt lat="38.3658230" lon="-0.6954620">
        <ele>251.2</ele>
        <time>2017-12-18T13:58:02Z</time>
      </trkpt>
      <trkpt lat="38.3658470" lon="-0.6955440">
        <ele>251.2</ele>
        <time>2017-12-18T13:58:03Z</time>
      </trkpt>
      <trkpt lat="38.3658690" lon="-0.6956270">
        <ele>251.2</ele>
        <time>2017-12-18T13:58:04Z</time>
      </trkpt>
      <trkpt lat="38.3658900" lon="-0.6957100">
        <ele>251.2</ele>
        <time>2017-12-18T13:58:05Z</time>
      </trkpt>
      <trkpt lat="38.3659090" lon="-0.6957930">
        <ele>251.2</ele>
        <time>2017-12-18T13:58:06Z</time>
      </trkpt>
      <trkpt lat="38.3659290" lon="-0.6958750">
        <ele>251.2</ele>
        <time>2017-12-18T13:58:07Z</time>
      </trkpt>
      <trkpt lat="38.3659480" lon="-0.6959580">
        <ele>251.2</ele>
        <time>2017-12-18T13:58:08Z</time>
      </trkpt>
      <trkpt lat="38.3659680" lon="-0.6960400">
        <ele>251.2</ele>
        <time>2017-12-18T13:58:09Z</time>
      </trkpt>
      <trkpt lat="38.3659880" lon="-0.6961230">
        <ele>250.1</ele>
        <time>2017-12-18T13:58:10Z</time>
      </trkpt>
      <trkpt lat="38.3660070" lon="-0.6962060">
        <ele>250.1</ele>
        <time>2017-12-18T13:58:11Z</time>
      </trkpt>
      <trkpt lat="38.3660270" lon="-0.6962880">
        <ele>250.1</ele>
        <time>2017-12-18T13:58:12Z</time>
      </trkpt>
      <trkpt lat="38.3660470" lon="-0.6963750">
        <ele>250.1</ele>
        <time>2017-12-18T13:58:13Z</time>
      </trkpt>
      <trkpt lat="38.3660700" lon="-0.6964650">
        <ele>249.2</ele>
        <time>2017-12-18T13:58:14Z</time>
      </trkpt>
      <trkpt lat="38.3660930" lon="-0.6965600">
        <ele>249.2</ele>
        <time>2017-12-18T13:58:15Z</time>
      </trkpt>
      <trkpt lat="38.3661180" lon="-0.6966560">
        <ele>249.2</ele>
        <time>2017-12-18T13:58:16Z</time>
      </trkpt>
      <trkpt lat="38.3661420" lon="-0.6967510">
        <ele>249.2</ele>
        <time>2017-12-18T13:58:17Z</time>
      </trkpt>
      <trkpt lat="38.3661640" lon="-0.6968450">
        <ele>248.1</ele>
        <time>2017-12-18T13:58:18Z</time>
      </trkpt>
      <trkpt lat="38.3661860" lon="-0.6969380">
        <ele>248.1</ele>
        <time>2017-12-18T13:58:19Z</time>
      </trkpt>
      <trkpt lat="38.3662100" lon="-0.6970270">
        <ele>248.1</ele>
        <time>2017-12-18T13:58:20Z</time>
      </trkpt>
      <trkpt lat="38.3662320" lon="-0.6971140">
        <ele>248.1</ele>
        <time>2017-12-18T13:58:21Z</time>
      </trkpt>
      <trkpt lat="38.3662540" lon="-0.6972000">
        <ele>248.1</ele>
        <time>2017-12-18T13:58:22Z</time>
      </trkpt>
      <trkpt lat="38.3662770" lon="-0.6972830">
        <ele>248.1</ele>
        <time>2017-12-18T13:58:23Z</time>
      </trkpt>
      <trkpt lat="38.3663010" lon="-0.6973640">
        <ele>248.1</ele>
        <time>2017-12-18T13:58:24Z</time>
      </trkpt>
      <trkpt lat="38.3663250" lon="-0.6974480">
        <ele>248.1</ele>
        <time>2017-12-18T13:58:25Z</time>
      </trkpt>
      <trkpt lat="38.3663470" lon="-0.6975340">
        <ele>248.1</ele>
        <time>2017-12-18T13:58:26Z</time>
      </trkpt>
      <trkpt lat="38.3663660" lon="-0.6976220">
        <ele>248.1</ele>
        <time>2017-12-18T13:58:27Z</time>
      </trkpt>
      <trkpt lat="38.3663650" lon="-0.6977090">
        <ele>247.2</ele>
        <time>2017-12-18T13:58:28Z</time>
      </trkpt>
      <trkpt lat="38.3663450" lon="-0.6977920">
        <ele>247.2</ele>
        <time>2017-12-18T13:58:29Z</time>
      </trkpt>
      <trkpt lat="38.3663100" lon="-0.6978720">
        <ele>247.2</ele>
        <time>2017-12-18T13:58:30Z</time>
      </trkpt>
      <trkpt lat="38.3662730" lon="-0.6979520">
        <ele>247.2</ele>
        <time>2017-12-18T13:58:31Z</time>
      </trkpt>
      <trkpt lat="38.3662390" lon="-0.6980350">
        <ele>247.2</ele>
        <time>2017-12-18T13:58:32Z</time>
      </trkpt>
      <trkpt lat="38.3662110" lon="-0.6981190">
        <ele>247.2</ele>
        <time>2017-12-18T13:58:33Z</time>
      </trkpt>
      <trkpt lat="38.3661870" lon="-0.6982060">
        <ele>246.1</ele>
        <time>2017-12-18T13:58:34Z</time>
      </trkpt>
      <trkpt lat="38.3661640" lon="-0.6982950">
        <ele>246.1</ele>
        <time>2017-12-18T13:58:35Z</time>
      </trkpt>
      <trkpt lat="38.3661440" lon="-0.6983860">
        <ele>246.1</ele>
        <time>2017-12-18T13:58:36Z</time>
      </trkpt>
      <trkpt lat="38.3661250" lon="-0.6984760">
        <ele>246.1</ele>
        <time>2017-12-18T13:58:37Z</time>
      </trkpt>
      <trkpt lat="38.3661090" lon="-0.6985690">
        <ele>246.1</ele>
        <time>2017-12-18T13:58:38Z</time>
      </trkpt>
      <trkpt lat="38.3660980" lon="-0.6986640">
        <ele>246.1</ele>
        <time>2017-12-18T13:58:39Z</time>
      </trkpt>
      <trkpt lat="38.3660890" lon="-0.6987600">
        <ele>246.1</ele>
        <time>2017-12-18T13:58:40Z</time>
      </trkpt>
      <trkpt lat="38.3660820" lon="-0.6988570">
        <ele>246.1</ele>
        <time>2017-12-18T13:58:41Z</time>
      </trkpt>
      <trkpt lat="38.3660800" lon="-0.6989590">
        <ele>245.2</ele>
        <time>2017-12-18T13:58:42Z</time>
      </trkpt>
      <trkpt lat="38.3660810" lon="-0.6990600">
        <ele>245.2</ele>
        <time>2017-12-18T13:58:43Z</time>
      </trkpt>
      <trkpt lat="38.3660900" lon="-0.6991580">
        <ele>245.2</ele>
        <time>2017-12-18T13:58:44Z</time>
      </trkpt>
      <trkpt lat="38.3661060" lon="-0.6992520">
        <ele>245.2</ele>
        <time>2017-12-18T13:58:45Z</time>
      </trkpt>
      <trkpt lat="38.3661270" lon="-0.6993420">
        <ele>245.2</ele>
        <time>2017-12-18T13:58:46Z</time>
      </trkpt>
      <trkpt lat="38.3661510" lon="-0.6994280">
        <ele>245.2</ele>
        <time>2017-12-18T13:58:47Z</time>
      </trkpt>
      <trkpt lat="38.3661800" lon="-0.6995090">
        <ele>244.1</ele>
        <time>2017-12-18T13:58:48Z</time>
      </trkpt>
      <trkpt lat="38.3662140" lon="-0.6995850">
        <ele>244.1</ele>
        <time>2017-12-18T13:58:49Z</time>
      </trkpt>
      <trkpt lat="38.3662520" lon="-0.6996530">
        <ele>244.1</ele>
        <time>2017-12-18T13:58:50Z</time>
      </trkpt>
      <trkpt lat="38.3662920" lon="-0.6997140">
        <ele>244.1</ele>
        <time>2017-12-18T13:58:51Z</time>
      </trkpt>
      <trkpt lat="38.3663390" lon="-0.6997660">
        <ele>245.2</ele>
        <time>2017-12-18T13:58:52Z</time>
      </trkpt>
      <trkpt lat="38.3663900" lon="-0.6998070">
        <ele>245.2</ele>
        <time>2017-12-18T13:58:53Z</time>
      </trkpt>
      <trkpt lat="38.3664480" lon="-0.6998390">
        <ele>245.2</ele>
        <time>2017-12-18T13:58:54Z</time>
      </trkpt>
      <trkpt lat="38.3665110" lon="-0.6998670">
        <ele>245.2</ele>
        <time>2017-12-18T13:58:55Z</time>
      </trkpt>
      <trkpt lat="38.3665800" lon="-0.6998850">
        <ele>244.1</ele>
        <time>2017-12-18T13:58:56Z</time>
      </trkpt>
      <trkpt lat="38.3666540" lon="-0.6998900">
        <ele>244.1</ele>
        <time>2017-12-18T13:58:57Z</time>
      </trkpt>
      <trkpt lat="38.3667300" lon="-0.6998920">
        <ele>243.1</ele>
        <time>2017-12-18T13:58:58Z</time>
      </trkpt>
      <trkpt lat="38.3668050" lon="-0.6998930">
        <ele>243.1</ele>
        <time>2017-12-18T13:58:59Z</time>
      </trkpt>
      <trkpt lat="38.3668770" lon="-0.6998930">
        <ele>243.1</ele>
        <time>2017-12-18T13:59:00Z</time>
      </trkpt>
      <trkpt lat="38.3669460" lon="-0.6999010">
        <ele>243.1</ele>
        <time>2017-12-18T13:59:01Z</time>
      </trkpt>
      <trkpt lat="38.3670130" lon="-0.6999130">
        <ele>242.2</ele>
        <time>2017-12-18T13:59:02Z</time>
      </trkpt>
      <trkpt lat="38.3670780" lon="-0.6999340">
        <ele>242.2</ele>
        <time>2017-12-18T13:59:03Z</time>
      </trkpt>
      <trkpt lat="38.3671380" lon="-0.6999680">
        <ele>242.2</ele>
        <time>2017-12-18T13:59:04Z</time>
      </trkpt>
      <trkpt lat="38.3671890" lon="-0.7000210">
        <ele>242.2</ele>
        <time>2017-12-18T13:59:05Z</time>
      </trkpt>
      <trkpt lat="38.3672260" lon="-0.7000890">
        <ele>242.2</ele>
        <time>2017-12-18T13:59:06Z</time>
      </trkpt>
      <trkpt lat="38.3672570" lon="-0.7001560">
        <ele>242.2</ele>
        <time>2017-12-18T13:59:07Z</time>
      </trkpt>
      <trkpt lat="38.3672850" lon="-0.7002070">
        <ele>242.2</ele>
        <time>2017-12-18T13:59:08Z</time>
      </trkpt>
      <trkpt lat="38.3673120" lon="-0.7002200">
        <ele>242.2</ele>
        <time>2017-12-18T13:59:09Z</time>
      </trkpt>
      <trkpt lat="38.3673350" lon="-0.7002140">
        <ele>243.1</ele>
        <time>2017-12-18T13:59:10Z</time>
      </trkpt>
      <trkpt lat="38.3673560" lon="-0.7001960">
        <ele>243.1</ele>
        <time>2017-12-18T13:59:11Z</time>
      </trkpt>
      <trkpt lat="38.3673640" lon="-0.7001590">
        <ele>243.1</ele>
        <time>2017-12-18T13:59:12Z</time>
      </trkpt>
      <trkpt lat="38.3673570" lon="-0.7001110">
        <ele>243.1</ele>
        <time>2017-12-18T13:59:13Z</time>
      </trkpt>
      <trkpt lat="38.3673360" lon="-0.7000740">
        <ele>242.2</ele>
        <time>2017-12-18T13:59:14Z</time>
      </trkpt>
      <trkpt lat="38.3673050" lon="-0.7000240">
        <ele>242.2</ele>
        <time>2017-12-18T13:59:15Z</time>
      </trkpt>
      <trkpt lat="38.3672740" lon="-0.6999740">
        <ele>242.2</ele>
        <time>2017-12-18T13:59:16Z</time>
      </trkpt>
      <trkpt lat="38.3672380" lon="-0.6999260">
        <ele>242.2</ele>
        <time>2017-12-18T13:59:17Z</time>
      </trkpt>
      <trkpt lat="38.3671950" lon="-0.6998790">
        <ele>242.2</ele>
        <time>2017-12-18T13:59:18Z</time>
      </trkpt>
      <trkpt lat="38.3671490" lon="-0.6998390">
        <ele>242.2</ele>
        <time>2017-12-18T13:59:19Z</time>
      </trkpt>
      <trkpt lat="38.3670960" lon="-0.6998100">
        <ele>242.2</ele>
        <time>2017-12-18T13:59:20Z</time>
      </trkpt>
      <trkpt lat="38.3670410" lon="-0.6997910">
        <ele>242.2</ele>
        <time>2017-12-18T13:59:21Z</time>
      </trkpt>
      <trkpt lat="38.3669830" lon="-0.6997810">
        <ele>242.2</ele>
        <time>2017-12-18T13:59:22Z</time>
      </trkpt>
      <trkpt lat="38.3669240" lon="-0.6997760">
        <ele>242.2</ele>
        <time>2017-12-18T13:59:23Z</time>
      </trkpt>
      <trkpt lat="38.3668650" lon="-0.6997770">
        <ele>240.2</ele>
        <time>2017-12-18T13:59:24Z</time>
      </trkpt>
      <trkpt lat="38.3668080" lon="-0.6997780">
        <ele>240.2</ele>
        <time>2017-12-18T13:59:25Z</time>
      </trkpt>
      <trkpt lat="38.3667500" lon="-0.6997730">
        <ele>240.2</ele>
        <time>2017-12-18T13:59:26Z</time>
      </trkpt>
      <trkpt lat="38.3666920" lon="-0.6997660">
        <ele>240.2</ele>
        <time>2017-12-18T13:59:27Z</time>
      </trkpt>
      <trkpt lat="38.3666330" lon="-0.6997560">
        <ele>240.2</ele>
        <time>2017-12-18T13:59:28Z</time>
      </trkpt>
      <trkpt lat="38.3665760" lon="-0.6997420">
        <ele>240.2</ele>
        <time>2017-12-18T13:59:29Z</time>
      </trkpt>
      <trkpt lat="38.3665200" lon="-0.6997190">
        <ele>240.2</ele>
        <time>2017-12-18T13:59:30Z</time>
      </trkpt>
      <trkpt lat="38.3664660" lon="-0.6996880">
        <ele>240.2</ele>
        <time>2017-12-18T13:59:31Z</time>
      </trkpt>
      <trkpt lat="38.3664160" lon="-0.6996460">
        <ele>241.1</ele>
        <time>2017-12-18T13:59:32Z</time>
      </trkpt>
      <trkpt lat="38.3663700" lon="-0.6995960">
        <ele>241.1</ele>
        <time>2017-12-18T13:59:33Z</time>
      </trkpt>
      <trkpt lat="38.3663290" lon="-0.6995370">
        <ele>241.1</ele>
        <time>2017-12-18T13:59:34Z</time>
      </trkpt>
      <trkpt lat="38.3662940" lon="-0.6994720">
        <ele>241.1</ele>
        <time>2017-12-18T13:59:35Z</time>
      </trkpt>
      <trkpt lat="38.3662650" lon="-0.6994010">
        <ele>241.1</ele>
        <time>2017-12-18T13:59:36Z</time>
      </trkpt>
      <trkpt lat="38.3662410" lon="-0.6993270">
        <ele>241.1</ele>
        <time>2017-12-18T13:59:37Z</time>
      </trkpt>
      <trkpt lat="38.3662230" lon="-0.6992510">
        <ele>241.1</ele>
        <time>2017-12-18T13:59:38Z</time>
      </trkpt>
      <trkpt lat="38.3662110" lon="-0.6991730">
        <ele>241.1</ele>
        <time>2017-12-18T13:59:39Z</time>
      </trkpt>
      <trkpt lat="38.3662070" lon="-0.6990940">
        <ele>241.1</ele>
        <time>2017-12-18T13:59:40Z</time>
      </trkpt>
      <trkpt lat="38.3662040" lon="-0.6990140">
        <ele>241.1</ele>
        <time>2017-12-18T13:59:41Z</time>
      </trkpt>
      <trkpt lat="38.3662040" lon="-0.6989320">
        <ele>241.1</ele>
        <time>2017-12-18T13:59:42Z</time>
      </trkpt>
      <trkpt lat="38.3662050" lon="-0.6988490">
        <ele>241.1</ele>
        <time>2017-12-18T13:59:43Z</time>
      </trkpt>
      <trkpt lat="38.3662090" lon="-0.6987670">
        <ele>241.1</ele>
        <time>2017-12-18T13:59:44Z</time>
      </trkpt>
      <trkpt lat="38.3662170" lon="-0.6986850">
        <ele>241.1</ele>
        <time>2017-12-18T13:59:45Z</time>
      </trkpt>
      <trkpt lat="38.3662280" lon="-0.6986030">
        <ele>241.1</ele>
        <time>2017-12-18T13:59:46Z</time>
      </trkpt>
      <trkpt lat="38.3662420" lon="-0.6985210">
        <ele>241.1</ele>
        <time>2017-12-18T13:59:47Z</time>
      </trkpt>
      <trkpt lat="38.3662600" lon="-0.6984400">
        <ele>241.1</ele>
        <time>2017-12-18T13:59:48Z</time>
      </trkpt>
      <trkpt lat="38.3662840" lon="-0.6983630">
        <ele>241.1</ele>
        <time>2017-12-18T13:59:49Z</time>
      </trkpt>
      <trkpt lat="38.3663100" lon="-0.6982840">
        <ele>241.1</ele>
        <time>2017-12-18T13:59:50Z</time>
      </trkpt>
      <trkpt lat="38.3663380" lon="-0.6982060">
        <ele>241.1</ele>
        <time>2017-12-18T13:59:51Z</time>
      </trkpt>
      <trkpt lat="38.3663720" lon="-0.6981310">
        <ele>241.1</ele>
        <time>2017-12-18T13:59:52Z</time>
      </trkpt>
      <trkpt lat="38.3664090" lon="-0.6980560">
        <ele>241.1</ele>
        <time>2017-12-18T13:59:53Z</time>
      </trkpt>
      <trkpt lat="38.3664480" lon="-0.6979840">
        <ele>241.1</ele>
        <time>2017-12-18T13:59:54Z</time>
      </trkpt>
      <trkpt lat="38.3664900" lon="-0.6979140">
        <ele>241.1</ele>
        <time>2017-12-18T13:59:55Z</time>
      </trkpt>
      <trkpt lat="38.3665300" lon="-0.6978460">
        <ele>241.1</ele>
        <time>2017-12-18T13:59:56Z</time>
      </trkpt>
      <trkpt lat="38.3665700" lon="-0.6977770">
        <ele>241.1</ele>
        <time>2017-12-18T13:59:57Z</time>
      </trkpt>
      <trkpt lat="38.3666100" lon="-0.6977090">
        <ele>242.2</ele>
        <time>2017-12-18T13:59:58Z</time>
      </trkpt>
      <trkpt lat="38.3666490" lon="-0.6976420">
        <ele>242.2</ele>
        <time>2017-12-18T13:59:59Z</time>
      </trkpt>
      <trkpt lat="38.3666890" lon="-0.6975770">
        <ele>242.2</ele>
        <time>2017-12-18T14:00:00Z</time>
      </trkpt>
      <trkpt lat="38.3667490" lon="-0.6975220">
        <ele>242.2</ele>
        <time>2017-12-18T14:00:01Z</time>
      </trkpt>
      <trkpt lat="38.3667990" lon="-0.6974560">
        <ele>242.2</ele>
        <time>2017-12-18T14:00:02Z</time>
      </trkpt>
      <trkpt lat="38.3668440" lon="-0.6973940">
        <ele>242.2</ele>
        <time>2017-12-18T14:00:03Z</time>
      </trkpt>
      <trkpt lat="38.3668870" lon="-0.6973320">
        <ele>242.2</ele>
        <time>2017-12-18T14:00:04Z</time>
      </trkpt>
      <trkpt lat="38.3669280" lon="-0.6972720">
        <ele>242.2</ele>
        <time>2017-12-18T14:00:05Z</time>
      </trkpt>
      <trkpt lat="38.3669670" lon="-0.6972150">
        <ele>242.2</ele>
        <time>2017-12-18T14:00:06Z</time>
      </trkpt>
      <trkpt lat="38.3670060" lon="-0.6971600">
        <ele>242.2</ele>
        <time>2017-12-18T14:00:07Z</time>
      </trkpt>
      <trkpt lat="38.3670480" lon="-0.6971120">
        <ele>243.1</ele>
        <time>2017-12-18T14:00:08Z</time>
      </trkpt>
      <trkpt lat="38.3670860" lon="-0.6970600">
        <ele>243.1</ele>
        <time>2017-12-18T14:00:09Z</time>
      </trkpt>
      <trkpt lat="38.3671280" lon="-0.6970080">
        <ele>244.1</ele>
        <time>2017-12-18T14:00:10Z</time>
      </trkpt>
      <trkpt lat="38.3671690" lon="-0.6969540">
        <ele>244.1</ele>
        <time>2017-12-18T14:00:11Z</time>
      </trkpt>
      <trkpt lat="38.3672090" lon="-0.6968990">
        <ele>244.1</ele>
        <time>2017-12-18T14:00:12Z</time>
      </trkpt>
      <trkpt lat="38.3672520" lon="-0.6968440">
        <ele>244.1</ele>
        <time>2017-12-18T14:00:13Z</time>
      </trkpt>
      <trkpt lat="38.3672910" lon="-0.6967890">
        <ele>245.2</ele>
        <time>2017-12-18T14:00:14Z</time>
      </trkpt>
      <trkpt lat="38.3673280" lon="-0.6967390">
        <ele>245.2</ele>
        <time>2017-12-18T14:00:15Z</time>
      </trkpt>
      <trkpt lat="38.3673660" lon="-0.6966910">
        <ele>246.1</ele>
        <time>2017-12-18T14:00:16Z</time>
      </trkpt>
      <trkpt lat="38.3674020" lon="-0.6966450">
        <ele>246.1</ele>
        <time>2017-12-18T14:00:17Z</time>
      </trkpt>
      <trkpt lat="38.3674370" lon="-0.6966000">
        <ele>247.2</ele>
        <time>2017-12-18T14:00:18Z</time>
      </trkpt>
      <trkpt lat="38.3674700" lon="-0.6965560">
        <ele>247.2</ele>
        <time>2017-12-18T14:00:19Z</time>
      </trkpt>
      <trkpt lat="38.3675060" lon="-0.6965120">
        <ele>247.2</ele>
        <time>2017-12-18T14:00:20Z</time>
      </trkpt>
      <trkpt lat="38.3675420" lon="-0.6964670">
        <ele>247.2</ele>
        <time>2017-12-18T14:00:21Z</time>
      </trkpt>
      <trkpt lat="38.3675790" lon="-0.6964220">
        <ele>248.1</ele>
        <time>2017-12-18T14:00:22Z</time>
      </trkpt>
      <trkpt lat="38.3676130" lon="-0.6963750">
        <ele>248.1</ele>
        <time>2017-12-18T14:00:23Z</time>
      </trkpt>
      <trkpt lat="38.3676470" lon="-0.6963280">
        <ele>248.1</ele>
        <time>2017-12-18T14:00:24Z</time>
      </trkpt>
      <trkpt lat="38.3676840" lon="-0.6962820">
        <ele>248.1</ele>
        <time>2017-12-18T14:00:25Z</time>
      </trkpt>
      <trkpt lat="38.3677190" lon="-0.6962330">
        <ele>248.1</ele>
        <time>2017-12-18T14:00:26Z</time>
      </trkpt>
      <trkpt lat="38.3677540" lon="-0.6961830">
        <ele>248.1</ele>
        <time>2017-12-18T14:00:27Z</time>
      </trkpt>
      <trkpt lat="38.3677910" lon="-0.6961330">
        <ele>248.1</ele>
        <time>2017-12-18T14:00:28Z</time>
      </trkpt>
      <trkpt lat="38.3678270" lon="-0.6960820">
        <ele>248.1</ele>
        <time>2017-12-18T14:00:29Z</time>
      </trkpt>
      <trkpt lat="38.3678630" lon="-0.6960310">
        <ele>249.2</ele>
        <time>2017-12-18T14:00:30Z</time>
      </trkpt>
      <trkpt lat="38.3678970" lon="-0.6959760">
        <ele>249.2</ele>
        <time>2017-12-18T14:00:31Z</time>
      </trkpt>
      <trkpt lat="38.3679320" lon="-0.6959190">
        <ele>249.2</ele>
        <time>2017-12-18T14:00:32Z</time>
      </trkpt>
      <trkpt lat="38.3679660" lon="-0.6958640">
        <ele>249.2</ele>
        <time>2017-12-18T14:00:33Z</time>
      </trkpt>
      <trkpt lat="38.3680030" lon="-0.6958090">
        <ele>249.2</ele>
        <time>2017-12-18T14:00:34Z</time>
      </trkpt>
      <trkpt lat="38.3680400" lon="-0.6957550">
        <ele>249.2</ele>
        <time>2017-12-18T14:00:35Z</time>
      </trkpt>
      <trkpt lat="38.3680800" lon="-0.6957020">
        <ele>250.1</ele>
        <time>2017-12-18T14:00:36Z</time>
      </trkpt>
      <trkpt lat="38.3681180" lon="-0.6956490">
        <ele>250.1</ele>
        <time>2017-12-18T14:00:37Z</time>
      </trkpt>
      <trkpt lat="38.3681570" lon="-0.6955940">
        <ele>250.1</ele>
        <time>2017-12-18T14:00:38Z</time>
      </trkpt>
      <trkpt lat="38.3681960" lon="-0.6955390">
        <ele>250.1</ele>
        <time>2017-12-18T14:00:39Z</time>
      </trkpt>
      <trkpt lat="38.3682360" lon="-0.6954850">
        <ele>250.1</ele>
        <time>2017-12-18T14:00:40Z</time>
      </trkpt>
      <trkpt lat="38.3682770" lon="-0.6954320">
        <ele>250.1</ele>
        <time>2017-12-18T14:00:41Z</time>
      </trkpt>
      <trkpt lat="38.3683180" lon="-0.6953790">
        <ele>250.1</ele>
        <time>2017-12-18T14:00:42Z</time>
      </trkpt>
      <trkpt lat="38.3683590" lon="-0.6953260">
        <ele>250.1</ele>
        <time>2017-12-18T14:00:43Z</time>
      </trkpt>
      <trkpt lat="38.3684000" lon="-0.6952720">
        <ele>250.1</ele>
        <time>2017-12-18T14:00:44Z</time>
      </trkpt>
      <trkpt lat="38.3684420" lon="-0.6952200">
        <ele>250.1</ele>
        <time>2017-12-18T14:00:45Z</time>
      </trkpt>
      <trkpt lat="38.3684850" lon="-0.6951670">
        <ele>250.1</ele>
        <time>2017-12-18T14:00:46Z</time>
      </trkpt>
      <trkpt lat="38.3685280" lon="-0.6951150">
        <ele>250.1</ele>
        <time>2017-12-18T14:00:47Z</time>
      </trkpt>
      <trkpt lat="38.3685700" lon="-0.6950620">
        <ele>250.1</ele>
        <time>2017-12-18T14:00:48Z</time>
      </trkpt>
      <trkpt lat="38.3686130" lon="-0.6950090">
        <ele>250.1</ele>
        <time>2017-12-18T14:00:49Z</time>
      </trkpt>
      <trkpt lat="38.3686560" lon="-0.6949560">
        <ele>250.1</ele>
        <time>2017-12-18T14:00:50Z</time>
      </trkpt>
      <trkpt lat="38.3686990" lon="-0.6949030">
        <ele>250.1</ele>
        <time>2017-12-18T14:00:51Z</time>
      </trkpt>
      <trkpt lat="38.3687440" lon="-0.6948520">
        <ele>250.1</ele>
        <time>2017-12-18T14:00:52Z</time>
      </trkpt>
      <trkpt lat="38.3687870" lon="-0.6948000">
        <ele>250.1</ele>
        <time>2017-12-18T14:00:53Z</time>
      </trkpt>
      <trkpt lat="38.3688310" lon="-0.6947490">
        <ele>251.2</ele>
        <time>2017-12-18T14:00:54Z</time>
      </trkpt>
      <trkpt lat="38.3688740" lon="-0.6946990">
        <ele>251.2</ele>
        <time>2017-12-18T14:00:55Z</time>
      </trkpt>
      <trkpt lat="38.3689180" lon="-0.6946500">
        <ele>251.2</ele>
        <time>2017-12-18T14:00:56Z</time>
      </trkpt>
      <trkpt lat="38.3689600" lon="-0.6946000">
        <ele>251.2</ele>
        <time>2017-12-18T14:00:57Z</time>
      </trkpt>
      <trkpt lat="38.3690020" lon="-0.6945500">
        <ele>252.1</ele>
        <time>2017-12-18T14:00:58Z</time>
      </trkpt>
      <trkpt lat="38.3690440" lon="-0.6945010">
        <ele>252.1</ele>
        <time>2017-12-18T14:00:59Z</time>
      </trkpt>
      <trkpt lat="38.3690870" lon="-0.6944530">
        <ele>252.1</ele>
        <time>2017-12-18T14:01:00Z</time>
      </trkpt>
      <trkpt lat="38.3691280" lon="-0.6944040">
        <ele>252.1</ele>
        <time>2017-12-18T14:01:01Z</time>
      </trkpt>
      <trkpt lat="38.3691700" lon="-0.6943560">
        <ele>253.1</ele>
        <time>2017-12-18T14:01:02Z</time>
      </trkpt>
      <trkpt lat="38.3692130" lon="-0.6943070">
        <ele>253.1</ele>
        <time>2017-12-18T14:01:03Z</time>
      </trkpt>
      <trkpt lat="38.3692550" lon="-0.6942580">
        <ele>253.1</ele>
        <time>2017-12-18T14:01:04Z</time>
      </trkpt>
      <trkpt lat="38.3692960" lon="-0.6942080">
        <ele>253.1</ele>
        <time>2017-12-18T14:01:05Z</time>
      </trkpt>
      <trkpt lat="38.3693370" lon="-0.6941600">
        <ele>253.1</ele>
        <time>2017-12-18T14:01:06Z</time>
      </trkpt>
      <trkpt lat="38.3693770" lon="-0.6941110">
        <ele>253.1</ele>
        <time>2017-12-18T14:01:07Z</time>
      </trkpt>
      <trkpt lat="38.3694170" lon="-0.6940640">
        <ele>254.2</ele>
        <time>2017-12-18T14:01:08Z</time>
      </trkpt>
      <trkpt lat="38.3694570" lon="-0.6940160">
        <ele>254.2</ele>
        <time>2017-12-18T14:01:09Z</time>
      </trkpt>
      <trkpt lat="38.3694940" lon="-0.6939680">
        <ele>254.2</ele>
        <time>2017-12-18T14:01:10Z</time>
      </trkpt>
      <trkpt lat="38.3695320" lon="-0.6939190">
        <ele>254.2</ele>
        <time>2017-12-18T14:01:11Z</time>
      </trkpt>
      <trkpt lat="38.3695680" lon="-0.6938710">
        <ele>254.2</ele>
        <time>2017-12-18T14:01:12Z</time>
      </trkpt>
      <trkpt lat="38.3696050" lon="-0.6938230">
        <ele>254.2</ele>
        <time>2017-12-18T14:01:13Z</time>
      </trkpt>
      <trkpt lat="38.3696410" lon="-0.6937750">
        <ele>255.1</ele>
        <time>2017-12-18T14:01:14Z</time>
      </trkpt>
      <trkpt lat="38.3696760" lon="-0.6937280">
        <ele>255.1</ele>
        <time>2017-12-18T14:01:15Z</time>
      </trkpt>
      <trkpt lat="38.3697110" lon="-0.6936810">
        <ele>255.1</ele>
        <time>2017-12-18T14:01:16Z</time>
      </trkpt>
      <trkpt lat="38.3697450" lon="-0.6936330">
        <ele>255.1</ele>
        <time>2017-12-18T14:01:17Z</time>
      </trkpt>
      <trkpt lat="38.3697790" lon="-0.6935850">
        <ele>255.1</ele>
        <time>2017-12-18T14:01:18Z</time>
      </trkpt>
      <trkpt lat="38.3698120" lon="-0.6935380">
        <ele>255.1</ele>
        <time>2017-12-18T14:01:19Z</time>
      </trkpt>
      <trkpt lat="38.3698460" lon="-0.6934910">
        <ele>256.2</ele>
        <time>2017-12-18T14:01:20Z</time>
      </trkpt>
      <trkpt lat="38.3698800" lon="-0.6934440">
        <ele>256.2</ele>
        <time>2017-12-18T14:01:21Z</time>
      </trkpt>
      <trkpt lat="38.3699130" lon="-0.6933960">
        <ele>256.2</ele>
        <time>2017-12-18T14:01:22Z</time>
      </trkpt>
      <trkpt lat="38.3699470" lon="-0.6933490">
        <ele>256.2</ele>
        <time>2017-12-18T14:01:23Z</time>
      </trkpt>
      <trkpt lat="38.3699810" lon="-0.6933010">
        <ele>257.1</ele>
        <time>2017-12-18T14:01:24Z</time>
      </trkpt>
      <trkpt lat="38.3700140" lon="-0.6932530">
        <ele>257.1</ele>
        <time>2017-12-18T14:01:25Z</time>
      </trkpt>
      <trkpt lat="38.3700470" lon="-0.6932050">
        <ele>258.2</ele>
        <time>2017-12-18T14:01:26Z</time>
      </trkpt>
      <trkpt lat="38.3700800" lon="-0.6931570">
        <ele>258.2</ele>
        <time>2017-12-18T14:01:27Z</time>
      </trkpt>
      <trkpt lat="38.3701120" lon="-0.6931080">
        <ele>258.2</ele>
        <time>2017-12-18T14:01:28Z</time>
      </trkpt>
      <trkpt lat="38.3701440" lon="-0.6930600">
        <ele>258.2</ele>
        <time>2017-12-18T14:01:29Z</time>
      </trkpt>
      <trkpt lat="38.3701760" lon="-0.6930100">
        <ele>258.2</ele>
        <time>2017-12-18T14:01:30Z</time>
      </trkpt>
      <trkpt lat="38.3702090" lon="-0.6929620">
        <ele>258.2</ele>
        <time>2017-12-18T14:01:31Z</time>
      </trkpt>
      <trkpt lat="38.3702430" lon="-0.6929140">
        <ele>259.1</ele>
        <time>2017-12-18T14:01:32Z</time>
      </trkpt>
      <trkpt lat="38.3702770" lon="-0.6928660">
        <ele>259.1</ele>
        <time>2017-12-18T14:01:33Z</time>
      </trkpt>
      <trkpt lat="38.3703110" lon="-0.6928170">
        <ele>259.1</ele>
        <time>2017-12-18T14:01:34Z</time>
      </trkpt>
      <trkpt lat="38.3703470" lon="-0.6927680">
        <ele>259.1</ele>
        <time>2017-12-18T14:01:35Z</time>
      </trkpt>
      <trkpt lat="38.3703800" lon="-0.6927170">
        <ele>260.2</ele>
        <time>2017-12-18T14:01:36Z</time>
      </trkpt>
      <trkpt lat="38.3704140" lon="-0.6926660">
        <ele>260.2</ele>
        <time>2017-12-18T14:01:37Z</time>
      </trkpt>
      <trkpt lat="38.3704470" lon="-0.6926160">
        <ele>260.2</ele>
        <time>2017-12-18T14:01:38Z</time>
      </trkpt>
      <trkpt lat="38.3704810" lon="-0.6925650">
        <ele>260.2</ele>
        <time>2017-12-18T14:01:39Z</time>
      </trkpt>
      <trkpt lat="38.3705160" lon="-0.6925150">
        <ele>260.2</ele>
        <time>2017-12-18T14:01:40Z</time>
      </trkpt>
      <trkpt lat="38.3705470" lon="-0.6924620">
        <ele>260.2</ele>
        <time>2017-12-18T14:01:41Z</time>
      </trkpt>
      <trkpt lat="38.3705810" lon="-0.6924130">
        <ele>260.2</ele>
        <time>2017-12-18T14:01:42Z</time>
      </trkpt>
      <trkpt lat="38.3706150" lon="-0.6923650">
        <ele>260.2</ele>
        <time>2017-12-18T14:01:43Z</time>
      </trkpt>
      <trkpt lat="38.3706490" lon="-0.6923160">
        <ele>260.2</ele>
        <time>2017-12-18T14:01:44Z</time>
      </trkpt>
      <trkpt lat="38.3706830" lon="-0.6922680">
        <ele>260.2</ele>
        <time>2017-12-18T14:01:45Z</time>
      </trkpt>
      <trkpt lat="38.3707170" lon="-0.6922190">
        <ele>261.2</ele>
        <time>2017-12-18T14:01:46Z</time>
      </trkpt>
      <trkpt lat="38.3707500" lon="-0.6921690">
        <ele>261.2</ele>
        <time>2017-12-18T14:01:47Z</time>
      </trkpt>
      <trkpt lat="38.3707850" lon="-0.6921190">
        <ele>261.2</ele>
        <time>2017-12-18T14:01:48Z</time>
      </trkpt>
      <trkpt lat="38.3708190" lon="-0.6920700">
        <ele>261.2</ele>
        <time>2017-12-18T14:01:49Z</time>
      </trkpt>
      <trkpt lat="38.3708530" lon="-0.6920190">
        <ele>261.2</ele>
        <time>2017-12-18T14:01:50Z</time>
      </trkpt>
      <trkpt lat="38.3708890" lon="-0.6919690">
        <ele>261.2</ele>
        <time>2017-12-18T14:01:51Z</time>
      </trkpt>
      <trkpt lat="38.3709240" lon="-0.6919200">
        <ele>262.1</ele>
        <time>2017-12-18T14:01:52Z</time>
      </trkpt>
      <trkpt lat="38.3709580" lon="-0.6918720">
        <ele>262.1</ele>
        <time>2017-12-18T14:01:53Z</time>
      </trkpt>
      <trkpt lat="38.3709900" lon="-0.6918240">
        <ele>262.1</ele>
        <time>2017-12-18T14:01:54Z</time>
      </trkpt>
      <trkpt lat="38.3710230" lon="-0.6917750">
        <ele>262.1</ele>
        <time>2017-12-18T14:01:55Z</time>
      </trkpt>
      <trkpt lat="38.3710580" lon="-0.6917270">
        <ele>263.2</ele>
        <time>2017-12-18T14:01:56Z</time>
      </trkpt>
      <trkpt lat="38.3710930" lon="-0.6916790">
        <ele>263.2</ele>
        <time>2017-12-18T14:01:57Z</time>
      </trkpt>
      <trkpt lat="38.3711280" lon="-0.6916310">
        <ele>263.2</ele>
        <time>2017-12-18T14:01:58Z</time>
      </trkpt>
      <trkpt lat="38.3711600" lon="-0.6915820">
        <ele>263.2</ele>
        <time>2017-12-18T14:01:59Z</time>
      </trkpt>
      <trkpt lat="38.3711930" lon="-0.6915350">
        <ele>263.2</ele>
        <time>2017-12-18T14:02:00Z</time>
      </trkpt>
      <trkpt lat="38.3712260" lon="-0.6914880">
        <ele>263.2</ele>
        <time>2017-12-18T14:02:01Z</time>
      </trkpt>
      <trkpt lat="38.3712590" lon="-0.6914420">
        <ele>264.1</ele>
        <time>2017-12-18T14:02:02Z</time>
      </trkpt>
      <trkpt lat="38.3712910" lon="-0.6913960">
        <ele>264.1</ele>
        <time>2017-12-18T14:02:03Z</time>
      </trkpt>
      <trkpt lat="38.3713230" lon="-0.6913500">
        <ele>264.1</ele>
        <time>2017-12-18T14:02:04Z</time>
      </trkpt>
      <trkpt lat="38.3713560" lon="-0.6913040">
        <ele>264.1</ele>
        <time>2017-12-18T14:02:05Z</time>
      </trkpt>
      <trkpt lat="38.3713890" lon="-0.6912580">
        <ele>264.1</ele>
        <time>2017-12-18T14:02:06Z</time>
      </trkpt>
      <trkpt lat="38.3714200" lon="-0.6912110">
        <ele>264.1</ele>
        <time>2017-12-18T14:02:07Z</time>
      </trkpt>
      <trkpt lat="38.3714510" lon="-0.6911650">
        <ele>265.2</ele>
        <time>2017-12-18T14:02:08Z</time>
      </trkpt>
      <trkpt lat="38.3714830" lon="-0.6911180">
        <ele>265.2</ele>
        <time>2017-12-18T14:02:09Z</time>
      </trkpt>
      <trkpt lat="38.3715140" lon="-0.6910720">
        <ele>265.2</ele>
        <time>2017-12-18T14:02:10Z</time>
      </trkpt>
      <trkpt lat="38.3715460" lon="-0.6910260">
        <ele>265.2</ele>
        <time>2017-12-18T14:02:11Z</time>
      </trkpt>
      <trkpt lat="38.3715780" lon="-0.6909810">
        <ele>265.2</ele>
        <time>2017-12-18T14:02:12Z</time>
      </trkpt>
      <trkpt lat="38.3716090" lon="-0.6909340">
        <ele>265.2</ele>
        <time>2017-12-18T14:02:13Z</time>
      </trkpt>
      <trkpt lat="38.3716410" lon="-0.6908870">
        <ele>266.1</ele>
        <time>2017-12-18T14:02:14Z</time>
      </trkpt>
      <trkpt lat="38.3716720" lon="-0.6908380">
        <ele>266.1</ele>
        <time>2017-12-18T14:02:15Z</time>
      </trkpt>
      <trkpt lat="38.3717030" lon="-0.6907880">
        <ele>266.1</ele>
        <time>2017-12-18T14:02:16Z</time>
      </trkpt>
      <trkpt lat="38.3717350" lon="-0.6907360">
        <ele>266.1</ele>
        <time>2017-12-18T14:02:17Z</time>
      </trkpt>
      <trkpt lat="38.3717650" lon="-0.6906830">
        <ele>266.1</ele>
        <time>2017-12-18T14:02:18Z</time>
      </trkpt>
      <trkpt lat="38.3717960" lon="-0.6906280">
        <ele>266.1</ele>
        <time>2017-12-18T14:02:19Z</time>
      </trkpt>
      <trkpt lat="38.3718250" lon="-0.6905730">
        <ele>266.1</ele>
        <time>2017-12-18T14:02:20Z</time>
      </trkpt>
      <trkpt lat="38.3718530" lon="-0.6905170">
        <ele>266.1</ele>
        <time>2017-12-18T14:02:21Z</time>
      </trkpt>
      <trkpt lat="38.3718800" lon="-0.6904600">
        <ele>267.2</ele>
        <time>2017-12-18T14:02:22Z</time>
      </trkpt>
      <trkpt lat="38.3719080" lon="-0.6904020">
        <ele>267.2</ele>
        <time>2017-12-18T14:02:23Z</time>
      </trkpt>
      <trkpt lat="38.3719360" lon="-0.6903440">
        <ele>267.2</ele>
        <time>2017-12-18T14:02:24Z</time>
      </trkpt>
      <trkpt lat="38.3719640" lon="-0.6902850">
        <ele>267.2</ele>
        <time>2017-12-18T14:02:25Z</time>
      </trkpt>
      <trkpt lat="38.3719930" lon="-0.6902250">
        <ele>267.2</ele>
        <time>2017-12-18T14:02:26Z</time>
      </trkpt>
      <trkpt lat="38.3720200" lon="-0.6901650">
        <ele>267.2</ele>
        <time>2017-12-18T14:02:27Z</time>
      </trkpt>
      <trkpt lat="38.3720490" lon="-0.6901040">
        <ele>267.2</ele>
        <time>2017-12-18T14:02:28Z</time>
      </trkpt>
      <trkpt lat="38.3720770" lon="-0.6900430">
        <ele>267.2</ele>
        <time>2017-12-18T14:02:29Z</time>
      </trkpt>
      <trkpt lat="38.3721060" lon="-0.6899820">
        <ele>267.2</ele>
        <time>2017-12-18T14:02:30Z</time>
      </trkpt>
      <trkpt lat="38.3721340" lon="-0.6899210">
        <ele>267.2</ele>
        <time>2017-12-18T14:02:31Z</time>
      </trkpt>
      <trkpt lat="38.3721640" lon="-0.6898600">
        <ele>268.1</ele>
        <time>2017-12-18T14:02:32Z</time>
      </trkpt>
      <trkpt lat="38.3721970" lon="-0.6898000">
        <ele>268.1</ele>
        <time>2017-12-18T14:02:33Z</time>
      </trkpt>
      <trkpt lat="38.3722310" lon="-0.6897430">
        <ele>268.1</ele>
        <time>2017-12-18T14:02:34Z</time>
      </trkpt>
      <trkpt lat="38.3722670" lon="-0.6896870">
        <ele>268.1</ele>
        <time>2017-12-18T14:02:35Z</time>
      </trkpt>
      <trkpt lat="38.3723020" lon="-0.6896320">
        <ele>268.1</ele>
        <time>2017-12-18T14:02:36Z</time>
      </trkpt>
      <trkpt lat="38.3723430" lon="-0.6895800">
        <ele>268.1</ele>
        <time>2017-12-18T14:02:37Z</time>
      </trkpt>
      <trkpt lat="38.3723820" lon="-0.6895270">
        <ele>268.1</ele>
        <time>2017-12-18T14:02:38Z</time>
      </trkpt>
      <trkpt lat="38.3724150" lon="-0.6894660">
        <ele>268.1</ele>
        <time>2017-12-18T14:02:39Z</time>
      </trkpt>
      <trkpt lat="38.3724380" lon="-0.6893980">
        <ele>268.1</ele>
        <time>2017-12-18T14:02:40Z</time>
      </trkpt>
      <trkpt lat="38.3724420" lon="-0.6893290">
        <ele>268.1</ele>
        <time>2017-12-18T14:02:41Z</time>
      </trkpt>
      <trkpt lat="38.3724400" lon="-0.6892620">
        <ele>269.1</ele>
        <time>2017-12-18T14:02:42Z</time>
      </trkpt>
      <trkpt lat="38.3724310" lon="-0.6891950">
        <ele>269.1</ele>
        <time>2017-12-18T14:02:43Z</time>
      </trkpt>
      <trkpt lat="38.3724210" lon="-0.6891290">
        <ele>269.1</ele>
        <time>2017-12-18T14:02:44Z</time>
      </trkpt>
      <trkpt lat="38.3724140" lon="-0.6890620">
        <ele>269.1</ele>
        <time>2017-12-18T14:02:45Z</time>
      </trkpt>
      <trkpt lat="38.3724040" lon="-0.6889940">
        <ele>269.1</ele>
        <time>2017-12-18T14:02:46Z</time>
      </trkpt>
      <trkpt lat="38.3723950" lon="-0.6889260">
        <ele>269.1</ele>
        <time>2017-12-18T14:02:47Z</time>
      </trkpt>
      <trkpt lat="38.3723890" lon="-0.6888590">
        <ele>269.1</ele>
        <time>2017-12-18T14:02:48Z</time>
      </trkpt>
      <trkpt lat="38.3723830" lon="-0.6887920">
        <ele>269.1</ele>
        <time>2017-12-18T14:02:49Z</time>
      </trkpt>
      <trkpt lat="38.3723740" lon="-0.6887250">
        <ele>270.2</ele>
        <time>2017-12-18T14:02:50Z</time>
      </trkpt>
      <trkpt lat="38.3723650" lon="-0.6886570">
        <ele>270.2</ele>
        <time>2017-12-18T14:02:51Z</time>
      </trkpt>
      <trkpt lat="38.3723570" lon="-0.6885900">
        <ele>270.2</ele>
        <time>2017-12-18T14:02:52Z</time>
      </trkpt>
      <trkpt lat="38.3723480" lon="-0.6885240">
        <ele>270.2</ele>
        <time>2017-12-18T14:02:53Z</time>
      </trkpt>
      <trkpt lat="38.3723410" lon="-0.6884580">
        <ele>271.1</ele>
        <time>2017-12-18T14:02:54Z</time>
      </trkpt>
      <trkpt lat="38.3723340" lon="-0.6883910">
        <ele>271.1</ele>
        <time>2017-12-18T14:02:55Z</time>
      </trkpt>
      <trkpt lat="38.3723270" lon="-0.6883260">
        <ele>271.1</ele>
        <time>2017-12-18T14:02:56Z</time>
      </trkpt>
      <trkpt lat="38.3723200" lon="-0.6882600">
        <ele>271.1</ele>
        <time>2017-12-18T14:02:57Z</time>
      </trkpt>
      <trkpt lat="38.3723140" lon="-0.6881960">
        <ele>271.1</ele>
        <time>2017-12-18T14:02:58Z</time>
      </trkpt>
      <trkpt lat="38.3723060" lon="-0.6881310">
        <ele>271.1</ele>
        <time>2017-12-18T14:02:59Z</time>
      </trkpt>
      <trkpt lat="38.3722980" lon="-0.6880670">
        <ele>272.2</ele>
        <time>2017-12-18T14:03:00Z</time>
      </trkpt>
      <trkpt lat="38.3722900" lon="-0.6880020">
        <ele>272.2</ele>
        <time>2017-12-18T14:03:01Z</time>
      </trkpt>
      <trkpt lat="38.3722830" lon="-0.6879390">
        <ele>272.2</ele>
        <time>2017-12-18T14:03:02Z</time>
      </trkpt>
      <trkpt lat="38.3722780" lon="-0.6878760">
        <ele>272.2</ele>
        <time>2017-12-18T14:03:03Z</time>
      </trkpt>
      <trkpt lat="38.3722710" lon="-0.6878120">
        <ele>272.2</ele>
        <time>2017-12-18T14:03:04Z</time>
      </trkpt>
      <trkpt lat="38.3722620" lon="-0.6877490">
        <ele>272.2</ele>
        <time>2017-12-18T14:03:05Z</time>
      </trkpt>
      <trkpt lat="38.3722540" lon="-0.6876850">
        <ele>273.1</ele>
        <time>2017-12-18T14:03:06Z</time>
      </trkpt>
      <trkpt lat="38.3722460" lon="-0.6876220">
        <ele>273.1</ele>
        <time>2017-12-18T14:03:07Z</time>
      </trkpt>
      <trkpt lat="38.3722380" lon="-0.6875570">
        <ele>273.1</ele>
        <time>2017-12-18T14:03:08Z</time>
      </trkpt>
      <trkpt lat="38.3722290" lon="-0.6874920">
        <ele>273.1</ele>
        <time>2017-12-18T14:03:09Z</time>
      </trkpt>
      <trkpt lat="38.3722210" lon="-0.6874250">
        <ele>273.1</ele>
        <time>2017-12-18T14:03:10Z</time>
      </trkpt>
      <trkpt lat="38.3722110" lon="-0.6873580">
        <ele>273.1</ele>
        <time>2017-12-18T14:03:11Z</time>
      </trkpt>
      <trkpt lat="38.3722020" lon="-0.6872920">
        <ele>273.1</ele>
        <time>2017-12-18T14:03:12Z</time>
      </trkpt>
      <trkpt lat="38.3721930" lon="-0.6872240">
        <ele>273.1</ele>
        <time>2017-12-18T14:03:13Z</time>
      </trkpt>
      <trkpt lat="38.3721850" lon="-0.6871560">
        <ele>273.1</ele>
        <time>2017-12-18T14:03:14Z</time>
      </trkpt>
      <trkpt lat="38.3721770" lon="-0.6870880">
        <ele>273.1</ele>
        <time>2017-12-18T14:03:15Z</time>
      </trkpt>
      <trkpt lat="38.3721690" lon="-0.6870230">
        <ele>273.1</ele>
        <time>2017-12-18T14:03:16Z</time>
      </trkpt>
      <trkpt lat="38.3721600" lon="-0.6869590">
        <ele>273.1</ele>
        <time>2017-12-18T14:03:17Z</time>
      </trkpt>
      <trkpt lat="38.3721510" lon="-0.6868950">
        <ele>274.2</ele>
        <time>2017-12-18T14:03:18Z</time>
      </trkpt>
      <trkpt lat="38.3721450" lon="-0.6868290">
        <ele>274.2</ele>
        <time>2017-12-18T14:03:19Z</time>
      </trkpt>
      <trkpt lat="38.3721380" lon="-0.6867640">
        <ele>274.2</ele>
        <time>2017-12-18T14:03:20Z</time>
      </trkpt>
      <trkpt lat="38.3721310" lon="-0.6866970">
        <ele>274.2</ele>
        <time>2017-12-18T14:03:21Z</time>
      </trkpt>
      <trkpt lat="38.3721230" lon="-0.6866300">
        <ele>274.2</ele>
        <time>2017-12-18T14:03:22Z</time>
      </trkpt>
      <trkpt lat="38.3721140" lon="-0.6865620">
        <ele>274.2</ele>
        <time>2017-12-18T14:03:23Z</time>
      </trkpt>
      <trkpt lat="38.3721060" lon="-0.6864940">
        <ele>275.1</ele>
        <time>2017-12-18T14:03:24Z</time>
      </trkpt>
      <trkpt lat="38.3720970" lon="-0.6864270">
        <ele>275.1</ele>
        <time>2017-12-18T14:03:25Z</time>
      </trkpt>
      <trkpt lat="38.3720880" lon="-0.6863590">
        <ele>275.1</ele>
        <time>2017-12-18T14:03:26Z</time>
      </trkpt>
      <trkpt lat="38.3720790" lon="-0.6862920">
        <ele>275.1</ele>
        <time>2017-12-18T14:03:27Z</time>
      </trkpt>
      <trkpt lat="38.3720730" lon="-0.6862240">
        <ele>276.2</ele>
        <time>2017-12-18T14:03:28Z</time>
      </trkpt>
      <trkpt lat="38.3720660" lon="-0.6861540">
        <ele>276.2</ele>
        <time>2017-12-18T14:03:29Z</time>
      </trkpt>
      <trkpt lat="38.3720600" lon="-0.6860850">
        <ele>276.2</ele>
        <time>2017-12-18T14:03:30Z</time>
      </trkpt>
      <trkpt lat="38.3720540" lon="-0.6860140">
        <ele>276.2</ele>
        <time>2017-12-18T14:03:31Z</time>
      </trkpt>
      <trkpt lat="38.3720500" lon="-0.6859430">
        <ele>276.2</ele>
        <time>2017-12-18T14:03:32Z</time>
      </trkpt>
      <trkpt lat="38.3720470" lon="-0.6858770">
        <ele>276.2</ele>
        <time>2017-12-18T14:03:33Z</time>
      </trkpt>
      <trkpt lat="38.3720470" lon="-0.6858080">
        <ele>276.2</ele>
        <time>2017-12-18T14:03:34Z</time>
      </trkpt>
      <trkpt lat="38.3720450" lon="-0.6857390">
        <ele>276.2</ele>
        <time>2017-12-18T14:03:35Z</time>
      </trkpt>
      <trkpt lat="38.3720450" lon="-0.6856730">
        <ele>276.2</ele>
        <time>2017-12-18T14:03:36Z</time>
      </trkpt>
      <trkpt lat="38.3720460" lon="-0.6856050">
        <ele>276.2</ele>
        <time>2017-12-18T14:03:37Z</time>
      </trkpt>
      <trkpt lat="38.3720470" lon="-0.6855390">
        <ele>277.2</ele>
        <time>2017-12-18T14:03:38Z</time>
      </trkpt>
      <trkpt lat="38.3720500" lon="-0.6854720">
        <ele>277.2</ele>
        <time>2017-12-18T14:03:39Z</time>
      </trkpt>
      <trkpt lat="38.3720550" lon="-0.6854060">
        <ele>277.2</ele>
        <time>2017-12-18T14:03:40Z</time>
      </trkpt>
      <trkpt lat="38.3720620" lon="-0.6853410">
        <ele>277.2</ele>
        <time>2017-12-18T14:03:41Z</time>
      </trkpt>
      <trkpt lat="38.3720710" lon="-0.6852760">
        <ele>277.2</ele>
        <time>2017-12-18T14:03:42Z</time>
      </trkpt>
      <trkpt lat="38.3720800" lon="-0.6852100">
        <ele>277.2</ele>
        <time>2017-12-18T14:03:43Z</time>
      </trkpt>
      <trkpt lat="38.3720910" lon="-0.6851460">
        <ele>278.1</ele>
        <time>2017-12-18T14:03:44Z</time>
      </trkpt>
      <trkpt lat="38.3721010" lon="-0.6850800">
        <ele>278.1</ele>
        <time>2017-12-18T14:03:45Z</time>
      </trkpt>
      <trkpt lat="38.3721120" lon="-0.6850150">
        <ele>278.1</ele>
        <time>2017-12-18T14:03:46Z</time>
      </trkpt>
      <trkpt lat="38.3721250" lon="-0.6849500">
        <ele>278.1</ele>
        <time>2017-12-18T14:03:47Z</time>
      </trkpt>
      <trkpt lat="38.3721390" lon="-0.6848860">
        <ele>278.1</ele>
        <time>2017-12-18T14:03:48Z</time>
      </trkpt>
      <trkpt lat="38.3721530" lon="-0.6848220">
        <ele>278.1</ele>
        <time>2017-12-18T14:03:49Z</time>
      </trkpt>
      <trkpt lat="38.3721670" lon="-0.6847570">
        <ele>278.1</ele>
        <time>2017-12-18T14:03:50Z</time>
      </trkpt>
      <trkpt lat="38.3721800" lon="-0.6846910">
        <ele>278.1</ele>
        <time>2017-12-18T14:03:51Z</time>
      </trkpt>
      <trkpt lat="38.3721920" lon="-0.6846260">
        <ele>278.1</ele>
        <time>2017-12-18T14:03:52Z</time>
      </trkpt>
      <trkpt lat="38.3722010" lon="-0.6845600">
        <ele>278.1</ele>
        <time>2017-12-18T14:03:53Z</time>
      </trkpt>
      <trkpt lat="38.3722070" lon="-0.6844930">
        <ele>279.2</ele>
        <time>2017-12-18T14:03:54Z</time>
      </trkpt>
      <trkpt lat="38.3722100" lon="-0.6844270">
        <ele>279.2</ele>
        <time>2017-12-18T14:03:55Z</time>
      </trkpt>
      <trkpt lat="38.3722100" lon="-0.6843610">
        <ele>279.2</ele>
        <time>2017-12-18T14:03:56Z</time>
      </trkpt>
      <trkpt lat="38.3722070" lon="-0.6842940">
        <ele>279.2</ele>
        <time>2017-12-18T14:03:57Z</time>
      </trkpt>
      <trkpt lat="38.3722020" lon="-0.6842290">
        <ele>279.2</ele>
        <time>2017-12-18T14:03:58Z</time>
      </trkpt>
      <trkpt lat="38.3721920" lon="-0.6841640">
        <ele>279.2</ele>
        <time>2017-12-18T14:03:59Z</time>
      </trkpt>
      <trkpt lat="38.3721800" lon="-0.6841000">
        <ele>279.2</ele>
        <time>2017-12-18T14:04:00Z</time>
      </trkpt>
      <trkpt lat="38.3721660" lon="-0.6840390">
        <ele>279.2</ele>
        <time>2017-12-18T14:04:01Z</time>
      </trkpt>
      <trkpt lat="38.3721470" lon="-0.6839820">
        <ele>280.1</ele>
        <time>2017-12-18T14:04:02Z</time>
      </trkpt>
      <trkpt lat="38.3721180" lon="-0.6839250">
        <ele>280.1</ele>
        <time>2017-12-18T14:04:03Z</time>
      </trkpt>
      <trkpt lat="38.3720870" lon="-0.6838730">
        <ele>280.1</ele>
        <time>2017-12-18T14:04:04Z</time>
      </trkpt>
      <trkpt lat="38.3720550" lon="-0.6838210">
        <ele>280.1</ele>
        <time>2017-12-18T14:04:05Z</time>
      </trkpt>
      <trkpt lat="38.3720290" lon="-0.6837670">
        <ele>280.1</ele>
        <time>2017-12-18T14:04:06Z</time>
      </trkpt>
      <trkpt lat="38.3720070" lon="-0.6837070">
        <ele>280.1</ele>
        <time>2017-12-18T14:04:07Z</time>
      </trkpt>
      <trkpt lat="38.3719940" lon="-0.6836430">
        <ele>281.2</ele>
        <time>2017-12-18T14:04:08Z</time>
      </trkpt>
      <trkpt lat="38.3719880" lon="-0.6835730">
        <ele>281.2</ele>
        <time>2017-12-18T14:04:09Z</time>
      </trkpt>
      <trkpt lat="38.3719980" lon="-0.6835120">
        <ele>281.2</ele>
        <time>2017-12-18T14:04:10Z</time>
      </trkpt>
      <trkpt lat="38.3720160" lon="-0.6834510">
        <ele>281.2</ele>
        <time>2017-12-18T14:04:11Z</time>
      </trkpt>
      <trkpt lat="38.3720320" lon="-0.6833870">
        <ele>281.2</ele>
        <time>2017-12-18T14:04:12Z</time>
      </trkpt>
      <trkpt lat="38.3720450" lon="-0.6833240">
        <ele>281.2</ele>
        <time>2017-12-18T14:04:13Z</time>
      </trkpt>
      <trkpt lat="38.3720540" lon="-0.6832560">
        <ele>281.2</ele>
        <time>2017-12-18T14:04:14Z</time>
      </trkpt>
      <trkpt lat="38.3720600" lon="-0.6831880">
        <ele>281.2</ele>
        <time>2017-12-18T14:04:15Z</time>
      </trkpt>
      <trkpt lat="38.3720620" lon="-0.6831190">
        <ele>282.1</ele>
        <time>2017-12-18T14:04:16Z</time>
      </trkpt>
      <trkpt lat="38.3720620" lon="-0.6830490">
        <ele>282.1</ele>
        <time>2017-12-18T14:04:17Z</time>
      </trkpt>
      <trkpt lat="38.3720610" lon="-0.6829800">
        <ele>282.1</ele>
        <time>2017-12-18T14:04:18Z</time>
      </trkpt>
      <trkpt lat="38.3720610" lon="-0.6829130">
        <ele>282.1</ele>
        <time>2017-12-18T14:04:19Z</time>
      </trkpt>
      <trkpt lat="38.3720620" lon="-0.6828480">
        <ele>282.1</ele>
        <time>2017-12-18T14:04:20Z</time>
      </trkpt>
      <trkpt lat="38.3720630" lon="-0.6827840">
        <ele>282.1</ele>
        <time>2017-12-18T14:04:21Z</time>
      </trkpt>
      <trkpt lat="38.3720680" lon="-0.6827230">
        <ele>282.1</ele>
        <time>2017-12-18T14:04:22Z</time>
      </trkpt>
      <trkpt lat="38.3720760" lon="-0.6826640">
        <ele>282.1</ele>
        <time>2017-12-18T14:04:23Z</time>
      </trkpt>
      <trkpt lat="38.3720900" lon="-0.6826090">
        <ele>282.1</ele>
        <time>2017-12-18T14:04:24Z</time>
      </trkpt>
      <trkpt lat="38.3721080" lon="-0.6825560">
        <ele>282.1</ele>
        <time>2017-12-18T14:04:25Z</time>
      </trkpt>
      <trkpt lat="38.3721280" lon="-0.6825040">
        <ele>282.1</ele>
        <time>2017-12-18T14:04:26Z</time>
      </trkpt>
      <trkpt lat="38.3721510" lon="-0.6824530">
        <ele>282.1</ele>
        <time>2017-12-18T14:04:27Z</time>
      </trkpt>
      <trkpt lat="38.3721730" lon="-0.6824020">
        <ele>282.1</ele>
        <time>2017-12-18T14:04:28Z</time>
      </trkpt>
      <trkpt lat="38.3722000" lon="-0.6823570">
        <ele>282.1</ele>
        <time>2017-12-18T14:04:29Z</time>
      </trkpt>
      <trkpt lat="38.3722310" lon="-0.6823150">
        <ele>282.1</ele>
        <time>2017-12-18T14:04:30Z</time>
      </trkpt>
      <trkpt lat="38.3722610" lon="-0.6822710">
        <ele>282.1</ele>
        <time>2017-12-18T14:04:31Z</time>
      </trkpt>
      <trkpt lat="38.3722880" lon="-0.6822250">
        <ele>282.1</ele>
        <time>2017-12-18T14:04:32Z</time>
      </trkpt>
      <trkpt lat="38.3723170" lon="-0.6821770">
        <ele>282.1</ele>
        <time>2017-12-18T14:04:33Z</time>
      </trkpt>
      <trkpt lat="38.3723450" lon="-0.6821250">
        <ele>284.1</ele>
        <time>2017-12-18T14:04:34Z</time>
      </trkpt>
      <trkpt lat="38.3723720" lon="-0.6820720">
        <ele>284.1</ele>
        <time>2017-12-18T14:04:35Z</time>
      </trkpt>
      <trkpt lat="38.3723980" lon="-0.6820170">
        <ele>284.1</ele>
        <time>2017-12-18T14:04:36Z</time>
      </trkpt>
      <trkpt lat="38.3724230" lon="-0.6819600">
        <ele>284.1</ele>
        <time>2017-12-18T14:04:37Z</time>
      </trkpt>
      <trkpt lat="38.3724460" lon="-0.6819020">
        <ele>284.1</ele>
        <time>2017-12-18T14:04:38Z</time>
      </trkpt>
      <trkpt lat="38.3724680" lon="-0.6818410">
        <ele>284.1</ele>
        <time>2017-12-18T14:04:39Z</time>
      </trkpt>
      <trkpt lat="38.3724870" lon="-0.6817790">
        <ele>285.1</ele>
        <time>2017-12-18T14:04:40Z</time>
      </trkpt>
      <trkpt lat="38.3725030" lon="-0.6817150">
        <ele>285.1</ele>
        <time>2017-12-18T14:04:41Z</time>
      </trkpt>
      <trkpt lat="38.3725190" lon="-0.6816510">
        <ele>285.1</ele>
        <time>2017-12-18T14:04:42Z</time>
      </trkpt>
      <trkpt lat="38.3725340" lon="-0.6815860">
        <ele>285.1</ele>
        <time>2017-12-18T14:04:43Z</time>
      </trkpt>
      <trkpt lat="38.3725470" lon="-0.6815200">
        <ele>286.2</ele>
        <time>2017-12-18T14:04:44Z</time>
      </trkpt>
      <trkpt lat="38.3725580" lon="-0.6814550">
        <ele>286.2</ele>
        <time>2017-12-18T14:04:45Z</time>
      </trkpt>
      <trkpt lat="38.3725680" lon="-0.6813920">
        <ele>286.2</ele>
        <time>2017-12-18T14:04:46Z</time>
      </trkpt>
      <trkpt lat="38.3725790" lon="-0.6813300">
        <ele>286.2</ele>
        <time>2017-12-18T14:04:47Z</time>
      </trkpt>
      <trkpt lat="38.3725890" lon="-0.6812690">
        <ele>287.1</ele>
        <time>2017-12-18T14:04:48Z</time>
      </trkpt>
      <trkpt lat="38.3725980" lon="-0.6812080">
        <ele>287.1</ele>
        <time>2017-12-18T14:04:49Z</time>
      </trkpt>
      <trkpt lat="38.3726060" lon="-0.6811480">
        <ele>287.1</ele>
        <time>2017-12-18T14:04:50Z</time>
      </trkpt>
      <trkpt lat="38.3726140" lon="-0.6810890">
        <ele>287.1</ele>
        <time>2017-12-18T14:04:51Z</time>
      </trkpt>
      <trkpt lat="38.3726240" lon="-0.6810310">
        <ele>288.2</ele>
        <time>2017-12-18T14:04:52Z</time>
      </trkpt>
      <trkpt lat="38.3726340" lon="-0.6809740">
        <ele>288.2</ele>
        <time>2017-12-18T14:04:53Z</time>
      </trkpt>
      <trkpt lat="38.3726440" lon="-0.6809170">
        <ele>288.2</ele>
        <time>2017-12-18T14:04:54Z</time>
      </trkpt>
      <trkpt lat="38.3726550" lon="-0.6808600">
        <ele>288.2</ele>
        <time>2017-12-18T14:04:55Z</time>
      </trkpt>
      <trkpt lat="38.3726690" lon="-0.6808030">
        <ele>288.2</ele>
        <time>2017-12-18T14:04:56Z</time>
      </trkpt>
      <trkpt lat="38.3726830" lon="-0.6807450">
        <ele>288.2</ele>
        <time>2017-12-18T14:04:57Z</time>
      </trkpt>
      <trkpt lat="38.3727000" lon="-0.6806870">
        <ele>288.2</ele>
        <time>2017-12-18T14:04:58Z</time>
      </trkpt>
      <trkpt lat="38.3727170" lon="-0.6806260">
        <ele>288.2</ele>
        <time>2017-12-18T14:04:59Z</time>
      </trkpt>
      <trkpt lat="38.3727370" lon="-0.6805650">
        <ele>289.1</ele>
        <time>2017-12-18T14:05:00Z</time>
      </trkpt>
      <trkpt lat="38.3727570" lon="-0.6805040">
        <ele>289.1</ele>
        <time>2017-12-18T14:05:01Z</time>
      </trkpt>
      <trkpt lat="38.3727770" lon="-0.6804410">
        <ele>289.1</ele>
        <time>2017-12-18T14:05:02Z</time>
      </trkpt>
      <trkpt lat="38.3727940" lon="-0.6803770">
        <ele>289.1</ele>
        <time>2017-12-18T14:05:03Z</time>
      </trkpt>
      <trkpt lat="38.3728070" lon="-0.6803090">
        <ele>289.1</ele>
        <time>2017-12-18T14:05:04Z</time>
      </trkpt>
      <trkpt lat="38.3728120" lon="-0.6802380">
        <ele>289.1</ele>
        <time>2017-12-18T14:05:05Z</time>
      </trkpt>
      <trkpt lat="38.3728120" lon="-0.6801650">
        <ele>289.1</ele>
        <time>2017-12-18T14:05:06Z</time>
      </trkpt>
      <trkpt lat="38.3728050" lon="-0.6800930">
        <ele>289.1</ele>
        <time>2017-12-18T14:05:07Z</time>
      </trkpt>
      <trkpt lat="38.3727900" lon="-0.6800220">
        <ele>289.1</ele>
        <time>2017-12-18T14:05:08Z</time>
      </trkpt>
      <trkpt lat="38.3727690" lon="-0.6799530">
        <ele>289.1</ele>
        <time>2017-12-18T14:05:09Z</time>
      </trkpt>
      <trkpt lat="38.3727440" lon="-0.6798870">
        <ele>289.1</ele>
        <time>2017-12-18T14:05:10Z</time>
      </trkpt>
      <trkpt lat="38.3727170" lon="-0.6798240">
        <ele>289.1</ele>
        <time>2017-12-18T14:05:11Z</time>
      </trkpt>
      <trkpt lat="38.3726880" lon="-0.6797620">
        <ele>289.1</ele>
        <time>2017-12-18T14:05:12Z</time>
      </trkpt>
      <trkpt lat="38.3726580" lon="-0.6797030">
        <ele>289.1</ele>
        <time>2017-12-18T14:05:13Z</time>
      </trkpt>
      <trkpt lat="38.3726290" lon="-0.6796460">
        <ele>289.1</ele>
        <time>2017-12-18T14:05:14Z</time>
      </trkpt>
      <trkpt lat="38.3726010" lon="-0.6795910">
        <ele>289.1</ele>
        <time>2017-12-18T14:05:15Z</time>
      </trkpt>
      <trkpt lat="38.3725740" lon="-0.6795350">
        <ele>289.1</ele>
        <time>2017-12-18T14:05:16Z</time>
      </trkpt>
      <trkpt lat="38.3725520" lon="-0.6794790">
        <ele>289.1</ele>
        <time>2017-12-18T14:05:17Z</time>
      </trkpt>
      <trkpt lat="38.3725330" lon="-0.6794200">
        <ele>290.2</ele>
        <time>2017-12-18T14:05:18Z</time>
      </trkpt>
      <trkpt lat="38.3725200" lon="-0.6793600">
        <ele>290.2</ele>
        <time>2017-12-18T14:05:19Z</time>
      </trkpt>
      <trkpt lat="38.3725140" lon="-0.6792990">
        <ele>290.2</ele>
        <time>2017-12-18T14:05:20Z</time>
      </trkpt>
      <trkpt lat="38.3725150" lon="-0.6792400">
        <ele>290.2</ele>
        <time>2017-12-18T14:05:21Z</time>
      </trkpt>
      <trkpt lat="38.3725160" lon="-0.6791820">
        <ele>290.2</ele>
        <time>2017-12-18T14:05:22Z</time>
      </trkpt>
      <trkpt lat="38.3725200" lon="-0.6791290">
        <ele>290.2</ele>
        <time>2017-12-18T14:05:23Z</time>
      </trkpt>
      <trkpt lat="38.3725290" lon="-0.6790740">
        <ele>291.1</ele>
        <time>2017-12-18T14:05:24Z</time>
      </trkpt>
      <trkpt lat="38.3725370" lon="-0.6790190">
        <ele>291.1</ele>
        <time>2017-12-18T14:05:25Z</time>
      </trkpt>
      <trkpt lat="38.3725430" lon="-0.6789620">
        <ele>291.1</ele>
        <time>2017-12-18T14:05:26Z</time>
      </trkpt>
      <trkpt lat="38.3725510" lon="-0.6789060">
        <ele>291.1</ele>
        <time>2017-12-18T14:05:27Z</time>
      </trkpt>
      <trkpt lat="38.3725580" lon="-0.6788490">
        <ele>292.2</ele>
        <time>2017-12-18T14:05:28Z</time>
      </trkpt>
      <trkpt lat="38.3725660" lon="-0.6787900">
        <ele>292.2</ele>
        <time>2017-12-18T14:05:29Z</time>
      </trkpt>
      <trkpt lat="38.3725750" lon="-0.6787350">
        <ele>292.2</ele>
        <time>2017-12-18T14:05:30Z</time>
      </trkpt>
      <trkpt lat="38.3725840" lon="-0.6786800">
        <ele>292.2</ele>
        <time>2017-12-18T14:05:31Z</time>
      </trkpt>
      <trkpt lat="38.3725930" lon="-0.6786260">
        <ele>292.2</ele>
        <time>2017-12-18T14:05:32Z</time>
      </trkpt>
      <trkpt lat="38.3726030" lon="-0.6785730">
        <ele>292.2</ele>
        <time>2017-12-18T14:05:33Z</time>
      </trkpt>
      <trkpt lat="38.3726140" lon="-0.6785220">
        <ele>293.2</ele>
        <time>2017-12-18T14:05:34Z</time>
      </trkpt>
      <trkpt lat="38.3726250" lon="-0.6784720">
        <ele>293.2</ele>
        <time>2017-12-18T14:05:35Z</time>
      </trkpt>
      <trkpt lat="38.3726400" lon="-0.6784240">
        <ele>293.2</ele>
        <time>2017-12-18T14:05:36Z</time>
      </trkpt>
      <trkpt lat="38.3726540" lon="-0.6783740">
        <ele>293.2</ele>
        <time>2017-12-18T14:05:37Z</time>
      </trkpt>
      <trkpt lat="38.3726680" lon="-0.6783230">
        <ele>294.1</ele>
        <time>2017-12-18T14:05:38Z</time>
      </trkpt>
      <trkpt lat="38.3726830" lon="-0.6782730">
        <ele>294.1</ele>
        <time>2017-12-18T14:05:39Z</time>
      </trkpt>
      <trkpt lat="38.3726980" lon="-0.6782230">
        <ele>294.1</ele>
        <time>2017-12-18T14:05:40Z</time>
      </trkpt>
      <trkpt lat="38.3727130" lon="-0.6781730">
        <ele>294.1</ele>
        <time>2017-12-18T14:05:41Z</time>
      </trkpt>
      <trkpt lat="38.3727290" lon="-0.6781220">
        <ele>294.1</ele>
        <time>2017-12-18T14:05:42Z</time>
      </trkpt>
      <trkpt lat="38.3727460" lon="-0.6780720">
        <ele>294.1</ele>
        <time>2017-12-18T14:05:43Z</time>
      </trkpt>
      <trkpt lat="38.3727640" lon="-0.6780210">
        <ele>295.2</ele>
        <time>2017-12-18T14:05:44Z</time>
      </trkpt>
      <trkpt lat="38.3727830" lon="-0.6779720">
        <ele>295.2</ele>
        <time>2017-12-18T14:05:45Z</time>
      </trkpt>
      <trkpt lat="38.3728010" lon="-0.6779200">
        <ele>295.2</ele>
        <time>2017-12-18T14:05:46Z</time>
      </trkpt>
      <trkpt lat="38.3728190" lon="-0.6778680">
        <ele>295.2</ele>
        <time>2017-12-18T14:05:47Z</time>
      </trkpt>
      <trkpt lat="38.3728360" lon="-0.6778160">
        <ele>296.1</ele>
        <time>2017-12-18T14:05:48Z</time>
      </trkpt>
      <trkpt lat="38.3728540" lon="-0.6777650">
        <ele>296.1</ele>
        <time>2017-12-18T14:05:49Z</time>
      </trkpt>
      <trkpt lat="38.3728750" lon="-0.6777140">
        <ele>296.1</ele>
        <time>2017-12-18T14:05:50Z</time>
      </trkpt>
      <trkpt lat="38.3728940" lon="-0.6776640">
        <ele>296.1</ele>
        <time>2017-12-18T14:05:51Z</time>
      </trkpt>
      <trkpt lat="38.3729150" lon="-0.6776140">
        <ele>296.1</ele>
        <time>2017-12-18T14:05:52Z</time>
      </trkpt>
      <trkpt lat="38.3729350" lon="-0.6775650">
        <ele>296.1</ele>
        <time>2017-12-18T14:05:53Z</time>
      </trkpt>
      <trkpt lat="38.3729530" lon="-0.6775140">
        <ele>297.2</ele>
        <time>2017-12-18T14:05:54Z</time>
      </trkpt>
      <trkpt lat="38.3729720" lon="-0.6774630">
        <ele>297.2</ele>
        <time>2017-12-18T14:05:55Z</time>
      </trkpt>
      <trkpt lat="38.3729910" lon="-0.6774120">
        <ele>297.2</ele>
        <time>2017-12-18T14:05:56Z</time>
      </trkpt>
      <trkpt lat="38.3730090" lon="-0.6773620">
        <ele>297.2</ele>
        <time>2017-12-18T14:05:57Z</time>
      </trkpt>
      <trkpt lat="38.3730280" lon="-0.6773130">
        <ele>297.2</ele>
        <time>2017-12-18T14:05:58Z</time>
      </trkpt>
      <trkpt lat="38.3730490" lon="-0.6772660">
        <ele>297.2</ele>
        <time>2017-12-18T14:05:59Z</time>
      </trkpt>
      <trkpt lat="38.3730670" lon="-0.6772170">
        <ele>297.2</ele>
        <time>2017-12-18T14:06:00Z</time>
      </trkpt>
      <trkpt lat="38.3730840" lon="-0.6771680">
        <ele>297.2</ele>
        <time>2017-12-18T14:06:01Z</time>
      </trkpt>
      <trkpt lat="38.3731020" lon="-0.6771190">
        <ele>297.2</ele>
        <time>2017-12-18T14:06:02Z</time>
      </trkpt>
      <trkpt lat="38.3731190" lon="-0.6770700">
        <ele>297.2</ele>
        <time>2017-12-18T14:06:03Z</time>
      </trkpt>
      <trkpt lat="38.3731360" lon="-0.6770220">
        <ele>297.2</ele>
        <time>2017-12-18T14:06:04Z</time>
      </trkpt>
      <trkpt lat="38.3731530" lon="-0.6769730">
        <ele>297.2</ele>
        <time>2017-12-18T14:06:05Z</time>
      </trkpt>
      <trkpt lat="38.3731700" lon="-0.6769250">
        <ele>298.1</ele>
        <time>2017-12-18T14:06:06Z</time>
      </trkpt>
      <trkpt lat="38.3731860" lon="-0.6768760">
        <ele>298.1</ele>
        <time>2017-12-18T14:06:07Z</time>
      </trkpt>
      <trkpt lat="38.3732020" lon="-0.6768290">
        <ele>298.1</ele>
        <time>2017-12-18T14:06:08Z</time>
      </trkpt>
      <trkpt lat="38.3732170" lon="-0.6767810">
        <ele>298.1</ele>
        <time>2017-12-18T14:06:09Z</time>
      </trkpt>
      <trkpt lat="38.3732320" lon="-0.6767350">
        <ele>299.2</ele>
        <time>2017-12-18T14:06:10Z</time>
      </trkpt>
      <trkpt lat="38.3732480" lon="-0.6766900">
        <ele>299.2</ele>
        <time>2017-12-18T14:06:11Z</time>
      </trkpt>
      <trkpt lat="38.3732640" lon="-0.6766450">
        <ele>299.2</ele>
        <time>2017-12-18T14:06:12Z</time>
      </trkpt>
      <trkpt lat="38.3732800" lon="-0.6766020">
        <ele>299.2</ele>
        <time>2017-12-18T14:06:13Z</time>
      </trkpt>
      <trkpt lat="38.3732960" lon="-0.6765570">
        <ele>300.1</ele>
        <time>2017-12-18T14:06:14Z</time>
      </trkpt>
      <trkpt lat="38.3733100" lon="-0.6765120">
        <ele>300.1</ele>
        <time>2017-12-18T14:06:15Z</time>
      </trkpt>
      <trkpt lat="38.3733250" lon="-0.6764660">
        <ele>300.1</ele>
        <time>2017-12-18T14:06:16Z</time>
      </trkpt>
      <trkpt lat="38.3733400" lon="-0.6764190">
        <ele>300.1</ele>
        <time>2017-12-18T14:06:17Z</time>
      </trkpt>
      <trkpt lat="38.3733540" lon="-0.6763710">
        <ele>301.1</ele>
        <time>2017-12-18T14:06:18Z</time>
      </trkpt>
      <trkpt lat="38.3733710" lon="-0.6763260">
        <ele>301.1</ele>
        <time>2017-12-18T14:06:19Z</time>
      </trkpt>
      <trkpt lat="38.3733890" lon="-0.6762830">
        <ele>301.1</ele>
        <time>2017-12-18T14:06:20Z</time>
      </trkpt>
      <trkpt lat="38.3734070" lon="-0.6762410">
        <ele>301.1</ele>
        <time>2017-12-18T14:06:21Z</time>
      </trkpt>
      <trkpt lat="38.3734270" lon="-0.6762020">
        <ele>301.1</ele>
        <time>2017-12-18T14:06:22Z</time>
      </trkpt>
      <trkpt lat="38.3734470" lon="-0.6761640">
        <ele>301.1</ele>
        <time>2017-12-18T14:06:23Z</time>
      </trkpt>
      <trkpt lat="38.3734670" lon="-0.6761270">
        <ele>301.1</ele>
        <time>2017-12-18T14:06:24Z</time>
      </trkpt>
      <trkpt lat="38.3734860" lon="-0.6760910">
        <ele>301.1</ele>
        <time>2017-12-18T14:06:25Z</time>
      </trkpt>
      <trkpt lat="38.3735060" lon="-0.6760560">
        <ele>304.2</ele>
        <time>2017-12-18T14:06:26Z</time>
      </trkpt>
      <trkpt lat="38.3735270" lon="-0.6760230">
        <ele>304.2</ele>
        <time>2017-12-18T14:06:27Z</time>
      </trkpt>
      <trkpt lat="38.3735470" lon="-0.6759900">
        <ele>304.2</ele>
        <time>2017-12-18T14:06:28Z</time>
      </trkpt>
      <trkpt lat="38.3735680" lon="-0.6759570">
        <ele>304.2</ele>
        <time>2017-12-18T14:06:29Z</time>
      </trkpt>
      <trkpt lat="38.3735900" lon="-0.6759260">
        <ele>305.1</ele>
        <time>2017-12-18T14:06:30Z</time>
      </trkpt>
      <trkpt lat="38.3736140" lon="-0.6758950">
        <ele>305.1</ele>
        <time>2017-12-18T14:06:31Z</time>
      </trkpt>
      <trkpt lat="38.3736360" lon="-0.6758640">
        <ele>306.2</ele>
        <time>2017-12-18T14:06:32Z</time>
      </trkpt>
      <trkpt lat="38.3736580" lon="-0.6758330">
        <ele>306.2</ele>
        <time>2017-12-18T14:06:33Z</time>
      </trkpt>
      <trkpt lat="38.3736810" lon="-0.6758020">
        <ele>306.2</ele>
        <time>2017-12-18T14:06:34Z</time>
      </trkpt>
      <trkpt lat="38.3737040" lon="-0.6757700">
        <ele>306.2</ele>
        <time>2017-12-18T14:06:35Z</time>
      </trkpt>
      <trkpt lat="38.3737260" lon="-0.6757360">
        <ele>307.1</ele>
        <time>2017-12-18T14:06:36Z</time>
      </trkpt>
      <trkpt lat="38.3737470" lon="-0.6757010">
        <ele>307.1</ele>
        <time>2017-12-18T14:06:37Z</time>
      </trkpt>
      <trkpt lat="38.3737690" lon="-0.6756640">
        <ele>307.1</ele>
        <time>2017-12-18T14:06:38Z</time>
      </trkpt>
      <trkpt lat="38.3737900" lon="-0.6756250">
        <ele>307.1</ele>
        <time>2017-12-18T14:06:39Z</time>
      </trkpt>
      <trkpt lat="38.3738110" lon="-0.6755860">
        <ele>308.2</ele>
        <time>2017-12-18T14:06:40Z</time>
      </trkpt>
      <trkpt lat="38.3738300" lon="-0.6755460">
        <ele>308.2</ele>
        <time>2017-12-18T14:06:41Z</time>
      </trkpt>
      <trkpt lat="38.3738480" lon="-0.6755040">
        <ele>308.2</ele>
        <time>2017-12-18T14:06:42Z</time>
      </trkpt>
      <trkpt lat="38.3738600" lon="-0.6754590">
        <ele>308.2</ele>
        <time>2017-12-18T14:06:43Z</time>
      </trkpt>
      <trkpt lat="38.3738670" lon="-0.6754110">
        <ele>308.2</ele>
        <time>2017-12-18T14:06:44Z</time>
      </trkpt>
      <trkpt lat="38.3738670" lon="-0.6753640">
        <ele>308.2</ele>
        <time>2017-12-18T14:06:45Z</time>
      </trkpt>
      <trkpt lat="38.3738570" lon="-0.6753240">
        <ele>308.2</ele>
        <time>2017-12-18T14:06:46Z</time>
      </trkpt>
      <trkpt lat="38.3738400" lon="-0.6752960">
        <ele>308.2</ele>
        <time>2017-12-18T14:06:47Z</time>
      </trkpt>
      <trkpt lat="38.3738220" lon="-0.6752710">
        <ele>309.1</ele>
        <time>2017-12-18T14:06:48Z</time>
      </trkpt>
      <trkpt lat="38.3738030" lon="-0.6752460">
        <ele>309.1</ele>
        <time>2017-12-18T14:06:49Z</time>
      </trkpt>
      <trkpt lat="38.3737850" lon="-0.6752210">
        <ele>309.1</ele>
        <time>2017-12-18T14:06:50Z</time>
      </trkpt>
      <trkpt lat="38.3737680" lon="-0.6751980">
        <ele>309.1</ele>
        <time>2017-12-18T14:06:51Z</time>
      </trkpt>
      <trkpt lat="38.3737490" lon="-0.6751760">
        <ele>309.1</ele>
        <time>2017-12-18T14:06:52Z</time>
      </trkpt>
      <trkpt lat="38.3737290" lon="-0.6751550">
        <ele>309.1</ele>
        <time>2017-12-18T14:06:53Z</time>
      </trkpt>
      <trkpt lat="38.3737110" lon="-0.6751350">
        <ele>309.1</ele>
        <time>2017-12-18T14:06:54Z</time>
      </trkpt>
      <trkpt lat="38.3736930" lon="-0.6751110">
        <ele>309.1</ele>
        <time>2017-12-18T14:06:55Z</time>
      </trkpt>
      <trkpt lat="38.3736770" lon="-0.6750860">
        <ele>309.1</ele>
        <time>2017-12-18T14:06:56Z</time>
      </trkpt>
      <trkpt lat="38.3736570" lon="-0.6750600">
        <ele>309.1</ele>
        <time>2017-12-18T14:06:57Z</time>
      </trkpt>
      <trkpt lat="38.3736390" lon="-0.6750350">
        <ele>312.1</ele>
        <time>2017-12-18T14:06:58Z</time>
      </trkpt>
      <trkpt lat="38.3736170" lon="-0.6750080">
        <ele>312.1</ele>
        <time>2017-12-18T14:06:59Z</time>
      </trkpt>
      <trkpt lat="38.3736010" lon="-0.6749850">
        <ele>313.2</ele>
        <time>2017-12-18T14:07:00Z</time>
      </trkpt>
      <trkpt lat="38.3735860" lon="-0.6749590">
        <ele>313.2</ele>
        <time>2017-12-18T14:07:01Z</time>
      </trkpt>
      <trkpt lat="38.3735680" lon="-0.6749350">
        <ele>313.2</ele>
        <time>2017-12-18T14:07:02Z</time>
      </trkpt>
      <trkpt lat="38.3735520" lon="-0.6749080">
        <ele>313.2</ele>
        <time>2017-12-18T14:07:03Z</time>
      </trkpt>
      <trkpt lat="38.3735370" lon="-0.6748780">
        <ele>313.2</ele>
        <time>2017-12-18T14:07:04Z</time>
      </trkpt>
      <trkpt lat="38.3735200" lon="-0.6748500">
        <ele>313.2</ele>
        <time>2017-12-18T14:07:05Z</time>
      </trkpt>
      <trkpt lat="38.3735040" lon="-0.6748200">
        <ele>313.2</ele>
        <time>2017-12-18T14:07:06Z</time>
      </trkpt>
      <trkpt lat="38.3734870" lon="-0.6747910">
        <ele>313.2</ele>
        <time>2017-12-18T14:07:07Z</time>
      </trkpt>
      <trkpt lat="38.3734660" lon="-0.6747620">
        <ele>314.1</ele>
        <time>2017-12-18T14:07:08Z</time>
      </trkpt>
      <trkpt lat="38.3734460" lon="-0.6747330">
        <ele>314.1</ele>
        <time>2017-12-18T14:07:09Z</time>
      </trkpt>
      <trkpt lat="38.3734260" lon="-0.6747020">
        <ele>314.1</ele>
        <time>2017-12-18T14:07:10Z</time>
      </trkpt>
      <trkpt lat="38.3734070" lon="-0.6746710">
        <ele>314.1</ele>
        <time>2017-12-18T14:07:11Z</time>
      </trkpt>
      <trkpt lat="38.3733880" lon="-0.6746370">
        <ele>315.2</ele>
        <time>2017-12-18T14:07:12Z</time>
      </trkpt>
      <trkpt lat="38.3733690" lon="-0.6746020">
        <ele>315.2</ele>
        <time>2017-12-18T14:07:13Z</time>
      </trkpt>
      <trkpt lat="38.3733520" lon="-0.6745650">
        <ele>315.2</ele>
        <time>2017-12-18T14:07:14Z</time>
      </trkpt>
      <trkpt lat="38.3733370" lon="-0.6745270">
        <ele>315.2</ele>
        <time>2017-12-18T14:07:15Z</time>
      </trkpt>
      <trkpt lat="38.3733220" lon="-0.6744870">
        <ele>315.2</ele>
        <time>2017-12-18T14:07:16Z</time>
      </trkpt>
      <trkpt lat="38.3733090" lon="-0.6744470">
        <ele>315.2</ele>
        <time>2017-12-18T14:07:17Z</time>
      </trkpt>
      <trkpt lat="38.3732970" lon="-0.6744060">
        <ele>316.1</ele>
        <time>2017-12-18T14:07:18Z</time>
      </trkpt>
      <trkpt lat="38.3732870" lon="-0.6743630">
        <ele>316.1</ele>
        <time>2017-12-18T14:07:19Z</time>
      </trkpt>
      <trkpt lat="38.3732780" lon="-0.6743200">
        <ele>316.1</ele>
        <time>2017-12-18T14:07:20Z</time>
      </trkpt>
      <trkpt lat="38.3732690" lon="-0.6742750">
        <ele>316.1</ele>
        <time>2017-12-18T14:07:21Z</time>
      </trkpt>
      <trkpt lat="38.3732610" lon="-0.6742300">
        <ele>316.1</ele>
        <time>2017-12-18T14:07:22Z</time>
      </trkpt>
      <trkpt lat="38.3732540" lon="-0.6741840">
        <ele>316.1</ele>
        <time>2017-12-18T14:07:23Z</time>
      </trkpt>
      <trkpt lat="38.3732460" lon="-0.6741370">
        <ele>316.1</ele>
        <time>2017-12-18T14:07:24Z</time>
      </trkpt>
      <trkpt lat="38.3732410" lon="-0.6740890">
        <ele>316.1</ele>
        <time>2017-12-18T14:07:25Z</time>
      </trkpt>
      <trkpt lat="38.3732360" lon="-0.6740420">
        <ele>316.1</ele>
        <time>2017-12-18T14:07:26Z</time>
      </trkpt>
      <trkpt lat="38.3732310" lon="-0.6739950">
        <ele>316.1</ele>
        <time>2017-12-18T14:07:27Z</time>
      </trkpt>
      <trkpt lat="38.3732250" lon="-0.6739480">
        <ele>317.1</ele>
        <time>2017-12-18T14:07:28Z</time>
      </trkpt>
      <trkpt lat="38.3732190" lon="-0.6739020">
        <ele>317.1</ele>
        <time>2017-12-18T14:07:29Z</time>
      </trkpt>
      <trkpt lat="38.3732110" lon="-0.6738560">
        <ele>317.1</ele>
        <time>2017-12-18T14:07:30Z</time>
      </trkpt>
      <trkpt lat="38.3732040" lon="-0.6738110">
        <ele>317.1</ele>
        <time>2017-12-18T14:07:31Z</time>
      </trkpt>
      <trkpt lat="38.3731950" lon="-0.6737660">
        <ele>317.1</ele>
        <time>2017-12-18T14:07:32Z</time>
      </trkpt>
      <trkpt lat="38.3731870" lon="-0.6737210">
        <ele>317.1</ele>
        <time>2017-12-18T14:07:33Z</time>
      </trkpt>
      <trkpt lat="38.3731770" lon="-0.6736760">
        <ele>317.1</ele>
        <time>2017-12-18T14:07:34Z</time>
      </trkpt>
      <trkpt lat="38.3731660" lon="-0.6736320">
        <ele>317.1</ele>
        <time>2017-12-18T14:07:35Z</time>
      </trkpt>
      <trkpt lat="38.3731540" lon="-0.6735900">
        <ele>318.2</ele>
        <time>2017-12-18T14:07:36Z</time>
      </trkpt>
      <trkpt lat="38.3731410" lon="-0.6735490">
        <ele>318.2</ele>
        <time>2017-12-18T14:07:37Z</time>
      </trkpt>
      <trkpt lat="38.3731260" lon="-0.6735080">
        <ele>318.2</ele>
        <time>2017-12-18T14:07:38Z</time>
      </trkpt>
      <trkpt lat="38.3731100" lon="-0.6734690">
        <ele>318.2</ele>
        <time>2017-12-18T14:07:39Z</time>
      </trkpt>
      <trkpt lat="38.3730960" lon="-0.6734320">
        <ele>318.2</ele>
        <time>2017-12-18T14:07:40Z</time>
      </trkpt>
      <trkpt lat="38.3730800" lon="-0.6733970">
        <ele>318.2</ele>
        <time>2017-12-18T14:07:41Z</time>
      </trkpt>
      <trkpt lat="38.3730620" lon="-0.6733670">
        <ele>318.2</ele>
        <time>2017-12-18T14:07:42Z</time>
      </trkpt>
      <trkpt lat="38.3730420" lon="-0.6733360">
        <ele>318.2</ele>
        <time>2017-12-18T14:07:43Z</time>
      </trkpt>
      <trkpt lat="38.3730240" lon="-0.6733070">
        <ele>319.1</ele>
        <time>2017-12-18T14:07:44Z</time>
      </trkpt>
      <trkpt lat="38.3730060" lon="-0.6732780">
        <ele>319.1</ele>
        <time>2017-12-18T14:07:45Z</time>
      </trkpt>
      <trkpt lat="38.3729880" lon="-0.6732470">
        <ele>319.1</ele>
        <time>2017-12-18T14:07:46Z</time>
      </trkpt>
      <trkpt lat="38.3729700" lon="-0.6732150">
        <ele>319.1</ele>
        <time>2017-12-18T14:07:47Z</time>
      </trkpt>
      <trkpt lat="38.3729510" lon="-0.6731850">
        <ele>319.1</ele>
        <time>2017-12-18T14:07:48Z</time>
      </trkpt>
      <trkpt lat="38.3729330" lon="-0.6731540">
        <ele>319.1</ele>
        <time>2017-12-18T14:07:49Z</time>
      </trkpt>
      <trkpt lat="38.3729170" lon="-0.6731250">
        <ele>319.1</ele>
        <time>2017-12-18T14:07:50Z</time>
      </trkpt>
      <trkpt lat="38.3729000" lon="-0.6730970">
        <ele>319.1</ele>
        <time>2017-12-18T14:07:51Z</time>
      </trkpt>
      <trkpt lat="38.3728830" lon="-0.6730710">
        <ele>319.1</ele>
        <time>2017-12-18T14:07:52Z</time>
      </trkpt>
      <trkpt lat="38.3728660" lon="-0.6730430">
        <ele>319.1</ele>
        <time>2017-12-18T14:07:53Z</time>
      </trkpt>
      <trkpt lat="38.3728490" lon="-0.6730190">
        <ele>322.2</ele>
        <time>2017-12-18T14:07:54Z</time>
      </trkpt>
      <trkpt lat="38.3728310" lon="-0.6729950">
        <ele>322.2</ele>
        <time>2017-12-18T14:07:55Z</time>
      </trkpt>
      <trkpt lat="38.3728140" lon="-0.6729700">
        <ele>322.2</ele>
        <time>2017-12-18T14:07:56Z</time>
      </trkpt>
      <trkpt lat="38.3727980" lon="-0.6729440">
        <ele>322.2</ele>
        <time>2017-12-18T14:07:57Z</time>
      </trkpt>
      <trkpt lat="38.3727830" lon="-0.6729180">
        <ele>323.1</ele>
        <time>2017-12-18T14:07:58Z</time>
      </trkpt>
      <trkpt lat="38.3727680" lon="-0.6728920">
        <ele>323.1</ele>
        <time>2017-12-18T14:07:59Z</time>
      </trkpt>
      <trkpt lat="38.3727540" lon="-0.6728660">
        <ele>323.1</ele>
        <time>2017-12-18T14:08:00Z</time>
      </trkpt>
      <trkpt lat="38.3727400" lon="-0.6728390">
        <ele>323.1</ele>
        <time>2017-12-18T14:08:01Z</time>
      </trkpt>
      <trkpt lat="38.3727270" lon="-0.6728120">
        <ele>324.2</ele>
        <time>2017-12-18T14:08:02Z</time>
      </trkpt>
      <trkpt lat="38.3727140" lon="-0.6727860">
        <ele>324.2</ele>
        <time>2017-12-18T14:08:03Z</time>
      </trkpt>
      <trkpt lat="38.3727010" lon="-0.6727600">
        <ele>324.2</ele>
        <time>2017-12-18T14:08:04Z</time>
      </trkpt>
      <trkpt lat="38.3726870" lon="-0.6727360">
        <ele>324.2</ele>
        <time>2017-12-18T14:08:05Z</time>
      </trkpt>
      <trkpt lat="38.3726750" lon="-0.6727120">
        <ele>324.2</ele>
        <time>2017-12-18T14:08:06Z</time>
      </trkpt>
      <trkpt lat="38.3726610" lon="-0.6726900">
        <ele>324.2</ele>
        <time>2017-12-18T14:08:07Z</time>
      </trkpt>
      <trkpt lat="38.3726460" lon="-0.6726680">
        <ele>325.1</ele>
        <time>2017-12-18T14:08:08Z</time>
      </trkpt>
      <trkpt lat="38.3726340" lon="-0.6726430">
        <ele>325.1</ele>
        <time>2017-12-18T14:08:09Z</time>
      </trkpt>
      <trkpt lat="38.3726260" lon="-0.6726150">
        <ele>325.1</ele>
        <time>2017-12-18T14:08:10Z</time>
      </trkpt>
      <trkpt lat="38.3726230" lon="-0.6725850">
        <ele>325.1</ele>
        <time>2017-12-18T14:08:11Z</time>
      </trkpt>
      <trkpt lat="38.3726220" lon="-0.6725570">
        <ele>326.1</ele>
        <time>2017-12-18T14:08:12Z</time>
      </trkpt>
      <trkpt lat="38.3726210" lon="-0.6725290">
        <ele>326.1</ele>
        <time>2017-12-18T14:08:13Z</time>
      </trkpt>
      <trkpt lat="38.3726250" lon="-0.6725040">
        <ele>327.2</ele>
        <time>2017-12-18T14:08:14Z</time>
      </trkpt>
      <trkpt lat="38.3726310" lon="-0.6724790">
        <ele>327.2</ele>
        <time>2017-12-18T14:08:15Z</time>
      </trkpt>
      <trkpt lat="38.3726380" lon="-0.6724550">
        <ele>328.1</ele>
        <time>2017-12-18T14:08:16Z</time>
      </trkpt>
      <trkpt lat="38.3726460" lon="-0.6724300">
        <ele>328.1</ele>
        <time>2017-12-18T14:08:17Z</time>
      </trkpt>
      <trkpt lat="38.3726530" lon="-0.6724050">
        <ele>329.2</ele>
        <time>2017-12-18T14:08:18Z</time>
      </trkpt>
      <trkpt lat="38.3726600" lon="-0.6723830">
        <ele>329.2</ele>
        <time>2017-12-18T14:08:19Z</time>
      </trkpt>
      <trkpt lat="38.3726680" lon="-0.6723590">
        <ele>329.2</ele>
        <time>2017-12-18T14:08:20Z</time>
      </trkpt>
      <trkpt lat="38.3726760" lon="-0.6723330">
        <ele>329.2</ele>
        <time>2017-12-18T14:08:21Z</time>
      </trkpt>
      <trkpt lat="38.3726850" lon="-0.6723090">
        <ele>329.2</ele>
        <time>2017-12-18T14:08:22Z</time>
      </trkpt>
      <trkpt lat="38.3726910" lon="-0.6722810">
        <ele>329.2</ele>
        <time>2017-12-18T14:08:23Z</time>
      </trkpt>
      <trkpt lat="38.3726990" lon="-0.6722550">
        <ele>329.2</ele>
        <time>2017-12-18T14:08:24Z</time>
      </trkpt>
      <trkpt lat="38.3727080" lon="-0.6722310">
        <ele>329.2</ele>
        <time>2017-12-18T14:08:25Z</time>
      </trkpt>
      <trkpt lat="38.3727180" lon="-0.6722060">
        <ele>330.1</ele>
        <time>2017-12-18T14:08:26Z</time>
      </trkpt>
      <trkpt lat="38.3727290" lon="-0.6721810">
        <ele>330.1</ele>
        <time>2017-12-18T14:08:27Z</time>
      </trkpt>
      <trkpt lat="38.3727390" lon="-0.6721560">
        <ele>330.1</ele>
        <time>2017-12-18T14:08:28Z</time>
      </trkpt>
      <trkpt lat="38.3727480" lon="-0.6721320">
        <ele>330.1</ele>
        <time>2017-12-18T14:08:29Z</time>
      </trkpt>
      <trkpt lat="38.3727580" lon="-0.6721070">
        <ele>331.2</ele>
        <time>2017-12-18T14:08:30Z</time>
      </trkpt>
      <trkpt lat="38.3727690" lon="-0.6720830">
        <ele>331.2</ele>
        <time>2017-12-18T14:08:31Z</time>
      </trkpt>
      <trkpt lat="38.3727770" lon="-0.6720590">
        <ele>331.2</ele>
        <time>2017-12-18T14:08:32Z</time>
      </trkpt>
      <trkpt lat="38.3727850" lon="-0.6720380">
        <ele>331.2</ele>
        <time>2017-12-18T14:08:33Z</time>
      </trkpt>
      <trkpt lat="38.3727950" lon="-0.6720180">
        <ele>331.2</ele>
        <time>2017-12-18T14:08:34Z</time>
      </trkpt>
      <trkpt lat="38.3728040" lon="-0.6719990">
        <ele>331.2</ele>
        <time>2017-12-18T14:08:35Z</time>
      </trkpt>
      <trkpt lat="38.3728130" lon="-0.6719780">
        <ele>332.1</ele>
        <time>2017-12-18T14:08:36Z</time>
      </trkpt>
      <trkpt lat="38.3728230" lon="-0.6719560">
        <ele>332.1</ele>
        <time>2017-12-18T14:08:37Z</time>
      </trkpt>
      <trkpt lat="38.3728300" lon="-0.6719360">
        <ele>332.1</ele>
        <time>2017-12-18T14:08:38Z</time>
      </trkpt>
      <trkpt lat="38.3728390" lon="-0.6719140">
        <ele>332.1</ele>
        <time>2017-12-18T14:08:39Z</time>
      </trkpt>
      <trkpt lat="38.3728500" lon="-0.6718950">
        <ele>332.1</ele>
        <time>2017-12-18T14:08:40Z</time>
      </trkpt>
      <trkpt lat="38.3728600" lon="-0.6718730">
        <ele>332.1</ele>
        <time>2017-12-18T14:08:41Z</time>
      </trkpt>
      <trkpt lat="38.3728690" lon="-0.6718530">
        <ele>332.1</ele>
        <time>2017-12-18T14:08:42Z</time>
      </trkpt>
      <trkpt lat="38.3728790" lon="-0.6718320">
        <ele>332.1</ele>
        <time>2017-12-18T14:08:43Z</time>
      </trkpt>
      <trkpt lat="38.3728890" lon="-0.6718100">
        <ele>335.1</ele>
        <time>2017-12-18T14:08:44Z</time>
      </trkpt>
      <trkpt lat="38.3728980" lon="-0.6717880">
        <ele>335.1</ele>
        <time>2017-12-18T14:08:45Z</time>
      </trkpt>
      <trkpt lat="38.3729050" lon="-0.6717660">
        <ele>335.1</ele>
        <time>2017-12-18T14:08:46Z</time>
      </trkpt>
      <trkpt lat="38.3729130" lon="-0.6717470">
        <ele>335.1</ele>
        <time>2017-12-18T14:08:47Z</time>
      </trkpt>
      <trkpt lat="38.3729220" lon="-0.6717280">
        <ele>336.2</ele>
        <time>2017-12-18T14:08:48Z</time>
      </trkpt>
      <trkpt lat="38.3729320" lon="-0.6717060">
        <ele>336.2</ele>
        <time>2017-12-18T14:08:49Z</time>
      </trkpt>
      <trkpt lat="38.3729430" lon="-0.6716860">
        <ele>336.2</ele>
        <time>2017-12-18T14:08:50Z</time>
      </trkpt>
      <trkpt lat="38.3729510" lon="-0.6716660">
        <ele>336.2</ele>
        <time>2017-12-18T14:08:51Z</time>
      </trkpt>
      <trkpt lat="38.3729620" lon="-0.6716490">
        <ele>336.2</ele>
        <time>2017-12-18T14:08:52Z</time>
      </trkpt>
      <trkpt lat="38.3729720" lon="-0.6716310">
        <ele>336.2</ele>
        <time>2017-12-18T14:08:53Z</time>
      </trkpt>
      <trkpt lat="38.3729820" lon="-0.6716120">
        <ele>337.1</ele>
        <time>2017-12-18T14:08:54Z</time>
      </trkpt>
      <trkpt lat="38.3729910" lon="-0.6715940">
        <ele>337.1</ele>
        <time>2017-12-18T14:08:55Z</time>
      </trkpt>
      <trkpt lat="38.3729980" lon="-0.6715760">
        <ele>338.2</ele>
        <time>2017-12-18T14:08:56Z</time>
      </trkpt>
      <trkpt lat="38.3730080" lon="-0.6715540">
        <ele>338.2</ele>
        <time>2017-12-18T14:08:57Z</time>
      </trkpt>
      <trkpt lat="38.3730190" lon="-0.6715410">
        <ele>338.2</ele>
        <time>2017-12-18T14:08:58Z</time>
      </trkpt>
      <trkpt lat="38.3730290" lon="-0.6715250">
        <ele>338.2</ele>
        <time>2017-12-18T14:08:59Z</time>
      </trkpt>
      <trkpt lat="38.3730330" lon="-0.6715080">
        <ele>339.1</ele>
        <time>2017-12-18T14:09:00Z</time>
      </trkpt>
      <trkpt lat="38.3730360" lon="-0.6714950">
        <ele>339.1</ele>
        <time>2017-12-18T14:09:01Z</time>
      </trkpt>
      <trkpt lat="38.3730430" lon="-0.6714800">
        <ele>339.1</ele>
        <time>2017-12-18T14:09:02Z</time>
      </trkpt>
      <trkpt lat="38.3730500" lon="-0.6714670">
        <ele>339.1</ele>
        <time>2017-12-18T14:09:03Z</time>
      </trkpt>
      <trkpt lat="38.3730590" lon="-0.6714530">
        <ele>340.2</ele>
        <time>2017-12-18T14:09:04Z</time>
      </trkpt>
      <trkpt lat="38.3730660" lon="-0.6714380">
        <ele>340.2</ele>
        <time>2017-12-18T14:09:05Z</time>
      </trkpt>
      <trkpt lat="38.3730750" lon="-0.6714240">
        <ele>340.2</ele>
        <time>2017-12-18T14:09:06Z</time>
      </trkpt>
      <trkpt lat="38.3730810" lon="-0.6714090">
        <ele>340.2</ele>
        <time>2017-12-18T14:09:07Z</time>
      </trkpt>
      <trkpt lat="38.3730870" lon="-0.6713930">
        <ele>341.1</ele>
        <time>2017-12-18T14:09:08Z</time>
      </trkpt>
      <trkpt lat="38.3730910" lon="-0.6713770">
        <ele>341.1</ele>
        <time>2017-12-18T14:09:09Z</time>
      </trkpt>
      <trkpt lat="38.3730940" lon="-0.6713600">
        <ele>341.1</ele>
        <time>2017-12-18T14:09:10Z</time>
      </trkpt>
      <trkpt lat="38.3731020" lon="-0.6713460">
        <ele>341.1</ele>
        <time>2017-12-18T14:09:11Z</time>
      </trkpt>
      <trkpt lat="38.3731110" lon="-0.6713330">
        <ele>342.1</ele>
        <time>2017-12-18T14:09:12Z</time>
      </trkpt>
      <trkpt lat="38.3731190" lon="-0.6713190">
        <ele>342.1</ele>
        <time>2017-12-18T14:09:13Z</time>
      </trkpt>
      <trkpt lat="38.3731280" lon="-0.6713060">
        <ele>342.1</ele>
        <time>2017-12-18T14:09:14Z</time>
      </trkpt>
      <trkpt lat="38.3731360" lon="-0.6712930">
        <ele>342.1</ele>
        <time>2017-12-18T14:09:15Z</time>
      </trkpt>
      <trkpt lat="38.3731430" lon="-0.6712770">
        <ele>343.2</ele>
        <time>2017-12-18T14:09:16Z</time>
      </trkpt>
      <trkpt lat="38.3731490" lon="-0.6712620">
        <ele>343.2</ele>
        <time>2017-12-18T14:09:17Z</time>
      </trkpt>
      <trkpt lat="38.3731560" lon="-0.6712460">
        <ele>343.2</ele>
        <time>2017-12-18T14:09:18Z</time>
      </trkpt>
      <trkpt lat="38.3731630" lon="-0.6712300">
        <ele>343.2</ele>
        <time>2017-12-18T14:09:19Z</time>
      </trkpt>
      <trkpt lat="38.3731700" lon="-0.6712150">
        <ele>343.2</ele>
        <time>2017-12-18T14:09:20Z</time>
      </trkpt>
      <trkpt lat="38.3731790" lon="-0.6712000">
        <ele>343.2</ele>
        <time>2017-12-18T14:09:21Z</time>
      </trkpt>
      <trkpt lat="38.3731860" lon="-0.6711850">
        <ele>344.1</ele>
        <time>2017-12-18T14:09:22Z</time>
      </trkpt>
      <trkpt lat="38.3731940" lon="-0.6711710">
        <ele>344.1</ele>
        <time>2017-12-18T14:09:23Z</time>
      </trkpt>
      <trkpt lat="38.3732030" lon="-0.6711570">
        <ele>345.2</ele>
        <time>2017-12-18T14:09:24Z</time>
      </trkpt>
      <trkpt lat="38.3732110" lon="-0.6711440">
        <ele>345.2</ele>
        <time>2017-12-18T14:09:25Z</time>
      </trkpt>
      <trkpt lat="38.3732190" lon="-0.6711310">
        <ele>345.2</ele>
        <time>2017-12-18T14:09:26Z</time>
      </trkpt>
      <trkpt lat="38.3732270" lon="-0.6711190">
        <ele>345.2</ele>
        <time>2017-12-18T14:09:27Z</time>
      </trkpt>
      <trkpt lat="38.3732360" lon="-0.6711050">
        <ele>346.1</ele>
        <time>2017-12-18T14:09:28Z</time>
      </trkpt>
      <trkpt lat="38.3732430" lon="-0.6710940">
        <ele>346.1</ele>
        <time>2017-12-18T14:09:29Z</time>
      </trkpt>
      <trkpt lat="38.3732520" lon="-0.6710840">
        <ele>347.2</ele>
        <time>2017-12-18T14:09:30Z</time>
      </trkpt>
      <trkpt lat="38.3732580" lon="-0.6710720">
        <ele>347.2</ele>
        <time>2017-12-18T14:09:31Z</time>
      </trkpt>
      <trkpt lat="38.3732640" lon="-0.6710590">
        <ele>347.2</ele>
        <time>2017-12-18T14:09:32Z</time>
      </trkpt>
      <trkpt lat="38.3732720" lon="-0.6710470">
        <ele>347.2</ele>
        <time>2017-12-18T14:09:33Z</time>
      </trkpt>
      <trkpt lat="38.3732790" lon="-0.6710360">
        <ele>347.2</ele>
        <time>2017-12-18T14:09:34Z</time>
      </trkpt>
      <trkpt lat="38.3732860" lon="-0.6710230">
        <ele>347.2</ele>
        <time>2017-12-18T14:09:35Z</time>
      </trkpt>
      <trkpt lat="38.3732930" lon="-0.6710110">
        <ele>348.1</ele>
        <time>2017-12-18T14:09:36Z</time>
      </trkpt>
      <trkpt lat="38.3732990" lon="-0.6709980">
        <ele>348.1</ele>
        <time>2017-12-18T14:09:37Z</time>
      </trkpt>
      <trkpt lat="38.3733060" lon="-0.6709840">
        <ele>349.2</ele>
        <time>2017-12-18T14:09:38Z</time>
      </trkpt>
      <trkpt lat="38.3733110" lon="-0.6709700">
        <ele>349.2</ele>
        <time>2017-12-18T14:09:39Z</time>
      </trkpt>
      <trkpt lat="38.3733160" lon="-0.6709570">
        <ele>349.2</ele>
        <time>2017-12-18T14:09:40Z</time>
      </trkpt>
      <trkpt lat="38.3733220" lon="-0.6709430">
        <ele>349.2</ele>
        <time>2017-12-18T14:09:41Z</time>
      </trkpt>
      <trkpt lat="38.3733300" lon="-0.6709290">
        <ele>349.2</ele>
        <time>2017-12-18T14:09:42Z</time>
      </trkpt>
      <trkpt lat="38.3733370" lon="-0.6709140">
        <ele>349.2</ele>
        <time>2017-12-18T14:09:43Z</time>
      </trkpt>
      <trkpt lat="38.3733460" lon="-0.6709000">
        <ele>349.2</ele>
        <time>2017-12-18T14:09:44Z</time>
      </trkpt>
      <trkpt lat="38.3733540" lon="-0.6708860">
        <ele>349.2</ele>
        <time>2017-12-18T14:09:45Z</time>
      </trkpt>
      <trkpt lat="38.3733620" lon="-0.6708720">
        <ele>349.2</ele>
        <time>2017-12-18T14:09:46Z</time>
      </trkpt>
      <trkpt lat="38.3733690" lon="-0.6708580">
        <ele>349.2</ele>
        <time>2017-12-18T14:09:47Z</time>
      </trkpt>
      <trkpt lat="38.3733750" lon="-0.6708420">
        <ele>349.2</ele>
        <time>2017-12-18T14:09:48Z</time>
      </trkpt>
      <trkpt lat="38.3733820" lon="-0.6708280">
        <ele>349.2</ele>
        <time>2017-12-18T14:09:49Z</time>
      </trkpt>
      <trkpt lat="38.3733900" lon="-0.6708150">
        <ele>352.2</ele>
        <time>2017-12-18T14:09:50Z</time>
      </trkpt>
      <trkpt lat="38.3733960" lon="-0.6708020">
        <ele>352.2</ele>
        <time>2017-12-18T14:09:51Z</time>
      </trkpt>
      <trkpt lat="38.3734030" lon="-0.6707890">
        <ele>352.2</ele>
        <time>2017-12-18T14:09:52Z</time>
      </trkpt>
      <trkpt lat="38.3734100" lon="-0.6707780">
        <ele>352.2</ele>
        <time>2017-12-18T14:09:53Z</time>
      </trkpt>
      <trkpt lat="38.3734180" lon="-0.6707670">
        <ele>353.1</ele>
        <time>2017-12-18T14:09:54Z</time>
      </trkpt>
      <trkpt lat="38.3734250" lon="-0.6707540">
        <ele>353.1</ele>
        <time>2017-12-18T14:09:55Z</time>
      </trkpt>
      <trkpt lat="38.3734280" lon="-0.6707400">
        <ele>354.2</ele>
        <time>2017-12-18T14:09:56Z</time>
      </trkpt>
      <trkpt lat="38.3734300" lon="-0.6707260">
        <ele>354.2</ele>
        <time>2017-12-18T14:09:57Z</time>
      </trkpt>
      <trkpt lat="38.3734320" lon="-0.6707120">
        <ele>354.2</ele>
        <time>2017-12-18T14:09:58Z</time>
      </trkpt>
      <trkpt lat="38.3734370" lon="-0.6706990">
        <ele>354.2</ele>
        <time>2017-12-18T14:09:59Z</time>
      </trkpt>
      <trkpt lat="38.3734450" lon="-0.6706860">
        <ele>355.1</ele>
        <time>2017-12-18T14:10:00Z</time>
      </trkpt>
      <trkpt lat="38.3734530" lon="-0.6706750">
        <ele>355.1</ele>
        <time>2017-12-18T14:10:01Z</time>
      </trkpt>
      <trkpt lat="38.3734600" lon="-0.6706640">
        <ele>356.2</ele>
        <time>2017-12-18T14:10:02Z</time>
      </trkpt>
      <trkpt lat="38.3734640" lon="-0.6706520">
        <ele>356.2</ele>
        <time>2017-12-18T14:10:03Z</time>
      </trkpt>
      <trkpt lat="38.3734700" lon="-0.6706410">
        <ele>356.2</ele>
        <time>2017-12-18T14:10:04Z</time>
      </trkpt>
      <trkpt lat="38.3734760" lon="-0.6706280">
        <ele>356.2</ele>
        <time>2017-12-18T14:10:05Z</time>
      </trkpt>
      <trkpt lat="38.3734820" lon="-0.6706160">
        <ele>357.1</ele>
        <time>2017-12-18T14:10:06Z</time>
      </trkpt>
      <trkpt lat="38.3734880" lon="-0.6706050">
        <ele>357.1</ele>
        <time>2017-12-18T14:10:07Z</time>
      </trkpt>
      <trkpt lat="38.3734920" lon="-0.6705930">
        <ele>357.1</ele>
        <time>2017-12-18T14:10:08Z</time>
      </trkpt>
      <trkpt lat="38.3734980" lon="-0.6705800">
        <ele>357.1</ele>
        <time>2017-12-18T14:10:09Z</time>
      </trkpt>
      <trkpt lat="38.3735030" lon="-0.6705680">
        <ele>358.1</ele>
        <time>2017-12-18T14:10:10Z</time>
      </trkpt>
      <trkpt lat="38.3735100" lon="-0.6705570">
        <ele>358.1</ele>
        <time>2017-12-18T14:10:11Z</time>
      </trkpt>
      <trkpt lat="38.3735180" lon="-0.6705460">
        <ele>358.1</ele>
        <time>2017-12-18T14:10:12Z</time>
      </trkpt>
      <trkpt lat="38.3735240" lon="-0.6705350">
        <ele>358.1</ele>
        <time>2017-12-18T14:10:13Z</time>
      </trkpt>
      <trkpt lat="38.3735290" lon="-0.6705230">
        <ele>359.2</ele>
        <time>2017-12-18T14:10:14Z</time>
      </trkpt>
      <trkpt lat="38.3735360" lon="-0.6705110">
        <ele>359.2</ele>
        <time>2017-12-18T14:10:15Z</time>
      </trkpt>
      <trkpt lat="38.3735420" lon="-0.6704990">
        <ele>359.2</ele>
        <time>2017-12-18T14:10:16Z</time>
      </trkpt>
      <trkpt lat="38.3735470" lon="-0.6704870">
        <ele>359.2</ele>
        <time>2017-12-18T14:10:17Z</time>
      </trkpt>
      <trkpt lat="38.3735520" lon="-0.6704740">
        <ele>359.2</ele>
        <time>2017-12-18T14:10:18Z</time>
      </trkpt>
      <trkpt lat="38.3735560" lon="-0.6704600">
        <ele>359.2</ele>
        <time>2017-12-18T14:10:19Z</time>
      </trkpt>
      <trkpt lat="38.3735630" lon="-0.6704480">
        <ele>359.2</ele>
        <time>2017-12-18T14:10:20Z</time>
      </trkpt>
      <trkpt lat="38.3735690" lon="-0.6704380">
        <ele>359.2</ele>
        <time>2017-12-18T14:10:21Z</time>
      </trkpt>
      <trkpt lat="38.3735750" lon="-0.6704260">
        <ele>359.2</ele>
        <time>2017-12-18T14:10:22Z</time>
      </trkpt>
      <trkpt lat="38.3735800" lon="-0.6704140">
        <ele>359.2</ele>
        <time>2017-12-18T14:10:23Z</time>
      </trkpt>
      <trkpt lat="38.3735840" lon="-0.6704000">
        <ele>359.2</ele>
        <time>2017-12-18T14:10:24Z</time>
      </trkpt>
      <trkpt lat="38.3735880" lon="-0.6703890">
        <ele>359.2</ele>
        <time>2017-12-18T14:10:25Z</time>
      </trkpt>
      <trkpt lat="38.3735910" lon="-0.6703750">
        <ele>362.1</ele>
        <time>2017-12-18T14:10:26Z</time>
      </trkpt>
      <trkpt lat="38.3735950" lon="-0.6703600">
        <ele>362.1</ele>
        <time>2017-12-18T14:10:27Z</time>
      </trkpt>
      <trkpt lat="38.3735960" lon="-0.6703460">
        <ele>362.1</ele>
        <time>2017-12-18T14:10:28Z</time>
      </trkpt>
      <trkpt lat="38.3735990" lon="-0.6703310">
        <ele>362.1</ele>
        <time>2017-12-18T14:10:29Z</time>
      </trkpt>
      <trkpt lat="38.3736020" lon="-0.6703170">
        <ele>362.1</ele>
        <time>2017-12-18T14:10:30Z</time>
      </trkpt>
      <trkpt lat="38.3736020" lon="-0.6703020">
        <ele>362.1</ele>
        <time>2017-12-18T14:10:31Z</time>
      </trkpt>
      <trkpt lat="38.3736020" lon="-0.6702870">
        <ele>363.2</ele>
        <time>2017-12-18T14:10:32Z</time>
      </trkpt>
      <trkpt lat="38.3736010" lon="-0.6702720">
        <ele>363.2</ele>
        <time>2017-12-18T14:10:33Z</time>
      </trkpt>
      <trkpt lat="38.3735980" lon="-0.6702560">
        <ele>363.2</ele>
        <time>2017-12-18T14:10:34Z</time>
      </trkpt>
      <trkpt lat="38.3735940" lon="-0.6702390">
        <ele>363.2</ele>
        <time>2017-12-18T14:10:35Z</time>
      </trkpt>
      <trkpt lat="38.3735890" lon="-0.6702230">
        <ele>363.2</ele>
        <time>2017-12-18T14:10:36Z</time>
      </trkpt>
      <trkpt lat="38.3735830" lon="-0.6702080">
        <ele>363.2</ele>
        <time>2017-12-18T14:10:37Z</time>
      </trkpt>
      <trkpt lat="38.3735750" lon="-0.6701920">
        <ele>363.2</ele>
        <time>2017-12-18T14:10:38Z</time>
      </trkpt>
      <trkpt lat="38.3735660" lon="-0.6701720">
        <ele>363.2</ele>
        <time>2017-12-18T14:10:39Z</time>
      </trkpt>
      <trkpt lat="38.3735560" lon="-0.6701280">
        <ele>363.2</ele>
        <time>2017-12-18T14:10:40Z</time>
      </trkpt>
      <trkpt lat="38.3735490" lon="-0.6700600">
        <ele>363.2</ele>
        <time>2017-12-18T14:10:41Z</time>
      </trkpt>
      <trkpt lat="38.3735490" lon="-0.6699730">
        <ele>362.1</ele>
        <time>2017-12-18T14:10:42Z</time>
      </trkpt>
      <trkpt lat="38.3735590" lon="-0.6698640">
        <ele>362.1</ele>
        <time>2017-12-18T14:10:43Z</time>
      </trkpt>
      <trkpt lat="38.3735740" lon="-0.6697480">
        <ele>359.2</ele>
        <time>2017-12-18T14:10:44Z</time>
      </trkpt>
      <trkpt lat="38.3735910" lon="-0.6696320">
        <ele>359.2</ele>
        <time>2017-12-18T14:10:45Z</time>
      </trkpt>
      <trkpt lat="38.3736040" lon="-0.6695210">
        <ele>357.1</ele>
        <time>2017-12-18T14:10:46Z</time>
      </trkpt>
      <trkpt lat="38.3736060" lon="-0.6694220">
        <ele>357.1</ele>
        <time>2017-12-18T14:10:47Z</time>
      </trkpt>
      <trkpt lat="38.3735870" lon="-0.6693300">
        <ele>357.1</ele>
        <time>2017-12-18T14:10:48Z</time>
      </trkpt>
      <trkpt lat="38.3735530" lon="-0.6692710">
        <ele>357.1</ele>
        <time>2017-12-18T14:10:49Z</time>
      </trkpt>
      <trkpt lat="38.3735290" lon="-0.6692180">
        <ele>357.1</ele>
        <time>2017-12-18T14:10:50Z</time>
      </trkpt>
      <trkpt lat="38.3735120" lon="-0.6691670">
        <ele>357.1</ele>
        <time>2017-12-18T14:10:51Z</time>
      </trkpt>
      <trkpt lat="38.3734980" lon="-0.6691190">
        <ele>357.1</ele>
        <time>2017-12-18T14:10:52Z</time>
      </trkpt>
      <trkpt lat="38.3734890" lon="-0.6690780">
        <ele>357.1</ele>
        <time>2017-12-18T14:10:53Z</time>
      </trkpt>
      <trkpt lat="38.3734790" lon="-0.6690410">
        <ele>358.1</ele>
        <time>2017-12-18T14:10:54Z</time>
      </trkpt>
      <trkpt lat="38.3734690" lon="-0.6690090">
        <ele>358.1</ele>
        <time>2017-12-18T14:10:55Z</time>
      </trkpt>
      <trkpt lat="38.3734600" lon="-0.6689770">
        <ele>359.2</ele>
        <time>2017-12-18T14:10:56Z</time>
      </trkpt>
      <trkpt lat="38.3734550" lon="-0.6689480">
        <ele>359.2</ele>
        <time>2017-12-18T14:10:57Z</time>
      </trkpt>
      <trkpt lat="38.3734500" lon="-0.6689210">
        <ele>359.2</ele>
        <time>2017-12-18T14:10:58Z</time>
      </trkpt>
      <trkpt lat="38.3734470" lon="-0.6688970">
        <ele>359.2</ele>
        <time>2017-12-18T14:10:59Z</time>
      </trkpt>
      <trkpt lat="38.3734460" lon="-0.6688700">
        <ele>359.2</ele>
        <time>2017-12-18T14:11:00Z</time>
      </trkpt>
      <trkpt lat="38.3734470" lon="-0.6688400">
        <ele>359.2</ele>
        <time>2017-12-18T14:11:01Z</time>
      </trkpt>
      <trkpt lat="38.3734480" lon="-0.6688110">
        <ele>362.1</ele>
        <time>2017-12-18T14:11:02Z</time>
      </trkpt>
      <trkpt lat="38.3734500" lon="-0.6687840">
        <ele>362.1</ele>
        <time>2017-12-18T14:11:03Z</time>
      </trkpt>
      <trkpt lat="38.3734500" lon="-0.6687610">
        <ele>363.2</ele>
        <time>2017-12-18T14:11:04Z</time>
      </trkpt>
      <trkpt lat="38.3734530" lon="-0.6687390">
        <ele>363.2</ele>
        <time>2017-12-18T14:11:05Z</time>
      </trkpt>
      <trkpt lat="38.3734510" lon="-0.6687170">
        <ele>363.2</ele>
        <time>2017-12-18T14:11:06Z</time>
      </trkpt>
      <trkpt lat="38.3734440" lon="-0.6686980">
        <ele>363.2</ele>
        <time>2017-12-18T14:11:07Z</time>
      </trkpt>
      <trkpt lat="38.3734320" lon="-0.6686760">
        <ele>364.1</ele>
        <time>2017-12-18T14:11:08Z</time>
      </trkpt>
      <trkpt lat="38.3734190" lon="-0.6686510">
        <ele>364.1</ele>
        <time>2017-12-18T14:11:09Z</time>
      </trkpt>
      <trkpt lat="38.3734130" lon="-0.6686220">
        <ele>364.1</ele>
        <time>2017-12-18T14:11:10Z</time>
      </trkpt>
      <trkpt lat="38.3734130" lon="-0.6685930">
        <ele>364.1</ele>
        <time>2017-12-18T14:11:11Z</time>
      </trkpt>
      <trkpt lat="38.3734170" lon="-0.6685600">
        <ele>364.1</ele>
        <time>2017-12-18T14:11:12Z</time>
      </trkpt>
      <trkpt lat="38.3734190" lon="-0.6685240">
        <ele>364.1</ele>
        <time>2017-12-18T14:11:13Z</time>
      </trkpt>
      <trkpt lat="38.3734140" lon="-0.6684840">
        <ele>364.1</ele>
        <time>2017-12-18T14:11:14Z</time>
      </trkpt>
      <trkpt lat="38.3733970" lon="-0.6684400">
        <ele>364.1</ele>
        <time>2017-12-18T14:11:15Z</time>
      </trkpt>
      <trkpt lat="38.3733660" lon="-0.6683930">
        <ele>364.1</ele>
        <time>2017-12-18T14:11:16Z</time>
      </trkpt>
      <trkpt lat="38.3733330" lon="-0.6683290">
        <ele>364.1</ele>
        <time>2017-12-18T14:11:17Z</time>
      </trkpt>
      <trkpt lat="38.3733080" lon="-0.6682330">
        <ele>362.1</ele>
        <time>2017-12-18T14:11:18Z</time>
      </trkpt>
      <trkpt lat="38.3732870" lon="-0.6681270">
        <ele>362.1</ele>
        <time>2017-12-18T14:11:19Z</time>
      </trkpt>
      <trkpt lat="38.3732720" lon="-0.6680030">
        <ele>358.1</ele>
        <time>2017-12-18T14:11:20Z</time>
      </trkpt>
      <trkpt lat="38.3732570" lon="-0.6678760">
        <ele>358.1</ele>
        <time>2017-12-18T14:11:21Z</time>
      </trkpt>
      <trkpt lat="38.3732380" lon="-0.6677490">
        <ele>355.1</ele>
        <time>2017-12-18T14:11:22Z</time>
      </trkpt>
      <trkpt lat="38.3732130" lon="-0.6676390">
        <ele>355.1</ele>
        <time>2017-12-18T14:11:23Z</time>
      </trkpt>
      <trkpt lat="38.3731890" lon="-0.6675540">
        <ele>355.1</ele>
        <time>2017-12-18T14:11:24Z</time>
      </trkpt>
      <trkpt lat="38.3731850" lon="-0.6674820">
        <ele>356.2</ele>
        <time>2017-12-18T14:11:25Z</time>
      </trkpt>
      <trkpt lat="38.3731980" lon="-0.6674190">
        <ele>356.2</ele>
        <time>2017-12-18T14:11:26Z</time>
      </trkpt>
      <trkpt lat="38.3732260" lon="-0.6673700">
        <ele>356.2</ele>
        <time>2017-12-18T14:11:27Z</time>
      </trkpt>
      <trkpt lat="38.3732580" lon="-0.6673220">
        <ele>356.2</ele>
        <time>2017-12-18T14:11:28Z</time>
      </trkpt>
      <trkpt lat="38.3732960" lon="-0.6672750">
        <ele>356.2</ele>
        <time>2017-12-18T14:11:29Z</time>
      </trkpt>
      <trkpt lat="38.3733340" lon="-0.6672240">
        <ele>356.2</ele>
        <time>2017-12-18T14:11:30Z</time>
      </trkpt>
      <trkpt lat="38.3733710" lon="-0.6671690">
        <ele>356.2</ele>
        <time>2017-12-18T14:11:31Z</time>
      </trkpt>
      <trkpt lat="38.3734120" lon="-0.6671200">
        <ele>356.2</ele>
        <time>2017-12-18T14:11:32Z</time>
      </trkpt>
      <trkpt lat="38.3734550" lon="-0.6670760">
        <ele>356.2</ele>
        <time>2017-12-18T14:11:33Z</time>
      </trkpt>
      <trkpt lat="38.3735050" lon="-0.6670380">
        <ele>356.2</ele>
        <time>2017-12-18T14:11:34Z</time>
      </trkpt>
      <trkpt lat="38.3735520" lon="-0.6669970">
        <ele>357.1</ele>
        <time>2017-12-18T14:11:35Z</time>
      </trkpt>
      <trkpt lat="38.3735980" lon="-0.6669520">
        <ele>357.1</ele>
        <time>2017-12-18T14:11:36Z</time>
      </trkpt>
      <trkpt lat="38.3736440" lon="-0.6669050">
        <ele>357.1</ele>
        <time>2017-12-18T14:11:37Z</time>
      </trkpt>
      <trkpt lat="38.3736880" lon="-0.6668530">
        <ele>357.1</ele>
        <time>2017-12-18T14:11:38Z</time>
      </trkpt>
      <trkpt lat="38.3737320" lon="-0.6667970">
        <ele>357.1</ele>
        <time>2017-12-18T14:11:39Z</time>
      </trkpt>
      <trkpt lat="38.3737780" lon="-0.6667430">
        <ele>357.1</ele>
        <time>2017-12-18T14:11:40Z</time>
      </trkpt>
      <trkpt lat="38.3738270" lon="-0.6666930">
        <ele>357.1</ele>
        <time>2017-12-18T14:11:41Z</time>
      </trkpt>
      <trkpt lat="38.3738800" lon="-0.6666500">
        <ele>357.1</ele>
        <time>2017-12-18T14:11:42Z</time>
      </trkpt>
      <trkpt lat="38.3739390" lon="-0.6666280">
        <ele>357.1</ele>
        <time>2017-12-18T14:11:43Z</time>
      </trkpt>
      <trkpt lat="38.3739970" lon="-0.6666140">
        <ele>357.1</ele>
        <time>2017-12-18T14:11:44Z</time>
      </trkpt>
      <trkpt lat="38.3740540" lon="-0.6665980">
        <ele>357.1</ele>
        <time>2017-12-18T14:11:45Z</time>
      </trkpt>
      <trkpt lat="38.3741110" lon="-0.6665820">
        <ele>357.1</ele>
        <time>2017-12-18T14:11:46Z</time>
      </trkpt>
      <trkpt lat="38.3741670" lon="-0.6665700">
        <ele>358.1</ele>
        <time>2017-12-18T14:11:47Z</time>
      </trkpt>
      <trkpt lat="38.3742210" lon="-0.6665570">
        <ele>358.1</ele>
        <time>2017-12-18T14:11:48Z</time>
      </trkpt>
      <trkpt lat="38.3742730" lon="-0.6665450">
        <ele>358.1</ele>
        <time>2017-12-18T14:11:49Z</time>
      </trkpt>
      <trkpt lat="38.3743220" lon="-0.6665330">
        <ele>358.1</ele>
        <time>2017-12-18T14:11:50Z</time>
      </trkpt>
      <trkpt lat="38.3743710" lon="-0.6665210">
        <ele>358.1</ele>
        <time>2017-12-18T14:11:51Z</time>
      </trkpt>
      <trkpt lat="38.3744170" lon="-0.6665090">
        <ele>358.1</ele>
        <time>2017-12-18T14:11:52Z</time>
      </trkpt>
      <trkpt lat="38.3744630" lon="-0.6664850">
        <ele>358.1</ele>
        <time>2017-12-18T14:11:53Z</time>
      </trkpt>
      <trkpt lat="38.3744990" lon="-0.6664470">
        <ele>358.1</ele>
        <time>2017-12-18T14:11:54Z</time>
      </trkpt>
      <trkpt lat="38.3745210" lon="-0.6663840">
        <ele>359.2</ele>
        <time>2017-12-18T14:11:55Z</time>
      </trkpt>
      <trkpt lat="38.3745230" lon="-0.6663260">
        <ele>359.2</ele>
        <time>2017-12-18T14:11:56Z</time>
      </trkpt>
      <trkpt lat="38.3745160" lon="-0.6662630">
        <ele>359.2</ele>
        <time>2017-12-18T14:11:57Z</time>
      </trkpt>
      <trkpt lat="38.3745000" lon="-0.6662020">
        <ele>359.2</ele>
        <time>2017-12-18T14:11:58Z</time>
      </trkpt>
      <trkpt lat="38.3744770" lon="-0.6661450">
        <ele>360.1</ele>
        <time>2017-12-18T14:11:59Z</time>
      </trkpt>
      <trkpt lat="38.3744640" lon="-0.6660800">
        <ele>360.1</ele>
        <time>2017-12-18T14:12:00Z</time>
      </trkpt>
      <trkpt lat="38.3744630" lon="-0.6660170">
        <ele>360.1</ele>
        <time>2017-12-18T14:12:01Z</time>
      </trkpt>
      <trkpt lat="38.3744800" lon="-0.6659590">
        <ele>360.1</ele>
        <time>2017-12-18T14:12:02Z</time>
      </trkpt>
      <trkpt lat="38.3744980" lon="-0.6658920">
        <ele>360.1</ele>
        <time>2017-12-18T14:12:03Z</time>
      </trkpt>
      <trkpt lat="38.3745200" lon="-0.6658280">
        <ele>360.1</ele>
        <time>2017-12-18T14:12:04Z</time>
      </trkpt>
      <trkpt lat="38.3745430" lon="-0.6657640">
        <ele>360.1</ele>
        <time>2017-12-18T14:12:05Z</time>
      </trkpt>
      <trkpt lat="38.3745670" lon="-0.6656980">
        <ele>360.1</ele>
        <time>2017-12-18T14:12:06Z</time>
      </trkpt>
      <trkpt lat="38.3745970" lon="-0.6656330">
        <ele>360.1</ele>
        <time>2017-12-18T14:12:07Z</time>
      </trkpt>
      <trkpt lat="38.3746330" lon="-0.6655730">
        <ele>360.1</ele>
        <time>2017-12-18T14:12:08Z</time>
      </trkpt>
      <trkpt lat="38.3746760" lon="-0.6655170">
        <ele>360.1</ele>
        <time>2017-12-18T14:12:09Z</time>
      </trkpt>
      <trkpt lat="38.3747280" lon="-0.6654720">
        <ele>360.1</ele>
        <time>2017-12-18T14:12:10Z</time>
      </trkpt>
      <trkpt lat="38.3747840" lon="-0.6654330">
        <ele>360.1</ele>
        <time>2017-12-18T14:12:11Z</time>
      </trkpt>
      <trkpt lat="38.3748420" lon="-0.6654030">
        <ele>360.1</ele>
        <time>2017-12-18T14:12:12Z</time>
      </trkpt>
      <trkpt lat="38.3749030" lon="-0.6654050">
        <ele>360.1</ele>
        <time>2017-12-18T14:12:13Z</time>
      </trkpt>
      <trkpt lat="38.3749560" lon="-0.6654280">
        <ele>361.2</ele>
        <time>2017-12-18T14:12:14Z</time>
      </trkpt>
      <trkpt lat="38.3750120" lon="-0.6654440">
        <ele>361.2</ele>
        <time>2017-12-18T14:12:15Z</time>
      </trkpt>
      <trkpt lat="38.3750730" lon="-0.6654620">
        <ele>361.2</ele>
        <time>2017-12-18T14:12:16Z</time>
      </trkpt>
      <trkpt lat="38.3751350" lon="-0.6654740">
        <ele>361.2</ele>
        <time>2017-12-18T14:12:17Z</time>
      </trkpt>
      <trkpt lat="38.3752030" lon="-0.6654750">
        <ele>361.2</ele>
        <time>2017-12-18T14:12:18Z</time>
      </trkpt>
      <trkpt lat="38.3752680" lon="-0.6654700">
        <ele>361.2</ele>
        <time>2017-12-18T14:12:19Z</time>
      </trkpt>
      <trkpt lat="38.3753360" lon="-0.6654640">
        <ele>361.2</ele>
        <time>2017-12-18T14:12:20Z</time>
      </trkpt>
      <trkpt lat="38.3754050" lon="-0.6654590">
        <ele>361.2</ele>
        <time>2017-12-18T14:12:21Z</time>
      </trkpt>
      <trkpt lat="38.3754730" lon="-0.6654560">
        <ele>361.2</ele>
        <time>2017-12-18T14:12:22Z</time>
      </trkpt>
      <trkpt lat="38.3755410" lon="-0.6654540">
        <ele>361.2</ele>
        <time>2017-12-18T14:12:23Z</time>
      </trkpt>
      <trkpt lat="38.3756100" lon="-0.6654520">
        <ele>360.1</ele>
        <time>2017-12-18T14:12:24Z</time>
      </trkpt>
      <trkpt lat="38.3756790" lon="-0.6654450">
        <ele>360.1</ele>
        <time>2017-12-18T14:12:25Z</time>
      </trkpt>
      <trkpt lat="38.3757460" lon="-0.6654360">
        <ele>360.1</ele>
        <time>2017-12-18T14:12:26Z</time>
      </trkpt>
      <trkpt lat="38.3758130" lon="-0.6654270">
        <ele>360.1</ele>
        <time>2017-12-18T14:12:27Z</time>
      </trkpt>
      <trkpt lat="38.3758770" lon="-0.6654120">
        <ele>360.1</ele>
        <time>2017-12-18T14:12:28Z</time>
      </trkpt>
      <trkpt lat="38.3759380" lon="-0.6653880">
        <ele>360.1</ele>
        <time>2017-12-18T14:12:29Z</time>
      </trkpt>
      <trkpt lat="38.3759930" lon="-0.6653470">
        <ele>360.1</ele>
        <time>2017-12-18T14:12:30Z</time>
      </trkpt>
      <trkpt lat="38.3760430" lon="-0.6652940">
        <ele>360.1</ele>
        <time>2017-12-18T14:12:31Z</time>
      </trkpt>
      <trkpt lat="38.3760850" lon="-0.6652350">
        <ele>360.1</ele>
        <time>2017-12-18T14:12:32Z</time>
      </trkpt>
      <trkpt lat="38.3761330" lon="-0.6651810">
        <ele>360.1</ele>
        <time>2017-12-18T14:12:33Z</time>
      </trkpt>
      <trkpt lat="38.3761850" lon="-0.6651350">
        <ele>360.1</ele>
        <time>2017-12-18T14:12:34Z</time>
      </trkpt>
      <trkpt lat="38.3762390" lon="-0.6650930">
        <ele>360.1</ele>
        <time>2017-12-18T14:12:35Z</time>
      </trkpt>
      <trkpt lat="38.3762990" lon="-0.6650600">
        <ele>361.2</ele>
        <time>2017-12-18T14:12:36Z</time>
      </trkpt>
      <trkpt lat="38.3763590" lon="-0.6650310">
        <ele>361.2</ele>
        <time>2017-12-18T14:12:37Z</time>
      </trkpt>
      <trkpt lat="38.3764200" lon="-0.6650000">
        <ele>361.2</ele>
        <time>2017-12-18T14:12:38Z</time>
      </trkpt>
      <trkpt lat="38.3764840" lon="-0.6649660">
        <ele>361.2</ele>
        <time>2017-12-18T14:12:39Z</time>
      </trkpt>
      <trkpt lat="38.3765510" lon="-0.6649280">
        <ele>361.2</ele>
        <time>2017-12-18T14:12:40Z</time>
      </trkpt>
      <trkpt lat="38.3766170" lon="-0.6648840">
        <ele>361.2</ele>
        <time>2017-12-18T14:12:41Z</time>
      </trkpt>
      <trkpt lat="38.3766830" lon="-0.6648330">
        <ele>361.2</ele>
        <time>2017-12-18T14:12:42Z</time>
      </trkpt>
      <trkpt lat="38.3767480" lon="-0.6647790">
        <ele>361.2</ele>
        <time>2017-12-18T14:12:43Z</time>
      </trkpt>
      <trkpt lat="38.3768120" lon="-0.6647200">
        <ele>361.2</ele>
        <time>2017-12-18T14:12:44Z</time>
      </trkpt>
      <trkpt lat="38.3768690" lon="-0.6646530">
        <ele>361.2</ele>
        <time>2017-12-18T14:12:45Z</time>
      </trkpt>
      <trkpt lat="38.3769240" lon="-0.6645800">
        <ele>361.2</ele>
        <time>2017-12-18T14:12:46Z</time>
      </trkpt>
      <trkpt lat="38.3769650" lon="-0.6644970">
        <ele>361.2</ele>
        <time>2017-12-18T14:12:47Z</time>
      </trkpt>
      <trkpt lat="38.3769930" lon="-0.6644060">
        <ele>360.1</ele>
        <time>2017-12-18T14:12:48Z</time>
      </trkpt>
      <trkpt lat="38.3770210" lon="-0.6643140">
        <ele>360.1</ele>
        <time>2017-12-18T14:12:49Z</time>
      </trkpt>
      <trkpt lat="38.3770490" lon="-0.6642230">
        <ele>360.1</ele>
        <time>2017-12-18T14:12:50Z</time>
      </trkpt>
      <trkpt lat="38.3770770" lon="-0.6641330">
        <ele>360.1</ele>
        <time>2017-12-18T14:12:51Z</time>
      </trkpt>
      <trkpt lat="38.3771040" lon="-0.6640430">
        <ele>360.1</ele>
        <time>2017-12-18T14:12:52Z</time>
      </trkpt>
      <trkpt lat="38.3771370" lon="-0.6639590">
        <ele>360.1</ele>
        <time>2017-12-18T14:12:53Z</time>
      </trkpt>
      <trkpt lat="38.3771780" lon="-0.6638870">
        <ele>360.1</ele>
        <time>2017-12-18T14:12:54Z</time>
      </trkpt>
      <trkpt lat="38.3772230" lon="-0.6638290">
        <ele>360.1</ele>
        <time>2017-12-18T14:12:55Z</time>
      </trkpt>
      <trkpt lat="38.3772880" lon="-0.6637880">
        <ele>360.1</ele>
        <time>2017-12-18T14:12:56Z</time>
      </trkpt>
      <trkpt lat="38.3773370" lon="-0.6637360">
        <ele>360.1</ele>
        <time>2017-12-18T14:12:57Z</time>
      </trkpt>
      <trkpt lat="38.3773600" lon="-0.6636890">
        <ele>360.1</ele>
        <time>2017-12-18T14:12:58Z</time>
      </trkpt>
      <trkpt lat="38.3773810" lon="-0.6636450">
        <ele>360.1</ele>
        <time>2017-12-18T14:12:59Z</time>
      </trkpt>
      <trkpt lat="38.3773980" lon="-0.6635930">
        <ele>360.1</ele>
        <time>2017-12-18T14:13:00Z</time>
      </trkpt>
      <trkpt lat="38.3774070" lon="-0.6635400">
        <ele>360.1</ele>
        <time>2017-12-18T14:13:01Z</time>
      </trkpt>
      <trkpt lat="38.3774110" lon="-0.6634840">
        <ele>360.1</ele>
        <time>2017-12-18T14:13:02Z</time>
      </trkpt>
      <trkpt lat="38.3774110" lon="-0.6634240">
        <ele>360.1</ele>
        <time>2017-12-18T14:13:03Z</time>
      </trkpt>
      <trkpt lat="38.3774080" lon="-0.6633590">
        <ele>360.1</ele>
        <time>2017-12-18T14:13:04Z</time>
      </trkpt>
      <trkpt lat="38.3774010" lon="-0.6632910">
        <ele>360.1</ele>
        <time>2017-12-18T14:13:05Z</time>
      </trkpt>
      <trkpt lat="38.3773950" lon="-0.6632250">
        <ele>360.1</ele>
        <time>2017-12-18T14:13:06Z</time>
      </trkpt>
      <trkpt lat="38.3773910" lon="-0.6631560">
        <ele>360.1</ele>
        <time>2017-12-18T14:13:07Z</time>
      </trkpt>
      <trkpt lat="38.3773890" lon="-0.6630850">
        <ele>360.1</ele>
        <time>2017-12-18T14:13:08Z</time>
      </trkpt>
      <trkpt lat="38.3773870" lon="-0.6630100">
        <ele>360.1</ele>
        <time>2017-12-18T14:13:09Z</time>
      </trkpt>
      <trkpt lat="38.3773860" lon="-0.6629350">
        <ele>360.1</ele>
        <time>2017-12-18T14:13:10Z</time>
      </trkpt>
      <trkpt lat="38.3773830" lon="-0.6628580">
        <ele>360.1</ele>
        <time>2017-12-18T14:13:11Z</time>
      </trkpt>
      <trkpt lat="38.3773780" lon="-0.6627830">
        <ele>360.1</ele>
        <time>2017-12-18T14:13:12Z</time>
      </trkpt>
      <trkpt lat="38.3773690" lon="-0.6627070">
        <ele>360.1</ele>
        <time>2017-12-18T14:13:13Z</time>
      </trkpt>
      <trkpt lat="38.3773500" lon="-0.6626350">
        <ele>360.1</ele>
        <time>2017-12-18T14:13:14Z</time>
      </trkpt>
      <trkpt lat="38.3773250" lon="-0.6625640">
        <ele>360.1</ele>
        <time>2017-12-18T14:13:15Z</time>
      </trkpt>
      <trkpt lat="38.3772990" lon="-0.6624910">
        <ele>360.1</ele>
        <time>2017-12-18T14:13:16Z</time>
      </trkpt>
      <trkpt lat="38.3772720" lon="-0.6624180">
        <ele>360.1</ele>
        <time>2017-12-18T14:13:17Z</time>
      </trkpt>
      <trkpt lat="38.3772470" lon="-0.6623430">
        <ele>360.1</ele>
        <time>2017-12-18T14:13:18Z</time>
      </trkpt>
      <trkpt lat="38.3772330" lon="-0.6622620">
        <ele>360.1</ele>
        <time>2017-12-18T14:13:19Z</time>
      </trkpt>
      <trkpt lat="38.3772370" lon="-0.6621850">
        <ele>360.1</ele>
        <time>2017-12-18T14:13:20Z</time>
      </trkpt>
      <trkpt lat="38.3772390" lon="-0.6621040">
        <ele>360.1</ele>
        <time>2017-12-18T14:13:21Z</time>
      </trkpt>
      <trkpt lat="38.3772390" lon="-0.6620210">
        <ele>360.1</ele>
        <time>2017-12-18T14:13:22Z</time>
      </trkpt>
      <trkpt lat="38.3772340" lon="-0.6619400">
        <ele>360.1</ele>
        <time>2017-12-18T14:13:23Z</time>
      </trkpt>
      <trkpt lat="38.3772330" lon="-0.6618580">
        <ele>360.1</ele>
        <time>2017-12-18T14:13:24Z</time>
      </trkpt>
      <trkpt lat="38.3772370" lon="-0.6617780">
        <ele>360.1</ele>
        <time>2017-12-18T14:13:25Z</time>
      </trkpt>
      <trkpt lat="38.3772560" lon="-0.6617030">
        <ele>360.1</ele>
        <time>2017-12-18T14:13:26Z</time>
      </trkpt>
      <trkpt lat="38.3772660" lon="-0.6616230">
        <ele>360.1</ele>
        <time>2017-12-18T14:13:27Z</time>
      </trkpt>
      <trkpt lat="38.3772690" lon="-0.6615430">
        <ele>360.1</ele>
        <time>2017-12-18T14:13:28Z</time>
      </trkpt>
      <trkpt lat="38.3772670" lon="-0.6614650">
        <ele>360.1</ele>
        <time>2017-12-18T14:13:29Z</time>
      </trkpt>
      <trkpt lat="38.3772530" lon="-0.6613890">
        <ele>360.1</ele>
        <time>2017-12-18T14:13:30Z</time>
      </trkpt>
      <trkpt lat="38.3772250" lon="-0.6613300">
        <ele>360.1</ele>
        <time>2017-12-18T14:13:31Z</time>
      </trkpt>
      <trkpt lat="38.3771850" lon="-0.6612760">
        <ele>360.1</ele>
        <time>2017-12-18T14:13:32Z</time>
      </trkpt>
      <trkpt lat="38.3771470" lon="-0.6612260">
        <ele>360.1</ele>
        <time>2017-12-18T14:13:33Z</time>
      </trkpt>
      <trkpt lat="38.3771090" lon="-0.6611780">
        <ele>360.1</ele>
        <time>2017-12-18T14:13:34Z</time>
      </trkpt>
      <trkpt lat="38.3770830" lon="-0.6611230">
        <ele>360.1</ele>
        <time>2017-12-18T14:13:35Z</time>
      </trkpt>
      <trkpt lat="38.3770780" lon="-0.6610590">
        <ele>360.1</ele>
        <time>2017-12-18T14:13:36Z</time>
      </trkpt>
      <trkpt lat="38.3770880" lon="-0.6609980">
        <ele>360.1</ele>
        <time>2017-12-18T14:13:37Z</time>
      </trkpt>
      <trkpt lat="38.3771130" lon="-0.6609410">
        <ele>360.1</ele>
        <time>2017-12-18T14:13:38Z</time>
      </trkpt>
      <trkpt lat="38.3771400" lon="-0.6608810">
        <ele>360.1</ele>
        <time>2017-12-18T14:13:39Z</time>
      </trkpt>
      <trkpt lat="38.3771710" lon="-0.6608210">
        <ele>360.1</ele>
        <time>2017-12-18T14:13:40Z</time>
      </trkpt>
      <trkpt lat="38.3771950" lon="-0.6607520">
        <ele>360.1</ele>
        <time>2017-12-18T14:13:41Z</time>
      </trkpt>
      <trkpt lat="38.3772070" lon="-0.6606780">
        <ele>360.1</ele>
        <time>2017-12-18T14:13:42Z</time>
      </trkpt>
      <trkpt lat="38.3772080" lon="-0.6606060">
        <ele>360.1</ele>
        <time>2017-12-18T14:13:43Z</time>
      </trkpt>
      <trkpt lat="38.3771990" lon="-0.6605330">
        <ele>360.1</ele>
        <time>2017-12-18T14:13:44Z</time>
      </trkpt>
      <trkpt lat="38.3771790" lon="-0.6604620">
        <ele>360.1</ele>
        <time>2017-12-18T14:13:45Z</time>
      </trkpt>
      <trkpt lat="38.3771560" lon="-0.6603910">
        <ele>360.1</ele>
        <time>2017-12-18T14:13:46Z</time>
      </trkpt>
      <trkpt lat="38.3771370" lon="-0.6603180">
        <ele>360.1</ele>
        <time>2017-12-18T14:13:47Z</time>
      </trkpt>
      <trkpt lat="38.3771190" lon="-0.6602460">
        <ele>360.1</ele>
        <time>2017-12-18T14:13:48Z</time>
      </trkpt>
      <trkpt lat="38.3770980" lon="-0.6601730">
        <ele>360.1</ele>
        <time>2017-12-18T14:13:49Z</time>
      </trkpt>
      <trkpt lat="38.3770780" lon="-0.6600990">
        <ele>360.1</ele>
        <time>2017-12-18T14:13:50Z</time>
      </trkpt>
      <trkpt lat="38.3770700" lon="-0.6600240">
        <ele>360.1</ele>
        <time>2017-12-18T14:13:51Z</time>
      </trkpt>
      <trkpt lat="38.3770830" lon="-0.6599580">
        <ele>360.1</ele>
        <time>2017-12-18T14:13:52Z</time>
      </trkpt>
      <trkpt lat="38.3771080" lon="-0.6598970">
        <ele>360.1</ele>
        <time>2017-12-18T14:13:53Z</time>
      </trkpt>
      <trkpt lat="38.3771340" lon="-0.6598310">
        <ele>360.1</ele>
        <time>2017-12-18T14:13:54Z</time>
      </trkpt>
      <trkpt lat="38.3771630" lon="-0.6597670">
        <ele>360.1</ele>
        <time>2017-12-18T14:13:55Z</time>
      </trkpt>
      <trkpt lat="38.3772000" lon="-0.6597090">
        <ele>360.1</ele>
        <time>2017-12-18T14:13:56Z</time>
      </trkpt>
      <trkpt lat="38.3772360" lon="-0.6596520">
        <ele>360.1</ele>
        <time>2017-12-18T14:13:57Z</time>
      </trkpt>
      <trkpt lat="38.3772600" lon="-0.6595860">
        <ele>360.1</ele>
        <time>2017-12-18T14:13:58Z</time>
      </trkpt>
      <trkpt lat="38.3772780" lon="-0.6595180">
        <ele>360.1</ele>
        <time>2017-12-18T14:13:59Z</time>
      </trkpt>
      <trkpt lat="38.3772950" lon="-0.6594500">
        <ele>360.1</ele>
        <time>2017-12-18T14:14:00Z</time>
      </trkpt>
      <trkpt lat="38.3773070" lon="-0.6593790">
        <ele>360.1</ele>
        <time>2017-12-18T14:14:01Z</time>
      </trkpt>
      <trkpt lat="38.3773130" lon="-0.6593070">
        <ele>360.1</ele>
        <time>2017-12-18T14:14:02Z</time>
      </trkpt>
      <trkpt lat="38.3773090" lon="-0.6592350">
        <ele>360.1</ele>
        <time>2017-12-18T14:14:03Z</time>
      </trkpt>
      <trkpt lat="38.3772950" lon="-0.6591620">
        <ele>360.1</ele>
        <time>2017-12-18T14:14:04Z</time>
      </trkpt>
      <trkpt lat="38.3772710" lon="-0.6590930">
        <ele>360.1</ele>
        <time>2017-12-18T14:14:05Z</time>
      </trkpt>
      <trkpt lat="38.3772370" lon="-0.6590280">
        <ele>359.2</ele>
        <time>2017-12-18T14:14:06Z</time>
      </trkpt>
      <trkpt lat="38.3771970" lon="-0.6589680">
        <ele>359.2</ele>
        <time>2017-12-18T14:14:07Z</time>
      </trkpt>
      <trkpt lat="38.3771560" lon="-0.6589090">
        <ele>359.2</ele>
        <time>2017-12-18T14:14:08Z</time>
      </trkpt>
      <trkpt lat="38.3771240" lon="-0.6588470">
        <ele>359.2</ele>
        <time>2017-12-18T14:14:09Z</time>
      </trkpt>
      <trkpt lat="38.3771060" lon="-0.6587730">
        <ele>359.2</ele>
        <time>2017-12-18T14:14:10Z</time>
      </trkpt>
      <trkpt lat="38.3771080" lon="-0.6587010">
        <ele>359.2</ele>
        <time>2017-12-18T14:14:11Z</time>
      </trkpt>
      <trkpt lat="38.3771170" lon="-0.6586300">
        <ele>359.2</ele>
        <time>2017-12-18T14:14:12Z</time>
      </trkpt>
      <trkpt lat="38.3771270" lon="-0.6585590">
        <ele>359.2</ele>
        <time>2017-12-18T14:14:13Z</time>
      </trkpt>
      <trkpt lat="38.3771370" lon="-0.6584870">
        <ele>359.2</ele>
        <time>2017-12-18T14:14:14Z</time>
      </trkpt>
      <trkpt lat="38.3771500" lon="-0.6584160">
        <ele>359.2</ele>
        <time>2017-12-18T14:14:15Z</time>
      </trkpt>
      <trkpt lat="38.3771640" lon="-0.6583480">
        <ele>359.2</ele>
        <time>2017-12-18T14:14:16Z</time>
      </trkpt>
      <trkpt lat="38.3771760" lon="-0.6582820">
        <ele>359.2</ele>
        <time>2017-12-18T14:14:17Z</time>
      </trkpt>
      <trkpt lat="38.3771790" lon="-0.6582140">
        <ele>360.1</ele>
        <time>2017-12-18T14:14:18Z</time>
      </trkpt>
      <trkpt lat="38.3771760" lon="-0.6581460">
        <ele>360.1</ele>
        <time>2017-12-18T14:14:19Z</time>
      </trkpt>
      <trkpt lat="38.3771650" lon="-0.6580780">
        <ele>360.1</ele>
        <time>2017-12-18T14:14:20Z</time>
      </trkpt>
      <trkpt lat="38.3771520" lon="-0.6580110">
        <ele>360.1</ele>
        <time>2017-12-18T14:14:21Z</time>
      </trkpt>
      <trkpt lat="38.3771380" lon="-0.6579440">
        <ele>360.1</ele>
        <time>2017-12-18T14:14:22Z</time>
      </trkpt>
      <trkpt lat="38.3771250" lon="-0.6578790">
        <ele>360.1</ele>
        <time>2017-12-18T14:14:23Z</time>
      </trkpt>
      <trkpt lat="38.3771160" lon="-0.6578110">
        <ele>360.1</ele>
        <time>2017-12-18T14:14:24Z</time>
      </trkpt>
      <trkpt lat="38.3771020" lon="-0.6577430">
        <ele>360.1</ele>
        <time>2017-12-18T14:14:25Z</time>
      </trkpt>
      <trkpt lat="38.3770850" lon="-0.6576750">
        <ele>360.1</ele>
        <time>2017-12-18T14:14:26Z</time>
      </trkpt>
      <trkpt lat="38.3770690" lon="-0.6576080">
        <ele>360.1</ele>
        <time>2017-12-18T14:14:27Z</time>
      </trkpt>
      <trkpt lat="38.3770500" lon="-0.6575440">
        <ele>360.1</ele>
        <time>2017-12-18T14:14:28Z</time>
      </trkpt>
      <trkpt lat="38.3770270" lon="-0.6574840">
        <ele>360.1</ele>
        <time>2017-12-18T14:14:29Z</time>
      </trkpt>
      <trkpt lat="38.3770120" lon="-0.6574230">
        <ele>360.1</ele>
        <time>2017-12-18T14:14:30Z</time>
      </trkpt>
      <trkpt lat="38.3770030" lon="-0.6573630">
        <ele>360.1</ele>
        <time>2017-12-18T14:14:31Z</time>
      </trkpt>
      <trkpt lat="38.3769990" lon="-0.6573090">
        <ele>360.1</ele>
        <time>2017-12-18T14:14:32Z</time>
      </trkpt>
      <trkpt lat="38.3769990" lon="-0.6572560">
        <ele>360.1</ele>
        <time>2017-12-18T14:14:33Z</time>
      </trkpt>
      <trkpt lat="38.3770010" lon="-0.6572060">
        <ele>360.1</ele>
        <time>2017-12-18T14:14:34Z</time>
      </trkpt>
      <trkpt lat="38.3769940" lon="-0.6571610">
        <ele>360.1</ele>
        <time>2017-12-18T14:14:35Z</time>
      </trkpt>
      <trkpt lat="38.3769910" lon="-0.6571150">
        <ele>361.2</ele>
        <time>2017-12-18T14:14:36Z</time>
      </trkpt>
      <trkpt lat="38.3769880" lon="-0.6570700">
        <ele>361.2</ele>
        <time>2017-12-18T14:14:37Z</time>
      </trkpt>
      <trkpt lat="38.3769910" lon="-0.6570270">
        <ele>361.2</ele>
        <time>2017-12-18T14:14:38Z</time>
      </trkpt>
      <trkpt lat="38.3769940" lon="-0.6569860">
        <ele>361.2</ele>
        <time>2017-12-18T14:14:39Z</time>
      </trkpt>
      <trkpt lat="38.3769980" lon="-0.6569450">
        <ele>361.2</ele>
        <time>2017-12-18T14:14:40Z</time>
      </trkpt>
      <trkpt lat="38.3770080" lon="-0.6569270">
        <ele>361.2</ele>
        <time>2017-12-18T14:14:41Z</time>
      </trkpt>
      <trkpt lat="38.3770190" lon="-0.6569240">
        <ele>361.2</ele>
        <time>2017-12-18T14:14:42Z</time>
      </trkpt>
      <trkpt lat="38.3769950" lon="-0.6570130">
        <ele>361.2</ele>
        <time>2017-12-18T14:15:41Z</time>
      </trkpt>
      <trkpt lat="38.3769950" lon="-0.6570400">
        <ele>361.2</ele>
        <time>2017-12-18T14:15:42Z</time>
      </trkpt>
      <trkpt lat="38.3770000" lon="-0.6570700">
        <ele>361.2</ele>
        <time>2017-12-18T14:15:43Z</time>
      </trkpt>
      <trkpt lat="38.3770010" lon="-0.6571090">
        <ele>361.2</ele>
        <time>2017-12-18T14:15:44Z</time>
      </trkpt>
      <trkpt lat="38.3770010" lon="-0.6571520">
        <ele>361.2</ele>
        <time>2017-12-18T14:15:45Z</time>
      </trkpt>
      <trkpt lat="38.3770010" lon="-0.6571990">
        <ele>360.1</ele>
        <time>2017-12-18T14:15:46Z</time>
      </trkpt>
      <trkpt lat="38.3770010" lon="-0.6572470">
        <ele>360.1</ele>
        <time>2017-12-18T14:15:47Z</time>
      </trkpt>
      <trkpt lat="38.3770010" lon="-0.6572970">
        <ele>360.1</ele>
        <time>2017-12-18T14:15:48Z</time>
      </trkpt>
      <trkpt lat="38.3770020" lon="-0.6573470">
        <ele>360.1</ele>
        <time>2017-12-18T14:15:49Z</time>
      </trkpt>
      <trkpt lat="38.3770070" lon="-0.6573970">
        <ele>360.1</ele>
        <time>2017-12-18T14:15:50Z</time>
      </trkpt>
      <trkpt lat="38.3770170" lon="-0.6574480">
        <ele>360.1</ele>
        <time>2017-12-18T14:15:51Z</time>
      </trkpt>
      <trkpt lat="38.3770320" lon="-0.6574970">
        <ele>360.1</ele>
        <time>2017-12-18T14:15:52Z</time>
      </trkpt>
      <trkpt lat="38.3770530" lon="-0.6575440">
        <ele>360.1</ele>
        <time>2017-12-18T14:15:53Z</time>
      </trkpt>
      <trkpt lat="38.3770750" lon="-0.6575930">
        <ele>360.1</ele>
        <time>2017-12-18T14:15:54Z</time>
      </trkpt>
      <trkpt lat="38.3770910" lon="-0.6576490">
        <ele>360.1</ele>
        <time>2017-12-18T14:15:55Z</time>
      </trkpt>
      <trkpt lat="38.3771010" lon="-0.6577080">
        <ele>360.1</ele>
        <time>2017-12-18T14:15:56Z</time>
      </trkpt>
      <trkpt lat="38.3771100" lon="-0.6577680">
        <ele>360.1</ele>
        <time>2017-12-18T14:15:57Z</time>
      </trkpt>
      <trkpt lat="38.3771180" lon="-0.6578260">
        <ele>360.1</ele>
        <time>2017-12-18T14:15:58Z</time>
      </trkpt>
      <trkpt lat="38.3771270" lon="-0.6578820">
        <ele>360.1</ele>
        <time>2017-12-18T14:15:59Z</time>
      </trkpt>
      <trkpt lat="38.3771380" lon="-0.6579380">
        <ele>360.1</ele>
        <time>2017-12-18T14:16:00Z</time>
      </trkpt>
      <trkpt lat="38.3771490" lon="-0.6579960">
        <ele>360.1</ele>
        <time>2017-12-18T14:16:01Z</time>
      </trkpt>
      <trkpt lat="38.3771600" lon="-0.6580540">
        <ele>360.1</ele>
        <time>2017-12-18T14:16:02Z</time>
      </trkpt>
      <trkpt lat="38.3771690" lon="-0.6581130">
        <ele>360.1</ele>
        <time>2017-12-18T14:16:03Z</time>
      </trkpt>
      <trkpt lat="38.3771750" lon="-0.6581720">
        <ele>360.1</ele>
        <time>2017-12-18T14:16:04Z</time>
      </trkpt>
      <trkpt lat="38.3771770" lon="-0.6582300">
        <ele>360.1</ele>
        <time>2017-12-18T14:16:05Z</time>
      </trkpt>
      <trkpt lat="38.3771720" lon="-0.6582870">
        <ele>360.1</ele>
        <time>2017-12-18T14:16:06Z</time>
      </trkpt>
      <trkpt lat="38.3771610" lon="-0.6583410">
        <ele>360.1</ele>
        <time>2017-12-18T14:16:07Z</time>
      </trkpt>
      <trkpt lat="38.3771470" lon="-0.6583880">
        <ele>360.1</ele>
        <time>2017-12-18T14:16:08Z</time>
      </trkpt>
      <trkpt lat="38.3771220" lon="-0.6584100">
        <ele>360.1</ele>
        <time>2017-12-18T14:16:09Z</time>
      </trkpt>
      <trkpt lat="38.3770880" lon="-0.6584100">
        <ele>360.1</ele>
        <time>2017-12-18T14:16:10Z</time>
      </trkpt>
      <trkpt lat="38.3770460" lon="-0.6583950">
        <ele>360.1</ele>
        <time>2017-12-18T14:16:11Z</time>
      </trkpt>
      <trkpt lat="38.3769940" lon="-0.6583740">
        <ele>359.2</ele>
        <time>2017-12-18T14:16:12Z</time>
      </trkpt>
      <trkpt lat="38.3769340" lon="-0.6583420">
        <ele>359.2</ele>
        <time>2017-12-18T14:16:13Z</time>
      </trkpt>
      <trkpt lat="38.3768720" lon="-0.6583080">
        <ele>359.2</ele>
        <time>2017-12-18T14:16:14Z</time>
      </trkpt>
      <trkpt lat="38.3768160" lon="-0.6582600">
        <ele>359.2</ele>
        <time>2017-12-18T14:16:15Z</time>
      </trkpt>
      <trkpt lat="38.3767520" lon="-0.6582170">
        <ele>359.2</ele>
        <time>2017-12-18T14:16:16Z</time>
      </trkpt>
      <trkpt lat="38.3766910" lon="-0.6581840">
        <ele>359.2</ele>
        <time>2017-12-18T14:16:17Z</time>
      </trkpt>
      <trkpt lat="38.3766420" lon="-0.6581560">
        <ele>352.2</ele>
        <time>2017-12-18T14:16:18Z</time>
      </trkpt>
      <trkpt lat="38.3765960" lon="-0.6581280">
        <ele>352.2</ele>
        <time>2017-12-18T14:16:19Z</time>
      </trkpt>
      <trkpt lat="38.3765580" lon="-0.6581040">
        <ele>350.2</ele>
        <time>2017-12-18T14:16:20Z</time>
      </trkpt>
      <trkpt lat="38.3765160" lon="-0.6580790">
        <ele>350.2</ele>
        <time>2017-12-18T14:16:21Z</time>
      </trkpt>
      <trkpt lat="38.3764690" lon="-0.6580580">
        <ele>349.2</ele>
        <time>2017-12-18T14:16:22Z</time>
      </trkpt>
      <trkpt lat="38.3764270" lon="-0.6580360">
        <ele>349.2</ele>
        <time>2017-12-18T14:16:23Z</time>
      </trkpt>
      <trkpt lat="38.3763840" lon="-0.6580200">
        <ele>347.2</ele>
        <time>2017-12-18T14:16:24Z</time>
      </trkpt>
      <trkpt lat="38.3763400" lon="-0.6580020">
        <ele>347.2</ele>
        <time>2017-12-18T14:16:25Z</time>
      </trkpt>
      <trkpt lat="38.3762930" lon="-0.6579740">
        <ele>345.2</ele>
        <time>2017-12-18T14:16:26Z</time>
      </trkpt>
      <trkpt lat="38.3762460" lon="-0.6579440">
        <ele>345.2</ele>
        <time>2017-12-18T14:16:27Z</time>
      </trkpt>
      <trkpt lat="38.3762000" lon="-0.6579190">
        <ele>344.1</ele>
        <time>2017-12-18T14:16:28Z</time>
      </trkpt>
      <trkpt lat="38.3761600" lon="-0.6578900">
        <ele>344.1</ele>
        <time>2017-12-18T14:16:29Z</time>
      </trkpt>
      <trkpt lat="38.3761340" lon="-0.6578720">
        <ele>343.2</ele>
        <time>2017-12-18T14:16:30Z</time>
      </trkpt>
      <trkpt lat="38.3761130" lon="-0.6578510">
        <ele>343.2</ele>
        <time>2017-12-18T14:16:31Z</time>
      </trkpt>
      <trkpt lat="38.3760890" lon="-0.6578350">
        <ele>342.1</ele>
        <time>2017-12-18T14:16:32Z</time>
      </trkpt>
      <trkpt lat="38.3760700" lon="-0.6578240">
        <ele>342.1</ele>
        <time>2017-12-18T14:16:33Z</time>
      </trkpt>
      <trkpt lat="38.3760570" lon="-0.6578100">
        <ele>342.1</ele>
        <time>2017-12-18T14:16:34Z</time>
      </trkpt>
      <trkpt lat="38.3760450" lon="-0.6577960">
        <ele>342.1</ele>
        <time>2017-12-18T14:16:35Z</time>
      </trkpt>
      <trkpt lat="38.3760380" lon="-0.6577910">
        <ele>341.1</ele>
        <time>2017-12-18T14:16:36Z</time>
      </trkpt>
      <trkpt lat="38.3760300" lon="-0.6577860">
        <ele>341.1</ele>
        <time>2017-12-18T14:16:37Z</time>
      </trkpt>
      <trkpt lat="38.3760520" lon="-0.6578170">
        <ele>341.1</ele>
        <time>2017-12-18T14:16:38Z</time>
      </trkpt>
      <trkpt lat="38.3760590" lon="-0.6578220">
        <ele>341.1</ele>
        <time>2017-12-18T14:16:47Z</time>
      </trkpt>
      <trkpt lat="38.3760670" lon="-0.6578310">
        <ele>341.1</ele>
        <time>2017-12-18T14:16:48Z</time>
      </trkpt>
      <trkpt lat="38.3760750" lon="-0.6578380">
        <ele>341.1</ele>
        <time>2017-12-18T14:16:49Z</time>
      </trkpt>
      <trkpt lat="38.3760870" lon="-0.6578430">
        <ele>341.1</ele>
        <time>2017-12-18T14:16:50Z</time>
      </trkpt>
      <trkpt lat="38.3760980" lon="-0.6578470">
        <ele>341.1</ele>
        <time>2017-12-18T14:16:51Z</time>
      </trkpt>
      <trkpt lat="38.3761090" lon="-0.6578530">
        <ele>341.1</ele>
        <time>2017-12-18T14:16:52Z</time>
      </trkpt>
      <trkpt lat="38.3761170" lon="-0.6578580">
        <ele>341.1</ele>
        <time>2017-12-18T14:16:53Z</time>
      </trkpt>
      <trkpt lat="38.3761270" lon="-0.6578650">
        <ele>341.1</ele>
        <time>2017-12-18T14:16:54Z</time>
      </trkpt>
      <trkpt lat="38.3761370" lon="-0.6578720">
        <ele>341.1</ele>
        <time>2017-12-18T14:16:55Z</time>
      </trkpt>
      <trkpt lat="38.3761470" lon="-0.6578790">
        <ele>341.1</ele>
        <time>2017-12-18T14:16:56Z</time>
      </trkpt>
      <trkpt lat="38.3761560" lon="-0.6578850">
        <ele>341.1</ele>
        <time>2017-12-18T14:16:57Z</time>
      </trkpt>
      <trkpt lat="38.3761670" lon="-0.6578930">
        <ele>341.1</ele>
        <time>2017-12-18T14:16:58Z</time>
      </trkpt>
      <trkpt lat="38.3761770" lon="-0.6579010">
        <ele>342.1</ele>
        <time>2017-12-18T14:16:59Z</time>
      </trkpt>
      <trkpt lat="38.3761870" lon="-0.6579090">
        <ele>342.1</ele>
        <time>2017-12-18T14:17:00Z</time>
      </trkpt>
      <trkpt lat="38.3761960" lon="-0.6579170">
        <ele>342.1</ele>
        <time>2017-12-18T14:17:01Z</time>
      </trkpt>
      <trkpt lat="38.3762080" lon="-0.6579240">
        <ele>342.1</ele>
        <time>2017-12-18T14:17:02Z</time>
      </trkpt>
      <trkpt lat="38.3762190" lon="-0.6579280">
        <ele>343.2</ele>
        <time>2017-12-18T14:17:03Z</time>
      </trkpt>
      <trkpt lat="38.3762300" lon="-0.6579330">
        <ele>343.2</ele>
        <time>2017-12-18T14:17:04Z</time>
      </trkpt>
      <trkpt lat="38.3762410" lon="-0.6579410">
        <ele>343.2</ele>
        <time>2017-12-18T14:17:05Z</time>
      </trkpt>
      <trkpt lat="38.3762500" lon="-0.6579480">
        <ele>343.2</ele>
        <time>2017-12-18T14:17:06Z</time>
      </trkpt>
      <trkpt lat="38.3762590" lon="-0.6579540">
        <ele>344.1</ele>
        <time>2017-12-18T14:17:07Z</time>
      </trkpt>
      <trkpt lat="38.3762690" lon="-0.6579600">
        <ele>344.1</ele>
        <time>2017-12-18T14:17:08Z</time>
      </trkpt>
      <trkpt lat="38.3762800" lon="-0.6579670">
        <ele>344.1</ele>
        <time>2017-12-18T14:17:09Z</time>
      </trkpt>
      <trkpt lat="38.3762910" lon="-0.6579740">
        <ele>344.1</ele>
        <time>2017-12-18T14:17:10Z</time>
      </trkpt>
      <trkpt lat="38.3763030" lon="-0.6579810">
        <ele>344.1</ele>
        <time>2017-12-18T14:17:11Z</time>
      </trkpt>
      <trkpt lat="38.3763140" lon="-0.6579890">
        <ele>344.1</ele>
        <time>2017-12-18T14:17:12Z</time>
      </trkpt>
      <trkpt lat="38.3763260" lon="-0.6579950">
        <ele>344.1</ele>
        <time>2017-12-18T14:17:13Z</time>
      </trkpt>
      <trkpt lat="38.3763390" lon="-0.6580010">
        <ele>344.1</ele>
        <time>2017-12-18T14:17:14Z</time>
      </trkpt>
      <trkpt lat="38.3763500" lon="-0.6580070">
        <ele>344.1</ele>
        <time>2017-12-18T14:17:15Z</time>
      </trkpt>
      <trkpt lat="38.3763630" lon="-0.6580140">
        <ele>344.1</ele>
        <time>2017-12-18T14:17:16Z</time>
      </trkpt>
      <trkpt lat="38.3763720" lon="-0.6580220">
        <ele>344.1</ele>
        <time>2017-12-18T14:17:17Z</time>
      </trkpt>
      <trkpt lat="38.3763810" lon="-0.6580320">
        <ele>344.1</ele>
        <time>2017-12-18T14:17:18Z</time>
      </trkpt>
      <trkpt lat="38.3763910" lon="-0.6580390">
        <ele>346.1</ele>
        <time>2017-12-18T14:17:19Z</time>
      </trkpt>
      <trkpt lat="38.3764030" lon="-0.6580460">
        <ele>346.1</ele>
        <time>2017-12-18T14:17:20Z</time>
      </trkpt>
      <trkpt lat="38.3764130" lon="-0.6580530">
        <ele>346.1</ele>
        <time>2017-12-18T14:17:21Z</time>
      </trkpt>
      <trkpt lat="38.3764220" lon="-0.6580580">
        <ele>346.1</ele>
        <time>2017-12-18T14:17:22Z</time>
      </trkpt>
      <trkpt lat="38.3764320" lon="-0.6580610">
        <ele>346.1</ele>
        <time>2017-12-18T14:17:23Z</time>
      </trkpt>
      <trkpt lat="38.3764410" lon="-0.6580630">
        <ele>346.1</ele>
        <time>2017-12-18T14:17:24Z</time>
      </trkpt>
      <trkpt lat="38.3764500" lon="-0.6580690">
        <ele>347.2</ele>
        <time>2017-12-18T14:17:25Z</time>
      </trkpt>
      <trkpt lat="38.3764610" lon="-0.6580750">
        <ele>347.2</ele>
        <time>2017-12-18T14:17:26Z</time>
      </trkpt>
      <trkpt lat="38.3764710" lon="-0.6580790">
        <ele>347.2</ele>
        <time>2017-12-18T14:17:27Z</time>
      </trkpt>
      <trkpt lat="38.3764820" lon="-0.6580830">
        <ele>347.2</ele>
        <time>2017-12-18T14:17:28Z</time>
      </trkpt>
      <trkpt lat="38.3764910" lon="-0.6580880">
        <ele>348.1</ele>
        <time>2017-12-18T14:17:29Z</time>
      </trkpt>
      <trkpt lat="38.3765020" lon="-0.6580930">
        <ele>348.1</ele>
        <time>2017-12-18T14:17:30Z</time>
      </trkpt>
      <trkpt lat="38.3765120" lon="-0.6580990">
        <ele>348.1</ele>
        <time>2017-12-18T14:17:31Z</time>
      </trkpt>
      <trkpt lat="38.3765220" lon="-0.6581040">
        <ele>348.1</ele>
        <time>2017-12-18T14:17:32Z</time>
      </trkpt>
      <trkpt lat="38.3765310" lon="-0.6581100">
        <ele>348.1</ele>
        <time>2017-12-18T14:17:33Z</time>
      </trkpt>
      <trkpt lat="38.3765360" lon="-0.6581140">
        <ele>348.1</ele>
        <time>2017-12-18T14:17:34Z</time>
      </trkpt>
      <trkpt lat="38.3765440" lon="-0.6581190">
        <ele>349.2</ele>
        <time>2017-12-18T14:17:35Z</time>
      </trkpt>
      <trkpt lat="38.3765530" lon="-0.6581220">
        <ele>349.2</ele>
        <time>2017-12-18T14:17:36Z</time>
      </trkpt>
      <trkpt lat="38.3765620" lon="-0.6581270">
        <ele>349.2</ele>
        <time>2017-12-18T14:17:37Z</time>
      </trkpt>
      <trkpt lat="38.3765690" lon="-0.6581330">
        <ele>349.2</ele>
        <time>2017-12-18T14:17:38Z</time>
      </trkpt>
      <trkpt lat="38.3765790" lon="-0.6581400">
        <ele>349.2</ele>
        <time>2017-12-18T14:17:39Z</time>
      </trkpt>
      <trkpt lat="38.3765880" lon="-0.6581460">
        <ele>349.2</ele>
        <time>2017-12-18T14:17:40Z</time>
      </trkpt>
      <trkpt lat="38.3765980" lon="-0.6581510">
        <ele>349.2</ele>
        <time>2017-12-18T14:17:41Z</time>
      </trkpt>
      <trkpt lat="38.3766080" lon="-0.6581570">
        <ele>349.2</ele>
        <time>2017-12-18T14:17:42Z</time>
      </trkpt>
      <trkpt lat="38.3766180" lon="-0.6581610">
        <ele>349.2</ele>
        <time>2017-12-18T14:17:43Z</time>
      </trkpt>
      <trkpt lat="38.3766270" lon="-0.6581650">
        <ele>349.2</ele>
        <time>2017-12-18T14:17:44Z</time>
      </trkpt>
      <trkpt lat="38.3766390" lon="-0.6581700">
        <ele>349.2</ele>
        <time>2017-12-18T14:17:45Z</time>
      </trkpt>
      <trkpt lat="38.3766470" lon="-0.6581740">
        <ele>349.2</ele>
        <time>2017-12-18T14:17:46Z</time>
      </trkpt>
      <trkpt lat="38.3766570" lon="-0.6581770">
        <ele>349.2</ele>
        <time>2017-12-18T14:17:47Z</time>
      </trkpt>
      <trkpt lat="38.3766660" lon="-0.6581800">
        <ele>349.2</ele>
        <time>2017-12-18T14:17:48Z</time>
      </trkpt>
      <trkpt lat="38.3766740" lon="-0.6581840">
        <ele>351.1</ele>
        <time>2017-12-18T14:17:49Z</time>
      </trkpt>
      <trkpt lat="38.3766850" lon="-0.6581860">
        <ele>351.1</ele>
        <time>2017-12-18T14:17:50Z</time>
      </trkpt>
      <trkpt lat="38.3766950" lon="-0.6581880">
        <ele>351.1</ele>
        <time>2017-12-18T14:17:51Z</time>
      </trkpt>
      <trkpt lat="38.3767040" lon="-0.6581890">
        <ele>351.1</ele>
        <time>2017-12-18T14:17:52Z</time>
      </trkpt>
      <trkpt lat="38.3767110" lon="-0.6581940">
        <ele>351.1</ele>
        <time>2017-12-18T14:17:53Z</time>
      </trkpt>
      <trkpt lat="38.3767200" lon="-0.6582010">
        <ele>351.1</ele>
        <time>2017-12-18T14:17:54Z</time>
      </trkpt>
      <trkpt lat="38.3767290" lon="-0.6582070">
        <ele>352.2</ele>
        <time>2017-12-18T14:17:55Z</time>
      </trkpt>
      <trkpt lat="38.3767390" lon="-0.6582130">
        <ele>352.2</ele>
        <time>2017-12-18T14:17:56Z</time>
      </trkpt>
      <trkpt lat="38.3767480" lon="-0.6582190">
        <ele>352.2</ele>
        <time>2017-12-18T14:17:57Z</time>
      </trkpt>
      <trkpt lat="38.3767580" lon="-0.6582250">
        <ele>352.2</ele>
        <time>2017-12-18T14:17:58Z</time>
      </trkpt>
      <trkpt lat="38.3767690" lon="-0.6582320">
        <ele>353.1</ele>
        <time>2017-12-18T14:17:59Z</time>
      </trkpt>
      <trkpt lat="38.3767790" lon="-0.6582350">
        <ele>353.1</ele>
        <time>2017-12-18T14:18:00Z</time>
      </trkpt>
      <trkpt lat="38.3767890" lon="-0.6582410">
        <ele>353.1</ele>
        <time>2017-12-18T14:18:01Z</time>
      </trkpt>
      <trkpt lat="38.3767990" lon="-0.6582460">
        <ele>353.1</ele>
        <time>2017-12-18T14:18:02Z</time>
      </trkpt>
      <trkpt lat="38.3768100" lon="-0.6582530">
        <ele>353.1</ele>
        <time>2017-12-18T14:18:03Z</time>
      </trkpt>
      <trkpt lat="38.3768210" lon="-0.6582610">
        <ele>353.1</ele>
        <time>2017-12-18T14:18:04Z</time>
      </trkpt>
      <trkpt lat="38.3768300" lon="-0.6582660">
        <ele>354.2</ele>
        <time>2017-12-18T14:18:05Z</time>
      </trkpt>
      <trkpt lat="38.3768400" lon="-0.6582700">
        <ele>354.2</ele>
        <time>2017-12-18T14:18:06Z</time>
      </trkpt>
      <trkpt lat="38.3768500" lon="-0.6582760">
        <ele>354.2</ele>
        <time>2017-12-18T14:18:07Z</time>
      </trkpt>
      <trkpt lat="38.3768590" lon="-0.6582820">
        <ele>354.2</ele>
        <time>2017-12-18T14:18:08Z</time>
      </trkpt>
      <trkpt lat="38.3768700" lon="-0.6582870">
        <ele>355.1</ele>
        <time>2017-12-18T14:18:09Z</time>
      </trkpt>
      <trkpt lat="38.3768790" lon="-0.6582920">
        <ele>355.1</ele>
        <time>2017-12-18T14:18:10Z</time>
      </trkpt>
      <trkpt lat="38.3768880" lon="-0.6582990">
        <ele>355.1</ele>
        <time>2017-12-18T14:18:11Z</time>
      </trkpt>
      <trkpt lat="38.3768990" lon="-0.6583040">
        <ele>355.1</ele>
        <time>2017-12-18T14:18:12Z</time>
      </trkpt>
      <trkpt lat="38.3769060" lon="-0.6583090">
        <ele>355.1</ele>
        <time>2017-12-18T14:18:13Z</time>
      </trkpt>
      <trkpt lat="38.3769100" lon="-0.6583140">
        <ele>355.1</ele>
        <time>2017-12-18T14:18:14Z</time>
      </trkpt>
      <trkpt lat="38.3769170" lon="-0.6583220">
        <ele>355.1</ele>
        <time>2017-12-18T14:18:15Z</time>
      </trkpt>
      <trkpt lat="38.3769250" lon="-0.6583290">
        <ele>355.1</ele>
        <time>2017-12-18T14:18:16Z</time>
      </trkpt>
      <trkpt lat="38.3769330" lon="-0.6583360">
        <ele>355.1</ele>
        <time>2017-12-18T14:18:17Z</time>
      </trkpt>
      <trkpt lat="38.3769420" lon="-0.6583420">
        <ele>355.1</ele>
        <time>2017-12-18T14:18:18Z</time>
      </trkpt>
      <trkpt lat="38.3769500" lon="-0.6583490">
        <ele>356.2</ele>
        <time>2017-12-18T14:18:19Z</time>
      </trkpt>
      <trkpt lat="38.3769600" lon="-0.6583560">
        <ele>356.2</ele>
        <time>2017-12-18T14:18:20Z</time>
      </trkpt>
      <trkpt lat="38.3769680" lon="-0.6583600">
        <ele>356.2</ele>
        <time>2017-12-18T14:18:21Z</time>
      </trkpt>
      <trkpt lat="38.3769770" lon="-0.6583660">
        <ele>356.2</ele>
        <time>2017-12-18T14:18:22Z</time>
      </trkpt>
      <trkpt lat="38.3769860" lon="-0.6583680">
        <ele>356.2</ele>
        <time>2017-12-18T14:18:23Z</time>
      </trkpt>
      <trkpt lat="38.3769950" lon="-0.6583700">
        <ele>356.2</ele>
        <time>2017-12-18T14:18:24Z</time>
      </trkpt>
      <trkpt lat="38.3770030" lon="-0.6583740">
        <ele>357.1</ele>
        <time>2017-12-18T14:18:25Z</time>
      </trkpt>
      <trkpt lat="38.3770120" lon="-0.6583790">
        <ele>357.1</ele>
        <time>2017-12-18T14:18:26Z</time>
      </trkpt>
      <trkpt lat="38.3770220" lon="-0.6583820">
        <ele>357.1</ele>
        <time>2017-12-18T14:18:27Z</time>
      </trkpt>
      <trkpt lat="38.3770310" lon="-0.6583850">
        <ele>357.1</ele>
        <time>2017-12-18T14:18:28Z</time>
      </trkpt>
      <trkpt lat="38.3770410" lon="-0.6583890">
        <ele>358.1</ele>
        <time>2017-12-18T14:18:29Z</time>
      </trkpt>
      <trkpt lat="38.3770490" lon="-0.6583920">
        <ele>358.1</ele>
        <time>2017-12-18T14:18:30Z</time>
      </trkpt>
      <trkpt lat="38.3770570" lon="-0.6583950">
        <ele>358.1</ele>
        <time>2017-12-18T14:18:31Z</time>
      </trkpt>
      <trkpt lat="38.3770650" lon="-0.6583970">
        <ele>358.1</ele>
        <time>2017-12-18T14:18:32Z</time>
      </trkpt>
      <trkpt lat="38.3770750" lon="-0.6584000">
        <ele>358.1</ele>
        <time>2017-12-18T14:18:33Z</time>
      </trkpt>
      <trkpt lat="38.3770830" lon="-0.6584030">
        <ele>358.1</ele>
        <time>2017-12-18T14:18:34Z</time>
      </trkpt>
      <trkpt lat="38.3770890" lon="-0.6584070">
        <ele>359.2</ele>
        <time>2017-12-18T14:18:35Z</time>
      </trkpt>
      <trkpt lat="38.3770950" lon="-0.6584100">
        <ele>359.2</ele>
        <time>2017-12-18T14:18:36Z</time>
      </trkpt>
      <trkpt lat="38.3771060" lon="-0.6584130">
        <ele>360.1</ele>
        <time>2017-12-18T14:18:37Z</time>
      </trkpt>
      <trkpt lat="38.3771170" lon="-0.6584120">
        <ele>360.1</ele>
        <time>2017-12-18T14:18:38Z</time>
      </trkpt>
      <trkpt lat="38.3771250" lon="-0.6584100">
        <ele>360.1</ele>
        <time>2017-12-18T14:18:39Z</time>
      </trkpt>
      <trkpt lat="38.3771330" lon="-0.6584070">
        <ele>360.1</ele>
        <time>2017-12-18T14:18:40Z</time>
      </trkpt>
      <trkpt lat="38.3771400" lon="-0.6584000">
        <ele>360.1</ele>
        <time>2017-12-18T14:18:41Z</time>
      </trkpt>
      <trkpt lat="38.3771430" lon="-0.6583940">
        <ele>360.1</ele>
        <time>2017-12-18T14:18:42Z</time>
      </trkpt>
      <trkpt lat="38.3771410" lon="-0.6583940">
        <ele>360.1</ele>
        <time>2017-12-18T14:18:43Z</time>
      </trkpt>
      <trkpt lat="38.3771410" lon="-0.6583950">
        <ele>360.1</ele>
        <time>2017-12-18T14:18:44Z</time>
      </trkpt>
      <trkpt lat="38.3771410" lon="-0.6583950">
        <ele>360.1</ele>
        <time>2017-12-18T14:18:45Z</time>
      </trkpt>
      <trkpt lat="38.3771400" lon="-0.6583930">
        <ele>360.1</ele>
        <time>2017-12-18T14:18:46Z</time>
      </trkpt>
      <trkpt lat="38.3771410" lon="-0.6583910">
        <ele>360.1</ele>
        <time>2017-12-18T14:18:47Z</time>
      </trkpt>
      <trkpt lat="38.3771470" lon="-0.6583850">
        <ele>360.1</ele>
        <time>2017-12-18T14:18:48Z</time>
      </trkpt>
      <trkpt lat="38.3771550" lon="-0.6583750">
        <ele>361.2</ele>
        <time>2017-12-18T14:18:49Z</time>
      </trkpt>
      <trkpt lat="38.3771650" lon="-0.6583610">
        <ele>361.2</ele>
        <time>2017-12-18T14:18:50Z</time>
      </trkpt>
      <trkpt lat="38.3771760" lon="-0.6583440">
        <ele>361.2</ele>
        <time>2017-12-18T14:18:51Z</time>
      </trkpt>
      <trkpt lat="38.3771840" lon="-0.6583240">
        <ele>361.2</ele>
        <time>2017-12-18T14:18:52Z</time>
      </trkpt>
      <trkpt lat="38.3771890" lon="-0.6583030">
        <ele>361.2</ele>
        <time>2017-12-18T14:18:53Z</time>
      </trkpt>
      <trkpt lat="38.3771930" lon="-0.6582800">
        <ele>361.2</ele>
        <time>2017-12-18T14:18:54Z</time>
      </trkpt>
      <trkpt lat="38.3771960" lon="-0.6582540">
        <ele>361.2</ele>
        <time>2017-12-18T14:18:55Z</time>
      </trkpt>
      <trkpt lat="38.3771930" lon="-0.6582230">
        <ele>361.2</ele>
        <time>2017-12-18T14:18:56Z</time>
      </trkpt>
      <trkpt lat="38.3771870" lon="-0.6581860">
        <ele>361.2</ele>
        <time>2017-12-18T14:18:57Z</time>
      </trkpt>
      <trkpt lat="38.3771810" lon="-0.6581460">
        <ele>361.2</ele>
        <time>2017-12-18T14:18:58Z</time>
      </trkpt>
      <trkpt lat="38.3771730" lon="-0.6580980">
        <ele>361.2</ele>
        <time>2017-12-18T14:18:59Z</time>
      </trkpt>
      <trkpt lat="38.3771640" lon="-0.6580390">
        <ele>361.2</ele>
        <time>2017-12-18T14:19:00Z</time>
      </trkpt>
      <trkpt lat="38.3771530" lon="-0.6579770">
        <ele>361.2</ele>
        <time>2017-12-18T14:19:01Z</time>
      </trkpt>
      <trkpt lat="38.3771410" lon="-0.6579130">
        <ele>361.2</ele>
        <time>2017-12-18T14:19:02Z</time>
      </trkpt>
      <trkpt lat="38.3771310" lon="-0.6578500">
        <ele>361.2</ele>
        <time>2017-12-18T14:19:03Z</time>
      </trkpt>
      <trkpt lat="38.3771200" lon="-0.6577850">
        <ele>361.2</ele>
        <time>2017-12-18T14:19:04Z</time>
      </trkpt>
      <trkpt lat="38.3771060" lon="-0.6577190">
        <ele>361.2</ele>
        <time>2017-12-18T14:19:05Z</time>
      </trkpt>
      <trkpt lat="38.3770910" lon="-0.6576510">
        <ele>361.2</ele>
        <time>2017-12-18T14:19:06Z</time>
      </trkpt>
      <trkpt lat="38.3770740" lon="-0.6575850">
        <ele>361.2</ele>
        <time>2017-12-18T14:19:07Z</time>
      </trkpt>
      <trkpt lat="38.3770500" lon="-0.6575230">
        <ele>361.2</ele>
        <time>2017-12-18T14:19:08Z</time>
      </trkpt>
      <trkpt lat="38.3770290" lon="-0.6574630">
        <ele>361.2</ele>
        <time>2017-12-18T14:19:09Z</time>
      </trkpt>
      <trkpt lat="38.3770200" lon="-0.6574010">
        <ele>361.2</ele>
        <time>2017-12-18T14:19:10Z</time>
      </trkpt>
      <trkpt lat="38.3770080" lon="-0.6573500">
        <ele>361.2</ele>
        <time>2017-12-18T14:19:11Z</time>
      </trkpt>
      <trkpt lat="38.3769900" lon="-0.6573270">
        <ele>361.2</ele>
        <time>2017-12-18T14:19:12Z</time>
      </trkpt>
      <trkpt lat="38.3769700" lon="-0.6573250">
        <ele>361.2</ele>
        <time>2017-12-18T14:19:13Z</time>
      </trkpt>
      <trkpt lat="38.3769370" lon="-0.6573220">
        <ele>361.2</ele>
        <time>2017-12-18T14:19:14Z</time>
      </trkpt>
      <trkpt lat="38.3768990" lon="-0.6573280">
        <ele>361.2</ele>
        <time>2017-12-18T14:19:15Z</time>
      </trkpt>
      <trkpt lat="38.3768550" lon="-0.6573330">
        <ele>361.2</ele>
        <time>2017-12-18T14:19:16Z</time>
      </trkpt>
      <trkpt lat="38.3768140" lon="-0.6573400">
        <ele>361.2</ele>
        <time>2017-12-18T14:19:17Z</time>
      </trkpt>
      <trkpt lat="38.3767800" lon="-0.6573450">
        <ele>361.2</ele>
        <time>2017-12-18T14:19:18Z</time>
      </trkpt>
      <trkpt lat="38.3767590" lon="-0.6573430">
        <ele>356.2</ele>
        <time>2017-12-18T14:19:19Z</time>
      </trkpt>
      <trkpt lat="38.3767380" lon="-0.6573430">
        <ele>356.2</ele>
        <time>2017-12-18T14:19:20Z</time>
      </trkpt>
      <trkpt lat="38.3767180" lon="-0.6573370">
        <ele>355.1</ele>
        <time>2017-12-18T14:19:21Z</time>
      </trkpt>
      <trkpt lat="38.3766940" lon="-0.6573340">
        <ele>355.1</ele>
        <time>2017-12-18T14:19:22Z</time>
      </trkpt>
      <trkpt lat="38.3766630" lon="-0.6573340">
        <ele>355.1</ele>
        <time>2017-12-18T14:19:23Z</time>
      </trkpt>
      <trkpt lat="38.3766280" lon="-0.6573330">
        <ele>355.1</ele>
        <time>2017-12-18T14:19:24Z</time>
      </trkpt>
      <trkpt lat="38.3765900" lon="-0.6573380">
        <ele>355.1</ele>
        <time>2017-12-18T14:19:25Z</time>
      </trkpt>
      <trkpt lat="38.3765490" lon="-0.6573500">
        <ele>355.1</ele>
        <time>2017-12-18T14:19:26Z</time>
      </trkpt>
      <trkpt lat="38.3765020" lon="-0.6573710">
        <ele>349.2</ele>
        <time>2017-12-18T14:19:27Z</time>
      </trkpt>
      <trkpt lat="38.3764520" lon="-0.6574000">
        <ele>349.2</ele>
        <time>2017-12-18T14:19:28Z</time>
      </trkpt>
      <trkpt lat="38.3763980" lon="-0.6574240">
        <ele>348.1</ele>
        <time>2017-12-18T14:19:29Z</time>
      </trkpt>
      <trkpt lat="38.3763440" lon="-0.6574270">
        <ele>348.1</ele>
        <time>2017-12-18T14:19:30Z</time>
      </trkpt>
      <trkpt lat="38.3763110" lon="-0.6574180">
        <ele>347.2</ele>
        <time>2017-12-18T14:19:31Z</time>
      </trkpt>
      <trkpt lat="38.3762840" lon="-0.6574000">
        <ele>347.2</ele>
        <time>2017-12-18T14:19:32Z</time>
      </trkpt>
      <trkpt lat="38.3762600" lon="-0.6573880">
        <ele>346.1</ele>
        <time>2017-12-18T14:19:33Z</time>
      </trkpt>
      <trkpt lat="38.3762390" lon="-0.6573840">
        <ele>346.1</ele>
        <time>2017-12-18T14:19:34Z</time>
      </trkpt>
      <trkpt lat="38.3762120" lon="-0.6573880">
        <ele>344.1</ele>
        <time>2017-12-18T14:19:35Z</time>
      </trkpt>
      <trkpt lat="38.3761740" lon="-0.6573890">
        <ele>344.1</ele>
        <time>2017-12-18T14:19:36Z</time>
      </trkpt>
      <trkpt lat="38.3761400" lon="-0.6573900">
        <ele>343.2</ele>
        <time>2017-12-18T14:19:37Z</time>
      </trkpt>
      <trkpt lat="38.3761110" lon="-0.6573920">
        <ele>343.2</ele>
        <time>2017-12-18T14:19:38Z</time>
      </trkpt>
      <trkpt lat="38.3760800" lon="-0.6574000">
        <ele>341.1</ele>
        <time>2017-12-18T14:19:39Z</time>
      </trkpt>
      <trkpt lat="38.3760420" lon="-0.6574050">
        <ele>341.1</ele>
        <time>2017-12-18T14:19:40Z</time>
      </trkpt>
      <trkpt lat="38.3760050" lon="-0.6573890">
        <ele>340.2</ele>
        <time>2017-12-18T14:19:41Z</time>
      </trkpt>
      <trkpt lat="38.3759680" lon="-0.6573580">
        <ele>340.2</ele>
        <time>2017-12-18T14:19:42Z</time>
      </trkpt>
      <trkpt lat="38.3759270" lon="-0.6573280">
        <ele>338.2</ele>
        <time>2017-12-18T14:19:43Z</time>
      </trkpt>
      <trkpt lat="38.3758780" lon="-0.6573030">
        <ele>338.2</ele>
        <time>2017-12-18T14:19:44Z</time>
      </trkpt>
      <trkpt lat="38.3758210" lon="-0.6572840">
        <ele>337.1</ele>
        <time>2017-12-18T14:19:45Z</time>
      </trkpt>
      <trkpt lat="38.3757580" lon="-0.6572730">
        <ele>337.1</ele>
        <time>2017-12-18T14:19:46Z</time>
      </trkpt>
      <trkpt lat="38.3756940" lon="-0.6572490">
        <ele>335.1</ele>
        <time>2017-12-18T14:19:47Z</time>
      </trkpt>
      <trkpt lat="38.3756350" lon="-0.6572260">
        <ele>335.1</ele>
        <time>2017-12-18T14:19:48Z</time>
      </trkpt>
      <trkpt lat="38.3755820" lon="-0.6572070">
        <ele>333.2</ele>
        <time>2017-12-18T14:19:49Z</time>
      </trkpt>
      <trkpt lat="38.3755270" lon="-0.6571920">
        <ele>333.2</ele>
        <time>2017-12-18T14:19:50Z</time>
      </trkpt>
      <trkpt lat="38.3754710" lon="-0.6571820">
        <ele>331.2</ele>
        <time>2017-12-18T14:19:51Z</time>
      </trkpt>
      <trkpt lat="38.3754210" lon="-0.6571780">
        <ele>331.2</ele>
        <time>2017-12-18T14:19:52Z</time>
      </trkpt>
      <trkpt lat="38.3753770" lon="-0.6571730">
        <ele>329.2</ele>
        <time>2017-12-18T14:19:53Z</time>
      </trkpt>
      <trkpt lat="38.3753310" lon="-0.6571750">
        <ele>329.2</ele>
        <time>2017-12-18T14:19:54Z</time>
      </trkpt>
      <trkpt lat="38.3752800" lon="-0.6571650">
        <ele>328.1</ele>
        <time>2017-12-18T14:19:55Z</time>
      </trkpt>
      <trkpt lat="38.3752330" lon="-0.6571330">
        <ele>328.1</ele>
        <time>2017-12-18T14:19:56Z</time>
      </trkpt>
      <trkpt lat="38.3751800" lon="-0.6570970">
        <ele>327.2</ele>
        <time>2017-12-18T14:19:57Z</time>
      </trkpt>
      <trkpt lat="38.3751230" lon="-0.6570700">
        <ele>327.2</ele>
        <time>2017-12-18T14:19:58Z</time>
      </trkpt>
      <trkpt lat="38.3750760" lon="-0.6570370">
        <ele>326.1</ele>
        <time>2017-12-18T14:19:59Z</time>
      </trkpt>
      <trkpt lat="38.3750360" lon="-0.6569880">
        <ele>326.1</ele>
        <time>2017-12-18T14:20:00Z</time>
      </trkpt>
      <trkpt lat="38.3750040" lon="-0.6569300">
        <ele>324.2</ele>
        <time>2017-12-18T14:20:01Z</time>
      </trkpt>
      <trkpt lat="38.3749700" lon="-0.6568680">
        <ele>324.2</ele>
        <time>2017-12-18T14:20:02Z</time>
      </trkpt>
      <trkpt lat="38.3749270" lon="-0.6568070">
        <ele>323.1</ele>
        <time>2017-12-18T14:20:03Z</time>
      </trkpt>
      <trkpt lat="38.3748850" lon="-0.6567510">
        <ele>323.1</ele>
        <time>2017-12-18T14:20:04Z</time>
      </trkpt>
      <trkpt lat="38.3748520" lon="-0.6567090">
        <ele>322.2</ele>
        <time>2017-12-18T14:20:05Z</time>
      </trkpt>
      <trkpt lat="38.3748320" lon="-0.6566580">
        <ele>322.2</ele>
        <time>2017-12-18T14:20:06Z</time>
      </trkpt>
      <trkpt lat="38.3748170" lon="-0.6565990">
        <ele>321.1</ele>
        <time>2017-12-18T14:20:07Z</time>
      </trkpt>
      <trkpt lat="38.3747880" lon="-0.6565440">
        <ele>321.1</ele>
        <time>2017-12-18T14:20:08Z</time>
      </trkpt>
      <trkpt lat="38.3747540" lon="-0.6564970">
        <ele>319.1</ele>
        <time>2017-12-18T14:20:09Z</time>
      </trkpt>
      <trkpt lat="38.3747190" lon="-0.6564640">
        <ele>319.1</ele>
        <time>2017-12-18T14:20:10Z</time>
      </trkpt>
      <trkpt lat="38.3746830" lon="-0.6564360">
        <ele>318.2</ele>
        <time>2017-12-18T14:20:11Z</time>
      </trkpt>
      <trkpt lat="38.3746540" lon="-0.6564010">
        <ele>318.2</ele>
        <time>2017-12-18T14:20:12Z</time>
      </trkpt>
      <trkpt lat="38.3746310" lon="-0.6563630">
        <ele>317.1</ele>
        <time>2017-12-18T14:20:13Z</time>
      </trkpt>
      <trkpt lat="38.3746140" lon="-0.6563190">
        <ele>317.1</ele>
        <time>2017-12-18T14:20:14Z</time>
      </trkpt>
      <trkpt lat="38.3745910" lon="-0.6562780">
        <ele>317.1</ele>
        <time>2017-12-18T14:20:15Z</time>
      </trkpt>
      <trkpt lat="38.3745470" lon="-0.6562510">
        <ele>317.1</ele>
        <time>2017-12-18T14:20:16Z</time>
      </trkpt>
      <trkpt lat="38.3744930" lon="-0.6562420">
        <ele>317.1</ele>
        <time>2017-12-18T14:20:17Z</time>
      </trkpt>
      <trkpt lat="38.3744380" lon="-0.6562380">
        <ele>317.1</ele>
        <time>2017-12-18T14:20:18Z</time>
      </trkpt>
      <trkpt lat="38.3743820" lon="-0.6562120">
        <ele>317.1</ele>
        <time>2017-12-18T14:20:19Z</time>
      </trkpt>
      <trkpt lat="38.3743240" lon="-0.6561650">
        <ele>317.1</ele>
        <time>2017-12-18T14:20:20Z</time>
      </trkpt>
      <trkpt lat="38.3742640" lon="-0.6561110">
        <ele>312.1</ele>
        <time>2017-12-18T14:20:21Z</time>
      </trkpt>
      <trkpt lat="38.3742110" lon="-0.6560530">
        <ele>312.1</ele>
        <time>2017-12-18T14:20:22Z</time>
      </trkpt>
      <trkpt lat="38.3741580" lon="-0.6560150">
        <ele>310.1</ele>
        <time>2017-12-18T14:20:23Z</time>
      </trkpt>
      <trkpt lat="38.3741010" lon="-0.6560020">
        <ele>310.1</ele>
        <time>2017-12-18T14:20:24Z</time>
      </trkpt>
      <trkpt lat="38.3740360" lon="-0.6560030">
        <ele>309.1</ele>
        <time>2017-12-18T14:20:25Z</time>
      </trkpt>
      <trkpt lat="38.3739680" lon="-0.6559990">
        <ele>309.1</ele>
        <time>2017-12-18T14:20:26Z</time>
      </trkpt>
      <trkpt lat="38.3738980" lon="-0.6560090">
        <ele>308.2</ele>
        <time>2017-12-18T14:20:27Z</time>
      </trkpt>
      <trkpt lat="38.3738290" lon="-0.6560270">
        <ele>308.2</ele>
        <time>2017-12-18T14:20:28Z</time>
      </trkpt>
      <trkpt lat="38.3737660" lon="-0.6560360">
        <ele>308.2</ele>
        <time>2017-12-18T14:20:29Z</time>
      </trkpt>
      <trkpt lat="38.3737130" lon="-0.6560190">
        <ele>308.2</ele>
        <time>2017-12-18T14:20:30Z</time>
      </trkpt>
      <trkpt lat="38.3736680" lon="-0.6559990">
        <ele>308.2</ele>
        <time>2017-12-18T14:20:31Z</time>
      </trkpt>
      <trkpt lat="38.3736280" lon="-0.6559980">
        <ele>308.2</ele>
        <time>2017-12-18T14:20:32Z</time>
      </trkpt>
      <trkpt lat="38.3735850" lon="-0.6560120">
        <ele>304.2</ele>
        <time>2017-12-18T14:20:33Z</time>
      </trkpt>
      <trkpt lat="38.3735450" lon="-0.6560370">
        <ele>304.2</ele>
        <time>2017-12-18T14:20:34Z</time>
      </trkpt>
      <trkpt lat="38.3735010" lon="-0.6560510">
        <ele>303.1</ele>
        <time>2017-12-18T14:20:35Z</time>
      </trkpt>
      <trkpt lat="38.3734520" lon="-0.6560450">
        <ele>303.1</ele>
        <time>2017-12-18T14:20:36Z</time>
      </trkpt>
      <trkpt lat="38.3734010" lon="-0.6560240">
        <ele>303.1</ele>
        <time>2017-12-18T14:20:37Z</time>
      </trkpt>
      <trkpt lat="38.3733450" lon="-0.6560010">
        <ele>303.1</ele>
        <time>2017-12-18T14:20:38Z</time>
      </trkpt>
      <trkpt lat="38.3732850" lon="-0.6559870">
        <ele>301.1</ele>
        <time>2017-12-18T14:20:39Z</time>
      </trkpt>
      <trkpt lat="38.3732230" lon="-0.6559860">
        <ele>301.1</ele>
        <time>2017-12-18T14:20:40Z</time>
      </trkpt>
      <trkpt lat="38.3731600" lon="-0.6559890">
        <ele>300.1</ele>
        <time>2017-12-18T14:20:41Z</time>
      </trkpt>
      <trkpt lat="38.3730990" lon="-0.6559840">
        <ele>300.1</ele>
        <time>2017-12-18T14:20:42Z</time>
      </trkpt>
      <trkpt lat="38.3730520" lon="-0.6559670">
        <ele>298.1</ele>
        <time>2017-12-18T14:20:43Z</time>
      </trkpt>
      <trkpt lat="38.3730190" lon="-0.6559360">
        <ele>298.1</ele>
        <time>2017-12-18T14:20:44Z</time>
      </trkpt>
      <trkpt lat="38.3730000" lon="-0.6558970">
        <ele>298.1</ele>
        <time>2017-12-18T14:20:45Z</time>
      </trkpt>
      <trkpt lat="38.3729870" lon="-0.6558500">
        <ele>298.1</ele>
        <time>2017-12-18T14:20:46Z</time>
      </trkpt>
      <trkpt lat="38.3729740" lon="-0.6557940">
        <ele>296.1</ele>
        <time>2017-12-18T14:20:47Z</time>
      </trkpt>
      <trkpt lat="38.3729600" lon="-0.6557310">
        <ele>296.1</ele>
        <time>2017-12-18T14:20:48Z</time>
      </trkpt>
      <trkpt lat="38.3729380" lon="-0.6556610">
        <ele>294.1</ele>
        <time>2017-12-18T14:20:49Z</time>
      </trkpt>
      <trkpt lat="38.3729130" lon="-0.6556150">
        <ele>294.1</ele>
        <time>2017-12-18T14:20:50Z</time>
      </trkpt>
      <trkpt lat="38.3728880" lon="-0.6555930">
        <ele>293.2</ele>
        <time>2017-12-18T14:20:51Z</time>
      </trkpt>
      <trkpt lat="38.3728570" lon="-0.6555820">
        <ele>293.2</ele>
        <time>2017-12-18T14:20:52Z</time>
      </trkpt>
      <trkpt lat="38.3728300" lon="-0.6555790">
        <ele>293.2</ele>
        <time>2017-12-18T14:20:53Z</time>
      </trkpt>
      <trkpt lat="38.3728050" lon="-0.6555770">
        <ele>293.2</ele>
        <time>2017-12-18T14:20:54Z</time>
      </trkpt>
      <trkpt lat="38.3727770" lon="-0.6555850">
        <ele>293.2</ele>
        <time>2017-12-18T14:20:55Z</time>
      </trkpt>
      <trkpt lat="38.3727520" lon="-0.6555990">
        <ele>293.2</ele>
        <time>2017-12-18T14:20:56Z</time>
      </trkpt>
      <trkpt lat="38.3727270" lon="-0.6556150">
        <ele>294.1</ele>
        <time>2017-12-18T14:20:57Z</time>
      </trkpt>
      <trkpt lat="38.3727020" lon="-0.6556390">
        <ele>294.1</ele>
        <time>2017-12-18T14:20:58Z</time>
      </trkpt>
      <trkpt lat="38.3726760" lon="-0.6556590">
        <ele>294.1</ele>
        <time>2017-12-18T14:20:59Z</time>
      </trkpt>
      <trkpt lat="38.3726500" lon="-0.6556820">
        <ele>294.1</ele>
        <time>2017-12-18T14:21:00Z</time>
      </trkpt>
      <trkpt lat="38.3726230" lon="-0.6557120">
        <ele>294.1</ele>
        <time>2017-12-18T14:21:01Z</time>
      </trkpt>
      <trkpt lat="38.3725890" lon="-0.6557450">
        <ele>294.1</ele>
        <time>2017-12-18T14:21:02Z</time>
      </trkpt>
      <trkpt lat="38.3725510" lon="-0.6557840">
        <ele>292.2</ele>
        <time>2017-12-18T14:21:03Z</time>
      </trkpt>
      <trkpt lat="38.3725080" lon="-0.6558310">
        <ele>292.2</ele>
        <time>2017-12-18T14:21:04Z</time>
      </trkpt>
      <trkpt lat="38.3724590" lon="-0.6558740">
        <ele>292.2</ele>
        <time>2017-12-18T14:21:05Z</time>
      </trkpt>
      <trkpt lat="38.3724110" lon="-0.6558940">
        <ele>292.2</ele>
        <time>2017-12-18T14:21:06Z</time>
      </trkpt>
      <trkpt lat="38.3723640" lon="-0.6558940">
        <ele>291.1</ele>
        <time>2017-12-18T14:21:07Z</time>
      </trkpt>
      <trkpt lat="38.3723220" lon="-0.6558790">
        <ele>291.1</ele>
        <time>2017-12-18T14:21:08Z</time>
      </trkpt>
      <trkpt lat="38.3722750" lon="-0.6558520">
        <ele>291.1</ele>
        <time>2017-12-18T14:21:09Z</time>
      </trkpt>
      <trkpt lat="38.3722330" lon="-0.6558250">
        <ele>291.1</ele>
        <time>2017-12-18T14:21:10Z</time>
      </trkpt>
      <trkpt lat="38.3721970" lon="-0.6557960">
        <ele>290.2</ele>
        <time>2017-12-18T14:21:11Z</time>
      </trkpt>
      <trkpt lat="38.3721590" lon="-0.6557730">
        <ele>290.2</ele>
        <time>2017-12-18T14:21:12Z</time>
      </trkpt>
      <trkpt lat="38.3721220" lon="-0.6557540">
        <ele>290.2</ele>
        <time>2017-12-18T14:21:13Z</time>
      </trkpt>
      <trkpt lat="38.3720910" lon="-0.6557350">
        <ele>290.2</ele>
        <time>2017-12-18T14:21:14Z</time>
      </trkpt>
      <trkpt lat="38.3720630" lon="-0.6557130">
        <ele>291.1</ele>
        <time>2017-12-18T14:21:15Z</time>
      </trkpt>
      <trkpt lat="38.3720350" lon="-0.6556930">
        <ele>291.1</ele>
        <time>2017-12-18T14:21:16Z</time>
      </trkpt>
      <trkpt lat="38.3720090" lon="-0.6556710">
        <ele>291.1</ele>
        <time>2017-12-18T14:21:17Z</time>
      </trkpt>
      <trkpt lat="38.3719840" lon="-0.6556470">
        <ele>291.1</ele>
        <time>2017-12-18T14:21:18Z</time>
      </trkpt>
      <trkpt lat="38.3719570" lon="-0.6556250">
        <ele>292.2</ele>
        <time>2017-12-18T14:21:19Z</time>
      </trkpt>
      <trkpt lat="38.3719300" lon="-0.6556010">
        <ele>292.2</ele>
        <time>2017-12-18T14:21:20Z</time>
      </trkpt>
      <trkpt lat="38.3719040" lon="-0.6555810">
        <ele>292.2</ele>
        <time>2017-12-18T14:21:21Z</time>
      </trkpt>
      <trkpt lat="38.3718790" lon="-0.6555640">
        <ele>292.2</ele>
        <time>2017-12-18T14:21:22Z</time>
      </trkpt>
      <trkpt lat="38.3718520" lon="-0.6555530">
        <ele>293.2</ele>
        <time>2017-12-18T14:21:23Z</time>
      </trkpt>
      <trkpt lat="38.3718260" lon="-0.6555420">
        <ele>293.2</ele>
        <time>2017-12-18T14:21:24Z</time>
      </trkpt>
      <trkpt lat="38.3718050" lon="-0.6555310">
        <ele>293.2</ele>
        <time>2017-12-18T14:21:25Z</time>
      </trkpt>
      <trkpt lat="38.3717790" lon="-0.6555140">
        <ele>293.2</ele>
        <time>2017-12-18T14:21:26Z</time>
      </trkpt>
      <trkpt lat="38.3717520" lon="-0.6555030">
        <ele>294.1</ele>
        <time>2017-12-18T14:21:27Z</time>
      </trkpt>
      <trkpt lat="38.3717200" lon="-0.6554880">
        <ele>294.1</ele>
        <time>2017-12-18T14:21:28Z</time>
      </trkpt>
      <trkpt lat="38.3716830" lon="-0.6554700">
        <ele>294.1</ele>
        <time>2017-12-18T14:21:29Z</time>
      </trkpt>
      <trkpt lat="38.3716380" lon="-0.6554510">
        <ele>294.1</ele>
        <time>2017-12-18T14:21:30Z</time>
      </trkpt>
      <trkpt lat="38.3715830" lon="-0.6554110">
        <ele>294.1</ele>
        <time>2017-12-18T14:21:31Z</time>
      </trkpt>
      <trkpt lat="38.3715280" lon="-0.6553630">
        <ele>294.1</ele>
        <time>2017-12-18T14:21:32Z</time>
      </trkpt>
      <trkpt lat="38.3714730" lon="-0.6553240">
        <ele>294.1</ele>
        <time>2017-12-18T14:21:33Z</time>
      </trkpt>
      <trkpt lat="38.3714200" lon="-0.6553050">
        <ele>294.1</ele>
        <time>2017-12-18T14:21:34Z</time>
      </trkpt>
      <trkpt lat="38.3713600" lon="-0.6553010">
        <ele>289.1</ele>
        <time>2017-12-18T14:21:35Z</time>
      </trkpt>
      <trkpt lat="38.3712960" lon="-0.6552940">
        <ele>289.1</ele>
        <time>2017-12-18T14:21:36Z</time>
      </trkpt>
      <trkpt lat="38.3712290" lon="-0.6552830">
        <ele>288.2</ele>
        <time>2017-12-18T14:21:37Z</time>
      </trkpt>
      <trkpt lat="38.3711580" lon="-0.6552620">
        <ele>288.2</ele>
        <time>2017-12-18T14:21:38Z</time>
      </trkpt>
      <trkpt lat="38.3710830" lon="-0.6552430">
        <ele>288.2</ele>
        <time>2017-12-18T14:21:39Z</time>
      </trkpt>
      <trkpt lat="38.3710120" lon="-0.6552070">
        <ele>288.2</ele>
        <time>2017-12-18T14:21:40Z</time>
      </trkpt>
      <trkpt lat="38.3709510" lon="-0.6551710">
        <ele>288.2</ele>
        <time>2017-12-18T14:21:41Z</time>
      </trkpt>
      <trkpt lat="38.3709000" lon="-0.6551520">
        <ele>288.2</ele>
        <time>2017-12-18T14:21:42Z</time>
      </trkpt>
      <trkpt lat="38.3708510" lon="-0.6551540">
        <ele>283.2</ele>
        <time>2017-12-18T14:21:43Z</time>
      </trkpt>
      <trkpt lat="38.3707980" lon="-0.6551630">
        <ele>283.2</ele>
        <time>2017-12-18T14:21:44Z</time>
      </trkpt>
      <trkpt lat="38.3707410" lon="-0.6551760">
        <ele>282.1</ele>
        <time>2017-12-18T14:21:45Z</time>
      </trkpt>
      <trkpt lat="38.3706740" lon="-0.6551820">
        <ele>282.1</ele>
        <time>2017-12-18T14:21:46Z</time>
      </trkpt>
      <trkpt lat="38.3705980" lon="-0.6551870">
        <ele>280.1</ele>
        <time>2017-12-18T14:21:47Z</time>
      </trkpt>
      <trkpt lat="38.3705170" lon="-0.6551830">
        <ele>280.1</ele>
        <time>2017-12-18T14:21:48Z</time>
      </trkpt>
      <trkpt lat="38.3704330" lon="-0.6551710">
        <ele>278.1</ele>
        <time>2017-12-18T14:21:49Z</time>
      </trkpt>
      <trkpt lat="38.3703520" lon="-0.6551540">
        <ele>278.1</ele>
        <time>2017-12-18T14:21:50Z</time>
      </trkpt>
      <trkpt lat="38.3702740" lon="-0.6551450">
        <ele>278.1</ele>
        <time>2017-12-18T14:21:51Z</time>
      </trkpt>
      <trkpt lat="38.3702090" lon="-0.6551410">
        <ele>278.1</ele>
        <time>2017-12-18T14:21:52Z</time>
      </trkpt>
      <trkpt lat="38.3701520" lon="-0.6551460">
        <ele>277.2</ele>
        <time>2017-12-18T14:21:53Z</time>
      </trkpt>
      <trkpt lat="38.3700970" lon="-0.6551520">
        <ele>277.2</ele>
        <time>2017-12-18T14:21:54Z</time>
      </trkpt>
      <trkpt lat="38.3700430" lon="-0.6551650">
        <ele>275.1</ele>
        <time>2017-12-18T14:21:55Z</time>
      </trkpt>
      <trkpt lat="38.3699980" lon="-0.6551920">
        <ele>275.1</ele>
        <time>2017-12-18T14:21:56Z</time>
      </trkpt>
      <trkpt lat="38.3699590" lon="-0.6552180">
        <ele>274.2</ele>
        <time>2017-12-18T14:21:57Z</time>
      </trkpt>
      <trkpt lat="38.3699360" lon="-0.6552380">
        <ele>274.2</ele>
        <time>2017-12-18T14:21:58Z</time>
      </trkpt>
      <trkpt lat="38.3699210" lon="-0.6552470">
        <ele>272.2</ele>
        <time>2017-12-18T14:21:59Z</time>
      </trkpt>
      <trkpt lat="38.3699150" lon="-0.6552560">
        <ele>272.2</ele>
        <time>2017-12-18T14:22:00Z</time>
      </trkpt>
      <trkpt lat="38.3698990" lon="-0.6552710">
        <ele>272.2</ele>
        <time>2017-12-18T14:22:01Z</time>
      </trkpt>
      <trkpt lat="38.3698840" lon="-0.6552890">
        <ele>272.2</ele>
        <time>2017-12-18T14:22:02Z</time>
      </trkpt>
      <trkpt lat="38.3698650" lon="-0.6553130">
        <ele>272.2</ele>
        <time>2017-12-18T14:22:03Z</time>
      </trkpt>
      <trkpt lat="38.3698370" lon="-0.6553410">
        <ele>272.2</ele>
        <time>2017-12-18T14:22:04Z</time>
      </trkpt>
      <trkpt lat="38.3697980" lon="-0.6553750">
        <ele>270.2</ele>
        <time>2017-12-18T14:22:05Z</time>
      </trkpt>
      <trkpt lat="38.3697510" lon="-0.6554130">
        <ele>270.2</ele>
        <time>2017-12-18T14:22:06Z</time>
      </trkpt>
      <trkpt lat="38.3696990" lon="-0.6554480">
        <ele>269.1</ele>
        <time>2017-12-18T14:22:07Z</time>
      </trkpt>
      <trkpt lat="38.3696470" lon="-0.6554700">
        <ele>269.1</ele>
        <time>2017-12-18T14:22:08Z</time>
      </trkpt>
      <trkpt lat="38.3695960" lon="-0.6554830">
        <ele>267.2</ele>
        <time>2017-12-18T14:22:09Z</time>
      </trkpt>
      <trkpt lat="38.3695560" lon="-0.6554770">
        <ele>267.2</ele>
        <time>2017-12-18T14:22:10Z</time>
      </trkpt>
      <trkpt lat="38.3695310" lon="-0.6554620">
        <ele>267.2</ele>
        <time>2017-12-18T14:22:11Z</time>
      </trkpt>
      <trkpt lat="38.3695120" lon="-0.6554430">
        <ele>267.2</ele>
        <time>2017-12-18T14:22:12Z</time>
      </trkpt>
      <trkpt lat="38.3694970" lon="-0.6554190">
        <ele>267.2</ele>
        <time>2017-12-18T14:22:13Z</time>
      </trkpt>
      <trkpt lat="38.3694810" lon="-0.6553920">
        <ele>267.2</ele>
        <time>2017-12-18T14:22:14Z</time>
      </trkpt>
      <trkpt lat="38.3694600" lon="-0.6553660">
        <ele>267.2</ele>
        <time>2017-12-18T14:22:15Z</time>
      </trkpt>
      <trkpt lat="38.3694360" lon="-0.6553420">
        <ele>267.2</ele>
        <time>2017-12-18T14:22:16Z</time>
      </trkpt>
      <trkpt lat="38.3694110" lon="-0.6553230">
        <ele>267.2</ele>
        <time>2017-12-18T14:22:17Z</time>
      </trkpt>
      <trkpt lat="38.3694020" lon="-0.6553100">
        <ele>267.2</ele>
        <time>2017-12-18T14:22:18Z</time>
      </trkpt>
      <trkpt lat="38.3693920" lon="-0.6553020">
        <ele>267.2</ele>
        <time>2017-12-18T14:22:19Z</time>
      </trkpt>
      <trkpt lat="38.3693870" lon="-0.6552950">
        <ele>267.2</ele>
        <time>2017-12-18T14:22:20Z</time>
      </trkpt>
      <trkpt lat="38.3693860" lon="-0.6552940">
        <ele>267.2</ele>
        <time>2017-12-18T14:22:21Z</time>
      </trkpt>
      <trkpt lat="38.3693870" lon="-0.6552980">
        <ele>267.2</ele>
        <time>2017-12-18T14:22:22Z</time>
      </trkpt>
      <trkpt lat="38.3693870" lon="-0.6553050">
        <ele>267.2</ele>
        <time>2017-12-18T14:22:23Z</time>
      </trkpt>
      <trkpt lat="38.3693880" lon="-0.6553190">
        <ele>267.2</ele>
        <time>2017-12-18T14:22:24Z</time>
      </trkpt>
      <trkpt lat="38.3693920" lon="-0.6553330">
        <ele>267.2</ele>
        <time>2017-12-18T14:22:25Z</time>
      </trkpt>
      <trkpt lat="38.3693990" lon="-0.6553510">
        <ele>267.2</ele>
        <time>2017-12-18T14:22:26Z</time>
      </trkpt>
      <trkpt lat="38.3694060" lon="-0.6553680">
        <ele>267.2</ele>
        <time>2017-12-18T14:22:27Z</time>
      </trkpt>
      <trkpt lat="38.3694140" lon="-0.6553890">
        <ele>267.2</ele>
        <time>2017-12-18T14:22:28Z</time>
      </trkpt>
      <trkpt lat="38.3694190" lon="-0.6554110">
        <ele>268.1</ele>
        <time>2017-12-18T14:22:29Z</time>
      </trkpt>
      <trkpt lat="38.3694270" lon="-0.6554350">
        <ele>268.1</ele>
        <time>2017-12-18T14:22:30Z</time>
      </trkpt>
      <trkpt lat="38.3694320" lon="-0.6554580">
        <ele>268.1</ele>
        <time>2017-12-18T14:22:31Z</time>
      </trkpt>
      <trkpt lat="38.3694390" lon="-0.6554810">
        <ele>268.1</ele>
        <time>2017-12-18T14:22:32Z</time>
      </trkpt>
      <trkpt lat="38.3694470" lon="-0.6555050">
        <ele>269.1</ele>
        <time>2017-12-18T14:22:33Z</time>
      </trkpt>
      <trkpt lat="38.3694560" lon="-0.6555300">
        <ele>269.1</ele>
        <time>2017-12-18T14:22:34Z</time>
      </trkpt>
      <trkpt lat="38.3694670" lon="-0.6555530">
        <ele>269.1</ele>
        <time>2017-12-18T14:22:35Z</time>
      </trkpt>
      <trkpt lat="38.3694740" lon="-0.6555690">
        <ele>269.1</ele>
        <time>2017-12-18T14:22:36Z</time>
      </trkpt>
      <trkpt lat="38.3694810" lon="-0.6555820">
        <ele>269.1</ele>
        <time>2017-12-18T14:22:37Z</time>
      </trkpt>
      <trkpt lat="38.3694890" lon="-0.6555970">
        <ele>269.1</ele>
        <time>2017-12-18T14:22:38Z</time>
      </trkpt>
      <trkpt lat="38.3694980" lon="-0.6556150">
        <ele>269.1</ele>
        <time>2017-12-18T14:22:39Z</time>
      </trkpt>
      <trkpt lat="38.3695090" lon="-0.6556350">
        <ele>269.1</ele>
        <time>2017-12-18T14:22:40Z</time>
      </trkpt>
      <trkpt lat="38.3695210" lon="-0.6556570">
        <ele>269.1</ele>
        <time>2017-12-18T14:22:41Z</time>
      </trkpt>
      <trkpt lat="38.3695330" lon="-0.6556800">
        <ele>269.1</ele>
        <time>2017-12-18T14:22:42Z</time>
      </trkpt>
      <trkpt lat="38.3695420" lon="-0.6557020">
        <ele>270.2</ele>
        <time>2017-12-18T14:22:43Z</time>
      </trkpt>
      <trkpt lat="38.3695490" lon="-0.6557230">
        <ele>270.2</ele>
        <time>2017-12-18T14:22:44Z</time>
      </trkpt>
      <trkpt lat="38.3695570" lon="-0.6557430">
        <ele>270.2</ele>
        <time>2017-12-18T14:22:45Z</time>
      </trkpt>
      <trkpt lat="38.3695660" lon="-0.6557640">
        <ele>270.2</ele>
        <time>2017-12-18T14:22:46Z</time>
      </trkpt>
      <trkpt lat="38.3695720" lon="-0.6557840">
        <ele>271.1</ele>
        <time>2017-12-18T14:22:47Z</time>
      </trkpt>
      <trkpt lat="38.3695780" lon="-0.6558050">
        <ele>271.1</ele>
        <time>2017-12-18T14:22:48Z</time>
      </trkpt>
      <trkpt lat="38.3695860" lon="-0.6558250">
        <ele>272.2</ele>
        <time>2017-12-18T14:22:49Z</time>
      </trkpt>
      <trkpt lat="38.3695930" lon="-0.6558460">
        <ele>272.2</ele>
        <time>2017-12-18T14:22:50Z</time>
      </trkpt>
      <trkpt lat="38.3696000" lon="-0.6558670">
        <ele>272.2</ele>
        <time>2017-12-18T14:22:51Z</time>
      </trkpt>
      <trkpt lat="38.3696050" lon="-0.6558860">
        <ele>272.2</ele>
        <time>2017-12-18T14:22:52Z</time>
      </trkpt>
      <trkpt lat="38.3696130" lon="-0.6559040">
        <ele>273.1</ele>
        <time>2017-12-18T14:22:53Z</time>
      </trkpt>
      <trkpt lat="38.3696230" lon="-0.6559250">
        <ele>273.1</ele>
        <time>2017-12-18T14:22:54Z</time>
      </trkpt>
      <trkpt lat="38.3696310" lon="-0.6559460">
        <ele>273.1</ele>
        <time>2017-12-18T14:22:55Z</time>
      </trkpt>
      <trkpt lat="38.3696340" lon="-0.6559670">
        <ele>273.1</ele>
        <time>2017-12-18T14:22:56Z</time>
      </trkpt>
      <trkpt lat="38.3696410" lon="-0.6559910">
        <ele>273.1</ele>
        <time>2017-12-18T14:22:57Z</time>
      </trkpt>
      <trkpt lat="38.3696450" lon="-0.6560120">
        <ele>273.1</ele>
        <time>2017-12-18T14:22:58Z</time>
      </trkpt>
      <trkpt lat="38.3696520" lon="-0.6560330">
        <ele>273.1</ele>
        <time>2017-12-18T14:22:59Z</time>
      </trkpt>
      <trkpt lat="38.3696580" lon="-0.6560560">
        <ele>273.1</ele>
        <time>2017-12-18T14:23:00Z</time>
      </trkpt>
      <trkpt lat="38.3696670" lon="-0.6560820">
        <ele>274.2</ele>
        <time>2017-12-18T14:23:01Z</time>
      </trkpt>
      <trkpt lat="38.3696760" lon="-0.6561080">
        <ele>274.2</ele>
        <time>2017-12-18T14:23:02Z</time>
      </trkpt>
      <trkpt lat="38.3696860" lon="-0.6561310">
        <ele>274.2</ele>
        <time>2017-12-18T14:23:03Z</time>
      </trkpt>
      <trkpt lat="38.3696990" lon="-0.6561540">
        <ele>274.2</ele>
        <time>2017-12-18T14:23:04Z</time>
      </trkpt>
      <trkpt lat="38.3697140" lon="-0.6561790">
        <ele>274.2</ele>
        <time>2017-12-18T14:23:05Z</time>
      </trkpt>
      <trkpt lat="38.3697280" lon="-0.6562070">
        <ele>274.2</ele>
        <time>2017-12-18T14:23:06Z</time>
      </trkpt>
      <trkpt lat="38.3697430" lon="-0.6562330">
        <ele>274.2</ele>
        <time>2017-12-18T14:23:07Z</time>
      </trkpt>
      <trkpt lat="38.3697600" lon="-0.6562590">
        <ele>274.2</ele>
        <time>2017-12-18T14:23:08Z</time>
      </trkpt>
      <trkpt lat="38.3697790" lon="-0.6562860">
        <ele>274.2</ele>
        <time>2017-12-18T14:23:09Z</time>
      </trkpt>
      <trkpt lat="38.3698010" lon="-0.6563160">
        <ele>274.2</ele>
        <time>2017-12-18T14:23:10Z</time>
      </trkpt>
      <trkpt lat="38.3698230" lon="-0.6563520">
        <ele>274.2</ele>
        <time>2017-12-18T14:23:11Z</time>
      </trkpt>
      <trkpt lat="38.3698440" lon="-0.6563940">
        <ele>274.2</ele>
        <time>2017-12-18T14:23:12Z</time>
      </trkpt>
      <trkpt lat="38.3698640" lon="-0.6564360">
        <ele>274.2</ele>
        <time>2017-12-18T14:23:13Z</time>
      </trkpt>
      <trkpt lat="38.3698810" lon="-0.6564810">
        <ele>274.2</ele>
        <time>2017-12-18T14:23:14Z</time>
      </trkpt>
      <trkpt lat="38.3698960" lon="-0.6565170">
        <ele>274.2</ele>
        <time>2017-12-18T14:23:15Z</time>
      </trkpt>
      <trkpt lat="38.3699040" lon="-0.6565490">
        <ele>274.2</ele>
        <time>2017-12-18T14:23:16Z</time>
      </trkpt>
      <trkpt lat="38.3699030" lon="-0.6565760">
        <ele>274.2</ele>
        <time>2017-12-18T14:23:17Z</time>
      </trkpt>
      <trkpt lat="38.3698990" lon="-0.6566000">
        <ele>274.2</ele>
        <time>2017-12-18T14:23:18Z</time>
      </trkpt>
      <trkpt lat="38.3698880" lon="-0.6566240">
        <ele>274.2</ele>
        <time>2017-12-18T14:23:19Z</time>
      </trkpt>
      <trkpt lat="38.3698690" lon="-0.6566430">
        <ele>274.2</ele>
        <time>2017-12-18T14:23:20Z</time>
      </trkpt>
      <trkpt lat="38.3698470" lon="-0.6566620">
        <ele>275.1</ele>
        <time>2017-12-18T14:23:21Z</time>
      </trkpt>
      <trkpt lat="38.3698270" lon="-0.6566860">
        <ele>275.1</ele>
        <time>2017-12-18T14:23:22Z</time>
      </trkpt>
      <trkpt lat="38.3698060" lon="-0.6567110">
        <ele>275.1</ele>
        <time>2017-12-18T14:23:23Z</time>
      </trkpt>
      <trkpt lat="38.3697860" lon="-0.6567380">
        <ele>275.1</ele>
        <time>2017-12-18T14:23:24Z</time>
      </trkpt>
      <trkpt lat="38.3697670" lon="-0.6567650">
        <ele>275.1</ele>
        <time>2017-12-18T14:23:25Z</time>
      </trkpt>
      <trkpt lat="38.3697500" lon="-0.6567950">
        <ele>275.1</ele>
        <time>2017-12-18T14:23:26Z</time>
      </trkpt>
      <trkpt lat="38.3697310" lon="-0.6568270">
        <ele>275.1</ele>
        <time>2017-12-18T14:23:27Z</time>
      </trkpt>
      <trkpt lat="38.3697100" lon="-0.6568600">
        <ele>275.1</ele>
        <time>2017-12-18T14:23:28Z</time>
      </trkpt>
      <trkpt lat="38.3696880" lon="-0.6568950">
        <ele>275.1</ele>
        <time>2017-12-18T14:23:29Z</time>
      </trkpt>
      <trkpt lat="38.3696640" lon="-0.6569320">
        <ele>275.1</ele>
        <time>2017-12-18T14:23:30Z</time>
      </trkpt>
      <trkpt lat="38.3696390" lon="-0.6569700">
        <ele>275.1</ele>
        <time>2017-12-18T14:23:31Z</time>
      </trkpt>
      <trkpt lat="38.3696160" lon="-0.6570140">
        <ele>275.1</ele>
        <time>2017-12-18T14:23:32Z</time>
      </trkpt>
      <trkpt lat="38.3695970" lon="-0.6570610">
        <ele>275.1</ele>
        <time>2017-12-18T14:23:33Z</time>
      </trkpt>
      <trkpt lat="38.3695800" lon="-0.6571010">
        <ele>275.1</ele>
        <time>2017-12-18T14:23:34Z</time>
      </trkpt>
      <trkpt lat="38.3695710" lon="-0.6571360">
        <ele>275.1</ele>
        <time>2017-12-18T14:23:35Z</time>
      </trkpt>
      <trkpt lat="38.3695620" lon="-0.6571710">
        <ele>275.1</ele>
        <time>2017-12-18T14:23:36Z</time>
      </trkpt>
      <trkpt lat="38.3695540" lon="-0.6572110">
        <ele>275.1</ele>
        <time>2017-12-18T14:23:37Z</time>
      </trkpt>
      <trkpt lat="38.3695580" lon="-0.6572610">
        <ele>275.1</ele>
        <time>2017-12-18T14:23:38Z</time>
      </trkpt>
      <trkpt lat="38.3695660" lon="-0.6573060">
        <ele>275.1</ele>
        <time>2017-12-18T14:23:39Z</time>
      </trkpt>
      <trkpt lat="38.3695820" lon="-0.6573340">
        <ele>275.1</ele>
        <time>2017-12-18T14:23:40Z</time>
      </trkpt>
      <trkpt lat="38.3695940" lon="-0.6573630">
        <ele>276.2</ele>
        <time>2017-12-18T14:23:41Z</time>
      </trkpt>
      <trkpt lat="38.3696060" lon="-0.6573930">
        <ele>276.2</ele>
        <time>2017-12-18T14:23:42Z</time>
      </trkpt>
      <trkpt lat="38.3696180" lon="-0.6574220">
        <ele>276.2</ele>
        <time>2017-12-18T14:23:43Z</time>
      </trkpt>
      <trkpt lat="38.3696300" lon="-0.6574460">
        <ele>276.2</ele>
        <time>2017-12-18T14:23:44Z</time>
      </trkpt>
      <trkpt lat="38.3696440" lon="-0.6574730">
        <ele>276.2</ele>
        <time>2017-12-18T14:23:45Z</time>
      </trkpt>
      <trkpt lat="38.3696590" lon="-0.6575020">
        <ele>276.2</ele>
        <time>2017-12-18T14:23:46Z</time>
      </trkpt>
      <trkpt lat="38.3696730" lon="-0.6575280">
        <ele>276.2</ele>
        <time>2017-12-18T14:23:47Z</time>
      </trkpt>
      <trkpt lat="38.3696920" lon="-0.6575550">
        <ele>276.2</ele>
        <time>2017-12-18T14:23:48Z</time>
      </trkpt>
      <trkpt lat="38.3697120" lon="-0.6575830">
        <ele>276.2</ele>
        <time>2017-12-18T14:23:49Z</time>
      </trkpt>
      <trkpt lat="38.3697280" lon="-0.6576140">
        <ele>276.2</ele>
        <time>2017-12-18T14:23:50Z</time>
      </trkpt>
      <trkpt lat="38.3697410" lon="-0.6576460">
        <ele>279.2</ele>
        <time>2017-12-18T14:23:51Z</time>
      </trkpt>
      <trkpt lat="38.3697520" lon="-0.6576780">
        <ele>279.2</ele>
        <time>2017-12-18T14:23:52Z</time>
      </trkpt>
      <trkpt lat="38.3697600" lon="-0.6577080">
        <ele>279.2</ele>
        <time>2017-12-18T14:23:53Z</time>
      </trkpt>
      <trkpt lat="38.3697680" lon="-0.6577400">
        <ele>279.2</ele>
        <time>2017-12-18T14:23:54Z</time>
      </trkpt>
      <trkpt lat="38.3697740" lon="-0.6577730">
        <ele>279.2</ele>
        <time>2017-12-18T14:23:55Z</time>
      </trkpt>
      <trkpt lat="38.3697810" lon="-0.6578090">
        <ele>279.2</ele>
        <time>2017-12-18T14:23:56Z</time>
      </trkpt>
      <trkpt lat="38.3697860" lon="-0.6578470">
        <ele>279.2</ele>
        <time>2017-12-18T14:23:57Z</time>
      </trkpt>
      <trkpt lat="38.3697890" lon="-0.6578870">
        <ele>279.2</ele>
        <time>2017-12-18T14:23:58Z</time>
      </trkpt>
      <trkpt lat="38.3697950" lon="-0.6579280">
        <ele>280.1</ele>
        <time>2017-12-18T14:23:59Z</time>
      </trkpt>
      <trkpt lat="38.3697990" lon="-0.6579690">
        <ele>280.1</ele>
        <time>2017-12-18T14:24:00Z</time>
      </trkpt>
      <trkpt lat="38.3698000" lon="-0.6580080">
        <ele>280.1</ele>
        <time>2017-12-18T14:24:01Z</time>
      </trkpt>
      <trkpt lat="38.3698000" lon="-0.6580470">
        <ele>280.1</ele>
        <time>2017-12-18T14:24:02Z</time>
      </trkpt>
      <trkpt lat="38.3697990" lon="-0.6580870">
        <ele>280.1</ele>
        <time>2017-12-18T14:24:03Z</time>
      </trkpt>
      <trkpt lat="38.3697990" lon="-0.6581230">
        <ele>280.1</ele>
        <time>2017-12-18T14:24:04Z</time>
      </trkpt>
      <trkpt lat="38.3697980" lon="-0.6581550">
        <ele>280.1</ele>
        <time>2017-12-18T14:24:05Z</time>
      </trkpt>
      <trkpt lat="38.3697940" lon="-0.6581840">
        <ele>280.1</ele>
        <time>2017-12-18T14:24:06Z</time>
      </trkpt>
      <trkpt lat="38.3697870" lon="-0.6582120">
        <ele>281.2</ele>
        <time>2017-12-18T14:24:07Z</time>
      </trkpt>
      <trkpt lat="38.3697780" lon="-0.6582400">
        <ele>281.2</ele>
        <time>2017-12-18T14:24:08Z</time>
      </trkpt>
      <trkpt lat="38.3697680" lon="-0.6582710">
        <ele>281.2</ele>
        <time>2017-12-18T14:24:09Z</time>
      </trkpt>
      <trkpt lat="38.3697610" lon="-0.6583040">
        <ele>281.2</ele>
        <time>2017-12-18T14:24:10Z</time>
      </trkpt>
      <trkpt lat="38.3697560" lon="-0.6583390">
        <ele>282.1</ele>
        <time>2017-12-18T14:24:11Z</time>
      </trkpt>
      <trkpt lat="38.3697530" lon="-0.6583750">
        <ele>282.1</ele>
        <time>2017-12-18T14:24:12Z</time>
      </trkpt>
      <trkpt lat="38.3697540" lon="-0.6584120">
        <ele>282.1</ele>
        <time>2017-12-18T14:24:13Z</time>
      </trkpt>
      <trkpt lat="38.3697550" lon="-0.6584480">
        <ele>282.1</ele>
        <time>2017-12-18T14:24:14Z</time>
      </trkpt>
      <trkpt lat="38.3697540" lon="-0.6584850">
        <ele>282.1</ele>
        <time>2017-12-18T14:24:15Z</time>
      </trkpt>
      <trkpt lat="38.3697550" lon="-0.6585230">
        <ele>282.1</ele>
        <time>2017-12-18T14:24:16Z</time>
      </trkpt>
      <trkpt lat="38.3697570" lon="-0.6585580">
        <ele>283.2</ele>
        <time>2017-12-18T14:24:17Z</time>
      </trkpt>
      <trkpt lat="38.3697570" lon="-0.6585900">
        <ele>283.2</ele>
        <time>2017-12-18T14:24:18Z</time>
      </trkpt>
      <trkpt lat="38.3697580" lon="-0.6586230">
        <ele>283.2</ele>
        <time>2017-12-18T14:24:19Z</time>
      </trkpt>
      <trkpt lat="38.3697590" lon="-0.6586560">
        <ele>283.2</ele>
        <time>2017-12-18T14:24:20Z</time>
      </trkpt>
      <trkpt lat="38.3697620" lon="-0.6586910">
        <ele>283.2</ele>
        <time>2017-12-18T14:24:21Z</time>
      </trkpt>
      <trkpt lat="38.3697630" lon="-0.6587220">
        <ele>283.2</ele>
        <time>2017-12-18T14:24:22Z</time>
      </trkpt>
      <trkpt lat="38.3697640" lon="-0.6587540">
        <ele>283.2</ele>
        <time>2017-12-18T14:24:23Z</time>
      </trkpt>
      <trkpt lat="38.3697640" lon="-0.6587900">
        <ele>283.2</ele>
        <time>2017-12-18T14:24:24Z</time>
      </trkpt>
      <trkpt lat="38.3697660" lon="-0.6588260">
        <ele>283.2</ele>
        <time>2017-12-18T14:24:25Z</time>
      </trkpt>
      <trkpt lat="38.3697710" lon="-0.6588600">
        <ele>283.2</ele>
        <time>2017-12-18T14:24:26Z</time>
      </trkpt>
      <trkpt lat="38.3697790" lon="-0.6588960">
        <ele>285.1</ele>
        <time>2017-12-18T14:24:27Z</time>
      </trkpt>
      <trkpt lat="38.3697870" lon="-0.6589320">
        <ele>285.1</ele>
        <time>2017-12-18T14:24:28Z</time>
      </trkpt>
      <trkpt lat="38.3697950" lon="-0.6589700">
        <ele>286.2</ele>
        <time>2017-12-18T14:24:29Z</time>
      </trkpt>
      <trkpt lat="38.3698020" lon="-0.6590100">
        <ele>286.2</ele>
        <time>2017-12-18T14:24:30Z</time>
      </trkpt>
      <trkpt lat="38.3698090" lon="-0.6590480">
        <ele>286.2</ele>
        <time>2017-12-18T14:24:31Z</time>
      </trkpt>
      <trkpt lat="38.3698120" lon="-0.6590860">
        <ele>286.2</ele>
        <time>2017-12-18T14:24:32Z</time>
      </trkpt>
      <trkpt lat="38.3698140" lon="-0.6591240">
        <ele>286.2</ele>
        <time>2017-12-18T14:24:33Z</time>
      </trkpt>
      <trkpt lat="38.3698140" lon="-0.6591610">
        <ele>286.2</ele>
        <time>2017-12-18T14:24:34Z</time>
      </trkpt>
      <trkpt lat="38.3698110" lon="-0.6591980">
        <ele>286.2</ele>
        <time>2017-12-18T14:24:35Z</time>
      </trkpt>
      <trkpt lat="38.3698080" lon="-0.6592360">
        <ele>286.2</ele>
        <time>2017-12-18T14:24:36Z</time>
      </trkpt>
      <trkpt lat="38.3698060" lon="-0.6592730">
        <ele>286.2</ele>
        <time>2017-12-18T14:24:37Z</time>
      </trkpt>
      <trkpt lat="38.3698030" lon="-0.6593100">
        <ele>286.2</ele>
        <time>2017-12-18T14:24:38Z</time>
      </trkpt>
      <trkpt lat="38.3697990" lon="-0.6593460">
        <ele>286.2</ele>
        <time>2017-12-18T14:24:39Z</time>
      </trkpt>
      <trkpt lat="38.3698080" lon="-0.6593760">
        <ele>286.2</ele>
        <time>2017-12-18T14:24:40Z</time>
      </trkpt>
      <trkpt lat="38.3698210" lon="-0.6594000">
        <ele>286.2</ele>
        <time>2017-12-18T14:24:41Z</time>
      </trkpt>
      <trkpt lat="38.3698260" lon="-0.6594200">
        <ele>286.2</ele>
        <time>2017-12-18T14:24:42Z</time>
      </trkpt>
      <trkpt lat="38.3698330" lon="-0.6594420">
        <ele>286.2</ele>
        <time>2017-12-18T14:24:43Z</time>
      </trkpt>
      <trkpt lat="38.3698420" lon="-0.6594720">
        <ele>286.2</ele>
        <time>2017-12-18T14:24:44Z</time>
      </trkpt>
      <trkpt lat="38.3698500" lon="-0.6595010">
        <ele>285.1</ele>
        <time>2017-12-18T14:24:45Z</time>
      </trkpt>
      <trkpt lat="38.3698550" lon="-0.6595210">
        <ele>285.1</ele>
        <time>2017-12-18T14:24:46Z</time>
      </trkpt>
      <trkpt lat="38.3698630" lon="-0.6595350">
        <ele>285.1</ele>
        <time>2017-12-18T14:24:47Z</time>
      </trkpt>
      <trkpt lat="38.3698760" lon="-0.6595480">
        <ele>285.1</ele>
        <time>2017-12-18T14:24:48Z</time>
      </trkpt>
      <trkpt lat="38.3698890" lon="-0.6595550">
        <ele>285.1</ele>
        <time>2017-12-18T14:24:49Z</time>
      </trkpt>
      <trkpt lat="38.3698990" lon="-0.6595540">
        <ele>285.1</ele>
        <time>2017-12-18T14:24:50Z</time>
      </trkpt>
      <trkpt lat="38.3699100" lon="-0.6595540">
        <ele>285.1</ele>
        <time>2017-12-18T14:24:51Z</time>
      </trkpt>
      <trkpt lat="38.3699210" lon="-0.6595610">
        <ele>285.1</ele>
        <time>2017-12-18T14:24:52Z</time>
      </trkpt>
      <trkpt lat="38.3699300" lon="-0.6595710">
        <ele>285.1</ele>
        <time>2017-12-18T14:24:53Z</time>
      </trkpt>
      <trkpt lat="38.3699360" lon="-0.6595840">
        <ele>285.1</ele>
        <time>2017-12-18T14:24:54Z</time>
      </trkpt>
      <trkpt lat="38.3699360" lon="-0.6596000">
        <ele>287.1</ele>
        <time>2017-12-18T14:24:55Z</time>
      </trkpt>
      <trkpt lat="38.3699390" lon="-0.6596180">
        <ele>287.1</ele>
        <time>2017-12-18T14:24:56Z</time>
      </trkpt>
      <trkpt lat="38.3699390" lon="-0.6596370">
        <ele>287.1</ele>
        <time>2017-12-18T14:24:57Z</time>
      </trkpt>
      <trkpt lat="38.3699390" lon="-0.6596540">
        <ele>287.1</ele>
        <time>2017-12-18T14:24:58Z</time>
      </trkpt>
      <trkpt lat="38.3699420" lon="-0.6596700">
        <ele>288.2</ele>
        <time>2017-12-18T14:24:59Z</time>
      </trkpt>
      <trkpt lat="38.3699470" lon="-0.6596860">
        <ele>288.2</ele>
        <time>2017-12-18T14:25:00Z</time>
      </trkpt>
      <trkpt lat="38.3699530" lon="-0.6597040">
        <ele>288.2</ele>
        <time>2017-12-18T14:25:01Z</time>
      </trkpt>
      <trkpt lat="38.3699620" lon="-0.6597170">
        <ele>288.2</ele>
        <time>2017-12-18T14:25:02Z</time>
      </trkpt>
      <trkpt lat="38.3699720" lon="-0.6597340">
        <ele>289.1</ele>
        <time>2017-12-18T14:25:03Z</time>
      </trkpt>
      <trkpt lat="38.3699810" lon="-0.6597520">
        <ele>289.1</ele>
        <time>2017-12-18T14:25:04Z</time>
      </trkpt>
      <trkpt lat="38.3699880" lon="-0.6597700">
        <ele>289.1</ele>
        <time>2017-12-18T14:25:05Z</time>
      </trkpt>
      <trkpt lat="38.3699950" lon="-0.6597850">
        <ele>289.1</ele>
        <time>2017-12-18T14:25:06Z</time>
      </trkpt>
      <trkpt lat="38.3700040" lon="-0.6598010">
        <ele>289.1</ele>
        <time>2017-12-18T14:25:07Z</time>
      </trkpt>
      <trkpt lat="38.3700130" lon="-0.6598160">
        <ele>289.1</ele>
        <time>2017-12-18T14:25:08Z</time>
      </trkpt>
      <trkpt lat="38.3700220" lon="-0.6598310">
        <ele>290.2</ele>
        <time>2017-12-18T14:25:09Z</time>
      </trkpt>
      <trkpt lat="38.3700350" lon="-0.6598450">
        <ele>290.2</ele>
        <time>2017-12-18T14:25:10Z</time>
      </trkpt>
      <trkpt lat="38.3700490" lon="-0.6598640">
        <ele>290.2</ele>
        <time>2017-12-18T14:25:11Z</time>
      </trkpt>
      <trkpt lat="38.3700650" lon="-0.6598850">
        <ele>290.2</ele>
        <time>2017-12-18T14:25:12Z</time>
      </trkpt>
      <trkpt lat="38.3700840" lon="-0.6599050">
        <ele>290.2</ele>
        <time>2017-12-18T14:25:13Z</time>
      </trkpt>
      <trkpt lat="38.3701010" lon="-0.6599270">
        <ele>290.2</ele>
        <time>2017-12-18T14:25:14Z</time>
      </trkpt>
      <trkpt lat="38.3701180" lon="-0.6599540">
        <ele>290.2</ele>
        <time>2017-12-18T14:25:15Z</time>
      </trkpt>
      <trkpt lat="38.3701330" lon="-0.6599840">
        <ele>290.2</ele>
        <time>2017-12-18T14:25:16Z</time>
      </trkpt>
      <trkpt lat="38.3701470" lon="-0.6600170">
        <ele>291.1</ele>
        <time>2017-12-18T14:25:17Z</time>
      </trkpt>
      <trkpt lat="38.3701540" lon="-0.6600410">
        <ele>291.1</ele>
        <time>2017-12-18T14:25:18Z</time>
      </trkpt>
      <trkpt lat="38.3701610" lon="-0.6600600">
        <ele>291.1</ele>
        <time>2017-12-18T14:25:19Z</time>
      </trkpt>
      <trkpt lat="38.3701710" lon="-0.6600830">
        <ele>291.1</ele>
        <time>2017-12-18T14:25:20Z</time>
      </trkpt>
      <trkpt lat="38.3701830" lon="-0.6601060">
        <ele>292.2</ele>
        <time>2017-12-18T14:25:21Z</time>
      </trkpt>
      <trkpt lat="38.3701950" lon="-0.6601260">
        <ele>292.2</ele>
        <time>2017-12-18T14:25:22Z</time>
      </trkpt>
      <trkpt lat="38.3702060" lon="-0.6601480">
        <ele>292.2</ele>
        <time>2017-12-18T14:25:23Z</time>
      </trkpt>
      <trkpt lat="38.3702200" lon="-0.6601680">
        <ele>292.2</ele>
        <time>2017-12-18T14:25:24Z</time>
      </trkpt>
      <trkpt lat="38.3702300" lon="-0.6601890">
        <ele>292.2</ele>
        <time>2017-12-18T14:25:25Z</time>
      </trkpt>
      <trkpt lat="38.3702400" lon="-0.6602100">
        <ele>292.2</ele>
        <time>2017-12-18T14:25:26Z</time>
      </trkpt>
      <trkpt lat="38.3702500" lon="-0.6602310">
        <ele>293.2</ele>
        <time>2017-12-18T14:25:27Z</time>
      </trkpt>
      <trkpt lat="38.3702600" lon="-0.6602540">
        <ele>293.2</ele>
        <time>2017-12-18T14:25:28Z</time>
      </trkpt>
      <trkpt lat="38.3702680" lon="-0.6602740">
        <ele>293.2</ele>
        <time>2017-12-18T14:25:29Z</time>
      </trkpt>
      <trkpt lat="38.3702750" lon="-0.6602940">
        <ele>293.2</ele>
        <time>2017-12-18T14:25:30Z</time>
      </trkpt>
      <trkpt lat="38.3702800" lon="-0.6603160">
        <ele>294.1</ele>
        <time>2017-12-18T14:25:31Z</time>
      </trkpt>
      <trkpt lat="38.3702890" lon="-0.6603390">
        <ele>294.1</ele>
        <time>2017-12-18T14:25:32Z</time>
      </trkpt>
      <trkpt lat="38.3702970" lon="-0.6603610">
        <ele>294.1</ele>
        <time>2017-12-18T14:25:33Z</time>
      </trkpt>
      <trkpt lat="38.3703050" lon="-0.6603830">
        <ele>294.1</ele>
        <time>2017-12-18T14:25:34Z</time>
      </trkpt>
      <trkpt lat="38.3703170" lon="-0.6604070">
        <ele>295.2</ele>
        <time>2017-12-18T14:25:35Z</time>
      </trkpt>
      <trkpt lat="38.3703270" lon="-0.6604340">
        <ele>295.2</ele>
        <time>2017-12-18T14:25:36Z</time>
      </trkpt>
      <trkpt lat="38.3703340" lon="-0.6604580">
        <ele>295.2</ele>
        <time>2017-12-18T14:25:37Z</time>
      </trkpt>
      <trkpt lat="38.3703410" lon="-0.6604810">
        <ele>295.2</ele>
        <time>2017-12-18T14:25:38Z</time>
      </trkpt>
      <trkpt lat="38.3703490" lon="-0.6605040">
        <ele>295.2</ele>
        <time>2017-12-18T14:25:39Z</time>
      </trkpt>
      <trkpt lat="38.3703570" lon="-0.6605270">
        <ele>295.2</ele>
        <time>2017-12-18T14:25:40Z</time>
      </trkpt>
      <trkpt lat="38.3703670" lon="-0.6605500">
        <ele>296.1</ele>
        <time>2017-12-18T14:25:41Z</time>
      </trkpt>
      <trkpt lat="38.3703760" lon="-0.6605740">
        <ele>296.1</ele>
        <time>2017-12-18T14:25:42Z</time>
      </trkpt>
      <trkpt lat="38.3703860" lon="-0.6605960">
        <ele>296.1</ele>
        <time>2017-12-18T14:25:43Z</time>
      </trkpt>
      <trkpt lat="38.3703940" lon="-0.6606170">
        <ele>296.1</ele>
        <time>2017-12-18T14:25:44Z</time>
      </trkpt>
      <trkpt lat="38.3703940" lon="-0.6606380">
        <ele>296.1</ele>
        <time>2017-12-18T14:25:45Z</time>
      </trkpt>
      <trkpt lat="38.3703970" lon="-0.6606620">
        <ele>296.1</ele>
        <time>2017-12-18T14:25:46Z</time>
      </trkpt>
      <trkpt lat="38.3704010" lon="-0.6606860">
        <ele>296.1</ele>
        <time>2017-12-18T14:25:47Z</time>
      </trkpt>
      <trkpt lat="38.3704020" lon="-0.6607110">
        <ele>296.1</ele>
        <time>2017-12-18T14:25:48Z</time>
      </trkpt>
      <trkpt lat="38.3704020" lon="-0.6607330">
        <ele>297.2</ele>
        <time>2017-12-18T14:25:49Z</time>
      </trkpt>
      <trkpt lat="38.3704030" lon="-0.6607560">
        <ele>297.2</ele>
        <time>2017-12-18T14:25:50Z</time>
      </trkpt>
      <trkpt lat="38.3704090" lon="-0.6607870">
        <ele>297.2</ele>
        <time>2017-12-18T14:25:51Z</time>
      </trkpt>
      <trkpt lat="38.3704140" lon="-0.6608360">
        <ele>297.2</ele>
        <time>2017-12-18T14:25:52Z</time>
      </trkpt>
      <trkpt lat="38.3704240" lon="-0.6608940">
        <ele>297.2</ele>
        <time>2017-12-18T14:25:53Z</time>
      </trkpt>
      <trkpt lat="38.3704320" lon="-0.6609400">
        <ele>297.2</ele>
        <time>2017-12-18T14:25:54Z</time>
      </trkpt>
      <trkpt lat="38.3704370" lon="-0.6609800">
        <ele>297.2</ele>
        <time>2017-12-18T14:25:55Z</time>
      </trkpt>
      <trkpt lat="38.3704430" lon="-0.6610170">
        <ele>297.2</ele>
        <time>2017-12-18T14:25:56Z</time>
      </trkpt>
      <trkpt lat="38.3704480" lon="-0.6610520">
        <ele>297.2</ele>
        <time>2017-12-18T14:25:57Z</time>
      </trkpt>
      <trkpt lat="38.3704550" lon="-0.6610860">
        <ele>297.2</ele>
        <time>2017-12-18T14:25:58Z</time>
      </trkpt>
      <trkpt lat="38.3704610" lon="-0.6611220">
        <ele>297.2</ele>
        <time>2017-12-18T14:25:59Z</time>
      </trkpt>
      <trkpt lat="38.3704640" lon="-0.6611560">
        <ele>297.2</ele>
        <time>2017-12-18T14:26:00Z</time>
      </trkpt>
      <trkpt lat="38.3704570" lon="-0.6611800">
        <ele>297.2</ele>
        <time>2017-12-18T14:26:01Z</time>
      </trkpt>
      <trkpt lat="38.3704560" lon="-0.6612020">
        <ele>297.2</ele>
        <time>2017-12-18T14:26:02Z</time>
      </trkpt>
      <trkpt lat="38.3704560" lon="-0.6612230">
        <ele>297.2</ele>
        <time>2017-12-18T14:26:03Z</time>
      </trkpt>
      <trkpt lat="38.3704550" lon="-0.6612440">
        <ele>297.2</ele>
        <time>2017-12-18T14:26:04Z</time>
      </trkpt>
      <trkpt lat="38.3704580" lon="-0.6612640">
        <ele>298.1</ele>
        <time>2017-12-18T14:26:05Z</time>
      </trkpt>
      <trkpt lat="38.3704660" lon="-0.6612820">
        <ele>298.1</ele>
        <time>2017-12-18T14:26:06Z</time>
      </trkpt>
      <trkpt lat="38.3704790" lon="-0.6613010">
        <ele>298.1</ele>
        <time>2017-12-18T14:26:07Z</time>
      </trkpt>
      <trkpt lat="38.3704960" lon="-0.6613130">
        <ele>298.1</ele>
        <time>2017-12-18T14:26:08Z</time>
      </trkpt>
      <trkpt lat="38.3705240" lon="-0.6613210">
        <ele>298.1</ele>
        <time>2017-12-18T14:26:09Z</time>
      </trkpt>
      <trkpt lat="38.3705400" lon="-0.6613320">
        <ele>298.1</ele>
        <time>2017-12-18T14:26:10Z</time>
      </trkpt>
      <trkpt lat="38.3705500" lon="-0.6613430">
        <ele>299.2</ele>
        <time>2017-12-18T14:26:11Z</time>
      </trkpt>
      <trkpt lat="38.3705600" lon="-0.6613590">
        <ele>299.2</ele>
        <time>2017-12-18T14:26:12Z</time>
      </trkpt>
      <trkpt lat="38.3705700" lon="-0.6613710">
        <ele>299.2</ele>
        <time>2017-12-18T14:26:13Z</time>
      </trkpt>
      <trkpt lat="38.3705790" lon="-0.6613850">
        <ele>299.2</ele>
        <time>2017-12-18T14:26:14Z</time>
      </trkpt>
      <trkpt lat="38.3705820" lon="-0.6614010">
        <ele>300.1</ele>
        <time>2017-12-18T14:26:15Z</time>
      </trkpt>
      <trkpt lat="38.3705910" lon="-0.6614150">
        <ele>300.1</ele>
        <time>2017-12-18T14:26:16Z</time>
      </trkpt>
      <trkpt lat="38.3705980" lon="-0.6614310">
        <ele>300.1</ele>
        <time>2017-12-18T14:26:17Z</time>
      </trkpt>
      <trkpt lat="38.3706040" lon="-0.6614490">
        <ele>300.1</ele>
        <time>2017-12-18T14:26:18Z</time>
      </trkpt>
      <trkpt lat="38.3706080" lon="-0.6614700">
        <ele>301.1</ele>
        <time>2017-12-18T14:26:19Z</time>
      </trkpt>
      <trkpt lat="38.3706110" lon="-0.6614910">
        <ele>301.1</ele>
        <time>2017-12-18T14:26:20Z</time>
      </trkpt>
      <trkpt lat="38.3706140" lon="-0.6615130">
        <ele>302.2</ele>
        <time>2017-12-18T14:26:21Z</time>
      </trkpt>
      <trkpt lat="38.3706150" lon="-0.6615320">
        <ele>302.2</ele>
        <time>2017-12-18T14:26:22Z</time>
      </trkpt>
      <trkpt lat="38.3706160" lon="-0.6615520">
        <ele>302.2</ele>
        <time>2017-12-18T14:26:23Z</time>
      </trkpt>
      <trkpt lat="38.3706130" lon="-0.6615710">
        <ele>302.2</ele>
        <time>2017-12-18T14:26:24Z</time>
      </trkpt>
      <trkpt lat="38.3706070" lon="-0.6615880">
        <ele>303.1</ele>
        <time>2017-12-18T14:26:25Z</time>
      </trkpt>
      <trkpt lat="38.3706020" lon="-0.6616050">
        <ele>303.1</ele>
        <time>2017-12-18T14:26:26Z</time>
      </trkpt>
      <trkpt lat="38.3706000" lon="-0.6616240">
        <ele>303.1</ele>
        <time>2017-12-18T14:26:27Z</time>
      </trkpt>
      <trkpt lat="38.3705980" lon="-0.6616420">
        <ele>303.1</ele>
        <time>2017-12-18T14:26:28Z</time>
      </trkpt>
      <trkpt lat="38.3705970" lon="-0.6616620">
        <ele>304.2</ele>
        <time>2017-12-18T14:26:29Z</time>
      </trkpt>
      <trkpt lat="38.3705940" lon="-0.6616850">
        <ele>304.2</ele>
        <time>2017-12-18T14:26:30Z</time>
      </trkpt>
      <trkpt lat="38.3705930" lon="-0.6617080">
        <ele>304.2</ele>
        <time>2017-12-18T14:26:31Z</time>
      </trkpt>
      <trkpt lat="38.3705940" lon="-0.6617280">
        <ele>304.2</ele>
        <time>2017-12-18T14:26:32Z</time>
      </trkpt>
      <trkpt lat="38.3705940" lon="-0.6617460">
        <ele>305.1</ele>
        <time>2017-12-18T14:26:33Z</time>
      </trkpt>
      <trkpt lat="38.3705950" lon="-0.6617610">
        <ele>305.1</ele>
        <time>2017-12-18T14:26:34Z</time>
      </trkpt>
      <trkpt lat="38.3705960" lon="-0.6617810">
        <ele>305.1</ele>
        <time>2017-12-18T14:26:35Z</time>
      </trkpt>
      <trkpt lat="38.3705970" lon="-0.6618020">
        <ele>305.1</ele>
        <time>2017-12-18T14:26:36Z</time>
      </trkpt>
      <trkpt lat="38.3706000" lon="-0.6618180">
        <ele>306.2</ele>
        <time>2017-12-18T14:26:37Z</time>
      </trkpt>
      <trkpt lat="38.3706020" lon="-0.6618350">
        <ele>306.2</ele>
        <time>2017-12-18T14:26:38Z</time>
      </trkpt>
      <trkpt lat="38.3706050" lon="-0.6618540">
        <ele>306.2</ele>
        <time>2017-12-18T14:26:39Z</time>
      </trkpt>
      <trkpt lat="38.3706090" lon="-0.6618760">
        <ele>306.2</ele>
        <time>2017-12-18T14:26:40Z</time>
      </trkpt>
      <trkpt lat="38.3706170" lon="-0.6619020">
        <ele>306.2</ele>
        <time>2017-12-18T14:26:41Z</time>
      </trkpt>
      <trkpt lat="38.3706240" lon="-0.6619240">
        <ele>306.2</ele>
        <time>2017-12-18T14:26:42Z</time>
      </trkpt>
      <trkpt lat="38.3706280" lon="-0.6619410">
        <ele>307.1</ele>
        <time>2017-12-18T14:26:43Z</time>
      </trkpt>
      <trkpt lat="38.3706340" lon="-0.6619560">
        <ele>307.1</ele>
        <time>2017-12-18T14:26:44Z</time>
      </trkpt>
      <trkpt lat="38.3706390" lon="-0.6619730">
        <ele>307.1</ele>
        <time>2017-12-18T14:26:45Z</time>
      </trkpt>
      <trkpt lat="38.3706450" lon="-0.6619910">
        <ele>307.1</ele>
        <time>2017-12-18T14:26:46Z</time>
      </trkpt>
      <trkpt lat="38.3706530" lon="-0.6620100">
        <ele>308.2</ele>
        <time>2017-12-18T14:26:47Z</time>
      </trkpt>
      <trkpt lat="38.3706620" lon="-0.6620310">
        <ele>308.2</ele>
        <time>2017-12-18T14:26:48Z</time>
      </trkpt>
      <trkpt lat="38.3706690" lon="-0.6620500">
        <ele>309.1</ele>
        <time>2017-12-18T14:26:49Z</time>
      </trkpt>
      <trkpt lat="38.3706740" lon="-0.6620690">
        <ele>309.1</ele>
        <time>2017-12-18T14:26:50Z</time>
      </trkpt>
      <trkpt lat="38.3706780" lon="-0.6620880">
        <ele>310.1</ele>
        <time>2017-12-18T14:26:51Z</time>
      </trkpt>
      <trkpt lat="38.3706820" lon="-0.6621050">
        <ele>310.1</ele>
        <time>2017-12-18T14:26:52Z</time>
      </trkpt>
      <trkpt lat="38.3706870" lon="-0.6621240">
        <ele>310.1</ele>
        <time>2017-12-18T14:26:53Z</time>
      </trkpt>
      <trkpt lat="38.3706950" lon="-0.6621470">
        <ele>310.1</ele>
        <time>2017-12-18T14:26:54Z</time>
      </trkpt>
      <trkpt lat="38.3707060" lon="-0.6621740">
        <ele>310.1</ele>
        <time>2017-12-18T14:26:55Z</time>
      </trkpt>
      <trkpt lat="38.3707140" lon="-0.6621950">
        <ele>310.1</ele>
        <time>2017-12-18T14:26:56Z</time>
      </trkpt>
      <trkpt lat="38.3707150" lon="-0.6622100">
        <ele>311.2</ele>
        <time>2017-12-18T14:26:57Z</time>
      </trkpt>
      <trkpt lat="38.3707190" lon="-0.6622260">
        <ele>311.2</ele>
        <time>2017-12-18T14:26:58Z</time>
      </trkpt>
      <trkpt lat="38.3707240" lon="-0.6622470">
        <ele>311.2</ele>
        <time>2017-12-18T14:26:59Z</time>
      </trkpt>
      <trkpt lat="38.3707330" lon="-0.6622690">
        <ele>311.2</ele>
        <time>2017-12-18T14:27:00Z</time>
      </trkpt>
      <trkpt lat="38.3707420" lon="-0.6622920">
        <ele>312.1</ele>
        <time>2017-12-18T14:27:01Z</time>
      </trkpt>
      <trkpt lat="38.3707510" lon="-0.6623130">
        <ele>312.1</ele>
        <time>2017-12-18T14:27:02Z</time>
      </trkpt>
      <trkpt lat="38.3707610" lon="-0.6623350">
        <ele>312.1</ele>
        <time>2017-12-18T14:27:03Z</time>
      </trkpt>
      <trkpt lat="38.3707710" lon="-0.6623560">
        <ele>312.1</ele>
        <time>2017-12-18T14:27:04Z</time>
      </trkpt>
      <trkpt lat="38.3707810" lon="-0.6623740">
        <ele>312.1</ele>
        <time>2017-12-18T14:27:05Z</time>
      </trkpt>
      <trkpt lat="38.3707890" lon="-0.6623920">
        <ele>312.1</ele>
        <time>2017-12-18T14:27:06Z</time>
      </trkpt>
      <trkpt lat="38.3707970" lon="-0.6624100">
        <ele>313.2</ele>
        <time>2017-12-18T14:27:07Z</time>
      </trkpt>
      <trkpt lat="38.3708050" lon="-0.6624270">
        <ele>313.2</ele>
        <time>2017-12-18T14:27:08Z</time>
      </trkpt>
      <trkpt lat="38.3708150" lon="-0.6624430">
        <ele>313.2</ele>
        <time>2017-12-18T14:27:09Z</time>
      </trkpt>
      <trkpt lat="38.3708240" lon="-0.6624590">
        <ele>313.2</ele>
        <time>2017-12-18T14:27:10Z</time>
      </trkpt>
      <trkpt lat="38.3708330" lon="-0.6624750">
        <ele>313.2</ele>
        <time>2017-12-18T14:27:11Z</time>
      </trkpt>
      <trkpt lat="38.3708430" lon="-0.6624910">
        <ele>313.2</ele>
        <time>2017-12-18T14:27:12Z</time>
      </trkpt>
      <trkpt lat="38.3708540" lon="-0.6625050">
        <ele>313.2</ele>
        <time>2017-12-18T14:27:13Z</time>
      </trkpt>
      <trkpt lat="38.3708620" lon="-0.6625170">
        <ele>313.2</ele>
        <time>2017-12-18T14:27:14Z</time>
      </trkpt>
      <trkpt lat="38.3708700" lon="-0.6625280">
        <ele>314.1</ele>
        <time>2017-12-18T14:27:15Z</time>
      </trkpt>
      <trkpt lat="38.3708770" lon="-0.6625420">
        <ele>314.1</ele>
        <time>2017-12-18T14:27:16Z</time>
      </trkpt>
      <trkpt lat="38.3708840" lon="-0.6625580">
        <ele>314.1</ele>
        <time>2017-12-18T14:27:17Z</time>
      </trkpt>
      <trkpt lat="38.3708890" lon="-0.6625750">
        <ele>314.1</ele>
        <time>2017-12-18T14:27:18Z</time>
      </trkpt>
      <trkpt lat="38.3708950" lon="-0.6625940">
        <ele>315.2</ele>
        <time>2017-12-18T14:27:19Z</time>
      </trkpt>
      <trkpt lat="38.3709030" lon="-0.6626130">
        <ele>315.2</ele>
        <time>2017-12-18T14:27:20Z</time>
      </trkpt>
      <trkpt lat="38.3709110" lon="-0.6626290">
        <ele>315.2</ele>
        <time>2017-12-18T14:27:21Z</time>
      </trkpt>
      <trkpt lat="38.3709170" lon="-0.6626500">
        <ele>315.2</ele>
        <time>2017-12-18T14:27:22Z</time>
      </trkpt>
      <trkpt lat="38.3709230" lon="-0.6626650">
        <ele>316.1</ele>
        <time>2017-12-18T14:27:23Z</time>
      </trkpt>
      <trkpt lat="38.3709300" lon="-0.6626830">
        <ele>316.1</ele>
        <time>2017-12-18T14:27:24Z</time>
      </trkpt>
      <trkpt lat="38.3709390" lon="-0.6627020">
        <ele>316.1</ele>
        <time>2017-12-18T14:27:25Z</time>
      </trkpt>
      <trkpt lat="38.3709520" lon="-0.6627190">
        <ele>316.1</ele>
        <time>2017-12-18T14:27:26Z</time>
      </trkpt>
      <trkpt lat="38.3709640" lon="-0.6627370">
        <ele>317.1</ele>
        <time>2017-12-18T14:27:27Z</time>
      </trkpt>
      <trkpt lat="38.3709750" lon="-0.6627540">
        <ele>317.1</ele>
        <time>2017-12-18T14:27:28Z</time>
      </trkpt>
      <trkpt lat="38.3709800" lon="-0.6627750">
        <ele>317.1</ele>
        <time>2017-12-18T14:27:29Z</time>
      </trkpt>
      <trkpt lat="38.3709910" lon="-0.6627970">
        <ele>317.1</ele>
        <time>2017-12-18T14:27:30Z</time>
      </trkpt>
      <trkpt lat="38.3710030" lon="-0.6628180">
        <ele>317.1</ele>
        <time>2017-12-18T14:27:31Z</time>
      </trkpt>
      <trkpt lat="38.3710160" lon="-0.6628410">
        <ele>317.1</ele>
        <time>2017-12-18T14:27:32Z</time>
      </trkpt>
      <trkpt lat="38.3710290" lon="-0.6628680">
        <ele>317.1</ele>
        <time>2017-12-18T14:27:33Z</time>
      </trkpt>
      <trkpt lat="38.3710430" lon="-0.6628970">
        <ele>317.1</ele>
        <time>2017-12-18T14:27:34Z</time>
      </trkpt>
      <trkpt lat="38.3710550" lon="-0.6629290">
        <ele>317.1</ele>
        <time>2017-12-18T14:27:35Z</time>
      </trkpt>
      <trkpt lat="38.3710660" lon="-0.6629640">
        <ele>317.1</ele>
        <time>2017-12-18T14:27:36Z</time>
      </trkpt>
      <trkpt lat="38.3710770" lon="-0.6630020">
        <ele>317.1</ele>
        <time>2017-12-18T14:27:37Z</time>
      </trkpt>
      <trkpt lat="38.3710870" lon="-0.6630440">
        <ele>317.1</ele>
        <time>2017-12-18T14:27:38Z</time>
      </trkpt>
      <trkpt lat="38.3710940" lon="-0.6630910">
        <ele>317.1</ele>
        <time>2017-12-18T14:27:39Z</time>
      </trkpt>
      <trkpt lat="38.3711030" lon="-0.6631410">
        <ele>317.1</ele>
        <time>2017-12-18T14:27:40Z</time>
      </trkpt>
      <trkpt lat="38.3711130" lon="-0.6631900">
        <ele>317.1</ele>
        <time>2017-12-18T14:27:41Z</time>
      </trkpt>
      <trkpt lat="38.3711280" lon="-0.6632380">
        <ele>317.1</ele>
        <time>2017-12-18T14:27:42Z</time>
      </trkpt>
      <trkpt lat="38.3711480" lon="-0.6632860">
        <ele>317.1</ele>
        <time>2017-12-18T14:27:43Z</time>
      </trkpt>
      <trkpt lat="38.3711620" lon="-0.6633370">
        <ele>317.1</ele>
        <time>2017-12-18T14:27:44Z</time>
      </trkpt>
      <trkpt lat="38.3711770" lon="-0.6633880">
        <ele>317.1</ele>
        <time>2017-12-18T14:27:45Z</time>
      </trkpt>
      <trkpt lat="38.3711920" lon="-0.6634390">
        <ele>317.1</ele>
        <time>2017-12-18T14:27:46Z</time>
      </trkpt>
      <trkpt lat="38.3712080" lon="-0.6634870">
        <ele>317.1</ele>
        <time>2017-12-18T14:27:47Z</time>
      </trkpt>
      <trkpt lat="38.3712200" lon="-0.6635370">
        <ele>317.1</ele>
        <time>2017-12-18T14:27:48Z</time>
      </trkpt>
      <trkpt lat="38.3712240" lon="-0.6635830">
        <ele>317.1</ele>
        <time>2017-12-18T14:27:49Z</time>
      </trkpt>
      <trkpt lat="38.3712310" lon="-0.6636290">
        <ele>317.1</ele>
        <time>2017-12-18T14:27:50Z</time>
      </trkpt>
      <trkpt lat="38.3712380" lon="-0.6636700">
        <ele>317.1</ele>
        <time>2017-12-18T14:27:51Z</time>
      </trkpt>
      <trkpt lat="38.3712480" lon="-0.6637060">
        <ele>317.1</ele>
        <time>2017-12-18T14:27:52Z</time>
      </trkpt>
      <trkpt lat="38.3712640" lon="-0.6637470">
        <ele>317.1</ele>
        <time>2017-12-18T14:27:53Z</time>
      </trkpt>
      <trkpt lat="38.3712810" lon="-0.6637910">
        <ele>317.1</ele>
        <time>2017-12-18T14:27:54Z</time>
      </trkpt>
      <trkpt lat="38.3712970" lon="-0.6638380">
        <ele>317.1</ele>
        <time>2017-12-18T14:27:55Z</time>
      </trkpt>
      <trkpt lat="38.3713110" lon="-0.6638850">
        <ele>317.1</ele>
        <time>2017-12-18T14:27:56Z</time>
      </trkpt>
      <trkpt lat="38.3713250" lon="-0.6639310">
        <ele>317.1</ele>
        <time>2017-12-18T14:27:57Z</time>
      </trkpt>
      <trkpt lat="38.3713390" lon="-0.6639740">
        <ele>317.1</ele>
        <time>2017-12-18T14:27:58Z</time>
      </trkpt>
      <trkpt lat="38.3713560" lon="-0.6640160">
        <ele>318.2</ele>
        <time>2017-12-18T14:27:59Z</time>
      </trkpt>
      <trkpt lat="38.3713710" lon="-0.6640570">
        <ele>318.2</ele>
        <time>2017-12-18T14:28:00Z</time>
      </trkpt>
      <trkpt lat="38.3713880" lon="-0.6640950">
        <ele>318.2</ele>
        <time>2017-12-18T14:28:01Z</time>
      </trkpt>
      <trkpt lat="38.3714050" lon="-0.6641290">
        <ele>318.2</ele>
        <time>2017-12-18T14:28:02Z</time>
      </trkpt>
      <trkpt lat="38.3714220" lon="-0.6641630">
        <ele>319.1</ele>
        <time>2017-12-18T14:28:03Z</time>
      </trkpt>
      <trkpt lat="38.3714400" lon="-0.6641970">
        <ele>319.1</ele>
        <time>2017-12-18T14:28:04Z</time>
      </trkpt>
      <trkpt lat="38.3714570" lon="-0.6642320">
        <ele>319.1</ele>
        <time>2017-12-18T14:28:05Z</time>
      </trkpt>
      <trkpt lat="38.3714700" lon="-0.6642640">
        <ele>319.1</ele>
        <time>2017-12-18T14:28:06Z</time>
      </trkpt>
      <trkpt lat="38.3714820" lon="-0.6642950">
        <ele>320.2</ele>
        <time>2017-12-18T14:28:07Z</time>
      </trkpt>
      <trkpt lat="38.3714980" lon="-0.6643290">
        <ele>320.2</ele>
        <time>2017-12-18T14:28:08Z</time>
      </trkpt>
      <trkpt lat="38.3715150" lon="-0.6643630">
        <ele>320.2</ele>
        <time>2017-12-18T14:28:09Z</time>
      </trkpt>
      <trkpt lat="38.3715280" lon="-0.6643930">
        <ele>320.2</ele>
        <time>2017-12-18T14:28:10Z</time>
      </trkpt>
      <trkpt lat="38.3715410" lon="-0.6644200">
        <ele>321.1</ele>
        <time>2017-12-18T14:28:11Z</time>
      </trkpt>
      <trkpt lat="38.3715550" lon="-0.6644510">
        <ele>321.1</ele>
        <time>2017-12-18T14:28:12Z</time>
      </trkpt>
      <trkpt lat="38.3715730" lon="-0.6644840">
        <ele>321.1</ele>
        <time>2017-12-18T14:28:13Z</time>
      </trkpt>
      <trkpt lat="38.3715870" lon="-0.6645190">
        <ele>321.1</ele>
        <time>2017-12-18T14:28:14Z</time>
      </trkpt>
      <trkpt lat="38.3716010" lon="-0.6645490">
        <ele>321.1</ele>
        <time>2017-12-18T14:28:15Z</time>
      </trkpt>
      <trkpt lat="38.3716170" lon="-0.6645840">
        <ele>321.1</ele>
        <time>2017-12-18T14:28:16Z</time>
      </trkpt>
      <trkpt lat="38.3716330" lon="-0.6646200">
        <ele>321.1</ele>
        <time>2017-12-18T14:28:17Z</time>
      </trkpt>
      <trkpt lat="38.3716470" lon="-0.6646540">
        <ele>321.1</ele>
        <time>2017-12-18T14:28:18Z</time>
      </trkpt>
      <trkpt lat="38.3716550" lon="-0.6646770">
        <ele>321.1</ele>
        <time>2017-12-18T14:28:19Z</time>
      </trkpt>
      <trkpt lat="38.3716630" lon="-0.6646990">
        <ele>321.1</ele>
        <time>2017-12-18T14:28:20Z</time>
      </trkpt>
      <trkpt lat="38.3716700" lon="-0.6647260">
        <ele>321.1</ele>
        <time>2017-12-18T14:28:21Z</time>
      </trkpt>
      <trkpt lat="38.3716810" lon="-0.6647560">
        <ele>321.1</ele>
        <time>2017-12-18T14:28:22Z</time>
      </trkpt>
      <trkpt lat="38.3716900" lon="-0.6647830">
        <ele>321.1</ele>
        <time>2017-12-18T14:28:23Z</time>
      </trkpt>
      <trkpt lat="38.3717000" lon="-0.6648070">
        <ele>321.1</ele>
        <time>2017-12-18T14:28:24Z</time>
      </trkpt>
      <trkpt lat="38.3717050" lon="-0.6648240">
        <ele>324.2</ele>
        <time>2017-12-18T14:28:25Z</time>
      </trkpt>
      <trkpt lat="38.3717080" lon="-0.6648430">
        <ele>324.2</ele>
        <time>2017-12-18T14:28:26Z</time>
      </trkpt>
      <trkpt lat="38.3717150" lon="-0.6648650">
        <ele>324.2</ele>
        <time>2017-12-18T14:28:27Z</time>
      </trkpt>
      <trkpt lat="38.3717210" lon="-0.6648910">
        <ele>324.2</ele>
        <time>2017-12-18T14:28:28Z</time>
      </trkpt>
      <trkpt lat="38.3717280" lon="-0.6649170">
        <ele>324.2</ele>
        <time>2017-12-18T14:28:29Z</time>
      </trkpt>
      <trkpt lat="38.3717350" lon="-0.6649430">
        <ele>324.2</ele>
        <time>2017-12-18T14:28:30Z</time>
      </trkpt>
      <trkpt lat="38.3717430" lon="-0.6649700">
        <ele>324.2</ele>
        <time>2017-12-18T14:28:31Z</time>
      </trkpt>
      <trkpt lat="38.3717490" lon="-0.6649970">
        <ele>324.2</ele>
        <time>2017-12-18T14:28:32Z</time>
      </trkpt>
      <trkpt lat="38.3717550" lon="-0.6650280">
        <ele>325.1</ele>
        <time>2017-12-18T14:28:33Z</time>
      </trkpt>
      <trkpt lat="38.3717590" lon="-0.6650520">
        <ele>325.1</ele>
        <time>2017-12-18T14:28:34Z</time>
      </trkpt>
      <trkpt lat="38.3717640" lon="-0.6650720">
        <ele>325.1</ele>
        <time>2017-12-18T14:28:35Z</time>
      </trkpt>
      <trkpt lat="38.3717650" lon="-0.6651000">
        <ele>325.1</ele>
        <time>2017-12-18T14:28:36Z</time>
      </trkpt>
      <trkpt lat="38.3717680" lon="-0.6651270">
        <ele>325.1</ele>
        <time>2017-12-18T14:28:37Z</time>
      </trkpt>
      <trkpt lat="38.3717730" lon="-0.6651540">
        <ele>325.1</ele>
        <time>2017-12-18T14:28:38Z</time>
      </trkpt>
      <trkpt lat="38.3717770" lon="-0.6651760">
        <ele>326.1</ele>
        <time>2017-12-18T14:28:39Z</time>
      </trkpt>
      <trkpt lat="38.3717780" lon="-0.6651960">
        <ele>326.1</ele>
        <time>2017-12-18T14:28:40Z</time>
      </trkpt>
      <trkpt lat="38.3717800" lon="-0.6652200">
        <ele>326.1</ele>
        <time>2017-12-18T14:28:41Z</time>
      </trkpt>
      <trkpt lat="38.3717770" lon="-0.6652460">
        <ele>326.1</ele>
        <time>2017-12-18T14:28:42Z</time>
      </trkpt>
      <trkpt lat="38.3717750" lon="-0.6652700">
        <ele>327.2</ele>
        <time>2017-12-18T14:28:43Z</time>
      </trkpt>
      <trkpt lat="38.3717720" lon="-0.6652880">
        <ele>327.2</ele>
        <time>2017-12-18T14:28:44Z</time>
      </trkpt>
      <trkpt lat="38.3717680" lon="-0.6653050">
        <ele>327.2</ele>
        <time>2017-12-18T14:28:45Z</time>
      </trkpt>
      <trkpt lat="38.3717680" lon="-0.6653220">
        <ele>327.2</ele>
        <time>2017-12-18T14:28:46Z</time>
      </trkpt>
      <trkpt lat="38.3717700" lon="-0.6653400">
        <ele>328.1</ele>
        <time>2017-12-18T14:28:47Z</time>
      </trkpt>
      <trkpt lat="38.3717670" lon="-0.6653620">
        <ele>328.1</ele>
        <time>2017-12-18T14:28:48Z</time>
      </trkpt>
      <trkpt lat="38.3717620" lon="-0.6653850">
        <ele>328.1</ele>
        <time>2017-12-18T14:28:49Z</time>
      </trkpt>
      <trkpt lat="38.3717650" lon="-0.6654130">
        <ele>328.1</ele>
        <time>2017-12-18T14:28:50Z</time>
      </trkpt>
      <trkpt lat="38.3717740" lon="-0.6654360">
        <ele>328.1</ele>
        <time>2017-12-18T14:28:51Z</time>
      </trkpt>
      <trkpt lat="38.3717900" lon="-0.6654530">
        <ele>328.1</ele>
        <time>2017-12-18T14:28:52Z</time>
      </trkpt>
      <trkpt lat="38.3718090" lon="-0.6654670">
        <ele>329.2</ele>
        <time>2017-12-18T14:28:53Z</time>
      </trkpt>
      <trkpt lat="38.3718250" lon="-0.6654800">
        <ele>329.2</ele>
        <time>2017-12-18T14:28:54Z</time>
      </trkpt>
      <trkpt lat="38.3718360" lon="-0.6654880">
        <ele>329.2</ele>
        <time>2017-12-18T14:28:55Z</time>
      </trkpt>
      <trkpt lat="38.3718510" lon="-0.6654880">
        <ele>329.2</ele>
        <time>2017-12-18T14:28:56Z</time>
      </trkpt>
      <trkpt lat="38.3718640" lon="-0.6654810">
        <ele>330.1</ele>
        <time>2017-12-18T14:28:57Z</time>
      </trkpt>
      <trkpt lat="38.3718770" lon="-0.6654840">
        <ele>330.1</ele>
        <time>2017-12-18T14:28:58Z</time>
      </trkpt>
      <trkpt lat="38.3718820" lon="-0.6654980">
        <ele>330.1</ele>
        <time>2017-12-18T14:28:59Z</time>
      </trkpt>
      <trkpt lat="38.3718760" lon="-0.6655090">
        <ele>330.1</ele>
        <time>2017-12-18T14:29:00Z</time>
      </trkpt>
      <trkpt lat="38.3718620" lon="-0.6655140">
        <ele>330.1</ele>
        <time>2017-12-18T14:29:01Z</time>
      </trkpt>
      <trkpt lat="38.3718460" lon="-0.6655120">
        <ele>330.1</ele>
        <time>2017-12-18T14:29:02Z</time>
      </trkpt>
      <trkpt lat="38.3718330" lon="-0.6655020">
        <ele>330.1</ele>
        <time>2017-12-18T14:29:03Z</time>
      </trkpt>
      <trkpt lat="38.3718240" lon="-0.6654850">
        <ele>330.1</ele>
        <time>2017-12-18T14:29:04Z</time>
      </trkpt>
      <trkpt lat="38.3718120" lon="-0.6654580">
        <ele>330.1</ele>
        <time>2017-12-18T14:29:05Z</time>
      </trkpt>
      <trkpt lat="38.3717910" lon="-0.6654110">
        <ele>330.1</ele>
        <time>2017-12-18T14:29:06Z</time>
      </trkpt>
      <trkpt lat="38.3717790" lon="-0.6653490">
        <ele>330.1</ele>
        <time>2017-12-18T14:29:07Z</time>
      </trkpt>
      <trkpt lat="38.3717760" lon="-0.6652860">
        <ele>330.1</ele>
        <time>2017-12-18T14:29:08Z</time>
      </trkpt>
      <trkpt lat="38.3717760" lon="-0.6652070">
        <ele>330.1</ele>
        <time>2017-12-18T14:29:09Z</time>
      </trkpt>
      <trkpt lat="38.3717660" lon="-0.6651100">
        <ele>330.1</ele>
        <time>2017-12-18T14:29:10Z</time>
      </trkpt>
      <trkpt lat="38.3717510" lon="-0.6650080">
        <ele>330.1</ele>
        <time>2017-12-18T14:29:11Z</time>
      </trkpt>
      <trkpt lat="38.3717290" lon="-0.6649060">
        <ele>330.1</ele>
        <time>2017-12-18T14:29:12Z</time>
      </trkpt>
      <trkpt lat="38.3717050" lon="-0.6648110">
        <ele>330.1</ele>
        <time>2017-12-18T14:29:13Z</time>
      </trkpt>
      <trkpt lat="38.3716730" lon="-0.6647080">
        <ele>330.1</ele>
        <time>2017-12-18T14:29:14Z</time>
      </trkpt>
      <trkpt lat="38.3716310" lon="-0.6646080">
        <ele>323.1</ele>
        <time>2017-12-18T14:29:15Z</time>
      </trkpt>
      <trkpt lat="38.3715860" lon="-0.6645040">
        <ele>323.1</ele>
        <time>2017-12-18T14:29:16Z</time>
      </trkpt>
      <trkpt lat="38.3715390" lon="-0.6644020">
        <ele>321.1</ele>
        <time>2017-12-18T14:29:17Z</time>
      </trkpt>
      <trkpt lat="38.3714940" lon="-0.6643010">
        <ele>321.1</ele>
        <time>2017-12-18T14:29:18Z</time>
      </trkpt>
      <trkpt lat="38.3714460" lon="-0.6641990">
        <ele>319.1</ele>
        <time>2017-12-18T14:29:19Z</time>
      </trkpt>
      <trkpt lat="38.3713950" lon="-0.6640950">
        <ele>319.1</ele>
        <time>2017-12-18T14:29:20Z</time>
      </trkpt>
      <trkpt lat="38.3713500" lon="-0.6639830">
        <ele>318.2</ele>
        <time>2017-12-18T14:29:21Z</time>
      </trkpt>
      <trkpt lat="38.3713130" lon="-0.6638640">
        <ele>318.2</ele>
        <time>2017-12-18T14:29:22Z</time>
      </trkpt>
      <trkpt lat="38.3712710" lon="-0.6637510">
        <ele>317.1</ele>
        <time>2017-12-18T14:29:23Z</time>
      </trkpt>
      <trkpt lat="38.3712380" lon="-0.6636430">
        <ele>317.1</ele>
        <time>2017-12-18T14:29:24Z</time>
      </trkpt>
      <trkpt lat="38.3712140" lon="-0.6635350">
        <ele>316.1</ele>
        <time>2017-12-18T14:29:25Z</time>
      </trkpt>
      <trkpt lat="38.3711790" lon="-0.6634270">
        <ele>316.1</ele>
        <time>2017-12-18T14:29:26Z</time>
      </trkpt>
      <trkpt lat="38.3711500" lon="-0.6633150">
        <ele>316.1</ele>
        <time>2017-12-18T14:29:27Z</time>
      </trkpt>
      <trkpt lat="38.3711160" lon="-0.6632080">
        <ele>316.1</ele>
        <time>2017-12-18T14:29:28Z</time>
      </trkpt>
      <trkpt lat="38.3710940" lon="-0.6630960">
        <ele>316.1</ele>
        <time>2017-12-18T14:29:29Z</time>
      </trkpt>
      <trkpt lat="38.3710720" lon="-0.6629900">
        <ele>316.1</ele>
        <time>2017-12-18T14:29:30Z</time>
      </trkpt>
      <trkpt lat="38.3710360" lon="-0.6628970">
        <ele>315.2</ele>
        <time>2017-12-18T14:29:31Z</time>
      </trkpt>
      <trkpt lat="38.3709940" lon="-0.6628140">
        <ele>315.2</ele>
        <time>2017-12-18T14:29:32Z</time>
      </trkpt>
      <trkpt lat="38.3709500" lon="-0.6627390">
        <ele>315.2</ele>
        <time>2017-12-18T14:29:33Z</time>
      </trkpt>
      <trkpt lat="38.3709150" lon="-0.6626710">
        <ele>315.2</ele>
        <time>2017-12-18T14:29:34Z</time>
      </trkpt>
      <trkpt lat="38.3708970" lon="-0.6625970">
        <ele>315.2</ele>
        <time>2017-12-18T14:29:35Z</time>
      </trkpt>
      <trkpt lat="38.3708670" lon="-0.6625330">
        <ele>315.2</ele>
        <time>2017-12-18T14:29:36Z</time>
      </trkpt>
      <trkpt lat="38.3708300" lon="-0.6624700">
        <ele>315.2</ele>
        <time>2017-12-18T14:29:37Z</time>
      </trkpt>
      <trkpt lat="38.3707870" lon="-0.6623970">
        <ele>315.2</ele>
        <time>2017-12-18T14:29:38Z</time>
      </trkpt>
      <trkpt lat="38.3707500" lon="-0.6623100">
        <ele>315.2</ele>
        <time>2017-12-18T14:29:39Z</time>
      </trkpt>
      <trkpt lat="38.3707280" lon="-0.6622450">
        <ele>315.2</ele>
        <time>2017-12-18T14:29:40Z</time>
      </trkpt>
      <trkpt lat="38.3707110" lon="-0.6622010">
        <ele>315.2</ele>
        <time>2017-12-18T14:29:41Z</time>
      </trkpt>
      <trkpt lat="38.3706870" lon="-0.6621410">
        <ele>315.2</ele>
        <time>2017-12-18T14:29:42Z</time>
      </trkpt>
      <trkpt lat="38.3706670" lon="-0.6620700">
        <ele>315.2</ele>
        <time>2017-12-18T14:29:43Z</time>
      </trkpt>
      <trkpt lat="38.3706390" lon="-0.6619980">
        <ele>315.2</ele>
        <time>2017-12-18T14:29:44Z</time>
      </trkpt>
      <trkpt lat="38.3706130" lon="-0.6619170">
        <ele>310.1</ele>
        <time>2017-12-18T14:29:45Z</time>
      </trkpt>
      <trkpt lat="38.3705950" lon="-0.6618280">
        <ele>310.1</ele>
        <time>2017-12-18T14:29:46Z</time>
      </trkpt>
      <trkpt lat="38.3705950" lon="-0.6617330">
        <ele>308.2</ele>
        <time>2017-12-18T14:29:47Z</time>
      </trkpt>
      <trkpt lat="38.3706050" lon="-0.6616470">
        <ele>308.2</ele>
        <time>2017-12-18T14:29:48Z</time>
      </trkpt>
      <trkpt lat="38.3706230" lon="-0.6615830">
        <ele>306.2</ele>
        <time>2017-12-18T14:29:49Z</time>
      </trkpt>
      <trkpt lat="38.3706210" lon="-0.6615130">
        <ele>306.2</ele>
        <time>2017-12-18T14:29:50Z</time>
      </trkpt>
      <trkpt lat="38.3706030" lon="-0.6614510">
        <ele>304.2</ele>
        <time>2017-12-18T14:29:51Z</time>
      </trkpt>
      <trkpt lat="38.3705770" lon="-0.6614000">
        <ele>304.2</ele>
        <time>2017-12-18T14:29:52Z</time>
      </trkpt>
      <trkpt lat="38.3705530" lon="-0.6613660">
        <ele>303.1</ele>
        <time>2017-12-18T14:29:53Z</time>
      </trkpt>
      <trkpt lat="38.3705150" lon="-0.6613390">
        <ele>303.1</ele>
        <time>2017-12-18T14:29:54Z</time>
      </trkpt>
      <trkpt lat="38.3704800" lon="-0.6612970">
        <ele>301.1</ele>
        <time>2017-12-18T14:29:55Z</time>
      </trkpt>
      <trkpt lat="38.3704810" lon="-0.6612410">
        <ele>301.1</ele>
        <time>2017-12-18T14:29:56Z</time>
      </trkpt>
      <trkpt lat="38.3704780" lon="-0.6611790">
        <ele>299.2</ele>
        <time>2017-12-18T14:29:57Z</time>
      </trkpt>
      <trkpt lat="38.3704670" lon="-0.6611180">
        <ele>299.2</ele>
        <time>2017-12-18T14:29:58Z</time>
      </trkpt>
      <trkpt lat="38.3704690" lon="-0.6610370">
        <ele>299.2</ele>
        <time>2017-12-18T14:29:59Z</time>
      </trkpt>
      <trkpt lat="38.3704580" lon="-0.6609540">
        <ele>299.2</ele>
        <time>2017-12-18T14:30:00Z</time>
      </trkpt>
      <trkpt lat="38.3704470" lon="-0.6608710">
        <ele>297.2</ele>
        <time>2017-12-18T14:30:01Z</time>
      </trkpt>
      <trkpt lat="38.3704370" lon="-0.6608080">
        <ele>297.2</ele>
        <time>2017-12-18T14:30:02Z</time>
      </trkpt>
      <trkpt lat="38.3704340" lon="-0.6607430">
        <ele>297.2</ele>
        <time>2017-12-18T14:30:03Z</time>
      </trkpt>
      <trkpt lat="38.3704260" lon="-0.6606720">
        <ele>297.2</ele>
        <time>2017-12-18T14:30:04Z</time>
      </trkpt>
      <trkpt lat="38.3704010" lon="-0.6606070">
        <ele>297.2</ele>
        <time>2017-12-18T14:30:05Z</time>
      </trkpt>
      <trkpt lat="38.3703740" lon="-0.6605340">
        <ele>297.2</ele>
        <time>2017-12-18T14:30:06Z</time>
      </trkpt>
      <trkpt lat="38.3703440" lon="-0.6604570">
        <ele>296.1</ele>
        <time>2017-12-18T14:30:07Z</time>
      </trkpt>
      <trkpt lat="38.3703170" lon="-0.6603760">
        <ele>296.1</ele>
        <time>2017-12-18T14:30:08Z</time>
      </trkpt>
      <trkpt lat="38.3702840" lon="-0.6602910">
        <ele>295.2</ele>
        <time>2017-12-18T14:30:09Z</time>
      </trkpt>
      <trkpt lat="38.3702460" lon="-0.6602120">
        <ele>295.2</ele>
        <time>2017-12-18T14:30:10Z</time>
      </trkpt>
      <trkpt lat="38.3702080" lon="-0.6601340">
        <ele>294.1</ele>
        <time>2017-12-18T14:30:11Z</time>
      </trkpt>
      <trkpt lat="38.3701770" lon="-0.6600570">
        <ele>294.1</ele>
        <time>2017-12-18T14:30:12Z</time>
      </trkpt>
      <trkpt lat="38.3701390" lon="-0.6599780">
        <ele>294.1</ele>
        <time>2017-12-18T14:30:13Z</time>
      </trkpt>
      <trkpt lat="38.3700850" lon="-0.6599210">
        <ele>294.1</ele>
        <time>2017-12-18T14:30:14Z</time>
      </trkpt>
      <trkpt lat="38.3700340" lon="-0.6598540">
        <ele>294.1</ele>
        <time>2017-12-18T14:30:15Z</time>
      </trkpt>
      <trkpt lat="38.3699960" lon="-0.6597860">
        <ele>294.1</ele>
        <time>2017-12-18T14:30:16Z</time>
      </trkpt>
      <trkpt lat="38.3699630" lon="-0.6597140">
        <ele>290.2</ele>
        <time>2017-12-18T14:30:17Z</time>
      </trkpt>
      <trkpt lat="38.3699380" lon="-0.6596630">
        <ele>290.2</ele>
        <time>2017-12-18T14:30:18Z</time>
      </trkpt>
      <trkpt lat="38.3699110" lon="-0.6596280">
        <ele>289.1</ele>
        <time>2017-12-18T14:30:19Z</time>
      </trkpt>
      <trkpt lat="38.3698830" lon="-0.6595790">
        <ele>289.1</ele>
        <time>2017-12-18T14:30:20Z</time>
      </trkpt>
      <trkpt lat="38.3698610" lon="-0.6595180">
        <ele>287.1</ele>
        <time>2017-12-18T14:30:21Z</time>
      </trkpt>
      <trkpt lat="38.3698400" lon="-0.6594610">
        <ele>287.1</ele>
        <time>2017-12-18T14:30:22Z</time>
      </trkpt>
      <trkpt lat="38.3698210" lon="-0.6594350">
        <ele>287.1</ele>
        <time>2017-12-18T14:30:23Z</time>
      </trkpt>
      <trkpt lat="38.3698140" lon="-0.6594080">
        <ele>287.1</ele>
        <time>2017-12-18T14:30:24Z</time>
      </trkpt>
      <trkpt lat="38.3698110" lon="-0.6593800">
        <ele>287.1</ele>
        <time>2017-12-18T14:30:25Z</time>
      </trkpt>
      <trkpt lat="38.3698130" lon="-0.6593460">
        <ele>287.1</ele>
        <time>2017-12-18T14:30:26Z</time>
      </trkpt>
      <trkpt lat="38.3698150" lon="-0.6593090">
        <ele>287.1</ele>
        <time>2017-12-18T14:30:27Z</time>
      </trkpt>
      <trkpt lat="38.3698210" lon="-0.6592460">
        <ele>287.1</ele>
        <time>2017-12-18T14:30:28Z</time>
      </trkpt>
      <trkpt lat="38.3698230" lon="-0.6591710">
        <ele>286.2</ele>
        <time>2017-12-18T14:30:29Z</time>
      </trkpt>
      <trkpt lat="38.3698190" lon="-0.6590930">
        <ele>286.2</ele>
        <time>2017-12-18T14:30:30Z</time>
      </trkpt>
      <trkpt lat="38.3698040" lon="-0.6590080">
        <ele>285.1</ele>
        <time>2017-12-18T14:30:31Z</time>
      </trkpt>
      <trkpt lat="38.3697860" lon="-0.6589180">
        <ele>285.1</ele>
        <time>2017-12-18T14:30:32Z</time>
      </trkpt>
      <trkpt lat="38.3697760" lon="-0.6588230">
        <ele>285.1</ele>
        <time>2017-12-18T14:30:33Z</time>
      </trkpt>
      <trkpt lat="38.3697690" lon="-0.6587240">
        <ele>285.1</ele>
        <time>2017-12-18T14:30:34Z</time>
      </trkpt>
      <trkpt lat="38.3697650" lon="-0.6586220">
        <ele>284.1</ele>
        <time>2017-12-18T14:30:35Z</time>
      </trkpt>
      <trkpt lat="38.3697570" lon="-0.6585140">
        <ele>284.1</ele>
        <time>2017-12-18T14:30:36Z</time>
      </trkpt>
      <trkpt lat="38.3697580" lon="-0.6584080">
        <ele>283.2</ele>
        <time>2017-12-18T14:30:37Z</time>
      </trkpt>
      <trkpt lat="38.3697710" lon="-0.6583020">
        <ele>283.2</ele>
        <time>2017-12-18T14:30:38Z</time>
      </trkpt>
      <trkpt lat="38.3697910" lon="-0.6582000">
        <ele>282.1</ele>
        <time>2017-12-18T14:30:39Z</time>
      </trkpt>
      <trkpt lat="38.3698040" lon="-0.6580920">
        <ele>282.1</ele>
        <time>2017-12-18T14:30:40Z</time>
      </trkpt>
      <trkpt lat="38.3698060" lon="-0.6579770">
        <ele>280.1</ele>
        <time>2017-12-18T14:30:41Z</time>
      </trkpt>
      <trkpt lat="38.3697980" lon="-0.6578620">
        <ele>280.1</ele>
        <time>2017-12-18T14:30:42Z</time>
      </trkpt>
      <trkpt lat="38.3697720" lon="-0.6577550">
        <ele>279.2</ele>
        <time>2017-12-18T14:30:43Z</time>
      </trkpt>
      <trkpt lat="38.3697350" lon="-0.6576560">
        <ele>279.2</ele>
        <time>2017-12-18T14:30:44Z</time>
      </trkpt>
      <trkpt lat="38.3696870" lon="-0.6575770">
        <ele>279.2</ele>
        <time>2017-12-18T14:30:45Z</time>
      </trkpt>
      <trkpt lat="38.3696490" lon="-0.6575140">
        <ele>279.2</ele>
        <time>2017-12-18T14:30:46Z</time>
      </trkpt>
      <trkpt lat="38.3696190" lon="-0.6574470">
        <ele>279.2</ele>
        <time>2017-12-18T14:30:47Z</time>
      </trkpt>
      <trkpt lat="38.3695850" lon="-0.6573830">
        <ele>279.2</ele>
        <time>2017-12-18T14:30:48Z</time>
      </trkpt>
      <trkpt lat="38.3695580" lon="-0.6573070">
        <ele>279.2</ele>
        <time>2017-12-18T14:30:49Z</time>
      </trkpt>
      <trkpt lat="38.3695470" lon="-0.6572250">
        <ele>279.2</ele>
        <time>2017-12-18T14:30:50Z</time>
      </trkpt>
      <trkpt lat="38.3695700" lon="-0.6571620">
        <ele>276.2</ele>
        <time>2017-12-18T14:30:51Z</time>
      </trkpt>
      <trkpt lat="38.3695960" lon="-0.6570840">
        <ele>276.2</ele>
        <time>2017-12-18T14:30:52Z</time>
      </trkpt>
      <trkpt lat="38.3696390" lon="-0.6570050">
        <ele>275.1</ele>
        <time>2017-12-18T14:30:53Z</time>
      </trkpt>
      <trkpt lat="38.3696860" lon="-0.6569290">
        <ele>275.1</ele>
        <time>2017-12-18T14:30:54Z</time>
      </trkpt>
      <trkpt lat="38.3697340" lon="-0.6568540">
        <ele>275.1</ele>
        <time>2017-12-18T14:30:55Z</time>
      </trkpt>
      <trkpt lat="38.3697800" lon="-0.6567790">
        <ele>275.1</ele>
        <time>2017-12-18T14:30:56Z</time>
      </trkpt>
      <trkpt lat="38.3698350" lon="-0.6567100">
        <ele>275.1</ele>
        <time>2017-12-18T14:30:57Z</time>
      </trkpt>
      <trkpt lat="38.3698850" lon="-0.6566550">
        <ele>275.1</ele>
        <time>2017-12-18T14:30:58Z</time>
      </trkpt>
      <trkpt lat="38.3699130" lon="-0.6565980">
        <ele>275.1</ele>
        <time>2017-12-18T14:30:59Z</time>
      </trkpt>
      <trkpt lat="38.3699050" lon="-0.6565450">
        <ele>275.1</ele>
        <time>2017-12-18T14:31:00Z</time>
      </trkpt>
      <trkpt lat="38.3698760" lon="-0.6564940">
        <ele>275.1</ele>
        <time>2017-12-18T14:31:01Z</time>
      </trkpt>
      <trkpt lat="38.3698490" lon="-0.6564310">
        <ele>275.1</ele>
        <time>2017-12-18T14:31:02Z</time>
      </trkpt>
      <trkpt lat="38.3698170" lon="-0.6563680">
        <ele>273.1</ele>
        <time>2017-12-18T14:31:03Z</time>
      </trkpt>
      <trkpt lat="38.3697830" lon="-0.6563160">
        <ele>273.1</ele>
        <time>2017-12-18T14:31:04Z</time>
      </trkpt>
      <trkpt lat="38.3697470" lon="-0.6562670">
        <ele>273.1</ele>
        <time>2017-12-18T14:31:05Z</time>
      </trkpt>
      <trkpt lat="38.3697180" lon="-0.6562080">
        <ele>273.1</ele>
        <time>2017-12-18T14:31:06Z</time>
      </trkpt>
      <trkpt lat="38.3696850" lon="-0.6561390">
        <ele>273.1</ele>
        <time>2017-12-18T14:31:07Z</time>
      </trkpt>
      <trkpt lat="38.3696580" lon="-0.6560610">
        <ele>273.1</ele>
        <time>2017-12-18T14:31:08Z</time>
      </trkpt>
      <trkpt lat="38.3696360" lon="-0.6559770">
        <ele>273.1</ele>
        <time>2017-12-18T14:31:09Z</time>
      </trkpt>
      <trkpt lat="38.3696040" lon="-0.6558870">
        <ele>273.1</ele>
        <time>2017-12-18T14:31:10Z</time>
      </trkpt>
      <trkpt lat="38.3695750" lon="-0.6557950">
        <ele>272.2</ele>
        <time>2017-12-18T14:31:11Z</time>
      </trkpt>
      <trkpt lat="38.3695320" lon="-0.6556950">
        <ele>272.2</ele>
        <time>2017-12-18T14:31:12Z</time>
      </trkpt>
      <trkpt lat="38.3694800" lon="-0.6555940">
        <ele>270.2</ele>
        <time>2017-12-18T14:31:13Z</time>
      </trkpt>
      <trkpt lat="38.3694400" lon="-0.6554820">
        <ele>270.2</ele>
        <time>2017-12-18T14:31:14Z</time>
      </trkpt>
      <trkpt lat="38.3694020" lon="-0.6553670">
        <ele>270.2</ele>
        <time>2017-12-18T14:31:15Z</time>
      </trkpt>
      <trkpt lat="38.3693580" lon="-0.6552550">
        <ele>270.2</ele>
        <time>2017-12-18T14:31:16Z</time>
      </trkpt>
      <trkpt lat="38.3693090" lon="-0.6551440">
        <ele>270.2</ele>
        <time>2017-12-18T14:31:17Z</time>
      </trkpt>
      <trkpt lat="38.3692530" lon="-0.6550430">
        <ele>270.2</ele>
        <time>2017-12-18T14:31:18Z</time>
      </trkpt>
      <trkpt lat="38.3691900" lon="-0.6549490">
        <ele>265.2</ele>
        <time>2017-12-18T14:31:19Z</time>
      </trkpt>
      <trkpt lat="38.3691220" lon="-0.6548600">
        <ele>265.2</ele>
        <time>2017-12-18T14:31:20Z</time>
      </trkpt>
      <trkpt lat="38.3690610" lon="-0.6547680">
        <ele>264.1</ele>
        <time>2017-12-18T14:31:21Z</time>
      </trkpt>
      <trkpt lat="38.3689970" lon="-0.6546790">
        <ele>264.1</ele>
        <time>2017-12-18T14:31:22Z</time>
      </trkpt>
      <trkpt lat="38.3689400" lon="-0.6545850">
        <ele>263.2</ele>
        <time>2017-12-18T14:31:23Z</time>
      </trkpt>
      <trkpt lat="38.3688830" lon="-0.6544980">
        <ele>263.2</ele>
        <time>2017-12-18T14:31:24Z</time>
      </trkpt>
      <trkpt lat="38.3688240" lon="-0.6544370">
        <ele>264.1</ele>
        <time>2017-12-18T14:31:25Z</time>
      </trkpt>
      <trkpt lat="38.3687640" lon="-0.6543850">
        <ele>264.1</ele>
        <time>2017-12-18T14:31:26Z</time>
      </trkpt>
      <trkpt lat="38.3687170" lon="-0.6543250">
        <ele>265.2</ele>
        <time>2017-12-18T14:31:27Z</time>
      </trkpt>
      <trkpt lat="38.3686750" lon="-0.6542680">
        <ele>265.2</ele>
        <time>2017-12-18T14:31:28Z</time>
      </trkpt>
      <trkpt lat="38.3686290" lon="-0.6542310">
        <ele>266.1</ele>
        <time>2017-12-18T14:31:29Z</time>
      </trkpt>
      <trkpt lat="38.3685810" lon="-0.6542070">
        <ele>266.1</ele>
        <time>2017-12-18T14:31:30Z</time>
      </trkpt>
      <trkpt lat="38.3685340" lon="-0.6541970">
        <ele>268.1</ele>
        <time>2017-12-18T14:31:31Z</time>
      </trkpt>
      <trkpt lat="38.3684830" lon="-0.6541740">
        <ele>268.1</ele>
        <time>2017-12-18T14:31:32Z</time>
      </trkpt>
      <trkpt lat="38.3684380" lon="-0.6541420">
        <ele>269.1</ele>
        <time>2017-12-18T14:31:33Z</time>
      </trkpt>
      <trkpt lat="38.3683930" lon="-0.6541150">
        <ele>269.1</ele>
        <time>2017-12-18T14:31:34Z</time>
      </trkpt>
      <trkpt lat="38.3683510" lon="-0.6540810">
        <ele>269.1</ele>
        <time>2017-12-18T14:31:35Z</time>
      </trkpt>
      <trkpt lat="38.3683130" lon="-0.6540430">
        <ele>269.1</ele>
        <time>2017-12-18T14:31:36Z</time>
      </trkpt>
      <trkpt lat="38.3682770" lon="-0.6540030">
        <ele>270.2</ele>
        <time>2017-12-18T14:31:37Z</time>
      </trkpt>
      <trkpt lat="38.3682470" lon="-0.6539610">
        <ele>270.2</ele>
        <time>2017-12-18T14:31:38Z</time>
      </trkpt>
      <trkpt lat="38.3682210" lon="-0.6539170">
        <ele>270.2</ele>
        <time>2017-12-18T14:31:39Z</time>
      </trkpt>
      <trkpt lat="38.3682020" lon="-0.6538640">
        <ele>270.2</ele>
        <time>2017-12-18T14:31:40Z</time>
      </trkpt>
      <trkpt lat="38.3681900" lon="-0.6538070">
        <ele>271.1</ele>
        <time>2017-12-18T14:31:41Z</time>
      </trkpt>
      <trkpt lat="38.3681860" lon="-0.6537500">
        <ele>271.1</ele>
        <time>2017-12-18T14:31:42Z</time>
      </trkpt>
      <trkpt lat="38.3681910" lon="-0.6536920">
        <ele>271.1</ele>
        <time>2017-12-18T14:31:43Z</time>
      </trkpt>
      <trkpt lat="38.3681980" lon="-0.6536350">
        <ele>271.1</ele>
        <time>2017-12-18T14:31:44Z</time>
      </trkpt>
      <trkpt lat="38.3682050" lon="-0.6535770">
        <ele>272.2</ele>
        <time>2017-12-18T14:31:45Z</time>
      </trkpt>
      <trkpt lat="38.3682100" lon="-0.6535230">
        <ele>272.2</ele>
        <time>2017-12-18T14:31:46Z</time>
      </trkpt>
      <trkpt lat="38.3682180" lon="-0.6534760">
        <ele>272.2</ele>
        <time>2017-12-18T14:31:47Z</time>
      </trkpt>
      <trkpt lat="38.3682220" lon="-0.6534390">
        <ele>272.2</ele>
        <time>2017-12-18T14:31:48Z</time>
      </trkpt>
      <trkpt lat="38.3682170" lon="-0.6534090">
        <ele>272.2</ele>
        <time>2017-12-18T14:31:49Z</time>
      </trkpt>
      <trkpt lat="38.3682070" lon="-0.6533850">
        <ele>272.2</ele>
        <time>2017-12-18T14:31:50Z</time>
      </trkpt>
      <trkpt lat="38.3682000" lon="-0.6533620">
        <ele>272.2</ele>
        <time>2017-12-18T14:31:51Z</time>
      </trkpt>
      <trkpt lat="38.3681980" lon="-0.6533430">
        <ele>272.2</ele>
        <time>2017-12-18T14:31:52Z</time>
      </trkpt>
      <trkpt lat="38.3682090" lon="-0.6533290">
        <ele>274.2</ele>
        <time>2017-12-18T14:31:53Z</time>
      </trkpt>
      <trkpt lat="38.3682260" lon="-0.6533330">
        <ele>274.2</ele>
        <time>2017-12-18T14:31:54Z</time>
      </trkpt>
      <trkpt lat="38.3682370" lon="-0.6533480">
        <ele>274.2</ele>
        <time>2017-12-18T14:31:55Z</time>
      </trkpt>
      <trkpt lat="38.3682310" lon="-0.6533670">
        <ele>274.2</ele>
        <time>2017-12-18T14:31:56Z</time>
      </trkpt>
      <trkpt lat="38.3682260" lon="-0.6533880">
        <ele>274.2</ele>
        <time>2017-12-18T14:31:57Z</time>
      </trkpt>
      <trkpt lat="38.3682270" lon="-0.6534110">
        <ele>274.2</ele>
        <time>2017-12-18T14:31:58Z</time>
      </trkpt>
      <trkpt lat="38.3682240" lon="-0.6534410">
        <ele>274.2</ele>
        <time>2017-12-18T14:31:59Z</time>
      </trkpt>
      <trkpt lat="38.3682200" lon="-0.6534790">
        <ele>274.2</ele>
        <time>2017-12-18T14:32:00Z</time>
      </trkpt>
      <trkpt lat="38.3682130" lon="-0.6535250">
        <ele>274.2</ele>
        <time>2017-12-18T14:32:01Z</time>
      </trkpt>
      <trkpt lat="38.3682050" lon="-0.6535760">
        <ele>274.2</ele>
        <time>2017-12-18T14:32:02Z</time>
      </trkpt>
      <trkpt lat="38.3681980" lon="-0.6536320">
        <ele>273.1</ele>
        <time>2017-12-18T14:32:03Z</time>
      </trkpt>
      <trkpt lat="38.3681910" lon="-0.6536880">
        <ele>273.1</ele>
        <time>2017-12-18T14:32:04Z</time>
      </trkpt>
      <trkpt lat="38.3681870" lon="-0.6537460">
        <ele>272.2</ele>
        <time>2017-12-18T14:32:05Z</time>
      </trkpt>
      <trkpt lat="38.3681900" lon="-0.6538040">
        <ele>272.2</ele>
        <time>2017-12-18T14:32:06Z</time>
      </trkpt>
      <trkpt lat="38.3682000" lon="-0.6538620">
        <ele>272.2</ele>
        <time>2017-12-18T14:32:07Z</time>
      </trkpt>
      <trkpt lat="38.3682190" lon="-0.6539170">
        <ele>272.2</ele>
        <time>2017-12-18T14:32:08Z</time>
      </trkpt>
      <trkpt lat="38.3682460" lon="-0.6539670">
        <ele>272.2</ele>
        <time>2017-12-18T14:32:09Z</time>
      </trkpt>
      <trkpt lat="38.3682810" lon="-0.6540130">
        <ele>272.2</ele>
        <time>2017-12-18T14:32:10Z</time>
      </trkpt>
      <trkpt lat="38.3683220" lon="-0.6540620">
        <ele>271.1</ele>
        <time>2017-12-18T14:32:11Z</time>
      </trkpt>
      <trkpt lat="38.3683700" lon="-0.6541070">
        <ele>271.1</ele>
        <time>2017-12-18T14:32:12Z</time>
      </trkpt>
      <trkpt lat="38.3684250" lon="-0.6541390">
        <ele>271.1</ele>
        <time>2017-12-18T14:32:13Z</time>
      </trkpt>
      <trkpt lat="38.3684820" lon="-0.6541690">
        <ele>271.1</ele>
        <time>2017-12-18T14:32:14Z</time>
      </trkpt>
      <trkpt lat="38.3685410" lon="-0.6541990">
        <ele>270.2</ele>
        <time>2017-12-18T14:32:15Z</time>
      </trkpt>
      <trkpt lat="38.3686020" lon="-0.6542220">
        <ele>270.2</ele>
        <time>2017-12-18T14:32:16Z</time>
      </trkpt>
      <trkpt lat="38.3686650" lon="-0.6542620">
        <ele>270.2</ele>
        <time>2017-12-18T14:32:17Z</time>
      </trkpt>
      <trkpt lat="38.3687140" lon="-0.6543280">
        <ele>270.2</ele>
        <time>2017-12-18T14:32:18Z</time>
      </trkpt>
      <trkpt lat="38.3687650" lon="-0.6543990">
        <ele>270.2</ele>
        <time>2017-12-18T14:32:19Z</time>
      </trkpt>
      <trkpt lat="38.3688230" lon="-0.6544600">
        <ele>270.2</ele>
        <time>2017-12-18T14:32:20Z</time>
      </trkpt>
      <trkpt lat="38.3688810" lon="-0.6545230">
        <ele>265.2</ele>
        <time>2017-12-18T14:32:21Z</time>
      </trkpt>
      <trkpt lat="38.3689350" lon="-0.6545920">
        <ele>265.2</ele>
        <time>2017-12-18T14:32:22Z</time>
      </trkpt>
      <trkpt lat="38.3689830" lon="-0.6546650">
        <ele>264.1</ele>
        <time>2017-12-18T14:32:23Z</time>
      </trkpt>
      <trkpt lat="38.3690330" lon="-0.6547330">
        <ele>264.1</ele>
        <time>2017-12-18T14:32:24Z</time>
      </trkpt>
      <trkpt lat="38.3690740" lon="-0.6547900">
        <ele>264.1</ele>
        <time>2017-12-18T14:32:25Z</time>
      </trkpt>
      <trkpt lat="38.3691140" lon="-0.6548480">
        <ele>264.1</ele>
        <time>2017-12-18T14:32:26Z</time>
      </trkpt>
      <trkpt lat="38.3691510" lon="-0.6549040">
        <ele>264.1</ele>
        <time>2017-12-18T14:32:27Z</time>
      </trkpt>
      <trkpt lat="38.3691880" lon="-0.6549560">
        <ele>264.1</ele>
        <time>2017-12-18T14:32:28Z</time>
      </trkpt>
      <trkpt lat="38.3692250" lon="-0.6550010">
        <ele>264.1</ele>
        <time>2017-12-18T14:32:29Z</time>
      </trkpt>
      <trkpt lat="38.3692560" lon="-0.6550490">
        <ele>264.1</ele>
        <time>2017-12-18T14:32:30Z</time>
      </trkpt>
      <trkpt lat="38.3692830" lon="-0.6551000">
        <ele>264.1</ele>
        <time>2017-12-18T14:32:31Z</time>
      </trkpt>
      <trkpt lat="38.3693080" lon="-0.6551520">
        <ele>264.1</ele>
        <time>2017-12-18T14:32:32Z</time>
      </trkpt>
      <trkpt lat="38.3693310" lon="-0.6552050">
        <ele>264.1</ele>
        <time>2017-12-18T14:32:33Z</time>
      </trkpt>
      <trkpt lat="38.3693490" lon="-0.6552530">
        <ele>264.1</ele>
        <time>2017-12-18T14:32:34Z</time>
      </trkpt>
      <trkpt lat="38.3693660" lon="-0.6552900">
        <ele>266.1</ele>
        <time>2017-12-18T14:32:35Z</time>
      </trkpt>
      <trkpt lat="38.3693860" lon="-0.6553140">
        <ele>266.1</ele>
        <time>2017-12-18T14:32:36Z</time>
      </trkpt>
      <trkpt lat="38.3694080" lon="-0.6553350">
        <ele>266.1</ele>
        <time>2017-12-18T14:32:37Z</time>
      </trkpt>
      <trkpt lat="38.3694410" lon="-0.6553660">
        <ele>266.1</ele>
        <time>2017-12-18T14:32:38Z</time>
      </trkpt>
      <trkpt lat="38.3694720" lon="-0.6554030">
        <ele>266.1</ele>
        <time>2017-12-18T14:32:39Z</time>
      </trkpt>
      <trkpt lat="38.3694980" lon="-0.6554390">
        <ele>266.1</ele>
        <time>2017-12-18T14:32:40Z</time>
      </trkpt>
      <trkpt lat="38.3695260" lon="-0.6554710">
        <ele>266.1</ele>
        <time>2017-12-18T14:32:41Z</time>
      </trkpt>
      <trkpt lat="38.3695600" lon="-0.6554910">
        <ele>266.1</ele>
        <time>2017-12-18T14:32:42Z</time>
      </trkpt>
      <trkpt lat="38.3696000" lon="-0.6554940">
        <ele>266.1</ele>
        <time>2017-12-18T14:32:43Z</time>
      </trkpt>
      <trkpt lat="38.3696450" lon="-0.6554870">
        <ele>266.1</ele>
        <time>2017-12-18T14:32:44Z</time>
      </trkpt>
      <trkpt lat="38.3696830" lon="-0.6554730">
        <ele>266.1</ele>
        <time>2017-12-18T14:32:45Z</time>
      </trkpt>
      <trkpt lat="38.3697110" lon="-0.6554610">
        <ele>266.1</ele>
        <time>2017-12-18T14:32:46Z</time>
      </trkpt>
      <trkpt lat="38.3697310" lon="-0.6554470">
        <ele>266.1</ele>
        <time>2017-12-18T14:32:47Z</time>
      </trkpt>
      <trkpt lat="38.3697530" lon="-0.6554310">
        <ele>266.1</ele>
        <time>2017-12-18T14:32:48Z</time>
      </trkpt>
      <trkpt lat="38.3697710" lon="-0.6554180">
        <ele>267.2</ele>
        <time>2017-12-18T14:32:49Z</time>
      </trkpt>
      <trkpt lat="38.3697840" lon="-0.6554040">
        <ele>267.2</ele>
        <time>2017-12-18T14:32:50Z</time>
      </trkpt>
      <trkpt lat="38.3697980" lon="-0.6553940">
        <ele>268.1</ele>
        <time>2017-12-18T14:32:51Z</time>
      </trkpt>
      <trkpt lat="38.3698120" lon="-0.6553830">
        <ele>268.1</ele>
        <time>2017-12-18T14:32:52Z</time>
      </trkpt>
      <trkpt lat="38.3698260" lon="-0.6553720">
        <ele>268.1</ele>
        <time>2017-12-18T14:32:53Z</time>
      </trkpt>
      <trkpt lat="38.3698400" lon="-0.6553600">
        <ele>268.1</ele>
        <time>2017-12-18T14:32:54Z</time>
      </trkpt>
      <trkpt lat="38.3698530" lon="-0.6553480">
        <ele>268.1</ele>
        <time>2017-12-18T14:32:55Z</time>
      </trkpt>
      <trkpt lat="38.3698630" lon="-0.6553360">
        <ele>268.1</ele>
        <time>2017-12-18T14:32:56Z</time>
      </trkpt>
      <trkpt lat="38.3698750" lon="-0.6553280">
        <ele>269.1</ele>
        <time>2017-12-18T14:32:57Z</time>
      </trkpt>
      <trkpt lat="38.3698850" lon="-0.6553200">
        <ele>269.1</ele>
        <time>2017-12-18T14:32:58Z</time>
      </trkpt>
      <trkpt lat="38.3698950" lon="-0.6553110">
        <ele>269.1</ele>
        <time>2017-12-18T14:32:59Z</time>
      </trkpt>
      <trkpt lat="38.3699060" lon="-0.6553010">
        <ele>269.1</ele>
        <time>2017-12-18T14:33:00Z</time>
      </trkpt>
      <trkpt lat="38.3699170" lon="-0.6552910">
        <ele>270.2</ele>
        <time>2017-12-18T14:33:01Z</time>
      </trkpt>
      <trkpt lat="38.3699290" lon="-0.6552820">
        <ele>270.2</ele>
        <time>2017-12-18T14:33:02Z</time>
      </trkpt>
      <trkpt lat="38.3699430" lon="-0.6552740">
        <ele>270.2</ele>
        <time>2017-12-18T14:33:03Z</time>
      </trkpt>
      <trkpt lat="38.3699560" lon="-0.6552620">
        <ele>270.2</ele>
        <time>2017-12-18T14:33:04Z</time>
      </trkpt>
      <trkpt lat="38.3699690" lon="-0.6552500">
        <ele>270.2</ele>
        <time>2017-12-18T14:33:05Z</time>
      </trkpt>
      <trkpt lat="38.3699830" lon="-0.6552390">
        <ele>270.2</ele>
        <time>2017-12-18T14:33:06Z</time>
      </trkpt>
      <trkpt lat="38.3699970" lon="-0.6552270">
        <ele>270.2</ele>
        <time>2017-12-18T14:33:07Z</time>
      </trkpt>
      <trkpt lat="38.3700110" lon="-0.6552180">
        <ele>270.2</ele>
        <time>2017-12-18T14:33:08Z</time>
      </trkpt>
      <trkpt lat="38.3700250" lon="-0.6552090">
        <ele>272.2</ele>
        <time>2017-12-18T14:33:09Z</time>
      </trkpt>
      <trkpt lat="38.3700400" lon="-0.6552000">
        <ele>272.2</ele>
        <time>2017-12-18T14:33:10Z</time>
      </trkpt>
      <trkpt lat="38.3700540" lon="-0.6551930">
        <ele>272.2</ele>
        <time>2017-12-18T14:33:11Z</time>
      </trkpt>
      <trkpt lat="38.3700710" lon="-0.6551870">
        <ele>272.2</ele>
        <time>2017-12-18T14:33:12Z</time>
      </trkpt>
      <trkpt lat="38.3700890" lon="-0.6551800">
        <ele>273.1</ele>
        <time>2017-12-18T14:33:13Z</time>
      </trkpt>
      <trkpt lat="38.3701060" lon="-0.6551710">
        <ele>273.1</ele>
        <time>2017-12-18T14:33:14Z</time>
      </trkpt>
      <trkpt lat="38.3701200" lon="-0.6551660">
        <ele>274.2</ele>
        <time>2017-12-18T14:33:15Z</time>
      </trkpt>
      <trkpt lat="38.3701340" lon="-0.6551610">
        <ele>274.2</ele>
        <time>2017-12-18T14:33:16Z</time>
      </trkpt>
      <trkpt lat="38.3701490" lon="-0.6551570">
        <ele>274.2</ele>
        <time>2017-12-18T14:33:17Z</time>
      </trkpt>
      <trkpt lat="38.3701630" lon="-0.6551550">
        <ele>274.2</ele>
        <time>2017-12-18T14:33:18Z</time>
      </trkpt>
      <trkpt lat="38.3701780" lon="-0.6551500">
        <ele>274.2</ele>
        <time>2017-12-18T14:33:19Z</time>
      </trkpt>
      <trkpt lat="38.3701950" lon="-0.6551500">
        <ele>274.2</ele>
        <time>2017-12-18T14:33:20Z</time>
      </trkpt>
      <trkpt lat="38.3702110" lon="-0.6551510">
        <ele>274.2</ele>
        <time>2017-12-18T14:33:21Z</time>
      </trkpt>
      <trkpt lat="38.3702260" lon="-0.6551500">
        <ele>274.2</ele>
        <time>2017-12-18T14:33:22Z</time>
      </trkpt>
      <trkpt lat="38.3702390" lon="-0.6551500">
        <ele>274.2</ele>
        <time>2017-12-18T14:33:23Z</time>
      </trkpt>
      <trkpt lat="38.3702540" lon="-0.6551520">
        <ele>274.2</ele>
        <time>2017-12-18T14:33:24Z</time>
      </trkpt>
      <trkpt lat="38.3702690" lon="-0.6551520">
        <ele>276.2</ele>
        <time>2017-12-18T14:33:25Z</time>
      </trkpt>
      <trkpt lat="38.3702830" lon="-0.6551510">
        <ele>276.2</ele>
        <time>2017-12-18T14:33:26Z</time>
      </trkpt>
      <trkpt lat="38.3702960" lon="-0.6551550">
        <ele>277.2</ele>
        <time>2017-12-18T14:33:27Z</time>
      </trkpt>
      <trkpt lat="38.3703100" lon="-0.6551560">
        <ele>277.2</ele>
        <time>2017-12-18T14:33:28Z</time>
      </trkpt>
      <trkpt lat="38.3703270" lon="-0.6551590">
        <ele>277.2</ele>
        <time>2017-12-18T14:33:29Z</time>
      </trkpt>
      <trkpt lat="38.3703430" lon="-0.6551650">
        <ele>277.2</ele>
        <time>2017-12-18T14:33:30Z</time>
      </trkpt>
      <trkpt lat="38.3703580" lon="-0.6551720">
        <ele>277.2</ele>
        <time>2017-12-18T14:33:31Z</time>
      </trkpt>
      <trkpt lat="38.3703720" lon="-0.6551770">
        <ele>277.2</ele>
        <time>2017-12-18T14:33:32Z</time>
      </trkpt>
      <trkpt lat="38.3703860" lon="-0.6551770">
        <ele>277.2</ele>
        <time>2017-12-18T14:33:33Z</time>
      </trkpt>
      <trkpt lat="38.3704010" lon="-0.6551770">
        <ele>277.2</ele>
        <time>2017-12-18T14:33:34Z</time>
      </trkpt>
      <trkpt lat="38.3704170" lon="-0.6551760">
        <ele>278.1</ele>
        <time>2017-12-18T14:33:35Z</time>
      </trkpt>
      <trkpt lat="38.3704330" lon="-0.6551760">
        <ele>278.1</ele>
        <time>2017-12-18T14:33:36Z</time>
      </trkpt>
      <trkpt lat="38.3704510" lon="-0.6551800">
        <ele>278.1</ele>
        <time>2017-12-18T14:33:37Z</time>
      </trkpt>
      <trkpt lat="38.3704710" lon="-0.6551810">
        <ele>278.1</ele>
        <time>2017-12-18T14:33:38Z</time>
      </trkpt>
      <trkpt lat="38.3704900" lon="-0.6551840">
        <ele>278.1</ele>
        <time>2017-12-18T14:33:39Z</time>
      </trkpt>
      <trkpt lat="38.3705030" lon="-0.6551850">
        <ele>278.1</ele>
        <time>2017-12-18T14:33:40Z</time>
      </trkpt>
      <trkpt lat="38.3705180" lon="-0.6551870">
        <ele>278.1</ele>
        <time>2017-12-18T14:33:41Z</time>
      </trkpt>
      <trkpt lat="38.3705340" lon="-0.6551910">
        <ele>278.1</ele>
        <time>2017-12-18T14:33:42Z</time>
      </trkpt>
      <trkpt lat="38.3705490" lon="-0.6551970">
        <ele>279.2</ele>
        <time>2017-12-18T14:33:43Z</time>
      </trkpt>
      <trkpt lat="38.3705660" lon="-0.6551990">
        <ele>279.2</ele>
        <time>2017-12-18T14:33:44Z</time>
      </trkpt>
      <trkpt lat="38.3705840" lon="-0.6551990">
        <ele>279.2</ele>
        <time>2017-12-18T14:33:45Z</time>
      </trkpt>
      <trkpt lat="38.3706020" lon="-0.6552010">
        <ele>279.2</ele>
        <time>2017-12-18T14:33:46Z</time>
      </trkpt>
      <trkpt lat="38.3706180" lon="-0.6552000">
        <ele>279.2</ele>
        <time>2017-12-18T14:33:47Z</time>
      </trkpt>
      <trkpt lat="38.3706350" lon="-0.6551970">
        <ele>279.2</ele>
        <time>2017-12-18T14:33:48Z</time>
      </trkpt>
      <trkpt lat="38.3706490" lon="-0.6551950">
        <ele>279.2</ele>
        <time>2017-12-18T14:33:49Z</time>
      </trkpt>
      <trkpt lat="38.3706650" lon="-0.6551920">
        <ele>279.2</ele>
        <time>2017-12-18T14:33:50Z</time>
      </trkpt>
      <trkpt lat="38.3706790" lon="-0.6551910">
        <ele>280.1</ele>
        <time>2017-12-18T14:33:51Z</time>
      </trkpt>
      <trkpt lat="38.3706910" lon="-0.6551920">
        <ele>280.1</ele>
        <time>2017-12-18T14:33:52Z</time>
      </trkpt>
      <trkpt lat="38.3707040" lon="-0.6551920">
        <ele>281.2</ele>
        <time>2017-12-18T14:33:53Z</time>
      </trkpt>
      <trkpt lat="38.3707140" lon="-0.6551900">
        <ele>281.2</ele>
        <time>2017-12-18T14:33:54Z</time>
      </trkpt>
      <trkpt lat="38.3707240" lon="-0.6551860">
        <ele>281.2</ele>
        <time>2017-12-18T14:33:55Z</time>
      </trkpt>
      <trkpt lat="38.3707360" lon="-0.6551860">
        <ele>281.2</ele>
        <time>2017-12-18T14:33:56Z</time>
      </trkpt>
      <trkpt lat="38.3707490" lon="-0.6551860">
        <ele>282.1</ele>
        <time>2017-12-18T14:33:57Z</time>
      </trkpt>
      <trkpt lat="38.3707620" lon="-0.6551830">
        <ele>282.1</ele>
        <time>2017-12-18T14:33:58Z</time>
      </trkpt>
      <trkpt lat="38.3707760" lon="-0.6551790">
        <ele>282.1</ele>
        <time>2017-12-18T14:33:59Z</time>
      </trkpt>
      <trkpt lat="38.3707910" lon="-0.6551760">
        <ele>282.1</ele>
        <time>2017-12-18T14:34:00Z</time>
      </trkpt>
      <trkpt lat="38.3708060" lon="-0.6551730">
        <ele>282.1</ele>
        <time>2017-12-18T14:34:01Z</time>
      </trkpt>
      <trkpt lat="38.3708230" lon="-0.6551690">
        <ele>282.1</ele>
        <time>2017-12-18T14:34:02Z</time>
      </trkpt>
      <trkpt lat="38.3708390" lon="-0.6551670">
        <ele>282.1</ele>
        <time>2017-12-18T14:34:03Z</time>
      </trkpt>
      <trkpt lat="38.3708550" lon="-0.6551640">
        <ele>282.1</ele>
        <time>2017-12-18T14:34:04Z</time>
      </trkpt>
      <trkpt lat="38.3708690" lon="-0.6551620">
        <ele>283.2</ele>
        <time>2017-12-18T14:34:05Z</time>
      </trkpt>
      <trkpt lat="38.3708850" lon="-0.6551630">
        <ele>283.2</ele>
        <time>2017-12-18T14:34:06Z</time>
      </trkpt>
      <trkpt lat="38.3709000" lon="-0.6551630">
        <ele>284.1</ele>
        <time>2017-12-18T14:34:07Z</time>
      </trkpt>
      <trkpt lat="38.3709140" lon="-0.6551670">
        <ele>284.1</ele>
        <time>2017-12-18T14:34:08Z</time>
      </trkpt>
      <trkpt lat="38.3709260" lon="-0.6551720">
        <ele>284.1</ele>
        <time>2017-12-18T14:34:09Z</time>
      </trkpt>
      <trkpt lat="38.3709390" lon="-0.6551790">
        <ele>284.1</ele>
        <time>2017-12-18T14:34:10Z</time>
      </trkpt>
      <trkpt lat="38.3709560" lon="-0.6551840">
        <ele>285.1</ele>
        <time>2017-12-18T14:34:11Z</time>
      </trkpt>
      <trkpt lat="38.3709690" lon="-0.6551920">
        <ele>285.1</ele>
        <time>2017-12-18T14:34:12Z</time>
      </trkpt>
      <trkpt lat="38.3709850" lon="-0.6551990">
        <ele>285.1</ele>
        <time>2017-12-18T14:34:13Z</time>
      </trkpt>
      <trkpt lat="38.3710030" lon="-0.6552090">
        <ele>285.1</ele>
        <time>2017-12-18T14:34:14Z</time>
      </trkpt>
      <trkpt lat="38.3710200" lon="-0.6552210">
        <ele>285.1</ele>
        <time>2017-12-18T14:34:15Z</time>
      </trkpt>
      <trkpt lat="38.3710380" lon="-0.6552340">
        <ele>285.1</ele>
        <time>2017-12-18T14:34:16Z</time>
      </trkpt>
      <trkpt lat="38.3710560" lon="-0.6552450">
        <ele>286.2</ele>
        <time>2017-12-18T14:34:17Z</time>
      </trkpt>
      <trkpt lat="38.3710750" lon="-0.6552520">
        <ele>286.2</ele>
        <time>2017-12-18T14:34:18Z</time>
      </trkpt>
      <trkpt lat="38.3710950" lon="-0.6552580">
        <ele>286.2</ele>
        <time>2017-12-18T14:34:19Z</time>
      </trkpt>
      <trkpt lat="38.3711170" lon="-0.6552630">
        <ele>286.2</ele>
        <time>2017-12-18T14:34:20Z</time>
      </trkpt>
      <trkpt lat="38.3711340" lon="-0.6552690">
        <ele>286.2</ele>
        <time>2017-12-18T14:34:21Z</time>
      </trkpt>
      <trkpt lat="38.3711490" lon="-0.6552730">
        <ele>286.2</ele>
        <time>2017-12-18T14:34:22Z</time>
      </trkpt>
      <trkpt lat="38.3711650" lon="-0.6552740">
        <ele>287.1</ele>
        <time>2017-12-18T14:34:23Z</time>
      </trkpt>
      <trkpt lat="38.3711810" lon="-0.6552780">
        <ele>287.1</ele>
        <time>2017-12-18T14:34:24Z</time>
      </trkpt>
      <trkpt lat="38.3711970" lon="-0.6552810">
        <ele>287.1</ele>
        <time>2017-12-18T14:34:25Z</time>
      </trkpt>
      <trkpt lat="38.3712130" lon="-0.6552870">
        <ele>287.1</ele>
        <time>2017-12-18T14:34:26Z</time>
      </trkpt>
      <trkpt lat="38.3712300" lon="-0.6552930">
        <ele>287.1</ele>
        <time>2017-12-18T14:34:27Z</time>
      </trkpt>
      <trkpt lat="38.3712460" lon="-0.6552950">
        <ele>287.1</ele>
        <time>2017-12-18T14:34:28Z</time>
      </trkpt>
      <trkpt lat="38.3712610" lon="-0.6552980">
        <ele>288.2</ele>
        <time>2017-12-18T14:34:29Z</time>
      </trkpt>
      <trkpt lat="38.3712770" lon="-0.6553000">
        <ele>288.2</ele>
        <time>2017-12-18T14:34:30Z</time>
      </trkpt>
      <trkpt lat="38.3712920" lon="-0.6553040">
        <ele>288.2</ele>
        <time>2017-12-18T14:34:31Z</time>
      </trkpt>
      <trkpt lat="38.3713080" lon="-0.6553040">
        <ele>288.2</ele>
        <time>2017-12-18T14:34:32Z</time>
      </trkpt>
      <trkpt lat="38.3713240" lon="-0.6553070">
        <ele>289.1</ele>
        <time>2017-12-18T14:34:33Z</time>
      </trkpt>
      <trkpt lat="38.3713390" lon="-0.6553080">
        <ele>289.1</ele>
        <time>2017-12-18T14:34:34Z</time>
      </trkpt>
      <trkpt lat="38.3713550" lon="-0.6553110">
        <ele>289.1</ele>
        <time>2017-12-18T14:34:35Z</time>
      </trkpt>
      <trkpt lat="38.3713690" lon="-0.6553140">
        <ele>289.1</ele>
        <time>2017-12-18T14:34:36Z</time>
      </trkpt>
      <trkpt lat="38.3713860" lon="-0.6553160">
        <ele>290.2</ele>
        <time>2017-12-18T14:34:37Z</time>
      </trkpt>
      <trkpt lat="38.3714010" lon="-0.6553170">
        <ele>290.2</ele>
        <time>2017-12-18T14:34:38Z</time>
      </trkpt>
      <trkpt lat="38.3714160" lon="-0.6553140">
        <ele>290.2</ele>
        <time>2017-12-18T14:34:39Z</time>
      </trkpt>
      <trkpt lat="38.3714330" lon="-0.6553160">
        <ele>290.2</ele>
        <time>2017-12-18T14:34:40Z</time>
      </trkpt>
      <trkpt lat="38.3714500" lon="-0.6553210">
        <ele>290.2</ele>
        <time>2017-12-18T14:34:41Z</time>
      </trkpt>
      <trkpt lat="38.3714650" lon="-0.6553270">
        <ele>290.2</ele>
        <time>2017-12-18T14:34:42Z</time>
      </trkpt>
      <trkpt lat="38.3714830" lon="-0.6553390">
        <ele>290.2</ele>
        <time>2017-12-18T14:34:43Z</time>
      </trkpt>
      <trkpt lat="38.3715020" lon="-0.6553500">
        <ele>290.2</ele>
        <time>2017-12-18T14:34:44Z</time>
      </trkpt>
      <trkpt lat="38.3715170" lon="-0.6553610">
        <ele>290.2</ele>
        <time>2017-12-18T14:34:45Z</time>
      </trkpt>
      <trkpt lat="38.3715300" lon="-0.6553720">
        <ele>290.2</ele>
        <time>2017-12-18T14:34:46Z</time>
      </trkpt>
      <trkpt lat="38.3715430" lon="-0.6553830">
        <ele>291.1</ele>
        <time>2017-12-18T14:34:47Z</time>
      </trkpt>
      <trkpt lat="38.3715540" lon="-0.6553940">
        <ele>291.1</ele>
        <time>2017-12-18T14:34:48Z</time>
      </trkpt>
      <trkpt lat="38.3715660" lon="-0.6554050">
        <ele>291.1</ele>
        <time>2017-12-18T14:34:49Z</time>
      </trkpt>
      <trkpt lat="38.3715780" lon="-0.6554150">
        <ele>291.1</ele>
        <time>2017-12-18T14:34:50Z</time>
      </trkpt>
      <trkpt lat="38.3715900" lon="-0.6554260">
        <ele>291.1</ele>
        <time>2017-12-18T14:34:51Z</time>
      </trkpt>
      <trkpt lat="38.3716040" lon="-0.6554360">
        <ele>291.1</ele>
        <time>2017-12-18T14:34:52Z</time>
      </trkpt>
      <trkpt lat="38.3716200" lon="-0.6554440">
        <ele>292.2</ele>
        <time>2017-12-18T14:34:53Z</time>
      </trkpt>
      <trkpt lat="38.3716350" lon="-0.6554530">
        <ele>292.2</ele>
        <time>2017-12-18T14:34:54Z</time>
      </trkpt>
      <trkpt lat="38.3716500" lon="-0.6554600">
        <ele>292.2</ele>
        <time>2017-12-18T14:34:55Z</time>
      </trkpt>
      <trkpt lat="38.3716630" lon="-0.6554640">
        <ele>292.2</ele>
        <time>2017-12-18T14:34:56Z</time>
      </trkpt>
      <trkpt lat="38.3716750" lon="-0.6554700">
        <ele>293.2</ele>
        <time>2017-12-18T14:34:57Z</time>
      </trkpt>
      <trkpt lat="38.3716880" lon="-0.6554770">
        <ele>293.2</ele>
        <time>2017-12-18T14:34:58Z</time>
      </trkpt>
      <trkpt lat="38.3717030" lon="-0.6554840">
        <ele>294.1</ele>
        <time>2017-12-18T14:34:59Z</time>
      </trkpt>
      <trkpt lat="38.3717150" lon="-0.6554910">
        <ele>294.1</ele>
        <time>2017-12-18T14:35:00Z</time>
      </trkpt>
      <trkpt lat="38.3717300" lon="-0.6554960">
        <ele>295.2</ele>
        <time>2017-12-18T14:35:01Z</time>
      </trkpt>
      <trkpt lat="38.3717430" lon="-0.6555030">
        <ele>295.2</ele>
        <time>2017-12-18T14:35:02Z</time>
      </trkpt>
      <trkpt lat="38.3717570" lon="-0.6555080">
        <ele>296.1</ele>
        <time>2017-12-18T14:35:03Z</time>
      </trkpt>
      <trkpt lat="38.3717720" lon="-0.6555150">
        <ele>296.1</ele>
        <time>2017-12-18T14:35:04Z</time>
      </trkpt>
      <trkpt lat="38.3717880" lon="-0.6555280">
        <ele>296.1</ele>
        <time>2017-12-18T14:35:05Z</time>
      </trkpt>
      <trkpt lat="38.3718080" lon="-0.6555400">
        <ele>296.1</ele>
        <time>2017-12-18T14:35:06Z</time>
      </trkpt>
      <trkpt lat="38.3718320" lon="-0.6555540">
        <ele>296.1</ele>
        <time>2017-12-18T14:35:07Z</time>
      </trkpt>
      <trkpt lat="38.3718670" lon="-0.6555660">
        <ele>296.1</ele>
        <time>2017-12-18T14:35:08Z</time>
      </trkpt>
      <trkpt lat="38.3719000" lon="-0.6555870">
        <ele>295.2</ele>
        <time>2017-12-18T14:35:09Z</time>
      </trkpt>
      <trkpt lat="38.3719320" lon="-0.6556140">
        <ele>295.2</ele>
        <time>2017-12-18T14:35:10Z</time>
      </trkpt>
      <trkpt lat="38.3719670" lon="-0.6556460">
        <ele>295.2</ele>
        <time>2017-12-18T14:35:11Z</time>
      </trkpt>
      <trkpt lat="38.3720040" lon="-0.6556730">
        <ele>295.2</ele>
        <time>2017-12-18T14:35:12Z</time>
      </trkpt>
      <trkpt lat="38.3720420" lon="-0.6557000">
        <ele>294.1</ele>
        <time>2017-12-18T14:35:13Z</time>
      </trkpt>
      <trkpt lat="38.3720820" lon="-0.6557290">
        <ele>294.1</ele>
        <time>2017-12-18T14:35:14Z</time>
      </trkpt>
      <trkpt lat="38.3721240" lon="-0.6557580">
        <ele>293.2</ele>
        <time>2017-12-18T14:35:15Z</time>
      </trkpt>
      <trkpt lat="38.3721710" lon="-0.6557860">
        <ele>293.2</ele>
        <time>2017-12-18T14:35:16Z</time>
      </trkpt>
      <trkpt lat="38.3722190" lon="-0.6558170">
        <ele>293.2</ele>
        <time>2017-12-18T14:35:17Z</time>
      </trkpt>
      <trkpt lat="38.3722680" lon="-0.6558530">
        <ele>293.2</ele>
        <time>2017-12-18T14:35:18Z</time>
      </trkpt>
      <trkpt lat="38.3723180" lon="-0.6558790">
        <ele>292.2</ele>
        <time>2017-12-18T14:35:19Z</time>
      </trkpt>
      <trkpt lat="38.3723630" lon="-0.6558930">
        <ele>292.2</ele>
        <time>2017-12-18T14:35:20Z</time>
      </trkpt>
      <trkpt lat="38.3723990" lon="-0.6558890">
        <ele>292.2</ele>
        <time>2017-12-18T14:35:21Z</time>
      </trkpt>
      <trkpt lat="38.3724300" lon="-0.6558780">
        <ele>292.2</ele>
        <time>2017-12-18T14:35:22Z</time>
      </trkpt>
      <trkpt lat="38.3724500" lon="-0.6558650">
        <ele>293.2</ele>
        <time>2017-12-18T14:35:23Z</time>
      </trkpt>
      <trkpt lat="38.3724650" lon="-0.6558510">
        <ele>293.2</ele>
        <time>2017-12-18T14:35:24Z</time>
      </trkpt>
      <trkpt lat="38.3724810" lon="-0.6558370">
        <ele>293.2</ele>
        <time>2017-12-18T14:35:25Z</time>
      </trkpt>
      <trkpt lat="38.3724960" lon="-0.6558230">
        <ele>293.2</ele>
        <time>2017-12-18T14:35:26Z</time>
      </trkpt>
      <trkpt lat="38.3725100" lon="-0.6558060">
        <ele>294.1</ele>
        <time>2017-12-18T14:35:27Z</time>
      </trkpt>
      <trkpt lat="38.3725220" lon="-0.6557910">
        <ele>294.1</ele>
        <time>2017-12-18T14:35:28Z</time>
      </trkpt>
      <trkpt lat="38.3725350" lon="-0.6557800">
        <ele>294.1</ele>
        <time>2017-12-18T14:35:29Z</time>
      </trkpt>
      <trkpt lat="38.3725470" lon="-0.6557690">
        <ele>294.1</ele>
        <time>2017-12-18T14:35:30Z</time>
      </trkpt>
      <trkpt lat="38.3725590" lon="-0.6557580">
        <ele>295.2</ele>
        <time>2017-12-18T14:35:31Z</time>
      </trkpt>
      <trkpt lat="38.3725720" lon="-0.6557440">
        <ele>295.2</ele>
        <time>2017-12-18T14:35:32Z</time>
      </trkpt>
      <trkpt lat="38.3725840" lon="-0.6557340">
        <ele>295.2</ele>
        <time>2017-12-18T14:35:33Z</time>
      </trkpt>
      <trkpt lat="38.3725970" lon="-0.6557210">
        <ele>295.2</ele>
        <time>2017-12-18T14:35:34Z</time>
      </trkpt>
      <trkpt lat="38.3726070" lon="-0.6557080">
        <ele>296.1</ele>
        <time>2017-12-18T14:35:35Z</time>
      </trkpt>
      <trkpt lat="38.3726180" lon="-0.6556940">
        <ele>296.1</ele>
        <time>2017-12-18T14:35:36Z</time>
      </trkpt>
      <trkpt lat="38.3726320" lon="-0.6556810">
        <ele>296.1</ele>
        <time>2017-12-18T14:35:37Z</time>
      </trkpt>
      <trkpt lat="38.3726470" lon="-0.6556700">
        <ele>296.1</ele>
        <time>2017-12-18T14:35:38Z</time>
      </trkpt>
      <trkpt lat="38.3726600" lon="-0.6556600">
        <ele>296.1</ele>
        <time>2017-12-18T14:35:39Z</time>
      </trkpt>
      <trkpt lat="38.3726740" lon="-0.6556490">
        <ele>296.1</ele>
        <time>2017-12-18T14:35:40Z</time>
      </trkpt>
      <trkpt lat="38.3726900" lon="-0.6556380">
        <ele>296.1</ele>
        <time>2017-12-18T14:35:41Z</time>
      </trkpt>
      <trkpt lat="38.3727090" lon="-0.6556240">
        <ele>296.1</ele>
        <time>2017-12-18T14:35:42Z</time>
      </trkpt>
      <trkpt lat="38.3727250" lon="-0.6556130">
        <ele>296.1</ele>
        <time>2017-12-18T14:35:43Z</time>
      </trkpt>
      <trkpt lat="38.3727390" lon="-0.6556010">
        <ele>296.1</ele>
        <time>2017-12-18T14:35:44Z</time>
      </trkpt>
      <trkpt lat="38.3727540" lon="-0.6555870">
        <ele>296.1</ele>
        <time>2017-12-18T14:35:45Z</time>
      </trkpt>
      <trkpt lat="38.3727730" lon="-0.6555760">
        <ele>296.1</ele>
        <time>2017-12-18T14:35:46Z</time>
      </trkpt>
      <trkpt lat="38.3728050" lon="-0.6555710">
        <ele>296.1</ele>
        <time>2017-12-18T14:35:47Z</time>
      </trkpt>
      <trkpt lat="38.3728400" lon="-0.6555760">
        <ele>296.1</ele>
        <time>2017-12-18T14:35:48Z</time>
      </trkpt>
      <trkpt lat="38.3728790" lon="-0.6555920">
        <ele>295.2</ele>
        <time>2017-12-18T14:35:49Z</time>
      </trkpt>
      <trkpt lat="38.3729110" lon="-0.6556240">
        <ele>295.2</ele>
        <time>2017-12-18T14:35:50Z</time>
      </trkpt>
      <trkpt lat="38.3729330" lon="-0.6556670">
        <ele>295.2</ele>
        <time>2017-12-18T14:35:51Z</time>
      </trkpt>
      <trkpt lat="38.3729520" lon="-0.6557190">
        <ele>295.2</ele>
        <time>2017-12-18T14:35:52Z</time>
      </trkpt>
      <trkpt lat="38.3729620" lon="-0.6557570">
        <ele>295.2</ele>
        <time>2017-12-18T14:35:53Z</time>
      </trkpt>
      <trkpt lat="38.3729710" lon="-0.6557880">
        <ele>295.2</ele>
        <time>2017-12-18T14:35:54Z</time>
      </trkpt>
      <trkpt lat="38.3729750" lon="-0.6558130">
        <ele>295.2</ele>
        <time>2017-12-18T14:35:55Z</time>
      </trkpt>
      <trkpt lat="38.3729790" lon="-0.6558360">
        <ele>295.2</ele>
        <time>2017-12-18T14:35:56Z</time>
      </trkpt>
      <trkpt lat="38.3729840" lon="-0.6558590">
        <ele>296.1</ele>
        <time>2017-12-18T14:35:57Z</time>
      </trkpt>
      <trkpt lat="38.3729890" lon="-0.6558790">
        <ele>296.1</ele>
        <time>2017-12-18T14:35:58Z</time>
      </trkpt>
      <trkpt lat="38.3729950" lon="-0.6558970">
        <ele>297.2</ele>
        <time>2017-12-18T14:35:59Z</time>
      </trkpt>
      <trkpt lat="38.3730000" lon="-0.6559140">
        <ele>297.2</ele>
        <time>2017-12-18T14:36:00Z</time>
      </trkpt>
      <trkpt lat="38.3730060" lon="-0.6559290">
        <ele>298.1</ele>
        <time>2017-12-18T14:36:01Z</time>
      </trkpt>
      <trkpt lat="38.3730130" lon="-0.6559410">
        <ele>298.1</ele>
        <time>2017-12-18T14:36:02Z</time>
      </trkpt>
      <trkpt lat="38.3730220" lon="-0.6559530">
        <ele>299.2</ele>
        <time>2017-12-18T14:36:03Z</time>
      </trkpt>
      <trkpt lat="38.3730320" lon="-0.6559640">
        <ele>299.2</ele>
        <time>2017-12-18T14:36:04Z</time>
      </trkpt>
      <trkpt lat="38.3730430" lon="-0.6559700">
        <ele>299.2</ele>
        <time>2017-12-18T14:36:05Z</time>
      </trkpt>
      <trkpt lat="38.3730570" lon="-0.6559770">
        <ele>299.2</ele>
        <time>2017-12-18T14:36:06Z</time>
      </trkpt>
      <trkpt lat="38.3730730" lon="-0.6559820">
        <ele>300.1</ele>
        <time>2017-12-18T14:36:07Z</time>
      </trkpt>
      <trkpt lat="38.3730880" lon="-0.6559860">
        <ele>300.1</ele>
        <time>2017-12-18T14:36:08Z</time>
      </trkpt>
      <trkpt lat="38.3731030" lon="-0.6559900">
        <ele>300.1</ele>
        <time>2017-12-18T14:36:09Z</time>
      </trkpt>
      <trkpt lat="38.3731180" lon="-0.6559920">
        <ele>300.1</ele>
        <time>2017-12-18T14:36:10Z</time>
      </trkpt>
      <trkpt lat="38.3731320" lon="-0.6559930">
        <ele>300.1</ele>
        <time>2017-12-18T14:36:11Z</time>
      </trkpt>
      <trkpt lat="38.3731480" lon="-0.6559930">
        <ele>300.1</ele>
        <time>2017-12-18T14:36:12Z</time>
      </trkpt>
      <trkpt lat="38.3731630" lon="-0.6559940">
        <ele>300.1</ele>
        <time>2017-12-18T14:36:13Z</time>
      </trkpt>
      <trkpt lat="38.3731760" lon="-0.6559920">
        <ele>300.1</ele>
        <time>2017-12-18T14:36:14Z</time>
      </trkpt>
      <trkpt lat="38.3731900" lon="-0.6559910">
        <ele>301.1</ele>
        <time>2017-12-18T14:36:15Z</time>
      </trkpt>
      <trkpt lat="38.3732040" lon="-0.6559890">
        <ele>301.1</ele>
        <time>2017-12-18T14:36:16Z</time>
      </trkpt>
      <trkpt lat="38.3732190" lon="-0.6559860">
        <ele>301.1</ele>
        <time>2017-12-18T14:36:17Z</time>
      </trkpt>
      <trkpt lat="38.3732340" lon="-0.6559870">
        <ele>301.1</ele>
        <time>2017-12-18T14:36:18Z</time>
      </trkpt>
      <trkpt lat="38.3732500" lon="-0.6559870">
        <ele>302.2</ele>
        <time>2017-12-18T14:36:19Z</time>
      </trkpt>
      <trkpt lat="38.3732660" lon="-0.6559890">
        <ele>302.2</ele>
        <time>2017-12-18T14:36:20Z</time>
      </trkpt>
      <trkpt lat="38.3732820" lon="-0.6559910">
        <ele>302.2</ele>
        <time>2017-12-18T14:36:21Z</time>
      </trkpt>
      <trkpt lat="38.3732950" lon="-0.6559920">
        <ele>302.2</ele>
        <time>2017-12-18T14:36:22Z</time>
      </trkpt>
      <trkpt lat="38.3733100" lon="-0.6559940">
        <ele>303.1</ele>
        <time>2017-12-18T14:36:23Z</time>
      </trkpt>
      <trkpt lat="38.3733260" lon="-0.6559990">
        <ele>303.1</ele>
        <time>2017-12-18T14:36:24Z</time>
      </trkpt>
      <trkpt lat="38.3733430" lon="-0.6560050">
        <ele>303.1</ele>
        <time>2017-12-18T14:36:25Z</time>
      </trkpt>
      <trkpt lat="38.3733610" lon="-0.6560140">
        <ele>303.1</ele>
        <time>2017-12-18T14:36:26Z</time>
      </trkpt>
      <trkpt lat="38.3733790" lon="-0.6560230">
        <ele>303.1</ele>
        <time>2017-12-18T14:36:27Z</time>
      </trkpt>
      <trkpt lat="38.3733950" lon="-0.6560320">
        <ele>303.1</ele>
        <time>2017-12-18T14:36:28Z</time>
      </trkpt>
      <trkpt lat="38.3734100" lon="-0.6560410">
        <ele>303.1</ele>
        <time>2017-12-18T14:36:29Z</time>
      </trkpt>
      <trkpt lat="38.3734230" lon="-0.6560450">
        <ele>303.1</ele>
        <time>2017-12-18T14:36:30Z</time>
      </trkpt>
      <trkpt lat="38.3734370" lon="-0.6560490">
        <ele>303.1</ele>
        <time>2017-12-18T14:36:31Z</time>
      </trkpt>
      <trkpt lat="38.3734500" lon="-0.6560550">
        <ele>303.1</ele>
        <time>2017-12-18T14:36:32Z</time>
      </trkpt>
      <trkpt lat="38.3734650" lon="-0.6560590">
        <ele>304.2</ele>
        <time>2017-12-18T14:36:33Z</time>
      </trkpt>
      <trkpt lat="38.3734810" lon="-0.6560600">
        <ele>304.2</ele>
        <time>2017-12-18T14:36:34Z</time>
      </trkpt>
      <trkpt lat="38.3734970" lon="-0.6560600">
        <ele>304.2</ele>
        <time>2017-12-18T14:36:35Z</time>
      </trkpt>
      <trkpt lat="38.3735140" lon="-0.6560590">
        <ele>304.2</ele>
        <time>2017-12-18T14:36:36Z</time>
      </trkpt>
      <trkpt lat="38.3735310" lon="-0.6560540">
        <ele>304.2</ele>
        <time>2017-12-18T14:36:37Z</time>
      </trkpt>
      <trkpt lat="38.3735470" lon="-0.6560460">
        <ele>304.2</ele>
        <time>2017-12-18T14:36:38Z</time>
      </trkpt>
      <trkpt lat="38.3735610" lon="-0.6560340">
        <ele>304.2</ele>
        <time>2017-12-18T14:36:39Z</time>
      </trkpt>
      <trkpt lat="38.3735790" lon="-0.6560280">
        <ele>304.2</ele>
        <time>2017-12-18T14:36:40Z</time>
      </trkpt>
      <trkpt lat="38.3735970" lon="-0.6560200">
        <ele>305.1</ele>
        <time>2017-12-18T14:36:41Z</time>
      </trkpt>
      <trkpt lat="38.3736140" lon="-0.6560180">
        <ele>305.1</ele>
        <time>2017-12-18T14:36:42Z</time>
      </trkpt>
      <trkpt lat="38.3736280" lon="-0.6560140">
        <ele>305.1</ele>
        <time>2017-12-18T14:36:43Z</time>
      </trkpt>
      <trkpt lat="38.3736440" lon="-0.6560120">
        <ele>305.1</ele>
        <time>2017-12-18T14:36:44Z</time>
      </trkpt>
      <trkpt lat="38.3736580" lon="-0.6560090">
        <ele>305.1</ele>
        <time>2017-12-18T14:36:45Z</time>
      </trkpt>
      <trkpt lat="38.3736730" lon="-0.6560070">
        <ele>305.1</ele>
        <time>2017-12-18T14:36:46Z</time>
      </trkpt>
      <trkpt lat="38.3736880" lon="-0.6560040">
        <ele>306.2</ele>
        <time>2017-12-18T14:36:47Z</time>
      </trkpt>
      <trkpt lat="38.3737040" lon="-0.6560070">
        <ele>306.2</ele>
        <time>2017-12-18T14:36:48Z</time>
      </trkpt>
      <trkpt lat="38.3737190" lon="-0.6560110">
        <ele>307.1</ele>
        <time>2017-12-18T14:36:49Z</time>
      </trkpt>
      <trkpt lat="38.3737330" lon="-0.6560170">
        <ele>307.1</ele>
        <time>2017-12-18T14:36:50Z</time>
      </trkpt>
      <trkpt lat="38.3737460" lon="-0.6560200">
        <ele>307.1</ele>
        <time>2017-12-18T14:36:51Z</time>
      </trkpt>
      <trkpt lat="38.3737600" lon="-0.6560270">
        <ele>307.1</ele>
        <time>2017-12-18T14:36:52Z</time>
      </trkpt>
      <trkpt lat="38.3737780" lon="-0.6560340">
        <ele>308.2</ele>
        <time>2017-12-18T14:36:53Z</time>
      </trkpt>
      <trkpt lat="38.3737940" lon="-0.6560410">
        <ele>308.2</ele>
        <time>2017-12-18T14:36:54Z</time>
      </trkpt>
      <trkpt lat="38.3738100" lon="-0.6560400">
        <ele>308.2</ele>
        <time>2017-12-18T14:36:55Z</time>
      </trkpt>
      <trkpt lat="38.3738260" lon="-0.6560380">
        <ele>308.2</ele>
        <time>2017-12-18T14:36:56Z</time>
      </trkpt>
      <trkpt lat="38.3738420" lon="-0.6560360">
        <ele>308.2</ele>
        <time>2017-12-18T14:36:57Z</time>
      </trkpt>
      <trkpt lat="38.3738570" lon="-0.6560320">
        <ele>308.2</ele>
        <time>2017-12-18T14:36:58Z</time>
      </trkpt>
      <trkpt lat="38.3738710" lon="-0.6560250">
        <ele>308.2</ele>
        <time>2017-12-18T14:36:59Z</time>
      </trkpt>
      <trkpt lat="38.3738870" lon="-0.6560220">
        <ele>308.2</ele>
        <time>2017-12-18T14:37:00Z</time>
      </trkpt>
      <trkpt lat="38.3739020" lon="-0.6560170">
        <ele>308.2</ele>
        <time>2017-12-18T14:37:01Z</time>
      </trkpt>
      <trkpt lat="38.3739170" lon="-0.6560120">
        <ele>308.2</ele>
        <time>2017-12-18T14:37:02Z</time>
      </trkpt>
      <trkpt lat="38.3739320" lon="-0.6560080">
        <ele>308.2</ele>
        <time>2017-12-18T14:37:03Z</time>
      </trkpt>
      <trkpt lat="38.3739460" lon="-0.6560060">
        <ele>308.2</ele>
        <time>2017-12-18T14:37:04Z</time>
      </trkpt>
      <trkpt lat="38.3739600" lon="-0.6560040">
        <ele>309.1</ele>
        <time>2017-12-18T14:37:05Z</time>
      </trkpt>
      <trkpt lat="38.3739730" lon="-0.6560080">
        <ele>309.1</ele>
        <time>2017-12-18T14:37:06Z</time>
      </trkpt>
      <trkpt lat="38.3739870" lon="-0.6560080">
        <ele>310.1</ele>
        <time>2017-12-18T14:37:07Z</time>
      </trkpt>
      <trkpt lat="38.3740030" lon="-0.6560100">
        <ele>310.1</ele>
        <time>2017-12-18T14:37:08Z</time>
      </trkpt>
      <trkpt lat="38.3740210" lon="-0.6560120">
        <ele>310.1</ele>
        <time>2017-12-18T14:37:09Z</time>
      </trkpt>
      <trkpt lat="38.3740400" lon="-0.6560130">
        <ele>310.1</ele>
        <time>2017-12-18T14:37:10Z</time>
      </trkpt>
      <trkpt lat="38.3740570" lon="-0.6560120">
        <ele>310.1</ele>
        <time>2017-12-18T14:37:11Z</time>
      </trkpt>
      <trkpt lat="38.3740730" lon="-0.6560100">
        <ele>310.1</ele>
        <time>2017-12-18T14:37:12Z</time>
      </trkpt>
      <trkpt lat="38.3740880" lon="-0.6560080">
        <ele>310.1</ele>
        <time>2017-12-18T14:37:13Z</time>
      </trkpt>
      <trkpt lat="38.3741030" lon="-0.6560070">
        <ele>310.1</ele>
        <time>2017-12-18T14:37:14Z</time>
      </trkpt>
      <trkpt lat="38.3741180" lon="-0.6560070">
        <ele>311.2</ele>
        <time>2017-12-18T14:37:15Z</time>
      </trkpt>
      <trkpt lat="38.3741350" lon="-0.6560090">
        <ele>311.2</ele>
        <time>2017-12-18T14:37:16Z</time>
      </trkpt>
      <trkpt lat="38.3741520" lon="-0.6560110">
        <ele>311.2</ele>
        <time>2017-12-18T14:37:17Z</time>
      </trkpt>
      <trkpt lat="38.3741660" lon="-0.6560160">
        <ele>311.2</ele>
        <time>2017-12-18T14:37:18Z</time>
      </trkpt>
      <trkpt lat="38.3741790" lon="-0.6560240">
        <ele>311.2</ele>
        <time>2017-12-18T14:37:19Z</time>
      </trkpt>
      <trkpt lat="38.3741920" lon="-0.6560350">
        <ele>311.2</ele>
        <time>2017-12-18T14:37:20Z</time>
      </trkpt>
      <trkpt lat="38.3742040" lon="-0.6560450">
        <ele>312.1</ele>
        <time>2017-12-18T14:37:21Z</time>
      </trkpt>
      <trkpt lat="38.3742170" lon="-0.6560570">
        <ele>312.1</ele>
        <time>2017-12-18T14:37:22Z</time>
      </trkpt>
      <trkpt lat="38.3742290" lon="-0.6560700">
        <ele>312.1</ele>
        <time>2017-12-18T14:37:23Z</time>
      </trkpt>
      <trkpt lat="38.3742430" lon="-0.6560850">
        <ele>312.1</ele>
        <time>2017-12-18T14:37:24Z</time>
      </trkpt>
      <trkpt lat="38.3742570" lon="-0.6561010">
        <ele>312.1</ele>
        <time>2017-12-18T14:37:25Z</time>
      </trkpt>
      <trkpt lat="38.3742700" lon="-0.6561140">
        <ele>312.1</ele>
        <time>2017-12-18T14:37:26Z</time>
      </trkpt>
      <trkpt lat="38.3742840" lon="-0.6561250">
        <ele>313.2</ele>
        <time>2017-12-18T14:37:27Z</time>
      </trkpt>
      <trkpt lat="38.3742960" lon="-0.6561370">
        <ele>313.2</ele>
        <time>2017-12-18T14:37:28Z</time>
      </trkpt>
      <trkpt lat="38.3743080" lon="-0.6561490">
        <ele>313.2</ele>
        <time>2017-12-18T14:37:29Z</time>
      </trkpt>
      <trkpt lat="38.3743220" lon="-0.6561610">
        <ele>313.2</ele>
        <time>2017-12-18T14:37:30Z</time>
      </trkpt>
      <trkpt lat="38.3743350" lon="-0.6561750">
        <ele>314.1</ele>
        <time>2017-12-18T14:37:31Z</time>
      </trkpt>
      <trkpt lat="38.3743460" lon="-0.6561840">
        <ele>314.1</ele>
        <time>2017-12-18T14:37:32Z</time>
      </trkpt>
      <trkpt lat="38.3743570" lon="-0.6561930">
        <ele>314.1</ele>
        <time>2017-12-18T14:37:33Z</time>
      </trkpt>
      <trkpt lat="38.3743700" lon="-0.6562030">
        <ele>314.1</ele>
        <time>2017-12-18T14:37:34Z</time>
      </trkpt>
      <trkpt lat="38.3743830" lon="-0.6562140">
        <ele>315.2</ele>
        <time>2017-12-18T14:37:35Z</time>
      </trkpt>
      <trkpt lat="38.3743970" lon="-0.6562260">
        <ele>315.2</ele>
        <time>2017-12-18T14:37:36Z</time>
      </trkpt>
      <trkpt lat="38.3744150" lon="-0.6562360">
        <ele>315.2</ele>
        <time>2017-12-18T14:37:37Z</time>
      </trkpt>
      <trkpt lat="38.3744320" lon="-0.6562420">
        <ele>315.2</ele>
        <time>2017-12-18T14:37:38Z</time>
      </trkpt>
      <trkpt lat="38.3744450" lon="-0.6562450">
        <ele>316.1</ele>
        <time>2017-12-18T14:37:39Z</time>
      </trkpt>
      <trkpt lat="38.3744580" lon="-0.6562470">
        <ele>316.1</ele>
        <time>2017-12-18T14:37:40Z</time>
      </trkpt>
      <trkpt lat="38.3744740" lon="-0.6562470">
        <ele>316.1</ele>
        <time>2017-12-18T14:37:41Z</time>
      </trkpt>
      <trkpt lat="38.3744900" lon="-0.6562460">
        <ele>316.1</ele>
        <time>2017-12-18T14:37:42Z</time>
      </trkpt>
      <trkpt lat="38.3745070" lon="-0.6562430">
        <ele>316.1</ele>
        <time>2017-12-18T14:37:43Z</time>
      </trkpt>
      <trkpt lat="38.3745230" lon="-0.6562450">
        <ele>316.1</ele>
        <time>2017-12-18T14:37:44Z</time>
      </trkpt>
      <trkpt lat="38.3745410" lon="-0.6562500">
        <ele>317.1</ele>
        <time>2017-12-18T14:37:45Z</time>
      </trkpt>
      <trkpt lat="38.3745590" lon="-0.6562560">
        <ele>317.1</ele>
        <time>2017-12-18T14:37:46Z</time>
      </trkpt>
      <trkpt lat="38.3745760" lon="-0.6562670">
        <ele>317.1</ele>
        <time>2017-12-18T14:37:47Z</time>
      </trkpt>
      <trkpt lat="38.3745900" lon="-0.6562820">
        <ele>317.1</ele>
        <time>2017-12-18T14:37:48Z</time>
      </trkpt>
      <trkpt lat="38.3746020" lon="-0.6563000">
        <ele>318.2</ele>
        <time>2017-12-18T14:37:49Z</time>
      </trkpt>
      <trkpt lat="38.3746110" lon="-0.6563180">
        <ele>318.2</ele>
        <time>2017-12-18T14:37:50Z</time>
      </trkpt>
      <trkpt lat="38.3746170" lon="-0.6563360">
        <ele>318.2</ele>
        <time>2017-12-18T14:37:51Z</time>
      </trkpt>
      <trkpt lat="38.3746250" lon="-0.6563560">
        <ele>318.2</ele>
        <time>2017-12-18T14:37:52Z</time>
      </trkpt>
      <trkpt lat="38.3746350" lon="-0.6563780">
        <ele>318.2</ele>
        <time>2017-12-18T14:37:53Z</time>
      </trkpt>
      <trkpt lat="38.3746450" lon="-0.6563960">
        <ele>318.2</ele>
        <time>2017-12-18T14:37:54Z</time>
      </trkpt>
      <trkpt lat="38.3746540" lon="-0.6564090">
        <ele>319.1</ele>
        <time>2017-12-18T14:37:55Z</time>
      </trkpt>
      <trkpt lat="38.3746660" lon="-0.6564210">
        <ele>319.1</ele>
        <time>2017-12-18T14:37:56Z</time>
      </trkpt>
      <trkpt lat="38.3746790" lon="-0.6564370">
        <ele>319.1</ele>
        <time>2017-12-18T14:37:57Z</time>
      </trkpt>
      <trkpt lat="38.3746950" lon="-0.6564510">
        <ele>319.1</ele>
        <time>2017-12-18T14:37:58Z</time>
      </trkpt>
      <trkpt lat="38.3747100" lon="-0.6564610">
        <ele>319.1</ele>
        <time>2017-12-18T14:37:59Z</time>
      </trkpt>
      <trkpt lat="38.3747210" lon="-0.6564720">
        <ele>319.1</ele>
        <time>2017-12-18T14:38:00Z</time>
      </trkpt>
      <trkpt lat="38.3747340" lon="-0.6564830">
        <ele>319.1</ele>
        <time>2017-12-18T14:38:01Z</time>
      </trkpt>
      <trkpt lat="38.3747460" lon="-0.6564930">
        <ele>319.1</ele>
        <time>2017-12-18T14:38:02Z</time>
      </trkpt>
      <trkpt lat="38.3747570" lon="-0.6565030">
        <ele>320.2</ele>
        <time>2017-12-18T14:38:03Z</time>
      </trkpt>
      <trkpt lat="38.3747660" lon="-0.6565130">
        <ele>320.2</ele>
        <time>2017-12-18T14:38:04Z</time>
      </trkpt>
      <trkpt lat="38.3747730" lon="-0.6565230">
        <ele>320.2</ele>
        <time>2017-12-18T14:38:05Z</time>
      </trkpt>
      <trkpt lat="38.3747800" lon="-0.6565370">
        <ele>320.2</ele>
        <time>2017-12-18T14:38:06Z</time>
      </trkpt>
      <trkpt lat="38.3747910" lon="-0.6565530">
        <ele>320.2</ele>
        <time>2017-12-18T14:38:07Z</time>
      </trkpt>
      <trkpt lat="38.3747990" lon="-0.6565680">
        <ele>320.2</ele>
        <time>2017-12-18T14:38:08Z</time>
      </trkpt>
      <trkpt lat="38.3748080" lon="-0.6565840">
        <ele>321.1</ele>
        <time>2017-12-18T14:38:09Z</time>
      </trkpt>
      <trkpt lat="38.3748160" lon="-0.6566010">
        <ele>321.1</ele>
        <time>2017-12-18T14:38:10Z</time>
      </trkpt>
      <trkpt lat="38.3748210" lon="-0.6566180">
        <ele>321.1</ele>
        <time>2017-12-18T14:38:11Z</time>
      </trkpt>
      <trkpt lat="38.3748260" lon="-0.6566390">
        <ele>321.1</ele>
        <time>2017-12-18T14:38:12Z</time>
      </trkpt>
      <trkpt lat="38.3748310" lon="-0.6566620">
        <ele>322.2</ele>
        <time>2017-12-18T14:38:13Z</time>
      </trkpt>
      <trkpt lat="38.3748360" lon="-0.6566850">
        <ele>322.2</ele>
        <time>2017-12-18T14:38:14Z</time>
      </trkpt>
      <trkpt lat="38.3748440" lon="-0.6567030">
        <ele>322.2</ele>
        <time>2017-12-18T14:38:15Z</time>
      </trkpt>
      <trkpt lat="38.3748540" lon="-0.6567180">
        <ele>322.2</ele>
        <time>2017-12-18T14:38:16Z</time>
      </trkpt>
      <trkpt lat="38.3748670" lon="-0.6567330">
        <ele>322.2</ele>
        <time>2017-12-18T14:38:17Z</time>
      </trkpt>
      <trkpt lat="38.3748800" lon="-0.6567460">
        <ele>322.2</ele>
        <time>2017-12-18T14:38:18Z</time>
      </trkpt>
      <trkpt lat="38.3748920" lon="-0.6567580">
        <ele>322.2</ele>
        <time>2017-12-18T14:38:19Z</time>
      </trkpt>
      <trkpt lat="38.3749050" lon="-0.6567660">
        <ele>322.2</ele>
        <time>2017-12-18T14:38:20Z</time>
      </trkpt>
      <trkpt lat="38.3749140" lon="-0.6567750">
        <ele>322.2</ele>
        <time>2017-12-18T14:38:21Z</time>
      </trkpt>
      <trkpt lat="38.3749200" lon="-0.6567880">
        <ele>322.2</ele>
        <time>2017-12-18T14:38:22Z</time>
      </trkpt>
      <trkpt lat="38.3749310" lon="-0.6568010">
        <ele>324.2</ele>
        <time>2017-12-18T14:38:23Z</time>
      </trkpt>
      <trkpt lat="38.3749430" lon="-0.6568140">
        <ele>324.2</ele>
        <time>2017-12-18T14:38:24Z</time>
      </trkpt>
      <trkpt lat="38.3749540" lon="-0.6568290">
        <ele>324.2</ele>
        <time>2017-12-18T14:38:25Z</time>
      </trkpt>
      <trkpt lat="38.3749630" lon="-0.6568430">
        <ele>324.2</ele>
        <time>2017-12-18T14:38:26Z</time>
      </trkpt>
      <trkpt lat="38.3749680" lon="-0.6568580">
        <ele>324.2</ele>
        <time>2017-12-18T14:38:27Z</time>
      </trkpt>
      <trkpt lat="38.3749760" lon="-0.6568730">
        <ele>324.2</ele>
        <time>2017-12-18T14:38:28Z</time>
      </trkpt>
      <trkpt lat="38.3749830" lon="-0.6568870">
        <ele>324.2</ele>
        <time>2017-12-18T14:38:29Z</time>
      </trkpt>
      <trkpt lat="38.3749890" lon="-0.6569010">
        <ele>324.2</ele>
        <time>2017-12-18T14:38:30Z</time>
      </trkpt>
      <trkpt lat="38.3749970" lon="-0.6569190">
        <ele>324.2</ele>
        <time>2017-12-18T14:38:31Z</time>
      </trkpt>
      <trkpt lat="38.3750070" lon="-0.6569390">
        <ele>324.2</ele>
        <time>2017-12-18T14:38:32Z</time>
      </trkpt>
      <trkpt lat="38.3750170" lon="-0.6569570">
        <ele>325.1</ele>
        <time>2017-12-18T14:38:33Z</time>
      </trkpt>
      <trkpt lat="38.3750250" lon="-0.6569740">
        <ele>325.1</ele>
        <time>2017-12-18T14:38:34Z</time>
      </trkpt>
      <trkpt lat="38.3750330" lon="-0.6569890">
        <ele>325.1</ele>
        <time>2017-12-18T14:38:35Z</time>
      </trkpt>
      <trkpt lat="38.3750420" lon="-0.6570020">
        <ele>325.1</ele>
        <time>2017-12-18T14:38:36Z</time>
      </trkpt>
      <trkpt lat="38.3750520" lon="-0.6570150">
        <ele>326.1</ele>
        <time>2017-12-18T14:38:37Z</time>
      </trkpt>
      <trkpt lat="38.3750640" lon="-0.6570290">
        <ele>326.1</ele>
        <time>2017-12-18T14:38:38Z</time>
      </trkpt>
      <trkpt lat="38.3750720" lon="-0.6570400">
        <ele>327.2</ele>
        <time>2017-12-18T14:38:39Z</time>
      </trkpt>
      <trkpt lat="38.3750810" lon="-0.6570500">
        <ele>327.2</ele>
        <time>2017-12-18T14:38:40Z</time>
      </trkpt>
      <trkpt lat="38.3750940" lon="-0.6570600">
        <ele>327.2</ele>
        <time>2017-12-18T14:38:41Z</time>
      </trkpt>
      <trkpt lat="38.3751060" lon="-0.6570670">
        <ele>327.2</ele>
        <time>2017-12-18T14:38:42Z</time>
      </trkpt>
      <trkpt lat="38.3751200" lon="-0.6570720">
        <ele>328.1</ele>
        <time>2017-12-18T14:38:43Z</time>
      </trkpt>
      <trkpt lat="38.3751340" lon="-0.6570770">
        <ele>328.1</ele>
        <time>2017-12-18T14:38:44Z</time>
      </trkpt>
      <trkpt lat="38.3751460" lon="-0.6570820">
        <ele>328.1</ele>
        <time>2017-12-18T14:38:45Z</time>
      </trkpt>
      <trkpt lat="38.3751570" lon="-0.6570880">
        <ele>328.1</ele>
        <time>2017-12-18T14:38:46Z</time>
      </trkpt>
      <trkpt lat="38.3751710" lon="-0.6570950">
        <ele>328.1</ele>
        <time>2017-12-18T14:38:47Z</time>
      </trkpt>
      <trkpt lat="38.3751840" lon="-0.6571010">
        <ele>328.1</ele>
        <time>2017-12-18T14:38:48Z</time>
      </trkpt>
      <trkpt lat="38.3751980" lon="-0.6571070">
        <ele>328.1</ele>
        <time>2017-12-18T14:38:49Z</time>
      </trkpt>
      <trkpt lat="38.3752120" lon="-0.6571130">
        <ele>328.1</ele>
        <time>2017-12-18T14:38:50Z</time>
      </trkpt>
      <trkpt lat="38.3752210" lon="-0.6571240">
        <ele>328.1</ele>
        <time>2017-12-18T14:38:51Z</time>
      </trkpt>
      <trkpt lat="38.3752300" lon="-0.6571340">
        <ele>328.1</ele>
        <time>2017-12-18T14:38:52Z</time>
      </trkpt>
      <trkpt lat="38.3752390" lon="-0.6571420">
        <ele>329.2</ele>
        <time>2017-12-18T14:38:53Z</time>
      </trkpt>
      <trkpt lat="38.3752490" lon="-0.6571510">
        <ele>329.2</ele>
        <time>2017-12-18T14:38:54Z</time>
      </trkpt>
      <trkpt lat="38.3752610" lon="-0.6571600">
        <ele>330.1</ele>
        <time>2017-12-18T14:38:55Z</time>
      </trkpt>
      <trkpt lat="38.3752740" lon="-0.6571670">
        <ele>330.1</ele>
        <time>2017-12-18T14:38:56Z</time>
      </trkpt>
      <trkpt lat="38.3752880" lon="-0.6571720">
        <ele>330.1</ele>
        <time>2017-12-18T14:38:57Z</time>
      </trkpt>
      <trkpt lat="38.3753020" lon="-0.6571760">
        <ele>330.1</ele>
        <time>2017-12-18T14:38:58Z</time>
      </trkpt>
      <trkpt lat="38.3753170" lon="-0.6571790">
        <ele>330.1</ele>
        <time>2017-12-18T14:38:59Z</time>
      </trkpt>
      <trkpt lat="38.3753320" lon="-0.6571810">
        <ele>330.1</ele>
        <time>2017-12-18T14:39:00Z</time>
      </trkpt>
      <trkpt lat="38.3753460" lon="-0.6571820">
        <ele>331.2</ele>
        <time>2017-12-18T14:39:01Z</time>
      </trkpt>
      <trkpt lat="38.3753590" lon="-0.6571800">
        <ele>331.2</ele>
        <time>2017-12-18T14:39:02Z</time>
      </trkpt>
      <trkpt lat="38.3753730" lon="-0.6571720">
        <ele>331.2</ele>
        <time>2017-12-18T14:39:03Z</time>
      </trkpt>
      <trkpt lat="38.3753880" lon="-0.6571700">
        <ele>331.2</ele>
        <time>2017-12-18T14:39:04Z</time>
      </trkpt>
      <trkpt lat="38.3754030" lon="-0.6571690">
        <ele>331.2</ele>
        <time>2017-12-18T14:39:05Z</time>
      </trkpt>
      <trkpt lat="38.3754180" lon="-0.6571670">
        <ele>331.2</ele>
        <time>2017-12-18T14:39:06Z</time>
      </trkpt>
      <trkpt lat="38.3754330" lon="-0.6571670">
        <ele>332.1</ele>
        <time>2017-12-18T14:39:07Z</time>
      </trkpt>
      <trkpt lat="38.3754420" lon="-0.6571700">
        <ele>332.1</ele>
        <time>2017-12-18T14:39:08Z</time>
      </trkpt>
      <trkpt lat="38.3754430" lon="-0.6571710">
        <ele>332.1</ele>
        <time>2017-12-18T14:39:09Z</time>
      </trkpt>
      <trkpt lat="38.3754420" lon="-0.6571680">
        <ele>332.1</ele>
        <time>2017-12-18T14:39:10Z</time>
      </trkpt>
      <trkpt lat="38.3754420" lon="-0.6571700">
        <ele>332.1</ele>
        <time>2017-12-18T14:39:11Z</time>
      </trkpt>
      <trkpt lat="38.3754380" lon="-0.6571690">
        <ele>332.1</ele>
        <time>2017-12-18T14:39:12Z</time>
      </trkpt>
      <trkpt lat="38.3754320" lon="-0.6571670">
        <ele>332.1</ele>
        <time>2017-12-18T14:39:13Z</time>
      </trkpt>
      <trkpt lat="38.3754320" lon="-0.6571660">
        <ele>332.1</ele>
        <time>2017-12-18T14:39:14Z</time>
      </trkpt>
      <trkpt lat="38.3754310" lon="-0.6571660">
        <ele>332.1</ele>
        <time>2017-12-18T14:39:15Z</time>
      </trkpt>
      <trkpt lat="38.3754310" lon="-0.6571660">
        <ele>332.1</ele>
        <time>2017-12-18T14:39:16Z</time>
      </trkpt>
      <trkpt lat="38.3754300" lon="-0.6571680">
        <ele>332.1</ele>
        <time>2017-12-18T14:39:17Z</time>
      </trkpt>
      <trkpt lat="38.3754310" lon="-0.6571680">
        <ele>332.1</ele>
        <time>2017-12-18T14:39:18Z</time>
      </trkpt>
      <trkpt lat="38.3754310" lon="-0.6571700">
        <ele>332.1</ele>
        <time>2017-12-18T14:39:19Z</time>
      </trkpt>
      <trkpt lat="38.3754320" lon="-0.6571720">
        <ele>332.1</ele>
        <time>2017-12-18T14:39:20Z</time>
      </trkpt>
      <trkpt lat="38.3754360" lon="-0.6571730">
        <ele>332.1</ele>
        <time>2017-12-18T14:39:21Z</time>
      </trkpt>
      <trkpt lat="38.3754420" lon="-0.6571740">
        <ele>332.1</ele>
        <time>2017-12-18T14:39:22Z</time>
      </trkpt>
      <trkpt lat="38.3754470" lon="-0.6571760">
        <ele>333.2</ele>
        <time>2017-12-18T14:39:23Z</time>
      </trkpt>
      <trkpt lat="38.3754530" lon="-0.6571810">
        <ele>333.2</ele>
        <time>2017-12-18T14:39:24Z</time>
      </trkpt>
      <trkpt lat="38.3754620" lon="-0.6571840">
        <ele>333.2</ele>
        <time>2017-12-18T14:39:25Z</time>
      </trkpt>
      <trkpt lat="38.3754700" lon="-0.6571830">
        <ele>333.2</ele>
        <time>2017-12-18T14:39:26Z</time>
      </trkpt>
      <trkpt lat="38.3754790" lon="-0.6571870">
        <ele>333.2</ele>
        <time>2017-12-18T14:39:27Z</time>
      </trkpt>
      <trkpt lat="38.3754890" lon="-0.6571900">
        <ele>333.2</ele>
        <time>2017-12-18T14:39:28Z</time>
      </trkpt>
      <trkpt lat="38.3755000" lon="-0.6571900">
        <ele>333.2</ele>
        <time>2017-12-18T14:39:29Z</time>
      </trkpt>
      <trkpt lat="38.3755030" lon="-0.6571890">
        <ele>333.2</ele>
        <time>2017-12-18T14:39:30Z</time>
      </trkpt>
      <trkpt lat="38.3755030" lon="-0.6571890">
        <ele>333.2</ele>
        <time>2017-12-18T14:39:31Z</time>
      </trkpt>
      <trkpt lat="38.3755020" lon="-0.6571890">
        <ele>333.2</ele>
        <time>2017-12-18T14:39:32Z</time>
      </trkpt>
      <trkpt lat="38.3755090" lon="-0.6571900">
        <ele>333.2</ele>
        <time>2017-12-18T14:39:33Z</time>
      </trkpt>
      <trkpt lat="38.3755220" lon="-0.6571920">
        <ele>333.2</ele>
        <time>2017-12-18T14:39:34Z</time>
      </trkpt>
      <trkpt lat="38.3755360" lon="-0.6571950">
        <ele>333.2</ele>
        <time>2017-12-18T14:39:35Z</time>
      </trkpt>
      <trkpt lat="38.3755500" lon="-0.6571980">
        <ele>333.2</ele>
        <time>2017-12-18T14:39:36Z</time>
      </trkpt>
      <trkpt lat="38.3755660" lon="-0.6572030">
        <ele>333.2</ele>
        <time>2017-12-18T14:39:37Z</time>
      </trkpt>
      <trkpt lat="38.3755820" lon="-0.6572080">
        <ele>333.2</ele>
        <time>2017-12-18T14:39:38Z</time>
      </trkpt>
      <trkpt lat="38.3755950" lon="-0.6572120">
        <ele>334.2</ele>
        <time>2017-12-18T14:39:39Z</time>
      </trkpt>
      <trkpt lat="38.3756080" lon="-0.6572180">
        <ele>334.2</ele>
        <time>2017-12-18T14:39:40Z</time>
      </trkpt>
      <trkpt lat="38.3756200" lon="-0.6572230">
        <ele>334.2</ele>
        <time>2017-12-18T14:39:41Z</time>
      </trkpt>
      <trkpt lat="38.3756350" lon="-0.6572270">
        <ele>334.2</ele>
        <time>2017-12-18T14:39:42Z</time>
      </trkpt>
      <trkpt lat="38.3756490" lon="-0.6572340">
        <ele>334.2</ele>
        <time>2017-12-18T14:39:43Z</time>
      </trkpt>
      <trkpt lat="38.3756640" lon="-0.6572380">
        <ele>334.2</ele>
        <time>2017-12-18T14:39:44Z</time>
      </trkpt>
      <trkpt lat="38.3756770" lon="-0.6572430">
        <ele>335.1</ele>
        <time>2017-12-18T14:39:45Z</time>
      </trkpt>
      <trkpt lat="38.3756870" lon="-0.6572480">
        <ele>335.1</ele>
        <time>2017-12-18T14:39:46Z</time>
      </trkpt>
      <trkpt lat="38.3756970" lon="-0.6572520">
        <ele>335.1</ele>
        <time>2017-12-18T14:39:47Z</time>
      </trkpt>
      <trkpt lat="38.3757080" lon="-0.6572570">
        <ele>335.1</ele>
        <time>2017-12-18T14:39:48Z</time>
      </trkpt>
      <trkpt lat="38.3757190" lon="-0.6572630">
        <ele>336.2</ele>
        <time>2017-12-18T14:39:49Z</time>
      </trkpt>
      <trkpt lat="38.3757300" lon="-0.6572670">
        <ele>336.2</ele>
        <time>2017-12-18T14:39:50Z</time>
      </trkpt>
      <trkpt lat="38.3757420" lon="-0.6572700">
        <ele>337.1</ele>
        <time>2017-12-18T14:39:51Z</time>
      </trkpt>
      <trkpt lat="38.3757560" lon="-0.6572740">
        <ele>337.1</ele>
        <time>2017-12-18T14:39:52Z</time>
      </trkpt>
      <trkpt lat="38.3757710" lon="-0.6572780">
        <ele>337.1</ele>
        <time>2017-12-18T14:39:53Z</time>
      </trkpt>
      <trkpt lat="38.3757860" lon="-0.6572790">
        <ele>337.1</ele>
        <time>2017-12-18T14:39:54Z</time>
      </trkpt>
      <trkpt lat="38.3758020" lon="-0.6572810">
        <ele>338.2</ele>
        <time>2017-12-18T14:39:55Z</time>
      </trkpt>
      <trkpt lat="38.3758150" lon="-0.6572850">
        <ele>338.2</ele>
        <time>2017-12-18T14:39:56Z</time>
      </trkpt>
      <trkpt lat="38.3758280" lon="-0.6572870">
        <ele>338.2</ele>
        <time>2017-12-18T14:39:57Z</time>
      </trkpt>
      <trkpt lat="38.3758420" lon="-0.6572900">
        <ele>338.2</ele>
        <time>2017-12-18T14:39:58Z</time>
      </trkpt>
      <trkpt lat="38.3758550" lon="-0.6572950">
        <ele>339.1</ele>
        <time>2017-12-18T14:39:59Z</time>
      </trkpt>
      <trkpt lat="38.3758690" lon="-0.6573010">
        <ele>339.1</ele>
        <time>2017-12-18T14:40:00Z</time>
      </trkpt>
      <trkpt lat="38.3758850" lon="-0.6573090">
        <ele>339.1</ele>
        <time>2017-12-18T14:40:01Z</time>
      </trkpt>
      <trkpt lat="38.3759000" lon="-0.6573180">
        <ele>339.1</ele>
        <time>2017-12-18T14:40:02Z</time>
      </trkpt>
      <trkpt lat="38.3759140" lon="-0.6573270">
        <ele>339.1</ele>
        <time>2017-12-18T14:40:03Z</time>
      </trkpt>
      <trkpt lat="38.3759290" lon="-0.6573340">
        <ele>339.1</ele>
        <time>2017-12-18T14:40:04Z</time>
      </trkpt>
      <trkpt lat="38.3759420" lon="-0.6573420">
        <ele>340.2</ele>
        <time>2017-12-18T14:40:05Z</time>
      </trkpt>
      <trkpt lat="38.3759540" lon="-0.6573530">
        <ele>340.2</ele>
        <time>2017-12-18T14:40:06Z</time>
      </trkpt>
      <trkpt lat="38.3759680" lon="-0.6573620">
        <ele>340.2</ele>
        <time>2017-12-18T14:40:07Z</time>
      </trkpt>
      <trkpt lat="38.3759810" lon="-0.6573710">
        <ele>340.2</ele>
        <time>2017-12-18T14:40:08Z</time>
      </trkpt>
      <trkpt lat="38.3759950" lon="-0.6573840">
        <ele>340.2</ele>
        <time>2017-12-18T14:40:09Z</time>
      </trkpt>
      <trkpt lat="38.3760070" lon="-0.6573980">
        <ele>340.2</ele>
        <time>2017-12-18T14:40:10Z</time>
      </trkpt>
      <trkpt lat="38.3760200" lon="-0.6574060">
        <ele>340.2</ele>
        <time>2017-12-18T14:40:11Z</time>
      </trkpt>
      <trkpt lat="38.3760390" lon="-0.6574100">
        <ele>340.2</ele>
        <time>2017-12-18T14:40:12Z</time>
      </trkpt>
      <trkpt lat="38.3760570" lon="-0.6574090">
        <ele>340.2</ele>
        <time>2017-12-18T14:40:13Z</time>
      </trkpt>
      <trkpt lat="38.3760720" lon="-0.6574100">
        <ele>340.2</ele>
        <time>2017-12-18T14:40:14Z</time>
      </trkpt>
      <trkpt lat="38.3760850" lon="-0.6574060">
        <ele>340.2</ele>
        <time>2017-12-18T14:40:15Z</time>
      </trkpt>
      <trkpt lat="38.3760960" lon="-0.6574010">
        <ele>340.2</ele>
        <time>2017-12-18T14:40:16Z</time>
      </trkpt>
      <trkpt lat="38.3761050" lon="-0.6573970">
        <ele>343.2</ele>
        <time>2017-12-18T14:40:17Z</time>
      </trkpt>
      <trkpt lat="38.3761180" lon="-0.6573930">
        <ele>343.2</ele>
        <time>2017-12-18T14:40:18Z</time>
      </trkpt>
      <trkpt lat="38.3761320" lon="-0.6573900">
        <ele>344.1</ele>
        <time>2017-12-18T14:40:19Z</time>
      </trkpt>
      <trkpt lat="38.3761460" lon="-0.6573880">
        <ele>344.1</ele>
        <time>2017-12-18T14:40:20Z</time>
      </trkpt>
      <trkpt lat="38.3761600" lon="-0.6573900">
        <ele>344.1</ele>
        <time>2017-12-18T14:40:21Z</time>
      </trkpt>
      <trkpt lat="38.3761710" lon="-0.6573910">
        <ele>344.1</ele>
        <time>2017-12-18T14:40:22Z</time>
      </trkpt>
      <trkpt lat="38.3761810" lon="-0.6573930">
        <ele>345.2</ele>
        <time>2017-12-18T14:40:23Z</time>
      </trkpt>
      <trkpt lat="38.3761930" lon="-0.6573920">
        <ele>345.2</ele>
        <time>2017-12-18T14:40:24Z</time>
      </trkpt>
      <trkpt lat="38.3762050" lon="-0.6573920">
        <ele>345.2</ele>
        <time>2017-12-18T14:40:25Z</time>
      </trkpt>
      <trkpt lat="38.3762190" lon="-0.6573940">
        <ele>345.2</ele>
        <time>2017-12-18T14:40:26Z</time>
      </trkpt>
      <trkpt lat="38.3762330" lon="-0.6573980">
        <ele>346.1</ele>
        <time>2017-12-18T14:40:27Z</time>
      </trkpt>
      <trkpt lat="38.3762460" lon="-0.6574030">
        <ele>346.1</ele>
        <time>2017-12-18T14:40:28Z</time>
      </trkpt>
      <trkpt lat="38.3762580" lon="-0.6574070">
        <ele>347.2</ele>
        <time>2017-12-18T14:40:29Z</time>
      </trkpt>
      <trkpt lat="38.3762720" lon="-0.6574070">
        <ele>347.2</ele>
        <time>2017-12-18T14:40:30Z</time>
      </trkpt>
      <trkpt lat="38.3762860" lon="-0.6574090">
        <ele>347.2</ele>
        <time>2017-12-18T14:40:31Z</time>
      </trkpt>
      <trkpt lat="38.3763000" lon="-0.6574140">
        <ele>347.2</ele>
        <time>2017-12-18T14:40:32Z</time>
      </trkpt>
      <trkpt lat="38.3763110" lon="-0.6574200">
        <ele>348.1</ele>
        <time>2017-12-18T14:40:33Z</time>
      </trkpt>
      <trkpt lat="38.3763250" lon="-0.6574250">
        <ele>348.1</ele>
        <time>2017-12-18T14:40:34Z</time>
      </trkpt>
      <trkpt lat="38.3763350" lon="-0.6574260">
        <ele>348.1</ele>
        <time>2017-12-18T14:40:35Z</time>
      </trkpt>
      <trkpt lat="38.3763460" lon="-0.6574280">
        <ele>348.1</ele>
        <time>2017-12-18T14:40:36Z</time>
      </trkpt>
      <trkpt lat="38.3763570" lon="-0.6574310">
        <ele>349.2</ele>
        <time>2017-12-18T14:40:37Z</time>
      </trkpt>
      <trkpt lat="38.3763680" lon="-0.6574330">
        <ele>349.2</ele>
        <time>2017-12-18T14:40:38Z</time>
      </trkpt>
      <trkpt lat="38.3763810" lon="-0.6574320">
        <ele>349.2</ele>
        <time>2017-12-18T14:40:39Z</time>
      </trkpt>
      <trkpt lat="38.3763960" lon="-0.6574300">
        <ele>349.2</ele>
        <time>2017-12-18T14:40:40Z</time>
      </trkpt>
      <trkpt lat="38.3764080" lon="-0.6574270">
        <ele>349.2</ele>
        <time>2017-12-18T14:40:41Z</time>
      </trkpt>
      <trkpt lat="38.3764200" lon="-0.6574240">
        <ele>349.2</ele>
        <time>2017-12-18T14:40:42Z</time>
      </trkpt>
      <trkpt lat="38.3764310" lon="-0.6574190">
        <ele>349.2</ele>
        <time>2017-12-18T14:40:43Z</time>
      </trkpt>
      <trkpt lat="38.3764430" lon="-0.6574130">
        <ele>349.2</ele>
        <time>2017-12-18T14:40:44Z</time>
      </trkpt>
      <trkpt lat="38.3764540" lon="-0.6574070">
        <ele>350.2</ele>
        <time>2017-12-18T14:40:45Z</time>
      </trkpt>
      <trkpt lat="38.3764650" lon="-0.6574000">
        <ele>350.2</ele>
        <time>2017-12-18T14:40:46Z</time>
      </trkpt>
      <trkpt lat="38.3764750" lon="-0.6573950">
        <ele>350.2</ele>
        <time>2017-12-18T14:40:47Z</time>
      </trkpt>
      <trkpt lat="38.3764850" lon="-0.6573880">
        <ele>350.2</ele>
        <time>2017-12-18T14:40:48Z</time>
      </trkpt>
      <trkpt lat="38.3764960" lon="-0.6573830">
        <ele>351.1</ele>
        <time>2017-12-18T14:40:49Z</time>
      </trkpt>
      <trkpt lat="38.3765080" lon="-0.6573790">
        <ele>351.1</ele>
        <time>2017-12-18T14:40:50Z</time>
      </trkpt>
      <trkpt lat="38.3765210" lon="-0.6573720">
        <ele>351.1</ele>
        <time>2017-12-18T14:40:51Z</time>
      </trkpt>
      <trkpt lat="38.3765340" lon="-0.6573670">
        <ele>351.1</ele>
        <time>2017-12-18T14:40:52Z</time>
      </trkpt>
      <trkpt lat="38.3765510" lon="-0.6573620">
        <ele>351.1</ele>
        <time>2017-12-18T14:40:53Z</time>
      </trkpt>
      <trkpt lat="38.3765660" lon="-0.6573570">
        <ele>351.1</ele>
        <time>2017-12-18T14:40:54Z</time>
      </trkpt>
      <trkpt lat="38.3765790" lon="-0.6573550">
        <ele>352.2</ele>
        <time>2017-12-18T14:40:55Z</time>
      </trkpt>
      <trkpt lat="38.3765920" lon="-0.6573540">
        <ele>352.2</ele>
        <time>2017-12-18T14:40:56Z</time>
      </trkpt>
      <trkpt lat="38.3766040" lon="-0.6573500">
        <ele>352.2</ele>
        <time>2017-12-18T14:40:57Z</time>
      </trkpt>
      <trkpt lat="38.3766080" lon="-0.6573500">
        <ele>352.2</ele>
        <time>2017-12-18T14:40:58Z</time>
      </trkpt>
      <trkpt lat="38.3766090" lon="-0.6573510">
        <ele>352.2</ele>
        <time>2017-12-18T14:40:59Z</time>
      </trkpt>
      <trkpt lat="38.3766150" lon="-0.6573480">
        <ele>352.2</ele>
        <time>2017-12-18T14:41:00Z</time>
      </trkpt>
      <trkpt lat="38.3766220" lon="-0.6573430">
        <ele>353.1</ele>
        <time>2017-12-18T14:41:01Z</time>
      </trkpt>
      <trkpt lat="38.3766300" lon="-0.6573400">
        <ele>353.1</ele>
        <time>2017-12-18T14:41:02Z</time>
      </trkpt>
      <trkpt lat="38.3766380" lon="-0.6573410">
        <ele>353.1</ele>
        <time>2017-12-18T14:41:03Z</time>
      </trkpt>
      <trkpt lat="38.3766450" lon="-0.6573420">
        <ele>353.1</ele>
        <time>2017-12-18T14:41:04Z</time>
      </trkpt>
      <trkpt lat="38.3766490" lon="-0.6573420">
        <ele>353.1</ele>
        <time>2017-12-18T14:41:05Z</time>
      </trkpt>
      <trkpt lat="38.3766550" lon="-0.6573420">
        <ele>353.1</ele>
        <time>2017-12-18T14:41:06Z</time>
      </trkpt>
      <trkpt lat="38.3766630" lon="-0.6573400">
        <ele>354.2</ele>
        <time>2017-12-18T14:41:07Z</time>
      </trkpt>
      <trkpt lat="38.3766680" lon="-0.6573410">
        <ele>354.2</ele>
        <time>2017-12-18T14:41:08Z</time>
      </trkpt>
      <trkpt lat="38.3766700" lon="-0.6573450">
        <ele>354.2</ele>
        <time>2017-12-18T14:41:09Z</time>
      </trkpt>
      <trkpt lat="38.3766720" lon="-0.6573470">
        <ele>354.2</ele>
        <time>2017-12-18T14:41:10Z</time>
      </trkpt>
      <trkpt lat="38.3766730" lon="-0.6573470">
        <ele>355.1</ele>
        <time>2017-12-18T14:41:11Z</time>
      </trkpt>
      <trkpt lat="38.3766760" lon="-0.6573480">
        <ele>355.1</ele>
        <time>2017-12-18T14:41:12Z</time>
      </trkpt>
      <trkpt lat="38.3766850" lon="-0.6573460">
        <ele>355.1</ele>
        <time>2017-12-18T14:41:13Z</time>
      </trkpt>
      <trkpt lat="38.3766920" lon="-0.6573450">
        <ele>355.1</ele>
        <time>2017-12-18T14:41:14Z</time>
      </trkpt>
      <trkpt lat="38.3766980" lon="-0.6573440">
        <ele>355.1</ele>
        <time>2017-12-18T14:41:15Z</time>
      </trkpt>
      <trkpt lat="38.3766970" lon="-0.6573450">
        <ele>355.1</ele>
        <time>2017-12-18T14:41:16Z</time>
      </trkpt>
      <trkpt lat="38.3766980" lon="-0.6573450">
        <ele>355.1</ele>
        <time>2017-12-18T14:41:17Z</time>
      </trkpt>
      <trkpt lat="38.3767050" lon="-0.6573440">
        <ele>355.1</ele>
        <time>2017-12-18T14:41:18Z</time>
      </trkpt>
      <trkpt lat="38.3767110" lon="-0.6573450">
        <ele>355.1</ele>
        <time>2017-12-18T14:41:19Z</time>
      </trkpt>
      <trkpt lat="38.3767160" lon="-0.6573460">
        <ele>355.1</ele>
        <time>2017-12-18T14:41:20Z</time>
      </trkpt>
      <trkpt lat="38.3767160" lon="-0.6573450">
        <ele>355.1</ele>
        <time>2017-12-18T14:41:21Z</time>
      </trkpt>
      <trkpt lat="38.3767160" lon="-0.6573450">
        <ele>355.1</ele>
        <time>2017-12-18T14:41:22Z</time>
      </trkpt>
      <trkpt lat="38.3767210" lon="-0.6573440">
        <ele>355.1</ele>
        <time>2017-12-18T14:41:23Z</time>
      </trkpt>
      <trkpt lat="38.3767260" lon="-0.6573450">
        <ele>355.1</ele>
        <time>2017-12-18T14:41:24Z</time>
      </trkpt>
      <trkpt lat="38.3767300" lon="-0.6573460">
        <ele>355.1</ele>
        <time>2017-12-18T14:41:25Z</time>
      </trkpt>
      <trkpt lat="38.3767270" lon="-0.6573440">
        <ele>355.1</ele>
        <time>2017-12-18T14:41:26Z</time>
      </trkpt>
      <trkpt lat="38.3767250" lon="-0.6573430">
        <ele>355.1</ele>
        <time>2017-12-18T14:41:27Z</time>
      </trkpt>
      <trkpt lat="38.3767220" lon="-0.6573430">
        <ele>355.1</ele>
        <time>2017-12-18T14:41:28Z</time>
      </trkpt>
      <trkpt lat="38.3767220" lon="-0.6573420">
        <ele>355.1</ele>
        <time>2017-12-18T14:41:29Z</time>
      </trkpt>
      <trkpt lat="38.3767210" lon="-0.6573430">
        <ele>355.1</ele>
        <time>2017-12-18T14:41:30Z</time>
      </trkpt>
      <trkpt lat="38.3767200" lon="-0.6573430">
        <ele>355.1</ele>
        <time>2017-12-18T14:41:31Z</time>
      </trkpt>
      <trkpt lat="38.3767190" lon="-0.6573430">
        <ele>355.1</ele>
        <time>2017-12-18T14:41:32Z</time>
      </trkpt>
      <trkpt lat="38.3767190" lon="-0.6573460">
        <ele>355.1</ele>
        <time>2017-12-18T14:41:33Z</time>
      </trkpt>
      <trkpt lat="38.3767220" lon="-0.6573450">
        <ele>355.1</ele>
        <time>2017-12-18T14:41:34Z</time>
      </trkpt>
      <trkpt lat="38.3767280" lon="-0.6573430">
        <ele>355.1</ele>
        <time>2017-12-18T14:41:35Z</time>
      </trkpt>
      <trkpt lat="38.3767290" lon="-0.6573430">
        <ele>355.1</ele>
        <time>2017-12-18T14:41:36Z</time>
      </trkpt>
      <trkpt lat="38.3767290" lon="-0.6573430">
        <ele>355.1</ele>
        <time>2017-12-18T14:41:37Z</time>
      </trkpt>
      <trkpt lat="38.3767290" lon="-0.6573420">
        <ele>355.1</ele>
        <time>2017-12-18T14:41:38Z</time>
      </trkpt>
      <trkpt lat="38.3767290" lon="-0.6573420">
        <ele>355.1</ele>
        <time>2017-12-18T14:41:39Z</time>
      </trkpt>
      <trkpt lat="38.3767300" lon="-0.6573430">
        <ele>355.1</ele>
        <time>2017-12-18T14:41:40Z</time>
      </trkpt>
      <trkpt lat="38.3767350" lon="-0.6573430">
        <ele>355.1</ele>
        <time>2017-12-18T14:41:41Z</time>
      </trkpt>
      <trkpt lat="38.3767410" lon="-0.6573420">
        <ele>355.1</ele>
        <time>2017-12-18T14:41:42Z</time>
      </trkpt>
      <trkpt lat="38.3767440" lon="-0.6573420">
        <ele>356.2</ele>
        <time>2017-12-18T14:41:43Z</time>
      </trkpt>
      <trkpt lat="38.3767510" lon="-0.6573440">
        <ele>356.2</ele>
        <time>2017-12-18T14:41:44Z</time>
      </trkpt>
      <trkpt lat="38.3767590" lon="-0.6573420">
        <ele>356.2</ele>
        <time>2017-12-18T14:41:45Z</time>
      </trkpt>
      <trkpt lat="38.3767670" lon="-0.6573420">
        <ele>356.2</ele>
        <time>2017-12-18T14:41:46Z</time>
      </trkpt>
      <trkpt lat="38.3767760" lon="-0.6573400">
        <ele>356.2</ele>
        <time>2017-12-18T14:41:47Z</time>
      </trkpt>
      <trkpt lat="38.3767820" lon="-0.6573390">
        <ele>356.2</ele>
        <time>2017-12-18T14:41:48Z</time>
      </trkpt>
      <trkpt lat="38.3767840" lon="-0.6573390">
        <ele>356.2</ele>
        <time>2017-12-18T14:41:49Z</time>
      </trkpt>
      <trkpt lat="38.3767890" lon="-0.6573400">
        <ele>356.2</ele>
        <time>2017-12-18T14:41:50Z</time>
      </trkpt>
      <trkpt lat="38.3767920" lon="-0.6573410">
        <ele>356.2</ele>
        <time>2017-12-18T14:41:51Z</time>
      </trkpt>
      <trkpt lat="38.3767950" lon="-0.6573410">
        <ele>356.2</ele>
        <time>2017-12-18T14:41:52Z</time>
      </trkpt>
      <trkpt lat="38.3767980" lon="-0.6573390">
        <ele>356.2</ele>
        <time>2017-12-18T14:41:53Z</time>
      </trkpt>
      <trkpt lat="38.3768030" lon="-0.6573380">
        <ele>356.2</ele>
        <time>2017-12-18T14:41:54Z</time>
      </trkpt>
      <trkpt lat="38.3768070" lon="-0.6573380">
        <ele>358.1</ele>
        <time>2017-12-18T14:41:55Z</time>
      </trkpt>
      <trkpt lat="38.3768100" lon="-0.6573380">
        <ele>358.1</ele>
        <time>2017-12-18T14:41:56Z</time>
      </trkpt>
      <trkpt lat="38.3768170" lon="-0.6573380">
        <ele>359.2</ele>
        <time>2017-12-18T14:41:57Z</time>
      </trkpt>
      <trkpt lat="38.3768190" lon="-0.6573370">
        <ele>359.2</ele>
        <time>2017-12-18T14:41:58Z</time>
      </trkpt>
      <trkpt lat="38.3768180" lon="-0.6573370">
        <ele>359.2</ele>
        <time>2017-12-18T14:41:59Z</time>
      </trkpt>
      <trkpt lat="38.3768200" lon="-0.6573380">
        <ele>359.2</ele>
        <time>2017-12-18T14:42:00Z</time>
      </trkpt>
      <trkpt lat="38.3768210" lon="-0.6573380">
        <ele>359.2</ele>
        <time>2017-12-18T14:42:01Z</time>
      </trkpt>
      <trkpt lat="38.3768260" lon="-0.6573370">
        <ele>359.2</ele>
        <time>2017-12-18T14:42:02Z</time>
      </trkpt>
      <trkpt lat="38.3768300" lon="-0.6573360">
        <ele>359.2</ele>
        <time>2017-12-18T14:42:03Z</time>
      </trkpt>
      <trkpt lat="38.3768360" lon="-0.6573340">
        <ele>359.2</ele>
        <time>2017-12-18T14:42:04Z</time>
      </trkpt>
      <trkpt lat="38.3768410" lon="-0.6573330">
        <ele>360.1</ele>
        <time>2017-12-18T14:42:05Z</time>
      </trkpt>
      <trkpt lat="38.3768470" lon="-0.6573330">
        <ele>360.1</ele>
        <time>2017-12-18T14:42:06Z</time>
      </trkpt>
      <trkpt lat="38.3768530" lon="-0.6573320">
        <ele>360.1</ele>
        <time>2017-12-18T14:42:07Z</time>
      </trkpt>
      <trkpt lat="38.3768590" lon="-0.6573320">
        <ele>360.1</ele>
        <time>2017-12-18T14:42:08Z</time>
      </trkpt>
      <trkpt lat="38.3768660" lon="-0.6573320">
        <ele>360.1</ele>
        <time>2017-12-18T14:42:09Z</time>
      </trkpt>
      <trkpt lat="38.3768670" lon="-0.6573320">
        <ele>360.1</ele>
        <time>2017-12-18T14:42:10Z</time>
      </trkpt>
      <trkpt lat="38.3768680" lon="-0.6573320">
        <ele>360.1</ele>
        <time>2017-12-18T14:42:11Z</time>
      </trkpt>
      <trkpt lat="38.3768750" lon="-0.6573300">
        <ele>360.1</ele>
        <time>2017-12-18T14:42:12Z</time>
      </trkpt>
      <trkpt lat="38.3768830" lon="-0.6573290">
        <ele>361.2</ele>
        <time>2017-12-18T14:42:13Z</time>
      </trkpt>
      <trkpt lat="38.3768910" lon="-0.6573300">
        <ele>361.2</ele>
        <time>2017-12-18T14:42:14Z</time>
      </trkpt>
      <trkpt lat="38.3768960" lon="-0.6573280">
        <ele>362.1</ele>
        <time>2017-12-18T14:42:15Z</time>
      </trkpt>
      <trkpt lat="38.3768990" lon="-0.6573290">
        <ele>362.1</ele>
        <time>2017-12-18T14:42:16Z</time>
      </trkpt>
      <trkpt lat="38.3769040" lon="-0.6573290">
        <ele>362.1</ele>
        <time>2017-12-18T14:42:17Z</time>
      </trkpt>
      <trkpt lat="38.3769130" lon="-0.6573270">
        <ele>362.1</ele>
        <time>2017-12-18T14:42:18Z</time>
      </trkpt>
      <trkpt lat="38.3769180" lon="-0.6573250">
        <ele>363.2</ele>
        <time>2017-12-18T14:42:19Z</time>
      </trkpt>
      <trkpt lat="38.3769250" lon="-0.6573240">
        <ele>363.2</ele>
        <time>2017-12-18T14:42:20Z</time>
      </trkpt>
      <trkpt lat="38.3769350" lon="-0.6573220">
        <ele>363.2</ele>
        <time>2017-12-18T14:42:21Z</time>
      </trkpt>
      <trkpt lat="38.3769410" lon="-0.6573220">
        <ele>363.2</ele>
        <time>2017-12-18T14:42:22Z</time>
      </trkpt>
      <trkpt lat="38.3769460" lon="-0.6573220">
        <ele>363.2</ele>
        <time>2017-12-18T14:42:23Z</time>
      </trkpt>
      <trkpt lat="38.3769510" lon="-0.6573230">
        <ele>363.2</ele>
        <time>2017-12-18T14:42:24Z</time>
      </trkpt>
      <trkpt lat="38.3769600" lon="-0.6573250">
        <ele>363.2</ele>
        <time>2017-12-18T14:42:25Z</time>
      </trkpt>
      <trkpt lat="38.3769670" lon="-0.6573260">
        <ele>363.2</ele>
        <time>2017-12-18T14:42:26Z</time>
      </trkpt>
      <trkpt lat="38.3769730" lon="-0.6573220">
        <ele>363.2</ele>
        <time>2017-12-18T14:42:27Z</time>
      </trkpt>
      <trkpt lat="38.3769730" lon="-0.6573210">
        <ele>363.2</ele>
        <time>2017-12-18T14:42:28Z</time>
      </trkpt>
      <trkpt lat="38.3769730" lon="-0.6573200">
        <ele>363.2</ele>
        <time>2017-12-18T14:42:29Z</time>
      </trkpt>
      <trkpt lat="38.3769720" lon="-0.6573220">
        <ele>363.2</ele>
        <time>2017-12-18T14:42:30Z</time>
      </trkpt>
      <trkpt lat="38.3769740" lon="-0.6573240">
        <ele>364.1</ele>
        <time>2017-12-18T14:42:31Z</time>
      </trkpt>
      <trkpt lat="38.3769800" lon="-0.6573230">
        <ele>364.1</ele>
        <time>2017-12-18T14:42:32Z</time>
      </trkpt>
      <trkpt lat="38.3769850" lon="-0.6573210">
        <ele>364.1</ele>
        <time>2017-12-18T14:42:33Z</time>
      </trkpt>
      <trkpt lat="38.3770710" lon="-0.6575930">
        <ele>363.2</ele>
        <time>2017-12-18T14:42:34Z</time>
      </trkpt>
      <trkpt lat="38.3770630" lon="-0.6575690">
        <ele>363.2</ele>
        <time>2017-12-18T14:43:39Z</time>
      </trkpt>
      <trkpt lat="38.3770500" lon="-0.6575380">
        <ele>363.2</ele>
        <time>2017-12-18T14:43:40Z</time>
      </trkpt>
      <trkpt lat="38.3770360" lon="-0.6575050">
        <ele>363.2</ele>
        <time>2017-12-18T14:43:41Z</time>
      </trkpt>
      <trkpt lat="38.3770250" lon="-0.6574650">
        <ele>363.2</ele>
        <time>2017-12-18T14:43:42Z</time>
      </trkpt>
      <trkpt lat="38.3770160" lon="-0.6574190">
        <ele>363.2</ele>
        <time>2017-12-18T14:43:43Z</time>
      </trkpt>
      <trkpt lat="38.3770090" lon="-0.6573710">
        <ele>363.2</ele>
        <time>2017-12-18T14:43:44Z</time>
      </trkpt>
      <trkpt lat="38.3769940" lon="-0.6573360">
        <ele>363.2</ele>
        <time>2017-12-18T14:43:45Z</time>
      </trkpt>
      <trkpt lat="38.3769710" lon="-0.6573280">
        <ele>363.2</ele>
        <time>2017-12-18T14:43:46Z</time>
      </trkpt>
      <trkpt lat="38.3769370" lon="-0.6573270">
        <ele>363.2</ele>
        <time>2017-12-18T14:43:47Z</time>
      </trkpt>
      <trkpt lat="38.3768980" lon="-0.6573340">
        <ele>363.2</ele>
        <time>2017-12-18T14:43:48Z</time>
      </trkpt>
      <trkpt lat="38.3768570" lon="-0.6573380">
        <ele>363.2</ele>
        <time>2017-12-18T14:43:49Z</time>
      </trkpt>
      <trkpt lat="38.3768150" lon="-0.6573410">
        <ele>362.1</ele>
        <time>2017-12-18T14:43:50Z</time>
      </trkpt>
      <trkpt lat="38.3767680" lon="-0.6573430">
        <ele>362.1</ele>
        <time>2017-12-18T14:43:51Z</time>
      </trkpt>
      <trkpt lat="38.3767270" lon="-0.6573440">
        <ele>362.1</ele>
        <time>2017-12-18T14:43:52Z</time>
      </trkpt>
      <trkpt lat="38.3766880" lon="-0.6573470">
        <ele>362.1</ele>
        <time>2017-12-18T14:43:53Z</time>
      </trkpt>
      <trkpt lat="38.3766500" lon="-0.6573540">
        <ele>362.1</ele>
        <time>2017-12-18T14:43:54Z</time>
      </trkpt>
      <trkpt lat="38.3766070" lon="-0.6573550">
        <ele>362.1</ele>
        <time>2017-12-18T14:43:55Z</time>
      </trkpt>
      <trkpt lat="38.3765620" lon="-0.6573610">
        <ele>355.1</ele>
        <time>2017-12-18T14:43:56Z</time>
      </trkpt>
      <trkpt lat="38.3765160" lon="-0.6573740">
        <ele>355.1</ele>
        <time>2017-12-18T14:43:57Z</time>
      </trkpt>
      <trkpt lat="38.3764660" lon="-0.6574000">
        <ele>355.1</ele>
        <time>2017-12-18T14:43:58Z</time>
      </trkpt>
      <trkpt lat="38.3764070" lon="-0.6574290">
        <ele>355.1</ele>
        <time>2017-12-18T14:43:59Z</time>
      </trkpt>
      <trkpt lat="38.3763480" lon="-0.6574320">
        <ele>355.1</ele>
        <time>2017-12-18T14:44:00Z</time>
      </trkpt>
      <trkpt lat="38.3763050" lon="-0.6574160">
        <ele>355.1</ele>
        <time>2017-12-18T14:44:01Z</time>
      </trkpt>
      <trkpt lat="38.3762650" lon="-0.6573960">
        <ele>349.2</ele>
        <time>2017-12-18T14:44:02Z</time>
      </trkpt>
      <trkpt lat="38.3762370" lon="-0.6573910">
        <ele>349.2</ele>
        <time>2017-12-18T14:44:03Z</time>
      </trkpt>
      <trkpt lat="38.3762020" lon="-0.6573930">
        <ele>348.1</ele>
        <time>2017-12-18T14:44:04Z</time>
      </trkpt>
      <trkpt lat="38.3761540" lon="-0.6573940">
        <ele>348.1</ele>
        <time>2017-12-18T14:44:05Z</time>
      </trkpt>
      <trkpt lat="38.3761110" lon="-0.6573980">
        <ele>347.2</ele>
        <time>2017-12-18T14:44:06Z</time>
      </trkpt>
      <trkpt lat="38.3760740" lon="-0.6574080">
        <ele>347.2</ele>
        <time>2017-12-18T14:44:07Z</time>
      </trkpt>
      <trkpt lat="38.3760310" lon="-0.6574100">
        <ele>345.2</ele>
        <time>2017-12-18T14:44:08Z</time>
      </trkpt>
      <trkpt lat="38.3759960" lon="-0.6573830">
        <ele>345.2</ele>
        <time>2017-12-18T14:44:09Z</time>
      </trkpt>
      <trkpt lat="38.3759550" lon="-0.6573500">
        <ele>343.2</ele>
        <time>2017-12-18T14:44:10Z</time>
      </trkpt>
      <trkpt lat="38.3759060" lon="-0.6573200">
        <ele>343.2</ele>
        <time>2017-12-18T14:44:11Z</time>
      </trkpt>
      <trkpt lat="38.3758470" lon="-0.6572990">
        <ele>341.1</ele>
        <time>2017-12-18T14:44:12Z</time>
      </trkpt>
      <trkpt lat="38.3757820" lon="-0.6572840">
        <ele>341.1</ele>
        <time>2017-12-18T14:44:13Z</time>
      </trkpt>
      <trkpt lat="38.3757130" lon="-0.6572610">
        <ele>339.1</ele>
        <time>2017-12-18T14:44:14Z</time>
      </trkpt>
      <trkpt lat="38.3756430" lon="-0.6572360">
        <ele>339.1</ele>
        <time>2017-12-18T14:44:15Z</time>
      </trkpt>
      <trkpt lat="38.3755800" lon="-0.6572140">
        <ele>337.1</ele>
        <time>2017-12-18T14:44:16Z</time>
      </trkpt>
      <trkpt lat="38.3755140" lon="-0.6572000">
        <ele>337.1</ele>
        <time>2017-12-18T14:44:17Z</time>
      </trkpt>
      <trkpt lat="38.3754510" lon="-0.6571910">
        <ele>335.1</ele>
        <time>2017-12-18T14:44:18Z</time>
      </trkpt>
      <trkpt lat="38.3753930" lon="-0.6571840">
        <ele>335.1</ele>
        <time>2017-12-18T14:44:19Z</time>
      </trkpt>
      <trkpt lat="38.3753410" lon="-0.6571880">
        <ele>333.2</ele>
        <time>2017-12-18T14:44:20Z</time>
      </trkpt>
      <trkpt lat="38.3752840" lon="-0.6571750">
        <ele>333.2</ele>
        <time>2017-12-18T14:44:21Z</time>
      </trkpt>
      <trkpt lat="38.3752320" lon="-0.6571400">
        <ele>332.1</ele>
        <time>2017-12-18T14:44:22Z</time>
      </trkpt>
      <trkpt lat="38.3751740" lon="-0.6571040">
        <ele>332.1</ele>
        <time>2017-12-18T14:44:23Z</time>
      </trkpt>
      <trkpt lat="38.3751140" lon="-0.6570770">
        <ele>331.2</ele>
        <time>2017-12-18T14:44:24Z</time>
      </trkpt>
      <trkpt lat="38.3750670" lon="-0.6570350">
        <ele>331.2</ele>
        <time>2017-12-18T14:44:25Z</time>
      </trkpt>
      <trkpt lat="38.3750290" lon="-0.6569790">
        <ele>329.2</ele>
        <time>2017-12-18T14:44:26Z</time>
      </trkpt>
      <trkpt lat="38.3749920" lon="-0.6569140">
        <ele>329.2</ele>
        <time>2017-12-18T14:44:27Z</time>
      </trkpt>
      <trkpt lat="38.3749520" lon="-0.6568510">
        <ele>328.1</ele>
        <time>2017-12-18T14:44:28Z</time>
      </trkpt>
      <trkpt lat="38.3749070" lon="-0.6567860">
        <ele>328.1</ele>
        <time>2017-12-18T14:44:29Z</time>
      </trkpt>
      <trkpt lat="38.3748640" lon="-0.6567330">
        <ele>326.1</ele>
        <time>2017-12-18T14:44:30Z</time>
      </trkpt>
      <trkpt lat="38.3748350" lon="-0.6566830">
        <ele>326.1</ele>
        <time>2017-12-18T14:44:31Z</time>
      </trkpt>
      <trkpt lat="38.3748190" lon="-0.6566330">
        <ele>325.1</ele>
        <time>2017-12-18T14:44:32Z</time>
      </trkpt>
      <trkpt lat="38.3747990" lon="-0.6565820">
        <ele>325.1</ele>
        <time>2017-12-18T14:44:33Z</time>
      </trkpt>
      <trkpt lat="38.3747660" lon="-0.6565290">
        <ele>324.2</ele>
        <time>2017-12-18T14:44:34Z</time>
      </trkpt>
      <trkpt lat="38.3747210" lon="-0.6564810">
        <ele>324.2</ele>
        <time>2017-12-18T14:44:35Z</time>
      </trkpt>
      <trkpt lat="38.3746750" lon="-0.6564440">
        <ele>323.1</ele>
        <time>2017-12-18T14:44:36Z</time>
      </trkpt>
      <trkpt lat="38.3746470" lon="-0.6564090">
        <ele>323.1</ele>
        <time>2017-12-18T14:44:37Z</time>
      </trkpt>
      <trkpt lat="38.3746240" lon="-0.6563660">
        <ele>321.1</ele>
        <time>2017-12-18T14:44:38Z</time>
      </trkpt>
      <trkpt lat="38.3746070" lon="-0.6563170">
        <ele>321.1</ele>
        <time>2017-12-18T14:44:39Z</time>
      </trkpt>
      <trkpt lat="38.3745730" lon="-0.6562760">
        <ele>320.2</ele>
        <time>2017-12-18T14:44:40Z</time>
      </trkpt>
      <trkpt lat="38.3745250" lon="-0.6562590">
        <ele>320.2</ele>
        <time>2017-12-18T14:44:41Z</time>
      </trkpt>
      <trkpt lat="38.3744680" lon="-0.6562570">
        <ele>318.2</ele>
        <time>2017-12-18T14:44:42Z</time>
      </trkpt>
      <trkpt lat="38.3744080" lon="-0.6562400">
        <ele>318.2</ele>
        <time>2017-12-18T14:44:43Z</time>
      </trkpt>
      <trkpt lat="38.3743470" lon="-0.6561970">
        <ele>317.1</ele>
        <time>2017-12-18T14:44:44Z</time>
      </trkpt>
      <trkpt lat="38.3742850" lon="-0.6561410">
        <ele>317.1</ele>
        <time>2017-12-18T14:44:45Z</time>
      </trkpt>
      <trkpt lat="38.3742250" lon="-0.6560780">
        <ele>316.1</ele>
        <time>2017-12-18T14:44:46Z</time>
      </trkpt>
      <trkpt lat="38.3741680" lon="-0.6560280">
        <ele>316.1</ele>
        <time>2017-12-18T14:44:47Z</time>
      </trkpt>
      <trkpt lat="38.3741070" lon="-0.6560130">
        <ele>314.1</ele>
        <time>2017-12-18T14:44:48Z</time>
      </trkpt>
      <trkpt lat="38.3740430" lon="-0.6560180">
        <ele>314.1</ele>
        <time>2017-12-18T14:44:49Z</time>
      </trkpt>
      <trkpt lat="38.3739730" lon="-0.6560130">
        <ele>313.2</ele>
        <time>2017-12-18T14:44:50Z</time>
      </trkpt>
      <trkpt lat="38.3739030" lon="-0.6560220">
        <ele>313.2</ele>
        <time>2017-12-18T14:44:51Z</time>
      </trkpt>
      <trkpt lat="38.3738330" lon="-0.6560400">
        <ele>311.2</ele>
        <time>2017-12-18T14:44:52Z</time>
      </trkpt>
      <trkpt lat="38.3737640" lon="-0.6560480">
        <ele>311.2</ele>
        <time>2017-12-18T14:44:53Z</time>
      </trkpt>
      <trkpt lat="38.3737030" lon="-0.6560260">
        <ele>311.2</ele>
        <time>2017-12-18T14:44:54Z</time>
      </trkpt>
      <trkpt lat="38.3736550" lon="-0.6560090">
        <ele>311.2</ele>
        <time>2017-12-18T14:44:55Z</time>
      </trkpt>
      <trkpt lat="38.3736110" lon="-0.6560160">
        <ele>311.2</ele>
        <time>2017-12-18T14:44:56Z</time>
      </trkpt>
      <trkpt lat="38.3735700" lon="-0.6560360">
        <ele>311.2</ele>
        <time>2017-12-18T14:44:57Z</time>
      </trkpt>
      <trkpt lat="38.3735300" lon="-0.6560600">
        <ele>307.1</ele>
        <time>2017-12-18T14:44:58Z</time>
      </trkpt>
      <trkpt lat="38.3734780" lon="-0.6560630">
        <ele>307.1</ele>
        <time>2017-12-18T14:44:59Z</time>
      </trkpt>
      <trkpt lat="38.3734190" lon="-0.6560450">
        <ele>306.2</ele>
        <time>2017-12-18T14:45:00Z</time>
      </trkpt>
      <trkpt lat="38.3733510" lon="-0.6560170">
        <ele>306.2</ele>
        <time>2017-12-18T14:45:01Z</time>
      </trkpt>
      <trkpt lat="38.3732800" lon="-0.6560020">
        <ele>305.1</ele>
        <time>2017-12-18T14:45:02Z</time>
      </trkpt>
      <trkpt lat="38.3732100" lon="-0.6560020">
        <ele>305.1</ele>
        <time>2017-12-18T14:45:03Z</time>
      </trkpt>
      <trkpt lat="38.3731370" lon="-0.6560020">
        <ele>305.1</ele>
        <time>2017-12-18T14:45:04Z</time>
      </trkpt>
      <trkpt lat="38.3730770" lon="-0.6559880">
        <ele>305.1</ele>
        <time>2017-12-18T14:45:05Z</time>
      </trkpt>
      <trkpt lat="38.3730320" lon="-0.6559620">
        <ele>305.1</ele>
        <time>2017-12-18T14:45:06Z</time>
      </trkpt>
      <trkpt lat="38.3730010" lon="-0.6559200">
        <ele>305.1</ele>
        <time>2017-12-18T14:45:07Z</time>
      </trkpt>
      <trkpt lat="38.3729850" lon="-0.6558600">
        <ele>302.2</ele>
        <time>2017-12-18T14:45:08Z</time>
      </trkpt>
      <trkpt lat="38.3729680" lon="-0.6557890">
        <ele>302.2</ele>
        <time>2017-12-18T14:45:09Z</time>
      </trkpt>
      <trkpt lat="38.3729480" lon="-0.6557120">
        <ele>299.2</ele>
        <time>2017-12-18T14:45:10Z</time>
      </trkpt>
      <trkpt lat="38.3729190" lon="-0.6556410">
        <ele>299.2</ele>
        <time>2017-12-18T14:45:11Z</time>
      </trkpt>
      <trkpt lat="38.3728860" lon="-0.6556050">
        <ele>298.1</ele>
        <time>2017-12-18T14:45:12Z</time>
      </trkpt>
      <trkpt lat="38.3728480" lon="-0.6555880">
        <ele>298.1</ele>
        <time>2017-12-18T14:45:13Z</time>
      </trkpt>
      <trkpt lat="38.3728230" lon="-0.6555910">
        <ele>298.1</ele>
        <time>2017-12-18T14:45:14Z</time>
      </trkpt>
      <trkpt lat="38.3727930" lon="-0.6555980">
        <ele>298.1</ele>
        <time>2017-12-18T14:45:15Z</time>
      </trkpt>
      <trkpt lat="38.3727610" lon="-0.6556140">
        <ele>298.1</ele>
        <time>2017-12-18T14:45:16Z</time>
      </trkpt>
      <trkpt lat="38.3727250" lon="-0.6556380">
        <ele>298.1</ele>
        <time>2017-12-18T14:45:17Z</time>
      </trkpt>
      <trkpt lat="38.3726920" lon="-0.6556660">
        <ele>298.1</ele>
        <time>2017-12-18T14:45:18Z</time>
      </trkpt>
      <trkpt lat="38.3726560" lon="-0.6556970">
        <ele>298.1</ele>
        <time>2017-12-18T14:45:19Z</time>
      </trkpt>
      <trkpt lat="38.3726190" lon="-0.6557330">
        <ele>298.1</ele>
        <time>2017-12-18T14:45:20Z</time>
      </trkpt>
      <trkpt lat="38.3725750" lon="-0.6557760">
        <ele>298.1</ele>
        <time>2017-12-18T14:45:21Z</time>
      </trkpt>
      <trkpt lat="38.3725260" lon="-0.6558290">
        <ele>297.2</ele>
        <time>2017-12-18T14:45:22Z</time>
      </trkpt>
      <trkpt lat="38.3724710" lon="-0.6558810">
        <ele>297.2</ele>
        <time>2017-12-18T14:45:23Z</time>
      </trkpt>
      <trkpt lat="38.3724130" lon="-0.6559110">
        <ele>296.1</ele>
        <time>2017-12-18T14:45:24Z</time>
      </trkpt>
      <trkpt lat="38.3723590" lon="-0.6559050">
        <ele>296.1</ele>
        <time>2017-12-18T14:45:25Z</time>
      </trkpt>
      <trkpt lat="38.3723020" lon="-0.6558760">
        <ele>294.1</ele>
        <time>2017-12-18T14:45:26Z</time>
      </trkpt>
      <trkpt lat="38.3722450" lon="-0.6558370">
        <ele>294.1</ele>
        <time>2017-12-18T14:45:27Z</time>
      </trkpt>
      <trkpt lat="38.3721880" lon="-0.6557990">
        <ele>294.1</ele>
        <time>2017-12-18T14:45:28Z</time>
      </trkpt>
      <trkpt lat="38.3721300" lon="-0.6557660">
        <ele>294.1</ele>
        <time>2017-12-18T14:45:29Z</time>
      </trkpt>
      <trkpt lat="38.3720810" lon="-0.6557360">
        <ele>294.1</ele>
        <time>2017-12-18T14:45:30Z</time>
      </trkpt>
      <trkpt lat="38.3720340" lon="-0.6557030">
        <ele>294.1</ele>
        <time>2017-12-18T14:45:31Z</time>
      </trkpt>
      <trkpt lat="38.3719940" lon="-0.6556680">
        <ele>294.1</ele>
        <time>2017-12-18T14:45:32Z</time>
      </trkpt>
      <trkpt lat="38.3719560" lon="-0.6556340">
        <ele>294.1</ele>
        <time>2017-12-18T14:45:33Z</time>
      </trkpt>
      <trkpt lat="38.3719190" lon="-0.6556030">
        <ele>294.1</ele>
        <time>2017-12-18T14:45:34Z</time>
      </trkpt>
      <trkpt lat="38.3718810" lon="-0.6555750">
        <ele>294.1</ele>
        <time>2017-12-18T14:45:35Z</time>
      </trkpt>
      <trkpt lat="38.3718410" lon="-0.6555620">
        <ele>295.2</ele>
        <time>2017-12-18T14:45:36Z</time>
      </trkpt>
      <trkpt lat="38.3718080" lon="-0.6555430">
        <ele>295.2</ele>
        <time>2017-12-18T14:45:37Z</time>
      </trkpt>
      <trkpt lat="38.3717730" lon="-0.6555240">
        <ele>296.1</ele>
        <time>2017-12-18T14:45:38Z</time>
      </trkpt>
      <trkpt lat="38.3717350" lon="-0.6555090">
        <ele>296.1</ele>
        <time>2017-12-18T14:45:39Z</time>
      </trkpt>
      <trkpt lat="38.3716880" lon="-0.6554860">
        <ele>296.1</ele>
        <time>2017-12-18T14:45:40Z</time>
      </trkpt>
      <trkpt lat="38.3716340" lon="-0.6554600">
        <ele>296.1</ele>
        <time>2017-12-18T14:45:41Z</time>
      </trkpt>
      <trkpt lat="38.3715740" lon="-0.6554190">
        <ele>296.1</ele>
        <time>2017-12-18T14:45:42Z</time>
      </trkpt>
      <trkpt lat="38.3715130" lon="-0.6553660">
        <ele>296.1</ele>
        <time>2017-12-18T14:45:43Z</time>
      </trkpt>
      <trkpt lat="38.3714540" lon="-0.6553270">
        <ele>295.2</ele>
        <time>2017-12-18T14:45:44Z</time>
      </trkpt>
      <trkpt lat="38.3713930" lon="-0.6553130">
        <ele>295.2</ele>
        <time>2017-12-18T14:45:45Z</time>
      </trkpt>
      <trkpt lat="38.3713240" lon="-0.6553140">
        <ele>294.1</ele>
        <time>2017-12-18T14:45:46Z</time>
      </trkpt>
      <trkpt lat="38.3712540" lon="-0.6553040">
        <ele>294.1</ele>
        <time>2017-12-18T14:45:47Z</time>
      </trkpt>
      <trkpt lat="38.3711800" lon="-0.6552860">
        <ele>292.2</ele>
        <time>2017-12-18T14:45:48Z</time>
      </trkpt>
      <trkpt lat="38.3711000" lon="-0.6552630">
        <ele>292.2</ele>
        <time>2017-12-18T14:45:49Z</time>
      </trkpt>
      <trkpt lat="38.3710180" lon="-0.6552280">
        <ele>290.2</ele>
        <time>2017-12-18T14:45:50Z</time>
      </trkpt>
      <trkpt lat="38.3709510" lon="-0.6551870">
        <ele>290.2</ele>
        <time>2017-12-18T14:45:51Z</time>
      </trkpt>
      <trkpt lat="38.3708920" lon="-0.6551660">
        <ele>288.2</ele>
        <time>2017-12-18T14:45:52Z</time>
      </trkpt>
      <trkpt lat="38.3708390" lon="-0.6551680">
        <ele>288.2</ele>
        <time>2017-12-18T14:45:53Z</time>
      </trkpt>
      <trkpt lat="38.3707800" lon="-0.6551810">
        <ele>287.1</ele>
        <time>2017-12-18T14:45:54Z</time>
      </trkpt>
      <trkpt lat="38.3707130" lon="-0.6551920">
        <ele>287.1</ele>
        <time>2017-12-18T14:45:55Z</time>
      </trkpt>
      <trkpt lat="38.3706390" lon="-0.6551990">
        <ele>286.2</ele>
        <time>2017-12-18T14:45:56Z</time>
      </trkpt>
      <trkpt lat="38.3705550" lon="-0.6551950">
        <ele>286.2</ele>
        <time>2017-12-18T14:45:57Z</time>
      </trkpt>
      <trkpt lat="38.3704670" lon="-0.6551770">
        <ele>286.2</ele>
        <time>2017-12-18T14:45:58Z</time>
      </trkpt>
      <trkpt lat="38.3703780" lon="-0.6551670">
        <ele>286.2</ele>
        <time>2017-12-18T14:45:59Z</time>
      </trkpt>
      <trkpt lat="38.3702920" lon="-0.6551520">
        <ele>286.2</ele>
        <time>2017-12-18T14:46:00Z</time>
      </trkpt>
      <trkpt lat="38.3702210" lon="-0.6551460">
        <ele>286.2</ele>
        <time>2017-12-18T14:46:01Z</time>
      </trkpt>
      <trkpt lat="38.3701580" lon="-0.6551510">
        <ele>280.1</ele>
        <time>2017-12-18T14:46:02Z</time>
      </trkpt>
      <trkpt lat="38.3701030" lon="-0.6551590">
        <ele>280.1</ele>
        <time>2017-12-18T14:46:03Z</time>
      </trkpt>
      <trkpt lat="38.3700480" lon="-0.6551710">
        <ele>279.2</ele>
        <time>2017-12-18T14:46:04Z</time>
      </trkpt>
      <trkpt lat="38.3700050" lon="-0.6551930">
        <ele>279.2</ele>
        <time>2017-12-18T14:46:05Z</time>
      </trkpt>
      <trkpt lat="38.3699800" lon="-0.6552200">
        <ele>279.2</ele>
        <time>2017-12-18T14:46:06Z</time>
      </trkpt>
      <trkpt lat="38.3699560" lon="-0.6552550">
        <ele>279.2</ele>
        <time>2017-12-18T14:46:07Z</time>
      </trkpt>
      <trkpt lat="38.3699190" lon="-0.6552880">
        <ele>279.2</ele>
        <time>2017-12-18T14:46:08Z</time>
      </trkpt>
      <trkpt lat="38.3698760" lon="-0.6553250">
        <ele>279.2</ele>
        <time>2017-12-18T14:46:09Z</time>
      </trkpt>
      <trkpt lat="38.3698320" lon="-0.6553630">
        <ele>274.2</ele>
        <time>2017-12-18T14:46:10Z</time>
      </trkpt>
      <trkpt lat="38.3697850" lon="-0.6554030">
        <ele>274.2</ele>
        <time>2017-12-18T14:46:11Z</time>
      </trkpt>
      <trkpt lat="38.3697350" lon="-0.6554410">
        <ele>272.2</ele>
        <time>2017-12-18T14:46:12Z</time>
      </trkpt>
      <trkpt lat="38.3696680" lon="-0.6554740">
        <ele>272.2</ele>
        <time>2017-12-18T14:46:13Z</time>
      </trkpt>
      <trkpt lat="38.3695960" lon="-0.6554920">
        <ele>270.2</ele>
        <time>2017-12-18T14:46:14Z</time>
      </trkpt>
      <trkpt lat="38.3695420" lon="-0.6554780">
        <ele>270.2</ele>
        <time>2017-12-18T14:46:15Z</time>
      </trkpt>
      <trkpt lat="38.3695120" lon="-0.6554470">
        <ele>269.1</ele>
        <time>2017-12-18T14:46:16Z</time>
      </trkpt>
      <trkpt lat="38.3694840" lon="-0.6554120">
        <ele>269.1</ele>
        <time>2017-12-18T14:46:17Z</time>
      </trkpt>
      <trkpt lat="38.3694550" lon="-0.6553700">
        <ele>269.1</ele>
        <time>2017-12-18T14:46:18Z</time>
      </trkpt>
      <trkpt lat="38.3694170" lon="-0.6553370">
        <ele>269.1</ele>
        <time>2017-12-18T14:46:19Z</time>
      </trkpt>
      <trkpt lat="38.3693860" lon="-0.6553080">
        <ele>269.1</ele>
        <time>2017-12-18T14:46:20Z</time>
      </trkpt>
      <trkpt lat="38.3693640" lon="-0.6552770">
        <ele>269.1</ele>
        <time>2017-12-18T14:46:21Z</time>
      </trkpt>
      <trkpt lat="38.3693430" lon="-0.6552300">
        <ele>270.2</ele>
        <time>2017-12-18T14:46:22Z</time>
      </trkpt>
      <trkpt lat="38.3693170" lon="-0.6551720">
        <ele>270.2</ele>
        <time>2017-12-18T14:46:23Z</time>
      </trkpt>
      <trkpt lat="38.3692900" lon="-0.6551120">
        <ele>270.2</ele>
        <time>2017-12-18T14:46:24Z</time>
      </trkpt>
      <trkpt lat="38.3692590" lon="-0.6550570">
        <ele>270.2</ele>
        <time>2017-12-18T14:46:25Z</time>
      </trkpt>
      <trkpt lat="38.3692250" lon="-0.6550020">
        <ele>269.1</ele>
        <time>2017-12-18T14:46:26Z</time>
      </trkpt>
      <trkpt lat="38.3691840" lon="-0.6549490">
        <ele>269.1</ele>
        <time>2017-12-18T14:46:27Z</time>
      </trkpt>
      <trkpt lat="38.3691420" lon="-0.6548930">
        <ele>269.1</ele>
        <time>2017-12-18T14:46:28Z</time>
      </trkpt>
      <trkpt lat="38.3691010" lon="-0.6548350">
        <ele>269.1</ele>
        <time>2017-12-18T14:46:29Z</time>
      </trkpt>
      <trkpt lat="38.3690620" lon="-0.6547760">
        <ele>269.1</ele>
        <time>2017-12-18T14:46:30Z</time>
      </trkpt>
      <trkpt lat="38.3690210" lon="-0.6547210">
        <ele>269.1</ele>
        <time>2017-12-18T14:46:31Z</time>
      </trkpt>
      <trkpt lat="38.3689790" lon="-0.6546630">
        <ele>269.1</ele>
        <time>2017-12-18T14:46:32Z</time>
      </trkpt>
      <trkpt lat="38.3689390" lon="-0.6545980">
        <ele>269.1</ele>
        <time>2017-12-18T14:46:33Z</time>
      </trkpt>
      <trkpt lat="38.3689020" lon="-0.6545340">
        <ele>269.1</ele>
        <time>2017-12-18T14:46:34Z</time>
      </trkpt>
      <trkpt lat="38.3688620" lon="-0.6544810">
        <ele>269.1</ele>
        <time>2017-12-18T14:46:35Z</time>
      </trkpt>
      <trkpt lat="38.3688240" lon="-0.6544420">
        <ele>269.1</ele>
        <time>2017-12-18T14:46:36Z</time>
      </trkpt>
      <trkpt lat="38.3687860" lon="-0.6544100">
        <ele>269.1</ele>
        <time>2017-12-18T14:46:37Z</time>
      </trkpt>
      <trkpt lat="38.3687490" lon="-0.6543800">
        <ele>269.1</ele>
        <time>2017-12-18T14:46:38Z</time>
      </trkpt>
      <trkpt lat="38.3687180" lon="-0.6543410">
        <ele>269.1</ele>
        <time>2017-12-18T14:46:39Z</time>
      </trkpt>
      <trkpt lat="38.3686930" lon="-0.6543010">
        <ele>270.2</ele>
        <time>2017-12-18T14:46:40Z</time>
      </trkpt>
      <trkpt lat="38.3686650" lon="-0.6542680">
        <ele>270.2</ele>
        <time>2017-12-18T14:46:41Z</time>
      </trkpt>
      <trkpt lat="38.3686360" lon="-0.6542430">
        <ele>271.1</ele>
        <time>2017-12-18T14:46:42Z</time>
      </trkpt>
      <trkpt lat="38.3686040" lon="-0.6542230">
        <ele>271.1</ele>
        <time>2017-12-18T14:46:43Z</time>
      </trkpt>
      <trkpt lat="38.3685740" lon="-0.6542100">
        <ele>272.2</ele>
        <time>2017-12-18T14:46:44Z</time>
      </trkpt>
      <trkpt lat="38.3685430" lon="-0.6542090">
        <ele>272.2</ele>
        <time>2017-12-18T14:46:45Z</time>
      </trkpt>
      <trkpt lat="38.3685080" lon="-0.6541980">
        <ele>272.2</ele>
        <time>2017-12-18T14:46:46Z</time>
      </trkpt>
      <trkpt lat="38.3684710" lon="-0.6541820">
        <ele>272.2</ele>
        <time>2017-12-18T14:46:47Z</time>
      </trkpt>
      <trkpt lat="38.3684340" lon="-0.6541610">
        <ele>273.1</ele>
        <time>2017-12-18T14:46:48Z</time>
      </trkpt>
      <trkpt lat="38.3683960" lon="-0.6541390">
        <ele>273.1</ele>
        <time>2017-12-18T14:46:49Z</time>
      </trkpt>
      <trkpt lat="38.3683600" lon="-0.6541160">
        <ele>273.1</ele>
        <time>2017-12-18T14:46:50Z</time>
      </trkpt>
      <trkpt lat="38.3683280" lon="-0.6540830">
        <ele>273.1</ele>
        <time>2017-12-18T14:46:51Z</time>
      </trkpt>
      <trkpt lat="38.3682940" lon="-0.6540460">
        <ele>273.1</ele>
        <time>2017-12-18T14:46:52Z</time>
      </trkpt>
      <trkpt lat="38.3682620" lon="-0.6540080">
        <ele>273.1</ele>
        <time>2017-12-18T14:46:53Z</time>
      </trkpt>
      <trkpt lat="38.3682340" lon="-0.6539680">
        <ele>273.1</ele>
        <time>2017-12-18T14:46:54Z</time>
      </trkpt>
      <trkpt lat="38.3682060" lon="-0.6539200">
        <ele>273.1</ele>
        <time>2017-12-18T14:46:55Z</time>
      </trkpt>
      <trkpt lat="38.3681860" lon="-0.6538660">
        <ele>275.1</ele>
        <time>2017-12-18T14:46:56Z</time>
      </trkpt>
      <trkpt lat="38.3681800" lon="-0.6538060">
        <ele>275.1</ele>
        <time>2017-12-18T14:46:57Z</time>
      </trkpt>
      <trkpt lat="38.3681790" lon="-0.6537470">
        <ele>275.1</ele>
        <time>2017-12-18T14:46:58Z</time>
      </trkpt>
      <trkpt lat="38.3681820" lon="-0.6536880">
        <ele>275.1</ele>
        <time>2017-12-18T14:46:59Z</time>
      </trkpt>
      <trkpt lat="38.3681870" lon="-0.6536290">
        <ele>275.1</ele>
        <time>2017-12-18T14:47:00Z</time>
      </trkpt>
      <trkpt lat="38.3681920" lon="-0.6535700">
        <ele>275.1</ele>
        <time>2017-12-18T14:47:01Z</time>
      </trkpt>
      <trkpt lat="38.3682010" lon="-0.6535140">
        <ele>276.2</ele>
        <time>2017-12-18T14:47:02Z</time>
      </trkpt>
      <trkpt lat="38.3682090" lon="-0.6534620">
        <ele>276.2</ele>
        <time>2017-12-18T14:47:03Z</time>
      </trkpt>
      <trkpt lat="38.3682130" lon="-0.6534180">
        <ele>276.2</ele>
        <time>2017-12-18T14:47:04Z</time>
      </trkpt>
      <trkpt lat="38.3682120" lon="-0.6533790">
        <ele>276.2</ele>
        <time>2017-12-18T14:47:05Z</time>
      </trkpt>
      <trkpt lat="38.3682170" lon="-0.6533340">
        <ele>277.2</ele>
        <time>2017-12-18T14:47:06Z</time>
      </trkpt>
      <trkpt lat="38.3682270" lon="-0.6532840">
        <ele>277.2</ele>
        <time>2017-12-18T14:47:07Z</time>
      </trkpt>
      <trkpt lat="38.3682400" lon="-0.6532260">
        <ele>277.2</ele>
        <time>2017-12-18T14:47:08Z</time>
      </trkpt>
      <trkpt lat="38.3682620" lon="-0.6531650">
        <ele>277.2</ele>
        <time>2017-12-18T14:47:09Z</time>
      </trkpt>
      <trkpt lat="38.3682910" lon="-0.6531000">
        <ele>277.2</ele>
        <time>2017-12-18T14:47:10Z</time>
      </trkpt>
      <trkpt lat="38.3683190" lon="-0.6530260">
        <ele>277.2</ele>
        <time>2017-12-18T14:47:11Z</time>
      </trkpt>
      <trkpt lat="38.3683460" lon="-0.6529470">
        <ele>277.2</ele>
        <time>2017-12-18T14:47:12Z</time>
      </trkpt>
      <trkpt lat="38.3683600" lon="-0.6528660">
        <ele>277.2</ele>
        <time>2017-12-18T14:47:13Z</time>
      </trkpt>
      <trkpt lat="38.3683550" lon="-0.6527930">
        <ele>277.2</ele>
        <time>2017-12-18T14:47:14Z</time>
      </trkpt>
      <trkpt lat="38.3683380" lon="-0.6527180">
        <ele>277.2</ele>
        <time>2017-12-18T14:47:15Z</time>
      </trkpt>
      <trkpt lat="38.3682980" lon="-0.6526660">
        <ele>273.1</ele>
        <time>2017-12-18T14:47:16Z</time>
      </trkpt>
      <trkpt lat="38.3682510" lon="-0.6526280">
        <ele>273.1</ele>
        <time>2017-12-18T14:47:17Z</time>
      </trkpt>
      <trkpt lat="38.3682020" lon="-0.6525870">
        <ele>273.1</ele>
        <time>2017-12-18T14:47:18Z</time>
      </trkpt>
      <trkpt lat="38.3681570" lon="-0.6525450">
        <ele>273.1</ele>
        <time>2017-12-18T14:47:19Z</time>
      </trkpt>
      <trkpt lat="38.3681170" lon="-0.6525110">
        <ele>273.1</ele>
        <time>2017-12-18T14:47:20Z</time>
      </trkpt>
      <trkpt lat="38.3680820" lon="-0.6524830">
        <ele>273.1</ele>
        <time>2017-12-18T14:47:21Z</time>
      </trkpt>
      <trkpt lat="38.3680480" lon="-0.6524600">
        <ele>273.1</ele>
        <time>2017-12-18T14:47:22Z</time>
      </trkpt>
      <trkpt lat="38.3680160" lon="-0.6524420">
        <ele>273.1</ele>
        <time>2017-12-18T14:47:23Z</time>
      </trkpt>
      <trkpt lat="38.3679810" lon="-0.6524210">
        <ele>273.1</ele>
        <time>2017-12-18T14:47:24Z</time>
      </trkpt>
      <trkpt lat="38.3679430" lon="-0.6523990">
        <ele>273.1</ele>
        <time>2017-12-18T14:47:25Z</time>
      </trkpt>
      <trkpt lat="38.3679060" lon="-0.6523710">
        <ele>274.2</ele>
        <time>2017-12-18T14:47:26Z</time>
      </trkpt>
      <trkpt lat="38.3678680" lon="-0.6523390">
        <ele>274.2</ele>
        <time>2017-12-18T14:47:27Z</time>
      </trkpt>
      <trkpt lat="38.3678290" lon="-0.6523060">
        <ele>274.2</ele>
        <time>2017-12-18T14:47:28Z</time>
      </trkpt>
      <trkpt lat="38.3677920" lon="-0.6522660">
        <ele>274.2</ele>
        <time>2017-12-18T14:47:29Z</time>
      </trkpt>
      <trkpt lat="38.3677620" lon="-0.6522190">
        <ele>274.2</ele>
        <time>2017-12-18T14:47:30Z</time>
      </trkpt>
      <trkpt lat="38.3677410" lon="-0.6521610">
        <ele>274.2</ele>
        <time>2017-12-18T14:47:31Z</time>
      </trkpt>
      <trkpt lat="38.3677350" lon="-0.6520990">
        <ele>274.2</ele>
        <time>2017-12-18T14:47:32Z</time>
      </trkpt>
      <trkpt lat="38.3677340" lon="-0.6520420">
        <ele>274.2</ele>
        <time>2017-12-18T14:47:33Z</time>
      </trkpt>
      <trkpt lat="38.3677390" lon="-0.6519940">
        <ele>274.2</ele>
        <time>2017-12-18T14:47:34Z</time>
      </trkpt>
      <trkpt lat="38.3677430" lon="-0.6519430">
        <ele>274.2</ele>
        <time>2017-12-18T14:47:35Z</time>
      </trkpt>
      <trkpt lat="38.3677400" lon="-0.6518870">
        <ele>274.2</ele>
        <time>2017-12-18T14:47:36Z</time>
      </trkpt>
      <trkpt lat="38.3677290" lon="-0.6518220">
        <ele>274.2</ele>
        <time>2017-12-18T14:47:37Z</time>
      </trkpt>
      <trkpt lat="38.3677130" lon="-0.6517530">
        <ele>274.2</ele>
        <time>2017-12-18T14:47:38Z</time>
      </trkpt>
      <trkpt lat="38.3676860" lon="-0.6516800">
        <ele>274.2</ele>
        <time>2017-12-18T14:47:39Z</time>
      </trkpt>
      <trkpt lat="38.3676480" lon="-0.6516100">
        <ele>274.2</ele>
        <time>2017-12-18T14:47:40Z</time>
      </trkpt>
      <trkpt lat="38.3676000" lon="-0.6515390">
        <ele>274.2</ele>
        <time>2017-12-18T14:47:41Z</time>
      </trkpt>
      <trkpt lat="38.3675350" lon="-0.6514820">
        <ele>274.2</ele>
        <time>2017-12-18T14:47:42Z</time>
      </trkpt>
      <trkpt lat="38.3674650" lon="-0.6514470">
        <ele>274.2</ele>
        <time>2017-12-18T14:47:43Z</time>
      </trkpt>
      <trkpt lat="38.3673870" lon="-0.6514270">
        <ele>269.1</ele>
        <time>2017-12-18T14:47:44Z</time>
      </trkpt>
      <trkpt lat="38.3673040" lon="-0.6513930">
        <ele>269.1</ele>
        <time>2017-12-18T14:47:45Z</time>
      </trkpt>
      <trkpt lat="38.3672240" lon="-0.6513430">
        <ele>267.2</ele>
        <time>2017-12-18T14:47:46Z</time>
      </trkpt>
      <trkpt lat="38.3671420" lon="-0.6513050">
        <ele>267.2</ele>
        <time>2017-12-18T14:47:47Z</time>
      </trkpt>
      <trkpt lat="38.3670630" lon="-0.6512690">
        <ele>265.2</ele>
        <time>2017-12-18T14:47:48Z</time>
      </trkpt>
      <trkpt lat="38.3669860" lon="-0.6512350">
        <ele>265.2</ele>
        <time>2017-12-18T14:47:49Z</time>
      </trkpt>
      <trkpt lat="38.3669190" lon="-0.6511870">
        <ele>264.1</ele>
        <time>2017-12-18T14:47:50Z</time>
      </trkpt>
      <trkpt lat="38.3668740" lon="-0.6511160">
        <ele>264.1</ele>
        <time>2017-12-18T14:47:51Z</time>
      </trkpt>
      <trkpt lat="38.3668370" lon="-0.6510480">
        <ele>264.1</ele>
        <time>2017-12-18T14:47:52Z</time>
      </trkpt>
      <trkpt lat="38.3668010" lon="-0.6509870">
        <ele>264.1</ele>
        <time>2017-12-18T14:47:53Z</time>
      </trkpt>
      <trkpt lat="38.3667640" lon="-0.6509390">
        <ele>264.1</ele>
        <time>2017-12-18T14:47:54Z</time>
      </trkpt>
      <trkpt lat="38.3667330" lon="-0.6508960">
        <ele>264.1</ele>
        <time>2017-12-18T14:47:55Z</time>
      </trkpt>
      <trkpt lat="38.3667120" lon="-0.6508620">
        <ele>265.2</ele>
        <time>2017-12-18T14:47:56Z</time>
      </trkpt>
      <trkpt lat="38.3666990" lon="-0.6508250">
        <ele>265.2</ele>
        <time>2017-12-18T14:47:57Z</time>
      </trkpt>
      <trkpt lat="38.3666970" lon="-0.6507830">
        <ele>267.2</ele>
        <time>2017-12-18T14:47:58Z</time>
      </trkpt>
      <trkpt lat="38.3667000" lon="-0.6507420">
        <ele>267.2</ele>
        <time>2017-12-18T14:47:59Z</time>
      </trkpt>
      <trkpt lat="38.3667010" lon="-0.6507030">
        <ele>267.2</ele>
        <time>2017-12-18T14:48:00Z</time>
      </trkpt>
      <trkpt lat="38.3667080" lon="-0.6506730">
        <ele>267.2</ele>
        <time>2017-12-18T14:48:01Z</time>
      </trkpt>
      <trkpt lat="38.3667100" lon="-0.6506520">
        <ele>268.1</ele>
        <time>2017-12-18T14:48:02Z</time>
      </trkpt>
      <trkpt lat="38.3667020" lon="-0.6506470">
        <ele>268.1</ele>
        <time>2017-12-18T14:48:03Z</time>
      </trkpt>
      <trkpt lat="38.3666950" lon="-0.6506450">
        <ele>268.1</ele>
        <time>2017-12-18T14:48:04Z</time>
      </trkpt>
      <trkpt lat="38.3666860" lon="-0.6506440">
        <ele>268.1</ele>
        <time>2017-12-18T14:48:05Z</time>
      </trkpt>
      <trkpt lat="38.3666760" lon="-0.6506470">
        <ele>268.1</ele>
        <time>2017-12-18T14:48:06Z</time>
      </trkpt>
      <trkpt lat="38.3666720" lon="-0.6506480">
        <ele>268.1</ele>
        <time>2017-12-18T14:48:07Z</time>
      </trkpt>
      <trkpt lat="38.3666700" lon="-0.6506550">
        <ele>269.1</ele>
        <time>2017-12-18T14:48:08Z</time>
      </trkpt>
      <trkpt lat="38.3666620" lon="-0.6506660">
        <ele>269.1</ele>
        <time>2017-12-18T14:48:09Z</time>
      </trkpt>
      <trkpt lat="38.3666510" lon="-0.6506830">
        <ele>269.1</ele>
        <time>2017-12-18T14:48:10Z</time>
      </trkpt>
      <trkpt lat="38.3666420" lon="-0.6507000">
        <ele>269.1</ele>
        <time>2017-12-18T14:48:11Z</time>
      </trkpt>
      <trkpt lat="38.3666290" lon="-0.6507120">
        <ele>269.1</ele>
        <time>2017-12-18T14:48:12Z</time>
      </trkpt>
      <trkpt lat="38.3666140" lon="-0.6507260">
        <ele>269.1</ele>
        <time>2017-12-18T14:48:13Z</time>
      </trkpt>
      <trkpt lat="38.3665990" lon="-0.6507370">
        <ele>269.1</ele>
        <time>2017-12-18T14:48:14Z</time>
      </trkpt>
      <trkpt lat="38.3665850" lon="-0.6507520">
        <ele>269.1</ele>
        <time>2017-12-18T14:48:15Z</time>
      </trkpt>
      <trkpt lat="38.3665690" lon="-0.6507660">
        <ele>270.2</ele>
        <time>2017-12-18T14:48:16Z</time>
      </trkpt>
      <trkpt lat="38.3665500" lon="-0.6507750">
        <ele>270.2</ele>
        <time>2017-12-18T14:48:17Z</time>
      </trkpt>
      <trkpt lat="38.3665360" lon="-0.6507920">
        <ele>270.2</ele>
        <time>2017-12-18T14:48:18Z</time>
      </trkpt>
      <trkpt lat="38.3665130" lon="-0.6508080">
        <ele>270.2</ele>
        <time>2017-12-18T14:48:19Z</time>
      </trkpt>
      <trkpt lat="38.3664870" lon="-0.6508240">
        <ele>270.2</ele>
        <time>2017-12-18T14:48:20Z</time>
      </trkpt>
      <trkpt lat="38.3664620" lon="-0.6508420">
        <ele>270.2</ele>
        <time>2017-12-18T14:48:21Z</time>
      </trkpt>
      <trkpt lat="38.3664380" lon="-0.6508580">
        <ele>270.2</ele>
        <time>2017-12-18T14:48:22Z</time>
      </trkpt>
      <trkpt lat="38.3664140" lon="-0.6508730">
        <ele>270.2</ele>
        <time>2017-12-18T14:48:23Z</time>
      </trkpt>
      <trkpt lat="38.3663900" lon="-0.6508870">
        <ele>270.2</ele>
        <time>2017-12-18T14:48:24Z</time>
      </trkpt>
      <trkpt lat="38.3663660" lon="-0.6509040">
        <ele>270.2</ele>
        <time>2017-12-18T14:48:25Z</time>
      </trkpt>
      <trkpt lat="38.3663430" lon="-0.6509220">
        <ele>271.1</ele>
        <time>2017-12-18T14:48:26Z</time>
      </trkpt>
      <trkpt lat="38.3663190" lon="-0.6509410">
        <ele>271.1</ele>
        <time>2017-12-18T14:48:27Z</time>
      </trkpt>
      <trkpt lat="38.3662990" lon="-0.6509590">
        <ele>271.1</ele>
        <time>2017-12-18T14:48:28Z</time>
      </trkpt>
      <trkpt lat="38.3662820" lon="-0.6509760">
        <ele>271.1</ele>
        <time>2017-12-18T14:48:29Z</time>
      </trkpt>
      <trkpt lat="38.3662660" lon="-0.6509940">
        <ele>272.2</ele>
        <time>2017-12-18T14:48:30Z</time>
      </trkpt>
      <trkpt lat="38.3662490" lon="-0.6510100">
        <ele>272.2</ele>
        <time>2017-12-18T14:48:31Z</time>
      </trkpt>
      <trkpt lat="38.3662300" lon="-0.6510290">
        <ele>273.1</ele>
        <time>2017-12-18T14:48:32Z</time>
      </trkpt>
      <trkpt lat="38.3662110" lon="-0.6510460">
        <ele>273.1</ele>
        <time>2017-12-18T14:48:33Z</time>
      </trkpt>
      <trkpt lat="38.3661900" lon="-0.6510640">
        <ele>273.1</ele>
        <time>2017-12-18T14:48:34Z</time>
      </trkpt>
      <trkpt lat="38.3661670" lon="-0.6510810">
        <ele>273.1</ele>
        <time>2017-12-18T14:48:35Z</time>
      </trkpt>
      <trkpt lat="38.3661430" lon="-0.6510990">
        <ele>273.1</ele>
        <time>2017-12-18T14:48:36Z</time>
      </trkpt>
      <trkpt lat="38.3661210" lon="-0.6511220">
        <ele>273.1</ele>
        <time>2017-12-18T14:48:37Z</time>
      </trkpt>
      <trkpt lat="38.3661020" lon="-0.6511480">
        <ele>273.1</ele>
        <time>2017-12-18T14:48:38Z</time>
      </trkpt>
      <trkpt lat="38.3660880" lon="-0.6511770">
        <ele>273.1</ele>
        <time>2017-12-18T14:48:39Z</time>
      </trkpt>
      <trkpt lat="38.3660760" lon="-0.6512060">
        <ele>273.1</ele>
        <time>2017-12-18T14:48:40Z</time>
      </trkpt>
      <trkpt lat="38.3660670" lon="-0.6512340">
        <ele>273.1</ele>
        <time>2017-12-18T14:48:41Z</time>
      </trkpt>
      <trkpt lat="38.3660650" lon="-0.6512580">
        <ele>273.1</ele>
        <time>2017-12-18T14:48:42Z</time>
      </trkpt>
      <trkpt lat="38.3660620" lon="-0.6512850">
        <ele>273.1</ele>
        <time>2017-12-18T14:48:43Z</time>
      </trkpt>
      <trkpt lat="38.3660620" lon="-0.6513110">
        <ele>274.2</ele>
        <time>2017-12-18T14:48:44Z</time>
      </trkpt>
      <trkpt lat="38.3660630" lon="-0.6513370">
        <ele>274.2</ele>
        <time>2017-12-18T14:48:45Z</time>
      </trkpt>
      <trkpt lat="38.3660620" lon="-0.6513640">
        <ele>274.2</ele>
        <time>2017-12-18T14:48:46Z</time>
      </trkpt>
      <trkpt lat="38.3660580" lon="-0.6513940">
        <ele>274.2</ele>
        <time>2017-12-18T14:48:47Z</time>
      </trkpt>
      <trkpt lat="38.3660480" lon="-0.6514310">
        <ele>274.2</ele>
        <time>2017-12-18T14:48:48Z</time>
      </trkpt>
      <trkpt lat="38.3660230" lon="-0.6514740">
        <ele>274.2</ele>
        <time>2017-12-18T14:48:49Z</time>
      </trkpt>
      <trkpt lat="38.3659980" lon="-0.6515090">
        <ele>274.2</ele>
        <time>2017-12-18T14:48:50Z</time>
      </trkpt>
      <trkpt lat="38.3659770" lon="-0.6515390">
        <ele>274.2</ele>
        <time>2017-12-18T14:48:51Z</time>
      </trkpt>
      <trkpt lat="38.3659580" lon="-0.6515690">
        <ele>274.2</ele>
        <time>2017-12-18T14:48:52Z</time>
      </trkpt>
      <trkpt lat="38.3659370" lon="-0.6516010">
        <ele>274.2</ele>
        <time>2017-12-18T14:48:53Z</time>
      </trkpt>
      <trkpt lat="38.3659190" lon="-0.6516310">
        <ele>274.2</ele>
        <time>2017-12-18T14:48:54Z</time>
      </trkpt>
      <trkpt lat="38.3659000" lon="-0.6516580">
        <ele>274.2</ele>
        <time>2017-12-18T14:48:55Z</time>
      </trkpt>
      <trkpt lat="38.3658830" lon="-0.6516820">
        <ele>275.1</ele>
        <time>2017-12-18T14:48:56Z</time>
      </trkpt>
      <trkpt lat="38.3658640" lon="-0.6517040">
        <ele>275.1</ele>
        <time>2017-12-18T14:48:57Z</time>
      </trkpt>
      <trkpt lat="38.3658440" lon="-0.6517230">
        <ele>275.1</ele>
        <time>2017-12-18T14:48:58Z</time>
      </trkpt>
      <trkpt lat="38.3658250" lon="-0.6517350">
        <ele>275.1</ele>
        <time>2017-12-18T14:48:59Z</time>
      </trkpt>
      <trkpt lat="38.3658020" lon="-0.6517440">
        <ele>276.2</ele>
        <time>2017-12-18T14:49:00Z</time>
      </trkpt>
      <trkpt lat="38.3657780" lon="-0.6517450">
        <ele>276.2</ele>
        <time>2017-12-18T14:49:01Z</time>
      </trkpt>
      <trkpt lat="38.3657540" lon="-0.6517470">
        <ele>276.2</ele>
        <time>2017-12-18T14:49:02Z</time>
      </trkpt>
      <trkpt lat="38.3657320" lon="-0.6517420">
        <ele>276.2</ele>
        <time>2017-12-18T14:49:03Z</time>
      </trkpt>
      <trkpt lat="38.3657060" lon="-0.6517450">
        <ele>277.2</ele>
        <time>2017-12-18T14:49:04Z</time>
      </trkpt>
      <trkpt lat="38.3656820" lon="-0.6517560">
        <ele>277.2</ele>
        <time>2017-12-18T14:49:05Z</time>
      </trkpt>
      <trkpt lat="38.3656660" lon="-0.6517890">
        <ele>277.2</ele>
        <time>2017-12-18T14:49:06Z</time>
      </trkpt>
      <trkpt lat="38.3656680" lon="-0.6518240">
        <ele>277.2</ele>
        <time>2017-12-18T14:49:07Z</time>
      </trkpt>
      <trkpt lat="38.3656770" lon="-0.6518610">
        <ele>277.2</ele>
        <time>2017-12-18T14:49:08Z</time>
      </trkpt>
      <trkpt lat="38.3656840" lon="-0.6519010">
        <ele>277.2</ele>
        <time>2017-12-18T14:49:09Z</time>
      </trkpt>
      <trkpt lat="38.3656910" lon="-0.6519450">
        <ele>277.2</ele>
        <time>2017-12-18T14:49:10Z</time>
      </trkpt>
      <trkpt lat="38.3656980" lon="-0.6519890">
        <ele>277.2</ele>
        <time>2017-12-18T14:49:11Z</time>
      </trkpt>
      <trkpt lat="38.3657020" lon="-0.6520340">
        <ele>277.2</ele>
        <time>2017-12-18T14:49:12Z</time>
      </trkpt>
      <trkpt lat="38.3656810" lon="-0.6520730">
        <ele>277.2</ele>
        <time>2017-12-18T14:49:13Z</time>
      </trkpt>
      <trkpt lat="38.3656630" lon="-0.6521020">
        <ele>277.2</ele>
        <time>2017-12-18T14:49:14Z</time>
      </trkpt>
      <trkpt lat="38.3656480" lon="-0.6521210">
        <ele>277.2</ele>
        <time>2017-12-18T14:49:15Z</time>
      </trkpt>
      <trkpt lat="38.3656360" lon="-0.6521440">
        <ele>278.1</ele>
        <time>2017-12-18T14:49:16Z</time>
      </trkpt>
      <trkpt lat="38.3656310" lon="-0.6521800">
        <ele>278.1</ele>
        <time>2017-12-18T14:49:17Z</time>
      </trkpt>
      <trkpt lat="38.3656390" lon="-0.6522180">
        <ele>278.1</ele>
        <time>2017-12-18T14:49:18Z</time>
      </trkpt>
      <trkpt lat="38.3656580" lon="-0.6522540">
        <ele>278.1</ele>
        <time>2017-12-18T14:49:19Z</time>
      </trkpt>
      <trkpt lat="38.3656780" lon="-0.6522930">
        <ele>279.2</ele>
        <time>2017-12-18T14:49:20Z</time>
      </trkpt>
      <trkpt lat="38.3657000" lon="-0.6523410">
        <ele>279.2</ele>
        <time>2017-12-18T14:49:21Z</time>
      </trkpt>
      <trkpt lat="38.3657200" lon="-0.6523920">
        <ele>279.2</ele>
        <time>2017-12-18T14:49:22Z</time>
      </trkpt>
      <trkpt lat="38.3657370" lon="-0.6524430">
        <ele>279.2</ele>
        <time>2017-12-18T14:49:23Z</time>
      </trkpt>
      <trkpt lat="38.3657580" lon="-0.6525030">
        <ele>279.2</ele>
        <time>2017-12-18T14:49:24Z</time>
      </trkpt>
      <trkpt lat="38.3657780" lon="-0.6525620">
        <ele>279.2</ele>
        <time>2017-12-18T14:49:25Z</time>
      </trkpt>
      <trkpt lat="38.3657980" lon="-0.6526220">
        <ele>279.2</ele>
        <time>2017-12-18T14:49:26Z</time>
      </trkpt>
      <trkpt lat="38.3658200" lon="-0.6526770">
        <ele>279.2</ele>
        <time>2017-12-18T14:49:27Z</time>
      </trkpt>
      <trkpt lat="38.3658390" lon="-0.6527210">
        <ele>279.2</ele>
        <time>2017-12-18T14:49:28Z</time>
      </trkpt>
      <trkpt lat="38.3658550" lon="-0.6527680">
        <ele>279.2</ele>
        <time>2017-12-18T14:49:29Z</time>
      </trkpt>
      <trkpt lat="38.3658710" lon="-0.6528160">
        <ele>279.2</ele>
        <time>2017-12-18T14:49:30Z</time>
      </trkpt>
      <trkpt lat="38.3658840" lon="-0.6528710">
        <ele>279.2</ele>
        <time>2017-12-18T14:49:31Z</time>
      </trkpt>
      <trkpt lat="38.3658970" lon="-0.6529280">
        <ele>279.2</ele>
        <time>2017-12-18T14:49:32Z</time>
      </trkpt>
      <trkpt lat="38.3659060" lon="-0.6529890">
        <ele>279.2</ele>
        <time>2017-12-18T14:49:33Z</time>
      </trkpt>
      <trkpt lat="38.3659050" lon="-0.6530570">
        <ele>280.1</ele>
        <time>2017-12-18T14:49:34Z</time>
      </trkpt>
      <trkpt lat="38.3658960" lon="-0.6531190">
        <ele>280.1</ele>
        <time>2017-12-18T14:49:35Z</time>
      </trkpt>
      <trkpt lat="38.3658960" lon="-0.6531780">
        <ele>280.1</ele>
        <time>2017-12-18T14:49:36Z</time>
      </trkpt>
      <trkpt lat="38.3659030" lon="-0.6532320">
        <ele>280.1</ele>
        <time>2017-12-18T14:49:37Z</time>
      </trkpt>
      <trkpt lat="38.3659220" lon="-0.6532840">
        <ele>280.1</ele>
        <time>2017-12-18T14:49:38Z</time>
      </trkpt>
      <trkpt lat="38.3659400" lon="-0.6533400">
        <ele>280.1</ele>
        <time>2017-12-18T14:49:39Z</time>
      </trkpt>
      <trkpt lat="38.3659610" lon="-0.6533950">
        <ele>280.1</ele>
        <time>2017-12-18T14:49:40Z</time>
      </trkpt>
      <trkpt lat="38.3659850" lon="-0.6534480">
        <ele>280.1</ele>
        <time>2017-12-18T14:49:41Z</time>
      </trkpt>
      <trkpt lat="38.3660150" lon="-0.6535010">
        <ele>280.1</ele>
        <time>2017-12-18T14:49:42Z</time>
      </trkpt>
      <trkpt lat="38.3660450" lon="-0.6535520">
        <ele>280.1</ele>
        <time>2017-12-18T14:49:43Z</time>
      </trkpt>
      <trkpt lat="38.3660780" lon="-0.6536000">
        <ele>282.1</ele>
        <time>2017-12-18T14:49:44Z</time>
      </trkpt>
      <trkpt lat="38.3661080" lon="-0.6536500">
        <ele>282.1</ele>
        <time>2017-12-18T14:49:45Z</time>
      </trkpt>
      <trkpt lat="38.3661250" lon="-0.6537070">
        <ele>282.1</ele>
        <time>2017-12-18T14:49:46Z</time>
      </trkpt>
      <trkpt lat="38.3661250" lon="-0.6537620">
        <ele>282.1</ele>
        <time>2017-12-18T14:49:47Z</time>
      </trkpt>
      <trkpt lat="38.3661200" lon="-0.6538100">
        <ele>282.1</ele>
        <time>2017-12-18T14:49:48Z</time>
      </trkpt>
      <trkpt lat="38.3661100" lon="-0.6538530">
        <ele>282.1</ele>
        <time>2017-12-18T14:49:49Z</time>
      </trkpt>
      <trkpt lat="38.3661030" lon="-0.6538950">
        <ele>282.1</ele>
        <time>2017-12-18T14:49:50Z</time>
      </trkpt>
      <trkpt lat="38.3660950" lon="-0.6539370">
        <ele>282.1</ele>
        <time>2017-12-18T14:49:51Z</time>
      </trkpt>
      <trkpt lat="38.3660900" lon="-0.6539780">
        <ele>282.1</ele>
        <time>2017-12-18T14:49:52Z</time>
      </trkpt>
      <trkpt lat="38.3660830" lon="-0.6540170">
        <ele>282.1</ele>
        <time>2017-12-18T14:49:53Z</time>
      </trkpt>
      <trkpt lat="38.3660790" lon="-0.6540540">
        <ele>286.2</ele>
        <time>2017-12-18T14:49:54Z</time>
      </trkpt>
      <trkpt lat="38.3660820" lon="-0.6540890">
        <ele>286.2</ele>
        <time>2017-12-18T14:49:55Z</time>
      </trkpt>
      <trkpt lat="38.3660840" lon="-0.6541270">
        <ele>286.2</ele>
        <time>2017-12-18T14:49:56Z</time>
      </trkpt>
      <trkpt lat="38.3660840" lon="-0.6541690">
        <ele>286.2</ele>
        <time>2017-12-18T14:49:57Z</time>
      </trkpt>
      <trkpt lat="38.3660820" lon="-0.6542110">
        <ele>287.1</ele>
        <time>2017-12-18T14:49:58Z</time>
      </trkpt>
      <trkpt lat="38.3660820" lon="-0.6542470">
        <ele>287.1</ele>
        <time>2017-12-18T14:49:59Z</time>
      </trkpt>
      <trkpt lat="38.3660840" lon="-0.6542820">
        <ele>287.1</ele>
        <time>2017-12-18T14:50:00Z</time>
      </trkpt>
      <trkpt lat="38.3660820" lon="-0.6543170">
        <ele>287.1</ele>
        <time>2017-12-18T14:50:01Z</time>
      </trkpt>
      <trkpt lat="38.3660860" lon="-0.6543560">
        <ele>288.2</ele>
        <time>2017-12-18T14:50:02Z</time>
      </trkpt>
      <trkpt lat="38.3660940" lon="-0.6543960">
        <ele>288.2</ele>
        <time>2017-12-18T14:50:03Z</time>
      </trkpt>
      <trkpt lat="38.3661100" lon="-0.6544310">
        <ele>288.2</ele>
        <time>2017-12-18T14:50:04Z</time>
      </trkpt>
      <trkpt lat="38.3661320" lon="-0.6544660">
        <ele>288.2</ele>
        <time>2017-12-18T14:50:05Z</time>
      </trkpt>
      <trkpt lat="38.3661550" lon="-0.6545040">
        <ele>288.2</ele>
        <time>2017-12-18T14:50:06Z</time>
      </trkpt>
      <trkpt lat="38.3661790" lon="-0.6545440">
        <ele>288.2</ele>
        <time>2017-12-18T14:50:07Z</time>
      </trkpt>
      <trkpt lat="38.3662020" lon="-0.6545890">
        <ele>288.2</ele>
        <time>2017-12-18T14:50:08Z</time>
      </trkpt>
      <trkpt lat="38.3662200" lon="-0.6546360">
        <ele>288.2</ele>
        <time>2017-12-18T14:50:09Z</time>
      </trkpt>
      <trkpt lat="38.3662350" lon="-0.6546850">
        <ele>288.2</ele>
        <time>2017-12-18T14:50:10Z</time>
      </trkpt>
      <trkpt lat="38.3662470" lon="-0.6547340">
        <ele>288.2</ele>
        <time>2017-12-18T14:50:11Z</time>
      </trkpt>
      <trkpt lat="38.3662570" lon="-0.6547840">
        <ele>288.2</ele>
        <time>2017-12-18T14:50:12Z</time>
      </trkpt>
      <trkpt lat="38.3662690" lon="-0.6548310">
        <ele>288.2</ele>
        <time>2017-12-18T14:50:13Z</time>
      </trkpt>
      <trkpt lat="38.3662810" lon="-0.6548750">
        <ele>288.2</ele>
        <time>2017-12-18T14:50:14Z</time>
      </trkpt>
      <trkpt lat="38.3662910" lon="-0.6549130">
        <ele>288.2</ele>
        <time>2017-12-18T14:50:15Z</time>
      </trkpt>
      <trkpt lat="38.3663030" lon="-0.6549470">
        <ele>289.1</ele>
        <time>2017-12-18T14:50:16Z</time>
      </trkpt>
      <trkpt lat="38.3663150" lon="-0.6549790">
        <ele>289.1</ele>
        <time>2017-12-18T14:50:17Z</time>
      </trkpt>
      <trkpt lat="38.3663220" lon="-0.6550100">
        <ele>289.1</ele>
        <time>2017-12-18T14:50:18Z</time>
      </trkpt>
      <trkpt lat="38.3663200" lon="-0.6550430">
        <ele>289.1</ele>
        <time>2017-12-18T14:50:19Z</time>
      </trkpt>
      <trkpt lat="38.3663150" lon="-0.6550690">
        <ele>290.2</ele>
        <time>2017-12-18T14:50:20Z</time>
      </trkpt>
      <trkpt lat="38.3663100" lon="-0.6550920">
        <ele>290.2</ele>
        <time>2017-12-18T14:50:21Z</time>
      </trkpt>
      <trkpt lat="38.3663080" lon="-0.6551130">
        <ele>291.1</ele>
        <time>2017-12-18T14:50:22Z</time>
      </trkpt>
      <trkpt lat="38.3663050" lon="-0.6551320">
        <ele>291.1</ele>
        <time>2017-12-18T14:50:23Z</time>
      </trkpt>
      <trkpt lat="38.3663000" lon="-0.6551520">
        <ele>292.2</ele>
        <time>2017-12-18T14:50:24Z</time>
      </trkpt>
      <trkpt lat="38.3662940" lon="-0.6551730">
        <ele>292.2</ele>
        <time>2017-12-18T14:50:25Z</time>
      </trkpt>
      <trkpt lat="38.3662850" lon="-0.6551880">
        <ele>292.2</ele>
        <time>2017-12-18T14:50:26Z</time>
      </trkpt>
      <trkpt lat="38.3662750" lon="-0.6552000">
        <ele>292.2</ele>
        <time>2017-12-18T14:50:27Z</time>
      </trkpt>
      <trkpt lat="38.3662630" lon="-0.6552140">
        <ele>293.2</ele>
        <time>2017-12-18T14:50:28Z</time>
      </trkpt>
      <trkpt lat="38.3662480" lon="-0.6552290">
        <ele>293.2</ele>
        <time>2017-12-18T14:50:29Z</time>
      </trkpt>
      <trkpt lat="38.3662310" lon="-0.6552430">
        <ele>293.2</ele>
        <time>2017-12-18T14:50:30Z</time>
      </trkpt>
      <trkpt lat="38.3662170" lon="-0.6552590">
        <ele>293.2</ele>
        <time>2017-12-18T14:50:31Z</time>
      </trkpt>
      <trkpt lat="38.3662060" lon="-0.6552750">
        <ele>294.1</ele>
        <time>2017-12-18T14:50:32Z</time>
      </trkpt>
      <trkpt lat="38.3661970" lon="-0.6552940">
        <ele>294.1</ele>
        <time>2017-12-18T14:50:33Z</time>
      </trkpt>
      <trkpt lat="38.3661950" lon="-0.6553070">
        <ele>294.1</ele>
        <time>2017-12-18T14:50:34Z</time>
      </trkpt>
      <trkpt lat="38.3661930" lon="-0.6553090">
        <ele>294.1</ele>
        <time>2017-12-18T14:50:35Z</time>
      </trkpt>
      <trkpt lat="38.3661920" lon="-0.6553190">
        <ele>294.1</ele>
        <time>2017-12-18T14:50:36Z</time>
      </trkpt>
      <trkpt lat="38.3661870" lon="-0.6553290">
        <ele>294.1</ele>
        <time>2017-12-18T14:50:37Z</time>
      </trkpt>
      <trkpt lat="38.3661850" lon="-0.6553360">
        <ele>295.2</ele>
        <time>2017-12-18T14:50:38Z</time>
      </trkpt>
      <trkpt lat="38.3661820" lon="-0.6553440">
        <ele>295.2</ele>
        <time>2017-12-18T14:50:39Z</time>
      </trkpt>
      <trkpt lat="38.3661780" lon="-0.6553540">
        <ele>295.2</ele>
        <time>2017-12-18T14:50:40Z</time>
      </trkpt>
      <trkpt lat="38.3661730" lon="-0.6553630">
        <ele>295.2</ele>
        <time>2017-12-18T14:50:41Z</time>
      </trkpt>
      <trkpt lat="38.3661700" lon="-0.6553680">
        <ele>295.2</ele>
        <time>2017-12-18T14:50:42Z</time>
      </trkpt>
      <trkpt lat="38.3661620" lon="-0.6553740">
        <ele>295.2</ele>
        <time>2017-12-18T14:50:43Z</time>
      </trkpt>
      <trkpt lat="38.3661560" lon="-0.6553740">
        <ele>296.1</ele>
        <time>2017-12-18T14:50:44Z</time>
      </trkpt>
      <trkpt lat="38.3661550" lon="-0.6553720">
        <ele>296.1</ele>
        <time>2017-12-18T14:50:45Z</time>
      </trkpt>
      <trkpt lat="38.3661500" lon="-0.6553720">
        <ele>296.1</ele>
        <time>2017-12-18T14:50:46Z</time>
      </trkpt>
      <trkpt lat="38.3661460" lon="-0.6553750">
        <ele>296.1</ele>
        <time>2017-12-18T14:50:47Z</time>
      </trkpt>
      <trkpt lat="38.3661420" lon="-0.6553770">
        <ele>297.2</ele>
        <time>2017-12-18T14:50:48Z</time>
      </trkpt>
      <trkpt lat="38.3661380" lon="-0.6553840">
        <ele>297.2</ele>
        <time>2017-12-18T14:50:49Z</time>
      </trkpt>
      <trkpt lat="38.3661310" lon="-0.6553880">
        <ele>297.2</ele>
        <time>2017-12-18T14:50:50Z</time>
      </trkpt>
      <trkpt lat="38.3661240" lon="-0.6553900">
        <ele>297.2</ele>
        <time>2017-12-18T14:50:51Z</time>
      </trkpt>
      <trkpt lat="38.3661200" lon="-0.6553910">
        <ele>298.1</ele>
        <time>2017-12-18T14:50:52Z</time>
      </trkpt>
      <trkpt lat="38.3661170" lon="-0.6553940">
        <ele>298.1</ele>
        <time>2017-12-18T14:50:53Z</time>
      </trkpt>
      <trkpt lat="38.3661110" lon="-0.6553940">
        <ele>298.1</ele>
        <time>2017-12-18T14:50:54Z</time>
      </trkpt>
      <trkpt lat="38.3661060" lon="-0.6553940">
        <ele>298.1</ele>
        <time>2017-12-18T14:50:55Z</time>
      </trkpt>
      <trkpt lat="38.3661030" lon="-0.6553960">
        <ele>298.1</ele>
        <time>2017-12-18T14:50:56Z</time>
      </trkpt>
      <trkpt lat="38.3660990" lon="-0.6553990">
        <ele>298.1</ele>
        <time>2017-12-18T14:50:57Z</time>
      </trkpt>
      <trkpt lat="38.3660980" lon="-0.6554000">
        <ele>299.2</ele>
        <time>2017-12-18T14:50:58Z</time>
      </trkpt>
      <trkpt lat="38.3660940" lon="-0.6554060">
        <ele>299.2</ele>
        <time>2017-12-18T14:50:59Z</time>
      </trkpt>
      <trkpt lat="38.3660900" lon="-0.6554120">
        <ele>299.2</ele>
        <time>2017-12-18T14:51:00Z</time>
      </trkpt>
      <trkpt lat="38.3660870" lon="-0.6554200">
        <ele>299.2</ele>
        <time>2017-12-18T14:51:01Z</time>
      </trkpt>
      <trkpt lat="38.3660870" lon="-0.6554230">
        <ele>300.1</ele>
        <time>2017-12-18T14:51:02Z</time>
      </trkpt>
      <trkpt lat="38.3660860" lon="-0.6554300">
        <ele>300.1</ele>
        <time>2017-12-18T14:51:03Z</time>
      </trkpt>
      <trkpt lat="38.3660850" lon="-0.6554340">
        <ele>300.1</ele>
        <time>2017-12-18T14:51:04Z</time>
      </trkpt>
      <trkpt lat="38.3660840" lon="-0.6554390">
        <ele>300.1</ele>
        <time>2017-12-18T14:51:05Z</time>
      </trkpt>
      <trkpt lat="38.3660790" lon="-0.6554460">
        <ele>300.1</ele>
        <time>2017-12-18T14:51:06Z</time>
      </trkpt>
      <trkpt lat="38.3660760" lon="-0.6554530">
        <ele>300.1</ele>
        <time>2017-12-18T14:51:07Z</time>
      </trkpt>
      <trkpt lat="38.3660720" lon="-0.6554620">
        <ele>301.1</ele>
        <time>2017-12-18T14:51:08Z</time>
      </trkpt>
      <trkpt lat="38.3660710" lon="-0.6554700">
        <ele>301.1</ele>
        <time>2017-12-18T14:51:09Z</time>
      </trkpt>
      <trkpt lat="38.3660720" lon="-0.6554710">
        <ele>301.1</ele>
        <time>2017-12-18T14:51:10Z</time>
      </trkpt>
      <trkpt lat="38.3660690" lon="-0.6554810">
        <ele>301.1</ele>
        <time>2017-12-18T14:51:11Z</time>
      </trkpt>
      <trkpt lat="38.3660670" lon="-0.6554860">
        <ele>301.1</ele>
        <time>2017-12-18T14:51:12Z</time>
      </trkpt>
      <trkpt lat="38.3660650" lon="-0.6554920">
        <ele>301.1</ele>
        <time>2017-12-18T14:51:13Z</time>
      </trkpt>
      <trkpt lat="38.3660630" lon="-0.6555020">
        <ele>302.2</ele>
        <time>2017-12-18T14:51:14Z</time>
      </trkpt>
      <trkpt lat="38.3660630" lon="-0.6555130">
        <ele>302.2</ele>
        <time>2017-12-18T14:51:15Z</time>
      </trkpt>
      <trkpt lat="38.3660630" lon="-0.6555250">
        <ele>302.2</ele>
        <time>2017-12-18T14:51:16Z</time>
      </trkpt>
      <trkpt lat="38.3660620" lon="-0.6555380">
        <ele>302.2</ele>
        <time>2017-12-18T14:51:17Z</time>
      </trkpt>
      <trkpt lat="38.3660610" lon="-0.6555510">
        <ele>303.1</ele>
        <time>2017-12-18T14:51:18Z</time>
      </trkpt>
      <trkpt lat="38.3660600" lon="-0.6555610">
        <ele>303.1</ele>
        <time>2017-12-18T14:51:19Z</time>
      </trkpt>
      <trkpt lat="38.3660590" lon="-0.6555700">
        <ele>303.1</ele>
        <time>2017-12-18T14:51:20Z</time>
      </trkpt>
      <trkpt lat="38.3660560" lon="-0.6555800">
        <ele>303.1</ele>
        <time>2017-12-18T14:51:21Z</time>
      </trkpt>
      <trkpt lat="38.3660550" lon="-0.6555870">
        <ele>303.1</ele>
        <time>2017-12-18T14:51:22Z</time>
      </trkpt>
      <trkpt lat="38.3660540" lon="-0.6555930">
        <ele>303.1</ele>
        <time>2017-12-18T14:51:23Z</time>
      </trkpt>
      <trkpt lat="38.3660540" lon="-0.6555950">
        <ele>304.2</ele>
        <time>2017-12-18T14:51:24Z</time>
      </trkpt>
      <trkpt lat="38.3660500" lon="-0.6556080">
        <ele>304.2</ele>
        <time>2017-12-18T14:51:25Z</time>
      </trkpt>
      <trkpt lat="38.3660480" lon="-0.6556220">
        <ele>304.2</ele>
        <time>2017-12-18T14:51:26Z</time>
      </trkpt>
      <trkpt lat="38.3660460" lon="-0.6556330">
        <ele>304.2</ele>
        <time>2017-12-18T14:51:27Z</time>
      </trkpt>
      <trkpt lat="38.3660440" lon="-0.6556430">
        <ele>304.2</ele>
        <time>2017-12-18T14:51:28Z</time>
      </trkpt>
      <trkpt lat="38.3660430" lon="-0.6556510">
        <ele>304.2</ele>
        <time>2017-12-18T14:51:29Z</time>
      </trkpt>
      <trkpt lat="38.3660420" lon="-0.6556620">
        <ele>304.2</ele>
        <time>2017-12-18T14:51:30Z</time>
      </trkpt>
      <trkpt lat="38.3660390" lon="-0.6556750">
        <ele>304.2</ele>
        <time>2017-12-18T14:51:31Z</time>
      </trkpt>
      <trkpt lat="38.3660350" lon="-0.6556840">
        <ele>305.1</ele>
        <time>2017-12-18T14:51:32Z</time>
      </trkpt>
      <trkpt lat="38.3660320" lon="-0.6556930">
        <ele>305.1</ele>
        <time>2017-12-18T14:51:33Z</time>
      </trkpt>
      <trkpt lat="38.3660280" lon="-0.6557030">
        <ele>305.1</ele>
        <time>2017-12-18T14:51:34Z</time>
      </trkpt>
      <trkpt lat="38.3660230" lon="-0.6557110">
        <ele>305.1</ele>
        <time>2017-12-18T14:51:35Z</time>
      </trkpt>
      <trkpt lat="38.3660180" lon="-0.6557180">
        <ele>306.2</ele>
        <time>2017-12-18T14:51:36Z</time>
      </trkpt>
      <trkpt lat="38.3660110" lon="-0.6557250">
        <ele>306.2</ele>
        <time>2017-12-18T14:51:37Z</time>
      </trkpt>
      <trkpt lat="38.3660050" lon="-0.6557330">
        <ele>306.2</ele>
        <time>2017-12-18T14:51:38Z</time>
      </trkpt>
      <trkpt lat="38.3660000" lon="-0.6557410">
        <ele>306.2</ele>
        <time>2017-12-18T14:51:39Z</time>
      </trkpt>
      <trkpt lat="38.3659950" lon="-0.6557510">
        <ele>306.2</ele>
        <time>2017-12-18T14:51:40Z</time>
      </trkpt>
      <trkpt lat="38.3659890" lon="-0.6557580">
        <ele>306.2</ele>
        <time>2017-12-18T14:51:41Z</time>
      </trkpt>
      <trkpt lat="38.3659830" lon="-0.6557630">
        <ele>306.2</ele>
        <time>2017-12-18T14:51:42Z</time>
      </trkpt>
      <trkpt lat="38.3659810" lon="-0.6557650">
        <ele>306.2</ele>
        <time>2017-12-18T14:51:43Z</time>
      </trkpt>
      <trkpt lat="38.3659810" lon="-0.6557660">
        <ele>306.2</ele>
        <time>2017-12-18T14:51:44Z</time>
      </trkpt>
      <trkpt lat="38.3659800" lon="-0.6557680">
        <ele>306.2</ele>
        <time>2017-12-18T14:51:45Z</time>
      </trkpt>
      <trkpt lat="38.3659740" lon="-0.6557790">
        <ele>306.2</ele>
        <time>2017-12-18T14:51:46Z</time>
      </trkpt>
      <trkpt lat="38.3659720" lon="-0.6557980">
        <ele>306.2</ele>
        <time>2017-12-18T14:51:47Z</time>
      </trkpt>
      <trkpt lat="38.3659800" lon="-0.6558190">
        <ele>307.1</ele>
        <time>2017-12-18T14:51:48Z</time>
      </trkpt>
      <trkpt lat="38.3659930" lon="-0.6558330">
        <ele>307.1</ele>
        <time>2017-12-18T14:51:49Z</time>
      </trkpt>
      <trkpt lat="38.3660100" lon="-0.6558340">
        <ele>307.1</ele>
        <time>2017-12-18T14:51:50Z</time>
      </trkpt>
      <trkpt lat="38.3660290" lon="-0.6558360">
        <ele>307.1</ele>
        <time>2017-12-18T14:51:51Z</time>
      </trkpt>
      <trkpt lat="38.3660450" lon="-0.6558400">
        <ele>307.1</ele>
        <time>2017-12-18T14:51:52Z</time>
      </trkpt>
      <trkpt lat="38.3660600" lon="-0.6558420">
        <ele>307.1</ele>
        <time>2017-12-18T14:51:53Z</time>
      </trkpt>
      <trkpt lat="38.3660750" lon="-0.6558470">
        <ele>307.1</ele>
        <time>2017-12-18T14:51:54Z</time>
      </trkpt>
      <trkpt lat="38.3660940" lon="-0.6558520">
        <ele>307.1</ele>
        <time>2017-12-18T14:51:55Z</time>
      </trkpt>
      <trkpt lat="38.3661120" lon="-0.6558580">
        <ele>308.2</ele>
        <time>2017-12-18T14:51:56Z</time>
      </trkpt>
      <trkpt lat="38.3661290" lon="-0.6558640">
        <ele>308.2</ele>
        <time>2017-12-18T14:51:57Z</time>
      </trkpt>
      <trkpt lat="38.3661460" lon="-0.6558660">
        <ele>308.2</ele>
        <time>2017-12-18T14:51:58Z</time>
      </trkpt>
      <trkpt lat="38.3661640" lon="-0.6558600">
        <ele>308.2</ele>
        <time>2017-12-18T14:51:59Z</time>
      </trkpt>
      <trkpt lat="38.3661810" lon="-0.6558500">
        <ele>309.1</ele>
        <time>2017-12-18T14:52:00Z</time>
      </trkpt>
      <trkpt lat="38.3661950" lon="-0.6558440">
        <ele>309.1</ele>
        <time>2017-12-18T14:52:01Z</time>
      </trkpt>
      <trkpt lat="38.3662060" lon="-0.6558450">
        <ele>310.1</ele>
        <time>2017-12-18T14:52:02Z</time>
      </trkpt>
      <trkpt lat="38.3662160" lon="-0.6558510">
        <ele>310.1</ele>
        <time>2017-12-18T14:52:03Z</time>
      </trkpt>
      <trkpt lat="38.3662260" lon="-0.6558650">
        <ele>310.1</ele>
        <time>2017-12-18T14:52:04Z</time>
      </trkpt>
      <trkpt lat="38.3662320" lon="-0.6558850">
        <ele>310.1</ele>
        <time>2017-12-18T14:52:05Z</time>
      </trkpt>
      <trkpt lat="38.3662400" lon="-0.6559100">
        <ele>310.1</ele>
        <time>2017-12-18T14:52:06Z</time>
      </trkpt>
      <trkpt lat="38.3662470" lon="-0.6559430">
        <ele>310.1</ele>
        <time>2017-12-18T14:52:07Z</time>
      </trkpt>
      <trkpt lat="38.3662590" lon="-0.6559780">
        <ele>310.1</ele>
        <time>2017-12-18T14:52:08Z</time>
      </trkpt>
      <trkpt lat="38.3662760" lon="-0.6560200">
        <ele>310.1</ele>
        <time>2017-12-18T14:52:09Z</time>
      </trkpt>
      <trkpt lat="38.3663020" lon="-0.6560620">
        <ele>310.1</ele>
        <time>2017-12-18T14:52:10Z</time>
      </trkpt>
      <trkpt lat="38.3663420" lon="-0.6561050">
        <ele>310.1</ele>
        <time>2017-12-18T14:52:11Z</time>
      </trkpt>
      <trkpt lat="38.3663850" lon="-0.6561600">
        <ele>309.1</ele>
        <time>2017-12-18T14:52:12Z</time>
      </trkpt>
      <trkpt lat="38.3664220" lon="-0.6562260">
        <ele>309.1</ele>
        <time>2017-12-18T14:52:13Z</time>
      </trkpt>
      <trkpt lat="38.3664590" lon="-0.6562960">
        <ele>309.1</ele>
        <time>2017-12-18T14:52:14Z</time>
      </trkpt>
      <trkpt lat="38.3665000" lon="-0.6563720">
        <ele>309.1</ele>
        <time>2017-12-18T14:52:15Z</time>
      </trkpt>
      <trkpt lat="38.3665360" lon="-0.6564410">
        <ele>309.1</ele>
        <time>2017-12-18T14:52:16Z</time>
      </trkpt>
      <trkpt lat="38.3665810" lon="-0.6564860">
        <ele>309.1</ele>
        <time>2017-12-18T14:52:17Z</time>
      </trkpt>
      <trkpt lat="38.3666250" lon="-0.6565020">
        <ele>306.2</ele>
        <time>2017-12-18T14:52:18Z</time>
      </trkpt>
      <trkpt lat="38.3666740" lon="-0.6565120">
        <ele>306.2</ele>
        <time>2017-12-18T14:52:19Z</time>
      </trkpt>
      <trkpt lat="38.3667180" lon="-0.6565390">
        <ele>305.1</ele>
        <time>2017-12-18T14:52:20Z</time>
      </trkpt>
      <trkpt lat="38.3667500" lon="-0.6565740">
        <ele>305.1</ele>
        <time>2017-12-18T14:52:21Z</time>
      </trkpt>
      <trkpt lat="38.3667760" lon="-0.6566040">
        <ele>305.1</ele>
        <time>2017-12-18T14:52:22Z</time>
      </trkpt>
      <trkpt lat="38.3667950" lon="-0.6566300">
        <ele>305.1</ele>
        <time>2017-12-18T14:52:23Z</time>
      </trkpt>
      <trkpt lat="38.3668190" lon="-0.6566590">
        <ele>305.1</ele>
        <time>2017-12-18T14:52:24Z</time>
      </trkpt>
      <trkpt lat="38.3668430" lon="-0.6566850">
        <ele>305.1</ele>
        <time>2017-12-18T14:52:25Z</time>
      </trkpt>
      <trkpt lat="38.3668710" lon="-0.6567110">
        <ele>305.1</ele>
        <time>2017-12-18T14:52:26Z</time>
      </trkpt>
      <trkpt lat="38.3668950" lon="-0.6567450">
        <ele>305.1</ele>
        <time>2017-12-18T14:52:27Z</time>
      </trkpt>
      <trkpt lat="38.3669150" lon="-0.6567790">
        <ele>305.1</ele>
        <time>2017-12-18T14:52:28Z</time>
      </trkpt>
      <trkpt lat="38.3669360" lon="-0.6568100">
        <ele>305.1</ele>
        <time>2017-12-18T14:52:29Z</time>
      </trkpt>
      <trkpt lat="38.3669610" lon="-0.6568370">
        <ele>305.1</ele>
        <time>2017-12-18T14:52:30Z</time>
      </trkpt>
      <trkpt lat="38.3669900" lon="-0.6568640">
        <ele>305.1</ele>
        <time>2017-12-18T14:52:31Z</time>
      </trkpt>
      <trkpt lat="38.3670170" lon="-0.6568960">
        <ele>305.1</ele>
        <time>2017-12-18T14:52:32Z</time>
      </trkpt>
      <trkpt lat="38.3670440" lon="-0.6569330">
        <ele>305.1</ele>
        <time>2017-12-18T14:52:33Z</time>
      </trkpt>
      <trkpt lat="38.3670670" lon="-0.6569780">
        <ele>308.2</ele>
        <time>2017-12-18T14:52:34Z</time>
      </trkpt>
      <trkpt lat="38.3670930" lon="-0.6570250">
        <ele>308.2</ele>
        <time>2017-12-18T14:52:35Z</time>
      </trkpt>
      <trkpt lat="38.3671130" lon="-0.6570790">
        <ele>308.2</ele>
        <time>2017-12-18T14:52:36Z</time>
      </trkpt>
      <trkpt lat="38.3671260" lon="-0.6571380">
        <ele>308.2</ele>
        <time>2017-12-18T14:52:37Z</time>
      </trkpt>
      <trkpt lat="38.3671380" lon="-0.6571970">
        <ele>308.2</ele>
        <time>2017-12-18T14:52:38Z</time>
      </trkpt>
      <trkpt lat="38.3671490" lon="-0.6572510">
        <ele>308.2</ele>
        <time>2017-12-18T14:52:39Z</time>
      </trkpt>
      <trkpt lat="38.3671760" lon="-0.6572950">
        <ele>308.2</ele>
        <time>2017-12-18T14:52:40Z</time>
      </trkpt>
      <trkpt lat="38.3672030" lon="-0.6573380">
        <ele>308.2</ele>
        <time>2017-12-18T14:52:41Z</time>
      </trkpt>
      <trkpt lat="38.3672370" lon="-0.6573890">
        <ele>308.2</ele>
        <time>2017-12-18T14:52:42Z</time>
      </trkpt>
      <trkpt lat="38.3672860" lon="-0.6574360">
        <ele>308.2</ele>
        <time>2017-12-18T14:52:43Z</time>
      </trkpt>
      <trkpt lat="38.3673300" lon="-0.6574770">
        <ele>308.2</ele>
        <time>2017-12-18T14:52:44Z</time>
      </trkpt>
      <trkpt lat="38.3673720" lon="-0.6575210">
        <ele>308.2</ele>
        <time>2017-12-18T14:52:45Z</time>
      </trkpt>
      <trkpt lat="38.3674090" lon="-0.6575680">
        <ele>308.2</ele>
        <time>2017-12-18T14:52:46Z</time>
      </trkpt>
      <trkpt lat="38.3674440" lon="-0.6576160">
        <ele>308.2</ele>
        <time>2017-12-18T14:52:47Z</time>
      </trkpt>
      <trkpt lat="38.3674710" lon="-0.6576690">
        <ele>308.2</ele>
        <time>2017-12-18T14:52:48Z</time>
      </trkpt>
      <trkpt lat="38.3674900" lon="-0.6577220">
        <ele>308.2</ele>
        <time>2017-12-18T14:52:49Z</time>
      </trkpt>
      <trkpt lat="38.3674930" lon="-0.6577720">
        <ele>309.1</ele>
        <time>2017-12-18T14:52:50Z</time>
      </trkpt>
      <trkpt lat="38.3674920" lon="-0.6578130">
        <ele>309.1</ele>
        <time>2017-12-18T14:52:51Z</time>
      </trkpt>
      <trkpt lat="38.3674920" lon="-0.6578560">
        <ele>310.1</ele>
        <time>2017-12-18T14:52:52Z</time>
      </trkpt>
      <trkpt lat="38.3674980" lon="-0.6578980">
        <ele>310.1</ele>
        <time>2017-12-18T14:52:53Z</time>
      </trkpt>
      <trkpt lat="38.3675050" lon="-0.6579370">
        <ele>311.2</ele>
        <time>2017-12-18T14:52:54Z</time>
      </trkpt>
      <trkpt lat="38.3675100" lon="-0.6579810">
        <ele>311.2</ele>
        <time>2017-12-18T14:52:55Z</time>
      </trkpt>
      <trkpt lat="38.3675170" lon="-0.6580270">
        <ele>311.2</ele>
        <time>2017-12-18T14:52:56Z</time>
      </trkpt>
      <trkpt lat="38.3675250" lon="-0.6580750">
        <ele>311.2</ele>
        <time>2017-12-18T14:52:57Z</time>
      </trkpt>
      <trkpt lat="38.3675330" lon="-0.6581240">
        <ele>312.1</ele>
        <time>2017-12-18T14:52:58Z</time>
      </trkpt>
      <trkpt lat="38.3675440" lon="-0.6581740">
        <ele>312.1</ele>
        <time>2017-12-18T14:52:59Z</time>
      </trkpt>
      <trkpt lat="38.3675610" lon="-0.6582200">
        <ele>312.1</ele>
        <time>2017-12-18T14:53:00Z</time>
      </trkpt>
      <trkpt lat="38.3675930" lon="-0.6582650">
        <ele>312.1</ele>
        <time>2017-12-18T14:53:01Z</time>
      </trkpt>
      <trkpt lat="38.3676340" lon="-0.6583120">
        <ele>312.1</ele>
        <time>2017-12-18T14:53:02Z</time>
      </trkpt>
      <trkpt lat="38.3676720" lon="-0.6583450">
        <ele>312.1</ele>
        <time>2017-12-18T14:53:03Z</time>
      </trkpt>
      <trkpt lat="38.3677150" lon="-0.6583710">
        <ele>311.2</ele>
        <time>2017-12-18T14:53:04Z</time>
      </trkpt>
      <trkpt lat="38.3677650" lon="-0.6584110">
        <ele>311.2</ele>
        <time>2017-12-18T14:53:05Z</time>
      </trkpt>
      <trkpt lat="38.3678110" lon="-0.6584680">
        <ele>310.1</ele>
        <time>2017-12-18T14:53:06Z</time>
      </trkpt>
      <trkpt lat="38.3678570" lon="-0.6585260">
        <ele>310.1</ele>
        <time>2017-12-18T14:53:07Z</time>
      </trkpt>
      <trkpt lat="38.3679140" lon="-0.6585680">
        <ele>308.2</ele>
        <time>2017-12-18T14:53:08Z</time>
      </trkpt>
      <trkpt lat="38.3679750" lon="-0.6586170">
        <ele>308.2</ele>
        <time>2017-12-18T14:53:09Z</time>
      </trkpt>
      <trkpt lat="38.3680180" lon="-0.6586870">
        <ele>307.1</ele>
        <time>2017-12-18T14:53:10Z</time>
      </trkpt>
      <trkpt lat="38.3680430" lon="-0.6587660">
        <ele>307.1</ele>
        <time>2017-12-18T14:53:11Z</time>
      </trkpt>
      <trkpt lat="38.3680710" lon="-0.6588450">
        <ele>306.2</ele>
        <time>2017-12-18T14:53:12Z</time>
      </trkpt>
      <trkpt lat="38.3681010" lon="-0.6589200">
        <ele>306.2</ele>
        <time>2017-12-18T14:53:13Z</time>
      </trkpt>
      <trkpt lat="38.3681430" lon="-0.6589830">
        <ele>306.2</ele>
        <time>2017-12-18T14:53:14Z</time>
      </trkpt>
      <trkpt lat="38.3681900" lon="-0.6590290">
        <ele>306.2</ele>
        <time>2017-12-18T14:53:15Z</time>
      </trkpt>
      <trkpt lat="38.3682310" lon="-0.6590660">
        <ele>306.2</ele>
        <time>2017-12-18T14:53:16Z</time>
      </trkpt>
      <trkpt lat="38.3682770" lon="-0.6590910">
        <ele>306.2</ele>
        <time>2017-12-18T14:53:17Z</time>
      </trkpt>
      <trkpt lat="38.3683210" lon="-0.6591100">
        <ele>306.2</ele>
        <time>2017-12-18T14:53:18Z</time>
      </trkpt>
      <trkpt lat="38.3683570" lon="-0.6591310">
        <ele>306.2</ele>
        <time>2017-12-18T14:53:19Z</time>
      </trkpt>
      <trkpt lat="38.3683840" lon="-0.6591510">
        <ele>305.1</ele>
        <time>2017-12-18T14:53:20Z</time>
      </trkpt>
      <trkpt lat="38.3684110" lon="-0.6591620">
        <ele>305.1</ele>
        <time>2017-12-18T14:53:21Z</time>
      </trkpt>
      <trkpt lat="38.3684380" lon="-0.6591520">
        <ele>305.1</ele>
        <time>2017-12-18T14:53:22Z</time>
      </trkpt>
      <trkpt lat="38.3684690" lon="-0.6591210">
        <ele>305.1</ele>
        <time>2017-12-18T14:53:23Z</time>
      </trkpt>
      <trkpt lat="38.3685050" lon="-0.6591160">
        <ele>305.1</ele>
        <time>2017-12-18T14:53:24Z</time>
      </trkpt>
      <trkpt lat="38.3685250" lon="-0.6591280">
        <ele>305.1</ele>
        <time>2017-12-18T14:53:25Z</time>
      </trkpt>
      <trkpt lat="38.3685410" lon="-0.6591400">
        <ele>305.1</ele>
        <time>2017-12-18T14:53:26Z</time>
      </trkpt>
      <trkpt lat="38.3685550" lon="-0.6591440">
        <ele>305.1</ele>
        <time>2017-12-18T14:53:27Z</time>
      </trkpt>
      <trkpt lat="38.3685760" lon="-0.6591480">
        <ele>303.1</ele>
        <time>2017-12-18T14:53:28Z</time>
      </trkpt>
      <trkpt lat="38.3685990" lon="-0.6591520">
        <ele>303.1</ele>
        <time>2017-12-18T14:53:29Z</time>
      </trkpt>
      <trkpt lat="38.3686230" lon="-0.6591630">
        <ele>303.1</ele>
        <time>2017-12-18T14:53:30Z</time>
      </trkpt>
      <trkpt lat="38.3686440" lon="-0.6591880">
        <ele>303.1</ele>
        <time>2017-12-18T14:53:31Z</time>
      </trkpt>
      <trkpt lat="38.3686650" lon="-0.6592110">
        <ele>303.1</ele>
        <time>2017-12-18T14:53:32Z</time>
      </trkpt>
      <trkpt lat="38.3686930" lon="-0.6592310">
        <ele>303.1</ele>
        <time>2017-12-18T14:53:33Z</time>
      </trkpt>
      <trkpt lat="38.3687220" lon="-0.6592420">
        <ele>304.2</ele>
        <time>2017-12-18T14:53:34Z</time>
      </trkpt>
      <trkpt lat="38.3687400" lon="-0.6592620">
        <ele>304.2</ele>
        <time>2017-12-18T14:53:35Z</time>
      </trkpt>
      <trkpt lat="38.3687580" lon="-0.6592880">
        <ele>305.1</ele>
        <time>2017-12-18T14:53:36Z</time>
      </trkpt>
      <trkpt lat="38.3687750" lon="-0.6593190">
        <ele>305.1</ele>
        <time>2017-12-18T14:53:37Z</time>
      </trkpt>
      <trkpt lat="38.3687870" lon="-0.6593510">
        <ele>306.2</ele>
        <time>2017-12-18T14:53:38Z</time>
      </trkpt>
      <trkpt lat="38.3688000" lon="-0.6593830">
        <ele>306.2</ele>
        <time>2017-12-18T14:53:39Z</time>
      </trkpt>
      <trkpt lat="38.3688130" lon="-0.6594070">
        <ele>307.1</ele>
        <time>2017-12-18T14:53:40Z</time>
      </trkpt>
      <trkpt lat="38.3688230" lon="-0.6594350">
        <ele>307.1</ele>
        <time>2017-12-18T14:53:41Z</time>
      </trkpt>
      <trkpt lat="38.3688320" lon="-0.6594680">
        <ele>307.1</ele>
        <time>2017-12-18T14:53:42Z</time>
      </trkpt>
      <trkpt lat="38.3688380" lon="-0.6594980">
        <ele>307.1</ele>
        <time>2017-12-18T14:53:43Z</time>
      </trkpt>
      <trkpt lat="38.3688400" lon="-0.6595280">
        <ele>308.2</ele>
        <time>2017-12-18T14:53:44Z</time>
      </trkpt>
      <trkpt lat="38.3688440" lon="-0.6595540">
        <ele>308.2</ele>
        <time>2017-12-18T14:53:45Z</time>
      </trkpt>
      <trkpt lat="38.3688520" lon="-0.6595810">
        <ele>309.1</ele>
        <time>2017-12-18T14:53:46Z</time>
      </trkpt>
      <trkpt lat="38.3688630" lon="-0.6596080">
        <ele>309.1</ele>
        <time>2017-12-18T14:53:47Z</time>
      </trkpt>
      <trkpt lat="38.3688760" lon="-0.6596370">
        <ele>309.1</ele>
        <time>2017-12-18T14:53:48Z</time>
      </trkpt>
      <trkpt lat="38.3688930" lon="-0.6596690">
        <ele>309.1</ele>
        <time>2017-12-18T14:53:49Z</time>
      </trkpt>
      <trkpt lat="38.3689120" lon="-0.6597030">
        <ele>309.1</ele>
        <time>2017-12-18T14:53:50Z</time>
      </trkpt>
      <trkpt lat="38.3689360" lon="-0.6597410">
        <ele>309.1</ele>
        <time>2017-12-18T14:53:51Z</time>
      </trkpt>
      <trkpt lat="38.3689640" lon="-0.6597840">
        <ele>309.1</ele>
        <time>2017-12-18T14:53:52Z</time>
      </trkpt>
      <trkpt lat="38.3689970" lon="-0.6598280">
        <ele>309.1</ele>
        <time>2017-12-18T14:53:53Z</time>
      </trkpt>
      <trkpt lat="38.3690310" lon="-0.6598830">
        <ele>309.1</ele>
        <time>2017-12-18T14:53:54Z</time>
      </trkpt>
      <trkpt lat="38.3690710" lon="-0.6599420">
        <ele>309.1</ele>
        <time>2017-12-18T14:53:55Z</time>
      </trkpt>
      <trkpt lat="38.3691160" lon="-0.6599980">
        <ele>308.2</ele>
        <time>2017-12-18T14:53:56Z</time>
      </trkpt>
      <trkpt lat="38.3691660" lon="-0.6600550">
        <ele>308.2</ele>
        <time>2017-12-18T14:53:57Z</time>
      </trkpt>
      <trkpt lat="38.3692120" lon="-0.6601220">
        <ele>307.1</ele>
        <time>2017-12-18T14:53:58Z</time>
      </trkpt>
      <trkpt lat="38.3692510" lon="-0.6601960">
        <ele>307.1</ele>
        <time>2017-12-18T14:53:59Z</time>
      </trkpt>
      <trkpt lat="38.3692720" lon="-0.6602840">
        <ele>306.2</ele>
        <time>2017-12-18T14:54:00Z</time>
      </trkpt>
      <trkpt lat="38.3692960" lon="-0.6603700">
        <ele>306.2</ele>
        <time>2017-12-18T14:54:01Z</time>
      </trkpt>
      <trkpt lat="38.3693260" lon="-0.6604530">
        <ele>305.1</ele>
        <time>2017-12-18T14:54:02Z</time>
      </trkpt>
      <trkpt lat="38.3693580" lon="-0.6605240">
        <ele>305.1</ele>
        <time>2017-12-18T14:54:03Z</time>
      </trkpt>
      <trkpt lat="38.3693920" lon="-0.6605800">
        <ele>305.1</ele>
        <time>2017-12-18T14:54:04Z</time>
      </trkpt>
      <trkpt lat="38.3694140" lon="-0.6606420">
        <ele>305.1</ele>
        <time>2017-12-18T14:54:05Z</time>
      </trkpt>
      <trkpt lat="38.3694220" lon="-0.6606910">
        <ele>304.2</ele>
        <time>2017-12-18T14:54:06Z</time>
      </trkpt>
      <trkpt lat="38.3694350" lon="-0.6607270">
        <ele>304.2</ele>
        <time>2017-12-18T14:54:07Z</time>
      </trkpt>
      <trkpt lat="38.3694520" lon="-0.6607600">
        <ele>304.2</ele>
        <time>2017-12-18T14:54:08Z</time>
      </trkpt>
      <trkpt lat="38.3694690" lon="-0.6607900">
        <ele>304.2</ele>
        <time>2017-12-18T14:54:09Z</time>
      </trkpt>
      <trkpt lat="38.3694840" lon="-0.6608220">
        <ele>304.2</ele>
        <time>2017-12-18T14:54:10Z</time>
      </trkpt>
      <trkpt lat="38.3695010" lon="-0.6608570">
        <ele>304.2</ele>
        <time>2017-12-18T14:54:11Z</time>
      </trkpt>
      <trkpt lat="38.3695220" lon="-0.6608950">
        <ele>304.2</ele>
        <time>2017-12-18T14:54:12Z</time>
      </trkpt>
      <trkpt lat="38.3695370" lon="-0.6609340">
        <ele>304.2</ele>
        <time>2017-12-18T14:54:13Z</time>
      </trkpt>
      <trkpt lat="38.3695460" lon="-0.6609710">
        <ele>304.2</ele>
        <time>2017-12-18T14:54:14Z</time>
      </trkpt>
      <trkpt lat="38.3695460" lon="-0.6610060">
        <ele>304.2</ele>
        <time>2017-12-18T14:54:15Z</time>
      </trkpt>
      <trkpt lat="38.3695510" lon="-0.6610390">
        <ele>305.1</ele>
        <time>2017-12-18T14:54:16Z</time>
      </trkpt>
      <trkpt lat="38.3695490" lon="-0.6610700">
        <ele>305.1</ele>
        <time>2017-12-18T14:54:17Z</time>
      </trkpt>
      <trkpt lat="38.3695490" lon="-0.6610990">
        <ele>305.1</ele>
        <time>2017-12-18T14:54:18Z</time>
      </trkpt>
      <trkpt lat="38.3695530" lon="-0.6611250">
        <ele>305.1</ele>
        <time>2017-12-18T14:54:19Z</time>
      </trkpt>
      <trkpt lat="38.3695530" lon="-0.6611520">
        <ele>306.2</ele>
        <time>2017-12-18T14:54:20Z</time>
      </trkpt>
      <trkpt lat="38.3695560" lon="-0.6611830">
        <ele>306.2</ele>
        <time>2017-12-18T14:54:21Z</time>
      </trkpt>
      <trkpt lat="38.3695610" lon="-0.6612120">
        <ele>306.2</ele>
        <time>2017-12-18T14:54:22Z</time>
      </trkpt>
      <trkpt lat="38.3695680" lon="-0.6612370">
        <ele>306.2</ele>
        <time>2017-12-18T14:54:23Z</time>
      </trkpt>
      <trkpt lat="38.3695710" lon="-0.6612590">
        <ele>306.2</ele>
        <time>2017-12-18T14:54:24Z</time>
      </trkpt>
      <trkpt lat="38.3695740" lon="-0.6612830">
        <ele>306.2</ele>
        <time>2017-12-18T14:54:25Z</time>
      </trkpt>
      <trkpt lat="38.3695790" lon="-0.6613080">
        <ele>306.2</ele>
        <time>2017-12-18T14:54:26Z</time>
      </trkpt>
      <trkpt lat="38.3695840" lon="-0.6613310">
        <ele>306.2</ele>
        <time>2017-12-18T14:54:27Z</time>
      </trkpt>
      <trkpt lat="38.3695910" lon="-0.6613560">
        <ele>308.2</ele>
        <time>2017-12-18T14:54:28Z</time>
      </trkpt>
      <trkpt lat="38.3696000" lon="-0.6613810">
        <ele>308.2</ele>
        <time>2017-12-18T14:54:29Z</time>
      </trkpt>
      <trkpt lat="38.3696110" lon="-0.6614100">
        <ele>308.2</ele>
        <time>2017-12-18T14:54:30Z</time>
      </trkpt>
      <trkpt lat="38.3696200" lon="-0.6614460">
        <ele>308.2</ele>
        <time>2017-12-18T14:54:31Z</time>
      </trkpt>
      <trkpt lat="38.3696300" lon="-0.6614730">
        <ele>308.2</ele>
        <time>2017-12-18T14:54:32Z</time>
      </trkpt>
      <trkpt lat="38.3696330" lon="-0.6614970">
        <ele>308.2</ele>
        <time>2017-12-18T14:54:33Z</time>
      </trkpt>
      <trkpt lat="38.3696300" lon="-0.6615140">
        <ele>308.2</ele>
        <time>2017-12-18T14:54:34Z</time>
      </trkpt>
      <trkpt lat="38.3696390" lon="-0.6615150">
        <ele>308.2</ele>
        <time>2017-12-18T14:54:35Z</time>
      </trkpt>
      <trkpt lat="38.3696390" lon="-0.6615260">
        <ele>308.2</ele>
        <time>2017-12-18T14:54:36Z</time>
      </trkpt>
      <trkpt lat="38.3696370" lon="-0.6615400">
        <ele>308.2</ele>
        <time>2017-12-18T14:54:37Z</time>
      </trkpt>
      <trkpt lat="38.3696330" lon="-0.6615540">
        <ele>308.2</ele>
        <time>2017-12-18T14:54:38Z</time>
      </trkpt>
      <trkpt lat="38.3696440" lon="-0.6615710">
        <ele>308.2</ele>
        <time>2017-12-18T14:54:39Z</time>
      </trkpt>
      <trkpt lat="38.3696530" lon="-0.6615850">
        <ele>311.2</ele>
        <time>2017-12-18T14:54:40Z</time>
      </trkpt>
      <trkpt lat="38.3696560" lon="-0.6615970">
        <ele>311.2</ele>
        <time>2017-12-18T14:54:41Z</time>
      </trkpt>
      <trkpt lat="38.3696560" lon="-0.6616080">
        <ele>311.2</ele>
        <time>2017-12-18T14:54:42Z</time>
      </trkpt>
      <trkpt lat="38.3696570" lon="-0.6616190">
        <ele>311.2</ele>
        <time>2017-12-18T14:54:43Z</time>
      </trkpt>
      <trkpt lat="38.3696580" lon="-0.6616350">
        <ele>311.2</ele>
        <time>2017-12-18T14:54:44Z</time>
      </trkpt>
      <trkpt lat="38.3696570" lon="-0.6616440">
        <ele>311.2</ele>
        <time>2017-12-18T14:54:45Z</time>
      </trkpt>
      <trkpt lat="38.3696540" lon="-0.6616550">
        <ele>312.1</ele>
        <time>2017-12-18T14:54:46Z</time>
      </trkpt>
      <trkpt lat="38.3696490" lon="-0.6616620">
        <ele>312.1</ele>
        <time>2017-12-18T14:54:47Z</time>
      </trkpt>
      <trkpt lat="38.3696440" lon="-0.6616670">
        <ele>312.1</ele>
        <time>2017-12-18T14:54:48Z</time>
      </trkpt>
      <trkpt lat="38.3696400" lon="-0.6616700">
        <ele>312.1</ele>
        <time>2017-12-18T14:54:49Z</time>
      </trkpt>
      <trkpt lat="38.3696360" lon="-0.6616790">
        <ele>312.1</ele>
        <time>2017-12-18T14:54:50Z</time>
      </trkpt>
      <trkpt lat="38.3696360" lon="-0.6616870">
        <ele>312.1</ele>
        <time>2017-12-18T14:54:51Z</time>
      </trkpt>
      <trkpt lat="38.3696340" lon="-0.6616960">
        <ele>313.2</ele>
        <time>2017-12-18T14:54:52Z</time>
      </trkpt>
      <trkpt lat="38.3696320" lon="-0.6617060">
        <ele>313.2</ele>
        <time>2017-12-18T14:54:53Z</time>
      </trkpt>
      <trkpt lat="38.3696320" lon="-0.6617130">
        <ele>313.2</ele>
        <time>2017-12-18T14:54:54Z</time>
      </trkpt>
      <trkpt lat="38.3696330" lon="-0.6617220">
        <ele>313.2</ele>
        <time>2017-12-18T14:54:55Z</time>
      </trkpt>
      <trkpt lat="38.3696330" lon="-0.6617280">
        <ele>314.1</ele>
        <time>2017-12-18T14:54:56Z</time>
      </trkpt>
      <trkpt lat="38.3696350" lon="-0.6617420">
        <ele>314.1</ele>
        <time>2017-12-18T14:54:57Z</time>
      </trkpt>
      <trkpt lat="38.3696390" lon="-0.6617550">
        <ele>314.1</ele>
        <time>2017-12-18T14:54:58Z</time>
      </trkpt>
      <trkpt lat="38.3696430" lon="-0.6617680">
        <ele>314.1</ele>
        <time>2017-12-18T14:54:59Z</time>
      </trkpt>
      <trkpt lat="38.3696470" lon="-0.6617820">
        <ele>315.2</ele>
        <time>2017-12-18T14:55:00Z</time>
      </trkpt>
      <trkpt lat="38.3696510" lon="-0.6617960">
        <ele>315.2</ele>
        <time>2017-12-18T14:55:01Z</time>
      </trkpt>
      <trkpt lat="38.3696550" lon="-0.6618110">
        <ele>315.2</ele>
        <time>2017-12-18T14:55:02Z</time>
      </trkpt>
      <trkpt lat="38.3696590" lon="-0.6618230">
        <ele>315.2</ele>
        <time>2017-12-18T14:55:03Z</time>
      </trkpt>
      <trkpt lat="38.3696630" lon="-0.6618360">
        <ele>315.2</ele>
        <time>2017-12-18T14:55:04Z</time>
      </trkpt>
      <trkpt lat="38.3696660" lon="-0.6618470">
        <ele>315.2</ele>
        <time>2017-12-18T14:55:05Z</time>
      </trkpt>
      <trkpt lat="38.3696690" lon="-0.6618550">
        <ele>316.1</ele>
        <time>2017-12-18T14:55:06Z</time>
      </trkpt>
      <trkpt lat="38.3696700" lon="-0.6618620">
        <ele>316.1</ele>
        <time>2017-12-18T14:55:07Z</time>
      </trkpt>
      <trkpt lat="38.3696720" lon="-0.6618630">
        <ele>316.1</ele>
        <time>2017-12-18T14:55:08Z</time>
      </trkpt>
      <trkpt lat="38.3696740" lon="-0.6618690">
        <ele>316.1</ele>
        <time>2017-12-18T14:55:09Z</time>
      </trkpt>
      <trkpt lat="38.3696770" lon="-0.6618780">
        <ele>317.1</ele>
        <time>2017-12-18T14:55:10Z</time>
      </trkpt>
      <trkpt lat="38.3696780" lon="-0.6618880">
        <ele>317.1</ele>
        <time>2017-12-18T14:55:11Z</time>
      </trkpt>
      <trkpt lat="38.3696790" lon="-0.6618930">
        <ele>317.1</ele>
        <time>2017-12-18T14:55:12Z</time>
      </trkpt>
      <trkpt lat="38.3696790" lon="-0.6618980">
        <ele>317.1</ele>
        <time>2017-12-18T14:55:13Z</time>
      </trkpt>
      <trkpt lat="38.3696800" lon="-0.6619030">
        <ele>318.2</ele>
        <time>2017-12-18T14:55:14Z</time>
      </trkpt>
      <trkpt lat="38.3696810" lon="-0.6619100">
        <ele>318.2</ele>
        <time>2017-12-18T14:55:15Z</time>
      </trkpt>
      <trkpt lat="38.3696800" lon="-0.6619140">
        <ele>318.2</ele>
        <time>2017-12-18T14:55:16Z</time>
      </trkpt>
      <trkpt lat="38.3696810" lon="-0.6619230">
        <ele>318.2</ele>
        <time>2017-12-18T14:55:17Z</time>
      </trkpt>
      <trkpt lat="38.3696820" lon="-0.6619330">
        <ele>318.2</ele>
        <time>2017-12-18T14:55:18Z</time>
      </trkpt>
      <trkpt lat="38.3696830" lon="-0.6619400">
        <ele>318.2</ele>
        <time>2017-12-18T14:55:19Z</time>
      </trkpt>
      <trkpt lat="38.3696850" lon="-0.6619490">
        <ele>319.1</ele>
        <time>2017-12-18T14:55:20Z</time>
      </trkpt>
      <trkpt lat="38.3696860" lon="-0.6619560">
        <ele>319.1</ele>
        <time>2017-12-18T14:55:21Z</time>
      </trkpt>
      <trkpt lat="38.3696860" lon="-0.6619590">
        <ele>319.1</ele>
        <time>2017-12-18T14:55:22Z</time>
      </trkpt>
      <trkpt lat="38.3696890" lon="-0.6619720">
        <ele>319.1</ele>
        <time>2017-12-18T14:55:23Z</time>
      </trkpt>
      <trkpt lat="38.3696920" lon="-0.6619830">
        <ele>320.2</ele>
        <time>2017-12-18T14:55:24Z</time>
      </trkpt>
      <trkpt lat="38.3696930" lon="-0.6619930">
        <ele>320.2</ele>
        <time>2017-12-18T14:55:25Z</time>
      </trkpt>
      <trkpt lat="38.3696940" lon="-0.6620030">
        <ele>320.2</ele>
        <time>2017-12-18T14:55:26Z</time>
      </trkpt>
      <trkpt lat="38.3696970" lon="-0.6620100">
        <ele>320.2</ele>
        <time>2017-12-18T14:55:27Z</time>
      </trkpt>
      <trkpt lat="38.3696990" lon="-0.6620160">
        <ele>320.2</ele>
        <time>2017-12-18T14:55:28Z</time>
      </trkpt>
      <trkpt lat="38.3697050" lon="-0.6620250">
        <ele>320.2</ele>
        <time>2017-12-18T14:55:29Z</time>
      </trkpt>
      <trkpt lat="38.3697110" lon="-0.6620370">
        <ele>321.1</ele>
        <time>2017-12-18T14:55:30Z</time>
      </trkpt>
      <trkpt lat="38.3697140" lon="-0.6620460">
        <ele>321.1</ele>
        <time>2017-12-18T14:55:31Z</time>
      </trkpt>
      <trkpt lat="38.3697180" lon="-0.6620580">
        <ele>321.1</ele>
        <time>2017-12-18T14:55:32Z</time>
      </trkpt>
      <trkpt lat="38.3697190" lon="-0.6620690">
        <ele>321.1</ele>
        <time>2017-12-18T14:55:33Z</time>
      </trkpt>
      <trkpt lat="38.3697210" lon="-0.6620800">
        <ele>321.1</ele>
        <time>2017-12-18T14:55:34Z</time>
      </trkpt>
      <trkpt lat="38.3697250" lon="-0.6620890">
        <ele>321.1</ele>
        <time>2017-12-18T14:55:35Z</time>
      </trkpt>
      <trkpt lat="38.3697260" lon="-0.6620990">
        <ele>321.1</ele>
        <time>2017-12-18T14:55:36Z</time>
      </trkpt>
      <trkpt lat="38.3697270" lon="-0.6621100">
        <ele>321.1</ele>
        <time>2017-12-18T14:55:37Z</time>
      </trkpt>
      <trkpt lat="38.3697300" lon="-0.6621190">
        <ele>321.1</ele>
        <time>2017-12-18T14:55:38Z</time>
      </trkpt>
      <trkpt lat="38.3697300" lon="-0.6621280">
        <ele>321.1</ele>
        <time>2017-12-18T14:55:39Z</time>
      </trkpt>
      <trkpt lat="38.3697310" lon="-0.6621390">
        <ele>321.1</ele>
        <time>2017-12-18T14:55:40Z</time>
      </trkpt>
      <trkpt lat="38.3697330" lon="-0.6621490">
        <ele>321.1</ele>
        <time>2017-12-18T14:55:41Z</time>
      </trkpt>
      <trkpt lat="38.3697340" lon="-0.6621580">
        <ele>322.2</ele>
        <time>2017-12-18T14:55:42Z</time>
      </trkpt>
      <trkpt lat="38.3697340" lon="-0.6621690">
        <ele>322.2</ele>
        <time>2017-12-18T14:55:43Z</time>
      </trkpt>
      <trkpt lat="38.3697370" lon="-0.6621800">
        <ele>322.2</ele>
        <time>2017-12-18T14:55:44Z</time>
      </trkpt>
      <trkpt lat="38.3697390" lon="-0.6621850">
        <ele>322.2</ele>
        <time>2017-12-18T14:55:45Z</time>
      </trkpt>
      <trkpt lat="38.3697430" lon="-0.6621940">
        <ele>322.2</ele>
        <time>2017-12-18T14:55:46Z</time>
      </trkpt>
      <trkpt lat="38.3697510" lon="-0.6622020">
        <ele>322.2</ele>
        <time>2017-12-18T14:55:47Z</time>
      </trkpt>
      <trkpt lat="38.3697580" lon="-0.6622060">
        <ele>323.1</ele>
        <time>2017-12-18T14:55:48Z</time>
      </trkpt>
      <trkpt lat="38.3697690" lon="-0.6622100">
        <ele>323.1</ele>
        <time>2017-12-18T14:55:49Z</time>
      </trkpt>
      <trkpt lat="38.3697870" lon="-0.6622130">
        <ele>323.1</ele>
        <time>2017-12-18T14:55:50Z</time>
      </trkpt>
      <trkpt lat="38.3698010" lon="-0.6622150">
        <ele>323.1</ele>
        <time>2017-12-18T14:55:51Z</time>
      </trkpt>
      <trkpt lat="38.3698060" lon="-0.6622160">
        <ele>323.1</ele>
        <time>2017-12-18T14:55:52Z</time>
      </trkpt>
      <trkpt lat="38.3698150" lon="-0.6622090">
        <ele>323.1</ele>
        <time>2017-12-18T14:55:53Z</time>
      </trkpt>
      <trkpt lat="38.3698250" lon="-0.6622070">
        <ele>324.2</ele>
        <time>2017-12-18T14:55:54Z</time>
      </trkpt>
      <trkpt lat="38.3698340" lon="-0.6622050">
        <ele>324.2</ele>
        <time>2017-12-18T14:55:55Z</time>
      </trkpt>
      <trkpt lat="38.3698410" lon="-0.6622050">
        <ele>324.2</ele>
        <time>2017-12-18T14:55:56Z</time>
      </trkpt>
      <trkpt lat="38.3698470" lon="-0.6622070">
        <ele>324.2</ele>
        <time>2017-12-18T14:55:57Z</time>
      </trkpt>
      <trkpt lat="38.3698480" lon="-0.6622080">
        <ele>325.1</ele>
        <time>2017-12-18T14:55:58Z</time>
      </trkpt>
      <trkpt lat="38.3698540" lon="-0.6622100">
        <ele>325.1</ele>
        <time>2017-12-18T14:55:59Z</time>
      </trkpt>
      <trkpt lat="38.3698560" lon="-0.6622110">
        <ele>325.1</ele>
        <time>2017-12-18T14:56:00Z</time>
      </trkpt>
      <trkpt lat="38.3698590" lon="-0.6622120">
        <ele>325.1</ele>
        <time>2017-12-18T14:56:01Z</time>
      </trkpt>
      <trkpt lat="38.3698620" lon="-0.6622100">
        <ele>325.1</ele>
        <time>2017-12-18T14:56:02Z</time>
      </trkpt>
      <trkpt lat="38.3698700" lon="-0.6622080">
        <ele>325.1</ele>
        <time>2017-12-18T14:56:03Z</time>
      </trkpt>
      <trkpt lat="38.3698750" lon="-0.6622050">
        <ele>326.1</ele>
        <time>2017-12-18T14:56:04Z</time>
      </trkpt>
      <trkpt lat="38.3698790" lon="-0.6622050">
        <ele>326.1</ele>
        <time>2017-12-18T14:56:05Z</time>
      </trkpt>
      <trkpt lat="38.3698840" lon="-0.6622040">
        <ele>326.1</ele>
        <time>2017-12-18T14:56:06Z</time>
      </trkpt>
      <trkpt lat="38.3698890" lon="-0.6622050">
        <ele>326.1</ele>
        <time>2017-12-18T14:56:07Z</time>
      </trkpt>
      <trkpt lat="38.3698940" lon="-0.6622060">
        <ele>326.1</ele>
        <time>2017-12-18T14:56:08Z</time>
      </trkpt>
      <trkpt lat="38.3698990" lon="-0.6622060">
        <ele>326.1</ele>
        <time>2017-12-18T14:56:09Z</time>
      </trkpt>
      <trkpt lat="38.3699050" lon="-0.6622070">
        <ele>327.2</ele>
        <time>2017-12-18T14:56:10Z</time>
      </trkpt>
      <trkpt lat="38.3699110" lon="-0.6622070">
        <ele>327.2</ele>
        <time>2017-12-18T14:56:11Z</time>
      </trkpt>
      <trkpt lat="38.3699170" lon="-0.6622080">
        <ele>327.2</ele>
        <time>2017-12-18T14:56:12Z</time>
      </trkpt>
      <trkpt lat="38.3699270" lon="-0.6622120">
        <ele>327.2</ele>
        <time>2017-12-18T14:56:13Z</time>
      </trkpt>
      <trkpt lat="38.3699450" lon="-0.6622190">
        <ele>327.2</ele>
        <time>2017-12-18T14:56:14Z</time>
      </trkpt>
      <trkpt lat="38.3699700" lon="-0.6622320">
        <ele>327.2</ele>
        <time>2017-12-18T14:56:15Z</time>
      </trkpt>
      <trkpt lat="38.3699930" lon="-0.6622540">
        <ele>327.2</ele>
        <time>2017-12-18T14:56:16Z</time>
      </trkpt>
      <trkpt lat="38.3700150" lon="-0.6622920">
        <ele>327.2</ele>
        <time>2017-12-18T14:56:17Z</time>
      </trkpt>
      <trkpt lat="38.3700360" lon="-0.6623340">
        <ele>326.1</ele>
        <time>2017-12-18T14:56:18Z</time>
      </trkpt>
      <trkpt lat="38.3700510" lon="-0.6623740">
        <ele>326.1</ele>
        <time>2017-12-18T14:56:19Z</time>
      </trkpt>
      <trkpt lat="38.3700590" lon="-0.6623980">
        <ele>326.1</ele>
        <time>2017-12-18T14:56:20Z</time>
      </trkpt>
      <trkpt lat="38.3700600" lon="-0.6624090">
        <ele>326.1</ele>
        <time>2017-12-18T14:56:21Z</time>
      </trkpt>
      <trkpt lat="38.3700610" lon="-0.6624200">
        <ele>326.1</ele>
        <time>2017-12-18T14:56:22Z</time>
      </trkpt>
      <trkpt lat="38.3700650" lon="-0.6624300">
        <ele>326.1</ele>
        <time>2017-12-18T14:56:23Z</time>
      </trkpt>
      <trkpt lat="38.3700660" lon="-0.6624440">
        <ele>326.1</ele>
        <time>2017-12-18T14:56:24Z</time>
      </trkpt>
      <trkpt lat="38.3700710" lon="-0.6624620">
        <ele>326.1</ele>
        <time>2017-12-18T14:56:25Z</time>
      </trkpt>
      <trkpt lat="38.3700790" lon="-0.6624830">
        <ele>326.1</ele>
        <time>2017-12-18T14:56:26Z</time>
      </trkpt>
      <trkpt lat="38.3700890" lon="-0.6625030">
        <ele>326.1</ele>
        <time>2017-12-18T14:56:27Z</time>
      </trkpt>
      <trkpt lat="38.3701010" lon="-0.6625230">
        <ele>326.1</ele>
        <time>2017-12-18T14:56:28Z</time>
      </trkpt>
      <trkpt lat="38.3701120" lon="-0.6625470">
        <ele>326.1</ele>
        <time>2017-12-18T14:56:29Z</time>
      </trkpt>
      <trkpt lat="38.3701200" lon="-0.6625710">
        <ele>326.1</ele>
        <time>2017-12-18T14:56:30Z</time>
      </trkpt>
      <trkpt lat="38.3701290" lon="-0.6625950">
        <ele>326.1</ele>
        <time>2017-12-18T14:56:31Z</time>
      </trkpt>
      <trkpt lat="38.3701360" lon="-0.6626210">
        <ele>326.1</ele>
        <time>2017-12-18T14:56:32Z</time>
      </trkpt>
      <trkpt lat="38.3701370" lon="-0.6626490">
        <ele>326.1</ele>
        <time>2017-12-18T14:56:33Z</time>
      </trkpt>
      <trkpt lat="38.3701300" lon="-0.6626770">
        <ele>326.1</ele>
        <time>2017-12-18T14:56:34Z</time>
      </trkpt>
      <trkpt lat="38.3701250" lon="-0.6627070">
        <ele>326.1</ele>
        <time>2017-12-18T14:56:35Z</time>
      </trkpt>
      <trkpt lat="38.3701210" lon="-0.6627400">
        <ele>326.1</ele>
        <time>2017-12-18T14:56:36Z</time>
      </trkpt>
      <trkpt lat="38.3701230" lon="-0.6627710">
        <ele>326.1</ele>
        <time>2017-12-18T14:56:37Z</time>
      </trkpt>
      <trkpt lat="38.3701250" lon="-0.6628040">
        <ele>326.1</ele>
        <time>2017-12-18T14:56:38Z</time>
      </trkpt>
      <trkpt lat="38.3701280" lon="-0.6628410">
        <ele>326.1</ele>
        <time>2017-12-18T14:56:39Z</time>
      </trkpt>
      <trkpt lat="38.3701330" lon="-0.6628800">
        <ele>326.1</ele>
        <time>2017-12-18T14:56:40Z</time>
      </trkpt>
      <trkpt lat="38.3701370" lon="-0.6629190">
        <ele>326.1</ele>
        <time>2017-12-18T14:56:41Z</time>
      </trkpt>
      <trkpt lat="38.3701440" lon="-0.6629540">
        <ele>326.1</ele>
        <time>2017-12-18T14:56:42Z</time>
      </trkpt>
      <trkpt lat="38.3701520" lon="-0.6629870">
        <ele>326.1</ele>
        <time>2017-12-18T14:56:43Z</time>
      </trkpt>
      <trkpt lat="38.3701610" lon="-0.6630220">
        <ele>327.2</ele>
        <time>2017-12-18T14:56:44Z</time>
      </trkpt>
      <trkpt lat="38.3701700" lon="-0.6630540">
        <ele>327.2</ele>
        <time>2017-12-18T14:56:45Z</time>
      </trkpt>
      <trkpt lat="38.3701820" lon="-0.6630840">
        <ele>327.2</ele>
        <time>2017-12-18T14:56:46Z</time>
      </trkpt>
      <trkpt lat="38.3701920" lon="-0.6631160">
        <ele>327.2</ele>
        <time>2017-12-18T14:56:47Z</time>
      </trkpt>
      <trkpt lat="38.3702030" lon="-0.6631490">
        <ele>327.2</ele>
        <time>2017-12-18T14:56:48Z</time>
      </trkpt>
      <trkpt lat="38.3702130" lon="-0.6631840">
        <ele>327.2</ele>
        <time>2017-12-18T14:56:49Z</time>
      </trkpt>
      <trkpt lat="38.3702210" lon="-0.6632230">
        <ele>327.2</ele>
        <time>2017-12-18T14:56:50Z</time>
      </trkpt>
      <trkpt lat="38.3702270" lon="-0.6632620">
        <ele>327.2</ele>
        <time>2017-12-18T14:56:51Z</time>
      </trkpt>
      <trkpt lat="38.3702340" lon="-0.6633040">
        <ele>327.2</ele>
        <time>2017-12-18T14:56:52Z</time>
      </trkpt>
      <trkpt lat="38.3702380" lon="-0.6633500">
        <ele>327.2</ele>
        <time>2017-12-18T14:56:53Z</time>
      </trkpt>
      <trkpt lat="38.3702500" lon="-0.6633990">
        <ele>327.2</ele>
        <time>2017-12-18T14:56:54Z</time>
      </trkpt>
      <trkpt lat="38.3702640" lon="-0.6634490">
        <ele>327.2</ele>
        <time>2017-12-18T14:56:55Z</time>
      </trkpt>
      <trkpt lat="38.3702720" lon="-0.6634990">
        <ele>327.2</ele>
        <time>2017-12-18T14:56:56Z</time>
      </trkpt>
      <trkpt lat="38.3702840" lon="-0.6635510">
        <ele>327.2</ele>
        <time>2017-12-18T14:56:57Z</time>
      </trkpt>
      <trkpt lat="38.3702950" lon="-0.6636040">
        <ele>327.2</ele>
        <time>2017-12-18T14:56:58Z</time>
      </trkpt>
      <trkpt lat="38.3703060" lon="-0.6636590">
        <ele>327.2</ele>
        <time>2017-12-18T14:56:59Z</time>
      </trkpt>
      <trkpt lat="38.3703140" lon="-0.6637190">
        <ele>326.1</ele>
        <time>2017-12-18T14:57:00Z</time>
      </trkpt>
      <trkpt lat="38.3703250" lon="-0.6637780">
        <ele>326.1</ele>
        <time>2017-12-18T14:57:01Z</time>
      </trkpt>
      <trkpt lat="38.3703420" lon="-0.6638380">
        <ele>326.1</ele>
        <time>2017-12-18T14:57:02Z</time>
      </trkpt>
      <trkpt lat="38.3703600" lon="-0.6638920">
        <ele>326.1</ele>
        <time>2017-12-18T14:57:03Z</time>
      </trkpt>
      <trkpt lat="38.3703920" lon="-0.6639330">
        <ele>325.1</ele>
        <time>2017-12-18T14:57:04Z</time>
      </trkpt>
      <trkpt lat="38.3704290" lon="-0.6639410">
        <ele>325.1</ele>
        <time>2017-12-18T14:57:05Z</time>
      </trkpt>
      <trkpt lat="38.3704680" lon="-0.6639380">
        <ele>325.1</ele>
        <time>2017-12-18T14:57:06Z</time>
      </trkpt>
      <trkpt lat="38.3705090" lon="-0.6639300">
        <ele>325.1</ele>
        <time>2017-12-18T14:57:07Z</time>
      </trkpt>
      <trkpt lat="38.3705500" lon="-0.6639200">
        <ele>324.2</ele>
        <time>2017-12-18T14:57:08Z</time>
      </trkpt>
      <trkpt lat="38.3705920" lon="-0.6639110">
        <ele>324.2</ele>
        <time>2017-12-18T14:57:09Z</time>
      </trkpt>
      <trkpt lat="38.3706360" lon="-0.6639020">
        <ele>324.2</ele>
        <time>2017-12-18T14:57:10Z</time>
      </trkpt>
      <trkpt lat="38.3706780" lon="-0.6638940">
        <ele>324.2</ele>
        <time>2017-12-18T14:57:11Z</time>
      </trkpt>
      <trkpt lat="38.3707210" lon="-0.6638870">
        <ele>324.2</ele>
        <time>2017-12-18T14:57:12Z</time>
      </trkpt>
      <trkpt lat="38.3707640" lon="-0.6638830">
        <ele>324.2</ele>
        <time>2017-12-18T14:57:13Z</time>
      </trkpt>
      <trkpt lat="38.3708060" lon="-0.6638920">
        <ele>324.2</ele>
        <time>2017-12-18T14:57:14Z</time>
      </trkpt>
      <trkpt lat="38.3708420" lon="-0.6639170">
        <ele>324.2</ele>
        <time>2017-12-18T14:57:15Z</time>
      </trkpt>
      <trkpt lat="38.3708740" lon="-0.6639470">
        <ele>324.2</ele>
        <time>2017-12-18T14:57:16Z</time>
      </trkpt>
      <trkpt lat="38.3708960" lon="-0.6639890">
        <ele>324.2</ele>
        <time>2017-12-18T14:57:17Z</time>
      </trkpt>
      <trkpt lat="38.3709130" lon="-0.6640320">
        <ele>324.2</ele>
        <time>2017-12-18T14:57:18Z</time>
      </trkpt>
      <trkpt lat="38.3709290" lon="-0.6640780">
        <ele>324.2</ele>
        <time>2017-12-18T14:57:19Z</time>
      </trkpt>
      <trkpt lat="38.3709430" lon="-0.6641250">
        <ele>324.2</ele>
        <time>2017-12-18T14:57:20Z</time>
      </trkpt>
      <trkpt lat="38.3709540" lon="-0.6641740">
        <ele>324.2</ele>
        <time>2017-12-18T14:57:21Z</time>
      </trkpt>
      <trkpt lat="38.3709640" lon="-0.6642250">
        <ele>324.2</ele>
        <time>2017-12-18T14:57:22Z</time>
      </trkpt>
      <trkpt lat="38.3709730" lon="-0.6642750">
        <ele>324.2</ele>
        <time>2017-12-18T14:57:23Z</time>
      </trkpt>
      <trkpt lat="38.3709830" lon="-0.6643250">
        <ele>324.2</ele>
        <time>2017-12-18T14:57:24Z</time>
      </trkpt>
      <trkpt lat="38.3709940" lon="-0.6643770">
        <ele>324.2</ele>
        <time>2017-12-18T14:57:25Z</time>
      </trkpt>
      <trkpt lat="38.3710070" lon="-0.6644280">
        <ele>324.2</ele>
        <time>2017-12-18T14:57:26Z</time>
      </trkpt>
      <trkpt lat="38.3710180" lon="-0.6644780">
        <ele>324.2</ele>
        <time>2017-12-18T14:57:27Z</time>
      </trkpt>
      <trkpt lat="38.3710270" lon="-0.6645300">
        <ele>324.2</ele>
        <time>2017-12-18T14:57:28Z</time>
      </trkpt>
      <trkpt lat="38.3710380" lon="-0.6645870">
        <ele>324.2</ele>
        <time>2017-12-18T14:57:29Z</time>
      </trkpt>
      <trkpt lat="38.3710570" lon="-0.6646380">
        <ele>324.2</ele>
        <time>2017-12-18T14:57:30Z</time>
      </trkpt>
      <trkpt lat="38.3710840" lon="-0.6646860">
        <ele>324.2</ele>
        <time>2017-12-18T14:57:31Z</time>
      </trkpt>
      <trkpt lat="38.3711090" lon="-0.6647320">
        <ele>324.2</ele>
        <time>2017-12-18T14:57:32Z</time>
      </trkpt>
      <trkpt lat="38.3711300" lon="-0.6647780">
        <ele>324.2</ele>
        <time>2017-12-18T14:57:33Z</time>
      </trkpt>
      <trkpt lat="38.3711470" lon="-0.6648230">
        <ele>324.2</ele>
        <time>2017-12-18T14:57:34Z</time>
      </trkpt>
      <trkpt lat="38.3711670" lon="-0.6648630">
        <ele>324.2</ele>
        <time>2017-12-18T14:57:35Z</time>
      </trkpt>
      <trkpt lat="38.3711850" lon="-0.6649040">
        <ele>324.2</ele>
        <time>2017-12-18T14:57:36Z</time>
      </trkpt>
      <trkpt lat="38.3712000" lon="-0.6649450">
        <ele>324.2</ele>
        <time>2017-12-18T14:57:37Z</time>
      </trkpt>
      <trkpt lat="38.3712120" lon="-0.6649850">
        <ele>325.1</ele>
        <time>2017-12-18T14:57:38Z</time>
      </trkpt>
      <trkpt lat="38.3712270" lon="-0.6650270">
        <ele>325.1</ele>
        <time>2017-12-18T14:57:39Z</time>
      </trkpt>
      <trkpt lat="38.3712420" lon="-0.6650710">
        <ele>325.1</ele>
        <time>2017-12-18T14:57:40Z</time>
      </trkpt>
      <trkpt lat="38.3712540" lon="-0.6651120">
        <ele>325.1</ele>
        <time>2017-12-18T14:57:41Z</time>
      </trkpt>
      <trkpt lat="38.3712660" lon="-0.6651510">
        <ele>325.1</ele>
        <time>2017-12-18T14:57:42Z</time>
      </trkpt>
      <trkpt lat="38.3712800" lon="-0.6651900">
        <ele>325.1</ele>
        <time>2017-12-18T14:57:43Z</time>
      </trkpt>
      <trkpt lat="38.3712940" lon="-0.6652310">
        <ele>326.1</ele>
        <time>2017-12-18T14:57:44Z</time>
      </trkpt>
      <trkpt lat="38.3713080" lon="-0.6652700">
        <ele>326.1</ele>
        <time>2017-12-18T14:57:45Z</time>
      </trkpt>
      <trkpt lat="38.3713210" lon="-0.6653040">
        <ele>326.1</ele>
        <time>2017-12-18T14:57:46Z</time>
      </trkpt>
      <trkpt lat="38.3713370" lon="-0.6653360">
        <ele>326.1</ele>
        <time>2017-12-18T14:57:47Z</time>
      </trkpt>
      <trkpt lat="38.3713540" lon="-0.6653670">
        <ele>326.1</ele>
        <time>2017-12-18T14:57:48Z</time>
      </trkpt>
      <trkpt lat="38.3713720" lon="-0.6653990">
        <ele>326.1</ele>
        <time>2017-12-18T14:57:49Z</time>
      </trkpt>
      <trkpt lat="38.3713930" lon="-0.6654310">
        <ele>327.2</ele>
        <time>2017-12-18T14:57:50Z</time>
      </trkpt>
      <trkpt lat="38.3714160" lon="-0.6654600">
        <ele>327.2</ele>
        <time>2017-12-18T14:57:51Z</time>
      </trkpt>
      <trkpt lat="38.3714400" lon="-0.6654880">
        <ele>327.2</ele>
        <time>2017-12-18T14:57:52Z</time>
      </trkpt>
      <trkpt lat="38.3714670" lon="-0.6655040">
        <ele>327.2</ele>
        <time>2017-12-18T14:57:53Z</time>
      </trkpt>
      <trkpt lat="38.3714920" lon="-0.6655150">
        <ele>328.1</ele>
        <time>2017-12-18T14:57:54Z</time>
      </trkpt>
      <trkpt lat="38.3715180" lon="-0.6655200">
        <ele>328.1</ele>
        <time>2017-12-18T14:57:55Z</time>
      </trkpt>
      <trkpt lat="38.3715420" lon="-0.6655240">
        <ele>328.1</ele>
        <time>2017-12-18T14:57:56Z</time>
      </trkpt>
      <trkpt lat="38.3715690" lon="-0.6655280">
        <ele>328.1</ele>
        <time>2017-12-18T14:57:57Z</time>
      </trkpt>
      <trkpt lat="38.3715980" lon="-0.6655290">
        <ele>329.2</ele>
        <time>2017-12-18T14:57:58Z</time>
      </trkpt>
      <trkpt lat="38.3716220" lon="-0.6655320">
        <ele>329.2</ele>
        <time>2017-12-18T14:57:59Z</time>
      </trkpt>
      <trkpt lat="38.3716400" lon="-0.6655490">
        <ele>329.2</ele>
        <time>2017-12-18T14:58:00Z</time>
      </trkpt>
      <trkpt lat="38.3716510" lon="-0.6655810">
        <ele>329.2</ele>
        <time>2017-12-18T14:58:01Z</time>
      </trkpt>
      <trkpt lat="38.3716680" lon="-0.6656110">
        <ele>329.2</ele>
        <time>2017-12-18T14:58:02Z</time>
      </trkpt>
      <trkpt lat="38.3716880" lon="-0.6656350">
        <ele>329.2</ele>
        <time>2017-12-18T14:58:03Z</time>
      </trkpt>
      <trkpt lat="38.3717070" lon="-0.6656470">
        <ele>329.2</ele>
        <time>2017-12-18T14:58:04Z</time>
      </trkpt>
      <trkpt lat="38.3717320" lon="-0.6656540">
        <ele>329.2</ele>
        <time>2017-12-18T14:58:05Z</time>
      </trkpt>
      <trkpt lat="38.3717570" lon="-0.6656520">
        <ele>330.1</ele>
        <time>2017-12-18T14:58:06Z</time>
      </trkpt>
      <trkpt lat="38.3717850" lon="-0.6656440">
        <ele>330.1</ele>
        <time>2017-12-18T14:58:07Z</time>
      </trkpt>
      <trkpt lat="38.3718130" lon="-0.6656350">
        <ele>330.1</ele>
        <time>2017-12-18T14:58:08Z</time>
      </trkpt>
      <trkpt lat="38.3718410" lon="-0.6656240">
        <ele>330.1</ele>
        <time>2017-12-18T14:58:09Z</time>
      </trkpt>
      <trkpt lat="38.3718680" lon="-0.6656200">
        <ele>330.1</ele>
        <time>2017-12-18T14:58:10Z</time>
      </trkpt>
      <trkpt lat="38.3718910" lon="-0.6656220">
        <ele>330.1</ele>
        <time>2017-12-18T14:58:11Z</time>
      </trkpt>
      <trkpt lat="38.3719110" lon="-0.6656210">
        <ele>331.2</ele>
        <time>2017-12-18T14:58:12Z</time>
      </trkpt>
      <trkpt lat="38.3719360" lon="-0.6656210">
        <ele>331.2</ele>
        <time>2017-12-18T14:58:13Z</time>
      </trkpt>
      <trkpt lat="38.3719600" lon="-0.6656280">
        <ele>332.1</ele>
        <time>2017-12-18T14:58:14Z</time>
      </trkpt>
      <trkpt lat="38.3719850" lon="-0.6656380">
        <ele>332.1</ele>
        <time>2017-12-18T14:58:15Z</time>
      </trkpt>
      <trkpt lat="38.3720100" lon="-0.6656540">
        <ele>332.1</ele>
        <time>2017-12-18T14:58:16Z</time>
      </trkpt>
      <trkpt lat="38.3720350" lon="-0.6656700">
        <ele>332.1</ele>
        <time>2017-12-18T14:58:17Z</time>
      </trkpt>
      <trkpt lat="38.3720590" lon="-0.6656900">
        <ele>332.1</ele>
        <time>2017-12-18T14:58:18Z</time>
      </trkpt>
      <trkpt lat="38.3720790" lon="-0.6657080">
        <ele>332.1</ele>
        <time>2017-12-18T14:58:19Z</time>
      </trkpt>
      <trkpt lat="38.3720890" lon="-0.6657230">
        <ele>332.1</ele>
        <time>2017-12-18T14:58:20Z</time>
      </trkpt>
      <trkpt lat="38.3720980" lon="-0.6657400">
        <ele>332.1</ele>
        <time>2017-12-18T14:58:21Z</time>
      </trkpt>
      <trkpt lat="38.3721030" lon="-0.6657630">
        <ele>333.2</ele>
        <time>2017-12-18T14:58:22Z</time>
      </trkpt>
      <trkpt lat="38.3721040" lon="-0.6657890">
        <ele>333.2</ele>
        <time>2017-12-18T14:58:23Z</time>
      </trkpt>
      <trkpt lat="38.3721000" lon="-0.6658150">
        <ele>333.2</ele>
        <time>2017-12-18T14:58:24Z</time>
      </trkpt>
      <trkpt lat="38.3720950" lon="-0.6658420">
        <ele>333.2</ele>
        <time>2017-12-18T14:58:25Z</time>
      </trkpt>
      <trkpt lat="38.3720860" lon="-0.6658680">
        <ele>334.2</ele>
        <time>2017-12-18T14:58:26Z</time>
      </trkpt>
      <trkpt lat="38.3720740" lon="-0.6658910">
        <ele>334.2</ele>
        <time>2017-12-18T14:58:27Z</time>
      </trkpt>
      <trkpt lat="38.3720620" lon="-0.6659150">
        <ele>334.2</ele>
        <time>2017-12-18T14:58:28Z</time>
      </trkpt>
      <trkpt lat="38.3720470" lon="-0.6659380">
        <ele>334.2</ele>
        <time>2017-12-18T14:58:29Z</time>
      </trkpt>
      <trkpt lat="38.3720240" lon="-0.6659530">
        <ele>334.2</ele>
        <time>2017-12-18T14:58:30Z</time>
      </trkpt>
      <trkpt lat="38.3719990" lon="-0.6659730">
        <ele>334.2</ele>
        <time>2017-12-18T14:58:31Z</time>
      </trkpt>
      <trkpt lat="38.3719740" lon="-0.6660010">
        <ele>334.2</ele>
        <time>2017-12-18T14:58:32Z</time>
      </trkpt>
      <trkpt lat="38.3719520" lon="-0.6660350">
        <ele>334.2</ele>
        <time>2017-12-18T14:58:33Z</time>
      </trkpt>
      <trkpt lat="38.3719320" lon="-0.6660730">
        <ele>334.2</ele>
        <time>2017-12-18T14:58:34Z</time>
      </trkpt>
      <trkpt lat="38.3719130" lon="-0.6661210">
        <ele>334.2</ele>
        <time>2017-12-18T14:58:35Z</time>
      </trkpt>
      <trkpt lat="38.3718890" lon="-0.6661720">
        <ele>334.2</ele>
        <time>2017-12-18T14:58:36Z</time>
      </trkpt>
      <trkpt lat="38.3718650" lon="-0.6662170">
        <ele>334.2</ele>
        <time>2017-12-18T14:58:37Z</time>
      </trkpt>
      <trkpt lat="38.3718330" lon="-0.6662320">
        <ele>334.2</ele>
        <time>2017-12-18T14:58:38Z</time>
      </trkpt>
      <trkpt lat="38.3718050" lon="-0.6662110">
        <ele>334.2</ele>
        <time>2017-12-18T14:58:39Z</time>
      </trkpt>
      <trkpt lat="38.3717770" lon="-0.6661850">
        <ele>334.2</ele>
        <time>2017-12-18T14:58:40Z</time>
      </trkpt>
      <trkpt lat="38.3717450" lon="-0.6661770">
        <ele>334.2</ele>
        <time>2017-12-18T14:58:41Z</time>
      </trkpt>
      <trkpt lat="38.3717130" lon="-0.6661690">
        <ele>334.2</ele>
        <time>2017-12-18T14:58:42Z</time>
      </trkpt>
      <trkpt lat="38.3716810" lon="-0.6661520">
        <ele>334.2</ele>
        <time>2017-12-18T14:58:43Z</time>
      </trkpt>
      <trkpt lat="38.3716480" lon="-0.6661370">
        <ele>334.2</ele>
        <time>2017-12-18T14:58:44Z</time>
      </trkpt>
      <trkpt lat="38.3716000" lon="-0.6661370">
        <ele>334.2</ele>
        <time>2017-12-18T14:58:45Z</time>
      </trkpt>
      <trkpt lat="38.3715570" lon="-0.6661450">
        <ele>333.2</ele>
        <time>2017-12-18T14:58:46Z</time>
      </trkpt>
      <trkpt lat="38.3715100" lon="-0.6661520">
        <ele>333.2</ele>
        <time>2017-12-18T14:58:47Z</time>
      </trkpt>
      <trkpt lat="38.3714640" lon="-0.6661560">
        <ele>333.2</ele>
        <time>2017-12-18T14:58:48Z</time>
      </trkpt>
      <trkpt lat="38.3714290" lon="-0.6661520">
        <ele>333.2</ele>
        <time>2017-12-18T14:58:49Z</time>
      </trkpt>
      <trkpt lat="38.3713920" lon="-0.6661390">
        <ele>333.2</ele>
        <time>2017-12-18T14:58:50Z</time>
      </trkpt>
      <trkpt lat="38.3713580" lon="-0.6661160">
        <ele>333.2</ele>
        <time>2017-12-18T14:58:51Z</time>
      </trkpt>
      <trkpt lat="38.3713220" lon="-0.6660760">
        <ele>333.2</ele>
        <time>2017-12-18T14:58:52Z</time>
      </trkpt>
      <trkpt lat="38.3712910" lon="-0.6660200">
        <ele>333.2</ele>
        <time>2017-12-18T14:58:53Z</time>
      </trkpt>
      <trkpt lat="38.3712640" lon="-0.6659550">
        <ele>332.1</ele>
        <time>2017-12-18T14:58:54Z</time>
      </trkpt>
      <trkpt lat="38.3712300" lon="-0.6658820">
        <ele>332.1</ele>
        <time>2017-12-18T14:58:55Z</time>
      </trkpt>
      <trkpt lat="38.3711810" lon="-0.6658220">
        <ele>332.1</ele>
        <time>2017-12-18T14:58:56Z</time>
      </trkpt>
      <trkpt lat="38.3711170" lon="-0.6657800">
        <ele>332.1</ele>
        <time>2017-12-18T14:58:57Z</time>
      </trkpt>
      <trkpt lat="38.3710450" lon="-0.6657540">
        <ele>332.1</ele>
        <time>2017-12-18T14:58:58Z</time>
      </trkpt>
      <trkpt lat="38.3709790" lon="-0.6657270">
        <ele>332.1</ele>
        <time>2017-12-18T14:58:59Z</time>
      </trkpt>
      <trkpt lat="38.3709140" lon="-0.6657010">
        <ele>328.1</ele>
        <time>2017-12-18T14:59:00Z</time>
      </trkpt>
      <trkpt lat="38.3708570" lon="-0.6656940">
        <ele>328.1</ele>
        <time>2017-12-18T14:59:01Z</time>
      </trkpt>
      <trkpt lat="38.3707970" lon="-0.6656970">
        <ele>327.2</ele>
        <time>2017-12-18T14:59:02Z</time>
      </trkpt>
      <trkpt lat="38.3707350" lon="-0.6657110">
        <ele>327.2</ele>
        <time>2017-12-18T14:59:03Z</time>
      </trkpt>
      <trkpt lat="38.3706730" lon="-0.6657300">
        <ele>326.1</ele>
        <time>2017-12-18T14:59:04Z</time>
      </trkpt>
      <trkpt lat="38.3706110" lon="-0.6657470">
        <ele>326.1</ele>
        <time>2017-12-18T14:59:05Z</time>
      </trkpt>
      <trkpt lat="38.3705510" lon="-0.6657470">
        <ele>326.1</ele>
        <time>2017-12-18T14:59:06Z</time>
      </trkpt>
      <trkpt lat="38.3704930" lon="-0.6657370">
        <ele>326.1</ele>
        <time>2017-12-18T14:59:07Z</time>
      </trkpt>
      <trkpt lat="38.3704450" lon="-0.6657140">
        <ele>326.1</ele>
        <time>2017-12-18T14:59:08Z</time>
      </trkpt>
      <trkpt lat="38.3704030" lon="-0.6656850">
        <ele>326.1</ele>
        <time>2017-12-18T14:59:09Z</time>
      </trkpt>
      <trkpt lat="38.3703630" lon="-0.6656430">
        <ele>325.1</ele>
        <time>2017-12-18T14:59:10Z</time>
      </trkpt>
      <trkpt lat="38.3703230" lon="-0.6655840">
        <ele>325.1</ele>
        <time>2017-12-18T14:59:11Z</time>
      </trkpt>
      <trkpt lat="38.3702780" lon="-0.6655260">
        <ele>325.1</ele>
        <time>2017-12-18T14:59:12Z</time>
      </trkpt>
      <trkpt lat="38.3702220" lon="-0.6654910">
        <ele>325.1</ele>
        <time>2017-12-18T14:59:13Z</time>
      </trkpt>
      <trkpt lat="38.3701670" lon="-0.6654550">
        <ele>324.2</ele>
        <time>2017-12-18T14:59:14Z</time>
      </trkpt>
      <trkpt lat="38.3701120" lon="-0.6654160">
        <ele>324.2</ele>
        <time>2017-12-18T14:59:15Z</time>
      </trkpt>
      <trkpt lat="38.3700560" lon="-0.6653700">
        <ele>324.2</ele>
        <time>2017-12-18T14:59:16Z</time>
      </trkpt>
      <trkpt lat="38.3699950" lon="-0.6653200">
        <ele>324.2</ele>
        <time>2017-12-18T14:59:17Z</time>
      </trkpt>
      <trkpt lat="38.3699340" lon="-0.6652700">
        <ele>324.2</ele>
        <time>2017-12-18T14:59:18Z</time>
      </trkpt>
      <trkpt lat="38.3698770" lon="-0.6652140">
        <ele>324.2</ele>
        <time>2017-12-18T14:59:19Z</time>
      </trkpt>
      <trkpt lat="38.3698150" lon="-0.6651750">
        <ele>320.2</ele>
        <time>2017-12-18T14:59:20Z</time>
      </trkpt>
      <trkpt lat="38.3697510" lon="-0.6651590">
        <ele>320.2</ele>
        <time>2017-12-18T14:59:21Z</time>
      </trkpt>
      <trkpt lat="38.3696940" lon="-0.6651670">
        <ele>320.2</ele>
        <time>2017-12-18T14:59:22Z</time>
      </trkpt>
      <trkpt lat="38.3696350" lon="-0.6651840">
        <ele>320.2</ele>
        <time>2017-12-18T14:59:23Z</time>
      </trkpt>
      <trkpt lat="38.3695810" lon="-0.6651870">
        <ele>320.2</ele>
        <time>2017-12-18T14:59:24Z</time>
      </trkpt>
      <trkpt lat="38.3695360" lon="-0.6651670">
        <ele>320.2</ele>
        <time>2017-12-18T14:59:25Z</time>
      </trkpt>
      <trkpt lat="38.3694880" lon="-0.6651540">
        <ele>320.2</ele>
        <time>2017-12-18T14:59:26Z</time>
      </trkpt>
      <trkpt lat="38.3694420" lon="-0.6651190">
        <ele>320.2</ele>
        <time>2017-12-18T14:59:27Z</time>
      </trkpt>
      <trkpt lat="38.3693970" lon="-0.6650850">
        <ele>320.2</ele>
        <time>2017-12-18T14:59:28Z</time>
      </trkpt>
      <trkpt lat="38.3693540" lon="-0.6650500">
        <ele>320.2</ele>
        <time>2017-12-18T14:59:29Z</time>
      </trkpt>
      <trkpt lat="38.3693110" lon="-0.6650120">
        <ele>320.2</ele>
        <time>2017-12-18T14:59:30Z</time>
      </trkpt>
      <trkpt lat="38.3692700" lon="-0.6649740">
        <ele>320.2</ele>
        <time>2017-12-18T14:59:31Z</time>
      </trkpt>
      <trkpt lat="38.3692330" lon="-0.6649330">
        <ele>320.2</ele>
        <time>2017-12-18T14:59:32Z</time>
      </trkpt>
      <trkpt lat="38.3692020" lon="-0.6648830">
        <ele>320.2</ele>
        <time>2017-12-18T14:59:33Z</time>
      </trkpt>
      <trkpt lat="38.3691660" lon="-0.6648340">
        <ele>320.2</ele>
        <time>2017-12-18T14:59:34Z</time>
      </trkpt>
      <trkpt lat="38.3691270" lon="-0.6647870">
        <ele>320.2</ele>
        <time>2017-12-18T14:59:35Z</time>
      </trkpt>
      <trkpt lat="38.3690960" lon="-0.6647430">
        <ele>319.1</ele>
        <time>2017-12-18T14:59:36Z</time>
      </trkpt>
      <trkpt lat="38.3690630" lon="-0.6647050">
        <ele>319.1</ele>
        <time>2017-12-18T14:59:37Z</time>
      </trkpt>
      <trkpt lat="38.3690170" lon="-0.6646810">
        <ele>318.2</ele>
        <time>2017-12-18T14:59:38Z</time>
      </trkpt>
      <trkpt lat="38.3689590" lon="-0.6646690">
        <ele>318.2</ele>
        <time>2017-12-18T14:59:39Z</time>
      </trkpt>
      <trkpt lat="38.3688980" lon="-0.6646530">
        <ele>316.1</ele>
        <time>2017-12-18T14:59:40Z</time>
      </trkpt>
      <trkpt lat="38.3688350" lon="-0.6646370">
        <ele>316.1</ele>
        <time>2017-12-18T14:59:41Z</time>
      </trkpt>
      <trkpt lat="38.3687820" lon="-0.6646430">
        <ele>315.2</ele>
        <time>2017-12-18T14:59:42Z</time>
      </trkpt>
      <trkpt lat="38.3687490" lon="-0.6646790">
        <ele>315.2</ele>
        <time>2017-12-18T14:59:43Z</time>
      </trkpt>
      <trkpt lat="38.3687230" lon="-0.6647340">
        <ele>314.1</ele>
        <time>2017-12-18T14:59:44Z</time>
      </trkpt>
      <trkpt lat="38.3687240" lon="-0.6647850">
        <ele>314.1</ele>
        <time>2017-12-18T14:59:45Z</time>
      </trkpt>
      <trkpt lat="38.3687180" lon="-0.6648420">
        <ele>314.1</ele>
        <time>2017-12-18T14:59:46Z</time>
      </trkpt>
      <trkpt lat="38.3687150" lon="-0.6649020">
        <ele>314.1</ele>
        <time>2017-12-18T14:59:47Z</time>
      </trkpt>
      <trkpt lat="38.3687090" lon="-0.6649610">
        <ele>313.2</ele>
        <time>2017-12-18T14:59:48Z</time>
      </trkpt>
      <trkpt lat="38.3687020" lon="-0.6650120">
        <ele>313.2</ele>
        <time>2017-12-18T14:59:49Z</time>
      </trkpt>
      <trkpt lat="38.3686990" lon="-0.6650630">
        <ele>312.1</ele>
        <time>2017-12-18T14:59:50Z</time>
      </trkpt>
      <trkpt lat="38.3687010" lon="-0.6651110">
        <ele>312.1</ele>
        <time>2017-12-18T14:59:51Z</time>
      </trkpt>
      <trkpt lat="38.3686960" lon="-0.6651630">
        <ele>310.1</ele>
        <time>2017-12-18T14:59:52Z</time>
      </trkpt>
      <trkpt lat="38.3686660" lon="-0.6652020">
        <ele>310.1</ele>
        <time>2017-12-18T14:59:53Z</time>
      </trkpt>
      <trkpt lat="38.3686320" lon="-0.6652210">
        <ele>310.1</ele>
        <time>2017-12-18T14:59:54Z</time>
      </trkpt>
      <trkpt lat="38.3685880" lon="-0.6652220">
        <ele>310.1</ele>
        <time>2017-12-18T14:59:55Z</time>
      </trkpt>
      <trkpt lat="38.3685470" lon="-0.6652150">
        <ele>309.1</ele>
        <time>2017-12-18T14:59:56Z</time>
      </trkpt>
      <trkpt lat="38.3685180" lon="-0.6651960">
        <ele>309.1</ele>
        <time>2017-12-18T14:59:57Z</time>
      </trkpt>
      <trkpt lat="38.3684900" lon="-0.6651750">
        <ele>308.2</ele>
        <time>2017-12-18T14:59:58Z</time>
      </trkpt>
      <trkpt lat="38.3684610" lon="-0.6651730">
        <ele>308.2</ele>
        <time>2017-12-18T14:59:59Z</time>
      </trkpt>
      <trkpt lat="38.3684270" lon="-0.6651930">
        <ele>307.1</ele>
        <time>2017-12-18T15:00:00Z</time>
      </trkpt>
      <trkpt lat="38.3684050" lon="-0.6652240">
        <ele>307.1</ele>
        <time>2017-12-18T15:00:01Z</time>
      </trkpt>
      <trkpt lat="38.3683820" lon="-0.6652710">
        <ele>307.1</ele>
        <time>2017-12-18T15:00:02Z</time>
      </trkpt>
      <trkpt lat="38.3683700" lon="-0.6653250">
        <ele>307.1</ele>
        <time>2017-12-18T15:00:03Z</time>
      </trkpt>
      <trkpt lat="38.3683590" lon="-0.6653810">
        <ele>307.1</ele>
        <time>2017-12-18T15:00:04Z</time>
      </trkpt>
      <trkpt lat="38.3683480" lon="-0.6654380">
        <ele>307.1</ele>
        <time>2017-12-18T15:00:05Z</time>
      </trkpt>
      <trkpt lat="38.3683350" lon="-0.6654930">
        <ele>304.2</ele>
        <time>2017-12-18T15:00:06Z</time>
      </trkpt>
      <trkpt lat="38.3683220" lon="-0.6655450">
        <ele>304.2</ele>
        <time>2017-12-18T15:00:07Z</time>
      </trkpt>
      <trkpt lat="38.3683110" lon="-0.6655880">
        <ele>304.2</ele>
        <time>2017-12-18T15:00:08Z</time>
      </trkpt>
      <trkpt lat="38.3682980" lon="-0.6656210">
        <ele>304.2</ele>
        <time>2017-12-18T15:00:09Z</time>
      </trkpt>
      <trkpt lat="38.3682890" lon="-0.6656480">
        <ele>304.2</ele>
        <time>2017-12-18T15:00:10Z</time>
      </trkpt>
      <trkpt lat="38.3682800" lon="-0.6656750">
        <ele>304.2</ele>
        <time>2017-12-18T15:00:11Z</time>
      </trkpt>
      <trkpt lat="38.3682670" lon="-0.6656950">
        <ele>305.1</ele>
        <time>2017-12-18T15:00:12Z</time>
      </trkpt>
      <trkpt lat="38.3682470" lon="-0.6657080">
        <ele>305.1</ele>
        <time>2017-12-18T15:00:13Z</time>
      </trkpt>
      <trkpt lat="38.3682270" lon="-0.6657080">
        <ele>305.1</ele>
        <time>2017-12-18T15:00:14Z</time>
      </trkpt>
      <trkpt lat="38.3682090" lon="-0.6656990">
        <ele>305.1</ele>
        <time>2017-12-18T15:00:15Z</time>
      </trkpt>
      <trkpt lat="38.3681910" lon="-0.6656830">
        <ele>305.1</ele>
        <time>2017-12-18T15:00:16Z</time>
      </trkpt>
      <trkpt lat="38.3681720" lon="-0.6656630">
        <ele>305.1</ele>
        <time>2017-12-18T15:00:17Z</time>
      </trkpt>
      <trkpt lat="38.3681560" lon="-0.6656390">
        <ele>305.1</ele>
        <time>2017-12-18T15:00:18Z</time>
      </trkpt>
      <trkpt lat="38.3681430" lon="-0.6656140">
        <ele>305.1</ele>
        <time>2017-12-18T15:00:19Z</time>
      </trkpt>
      <trkpt lat="38.3681340" lon="-0.6655910">
        <ele>306.2</ele>
        <time>2017-12-18T15:00:20Z</time>
      </trkpt>
      <trkpt lat="38.3681270" lon="-0.6655660">
        <ele>306.2</ele>
        <time>2017-12-18T15:00:21Z</time>
      </trkpt>
      <trkpt lat="38.3681180" lon="-0.6655450">
        <ele>306.2</ele>
        <time>2017-12-18T15:00:22Z</time>
      </trkpt>
      <trkpt lat="38.3681130" lon="-0.6655290">
        <ele>306.2</ele>
        <time>2017-12-18T15:00:23Z</time>
      </trkpt>
      <trkpt lat="38.3681100" lon="-0.6655210">
        <ele>307.1</ele>
        <time>2017-12-18T15:00:24Z</time>
      </trkpt>
      <trkpt lat="38.3681240" lon="-0.6655520">
        <ele>308.2</ele>
        <time>2017-12-18T15:00:25Z</time>
      </trkpt>
      <trkpt lat="38.3681300" lon="-0.6655720">
        <ele>309.1</ele>
        <time>2017-12-18T15:04:19Z</time>
      </trkpt>
      <trkpt lat="38.3681380" lon="-0.6655990">
        <ele>309.1</ele>
        <time>2017-12-18T15:04:20Z</time>
      </trkpt>
      <trkpt lat="38.3681490" lon="-0.6656370">
        <ele>308.2</ele>
        <time>2017-12-18T15:04:21Z</time>
      </trkpt>
      <trkpt lat="38.3681620" lon="-0.6656870">
        <ele>308.2</ele>
        <time>2017-12-18T15:04:22Z</time>
      </trkpt>
      <trkpt lat="38.3681810" lon="-0.6657460">
        <ele>307.1</ele>
        <time>2017-12-18T15:04:23Z</time>
      </trkpt>
      <trkpt lat="38.3682010" lon="-0.6658130">
        <ele>307.1</ele>
        <time>2017-12-18T15:04:24Z</time>
      </trkpt>
      <trkpt lat="38.3682140" lon="-0.6658850">
        <ele>307.1</ele>
        <time>2017-12-18T15:04:25Z</time>
      </trkpt>
      <trkpt lat="38.3682240" lon="-0.6659570">
        <ele>307.1</ele>
        <time>2017-12-18T15:04:26Z</time>
      </trkpt>
      <trkpt lat="38.3682290" lon="-0.6660280">
        <ele>307.1</ele>
        <time>2017-12-18T15:04:27Z</time>
      </trkpt>
      <trkpt lat="38.3682230" lon="-0.6660830">
        <ele>307.1</ele>
        <time>2017-12-18T15:04:28Z</time>
      </trkpt>
      <trkpt lat="38.3682090" lon="-0.6661340">
        <ele>304.2</ele>
        <time>2017-12-18T15:04:29Z</time>
      </trkpt>
      <trkpt lat="38.3681990" lon="-0.6662010">
        <ele>304.2</ele>
        <time>2017-12-18T15:04:30Z</time>
      </trkpt>
      <trkpt lat="38.3681880" lon="-0.6662650">
        <ele>304.2</ele>
        <time>2017-12-18T15:04:31Z</time>
      </trkpt>
      <trkpt lat="38.3681680" lon="-0.6663200">
        <ele>304.2</ele>
        <time>2017-12-18T15:04:32Z</time>
      </trkpt>
      <trkpt lat="38.3681160" lon="-0.6663660">
        <ele>304.2</ele>
        <time>2017-12-18T15:04:33Z</time>
      </trkpt>
      <trkpt lat="38.3680880" lon="-0.6664170">
        <ele>304.2</ele>
        <time>2017-12-18T15:04:34Z</time>
      </trkpt>
      <trkpt lat="38.3680610" lon="-0.6664730">
        <ele>304.2</ele>
        <time>2017-12-18T15:04:35Z</time>
      </trkpt>
      <trkpt lat="38.3680400" lon="-0.6665300">
        <ele>304.2</ele>
        <time>2017-12-18T15:04:36Z</time>
      </trkpt>
      <trkpt lat="38.3680260" lon="-0.6665880">
        <ele>304.2</ele>
        <time>2017-12-18T15:04:37Z</time>
      </trkpt>
      <trkpt lat="38.3680160" lon="-0.6666390">
        <ele>304.2</ele>
        <time>2017-12-18T15:04:38Z</time>
      </trkpt>
      <trkpt lat="38.3680030" lon="-0.6666870">
        <ele>304.2</ele>
        <time>2017-12-18T15:04:39Z</time>
      </trkpt>
      <trkpt lat="38.3679880" lon="-0.6667420">
        <ele>304.2</ele>
        <time>2017-12-18T15:04:40Z</time>
      </trkpt>
      <trkpt lat="38.3679580" lon="-0.6668040">
        <ele>303.1</ele>
        <time>2017-12-18T15:04:41Z</time>
      </trkpt>
      <trkpt lat="38.3679230" lon="-0.6668650">
        <ele>303.1</ele>
        <time>2017-12-18T15:04:42Z</time>
      </trkpt>
      <trkpt lat="38.3678840" lon="-0.6669240">
        <ele>302.2</ele>
        <time>2017-12-18T15:04:43Z</time>
      </trkpt>
      <trkpt lat="38.3678420" lon="-0.6669710">
        <ele>302.2</ele>
        <time>2017-12-18T15:04:44Z</time>
      </trkpt>
      <trkpt lat="38.3677940" lon="-0.6670150">
        <ele>301.1</ele>
        <time>2017-12-18T15:04:45Z</time>
      </trkpt>
      <trkpt lat="38.3677460" lon="-0.6670580">
        <ele>301.1</ele>
        <time>2017-12-18T15:04:46Z</time>
      </trkpt>
      <trkpt lat="38.3676990" lon="-0.6671000">
        <ele>301.1</ele>
        <time>2017-12-18T15:04:47Z</time>
      </trkpt>
      <trkpt lat="38.3676510" lon="-0.6671400">
        <ele>301.1</ele>
        <time>2017-12-18T15:04:48Z</time>
      </trkpt>
      <trkpt lat="38.3676000" lon="-0.6671750">
        <ele>301.1</ele>
        <time>2017-12-18T15:04:49Z</time>
      </trkpt>
      <trkpt lat="38.3675460" lon="-0.6671970">
        <ele>301.1</ele>
        <time>2017-12-18T15:04:50Z</time>
      </trkpt>
      <trkpt lat="38.3674910" lon="-0.6672020">
        <ele>301.1</ele>
        <time>2017-12-18T15:04:51Z</time>
      </trkpt>
      <trkpt lat="38.3674370" lon="-0.6671960">
        <ele>301.1</ele>
        <time>2017-12-18T15:04:52Z</time>
      </trkpt>
      <trkpt lat="38.3673860" lon="-0.6671780">
        <ele>301.1</ele>
        <time>2017-12-18T15:04:53Z</time>
      </trkpt>
      <trkpt lat="38.3673380" lon="-0.6671520">
        <ele>301.1</ele>
        <time>2017-12-18T15:04:54Z</time>
      </trkpt>
      <trkpt lat="38.3672960" lon="-0.6671200">
        <ele>301.1</ele>
        <time>2017-12-18T15:04:55Z</time>
      </trkpt>
      <trkpt lat="38.3672520" lon="-0.6670880">
        <ele>301.1</ele>
        <time>2017-12-18T15:04:56Z</time>
      </trkpt>
      <trkpt lat="38.3672060" lon="-0.6670550">
        <ele>301.1</ele>
        <time>2017-12-18T15:04:57Z</time>
      </trkpt>
      <trkpt lat="38.3671540" lon="-0.6670210">
        <ele>301.1</ele>
        <time>2017-12-18T15:04:58Z</time>
      </trkpt>
      <trkpt lat="38.3670980" lon="-0.6669820">
        <ele>301.1</ele>
        <time>2017-12-18T15:04:59Z</time>
      </trkpt>
      <trkpt lat="38.3670440" lon="-0.6669380">
        <ele>301.1</ele>
        <time>2017-12-18T15:05:00Z</time>
      </trkpt>
      <trkpt lat="38.3669860" lon="-0.6668930">
        <ele>301.1</ele>
        <time>2017-12-18T15:05:01Z</time>
      </trkpt>
      <trkpt lat="38.3669240" lon="-0.6668520">
        <ele>301.1</ele>
        <time>2017-12-18T15:05:02Z</time>
      </trkpt>
      <trkpt lat="38.3668540" lon="-0.6668130">
        <ele>301.1</ele>
        <time>2017-12-18T15:05:03Z</time>
      </trkpt>
      <trkpt lat="38.3667800" lon="-0.6667800">
        <ele>301.1</ele>
        <time>2017-12-18T15:05:04Z</time>
      </trkpt>
      <trkpt lat="38.3667090" lon="-0.6667430">
        <ele>301.1</ele>
        <time>2017-12-18T15:05:05Z</time>
      </trkpt>
      <trkpt lat="38.3666350" lon="-0.6667160">
        <ele>301.1</ele>
        <time>2017-12-18T15:05:06Z</time>
      </trkpt>
      <trkpt lat="38.3665630" lon="-0.6666880">
        <ele>296.1</ele>
        <time>2017-12-18T15:05:07Z</time>
      </trkpt>
      <trkpt lat="38.3664910" lon="-0.6666550">
        <ele>296.1</ele>
        <time>2017-12-18T15:05:08Z</time>
      </trkpt>
      <trkpt lat="38.3664170" lon="-0.6666320">
        <ele>296.1</ele>
        <time>2017-12-18T15:05:09Z</time>
      </trkpt>
      <trkpt lat="38.3663450" lon="-0.6666100">
        <ele>296.1</ele>
        <time>2017-12-18T15:05:10Z</time>
      </trkpt>
      <trkpt lat="38.3662790" lon="-0.6665850">
        <ele>295.2</ele>
        <time>2017-12-18T15:05:11Z</time>
      </trkpt>
      <trkpt lat="38.3662130" lon="-0.6665570">
        <ele>295.2</ele>
        <time>2017-12-18T15:05:12Z</time>
      </trkpt>
      <trkpt lat="38.3661510" lon="-0.6665280">
        <ele>295.2</ele>
        <time>2017-12-18T15:05:13Z</time>
      </trkpt>
      <trkpt lat="38.3661080" lon="-0.6664940">
        <ele>295.2</ele>
        <time>2017-12-18T15:05:14Z</time>
      </trkpt>
      <trkpt lat="38.3660800" lon="-0.6664480">
        <ele>294.1</ele>
        <time>2017-12-18T15:05:15Z</time>
      </trkpt>
      <trkpt lat="38.3660600" lon="-0.6663950">
        <ele>294.1</ele>
        <time>2017-12-18T15:05:16Z</time>
      </trkpt>
      <trkpt lat="38.3660580" lon="-0.6663330">
        <ele>294.1</ele>
        <time>2017-12-18T15:05:17Z</time>
      </trkpt>
      <trkpt lat="38.3660510" lon="-0.6662700">
        <ele>294.1</ele>
        <time>2017-12-18T15:05:18Z</time>
      </trkpt>
      <trkpt lat="38.3660400" lon="-0.6662030">
        <ele>292.2</ele>
        <time>2017-12-18T15:05:19Z</time>
      </trkpt>
      <trkpt lat="38.3660300" lon="-0.6661290">
        <ele>292.2</ele>
        <time>2017-12-18T15:05:20Z</time>
      </trkpt>
      <trkpt lat="38.3660170" lon="-0.6660580">
        <ele>292.2</ele>
        <time>2017-12-18T15:05:21Z</time>
      </trkpt>
      <trkpt lat="38.3660000" lon="-0.6659860">
        <ele>292.2</ele>
        <time>2017-12-18T15:05:22Z</time>
      </trkpt>
      <trkpt lat="38.3659700" lon="-0.6659180">
        <ele>292.2</ele>
        <time>2017-12-18T15:05:23Z</time>
      </trkpt>
      <trkpt lat="38.3659400" lon="-0.6658460">
        <ele>292.2</ele>
        <time>2017-12-18T15:05:24Z</time>
      </trkpt>
      <trkpt lat="38.3659080" lon="-0.6657750">
        <ele>292.2</ele>
        <time>2017-12-18T15:05:25Z</time>
      </trkpt>
      <trkpt lat="38.3658760" lon="-0.6657030">
        <ele>292.2</ele>
        <time>2017-12-18T15:05:26Z</time>
      </trkpt>
      <trkpt lat="38.3658460" lon="-0.6656300">
        <ele>292.2</ele>
        <time>2017-12-18T15:05:27Z</time>
      </trkpt>
      <trkpt lat="38.3658290" lon="-0.6655510">
        <ele>292.2</ele>
        <time>2017-12-18T15:05:28Z</time>
      </trkpt>
      <trkpt lat="38.3658250" lon="-0.6654700">
        <ele>292.2</ele>
        <time>2017-12-18T15:05:29Z</time>
      </trkpt>
      <trkpt lat="38.3658200" lon="-0.6653890">
        <ele>292.2</ele>
        <time>2017-12-18T15:05:30Z</time>
      </trkpt>
      <trkpt lat="38.3658140" lon="-0.6653090">
        <ele>290.2</ele>
        <time>2017-12-18T15:05:31Z</time>
      </trkpt>
      <trkpt lat="38.3658110" lon="-0.6652310">
        <ele>290.2</ele>
        <time>2017-12-18T15:05:32Z</time>
      </trkpt>
      <trkpt lat="38.3658070" lon="-0.6651510">
        <ele>290.2</ele>
        <time>2017-12-18T15:05:33Z</time>
      </trkpt>
      <trkpt lat="38.3658000" lon="-0.6650710">
        <ele>290.2</ele>
        <time>2017-12-18T15:05:34Z</time>
      </trkpt>
      <trkpt lat="38.3657850" lon="-0.6649940">
        <ele>290.2</ele>
        <time>2017-12-18T15:05:35Z</time>
      </trkpt>
      <trkpt lat="38.3657700" lon="-0.6649140">
        <ele>290.2</ele>
        <time>2017-12-18T15:05:36Z</time>
      </trkpt>
      <trkpt lat="38.3657580" lon="-0.6648340">
        <ele>290.2</ele>
        <time>2017-12-18T15:05:37Z</time>
      </trkpt>
      <trkpt lat="38.3657470" lon="-0.6647530">
        <ele>290.2</ele>
        <time>2017-12-18T15:05:38Z</time>
      </trkpt>
      <trkpt lat="38.3657410" lon="-0.6646720">
        <ele>290.2</ele>
        <time>2017-12-18T15:05:39Z</time>
      </trkpt>
      <trkpt lat="38.3657420" lon="-0.6645910">
        <ele>290.2</ele>
        <time>2017-12-18T15:05:40Z</time>
      </trkpt>
      <trkpt lat="38.3657420" lon="-0.6645090">
        <ele>290.2</ele>
        <time>2017-12-18T15:05:41Z</time>
      </trkpt>
      <trkpt lat="38.3657350" lon="-0.6644290">
        <ele>290.2</ele>
        <time>2017-12-18T15:05:42Z</time>
      </trkpt>
      <trkpt lat="38.3657240" lon="-0.6643500">
        <ele>290.2</ele>
        <time>2017-12-18T15:05:43Z</time>
      </trkpt>
      <trkpt lat="38.3657090" lon="-0.6642760">
        <ele>290.2</ele>
        <time>2017-12-18T15:05:44Z</time>
      </trkpt>
      <trkpt lat="38.3656890" lon="-0.6642030">
        <ele>290.2</ele>
        <time>2017-12-18T15:05:45Z</time>
      </trkpt>
      <trkpt lat="38.3656650" lon="-0.6641320">
        <ele>290.2</ele>
        <time>2017-12-18T15:05:46Z</time>
      </trkpt>
      <trkpt lat="38.3656400" lon="-0.6640580">
        <ele>290.2</ele>
        <time>2017-12-18T15:05:47Z</time>
      </trkpt>
      <trkpt lat="38.3656150" lon="-0.6639870">
        <ele>290.2</ele>
        <time>2017-12-18T15:05:48Z</time>
      </trkpt>
      <trkpt lat="38.3655930" lon="-0.6639190">
        <ele>291.1</ele>
        <time>2017-12-18T15:05:49Z</time>
      </trkpt>
      <trkpt lat="38.3655720" lon="-0.6638490">
        <ele>291.1</ele>
        <time>2017-12-18T15:05:50Z</time>
      </trkpt>
      <trkpt lat="38.3655530" lon="-0.6637780">
        <ele>291.1</ele>
        <time>2017-12-18T15:05:51Z</time>
      </trkpt>
      <trkpt lat="38.3655330" lon="-0.6637040">
        <ele>291.1</ele>
        <time>2017-12-18T15:05:52Z</time>
      </trkpt>
      <trkpt lat="38.3655120" lon="-0.6636350">
        <ele>291.1</ele>
        <time>2017-12-18T15:05:53Z</time>
      </trkpt>
      <trkpt lat="38.3654920" lon="-0.6635670">
        <ele>291.1</ele>
        <time>2017-12-18T15:05:54Z</time>
      </trkpt>
      <trkpt lat="38.3654710" lon="-0.6634980">
        <ele>292.2</ele>
        <time>2017-12-18T15:05:55Z</time>
      </trkpt>
      <trkpt lat="38.3654490" lon="-0.6634320">
        <ele>292.2</ele>
        <time>2017-12-18T15:05:56Z</time>
      </trkpt>
      <trkpt lat="38.3654280" lon="-0.6633640">
        <ele>292.2</ele>
        <time>2017-12-18T15:05:57Z</time>
      </trkpt>
      <trkpt lat="38.3654060" lon="-0.6632950">
        <ele>292.2</ele>
        <time>2017-12-18T15:05:58Z</time>
      </trkpt>
      <trkpt lat="38.3653870" lon="-0.6632300">
        <ele>293.2</ele>
        <time>2017-12-18T15:05:59Z</time>
      </trkpt>
      <trkpt lat="38.3653720" lon="-0.6631640">
        <ele>293.2</ele>
        <time>2017-12-18T15:06:00Z</time>
      </trkpt>
      <trkpt lat="38.3653540" lon="-0.6630960">
        <ele>293.2</ele>
        <time>2017-12-18T15:06:01Z</time>
      </trkpt>
      <trkpt lat="38.3653380" lon="-0.6630380">
        <ele>293.2</ele>
        <time>2017-12-18T15:06:02Z</time>
      </trkpt>
      <trkpt lat="38.3653240" lon="-0.6629810">
        <ele>294.1</ele>
        <time>2017-12-18T15:06:03Z</time>
      </trkpt>
      <trkpt lat="38.3653080" lon="-0.6629230">
        <ele>294.1</ele>
        <time>2017-12-18T15:06:04Z</time>
      </trkpt>
      <trkpt lat="38.3652900" lon="-0.6628580">
        <ele>294.1</ele>
        <time>2017-12-18T15:06:05Z</time>
      </trkpt>
      <trkpt lat="38.3652750" lon="-0.6627900">
        <ele>294.1</ele>
        <time>2017-12-18T15:06:06Z</time>
      </trkpt>
      <trkpt lat="38.3652650" lon="-0.6627220">
        <ele>294.1</ele>
        <time>2017-12-18T15:06:07Z</time>
      </trkpt>
      <trkpt lat="38.3652590" lon="-0.6626530">
        <ele>294.1</ele>
        <time>2017-12-18T15:06:08Z</time>
      </trkpt>
      <trkpt lat="38.3652540" lon="-0.6625820">
        <ele>294.1</ele>
        <time>2017-12-18T15:06:09Z</time>
      </trkpt>
      <trkpt lat="38.3652500" lon="-0.6625120">
        <ele>294.1</ele>
        <time>2017-12-18T15:06:10Z</time>
      </trkpt>
      <trkpt lat="38.3652390" lon="-0.6624480">
        <ele>294.1</ele>
        <time>2017-12-18T15:06:11Z</time>
      </trkpt>
      <trkpt lat="38.3652240" lon="-0.6623890">
        <ele>294.1</ele>
        <time>2017-12-18T15:06:12Z</time>
      </trkpt>
      <trkpt lat="38.3652040" lon="-0.6623360">
        <ele>297.2</ele>
        <time>2017-12-18T15:06:13Z</time>
      </trkpt>
      <trkpt lat="38.3651860" lon="-0.6622840">
        <ele>297.2</ele>
        <time>2017-12-18T15:06:14Z</time>
      </trkpt>
      <trkpt lat="38.3651700" lon="-0.6622350">
        <ele>297.2</ele>
        <time>2017-12-18T15:06:15Z</time>
      </trkpt>
      <trkpt lat="38.3651500" lon="-0.6621910">
        <ele>297.2</ele>
        <time>2017-12-18T15:06:16Z</time>
      </trkpt>
      <trkpt lat="38.3651300" lon="-0.6621470">
        <ele>297.2</ele>
        <time>2017-12-18T15:06:17Z</time>
      </trkpt>
      <trkpt lat="38.3651140" lon="-0.6621010">
        <ele>297.2</ele>
        <time>2017-12-18T15:06:18Z</time>
      </trkpt>
      <trkpt lat="38.3651000" lon="-0.6620540">
        <ele>298.1</ele>
        <time>2017-12-18T15:06:19Z</time>
      </trkpt>
      <trkpt lat="38.3650860" lon="-0.6620070">
        <ele>298.1</ele>
        <time>2017-12-18T15:06:20Z</time>
      </trkpt>
      <trkpt lat="38.3650760" lon="-0.6619570">
        <ele>298.1</ele>
        <time>2017-12-18T15:06:21Z</time>
      </trkpt>
      <trkpt lat="38.3650690" lon="-0.6619020">
        <ele>298.1</ele>
        <time>2017-12-18T15:06:22Z</time>
      </trkpt>
      <trkpt lat="38.3650560" lon="-0.6618440">
        <ele>298.1</ele>
        <time>2017-12-18T15:06:23Z</time>
      </trkpt>
      <trkpt lat="38.3650410" lon="-0.6617850">
        <ele>298.1</ele>
        <time>2017-12-18T15:06:24Z</time>
      </trkpt>
      <trkpt lat="38.3650250" lon="-0.6617230">
        <ele>298.1</ele>
        <time>2017-12-18T15:06:25Z</time>
      </trkpt>
      <trkpt lat="38.3650030" lon="-0.6616620">
        <ele>298.1</ele>
        <time>2017-12-18T15:06:26Z</time>
      </trkpt>
      <trkpt lat="38.3649780" lon="-0.6616020">
        <ele>298.1</ele>
        <time>2017-12-18T15:06:27Z</time>
      </trkpt>
      <trkpt lat="38.3649550" lon="-0.6615640">
        <ele>298.1</ele>
        <time>2017-12-18T15:06:28Z</time>
      </trkpt>
      <trkpt lat="38.3649280" lon="-0.6615460">
        <ele>298.1</ele>
        <time>2017-12-18T15:06:29Z</time>
      </trkpt>
      <trkpt lat="38.3648970" lon="-0.6615500">
        <ele>298.1</ele>
        <time>2017-12-18T15:06:30Z</time>
      </trkpt>
      <trkpt lat="38.3648650" lon="-0.6615640">
        <ele>297.2</ele>
        <time>2017-12-18T15:06:31Z</time>
      </trkpt>
      <trkpt lat="38.3648220" lon="-0.6615730">
        <ele>297.2</ele>
        <time>2017-12-18T15:06:32Z</time>
      </trkpt>
      <trkpt lat="38.3647720" lon="-0.6615850">
        <ele>297.2</ele>
        <time>2017-12-18T15:06:33Z</time>
      </trkpt>
      <trkpt lat="38.3647200" lon="-0.6615970">
        <ele>297.2</ele>
        <time>2017-12-18T15:06:34Z</time>
      </trkpt>
      <trkpt lat="38.3646690" lon="-0.6616140">
        <ele>297.2</ele>
        <time>2017-12-18T15:06:35Z</time>
      </trkpt>
      <trkpt lat="38.3646180" lon="-0.6616310">
        <ele>297.2</ele>
        <time>2017-12-18T15:06:36Z</time>
      </trkpt>
      <trkpt lat="38.3645660" lon="-0.6616460">
        <ele>297.2</ele>
        <time>2017-12-18T15:06:37Z</time>
      </trkpt>
      <trkpt lat="38.3645150" lon="-0.6616700">
        <ele>297.2</ele>
        <time>2017-12-18T15:06:38Z</time>
      </trkpt>
      <trkpt lat="38.3644660" lon="-0.6617010">
        <ele>297.2</ele>
        <time>2017-12-18T15:06:39Z</time>
      </trkpt>
      <trkpt lat="38.3644180" lon="-0.6617380">
        <ele>297.2</ele>
        <time>2017-12-18T15:06:40Z</time>
      </trkpt>
      <trkpt lat="38.3643720" lon="-0.6617780">
        <ele>295.2</ele>
        <time>2017-12-18T15:06:41Z</time>
      </trkpt>
      <trkpt lat="38.3643260" lon="-0.6618250">
        <ele>295.2</ele>
        <time>2017-12-18T15:06:42Z</time>
      </trkpt>
      <trkpt lat="38.3642850" lon="-0.6618790">
        <ele>294.1</ele>
        <time>2017-12-18T15:06:43Z</time>
      </trkpt>
      <trkpt lat="38.3642340" lon="-0.6619150">
        <ele>294.1</ele>
        <time>2017-12-18T15:06:44Z</time>
      </trkpt>
      <trkpt lat="38.3641710" lon="-0.6619310">
        <ele>294.1</ele>
        <time>2017-12-18T15:06:45Z</time>
      </trkpt>
      <trkpt lat="38.3641080" lon="-0.6619310">
        <ele>294.1</ele>
        <time>2017-12-18T15:06:46Z</time>
      </trkpt>
      <trkpt lat="38.3640410" lon="-0.6619300">
        <ele>294.1</ele>
        <time>2017-12-18T15:06:47Z</time>
      </trkpt>
      <trkpt lat="38.3639750" lon="-0.6619460">
        <ele>294.1</ele>
        <time>2017-12-18T15:06:48Z</time>
      </trkpt>
      <trkpt lat="38.3639120" lon="-0.6619750">
        <ele>292.2</ele>
        <time>2017-12-18T15:06:49Z</time>
      </trkpt>
      <trkpt lat="38.3638580" lon="-0.6620270">
        <ele>292.2</ele>
        <time>2017-12-18T15:06:50Z</time>
      </trkpt>
      <trkpt lat="38.3638020" lon="-0.6620700">
        <ele>292.2</ele>
        <time>2017-12-18T15:06:51Z</time>
      </trkpt>
      <trkpt lat="38.3637400" lon="-0.6621040">
        <ele>292.2</ele>
        <time>2017-12-18T15:06:52Z</time>
      </trkpt>
      <trkpt lat="38.3636770" lon="-0.6621320">
        <ele>291.1</ele>
        <time>2017-12-18T15:06:53Z</time>
      </trkpt>
      <trkpt lat="38.3636120" lon="-0.6621540">
        <ele>291.1</ele>
        <time>2017-12-18T15:06:54Z</time>
      </trkpt>
      <trkpt lat="38.3635430" lon="-0.6621750">
        <ele>290.2</ele>
        <time>2017-12-18T15:06:55Z</time>
      </trkpt>
      <trkpt lat="38.3634710" lon="-0.6621930">
        <ele>290.2</ele>
        <time>2017-12-18T15:06:56Z</time>
      </trkpt>
      <trkpt lat="38.3633990" lon="-0.6622130">
        <ele>290.2</ele>
        <time>2017-12-18T15:06:57Z</time>
      </trkpt>
      <trkpt lat="38.3633280" lon="-0.6622290">
        <ele>290.2</ele>
        <time>2017-12-18T15:06:58Z</time>
      </trkpt>
      <trkpt lat="38.3632560" lon="-0.6622380">
        <ele>290.2</ele>
        <time>2017-12-18T15:06:59Z</time>
      </trkpt>
      <trkpt lat="38.3631850" lon="-0.6622470">
        <ele>290.2</ele>
        <time>2017-12-18T15:07:00Z</time>
      </trkpt>
      <trkpt lat="38.3631120" lon="-0.6622550">
        <ele>289.1</ele>
        <time>2017-12-18T15:07:01Z</time>
      </trkpt>
      <trkpt lat="38.3630390" lon="-0.6622570">
        <ele>289.1</ele>
        <time>2017-12-18T15:07:02Z</time>
      </trkpt>
      <trkpt lat="38.3629660" lon="-0.6622480">
        <ele>289.1</ele>
        <time>2017-12-18T15:07:03Z</time>
      </trkpt>
      <trkpt lat="38.3628920" lon="-0.6622350">
        <ele>289.1</ele>
        <time>2017-12-18T15:07:04Z</time>
      </trkpt>
      <trkpt lat="38.3628200" lon="-0.6622170">
        <ele>289.1</ele>
        <time>2017-12-18T15:07:05Z</time>
      </trkpt>
      <trkpt lat="38.3627490" lon="-0.6621990">
        <ele>289.1</ele>
        <time>2017-12-18T15:07:06Z</time>
      </trkpt>
      <trkpt lat="38.3626790" lon="-0.6621830">
        <ele>288.2</ele>
        <time>2017-12-18T15:07:07Z</time>
      </trkpt>
      <trkpt lat="38.3626080" lon="-0.6621740">
        <ele>288.2</ele>
        <time>2017-12-18T15:07:08Z</time>
      </trkpt>
      <trkpt lat="38.3625360" lon="-0.6621910">
        <ele>287.1</ele>
        <time>2017-12-18T15:07:09Z</time>
      </trkpt>
      <trkpt lat="38.3624660" lon="-0.6622230">
        <ele>287.1</ele>
        <time>2017-12-18T15:07:10Z</time>
      </trkpt>
      <trkpt lat="38.3624010" lon="-0.6622660">
        <ele>287.1</ele>
        <time>2017-12-18T15:07:11Z</time>
      </trkpt>
      <trkpt lat="38.3623360" lon="-0.6623260">
        <ele>287.1</ele>
        <time>2017-12-18T15:07:12Z</time>
      </trkpt>
      <trkpt lat="38.3622670" lon="-0.6623840">
        <ele>287.1</ele>
        <time>2017-12-18T15:07:13Z</time>
      </trkpt>
      <trkpt lat="38.3621930" lon="-0.6624400">
        <ele>287.1</ele>
        <time>2017-12-18T15:07:14Z</time>
      </trkpt>
      <trkpt lat="38.3621210" lon="-0.6624950">
        <ele>284.1</ele>
        <time>2017-12-18T15:07:15Z</time>
      </trkpt>
      <trkpt lat="38.3620540" lon="-0.6625530">
        <ele>284.1</ele>
        <time>2017-12-18T15:07:16Z</time>
      </trkpt>
      <trkpt lat="38.3619870" lon="-0.6626130">
        <ele>283.2</ele>
        <time>2017-12-18T15:07:17Z</time>
      </trkpt>
      <trkpt lat="38.3619180" lon="-0.6626700">
        <ele>283.2</ele>
        <time>2017-12-18T15:07:18Z</time>
      </trkpt>
      <trkpt lat="38.3618510" lon="-0.6627240">
        <ele>283.2</ele>
        <time>2017-12-18T15:07:19Z</time>
      </trkpt>
      <trkpt lat="38.3617830" lon="-0.6627730">
        <ele>283.2</ele>
        <time>2017-12-18T15:07:20Z</time>
      </trkpt>
      <trkpt lat="38.3617130" lon="-0.6628170">
        <ele>282.1</ele>
        <time>2017-12-18T15:07:21Z</time>
      </trkpt>
      <trkpt lat="38.3616440" lon="-0.6628570">
        <ele>282.1</ele>
        <time>2017-12-18T15:07:22Z</time>
      </trkpt>
      <trkpt lat="38.3615770" lon="-0.6628960">
        <ele>282.1</ele>
        <time>2017-12-18T15:07:23Z</time>
      </trkpt>
      <trkpt lat="38.3615100" lon="-0.6629300">
        <ele>282.1</ele>
        <time>2017-12-18T15:07:24Z</time>
      </trkpt>
      <trkpt lat="38.3614560" lon="-0.6629720">
        <ele>282.1</ele>
        <time>2017-12-18T15:07:25Z</time>
      </trkpt>
      <trkpt lat="38.3614160" lon="-0.6630260">
        <ele>282.1</ele>
        <time>2017-12-18T15:07:26Z</time>
      </trkpt>
      <trkpt lat="38.3613880" lon="-0.6630830">
        <ele>282.1</ele>
        <time>2017-12-18T15:07:27Z</time>
      </trkpt>
      <trkpt lat="38.3613820" lon="-0.6631400">
        <ele>282.1</ele>
        <time>2017-12-18T15:07:28Z</time>
      </trkpt>
      <trkpt lat="38.3613820" lon="-0.6631980">
        <ele>282.1</ele>
        <time>2017-12-18T15:07:29Z</time>
      </trkpt>
      <trkpt lat="38.3613630" lon="-0.6632510">
        <ele>282.1</ele>
        <time>2017-12-18T15:07:30Z</time>
      </trkpt>
      <trkpt lat="38.3613180" lon="-0.6632870">
        <ele>282.1</ele>
        <time>2017-12-18T15:07:31Z</time>
      </trkpt>
      <trkpt lat="38.3612760" lon="-0.6633170">
        <ele>282.1</ele>
        <time>2017-12-18T15:07:32Z</time>
      </trkpt>
      <trkpt lat="38.3612310" lon="-0.6633390">
        <ele>282.1</ele>
        <time>2017-12-18T15:07:33Z</time>
      </trkpt>
      <trkpt lat="38.3611840" lon="-0.6633610">
        <ele>282.1</ele>
        <time>2017-12-18T15:07:34Z</time>
      </trkpt>
      <trkpt lat="38.3611370" lon="-0.6633870">
        <ele>281.2</ele>
        <time>2017-12-18T15:07:35Z</time>
      </trkpt>
      <trkpt lat="38.3610900" lon="-0.6634260">
        <ele>281.2</ele>
        <time>2017-12-18T15:07:36Z</time>
      </trkpt>
      <trkpt lat="38.3610470" lon="-0.6634690">
        <ele>281.2</ele>
        <time>2017-12-18T15:07:37Z</time>
      </trkpt>
      <trkpt lat="38.3610030" lon="-0.6635140">
        <ele>281.2</ele>
        <time>2017-12-18T15:07:38Z</time>
      </trkpt>
      <trkpt lat="38.3609580" lon="-0.6635630">
        <ele>281.2</ele>
        <time>2017-12-18T15:07:39Z</time>
      </trkpt>
      <trkpt lat="38.3609130" lon="-0.6636120">
        <ele>281.2</ele>
        <time>2017-12-18T15:07:40Z</time>
      </trkpt>
      <trkpt lat="38.3608670" lon="-0.6636620">
        <ele>281.2</ele>
        <time>2017-12-18T15:07:41Z</time>
      </trkpt>
      <trkpt lat="38.3608200" lon="-0.6637140">
        <ele>281.2</ele>
        <time>2017-12-18T15:07:42Z</time>
      </trkpt>
      <trkpt lat="38.3607720" lon="-0.6637660">
        <ele>281.2</ele>
        <time>2017-12-18T15:07:43Z</time>
      </trkpt>
      <trkpt lat="38.3607240" lon="-0.6638220">
        <ele>281.2</ele>
        <time>2017-12-18T15:07:44Z</time>
      </trkpt>
      <trkpt lat="38.3606750" lon="-0.6638810">
        <ele>281.2</ele>
        <time>2017-12-18T15:07:45Z</time>
      </trkpt>
      <trkpt lat="38.3606240" lon="-0.6639420">
        <ele>281.2</ele>
        <time>2017-12-18T15:07:46Z</time>
      </trkpt>
      <trkpt lat="38.3605710" lon="-0.6640040">
        <ele>278.1</ele>
        <time>2017-12-18T15:07:47Z</time>
      </trkpt>
      <trkpt lat="38.3605150" lon="-0.6640670">
        <ele>278.1</ele>
        <time>2017-12-18T15:07:48Z</time>
      </trkpt>
      <trkpt lat="38.3604590" lon="-0.6641310">
        <ele>276.2</ele>
        <time>2017-12-18T15:07:49Z</time>
      </trkpt>
      <trkpt lat="38.3603990" lon="-0.6641970">
        <ele>276.2</ele>
        <time>2017-12-18T15:07:50Z</time>
      </trkpt>
      <trkpt lat="38.3603400" lon="-0.6642660">
        <ele>275.1</ele>
        <time>2017-12-18T15:07:51Z</time>
      </trkpt>
      <trkpt lat="38.3602790" lon="-0.6643360">
        <ele>275.1</ele>
        <time>2017-12-18T15:07:52Z</time>
      </trkpt>
      <trkpt lat="38.3602150" lon="-0.6644070">
        <ele>274.2</ele>
        <time>2017-12-18T15:07:53Z</time>
      </trkpt>
      <trkpt lat="38.3601470" lon="-0.6644750">
        <ele>274.2</ele>
        <time>2017-12-18T15:07:54Z</time>
      </trkpt>
      <trkpt lat="38.3600720" lon="-0.6645350">
        <ele>273.1</ele>
        <time>2017-12-18T15:07:55Z</time>
      </trkpt>
      <trkpt lat="38.3599930" lon="-0.6645910">
        <ele>273.1</ele>
        <time>2017-12-18T15:07:56Z</time>
      </trkpt>
      <trkpt lat="38.3599110" lon="-0.6646430">
        <ele>272.2</ele>
        <time>2017-12-18T15:07:57Z</time>
      </trkpt>
      <trkpt lat="38.3598260" lon="-0.6646900">
        <ele>272.2</ele>
        <time>2017-12-18T15:07:58Z</time>
      </trkpt>
      <trkpt lat="38.3597390" lon="-0.6647300">
        <ele>270.2</ele>
        <time>2017-12-18T15:07:59Z</time>
      </trkpt>
      <trkpt lat="38.3596500" lon="-0.6647640">
        <ele>270.2</ele>
        <time>2017-12-18T15:08:00Z</time>
      </trkpt>
      <trkpt lat="38.3595630" lon="-0.6647990">
        <ele>269.1</ele>
        <time>2017-12-18T15:08:01Z</time>
      </trkpt>
      <trkpt lat="38.3594760" lon="-0.6648280">
        <ele>269.1</ele>
        <time>2017-12-18T15:08:02Z</time>
      </trkpt>
      <trkpt lat="38.3593890" lon="-0.6648640">
        <ele>267.2</ele>
        <time>2017-12-18T15:08:03Z</time>
      </trkpt>
      <trkpt lat="38.3593090" lon="-0.6649170">
        <ele>267.2</ele>
        <time>2017-12-18T15:08:04Z</time>
      </trkpt>
      <trkpt lat="38.3592410" lon="-0.6649880">
        <ele>266.1</ele>
        <time>2017-12-18T15:08:05Z</time>
      </trkpt>
      <trkpt lat="38.3591760" lon="-0.6650600">
        <ele>266.1</ele>
        <time>2017-12-18T15:08:06Z</time>
      </trkpt>
      <trkpt lat="38.3591010" lon="-0.6650980">
        <ele>266.1</ele>
        <time>2017-12-18T15:08:07Z</time>
      </trkpt>
      <trkpt lat="38.3590260" lon="-0.6650890">
        <ele>266.1</ele>
        <time>2017-12-18T15:08:08Z</time>
      </trkpt>
      <trkpt lat="38.3589490" lon="-0.6650570">
        <ele>266.1</ele>
        <time>2017-12-18T15:08:09Z</time>
      </trkpt>
      <trkpt lat="38.3588740" lon="-0.6650220">
        <ele>266.1</ele>
        <time>2017-12-18T15:08:10Z</time>
      </trkpt>
      <trkpt lat="38.3587910" lon="-0.6650150">
        <ele>265.2</ele>
        <time>2017-12-18T15:08:11Z</time>
      </trkpt>
      <trkpt lat="38.3587150" lon="-0.6650250">
        <ele>265.2</ele>
        <time>2017-12-18T15:08:12Z</time>
      </trkpt>
      <trkpt lat="38.3586370" lon="-0.6650430">
        <ele>265.2</ele>
        <time>2017-12-18T15:08:13Z</time>
      </trkpt>
      <trkpt lat="38.3585590" lon="-0.6650680">
        <ele>265.2</ele>
        <time>2017-12-18T15:08:14Z</time>
      </trkpt>
      <trkpt lat="38.3584810" lon="-0.6650960">
        <ele>264.1</ele>
        <time>2017-12-18T15:08:15Z</time>
      </trkpt>
      <trkpt lat="38.3583990" lon="-0.6651170">
        <ele>264.1</ele>
        <time>2017-12-18T15:08:16Z</time>
      </trkpt>
      <trkpt lat="38.3583180" lon="-0.6651450">
        <ele>263.2</ele>
        <time>2017-12-18T15:08:17Z</time>
      </trkpt>
      <trkpt lat="38.3582390" lon="-0.6651760">
        <ele>263.2</ele>
        <time>2017-12-18T15:08:18Z</time>
      </trkpt>
      <trkpt lat="38.3581580" lon="-0.6652080">
        <ele>263.2</ele>
        <time>2017-12-18T15:08:19Z</time>
      </trkpt>
      <trkpt lat="38.3580800" lon="-0.6652450">
        <ele>263.2</ele>
        <time>2017-12-18T15:08:20Z</time>
      </trkpt>
      <trkpt lat="38.3580030" lon="-0.6652880">
        <ele>263.2</ele>
        <time>2017-12-18T15:08:21Z</time>
      </trkpt>
      <trkpt lat="38.3579260" lon="-0.6653300">
        <ele>263.2</ele>
        <time>2017-12-18T15:08:22Z</time>
      </trkpt>
      <trkpt lat="38.3578490" lon="-0.6653720">
        <ele>259.1</ele>
        <time>2017-12-18T15:08:23Z</time>
      </trkpt>
      <trkpt lat="38.3577710" lon="-0.6654160">
        <ele>259.1</ele>
        <time>2017-12-18T15:08:24Z</time>
      </trkpt>
      <trkpt lat="38.3576930" lon="-0.6654630">
        <ele>258.2</ele>
        <time>2017-12-18T15:08:25Z</time>
      </trkpt>
      <trkpt lat="38.3576170" lon="-0.6655150">
        <ele>258.2</ele>
        <time>2017-12-18T15:08:26Z</time>
      </trkpt>
      <trkpt lat="38.3575420" lon="-0.6655690">
        <ele>258.2</ele>
        <time>2017-12-18T15:08:27Z</time>
      </trkpt>
      <trkpt lat="38.3574680" lon="-0.6656230">
        <ele>258.2</ele>
        <time>2017-12-18T15:08:28Z</time>
      </trkpt>
      <trkpt lat="38.3573920" lon="-0.6656750">
        <ele>258.2</ele>
        <time>2017-12-18T15:08:29Z</time>
      </trkpt>
      <trkpt lat="38.3573180" lon="-0.6657270">
        <ele>258.2</ele>
        <time>2017-12-18T15:08:30Z</time>
      </trkpt>
      <trkpt lat="38.3572470" lon="-0.6657830">
        <ele>258.2</ele>
        <time>2017-12-18T15:08:31Z</time>
      </trkpt>
      <trkpt lat="38.3571760" lon="-0.6658430">
        <ele>258.2</ele>
        <time>2017-12-18T15:08:32Z</time>
      </trkpt>
      <trkpt lat="38.3571080" lon="-0.6659040">
        <ele>258.2</ele>
        <time>2017-12-18T15:08:33Z</time>
      </trkpt>
      <trkpt lat="38.3570420" lon="-0.6659640">
        <ele>258.2</ele>
        <time>2017-12-18T15:08:34Z</time>
      </trkpt>
      <trkpt lat="38.3569760" lon="-0.6660240">
        <ele>258.2</ele>
        <time>2017-12-18T15:08:35Z</time>
      </trkpt>
      <trkpt lat="38.3569130" lon="-0.6660850">
        <ele>258.2</ele>
        <time>2017-12-18T15:08:36Z</time>
      </trkpt>
      <trkpt lat="38.3568530" lon="-0.6661470">
        <ele>258.2</ele>
        <time>2017-12-18T15:08:37Z</time>
      </trkpt>
      <trkpt lat="38.3567940" lon="-0.6662070">
        <ele>258.2</ele>
        <time>2017-12-18T15:08:38Z</time>
      </trkpt>
      <trkpt lat="38.3567350" lon="-0.6662680">
        <ele>258.2</ele>
        <time>2017-12-18T15:08:39Z</time>
      </trkpt>
      <trkpt lat="38.3566760" lon="-0.6663280">
        <ele>258.2</ele>
        <time>2017-12-18T15:08:40Z</time>
      </trkpt>
      <trkpt lat="38.3566180" lon="-0.6663850">
        <ele>258.2</ele>
        <time>2017-12-18T15:08:41Z</time>
      </trkpt>
      <trkpt lat="38.3565600" lon="-0.6664420">
        <ele>258.2</ele>
        <time>2017-12-18T15:08:42Z</time>
      </trkpt>
      <trkpt lat="38.3565030" lon="-0.6664990">
        <ele>258.2</ele>
        <time>2017-12-18T15:08:43Z</time>
      </trkpt>
      <trkpt lat="38.3564430" lon="-0.6665490">
        <ele>258.2</ele>
        <time>2017-12-18T15:08:44Z</time>
      </trkpt>
      <trkpt lat="38.3563830" lon="-0.6666000">
        <ele>258.2</ele>
        <time>2017-12-18T15:08:45Z</time>
      </trkpt>
      <trkpt lat="38.3563260" lon="-0.6666520">
        <ele>258.2</ele>
        <time>2017-12-18T15:08:46Z</time>
      </trkpt>
      <trkpt lat="38.3562700" lon="-0.6667050">
        <ele>258.2</ele>
        <time>2017-12-18T15:08:47Z</time>
      </trkpt>
      <trkpt lat="38.3562140" lon="-0.6667570">
        <ele>258.2</ele>
        <time>2017-12-18T15:08:48Z</time>
      </trkpt>
      <trkpt lat="38.3561570" lon="-0.6668060">
        <ele>258.2</ele>
        <time>2017-12-18T15:08:49Z</time>
      </trkpt>
      <trkpt lat="38.3561010" lon="-0.6668550">
        <ele>258.2</ele>
        <time>2017-12-18T15:08:50Z</time>
      </trkpt>
      <trkpt lat="38.3560460" lon="-0.6669010">
        <ele>258.2</ele>
        <time>2017-12-18T15:08:51Z</time>
      </trkpt>
      <trkpt lat="38.3559910" lon="-0.6669470">
        <ele>258.2</ele>
        <time>2017-12-18T15:08:52Z</time>
      </trkpt>
      <trkpt lat="38.3559380" lon="-0.6669890">
        <ele>258.2</ele>
        <time>2017-12-18T15:08:53Z</time>
      </trkpt>
      <trkpt lat="38.3558850" lon="-0.6670300">
        <ele>258.2</ele>
        <time>2017-12-18T15:08:54Z</time>
      </trkpt>
      <trkpt lat="38.3558300" lon="-0.6670740">
        <ele>258.2</ele>
        <time>2017-12-18T15:08:55Z</time>
      </trkpt>
      <trkpt lat="38.3557760" lon="-0.6671170">
        <ele>258.2</ele>
        <time>2017-12-18T15:08:56Z</time>
      </trkpt>
      <trkpt lat="38.3557220" lon="-0.6671580">
        <ele>258.2</ele>
        <time>2017-12-18T15:08:57Z</time>
      </trkpt>
      <trkpt lat="38.3556670" lon="-0.6671990">
        <ele>258.2</ele>
        <time>2017-12-18T15:08:58Z</time>
      </trkpt>
      <trkpt lat="38.3556120" lon="-0.6672410">
        <ele>258.2</ele>
        <time>2017-12-18T15:08:59Z</time>
      </trkpt>
      <trkpt lat="38.3555560" lon="-0.6672810">
        <ele>258.2</ele>
        <time>2017-12-18T15:09:00Z</time>
      </trkpt>
      <trkpt lat="38.3554990" lon="-0.6673200">
        <ele>258.2</ele>
        <time>2017-12-18T15:09:01Z</time>
      </trkpt>
      <trkpt lat="38.3554420" lon="-0.6673580">
        <ele>258.2</ele>
        <time>2017-12-18T15:09:02Z</time>
      </trkpt>
      <trkpt lat="38.3553860" lon="-0.6673970">
        <ele>258.2</ele>
        <time>2017-12-18T15:09:03Z</time>
      </trkpt>
      <trkpt lat="38.3553280" lon="-0.6674350">
        <ele>258.2</ele>
        <time>2017-12-18T15:09:04Z</time>
      </trkpt>
      <trkpt lat="38.3552710" lon="-0.6674730">
        <ele>258.2</ele>
        <time>2017-12-18T15:09:05Z</time>
      </trkpt>
      <trkpt lat="38.3552130" lon="-0.6675100">
        <ele>258.2</ele>
        <time>2017-12-18T15:09:06Z</time>
      </trkpt>
      <trkpt lat="38.3551560" lon="-0.6675450">
        <ele>259.1</ele>
        <time>2017-12-18T15:09:07Z</time>
      </trkpt>
      <trkpt lat="38.3550970" lon="-0.6675810">
        <ele>259.1</ele>
        <time>2017-12-18T15:09:08Z</time>
      </trkpt>
      <trkpt lat="38.3550370" lon="-0.6676170">
        <ele>259.1</ele>
        <time>2017-12-18T15:09:09Z</time>
      </trkpt>
      <trkpt lat="38.3549800" lon="-0.6676500">
        <ele>259.1</ele>
        <time>2017-12-18T15:09:10Z</time>
      </trkpt>
      <trkpt lat="38.3549250" lon="-0.6676830">
        <ele>260.2</ele>
        <time>2017-12-18T15:09:11Z</time>
      </trkpt>
      <trkpt lat="38.3548710" lon="-0.6677160">
        <ele>260.2</ele>
        <time>2017-12-18T15:09:12Z</time>
      </trkpt>
      <trkpt lat="38.3548200" lon="-0.6677480">
        <ele>260.2</ele>
        <time>2017-12-18T15:09:13Z</time>
      </trkpt>
      <trkpt lat="38.3547680" lon="-0.6677770">
        <ele>260.2</ele>
        <time>2017-12-18T15:09:14Z</time>
      </trkpt>
      <trkpt lat="38.3547180" lon="-0.6678060">
        <ele>260.2</ele>
        <time>2017-12-18T15:09:15Z</time>
      </trkpt>
      <trkpt lat="38.3546660" lon="-0.6678330">
        <ele>260.2</ele>
        <time>2017-12-18T15:09:16Z</time>
      </trkpt>
      <trkpt lat="38.3546180" lon="-0.6678640">
        <ele>260.2</ele>
        <time>2017-12-18T15:09:17Z</time>
      </trkpt>
      <trkpt lat="38.3545820" lon="-0.6679080">
        <ele>260.2</ele>
        <time>2017-12-18T15:09:18Z</time>
      </trkpt>
      <trkpt lat="38.3545500" lon="-0.6679630">
        <ele>260.2</ele>
        <time>2017-12-18T15:09:19Z</time>
      </trkpt>
      <trkpt lat="38.3545230" lon="-0.6680210">
        <ele>260.2</ele>
        <time>2017-12-18T15:09:20Z</time>
      </trkpt>
      <trkpt lat="38.3544920" lon="-0.6680770">
        <ele>260.2</ele>
        <time>2017-12-18T15:09:21Z</time>
      </trkpt>
      <trkpt lat="38.3544490" lon="-0.6681180">
        <ele>260.2</ele>
        <time>2017-12-18T15:09:22Z</time>
      </trkpt>
      <trkpt lat="38.3544010" lon="-0.6681510">
        <ele>260.2</ele>
        <time>2017-12-18T15:09:23Z</time>
      </trkpt>
      <trkpt lat="38.3543500" lon="-0.6681820">
        <ele>260.2</ele>
        <time>2017-12-18T15:09:24Z</time>
      </trkpt>
      <trkpt lat="38.3542970" lon="-0.6682130">
        <ele>260.2</ele>
        <time>2017-12-18T15:09:25Z</time>
      </trkpt>
      <trkpt lat="38.3542460" lon="-0.6682470">
        <ele>260.2</ele>
        <time>2017-12-18T15:09:26Z</time>
      </trkpt>
      <trkpt lat="38.3541960" lon="-0.6682840">
        <ele>260.2</ele>
        <time>2017-12-18T15:09:27Z</time>
      </trkpt>
      <trkpt lat="38.3541500" lon="-0.6683290">
        <ele>260.2</ele>
        <time>2017-12-18T15:09:28Z</time>
      </trkpt>
      <trkpt lat="38.3541020" lon="-0.6683740">
        <ele>260.2</ele>
        <time>2017-12-18T15:09:29Z</time>
      </trkpt>
      <trkpt lat="38.3540520" lon="-0.6684190">
        <ele>260.2</ele>
        <time>2017-12-18T15:09:30Z</time>
      </trkpt>
      <trkpt lat="38.3540010" lon="-0.6684650">
        <ele>260.2</ele>
        <time>2017-12-18T15:09:31Z</time>
      </trkpt>
      <trkpt lat="38.3539470" lon="-0.6685110">
        <ele>260.2</ele>
        <time>2017-12-18T15:09:32Z</time>
      </trkpt>
      <trkpt lat="38.3538920" lon="-0.6685560">
        <ele>260.2</ele>
        <time>2017-12-18T15:09:33Z</time>
      </trkpt>
      <trkpt lat="38.3538350" lon="-0.6686030">
        <ele>260.2</ele>
        <time>2017-12-18T15:09:34Z</time>
      </trkpt>
      <trkpt lat="38.3537750" lon="-0.6686510">
        <ele>260.2</ele>
        <time>2017-12-18T15:09:35Z</time>
      </trkpt>
      <trkpt lat="38.3537110" lon="-0.6686970">
        <ele>260.2</ele>
        <time>2017-12-18T15:09:36Z</time>
      </trkpt>
      <trkpt lat="38.3536420" lon="-0.6687340">
        <ele>256.2</ele>
        <time>2017-12-18T15:09:37Z</time>
      </trkpt>
      <trkpt lat="38.3535670" lon="-0.6687630">
        <ele>256.2</ele>
        <time>2017-12-18T15:09:38Z</time>
      </trkpt>
      <trkpt lat="38.3534880" lon="-0.6687840">
        <ele>255.1</ele>
        <time>2017-12-18T15:09:39Z</time>
      </trkpt>
      <trkpt lat="38.3534060" lon="-0.6688020">
        <ele>255.1</ele>
        <time>2017-12-18T15:09:40Z</time>
      </trkpt>
      <trkpt lat="38.3533200" lon="-0.6688340">
        <ele>254.2</ele>
        <time>2017-12-18T15:09:41Z</time>
      </trkpt>
      <trkpt lat="38.3532500" lon="-0.6688990">
        <ele>254.2</ele>
        <time>2017-12-18T15:09:42Z</time>
      </trkpt>
      <trkpt lat="38.3531930" lon="-0.6689800">
        <ele>254.2</ele>
        <time>2017-12-18T15:09:43Z</time>
      </trkpt>
      <trkpt lat="38.3531320" lon="-0.6690550">
        <ele>254.2</ele>
        <time>2017-12-18T15:09:44Z</time>
      </trkpt>
      <trkpt lat="38.3530620" lon="-0.6691110">
        <ele>254.2</ele>
        <time>2017-12-18T15:09:45Z</time>
      </trkpt>
      <trkpt lat="38.3529820" lon="-0.6691420">
        <ele>254.2</ele>
        <time>2017-12-18T15:09:46Z</time>
      </trkpt>
      <trkpt lat="38.3529020" lon="-0.6691440">
        <ele>251.2</ele>
        <time>2017-12-18T15:09:47Z</time>
      </trkpt>
      <trkpt lat="38.3528250" lon="-0.6691120">
        <ele>251.2</ele>
        <time>2017-12-18T15:09:48Z</time>
      </trkpt>
      <trkpt lat="38.3527550" lon="-0.6690560">
        <ele>251.2</ele>
        <time>2017-12-18T15:09:49Z</time>
      </trkpt>
      <trkpt lat="38.3526860" lon="-0.6689950">
        <ele>251.2</ele>
        <time>2017-12-18T15:09:50Z</time>
      </trkpt>
      <trkpt lat="38.3526160" lon="-0.6689350">
        <ele>251.2</ele>
        <time>2017-12-18T15:09:51Z</time>
      </trkpt>
      <trkpt lat="38.3525410" lon="-0.6688870">
        <ele>251.2</ele>
        <time>2017-12-18T15:09:52Z</time>
      </trkpt>
      <trkpt lat="38.3524610" lon="-0.6688600">
        <ele>251.2</ele>
        <time>2017-12-18T15:09:53Z</time>
      </trkpt>
      <trkpt lat="38.3523810" lon="-0.6688590">
        <ele>251.2</ele>
        <time>2017-12-18T15:09:54Z</time>
      </trkpt>
      <trkpt lat="38.3523060" lon="-0.6688770">
        <ele>251.2</ele>
        <time>2017-12-18T15:09:55Z</time>
      </trkpt>
      <trkpt lat="38.3522330" lon="-0.6689060">
        <ele>251.2</ele>
        <time>2017-12-18T15:09:56Z</time>
      </trkpt>
      <trkpt lat="38.3521630" lon="-0.6689360">
        <ele>251.2</ele>
        <time>2017-12-18T15:09:57Z</time>
      </trkpt>
      <trkpt lat="38.3520930" lon="-0.6689620">
        <ele>251.2</ele>
        <time>2017-12-18T15:09:58Z</time>
      </trkpt>
      <trkpt lat="38.3520250" lon="-0.6689870">
        <ele>251.2</ele>
        <time>2017-12-18T15:09:59Z</time>
      </trkpt>
      <trkpt lat="38.3519570" lon="-0.6690110">
        <ele>251.2</ele>
        <time>2017-12-18T15:10:00Z</time>
      </trkpt>
      <trkpt lat="38.3518890" lon="-0.6690350">
        <ele>251.2</ele>
        <time>2017-12-18T15:10:01Z</time>
      </trkpt>
      <trkpt lat="38.3518210" lon="-0.6690580">
        <ele>251.2</ele>
        <time>2017-12-18T15:10:02Z</time>
      </trkpt>
      <trkpt lat="38.3517510" lon="-0.6690810">
        <ele>251.2</ele>
        <time>2017-12-18T15:10:03Z</time>
      </trkpt>
      <trkpt lat="38.3516810" lon="-0.6691040">
        <ele>251.2</ele>
        <time>2017-12-18T15:10:04Z</time>
      </trkpt>
      <trkpt lat="38.3516100" lon="-0.6691270">
        <ele>251.2</ele>
        <time>2017-12-18T15:10:05Z</time>
      </trkpt>
      <trkpt lat="38.3515380" lon="-0.6691490">
        <ele>251.2</ele>
        <time>2017-12-18T15:10:06Z</time>
      </trkpt>
      <trkpt lat="38.3514650" lon="-0.6691690">
        <ele>251.2</ele>
        <time>2017-12-18T15:10:07Z</time>
      </trkpt>
      <trkpt lat="38.3513900" lon="-0.6691870">
        <ele>251.2</ele>
        <time>2017-12-18T15:10:08Z</time>
      </trkpt>
      <trkpt lat="38.3513120" lon="-0.6692030">
        <ele>251.2</ele>
        <time>2017-12-18T15:10:09Z</time>
      </trkpt>
      <trkpt lat="38.3512320" lon="-0.6692150">
        <ele>251.2</ele>
        <time>2017-12-18T15:10:10Z</time>
      </trkpt>
      <trkpt lat="38.3511510" lon="-0.6692230">
        <ele>251.2</ele>
        <time>2017-12-18T15:10:11Z</time>
      </trkpt>
      <trkpt lat="38.3510710" lon="-0.6692260">
        <ele>251.2</ele>
        <time>2017-12-18T15:10:12Z</time>
      </trkpt>
      <trkpt lat="38.3509900" lon="-0.6692290">
        <ele>249.2</ele>
        <time>2017-12-18T15:10:13Z</time>
      </trkpt>
      <trkpt lat="38.3509090" lon="-0.6692290">
        <ele>249.2</ele>
        <time>2017-12-18T15:10:14Z</time>
      </trkpt>
      <trkpt lat="38.3508280" lon="-0.6692310">
        <ele>249.2</ele>
        <time>2017-12-18T15:10:15Z</time>
      </trkpt>
      <trkpt lat="38.3507460" lon="-0.6692340">
        <ele>249.2</ele>
        <time>2017-12-18T15:10:16Z</time>
      </trkpt>
      <trkpt lat="38.3506610" lon="-0.6692360">
        <ele>248.1</ele>
        <time>2017-12-18T15:10:17Z</time>
      </trkpt>
      <trkpt lat="38.3505760" lon="-0.6692390">
        <ele>248.1</ele>
        <time>2017-12-18T15:10:18Z</time>
      </trkpt>
      <trkpt lat="38.3504870" lon="-0.6692500">
        <ele>247.2</ele>
        <time>2017-12-18T15:10:19Z</time>
      </trkpt>
      <trkpt lat="38.3504060" lon="-0.6692840">
        <ele>247.2</ele>
        <time>2017-12-18T15:10:20Z</time>
      </trkpt>
      <trkpt lat="38.3503400" lon="-0.6693510">
        <ele>246.1</ele>
        <time>2017-12-18T15:10:21Z</time>
      </trkpt>
      <trkpt lat="38.3502860" lon="-0.6694360">
        <ele>246.1</ele>
        <time>2017-12-18T15:10:22Z</time>
      </trkpt>
      <trkpt lat="38.3502470" lon="-0.6695150">
        <ele>246.1</ele>
        <time>2017-12-18T15:10:23Z</time>
      </trkpt>
      <trkpt lat="38.3502010" lon="-0.6695960">
        <ele>246.1</ele>
        <time>2017-12-18T15:10:24Z</time>
      </trkpt>
      <trkpt lat="38.3501600" lon="-0.6696730">
        <ele>246.1</ele>
        <time>2017-12-18T15:10:25Z</time>
      </trkpt>
      <trkpt lat="38.3501210" lon="-0.6697470">
        <ele>246.1</ele>
        <time>2017-12-18T15:10:26Z</time>
      </trkpt>
      <trkpt lat="38.3500740" lon="-0.6698090">
        <ele>245.2</ele>
        <time>2017-12-18T15:10:27Z</time>
      </trkpt>
      <trkpt lat="38.3500250" lon="-0.6698560">
        <ele>245.2</ele>
        <time>2017-12-18T15:10:28Z</time>
      </trkpt>
      <trkpt lat="38.3499630" lon="-0.6699060">
        <ele>245.2</ele>
        <time>2017-12-18T15:10:29Z</time>
      </trkpt>
      <trkpt lat="38.3498980" lon="-0.6699410">
        <ele>245.2</ele>
        <time>2017-12-18T15:10:30Z</time>
      </trkpt>
      <trkpt lat="38.3498270" lon="-0.6699660">
        <ele>245.2</ele>
        <time>2017-12-18T15:10:31Z</time>
      </trkpt>
      <trkpt lat="38.3497560" lon="-0.6699770">
        <ele>245.2</ele>
        <time>2017-12-18T15:10:32Z</time>
      </trkpt>
      <trkpt lat="38.3496850" lon="-0.6699770">
        <ele>244.1</ele>
        <time>2017-12-18T15:10:33Z</time>
      </trkpt>
      <trkpt lat="38.3496130" lon="-0.6699600">
        <ele>244.1</ele>
        <time>2017-12-18T15:10:34Z</time>
      </trkpt>
      <trkpt lat="38.3495390" lon="-0.6699290">
        <ele>244.1</ele>
        <time>2017-12-18T15:10:35Z</time>
      </trkpt>
      <trkpt lat="38.3494740" lon="-0.6698780">
        <ele>244.1</ele>
        <time>2017-12-18T15:10:36Z</time>
      </trkpt>
      <trkpt lat="38.3494100" lon="-0.6698240">
        <ele>243.1</ele>
        <time>2017-12-18T15:10:37Z</time>
      </trkpt>
      <trkpt lat="38.3493220" lon="-0.6697910">
        <ele>243.1</ele>
        <time>2017-12-18T15:10:38Z</time>
      </trkpt>
      <trkpt lat="38.3492540" lon="-0.6698040">
        <ele>242.2</ele>
        <time>2017-12-18T15:10:39Z</time>
      </trkpt>
      <trkpt lat="38.3491930" lon="-0.6698330">
        <ele>242.2</ele>
        <time>2017-12-18T15:10:40Z</time>
      </trkpt>
      <trkpt lat="38.3491320" lon="-0.6698250">
        <ele>242.2</ele>
        <time>2017-12-18T15:10:41Z</time>
      </trkpt>
      <trkpt lat="38.3490930" lon="-0.6697740">
        <ele>242.2</ele>
        <time>2017-12-18T15:10:42Z</time>
      </trkpt>
      <trkpt lat="38.3490590" lon="-0.6697190">
        <ele>242.2</ele>
        <time>2017-12-18T15:10:43Z</time>
      </trkpt>
      <trkpt lat="38.3490200" lon="-0.6696630">
        <ele>242.2</ele>
        <time>2017-12-18T15:10:44Z</time>
      </trkpt>
      <trkpt lat="38.3489840" lon="-0.6696040">
        <ele>242.2</ele>
        <time>2017-12-18T15:10:45Z</time>
      </trkpt>
      <trkpt lat="38.3489480" lon="-0.6695440">
        <ele>242.2</ele>
        <time>2017-12-18T15:10:46Z</time>
      </trkpt>
      <trkpt lat="38.3489090" lon="-0.6694870">
        <ele>245.2</ele>
        <time>2017-12-18T15:10:47Z</time>
      </trkpt>
      <trkpt lat="38.3488660" lon="-0.6694300">
        <ele>245.2</ele>
        <time>2017-12-18T15:10:48Z</time>
      </trkpt>
      <trkpt lat="38.3488220" lon="-0.6693740">
        <ele>245.2</ele>
        <time>2017-12-18T15:10:49Z</time>
      </trkpt>
      <trkpt lat="38.3487740" lon="-0.6693200">
        <ele>245.2</ele>
        <time>2017-12-18T15:10:50Z</time>
      </trkpt>
      <trkpt lat="38.3487220" lon="-0.6692690">
        <ele>245.2</ele>
        <time>2017-12-18T15:10:51Z</time>
      </trkpt>
      <trkpt lat="38.3486670" lon="-0.6692200">
        <ele>245.2</ele>
        <time>2017-12-18T15:10:52Z</time>
      </trkpt>
      <trkpt lat="38.3486100" lon="-0.6691700">
        <ele>245.2</ele>
        <time>2017-12-18T15:10:53Z</time>
      </trkpt>
      <trkpt lat="38.3485490" lon="-0.6691240">
        <ele>245.2</ele>
        <time>2017-12-18T15:10:54Z</time>
      </trkpt>
      <trkpt lat="38.3484800" lon="-0.6690820">
        <ele>244.1</ele>
        <time>2017-12-18T15:10:55Z</time>
      </trkpt>
      <trkpt lat="38.3484080" lon="-0.6690390">
        <ele>244.1</ele>
        <time>2017-12-18T15:10:56Z</time>
      </trkpt>
      <trkpt lat="38.3483340" lon="-0.6689960">
        <ele>243.1</ele>
        <time>2017-12-18T15:10:57Z</time>
      </trkpt>
      <trkpt lat="38.3482550" lon="-0.6689530">
        <ele>243.1</ele>
        <time>2017-12-18T15:10:58Z</time>
      </trkpt>
      <trkpt lat="38.3481720" lon="-0.6689090">
        <ele>243.1</ele>
        <time>2017-12-18T15:10:59Z</time>
      </trkpt>
      <trkpt lat="38.3480840" lon="-0.6688640">
        <ele>243.1</ele>
        <time>2017-12-18T15:11:00Z</time>
      </trkpt>
      <trkpt lat="38.3479980" lon="-0.6688160">
        <ele>243.1</ele>
        <time>2017-12-18T15:11:01Z</time>
      </trkpt>
      <trkpt lat="38.3479090" lon="-0.6687660">
        <ele>243.1</ele>
        <time>2017-12-18T15:11:02Z</time>
      </trkpt>
      <trkpt lat="38.3478210" lon="-0.6687170">
        <ele>239.1</ele>
        <time>2017-12-18T15:11:03Z</time>
      </trkpt>
      <trkpt lat="38.3477370" lon="-0.6686690">
        <ele>239.1</ele>
        <time>2017-12-18T15:11:04Z</time>
      </trkpt>
      <trkpt lat="38.3476510" lon="-0.6686240">
        <ele>239.1</ele>
        <time>2017-12-18T15:11:05Z</time>
      </trkpt>
      <trkpt lat="38.3475660" lon="-0.6685780">
        <ele>239.1</ele>
        <time>2017-12-18T15:11:06Z</time>
      </trkpt>
      <trkpt lat="38.3474810" lon="-0.6685310">
        <ele>238.2</ele>
        <time>2017-12-18T15:11:07Z</time>
      </trkpt>
      <trkpt lat="38.3473970" lon="-0.6684870">
        <ele>238.2</ele>
        <time>2017-12-18T15:11:08Z</time>
      </trkpt>
      <trkpt lat="38.3473130" lon="-0.6684410">
        <ele>238.2</ele>
        <time>2017-12-18T15:11:09Z</time>
      </trkpt>
      <trkpt lat="38.3472310" lon="-0.6683930">
        <ele>238.2</ele>
        <time>2017-12-18T15:11:10Z</time>
      </trkpt>
      <trkpt lat="38.3471490" lon="-0.6683480">
        <ele>238.2</ele>
        <time>2017-12-18T15:11:11Z</time>
      </trkpt>
      <trkpt lat="38.3470680" lon="-0.6683060">
        <ele>238.2</ele>
        <time>2017-12-18T15:11:12Z</time>
      </trkpt>
      <trkpt lat="38.3469910" lon="-0.6682630">
        <ele>237.1</ele>
        <time>2017-12-18T15:11:13Z</time>
      </trkpt>
      <trkpt lat="38.3469150" lon="-0.6682200">
        <ele>237.1</ele>
        <time>2017-12-18T15:11:14Z</time>
      </trkpt>
      <trkpt lat="38.3468410" lon="-0.6681790">
        <ele>237.1</ele>
        <time>2017-12-18T15:11:15Z</time>
      </trkpt>
      <trkpt lat="38.3467640" lon="-0.6681380">
        <ele>237.1</ele>
        <time>2017-12-18T15:11:16Z</time>
      </trkpt>
      <trkpt lat="38.3466860" lon="-0.6680940">
        <ele>235.2</ele>
        <time>2017-12-18T15:11:17Z</time>
      </trkpt>
      <trkpt lat="38.3466050" lon="-0.6680480">
        <ele>235.2</ele>
        <time>2017-12-18T15:11:18Z</time>
      </trkpt>
      <trkpt lat="38.3465190" lon="-0.6679980">
        <ele>235.2</ele>
        <time>2017-12-18T15:11:19Z</time>
      </trkpt>
      <trkpt lat="38.3464350" lon="-0.6679500">
        <ele>235.2</ele>
        <time>2017-12-18T15:11:20Z</time>
      </trkpt>
      <trkpt lat="38.3463590" lon="-0.6679080">
        <ele>235.2</ele>
        <time>2017-12-18T15:11:21Z</time>
      </trkpt>
      <trkpt lat="38.3462860" lon="-0.6678670">
        <ele>235.2</ele>
        <time>2017-12-18T15:11:22Z</time>
      </trkpt>
      <trkpt lat="38.3462170" lon="-0.6678290">
        <ele>235.2</ele>
        <time>2017-12-18T15:11:23Z</time>
      </trkpt>
      <trkpt lat="38.3461500" lon="-0.6677920">
        <ele>235.2</ele>
        <time>2017-12-18T15:11:24Z</time>
      </trkpt>
      <trkpt lat="38.3460790" lon="-0.6677540">
        <ele>234.1</ele>
        <time>2017-12-18T15:11:25Z</time>
      </trkpt>
      <trkpt lat="38.3460060" lon="-0.6677140">
        <ele>234.1</ele>
        <time>2017-12-18T15:11:26Z</time>
      </trkpt>
      <trkpt lat="38.3459300" lon="-0.6676720">
        <ele>234.1</ele>
        <time>2017-12-18T15:11:27Z</time>
      </trkpt>
      <trkpt lat="38.3458510" lon="-0.6676300">
        <ele>234.1</ele>
        <time>2017-12-18T15:11:28Z</time>
      </trkpt>
      <trkpt lat="38.3457710" lon="-0.6675870">
        <ele>232.1</ele>
        <time>2017-12-18T15:11:29Z</time>
      </trkpt>
      <trkpt lat="38.3456880" lon="-0.6675430">
        <ele>232.1</ele>
        <time>2017-12-18T15:11:30Z</time>
      </trkpt>
      <trkpt lat="38.3456020" lon="-0.6674980">
        <ele>230.1</ele>
        <time>2017-12-18T15:11:31Z</time>
      </trkpt>
      <trkpt lat="38.3455140" lon="-0.6674520">
        <ele>230.1</ele>
        <time>2017-12-18T15:11:32Z</time>
      </trkpt>
      <trkpt lat="38.3454250" lon="-0.6674050">
        <ele>229.2</ele>
        <time>2017-12-18T15:11:33Z</time>
      </trkpt>
      <trkpt lat="38.3453360" lon="-0.6673570">
        <ele>229.2</ele>
        <time>2017-12-18T15:11:34Z</time>
      </trkpt>
      <trkpt lat="38.3452490" lon="-0.6673110">
        <ele>227.1</ele>
        <time>2017-12-18T15:11:35Z</time>
      </trkpt>
      <trkpt lat="38.3451610" lon="-0.6672650">
        <ele>227.1</ele>
        <time>2017-12-18T15:11:36Z</time>
      </trkpt>
      <trkpt lat="38.3450740" lon="-0.6672210">
        <ele>227.1</ele>
        <time>2017-12-18T15:11:37Z</time>
      </trkpt>
      <trkpt lat="38.3449870" lon="-0.6671760">
        <ele>227.1</ele>
        <time>2017-12-18T15:11:38Z</time>
      </trkpt>
      <trkpt lat="38.3448990" lon="-0.6671320">
        <ele>226.2</ele>
        <time>2017-12-18T15:11:39Z</time>
      </trkpt>
      <trkpt lat="38.3448120" lon="-0.6670910">
        <ele>226.2</ele>
        <time>2017-12-18T15:11:40Z</time>
      </trkpt>
      <trkpt lat="38.3447290" lon="-0.6670550">
        <ele>226.2</ele>
        <time>2017-12-18T15:11:41Z</time>
      </trkpt>
      <trkpt lat="38.3446500" lon="-0.6670220">
        <ele>226.2</ele>
        <time>2017-12-18T15:11:42Z</time>
      </trkpt>
      <trkpt lat="38.3445750" lon="-0.6669950">
        <ele>227.1</ele>
        <time>2017-12-18T15:11:43Z</time>
      </trkpt>
      <trkpt lat="38.3445030" lon="-0.6669740">
        <ele>227.1</ele>
        <time>2017-12-18T15:11:44Z</time>
      </trkpt>
      <trkpt lat="38.3444320" lon="-0.6669550">
        <ele>228.1</ele>
        <time>2017-12-18T15:11:45Z</time>
      </trkpt>
      <trkpt lat="38.3443630" lon="-0.6669370">
        <ele>228.1</ele>
        <time>2017-12-18T15:11:46Z</time>
      </trkpt>
      <trkpt lat="38.3442970" lon="-0.6669200">
        <ele>229.2</ele>
        <time>2017-12-18T15:11:47Z</time>
      </trkpt>
      <trkpt lat="38.3442330" lon="-0.6669060">
        <ele>229.2</ele>
        <time>2017-12-18T15:11:48Z</time>
      </trkpt>
      <trkpt lat="38.3441730" lon="-0.6668920">
        <ele>230.1</ele>
        <time>2017-12-18T15:11:49Z</time>
      </trkpt>
      <trkpt lat="38.3441160" lon="-0.6668780">
        <ele>230.1</ele>
        <time>2017-12-18T15:11:50Z</time>
      </trkpt>
      <trkpt lat="38.3440590" lon="-0.6668630">
        <ele>231.2</ele>
        <time>2017-12-18T15:11:51Z</time>
      </trkpt>
      <trkpt lat="38.3440010" lon="-0.6668470">
        <ele>231.2</ele>
        <time>2017-12-18T15:11:52Z</time>
      </trkpt>
      <trkpt lat="38.3439400" lon="-0.6668330">
        <ele>231.2</ele>
        <time>2017-12-18T15:11:53Z</time>
      </trkpt>
      <trkpt lat="38.3438800" lon="-0.6668190">
        <ele>231.2</ele>
        <time>2017-12-18T15:11:54Z</time>
      </trkpt>
      <trkpt lat="38.3438190" lon="-0.6668020">
        <ele>231.2</ele>
        <time>2017-12-18T15:11:55Z</time>
      </trkpt>
      <trkpt lat="38.3437550" lon="-0.6667810">
        <ele>231.2</ele>
        <time>2017-12-18T15:11:56Z</time>
      </trkpt>
      <trkpt lat="38.3436920" lon="-0.6667600">
        <ele>232.1</ele>
        <time>2017-12-18T15:11:57Z</time>
      </trkpt>
      <trkpt lat="38.3436280" lon="-0.6667380">
        <ele>232.1</ele>
        <time>2017-12-18T15:11:58Z</time>
      </trkpt>
      <trkpt lat="38.3435670" lon="-0.6667130">
        <ele>232.1</ele>
        <time>2017-12-18T15:11:59Z</time>
      </trkpt>
      <trkpt lat="38.3435050" lon="-0.6666870">
        <ele>232.1</ele>
        <time>2017-12-18T15:12:00Z</time>
      </trkpt>
      <trkpt lat="38.3434420" lon="-0.6666600">
        <ele>232.1</ele>
        <time>2017-12-18T15:12:01Z</time>
      </trkpt>
      <trkpt lat="38.3433770" lon="-0.6666330">
        <ele>232.1</ele>
        <time>2017-12-18T15:12:02Z</time>
      </trkpt>
      <trkpt lat="38.3433100" lon="-0.6666050">
        <ele>231.2</ele>
        <time>2017-12-18T15:12:03Z</time>
      </trkpt>
      <trkpt lat="38.3432420" lon="-0.6665770">
        <ele>231.2</ele>
        <time>2017-12-18T15:12:04Z</time>
      </trkpt>
      <trkpt lat="38.3431710" lon="-0.6665480">
        <ele>230.1</ele>
        <time>2017-12-18T15:12:05Z</time>
      </trkpt>
      <trkpt lat="38.3430990" lon="-0.6665190">
        <ele>230.1</ele>
        <time>2017-12-18T15:12:06Z</time>
      </trkpt>
      <trkpt lat="38.3430270" lon="-0.6664890">
        <ele>229.2</ele>
        <time>2017-12-18T15:12:07Z</time>
      </trkpt>
      <trkpt lat="38.3429550" lon="-0.6664590">
        <ele>229.2</ele>
        <time>2017-12-18T15:12:08Z</time>
      </trkpt>
      <trkpt lat="38.3428810" lon="-0.6664320">
        <ele>229.2</ele>
        <time>2017-12-18T15:12:09Z</time>
      </trkpt>
      <trkpt lat="38.3428050" lon="-0.6664120">
        <ele>229.2</ele>
        <time>2017-12-18T15:12:10Z</time>
      </trkpt>
      <trkpt lat="38.3427250" lon="-0.6663970">
        <ele>228.1</ele>
        <time>2017-12-18T15:12:11Z</time>
      </trkpt>
      <trkpt lat="38.3426460" lon="-0.6663910">
        <ele>228.1</ele>
        <time>2017-12-18T15:12:12Z</time>
      </trkpt>
      <trkpt lat="38.3425660" lon="-0.6663930">
        <ele>227.1</ele>
        <time>2017-12-18T15:12:13Z</time>
      </trkpt>
      <trkpt lat="38.3424870" lon="-0.6664000">
        <ele>227.1</ele>
        <time>2017-12-18T15:12:14Z</time>
      </trkpt>
      <trkpt lat="38.3424090" lon="-0.6664110">
        <ele>226.2</ele>
        <time>2017-12-18T15:12:15Z</time>
      </trkpt>
      <trkpt lat="38.3423300" lon="-0.6664250">
        <ele>226.2</ele>
        <time>2017-12-18T15:12:16Z</time>
      </trkpt>
      <trkpt lat="38.3422530" lon="-0.6664440">
        <ele>226.2</ele>
        <time>2017-12-18T15:12:17Z</time>
      </trkpt>
      <trkpt lat="38.3421740" lon="-0.6664590">
        <ele>226.2</ele>
        <time>2017-12-18T15:12:18Z</time>
      </trkpt>
      <trkpt lat="38.3420950" lon="-0.6664730">
        <ele>225.1</ele>
        <time>2017-12-18T15:12:19Z</time>
      </trkpt>
      <trkpt lat="38.3420140" lon="-0.6664850">
        <ele>225.1</ele>
        <time>2017-12-18T15:12:20Z</time>
      </trkpt>
      <trkpt lat="38.3419300" lon="-0.6664970">
        <ele>224.2</ele>
        <time>2017-12-18T15:12:21Z</time>
      </trkpt>
      <trkpt lat="38.3418480" lon="-0.6665070">
        <ele>224.2</ele>
        <time>2017-12-18T15:12:22Z</time>
      </trkpt>
      <trkpt lat="38.3417660" lon="-0.6665150">
        <ele>224.2</ele>
        <time>2017-12-18T15:12:23Z</time>
      </trkpt>
      <trkpt lat="38.3416820" lon="-0.6665190">
        <ele>224.2</ele>
        <time>2017-12-18T15:12:24Z</time>
      </trkpt>
      <trkpt lat="38.3415970" lon="-0.6665170">
        <ele>223.1</ele>
        <time>2017-12-18T15:12:25Z</time>
      </trkpt>
      <trkpt lat="38.3415120" lon="-0.6665150">
        <ele>223.1</ele>
        <time>2017-12-18T15:12:26Z</time>
      </trkpt>
      <trkpt lat="38.3414270" lon="-0.6665120">
        <ele>223.1</ele>
        <time>2017-12-18T15:12:27Z</time>
      </trkpt>
      <trkpt lat="38.3413410" lon="-0.6665080">
        <ele>223.1</ele>
        <time>2017-12-18T15:12:28Z</time>
      </trkpt>
      <trkpt lat="38.3412550" lon="-0.6665020">
        <ele>222.2</ele>
        <time>2017-12-18T15:12:29Z</time>
      </trkpt>
      <trkpt lat="38.3411700" lon="-0.6664940">
        <ele>222.2</ele>
        <time>2017-12-18T15:12:30Z</time>
      </trkpt>
      <trkpt lat="38.3410840" lon="-0.6664850">
        <ele>222.2</ele>
        <time>2017-12-18T15:12:31Z</time>
      </trkpt>
      <trkpt lat="38.3409980" lon="-0.6664730">
        <ele>222.2</ele>
        <time>2017-12-18T15:12:32Z</time>
      </trkpt>
      <trkpt lat="38.3409110" lon="-0.6664580">
        <ele>221.1</ele>
        <time>2017-12-18T15:12:33Z</time>
      </trkpt>
      <trkpt lat="38.3408240" lon="-0.6664420">
        <ele>221.1</ele>
        <time>2017-12-18T15:12:34Z</time>
      </trkpt>
      <trkpt lat="38.3407370" lon="-0.6664230">
        <ele>221.1</ele>
        <time>2017-12-18T15:12:35Z</time>
      </trkpt>
      <trkpt lat="38.3406510" lon="-0.6664030">
        <ele>221.1</ele>
        <time>2017-12-18T15:12:36Z</time>
      </trkpt>
      <trkpt lat="38.3405630" lon="-0.6663820">
        <ele>221.1</ele>
        <time>2017-12-18T15:12:37Z</time>
      </trkpt>
      <trkpt lat="38.3404760" lon="-0.6663570">
        <ele>221.1</ele>
        <time>2017-12-18T15:12:38Z</time>
      </trkpt>
      <trkpt lat="38.3403890" lon="-0.6663290">
        <ele>221.1</ele>
        <time>2017-12-18T15:12:39Z</time>
      </trkpt>
      <trkpt lat="38.3403030" lon="-0.6662970">
        <ele>221.1</ele>
        <time>2017-12-18T15:12:40Z</time>
      </trkpt>
      <trkpt lat="38.3402170" lon="-0.6662610">
        <ele>217.2</ele>
        <time>2017-12-18T15:12:41Z</time>
      </trkpt>
      <trkpt lat="38.3401320" lon="-0.6662230">
        <ele>217.2</ele>
        <time>2017-12-18T15:12:42Z</time>
      </trkpt>
      <trkpt lat="38.3400470" lon="-0.6661810">
        <ele>217.2</ele>
        <time>2017-12-18T15:12:43Z</time>
      </trkpt>
      <trkpt lat="38.3399600" lon="-0.6661370">
        <ele>217.2</ele>
        <time>2017-12-18T15:12:44Z</time>
      </trkpt>
      <trkpt lat="38.3398750" lon="-0.6660880">
        <ele>216.1</ele>
        <time>2017-12-18T15:12:45Z</time>
      </trkpt>
      <trkpt lat="38.3397870" lon="-0.6660420">
        <ele>216.1</ele>
        <time>2017-12-18T15:12:46Z</time>
      </trkpt>
      <trkpt lat="38.3397000" lon="-0.6659940">
        <ele>215.2</ele>
        <time>2017-12-18T15:12:47Z</time>
      </trkpt>
      <trkpt lat="38.3396140" lon="-0.6659430">
        <ele>215.2</ele>
        <time>2017-12-18T15:12:48Z</time>
      </trkpt>
      <trkpt lat="38.3395300" lon="-0.6658880">
        <ele>215.2</ele>
        <time>2017-12-18T15:12:49Z</time>
      </trkpt>
      <trkpt lat="38.3394470" lon="-0.6658280">
        <ele>215.2</ele>
        <time>2017-12-18T15:12:50Z</time>
      </trkpt>
      <trkpt lat="38.3393640" lon="-0.6657680">
        <ele>214.1</ele>
        <time>2017-12-18T15:12:51Z</time>
      </trkpt>
      <trkpt lat="38.3392810" lon="-0.6657070">
        <ele>214.1</ele>
        <time>2017-12-18T15:12:52Z</time>
      </trkpt>
      <trkpt lat="38.3391990" lon="-0.6656450">
        <ele>213.2</ele>
        <time>2017-12-18T15:12:53Z</time>
      </trkpt>
      <trkpt lat="38.3391160" lon="-0.6655830">
        <ele>213.2</ele>
        <time>2017-12-18T15:12:54Z</time>
      </trkpt>
      <trkpt lat="38.3390360" lon="-0.6655200">
        <ele>213.2</ele>
        <time>2017-12-18T15:12:55Z</time>
      </trkpt>
      <trkpt lat="38.3389550" lon="-0.6654570">
        <ele>213.2</ele>
        <time>2017-12-18T15:12:56Z</time>
      </trkpt>
      <trkpt lat="38.3388750" lon="-0.6653940">
        <ele>212.1</ele>
        <time>2017-12-18T15:12:57Z</time>
      </trkpt>
      <trkpt lat="38.3387940" lon="-0.6653320">
        <ele>212.1</ele>
        <time>2017-12-18T15:12:58Z</time>
      </trkpt>
      <trkpt lat="38.3387120" lon="-0.6652710">
        <ele>212.1</ele>
        <time>2017-12-18T15:12:59Z</time>
      </trkpt>
      <trkpt lat="38.3386310" lon="-0.6652110">
        <ele>212.1</ele>
        <time>2017-12-18T15:13:00Z</time>
      </trkpt>
      <trkpt lat="38.3385500" lon="-0.6651510">
        <ele>211.1</ele>
        <time>2017-12-18T15:13:01Z</time>
      </trkpt>
      <trkpt lat="38.3384690" lon="-0.6650940">
        <ele>211.1</ele>
        <time>2017-12-18T15:13:02Z</time>
      </trkpt>
      <trkpt lat="38.3383880" lon="-0.6650390">
        <ele>211.1</ele>
        <time>2017-12-18T15:13:03Z</time>
      </trkpt>
      <trkpt lat="38.3383090" lon="-0.6649830">
        <ele>211.1</ele>
        <time>2017-12-18T15:13:04Z</time>
      </trkpt>
      <trkpt lat="38.3382270" lon="-0.6649270">
        <ele>210.2</ele>
        <time>2017-12-18T15:13:05Z</time>
      </trkpt>
      <trkpt lat="38.3381450" lon="-0.6648740">
        <ele>210.2</ele>
        <time>2017-12-18T15:13:06Z</time>
      </trkpt>
      <trkpt lat="38.3380630" lon="-0.6648240">
        <ele>209.1</ele>
        <time>2017-12-18T15:13:07Z</time>
      </trkpt>
      <trkpt lat="38.3379800" lon="-0.6647780">
        <ele>209.1</ele>
        <time>2017-12-18T15:13:08Z</time>
      </trkpt>
      <trkpt lat="38.3378970" lon="-0.6647370">
        <ele>208.2</ele>
        <time>2017-12-18T15:13:09Z</time>
      </trkpt>
      <trkpt lat="38.3378140" lon="-0.6646970">
        <ele>208.2</ele>
        <time>2017-12-18T15:13:10Z</time>
      </trkpt>
      <trkpt lat="38.3377310" lon="-0.6646570">
        <ele>207.1</ele>
        <time>2017-12-18T15:13:11Z</time>
      </trkpt>
      <trkpt lat="38.3376490" lon="-0.6646190">
        <ele>207.1</ele>
        <time>2017-12-18T15:13:12Z</time>
      </trkpt>
      <trkpt lat="38.3375650" lon="-0.6645860">
        <ele>207.1</ele>
        <time>2017-12-18T15:13:13Z</time>
      </trkpt>
      <trkpt lat="38.3374800" lon="-0.6645580">
        <ele>207.1</ele>
        <time>2017-12-18T15:13:14Z</time>
      </trkpt>
      <trkpt lat="38.3373930" lon="-0.6645310">
        <ele>207.1</ele>
        <time>2017-12-18T15:13:15Z</time>
      </trkpt>
      <trkpt lat="38.3373050" lon="-0.6645070">
        <ele>207.1</ele>
        <time>2017-12-18T15:13:16Z</time>
      </trkpt>
      <trkpt lat="38.3372180" lon="-0.6644850">
        <ele>207.1</ele>
        <time>2017-12-18T15:13:17Z</time>
      </trkpt>
      <trkpt lat="38.3371320" lon="-0.6644630">
        <ele>207.1</ele>
        <time>2017-12-18T15:13:18Z</time>
      </trkpt>
      <trkpt lat="38.3370460" lon="-0.6644440">
        <ele>207.1</ele>
        <time>2017-12-18T15:13:19Z</time>
      </trkpt>
      <trkpt lat="38.3369610" lon="-0.6644270">
        <ele>207.1</ele>
        <time>2017-12-18T15:13:20Z</time>
      </trkpt>
      <trkpt lat="38.3368760" lon="-0.6644110">
        <ele>206.2</ele>
        <time>2017-12-18T15:13:21Z</time>
      </trkpt>
      <trkpt lat="38.3367920" lon="-0.6643980">
        <ele>206.2</ele>
        <time>2017-12-18T15:13:22Z</time>
      </trkpt>
      <trkpt lat="38.3367080" lon="-0.6643870">
        <ele>206.2</ele>
        <time>2017-12-18T15:13:23Z</time>
      </trkpt>
      <trkpt lat="38.3366260" lon="-0.6643800">
        <ele>206.2</ele>
        <time>2017-12-18T15:13:24Z</time>
      </trkpt>
      <trkpt lat="38.3365440" lon="-0.6643730">
        <ele>206.2</ele>
        <time>2017-12-18T15:13:25Z</time>
      </trkpt>
      <trkpt lat="38.3364630" lon="-0.6643660">
        <ele>206.2</ele>
        <time>2017-12-18T15:13:26Z</time>
      </trkpt>
      <trkpt lat="38.3363820" lon="-0.6643600">
        <ele>206.2</ele>
        <time>2017-12-18T15:13:27Z</time>
      </trkpt>
      <trkpt lat="38.3363030" lon="-0.6643550">
        <ele>206.2</ele>
        <time>2017-12-18T15:13:28Z</time>
      </trkpt>
      <trkpt lat="38.3362230" lon="-0.6643500">
        <ele>206.2</ele>
        <time>2017-12-18T15:13:29Z</time>
      </trkpt>
      <trkpt lat="38.3361450" lon="-0.6643450">
        <ele>206.2</ele>
        <time>2017-12-18T15:13:30Z</time>
      </trkpt>
      <trkpt lat="38.3360650" lon="-0.6643420">
        <ele>206.2</ele>
        <time>2017-12-18T15:13:31Z</time>
      </trkpt>
      <trkpt lat="38.3359860" lon="-0.6643400">
        <ele>206.2</ele>
        <time>2017-12-18T15:13:32Z</time>
      </trkpt>
      <trkpt lat="38.3359080" lon="-0.6643360">
        <ele>206.2</ele>
        <time>2017-12-18T15:13:33Z</time>
      </trkpt>
      <trkpt lat="38.3358290" lon="-0.6643320">
        <ele>206.2</ele>
        <time>2017-12-18T15:13:34Z</time>
      </trkpt>
      <trkpt lat="38.3357500" lon="-0.6643280">
        <ele>206.2</ele>
        <time>2017-12-18T15:13:35Z</time>
      </trkpt>
      <trkpt lat="38.3356720" lon="-0.6643220">
        <ele>206.2</ele>
        <time>2017-12-18T15:13:36Z</time>
      </trkpt>
      <trkpt lat="38.3355920" lon="-0.6643140">
        <ele>205.1</ele>
        <time>2017-12-18T15:13:37Z</time>
      </trkpt>
      <trkpt lat="38.3355120" lon="-0.6643060">
        <ele>205.1</ele>
        <time>2017-12-18T15:13:38Z</time>
      </trkpt>
      <trkpt lat="38.3354300" lon="-0.6642980">
        <ele>204.2</ele>
        <time>2017-12-18T15:13:39Z</time>
      </trkpt>
      <trkpt lat="38.3353440" lon="-0.6642890">
        <ele>204.2</ele>
        <time>2017-12-18T15:13:40Z</time>
      </trkpt>
      <trkpt lat="38.3352560" lon="-0.6642820">
        <ele>204.2</ele>
        <time>2017-12-18T15:13:41Z</time>
      </trkpt>
      <trkpt lat="38.3351660" lon="-0.6642730">
        <ele>204.2</ele>
        <time>2017-12-18T15:13:42Z</time>
      </trkpt>
      <trkpt lat="38.3350750" lon="-0.6642610">
        <ele>204.2</ele>
        <time>2017-12-18T15:13:43Z</time>
      </trkpt>
      <trkpt lat="38.3349820" lon="-0.6642500">
        <ele>204.2</ele>
        <time>2017-12-18T15:13:44Z</time>
      </trkpt>
      <trkpt lat="38.3348920" lon="-0.6642410">
        <ele>204.2</ele>
        <time>2017-12-18T15:13:45Z</time>
      </trkpt>
      <trkpt lat="38.3348020" lon="-0.6642300">
        <ele>204.2</ele>
        <time>2017-12-18T15:13:46Z</time>
      </trkpt>
      <trkpt lat="38.3347120" lon="-0.6642190">
        <ele>200.1</ele>
        <time>2017-12-18T15:13:47Z</time>
      </trkpt>
      <trkpt lat="38.3346240" lon="-0.6642070">
        <ele>200.1</ele>
        <time>2017-12-18T15:13:48Z</time>
      </trkpt>
      <trkpt lat="38.3345370" lon="-0.6641940">
        <ele>200.1</ele>
        <time>2017-12-18T15:13:49Z</time>
      </trkpt>
      <trkpt lat="38.3344520" lon="-0.6641810">
        <ele>200.1</ele>
        <time>2017-12-18T15:13:50Z</time>
      </trkpt>
      <trkpt lat="38.3343690" lon="-0.6641660">
        <ele>200.1</ele>
        <time>2017-12-18T15:13:51Z</time>
      </trkpt>
      <trkpt lat="38.3342850" lon="-0.6641520">
        <ele>200.1</ele>
        <time>2017-12-18T15:13:52Z</time>
      </trkpt>
      <trkpt lat="38.3342020" lon="-0.6641340">
        <ele>200.1</ele>
        <time>2017-12-18T15:13:53Z</time>
      </trkpt>
      <trkpt lat="38.3341170" lon="-0.6641180">
        <ele>200.1</ele>
        <time>2017-12-18T15:13:54Z</time>
      </trkpt>
      <trkpt lat="38.3340340" lon="-0.6641020">
        <ele>199.2</ele>
        <time>2017-12-18T15:13:55Z</time>
      </trkpt>
      <trkpt lat="38.3339520" lon="-0.6640820">
        <ele>199.2</ele>
        <time>2017-12-18T15:13:56Z</time>
      </trkpt>
      <trkpt lat="38.3338710" lon="-0.6640610">
        <ele>199.2</ele>
        <time>2017-12-18T15:13:57Z</time>
      </trkpt>
      <trkpt lat="38.3337910" lon="-0.6640380">
        <ele>199.2</ele>
        <time>2017-12-18T15:13:58Z</time>
      </trkpt>
      <trkpt lat="38.3337110" lon="-0.6640140">
        <ele>199.2</ele>
        <time>2017-12-18T15:13:59Z</time>
      </trkpt>
      <trkpt lat="38.3336330" lon="-0.6639900">
        <ele>199.2</ele>
        <time>2017-12-18T15:14:00Z</time>
      </trkpt>
      <trkpt lat="38.3335540" lon="-0.6639680">
        <ele>199.2</ele>
        <time>2017-12-18T15:14:01Z</time>
      </trkpt>
      <trkpt lat="38.3334770" lon="-0.6639460">
        <ele>199.2</ele>
        <time>2017-12-18T15:14:02Z</time>
      </trkpt>
      <trkpt lat="38.3333990" lon="-0.6639220">
        <ele>198.1</ele>
        <time>2017-12-18T15:14:03Z</time>
      </trkpt>
      <trkpt lat="38.3333210" lon="-0.6638990">
        <ele>198.1</ele>
        <time>2017-12-18T15:14:04Z</time>
      </trkpt>
      <trkpt lat="38.3332430" lon="-0.6638750">
        <ele>198.1</ele>
        <time>2017-12-18T15:14:05Z</time>
      </trkpt>
      <trkpt lat="38.3331650" lon="-0.6638510">
        <ele>198.1</ele>
        <time>2017-12-18T15:14:06Z</time>
      </trkpt>
      <trkpt lat="38.3330880" lon="-0.6638260">
        <ele>198.1</ele>
        <time>2017-12-18T15:14:07Z</time>
      </trkpt>
      <trkpt lat="38.3330080" lon="-0.6637990">
        <ele>198.1</ele>
        <time>2017-12-18T15:14:08Z</time>
      </trkpt>
      <trkpt lat="38.3329290" lon="-0.6637730">
        <ele>198.1</ele>
        <time>2017-12-18T15:14:09Z</time>
      </trkpt>
      <trkpt lat="38.3328520" lon="-0.6637470">
        <ele>198.1</ele>
        <time>2017-12-18T15:14:10Z</time>
      </trkpt>
      <trkpt lat="38.3327730" lon="-0.6637180">
        <ele>197.2</ele>
        <time>2017-12-18T15:14:11Z</time>
      </trkpt>
      <trkpt lat="38.3326900" lon="-0.6636890">
        <ele>197.2</ele>
        <time>2017-12-18T15:14:12Z</time>
      </trkpt>
      <trkpt lat="38.3326100" lon="-0.6636590">
        <ele>196.1</ele>
        <time>2017-12-18T15:14:13Z</time>
      </trkpt>
      <trkpt lat="38.3325300" lon="-0.6636250">
        <ele>196.1</ele>
        <time>2017-12-18T15:14:14Z</time>
      </trkpt>
      <trkpt lat="38.3324520" lon="-0.6635920">
        <ele>196.1</ele>
        <time>2017-12-18T15:14:15Z</time>
      </trkpt>
      <trkpt lat="38.3323770" lon="-0.6635580">
        <ele>196.1</ele>
        <time>2017-12-18T15:14:16Z</time>
      </trkpt>
      <trkpt lat="38.3323060" lon="-0.6635230">
        <ele>195.1</ele>
        <time>2017-12-18T15:14:17Z</time>
      </trkpt>
      <trkpt lat="38.3322370" lon="-0.6634880">
        <ele>195.1</ele>
        <time>2017-12-18T15:14:18Z</time>
      </trkpt>
      <trkpt lat="38.3321700" lon="-0.6634500">
        <ele>195.1</ele>
        <time>2017-12-18T15:14:19Z</time>
      </trkpt>
      <trkpt lat="38.3321050" lon="-0.6634200">
        <ele>195.1</ele>
        <time>2017-12-18T15:14:20Z</time>
      </trkpt>
      <trkpt lat="38.3320440" lon="-0.6633920">
        <ele>195.1</ele>
        <time>2017-12-18T15:14:21Z</time>
      </trkpt>
      <trkpt lat="38.3319810" lon="-0.6633680">
        <ele>195.1</ele>
        <time>2017-12-18T15:14:22Z</time>
      </trkpt>
      <trkpt lat="38.3319220" lon="-0.6633440">
        <ele>196.1</ele>
        <time>2017-12-18T15:14:23Z</time>
      </trkpt>
      <trkpt lat="38.3318600" lon="-0.6633230">
        <ele>196.1</ele>
        <time>2017-12-18T15:14:24Z</time>
      </trkpt>
      <trkpt lat="38.3317970" lon="-0.6633010">
        <ele>196.1</ele>
        <time>2017-12-18T15:14:25Z</time>
      </trkpt>
      <trkpt lat="38.3317330" lon="-0.6632810">
        <ele>196.1</ele>
        <time>2017-12-18T15:14:26Z</time>
      </trkpt>
      <trkpt lat="38.3316700" lon="-0.6632630">
        <ele>196.1</ele>
        <time>2017-12-18T15:14:27Z</time>
      </trkpt>
      <trkpt lat="38.3316070" lon="-0.6632480">
        <ele>196.1</ele>
        <time>2017-12-18T15:14:28Z</time>
      </trkpt>
      <trkpt lat="38.3315450" lon="-0.6632320">
        <ele>197.2</ele>
        <time>2017-12-18T15:14:29Z</time>
      </trkpt>
      <trkpt lat="38.3314820" lon="-0.6632170">
        <ele>197.2</ele>
        <time>2017-12-18T15:14:30Z</time>
      </trkpt>
      <trkpt lat="38.3314200" lon="-0.6632020">
        <ele>197.2</ele>
        <time>2017-12-18T15:14:31Z</time>
      </trkpt>
      <trkpt lat="38.3313580" lon="-0.6631860">
        <ele>197.2</ele>
        <time>2017-12-18T15:14:32Z</time>
      </trkpt>
      <trkpt lat="38.3312950" lon="-0.6631720">
        <ele>197.2</ele>
        <time>2017-12-18T15:14:33Z</time>
      </trkpt>
      <trkpt lat="38.3312330" lon="-0.6631560">
        <ele>197.2</ele>
        <time>2017-12-18T15:14:34Z</time>
      </trkpt>
      <trkpt lat="38.3311700" lon="-0.6631410">
        <ele>197.2</ele>
        <time>2017-12-18T15:14:35Z</time>
      </trkpt>
      <trkpt lat="38.3311070" lon="-0.6631270">
        <ele>197.2</ele>
        <time>2017-12-18T15:14:36Z</time>
      </trkpt>
      <trkpt lat="38.3310450" lon="-0.6631140">
        <ele>197.2</ele>
        <time>2017-12-18T15:14:37Z</time>
      </trkpt>
      <trkpt lat="38.3309830" lon="-0.6631020">
        <ele>197.2</ele>
        <time>2017-12-18T15:14:38Z</time>
      </trkpt>
      <trkpt lat="38.3309200" lon="-0.6630920">
        <ele>197.2</ele>
        <time>2017-12-18T15:14:39Z</time>
      </trkpt>
      <trkpt lat="38.3308570" lon="-0.6630830">
        <ele>197.2</ele>
        <time>2017-12-18T15:14:40Z</time>
      </trkpt>
      <trkpt lat="38.3307940" lon="-0.6630750">
        <ele>196.1</ele>
        <time>2017-12-18T15:14:41Z</time>
      </trkpt>
      <trkpt lat="38.3307320" lon="-0.6630670">
        <ele>196.1</ele>
        <time>2017-12-18T15:14:42Z</time>
      </trkpt>
      <trkpt lat="38.3306690" lon="-0.6630590">
        <ele>196.1</ele>
        <time>2017-12-18T15:14:43Z</time>
      </trkpt>
      <trkpt lat="38.3306060" lon="-0.6630500">
        <ele>196.1</ele>
        <time>2017-12-18T15:14:44Z</time>
      </trkpt>
      <trkpt lat="38.3305430" lon="-0.6630430">
        <ele>196.1</ele>
        <time>2017-12-18T15:14:45Z</time>
      </trkpt>
      <trkpt lat="38.3304810" lon="-0.6630390">
        <ele>196.1</ele>
        <time>2017-12-18T15:14:46Z</time>
      </trkpt>
      <trkpt lat="38.3304180" lon="-0.6630360">
        <ele>196.1</ele>
        <time>2017-12-18T15:14:47Z</time>
      </trkpt>
      <trkpt lat="38.3303550" lon="-0.6630340">
        <ele>196.1</ele>
        <time>2017-12-18T15:14:48Z</time>
      </trkpt>
      <trkpt lat="38.3302930" lon="-0.6630350">
        <ele>197.2</ele>
        <time>2017-12-18T15:14:49Z</time>
      </trkpt>
      <trkpt lat="38.3302320" lon="-0.6630380">
        <ele>197.2</ele>
        <time>2017-12-18T15:14:50Z</time>
      </trkpt>
      <trkpt lat="38.3301740" lon="-0.6630420">
        <ele>197.2</ele>
        <time>2017-12-18T15:14:51Z</time>
      </trkpt>
      <trkpt lat="38.3301160" lon="-0.6630470">
        <ele>197.2</ele>
        <time>2017-12-18T15:14:52Z</time>
      </trkpt>
      <trkpt lat="38.3300600" lon="-0.6630500">
        <ele>198.1</ele>
        <time>2017-12-18T15:14:53Z</time>
      </trkpt>
      <trkpt lat="38.3300050" lon="-0.6630530">
        <ele>198.1</ele>
        <time>2017-12-18T15:14:54Z</time>
      </trkpt>
      <trkpt lat="38.3299520" lon="-0.6630550">
        <ele>198.1</ele>
        <time>2017-12-18T15:14:55Z</time>
      </trkpt>
      <trkpt lat="38.3298990" lon="-0.6630530">
        <ele>198.1</ele>
        <time>2017-12-18T15:14:56Z</time>
      </trkpt>
      <trkpt lat="38.3298440" lon="-0.6630520">
        <ele>199.2</ele>
        <time>2017-12-18T15:14:57Z</time>
      </trkpt>
      <trkpt lat="38.3297880" lon="-0.6630520">
        <ele>199.2</ele>
        <time>2017-12-18T15:14:58Z</time>
      </trkpt>
      <trkpt lat="38.3297300" lon="-0.6630530">
        <ele>199.2</ele>
        <time>2017-12-18T15:14:59Z</time>
      </trkpt>
      <trkpt lat="38.3296710" lon="-0.6630540">
        <ele>199.2</ele>
        <time>2017-12-18T15:15:00Z</time>
      </trkpt>
      <trkpt lat="38.3296090" lon="-0.6630550">
        <ele>199.2</ele>
        <time>2017-12-18T15:15:01Z</time>
      </trkpt>
      <trkpt lat="38.3295440" lon="-0.6630560">
        <ele>199.2</ele>
        <time>2017-12-18T15:15:02Z</time>
      </trkpt>
      <trkpt lat="38.3294780" lon="-0.6630560">
        <ele>198.1</ele>
        <time>2017-12-18T15:15:03Z</time>
      </trkpt>
      <trkpt lat="38.3294100" lon="-0.6630540">
        <ele>198.1</ele>
        <time>2017-12-18T15:15:04Z</time>
      </trkpt>
      <trkpt lat="38.3293400" lon="-0.6630540">
        <ele>198.1</ele>
        <time>2017-12-18T15:15:05Z</time>
      </trkpt>
      <trkpt lat="38.3292710" lon="-0.6630560">
        <ele>198.1</ele>
        <time>2017-12-18T15:15:06Z</time>
      </trkpt>
      <trkpt lat="38.3292010" lon="-0.6630600">
        <ele>197.2</ele>
        <time>2017-12-18T15:15:07Z</time>
      </trkpt>
      <trkpt lat="38.3291300" lon="-0.6630670">
        <ele>197.2</ele>
        <time>2017-12-18T15:15:08Z</time>
      </trkpt>
      <trkpt lat="38.3290580" lon="-0.6630730">
        <ele>197.2</ele>
        <time>2017-12-18T15:15:09Z</time>
      </trkpt>
      <trkpt lat="38.3289850" lon="-0.6630780">
        <ele>197.2</ele>
        <time>2017-12-18T15:15:10Z</time>
      </trkpt>
      <trkpt lat="38.3289120" lon="-0.6630820">
        <ele>196.1</ele>
        <time>2017-12-18T15:15:11Z</time>
      </trkpt>
      <trkpt lat="38.3288380" lon="-0.6630890">
        <ele>196.1</ele>
        <time>2017-12-18T15:15:12Z</time>
      </trkpt>
      <trkpt lat="38.3287630" lon="-0.6630970">
        <ele>196.1</ele>
        <time>2017-12-18T15:15:13Z</time>
      </trkpt>
      <trkpt lat="38.3286880" lon="-0.6631010">
        <ele>196.1</ele>
        <time>2017-12-18T15:15:14Z</time>
      </trkpt>
      <trkpt lat="38.3286120" lon="-0.6631070">
        <ele>195.1</ele>
        <time>2017-12-18T15:15:15Z</time>
      </trkpt>
      <trkpt lat="38.3285320" lon="-0.6631130">
        <ele>195.1</ele>
        <time>2017-12-18T15:15:16Z</time>
      </trkpt>
      <trkpt lat="38.3284490" lon="-0.6631180">
        <ele>194.2</ele>
        <time>2017-12-18T15:15:17Z</time>
      </trkpt>
      <trkpt lat="38.3283620" lon="-0.6631260">
        <ele>194.2</ele>
        <time>2017-12-18T15:15:18Z</time>
      </trkpt>
      <trkpt lat="38.3282740" lon="-0.6631340">
        <ele>193.1</ele>
        <time>2017-12-18T15:15:19Z</time>
      </trkpt>
      <trkpt lat="38.3281890" lon="-0.6631380">
        <ele>193.1</ele>
        <time>2017-12-18T15:15:20Z</time>
      </trkpt>
      <trkpt lat="38.3281060" lon="-0.6631440">
        <ele>193.1</ele>
        <time>2017-12-18T15:15:21Z</time>
      </trkpt>
      <trkpt lat="38.3280250" lon="-0.6631510">
        <ele>193.1</ele>
        <time>2017-12-18T15:15:22Z</time>
      </trkpt>
      <trkpt lat="38.3279480" lon="-0.6631560">
        <ele>193.1</ele>
        <time>2017-12-18T15:15:23Z</time>
      </trkpt>
      <trkpt lat="38.3278740" lon="-0.6631630">
        <ele>193.1</ele>
        <time>2017-12-18T15:15:24Z</time>
      </trkpt>
      <trkpt lat="38.3278020" lon="-0.6631710">
        <ele>193.1</ele>
        <time>2017-12-18T15:15:25Z</time>
      </trkpt>
      <trkpt lat="38.3277320" lon="-0.6631740">
        <ele>193.1</ele>
        <time>2017-12-18T15:15:26Z</time>
      </trkpt>
      <trkpt lat="38.3276620" lon="-0.6631770">
        <ele>193.1</ele>
        <time>2017-12-18T15:15:27Z</time>
      </trkpt>
      <trkpt lat="38.3275930" lon="-0.6631820">
        <ele>193.1</ele>
        <time>2017-12-18T15:15:28Z</time>
      </trkpt>
      <trkpt lat="38.3275260" lon="-0.6631870">
        <ele>193.1</ele>
        <time>2017-12-18T15:15:29Z</time>
      </trkpt>
      <trkpt lat="38.3274580" lon="-0.6631920">
        <ele>193.1</ele>
        <time>2017-12-18T15:15:30Z</time>
      </trkpt>
      <trkpt lat="38.3273910" lon="-0.6631950">
        <ele>193.1</ele>
        <time>2017-12-18T15:15:31Z</time>
      </trkpt>
      <trkpt lat="38.3273250" lon="-0.6631970">
        <ele>193.1</ele>
        <time>2017-12-18T15:15:32Z</time>
      </trkpt>
      <trkpt lat="38.3272600" lon="-0.6632010">
        <ele>194.2</ele>
        <time>2017-12-18T15:15:33Z</time>
      </trkpt>
      <trkpt lat="38.3271940" lon="-0.6632060">
        <ele>194.2</ele>
        <time>2017-12-18T15:15:34Z</time>
      </trkpt>
      <trkpt lat="38.3271280" lon="-0.6632100">
        <ele>194.2</ele>
        <time>2017-12-18T15:15:35Z</time>
      </trkpt>
      <trkpt lat="38.3270620" lon="-0.6632130">
        <ele>194.2</ele>
        <time>2017-12-18T15:15:36Z</time>
      </trkpt>
      <trkpt lat="38.3269950" lon="-0.6632140">
        <ele>194.2</ele>
        <time>2017-12-18T15:15:37Z</time>
      </trkpt>
      <trkpt lat="38.3269280" lon="-0.6632170">
        <ele>194.2</ele>
        <time>2017-12-18T15:15:38Z</time>
      </trkpt>
      <trkpt lat="38.3268610" lon="-0.6632180">
        <ele>194.2</ele>
        <time>2017-12-18T15:15:39Z</time>
      </trkpt>
      <trkpt lat="38.3267940" lon="-0.6632220">
        <ele>194.2</ele>
        <time>2017-12-18T15:15:40Z</time>
      </trkpt>
      <trkpt lat="38.3267270" lon="-0.6632260">
        <ele>194.2</ele>
        <time>2017-12-18T15:15:41Z</time>
      </trkpt>
      <trkpt lat="38.3266620" lon="-0.6632340">
        <ele>194.2</ele>
        <time>2017-12-18T15:15:42Z</time>
      </trkpt>
      <trkpt lat="38.3265970" lon="-0.6632460">
        <ele>194.2</ele>
        <time>2017-12-18T15:15:43Z</time>
      </trkpt>
      <trkpt lat="38.3265320" lon="-0.6632600">
        <ele>194.2</ele>
        <time>2017-12-18T15:15:44Z</time>
      </trkpt>
      <trkpt lat="38.3264670" lon="-0.6632780">
        <ele>194.2</ele>
        <time>2017-12-18T15:15:45Z</time>
      </trkpt>
      <trkpt lat="38.3264010" lon="-0.6633000">
        <ele>194.2</ele>
        <time>2017-12-18T15:15:46Z</time>
      </trkpt>
      <trkpt lat="38.3263330" lon="-0.6633260">
        <ele>194.2</ele>
        <time>2017-12-18T15:15:47Z</time>
      </trkpt>
      <trkpt lat="38.3262660" lon="-0.6633590">
        <ele>194.2</ele>
        <time>2017-12-18T15:15:48Z</time>
      </trkpt>
      <trkpt lat="38.3262000" lon="-0.6634030">
        <ele>193.1</ele>
        <time>2017-12-18T15:15:49Z</time>
      </trkpt>
      <trkpt lat="38.3261370" lon="-0.6634590">
        <ele>193.1</ele>
        <time>2017-12-18T15:15:50Z</time>
      </trkpt>
      <trkpt lat="38.3260700" lon="-0.6635210">
        <ele>193.1</ele>
        <time>2017-12-18T15:15:51Z</time>
      </trkpt>
      <trkpt lat="38.3260030" lon="-0.6635830">
        <ele>193.1</ele>
        <time>2017-12-18T15:15:52Z</time>
      </trkpt>
      <trkpt lat="38.3259360" lon="-0.6636430">
        <ele>193.1</ele>
        <time>2017-12-18T15:15:53Z</time>
      </trkpt>
      <trkpt lat="38.3258680" lon="-0.6637000">
        <ele>193.1</ele>
        <time>2017-12-18T15:15:54Z</time>
      </trkpt>
      <trkpt lat="38.3258000" lon="-0.6637530">
        <ele>193.1</ele>
        <time>2017-12-18T15:15:55Z</time>
      </trkpt>
      <trkpt lat="38.3257320" lon="-0.6638050">
        <ele>193.1</ele>
        <time>2017-12-18T15:15:56Z</time>
      </trkpt>
      <trkpt lat="38.3256680" lon="-0.6638630">
        <ele>191.1</ele>
        <time>2017-12-18T15:15:57Z</time>
      </trkpt>
      <trkpt lat="38.3256170" lon="-0.6639340">
        <ele>191.1</ele>
        <time>2017-12-18T15:15:58Z</time>
      </trkpt>
      <trkpt lat="38.3255710" lon="-0.6640050">
        <ele>191.1</ele>
        <time>2017-12-18T15:15:59Z</time>
      </trkpt>
      <trkpt lat="38.3255250" lon="-0.6640710">
        <ele>191.1</ele>
        <time>2017-12-18T15:16:00Z</time>
      </trkpt>
      <trkpt lat="38.3254820" lon="-0.6641400">
        <ele>191.1</ele>
        <time>2017-12-18T15:16:01Z</time>
      </trkpt>
      <trkpt lat="38.3254620" lon="-0.6642210">
        <ele>191.1</ele>
        <time>2017-12-18T15:16:02Z</time>
      </trkpt>
      <trkpt lat="38.3254660" lon="-0.6642910">
        <ele>192.2</ele>
        <time>2017-12-18T15:16:03Z</time>
      </trkpt>
      <trkpt lat="38.3254810" lon="-0.6643640">
        <ele>192.2</ele>
        <time>2017-12-18T15:16:04Z</time>
      </trkpt>
      <trkpt lat="38.3254910" lon="-0.6644380">
        <ele>192.2</ele>
        <time>2017-12-18T15:16:05Z</time>
      </trkpt>
      <trkpt lat="38.3254950" lon="-0.6645130">
        <ele>192.2</ele>
        <time>2017-12-18T15:16:06Z</time>
      </trkpt>
      <trkpt lat="38.3254930" lon="-0.6645880">
        <ele>192.2</ele>
        <time>2017-12-18T15:16:07Z</time>
      </trkpt>
      <trkpt lat="38.3254800" lon="-0.6646560">
        <ele>192.2</ele>
        <time>2017-12-18T15:16:08Z</time>
      </trkpt>
      <trkpt lat="38.3254500" lon="-0.6647150">
        <ele>193.1</ele>
        <time>2017-12-18T15:16:09Z</time>
      </trkpt>
      <trkpt lat="38.3254080" lon="-0.6647680">
        <ele>193.1</ele>
        <time>2017-12-18T15:16:10Z</time>
      </trkpt>
      <trkpt lat="38.3253680" lon="-0.6648100">
        <ele>194.2</ele>
        <time>2017-12-18T15:16:11Z</time>
      </trkpt>
      <trkpt lat="38.3253210" lon="-0.6648360">
        <ele>194.2</ele>
        <time>2017-12-18T15:16:12Z</time>
      </trkpt>
      <trkpt lat="38.3252740" lon="-0.6648430">
        <ele>195.1</ele>
        <time>2017-12-18T15:16:13Z</time>
      </trkpt>
      <trkpt lat="38.3252250" lon="-0.6648460">
        <ele>195.1</ele>
        <time>2017-12-18T15:16:14Z</time>
      </trkpt>
      <trkpt lat="38.3251760" lon="-0.6648460">
        <ele>196.1</ele>
        <time>2017-12-18T15:16:15Z</time>
      </trkpt>
      <trkpt lat="38.3251300" lon="-0.6648430">
        <ele>196.1</ele>
        <time>2017-12-18T15:16:16Z</time>
      </trkpt>
      <trkpt lat="38.3250860" lon="-0.6648340">
        <ele>197.2</ele>
        <time>2017-12-18T15:16:17Z</time>
      </trkpt>
      <trkpt lat="38.3250430" lon="-0.6648240">
        <ele>197.2</ele>
        <time>2017-12-18T15:16:18Z</time>
      </trkpt>
      <trkpt lat="38.3250030" lon="-0.6648110">
        <ele>198.1</ele>
        <time>2017-12-18T15:16:19Z</time>
      </trkpt>
      <trkpt lat="38.3249610" lon="-0.6647970">
        <ele>198.1</ele>
        <time>2017-12-18T15:16:20Z</time>
      </trkpt>
      <trkpt lat="38.3249170" lon="-0.6647820">
        <ele>199.2</ele>
        <time>2017-12-18T15:16:21Z</time>
      </trkpt>
      <trkpt lat="38.3248730" lon="-0.6647670">
        <ele>199.2</ele>
        <time>2017-12-18T15:16:22Z</time>
      </trkpt>
      <trkpt lat="38.3248240" lon="-0.6647510">
        <ele>199.2</ele>
        <time>2017-12-18T15:16:23Z</time>
      </trkpt>
      <trkpt lat="38.3247750" lon="-0.6647370">
        <ele>199.2</ele>
        <time>2017-12-18T15:16:24Z</time>
      </trkpt>
      <trkpt lat="38.3247270" lon="-0.6647230">
        <ele>200.1</ele>
        <time>2017-12-18T15:16:25Z</time>
      </trkpt>
      <trkpt lat="38.3246810" lon="-0.6647140">
        <ele>200.1</ele>
        <time>2017-12-18T15:16:26Z</time>
      </trkpt>
      <trkpt lat="38.3246340" lon="-0.6647060">
        <ele>200.1</ele>
        <time>2017-12-18T15:16:27Z</time>
      </trkpt>
      <trkpt lat="38.3245870" lon="-0.6647000">
        <ele>200.1</ele>
        <time>2017-12-18T15:16:28Z</time>
      </trkpt>
      <trkpt lat="38.3245410" lon="-0.6646980">
        <ele>201.2</ele>
        <time>2017-12-18T15:16:29Z</time>
      </trkpt>
      <trkpt lat="38.3244930" lon="-0.6646970">
        <ele>201.2</ele>
        <time>2017-12-18T15:16:30Z</time>
      </trkpt>
      <trkpt lat="38.3244450" lon="-0.6646970">
        <ele>201.2</ele>
        <time>2017-12-18T15:16:31Z</time>
      </trkpt>
      <trkpt lat="38.3243990" lon="-0.6646980">
        <ele>201.2</ele>
        <time>2017-12-18T15:16:32Z</time>
      </trkpt>
      <trkpt lat="38.3243540" lon="-0.6646980">
        <ele>202.1</ele>
        <time>2017-12-18T15:16:33Z</time>
      </trkpt>
      <trkpt lat="38.3243100" lon="-0.6647020">
        <ele>202.1</ele>
        <time>2017-12-18T15:16:34Z</time>
      </trkpt>
      <trkpt lat="38.3242660" lon="-0.6647060">
        <ele>202.1</ele>
        <time>2017-12-18T15:16:35Z</time>
      </trkpt>
      <trkpt lat="38.3242230" lon="-0.6647030">
        <ele>202.1</ele>
        <time>2017-12-18T15:16:36Z</time>
      </trkpt>
      <trkpt lat="38.3241830" lon="-0.6647150">
        <ele>203.2</ele>
        <time>2017-12-18T15:16:37Z</time>
      </trkpt>
      <trkpt lat="38.3241470" lon="-0.6647230">
        <ele>203.2</ele>
        <time>2017-12-18T15:16:38Z</time>
      </trkpt>
      <trkpt lat="38.3241120" lon="-0.6647360">
        <ele>203.2</ele>
        <time>2017-12-18T15:16:39Z</time>
      </trkpt>
      <trkpt lat="38.3240790" lon="-0.6647480">
        <ele>203.2</ele>
        <time>2017-12-18T15:16:40Z</time>
      </trkpt>
      <trkpt lat="38.3240470" lon="-0.6647520">
        <ele>204.2</ele>
        <time>2017-12-18T15:16:41Z</time>
      </trkpt>
      <trkpt lat="38.3240150" lon="-0.6647600">
        <ele>204.2</ele>
        <time>2017-12-18T15:16:42Z</time>
      </trkpt>
      <trkpt lat="38.3239880" lon="-0.6647690">
        <ele>204.2</ele>
        <time>2017-12-18T15:16:43Z</time>
      </trkpt>
      <trkpt lat="38.3239620" lon="-0.6647780">
        <ele>204.2</ele>
        <time>2017-12-18T15:16:44Z</time>
      </trkpt>
      <trkpt lat="38.3239370" lon="-0.6647840">
        <ele>205.1</ele>
        <time>2017-12-18T15:16:45Z</time>
      </trkpt>
      <trkpt lat="38.3239130" lon="-0.6647900">
        <ele>205.1</ele>
        <time>2017-12-18T15:16:46Z</time>
      </trkpt>
      <trkpt lat="38.3238890" lon="-0.6647990">
        <ele>205.1</ele>
        <time>2017-12-18T15:16:47Z</time>
      </trkpt>
      <trkpt lat="38.3238670" lon="-0.6648080">
        <ele>205.1</ele>
        <time>2017-12-18T15:16:48Z</time>
      </trkpt>
      <trkpt lat="38.3238480" lon="-0.6648160">
        <ele>206.2</ele>
        <time>2017-12-18T15:16:49Z</time>
      </trkpt>
      <trkpt lat="38.3238300" lon="-0.6648270">
        <ele>206.2</ele>
        <time>2017-12-18T15:16:50Z</time>
      </trkpt>
      <trkpt lat="38.3238160" lon="-0.6648370">
        <ele>206.2</ele>
        <time>2017-12-18T15:16:51Z</time>
      </trkpt>
      <trkpt lat="38.3238050" lon="-0.6648450">
        <ele>206.2</ele>
        <time>2017-12-18T15:16:52Z</time>
      </trkpt>
      <trkpt lat="38.3237890" lon="-0.6648560">
        <ele>207.1</ele>
        <time>2017-12-18T15:16:53Z</time>
      </trkpt>
      <trkpt lat="38.3237750" lon="-0.6648660">
        <ele>207.1</ele>
        <time>2017-12-18T15:16:54Z</time>
      </trkpt>
      <trkpt lat="38.3237620" lon="-0.6648740">
        <ele>207.1</ele>
        <time>2017-12-18T15:16:55Z</time>
      </trkpt>
      <trkpt lat="38.3237490" lon="-0.6648780">
        <ele>207.1</ele>
        <time>2017-12-18T15:16:56Z</time>
      </trkpt>
      <trkpt lat="38.3237370" lon="-0.6648790">
        <ele>208.2</ele>
        <time>2017-12-18T15:16:57Z</time>
      </trkpt>
      <trkpt lat="38.3237280" lon="-0.6648810">
        <ele>208.2</ele>
        <time>2017-12-18T15:16:58Z</time>
      </trkpt>
      <trkpt lat="38.3237180" lon="-0.6648840">
        <ele>209.1</ele>
        <time>2017-12-18T15:16:59Z</time>
      </trkpt>
      <trkpt lat="38.3237070" lon="-0.6648880">
        <ele>209.1</ele>
        <time>2017-12-18T15:17:00Z</time>
      </trkpt>
      <trkpt lat="38.3236980" lon="-0.6648940">
        <ele>209.1</ele>
        <time>2017-12-18T15:17:01Z</time>
      </trkpt>
      <trkpt lat="38.3236890" lon="-0.6649000">
        <ele>209.1</ele>
        <time>2017-12-18T15:17:02Z</time>
      </trkpt>
      <trkpt lat="38.3236790" lon="-0.6649030">
        <ele>210.2</ele>
        <time>2017-12-18T15:17:03Z</time>
      </trkpt>
      <trkpt lat="38.3236680" lon="-0.6649070">
        <ele>210.2</ele>
        <time>2017-12-18T15:17:04Z</time>
      </trkpt>
      <trkpt lat="38.3236580" lon="-0.6649050">
        <ele>210.2</ele>
        <time>2017-12-18T15:17:05Z</time>
      </trkpt>
      <trkpt lat="38.3236460" lon="-0.6649000">
        <ele>210.2</ele>
        <time>2017-12-18T15:17:06Z</time>
      </trkpt>
      <trkpt lat="38.3236350" lon="-0.6648980">
        <ele>211.1</ele>
        <time>2017-12-18T15:17:07Z</time>
      </trkpt>
      <trkpt lat="38.3236250" lon="-0.6648930">
        <ele>211.1</ele>
        <time>2017-12-18T15:17:08Z</time>
      </trkpt>
      <trkpt lat="38.3236150" lon="-0.6648850">
        <ele>211.1</ele>
        <time>2017-12-18T15:17:09Z</time>
      </trkpt>
      <trkpt lat="38.3236030" lon="-0.6648760">
        <ele>211.1</ele>
        <time>2017-12-18T15:17:10Z</time>
      </trkpt>
      <trkpt lat="38.3235910" lon="-0.6648700">
        <ele>211.1</ele>
        <time>2017-12-18T15:17:11Z</time>
      </trkpt>
      <trkpt lat="38.3235800" lon="-0.6648580">
        <ele>211.1</ele>
        <time>2017-12-18T15:17:12Z</time>
      </trkpt>
      <trkpt lat="38.3235690" lon="-0.6648430">
        <ele>212.1</ele>
        <time>2017-12-18T15:17:13Z</time>
      </trkpt>
      <trkpt lat="38.3235570" lon="-0.6648250">
        <ele>212.1</ele>
        <time>2017-12-18T15:17:14Z</time>
      </trkpt>
      <trkpt lat="38.3235460" lon="-0.6648070">
        <ele>212.1</ele>
        <time>2017-12-18T15:17:15Z</time>
      </trkpt>
      <trkpt lat="38.3235380" lon="-0.6647860">
        <ele>212.1</ele>
        <time>2017-12-18T15:17:16Z</time>
      </trkpt>
      <trkpt lat="38.3235290" lon="-0.6647620">
        <ele>212.1</ele>
        <time>2017-12-18T15:17:17Z</time>
      </trkpt>
      <trkpt lat="38.3235180" lon="-0.6647350">
        <ele>212.1</ele>
        <time>2017-12-18T15:17:18Z</time>
      </trkpt>
      <trkpt lat="38.3235070" lon="-0.6647090">
        <ele>212.1</ele>
        <time>2017-12-18T15:17:19Z</time>
      </trkpt>
      <trkpt lat="38.3234890" lon="-0.6646830">
        <ele>212.1</ele>
        <time>2017-12-18T15:17:20Z</time>
      </trkpt>
      <trkpt lat="38.3234710" lon="-0.6646570">
        <ele>212.1</ele>
        <time>2017-12-18T15:17:21Z</time>
      </trkpt>
      <trkpt lat="38.3234530" lon="-0.6646340">
        <ele>212.1</ele>
        <time>2017-12-18T15:17:22Z</time>
      </trkpt>
      <trkpt lat="38.3234310" lon="-0.6646130">
        <ele>212.1</ele>
        <time>2017-12-18T15:17:23Z</time>
      </trkpt>
      <trkpt lat="38.3234050" lon="-0.6646020">
        <ele>212.1</ele>
        <time>2017-12-18T15:17:24Z</time>
      </trkpt>
      <trkpt lat="38.3233800" lon="-0.6645870">
        <ele>212.1</ele>
        <time>2017-12-18T15:17:25Z</time>
      </trkpt>
      <trkpt lat="38.3233510" lon="-0.6645790">
        <ele>212.1</ele>
        <time>2017-12-18T15:17:26Z</time>
      </trkpt>
      <trkpt lat="38.3233200" lon="-0.6645830">
        <ele>212.1</ele>
        <time>2017-12-18T15:17:27Z</time>
      </trkpt>
      <trkpt lat="38.3232970" lon="-0.6645990">
        <ele>212.1</ele>
        <time>2017-12-18T15:17:28Z</time>
      </trkpt>
      <trkpt lat="38.3232770" lon="-0.6646230">
        <ele>212.1</ele>
        <time>2017-12-18T15:17:29Z</time>
      </trkpt>
      <trkpt lat="38.3232580" lon="-0.6646520">
        <ele>212.1</ele>
        <time>2017-12-18T15:17:30Z</time>
      </trkpt>
      <trkpt lat="38.3232420" lon="-0.6646800">
        <ele>212.1</ele>
        <time>2017-12-18T15:17:31Z</time>
      </trkpt>
      <trkpt lat="38.3232270" lon="-0.6647060">
        <ele>212.1</ele>
        <time>2017-12-18T15:17:32Z</time>
      </trkpt>
      <trkpt lat="38.3232070" lon="-0.6647280">
        <ele>212.1</ele>
        <time>2017-12-18T15:17:33Z</time>
      </trkpt>
      <trkpt lat="38.3231860" lon="-0.6647500">
        <ele>212.1</ele>
        <time>2017-12-18T15:17:34Z</time>
      </trkpt>
      <trkpt lat="38.3231650" lon="-0.6647790">
        <ele>212.1</ele>
        <time>2017-12-18T15:17:35Z</time>
      </trkpt>
      <trkpt lat="38.3231350" lon="-0.6648160">
        <ele>212.1</ele>
        <time>2017-12-18T15:17:36Z</time>
      </trkpt>
      <trkpt lat="38.3231030" lon="-0.6648560">
        <ele>212.1</ele>
        <time>2017-12-18T15:17:37Z</time>
      </trkpt>
      <trkpt lat="38.3230850" lon="-0.6649090">
        <ele>212.1</ele>
        <time>2017-12-18T15:17:38Z</time>
      </trkpt>
      <trkpt lat="38.3230840" lon="-0.6649500">
        <ele>212.1</ele>
        <time>2017-12-18T15:17:39Z</time>
      </trkpt>
      <trkpt lat="38.3230800" lon="-0.6649970">
        <ele>212.1</ele>
        <time>2017-12-18T15:17:40Z</time>
      </trkpt>
      <trkpt lat="38.3230730" lon="-0.6650430">
        <ele>211.1</ele>
        <time>2017-12-18T15:17:41Z</time>
      </trkpt>
      <trkpt lat="38.3230660" lon="-0.6650880">
        <ele>211.1</ele>
        <time>2017-12-18T15:17:42Z</time>
      </trkpt>
      <trkpt lat="38.3230580" lon="-0.6651320">
        <ele>211.1</ele>
        <time>2017-12-18T15:17:43Z</time>
      </trkpt>
      <trkpt lat="38.3230530" lon="-0.6651780">
        <ele>211.1</ele>
        <time>2017-12-18T15:17:44Z</time>
      </trkpt>
      <trkpt lat="38.3230540" lon="-0.6652250">
        <ele>211.1</ele>
        <time>2017-12-18T15:17:45Z</time>
      </trkpt>
      <trkpt lat="38.3230490" lon="-0.6652750">
        <ele>211.1</ele>
        <time>2017-12-18T15:17:46Z</time>
      </trkpt>
      <trkpt lat="38.3230430" lon="-0.6653230">
        <ele>211.1</ele>
        <time>2017-12-18T15:17:47Z</time>
      </trkpt>
      <trkpt lat="38.3230350" lon="-0.6653710">
        <ele>211.1</ele>
        <time>2017-12-18T15:17:48Z</time>
      </trkpt>
      <trkpt lat="38.3230270" lon="-0.6654210">
        <ele>211.1</ele>
        <time>2017-12-18T15:17:49Z</time>
      </trkpt>
      <trkpt lat="38.3230220" lon="-0.6654720">
        <ele>211.1</ele>
        <time>2017-12-18T15:17:50Z</time>
      </trkpt>
      <trkpt lat="38.3230150" lon="-0.6655230">
        <ele>212.1</ele>
        <time>2017-12-18T15:17:51Z</time>
      </trkpt>
      <trkpt lat="38.3230060" lon="-0.6655750">
        <ele>212.1</ele>
        <time>2017-12-18T15:17:52Z</time>
      </trkpt>
      <trkpt lat="38.3229970" lon="-0.6656240">
        <ele>212.1</ele>
        <time>2017-12-18T15:17:53Z</time>
      </trkpt>
      <trkpt lat="38.3229880" lon="-0.6656740">
        <ele>212.1</ele>
        <time>2017-12-18T15:17:54Z</time>
      </trkpt>
      <trkpt lat="38.3229780" lon="-0.6657240">
        <ele>212.1</ele>
        <time>2017-12-18T15:17:55Z</time>
      </trkpt>
      <trkpt lat="38.3229680" lon="-0.6657750">
        <ele>212.1</ele>
        <time>2017-12-18T15:17:56Z</time>
      </trkpt>
      <trkpt lat="38.3229610" lon="-0.6658270">
        <ele>212.1</ele>
        <time>2017-12-18T15:17:57Z</time>
      </trkpt>
      <trkpt lat="38.3229550" lon="-0.6658790">
        <ele>212.1</ele>
        <time>2017-12-18T15:17:58Z</time>
      </trkpt>
      <trkpt lat="38.3229470" lon="-0.6659310">
        <ele>212.1</ele>
        <time>2017-12-18T15:17:59Z</time>
      </trkpt>
      <trkpt lat="38.3229390" lon="-0.6659800">
        <ele>212.1</ele>
        <time>2017-12-18T15:18:00Z</time>
      </trkpt>
      <trkpt lat="38.3229330" lon="-0.6660300">
        <ele>213.2</ele>
        <time>2017-12-18T15:18:01Z</time>
      </trkpt>
      <trkpt lat="38.3229270" lon="-0.6660810">
        <ele>213.2</ele>
        <time>2017-12-18T15:18:02Z</time>
      </trkpt>
      <trkpt lat="38.3229200" lon="-0.6661320">
        <ele>213.2</ele>
        <time>2017-12-18T15:18:03Z</time>
      </trkpt>
      <trkpt lat="38.3229120" lon="-0.6661850">
        <ele>213.2</ele>
        <time>2017-12-18T15:18:04Z</time>
      </trkpt>
      <trkpt lat="38.3229050" lon="-0.6662340">
        <ele>214.1</ele>
        <time>2017-12-18T15:18:05Z</time>
      </trkpt>
      <trkpt lat="38.3228980" lon="-0.6662880">
        <ele>214.1</ele>
        <time>2017-12-18T15:18:06Z</time>
      </trkpt>
      <trkpt lat="38.3228920" lon="-0.6663420">
        <ele>214.1</ele>
        <time>2017-12-18T15:18:07Z</time>
      </trkpt>
      <trkpt lat="38.3228840" lon="-0.6663930">
        <ele>214.1</ele>
        <time>2017-12-18T15:18:08Z</time>
      </trkpt>
      <trkpt lat="38.3228800" lon="-0.6664410">
        <ele>214.1</ele>
        <time>2017-12-18T15:18:09Z</time>
      </trkpt>
      <trkpt lat="38.3228790" lon="-0.6664900">
        <ele>214.1</ele>
        <time>2017-12-18T15:18:10Z</time>
      </trkpt>
      <trkpt lat="38.3228790" lon="-0.6665340">
        <ele>214.1</ele>
        <time>2017-12-18T15:18:11Z</time>
      </trkpt>
      <trkpt lat="38.3228810" lon="-0.6665770">
        <ele>214.1</ele>
        <time>2017-12-18T15:18:12Z</time>
      </trkpt>
      <trkpt lat="38.3228830" lon="-0.6666140">
        <ele>215.2</ele>
        <time>2017-12-18T15:18:13Z</time>
      </trkpt>
      <trkpt lat="38.3228860" lon="-0.6666480">
        <ele>215.2</ele>
        <time>2017-12-18T15:18:14Z</time>
      </trkpt>
      <trkpt lat="38.3228920" lon="-0.6666830">
        <ele>215.2</ele>
        <time>2017-12-18T15:18:15Z</time>
      </trkpt>
      <trkpt lat="38.3228980" lon="-0.6667200">
        <ele>215.2</ele>
        <time>2017-12-18T15:18:16Z</time>
      </trkpt>
      <trkpt lat="38.3229020" lon="-0.6667580">
        <ele>216.1</ele>
        <time>2017-12-18T15:18:17Z</time>
      </trkpt>
      <trkpt lat="38.3229050" lon="-0.6667970">
        <ele>216.1</ele>
        <time>2017-12-18T15:18:18Z</time>
      </trkpt>
      <trkpt lat="38.3229080" lon="-0.6668360">
        <ele>216.1</ele>
        <time>2017-12-18T15:18:19Z</time>
      </trkpt>
      <trkpt lat="38.3229110" lon="-0.6668750">
        <ele>216.1</ele>
        <time>2017-12-18T15:18:20Z</time>
      </trkpt>
      <trkpt lat="38.3229140" lon="-0.6669140">
        <ele>216.1</ele>
        <time>2017-12-18T15:18:21Z</time>
      </trkpt>
      <trkpt lat="38.3229180" lon="-0.6669540">
        <ele>216.1</ele>
        <time>2017-12-18T15:18:22Z</time>
      </trkpt>
      <trkpt lat="38.3229230" lon="-0.6669940">
        <ele>216.1</ele>
        <time>2017-12-18T15:18:23Z</time>
      </trkpt>
      <trkpt lat="38.3229260" lon="-0.6670330">
        <ele>216.1</ele>
        <time>2017-12-18T15:18:24Z</time>
      </trkpt>
      <trkpt lat="38.3229280" lon="-0.6670720">
        <ele>217.2</ele>
        <time>2017-12-18T15:18:25Z</time>
      </trkpt>
      <trkpt lat="38.3229320" lon="-0.6671130">
        <ele>217.2</ele>
        <time>2017-12-18T15:18:26Z</time>
      </trkpt>
      <trkpt lat="38.3229350" lon="-0.6671530">
        <ele>217.2</ele>
        <time>2017-12-18T15:18:27Z</time>
      </trkpt>
      <trkpt lat="38.3229400" lon="-0.6671960">
        <ele>217.2</ele>
        <time>2017-12-18T15:18:28Z</time>
      </trkpt>
      <trkpt lat="38.3229450" lon="-0.6672380">
        <ele>217.2</ele>
        <time>2017-12-18T15:18:29Z</time>
      </trkpt>
      <trkpt lat="38.3229500" lon="-0.6672800">
        <ele>217.2</ele>
        <time>2017-12-18T15:18:30Z</time>
      </trkpt>
      <trkpt lat="38.3229560" lon="-0.6673200">
        <ele>218.1</ele>
        <time>2017-12-18T15:18:31Z</time>
      </trkpt>
      <trkpt lat="38.3229600" lon="-0.6673630">
        <ele>218.1</ele>
        <time>2017-12-18T15:18:32Z</time>
      </trkpt>
      <trkpt lat="38.3229640" lon="-0.6674060">
        <ele>219.2</ele>
        <time>2017-12-18T15:18:33Z</time>
      </trkpt>
      <trkpt lat="38.3229700" lon="-0.6674510">
        <ele>219.2</ele>
        <time>2017-12-18T15:18:34Z</time>
      </trkpt>
      <trkpt lat="38.3229750" lon="-0.6674920">
        <ele>219.2</ele>
        <time>2017-12-18T15:18:35Z</time>
      </trkpt>
      <trkpt lat="38.3229800" lon="-0.6675320">
        <ele>219.2</ele>
        <time>2017-12-18T15:18:36Z</time>
      </trkpt>
      <trkpt lat="38.3229830" lon="-0.6675700">
        <ele>219.2</ele>
        <time>2017-12-18T15:18:37Z</time>
      </trkpt>
      <trkpt lat="38.3229860" lon="-0.6676090">
        <ele>219.2</ele>
        <time>2017-12-18T15:18:38Z</time>
      </trkpt>
      <trkpt lat="38.3229890" lon="-0.6676460">
        <ele>219.2</ele>
        <time>2017-12-18T15:18:39Z</time>
      </trkpt>
      <trkpt lat="38.3229930" lon="-0.6676810">
        <ele>219.2</ele>
        <time>2017-12-18T15:18:40Z</time>
      </trkpt>
      <trkpt lat="38.3230000" lon="-0.6677150">
        <ele>219.2</ele>
        <time>2017-12-18T15:18:41Z</time>
      </trkpt>
      <trkpt lat="38.3230080" lon="-0.6677490">
        <ele>219.2</ele>
        <time>2017-12-18T15:18:42Z</time>
      </trkpt>
      <trkpt lat="38.3230140" lon="-0.6677830">
        <ele>220.2</ele>
        <time>2017-12-18T15:18:43Z</time>
      </trkpt>
      <trkpt lat="38.3230210" lon="-0.6678140">
        <ele>220.2</ele>
        <time>2017-12-18T15:18:44Z</time>
      </trkpt>
      <trkpt lat="38.3230270" lon="-0.6678410">
        <ele>221.1</ele>
        <time>2017-12-18T15:18:45Z</time>
      </trkpt>
      <trkpt lat="38.3230320" lon="-0.6678690">
        <ele>221.1</ele>
        <time>2017-12-18T15:18:46Z</time>
      </trkpt>
      <trkpt lat="38.3230390" lon="-0.6678970">
        <ele>221.1</ele>
        <time>2017-12-18T15:18:47Z</time>
      </trkpt>
      <trkpt lat="38.3230520" lon="-0.6679300">
        <ele>221.1</ele>
        <time>2017-12-18T15:18:48Z</time>
      </trkpt>
      <trkpt lat="38.3230590" lon="-0.6679640">
        <ele>222.2</ele>
        <time>2017-12-18T15:18:49Z</time>
      </trkpt>
      <trkpt lat="38.3230650" lon="-0.6679970">
        <ele>222.2</ele>
        <time>2017-12-18T15:18:50Z</time>
      </trkpt>
      <trkpt lat="38.3230690" lon="-0.6680280">
        <ele>222.2</ele>
        <time>2017-12-18T15:18:51Z</time>
      </trkpt>
      <trkpt lat="38.3230750" lon="-0.6680540">
        <ele>222.2</ele>
        <time>2017-12-18T15:18:52Z</time>
      </trkpt>
      <trkpt lat="38.3230790" lon="-0.6680820">
        <ele>223.1</ele>
        <time>2017-12-18T15:18:53Z</time>
      </trkpt>
      <trkpt lat="38.3230840" lon="-0.6681110">
        <ele>223.1</ele>
        <time>2017-12-18T15:18:54Z</time>
      </trkpt>
      <trkpt lat="38.3230930" lon="-0.6681330">
        <ele>224.2</ele>
        <time>2017-12-18T15:18:55Z</time>
      </trkpt>
      <trkpt lat="38.3230960" lon="-0.6681540">
        <ele>224.2</ele>
        <time>2017-12-18T15:18:56Z</time>
      </trkpt>
      <trkpt lat="38.3230940" lon="-0.6681760">
        <ele>225.1</ele>
        <time>2017-12-18T15:18:57Z</time>
      </trkpt>
      <trkpt lat="38.3230910" lon="-0.6681960">
        <ele>225.1</ele>
        <time>2017-12-18T15:18:58Z</time>
      </trkpt>
      <trkpt lat="38.3230840" lon="-0.6682140">
        <ele>225.1</ele>
        <time>2017-12-18T15:18:59Z</time>
      </trkpt>
      <trkpt lat="38.3230830" lon="-0.6682340">
        <ele>225.1</ele>
        <time>2017-12-18T15:19:00Z</time>
      </trkpt>
      <trkpt lat="38.3230810" lon="-0.6682590">
        <ele>225.1</ele>
        <time>2017-12-18T15:19:01Z</time>
      </trkpt>
      <trkpt lat="38.3230760" lon="-0.6682860">
        <ele>225.1</ele>
        <time>2017-12-18T15:19:02Z</time>
      </trkpt>
      <trkpt lat="38.3230750" lon="-0.6683140">
        <ele>225.1</ele>
        <time>2017-12-18T15:19:03Z</time>
      </trkpt>
      <trkpt lat="38.3230710" lon="-0.6683340">
        <ele>225.1</ele>
        <time>2017-12-18T15:19:04Z</time>
      </trkpt>
      <trkpt lat="38.3230700" lon="-0.6683580">
        <ele>225.1</ele>
        <time>2017-12-18T15:19:05Z</time>
      </trkpt>
      <trkpt lat="38.3230700" lon="-0.6683910">
        <ele>225.1</ele>
        <time>2017-12-18T15:19:06Z</time>
      </trkpt>
      <trkpt lat="38.3230660" lon="-0.6684350">
        <ele>227.1</ele>
        <time>2017-12-18T15:19:07Z</time>
      </trkpt>
      <trkpt lat="38.3230580" lon="-0.6684820">
        <ele>227.1</ele>
        <time>2017-12-18T15:19:08Z</time>
      </trkpt>
      <trkpt lat="38.3230500" lon="-0.6685300">
        <ele>227.1</ele>
        <time>2017-12-18T15:19:09Z</time>
      </trkpt>
      <trkpt lat="38.3230390" lon="-0.6685760">
        <ele>227.1</ele>
        <time>2017-12-18T15:19:10Z</time>
      </trkpt>
      <trkpt lat="38.3230350" lon="-0.6686180">
        <ele>227.1</ele>
        <time>2017-12-18T15:19:11Z</time>
      </trkpt>
      <trkpt lat="38.3230320" lon="-0.6686540">
        <ele>227.1</ele>
        <time>2017-12-18T15:19:12Z</time>
      </trkpt>
      <trkpt lat="38.3230270" lon="-0.6686880">
        <ele>227.1</ele>
        <time>2017-12-18T15:19:13Z</time>
      </trkpt>
      <trkpt lat="38.3230230" lon="-0.6687200">
        <ele>227.1</ele>
        <time>2017-12-18T15:19:14Z</time>
      </trkpt>
      <trkpt lat="38.3230190" lon="-0.6687500">
        <ele>227.1</ele>
        <time>2017-12-18T15:19:15Z</time>
      </trkpt>
      <trkpt lat="38.3230150" lon="-0.6687780">
        <ele>227.1</ele>
        <time>2017-12-18T15:19:16Z</time>
      </trkpt>
      <trkpt lat="38.3230100" lon="-0.6688070">
        <ele>228.1</ele>
        <time>2017-12-18T15:19:17Z</time>
      </trkpt>
      <trkpt lat="38.3230070" lon="-0.6688350">
        <ele>228.1</ele>
        <time>2017-12-18T15:19:18Z</time>
      </trkpt>
      <trkpt lat="38.3230050" lon="-0.6688600">
        <ele>228.1</ele>
        <time>2017-12-18T15:19:19Z</time>
      </trkpt>
      <trkpt lat="38.3230030" lon="-0.6688840">
        <ele>228.1</ele>
        <time>2017-12-18T15:19:20Z</time>
      </trkpt>
      <trkpt lat="38.3230010" lon="-0.6689100">
        <ele>228.1</ele>
        <time>2017-12-18T15:19:21Z</time>
      </trkpt>
      <trkpt lat="38.3229980" lon="-0.6689390">
        <ele>228.1</ele>
        <time>2017-12-18T15:19:22Z</time>
      </trkpt>
      <trkpt lat="38.3229960" lon="-0.6689710">
        <ele>228.1</ele>
        <time>2017-12-18T15:19:23Z</time>
      </trkpt>
      <trkpt lat="38.3229960" lon="-0.6690000">
        <ele>228.1</ele>
        <time>2017-12-18T15:19:24Z</time>
      </trkpt>
      <trkpt lat="38.3229940" lon="-0.6690330">
        <ele>228.1</ele>
        <time>2017-12-18T15:19:25Z</time>
      </trkpt>
      <trkpt lat="38.3229970" lon="-0.6690660">
        <ele>228.1</ele>
        <time>2017-12-18T15:19:26Z</time>
      </trkpt>
      <trkpt lat="38.3230000" lon="-0.6691020">
        <ele>228.1</ele>
        <time>2017-12-18T15:19:27Z</time>
      </trkpt>
      <trkpt lat="38.3230000" lon="-0.6691380">
        <ele>228.1</ele>
        <time>2017-12-18T15:19:28Z</time>
      </trkpt>
      <trkpt lat="38.3229990" lon="-0.6691750">
        <ele>228.1</ele>
        <time>2017-12-18T15:19:29Z</time>
      </trkpt>
      <trkpt lat="38.3230000" lon="-0.6692140">
        <ele>228.1</ele>
        <time>2017-12-18T15:19:30Z</time>
      </trkpt>
      <trkpt lat="38.3230020" lon="-0.6692500">
        <ele>228.1</ele>
        <time>2017-12-18T15:19:31Z</time>
      </trkpt>
      <trkpt lat="38.3230050" lon="-0.6692850">
        <ele>228.1</ele>
        <time>2017-12-18T15:19:32Z</time>
      </trkpt>
      <trkpt lat="38.3230100" lon="-0.6693160">
        <ele>228.1</ele>
        <time>2017-12-18T15:19:33Z</time>
      </trkpt>
      <trkpt lat="38.3230150" lon="-0.6693460">
        <ele>228.1</ele>
        <time>2017-12-18T15:19:34Z</time>
      </trkpt>
      <trkpt lat="38.3230160" lon="-0.6693720">
        <ele>228.1</ele>
        <time>2017-12-18T15:19:35Z</time>
      </trkpt>
      <trkpt lat="38.3230100" lon="-0.6693970">
        <ele>228.1</ele>
        <time>2017-12-18T15:19:36Z</time>
      </trkpt>
      <trkpt lat="38.3229950" lon="-0.6694230">
        <ele>228.1</ele>
        <time>2017-12-18T15:19:37Z</time>
      </trkpt>
      <trkpt lat="38.3229790" lon="-0.6694470">
        <ele>228.1</ele>
        <time>2017-12-18T15:19:38Z</time>
      </trkpt>
      <trkpt lat="38.3229570" lon="-0.6694740">
        <ele>230.1</ele>
        <time>2017-12-18T15:19:39Z</time>
      </trkpt>
      <trkpt lat="38.3229320" lon="-0.6694980">
        <ele>230.1</ele>
        <time>2017-12-18T15:19:40Z</time>
      </trkpt>
      <trkpt lat="38.3229120" lon="-0.6695190">
        <ele>230.1</ele>
        <time>2017-12-18T15:19:41Z</time>
      </trkpt>
      <trkpt lat="38.3228950" lon="-0.6695430">
        <ele>230.1</ele>
        <time>2017-12-18T15:19:42Z</time>
      </trkpt>
      <trkpt lat="38.3228690" lon="-0.6695510">
        <ele>230.1</ele>
        <time>2017-12-18T15:19:43Z</time>
      </trkpt>
      <trkpt lat="38.3228410" lon="-0.6695580">
        <ele>230.1</ele>
        <time>2017-12-18T15:19:44Z</time>
      </trkpt>
      <trkpt lat="38.3228140" lon="-0.6695650">
        <ele>230.1</ele>
        <time>2017-12-18T15:19:45Z</time>
      </trkpt>
      <trkpt lat="38.3227870" lon="-0.6695690">
        <ele>230.1</ele>
        <time>2017-12-18T15:19:46Z</time>
      </trkpt>
      <trkpt lat="38.3227650" lon="-0.6695720">
        <ele>230.1</ele>
        <time>2017-12-18T15:19:47Z</time>
      </trkpt>
      <trkpt lat="38.3227570" lon="-0.6695750">
        <ele>230.1</ele>
        <time>2017-12-18T15:19:48Z</time>
      </trkpt>
      <trkpt lat="38.3226290" lon="-0.6696000">
        <ele>231.2</ele>
        <time>2017-12-18T15:19:49Z</time>
      </trkpt>
      <trkpt lat="38.3226080" lon="-0.6695960">
        <ele>231.2</ele>
        <time>2017-12-18T15:23:05Z</time>
      </trkpt>
      <trkpt lat="38.3225870" lon="-0.6695960">
        <ele>230.1</ele>
        <time>2017-12-18T15:23:06Z</time>
      </trkpt>
      <trkpt lat="38.3225660" lon="-0.6696010">
        <ele>230.1</ele>
        <time>2017-12-18T15:23:07Z</time>
      </trkpt>
      <trkpt lat="38.3225480" lon="-0.6696140">
        <ele>230.1</ele>
        <time>2017-12-18T15:23:08Z</time>
      </trkpt>
      <trkpt lat="38.3225340" lon="-0.6696270">
        <ele>230.1</ele>
        <time>2017-12-18T15:23:09Z</time>
      </trkpt>
      <trkpt lat="38.3225250" lon="-0.6696340">
        <ele>230.1</ele>
        <time>2017-12-18T15:23:10Z</time>
      </trkpt>
      <trkpt lat="38.3225270" lon="-0.6696420">
        <ele>230.1</ele>
        <time>2017-12-18T15:23:11Z</time>
      </trkpt>
      <trkpt lat="38.3225140" lon="-0.6696520">
        <ele>230.1</ele>
        <time>2017-12-18T15:24:27Z</time>
      </trkpt>
      <trkpt lat="38.3224960" lon="-0.6696640">
        <ele>230.1</ele>
        <time>2017-12-18T15:24:28Z</time>
      </trkpt>
      <trkpt lat="38.3224760" lon="-0.6696740">
        <ele>230.1</ele>
        <time>2017-12-18T15:24:29Z</time>
      </trkpt>
      <trkpt lat="38.3224530" lon="-0.6696850">
        <ele>230.1</ele>
        <time>2017-12-18T15:24:30Z</time>
      </trkpt>
      <trkpt lat="38.3224250" lon="-0.6696970">
        <ele>230.1</ele>
        <time>2017-12-18T15:24:31Z</time>
      </trkpt>
      <trkpt lat="38.3223960" lon="-0.6697060">
        <ele>230.1</ele>
        <time>2017-12-18T15:24:32Z</time>
      </trkpt>
      <trkpt lat="38.3223750" lon="-0.6697110">
        <ele>231.2</ele>
        <time>2017-12-18T15:24:33Z</time>
      </trkpt>
      <trkpt lat="38.3223560" lon="-0.6697140">
        <ele>231.2</ele>
        <time>2017-12-18T15:24:34Z</time>
      </trkpt>
      <trkpt lat="38.3223260" lon="-0.6697190">
        <ele>231.2</ele>
        <time>2017-12-18T15:24:35Z</time>
      </trkpt>
      <trkpt lat="38.3222810" lon="-0.6697260">
        <ele>231.2</ele>
        <time>2017-12-18T15:24:36Z</time>
      </trkpt>
      <trkpt lat="38.3222410" lon="-0.6697400">
        <ele>231.2</ele>
        <time>2017-12-18T15:24:37Z</time>
      </trkpt>
      <trkpt lat="38.3221970" lon="-0.6697510">
        <ele>231.2</ele>
        <time>2017-12-18T15:24:38Z</time>
      </trkpt>
      <trkpt lat="38.3221520" lon="-0.6697600">
        <ele>231.2</ele>
        <time>2017-12-18T15:24:39Z</time>
      </trkpt>
      <trkpt lat="38.3221080" lon="-0.6697720">
        <ele>231.2</ele>
        <time>2017-12-18T15:24:40Z</time>
      </trkpt>
      <trkpt lat="38.3220600" lon="-0.6697810">
        <ele>231.2</ele>
        <time>2017-12-18T15:24:41Z</time>
      </trkpt>
      <trkpt lat="38.3220080" lon="-0.6697920">
        <ele>231.2</ele>
        <time>2017-12-18T15:24:42Z</time>
      </trkpt>
      <trkpt lat="38.3219580" lon="-0.6698100">
        <ele>231.2</ele>
        <time>2017-12-18T15:24:43Z</time>
      </trkpt>
      <trkpt lat="38.3219060" lon="-0.6698230">
        <ele>231.2</ele>
        <time>2017-12-18T15:24:44Z</time>
      </trkpt>
      <trkpt lat="38.3218530" lon="-0.6698240">
        <ele>231.2</ele>
        <time>2017-12-18T15:24:45Z</time>
      </trkpt>
      <trkpt lat="38.3217920" lon="-0.6698340">
        <ele>231.2</ele>
        <time>2017-12-18T15:24:46Z</time>
      </trkpt>
      <trkpt lat="38.3217360" lon="-0.6698510">
        <ele>231.2</ele>
        <time>2017-12-18T15:24:47Z</time>
      </trkpt>
      <trkpt lat="38.3216960" lon="-0.6698700">
        <ele>231.2</ele>
        <time>2017-12-18T15:24:48Z</time>
      </trkpt>
      <trkpt lat="38.3216790" lon="-0.6698940">
        <ele>231.2</ele>
        <time>2017-12-18T15:24:49Z</time>
      </trkpt>
      <trkpt lat="38.3216680" lon="-0.6699180">
        <ele>231.2</ele>
        <time>2017-12-18T15:24:50Z</time>
      </trkpt>
      <trkpt lat="38.3216610" lon="-0.6699400">
        <ele>231.2</ele>
        <time>2017-12-18T15:24:51Z</time>
      </trkpt>
      <trkpt lat="38.3216560" lon="-0.6699680">
        <ele>231.2</ele>
        <time>2017-12-18T15:24:52Z</time>
      </trkpt>
      <trkpt lat="38.3216560" lon="-0.6699990">
        <ele>234.1</ele>
        <time>2017-12-18T15:24:53Z</time>
      </trkpt>
      <trkpt lat="38.3216570" lon="-0.6700320">
        <ele>234.1</ele>
        <time>2017-12-18T15:24:54Z</time>
      </trkpt>
      <trkpt lat="38.3216560" lon="-0.6700670">
        <ele>235.2</ele>
        <time>2017-12-18T15:24:55Z</time>
      </trkpt>
      <trkpt lat="38.3216530" lon="-0.6701070">
        <ele>235.2</ele>
        <time>2017-12-18T15:24:56Z</time>
      </trkpt>
      <trkpt lat="38.3216520" lon="-0.6701440">
        <ele>235.2</ele>
        <time>2017-12-18T15:24:57Z</time>
      </trkpt>
      <trkpt lat="38.3216520" lon="-0.6701820">
        <ele>235.2</ele>
        <time>2017-12-18T15:24:58Z</time>
      </trkpt>
      <trkpt lat="38.3216520" lon="-0.6702210">
        <ele>235.2</ele>
        <time>2017-12-18T15:24:59Z</time>
      </trkpt>
      <trkpt lat="38.3216540" lon="-0.6702610">
        <ele>235.2</ele>
        <time>2017-12-18T15:25:00Z</time>
      </trkpt>
      <trkpt lat="38.3216510" lon="-0.6703010">
        <ele>236.1</ele>
        <time>2017-12-18T15:25:01Z</time>
      </trkpt>
      <trkpt lat="38.3216480" lon="-0.6703420">
        <ele>236.1</ele>
        <time>2017-12-18T15:25:02Z</time>
      </trkpt>
      <trkpt lat="38.3216470" lon="-0.6703800">
        <ele>236.1</ele>
        <time>2017-12-18T15:25:03Z</time>
      </trkpt>
      <trkpt lat="38.3216480" lon="-0.6704160">
        <ele>236.1</ele>
        <time>2017-12-18T15:25:04Z</time>
      </trkpt>
      <trkpt lat="38.3216480" lon="-0.6704510">
        <ele>237.1</ele>
        <time>2017-12-18T15:25:05Z</time>
      </trkpt>
      <trkpt lat="38.3216480" lon="-0.6704850">
        <ele>237.1</ele>
        <time>2017-12-18T15:25:06Z</time>
      </trkpt>
      <trkpt lat="38.3216540" lon="-0.6705180">
        <ele>237.1</ele>
        <time>2017-12-18T15:25:07Z</time>
      </trkpt>
      <trkpt lat="38.3216580" lon="-0.6705500">
        <ele>237.1</ele>
        <time>2017-12-18T15:25:08Z</time>
      </trkpt>
      <trkpt lat="38.3216670" lon="-0.6705880">
        <ele>237.1</ele>
        <time>2017-12-18T15:25:09Z</time>
      </trkpt>
      <trkpt lat="38.3216770" lon="-0.6706280">
        <ele>237.1</ele>
        <time>2017-12-18T15:25:10Z</time>
      </trkpt>
      <trkpt lat="38.3216880" lon="-0.6706650">
        <ele>238.2</ele>
        <time>2017-12-18T15:25:11Z</time>
      </trkpt>
      <trkpt lat="38.3216990" lon="-0.6706970">
        <ele>238.2</ele>
        <time>2017-12-18T15:25:12Z</time>
      </trkpt>
      <trkpt lat="38.3217140" lon="-0.6707280">
        <ele>238.2</ele>
        <time>2017-12-18T15:25:13Z</time>
      </trkpt>
      <trkpt lat="38.3217270" lon="-0.6707580">
        <ele>238.2</ele>
        <time>2017-12-18T15:25:14Z</time>
      </trkpt>
      <trkpt lat="38.3217380" lon="-0.6707880">
        <ele>239.1</ele>
        <time>2017-12-18T15:25:15Z</time>
      </trkpt>
      <trkpt lat="38.3217500" lon="-0.6708240">
        <ele>239.1</ele>
        <time>2017-12-18T15:25:16Z</time>
      </trkpt>
      <trkpt lat="38.3217620" lon="-0.6708650">
        <ele>239.1</ele>
        <time>2017-12-18T15:25:17Z</time>
      </trkpt>
      <trkpt lat="38.3217750" lon="-0.6709100">
        <ele>239.1</ele>
        <time>2017-12-18T15:25:18Z</time>
      </trkpt>
      <trkpt lat="38.3217900" lon="-0.6709570">
        <ele>239.1</ele>
        <time>2017-12-18T15:25:19Z</time>
      </trkpt>
      <trkpt lat="38.3218050" lon="-0.6710080">
        <ele>239.1</ele>
        <time>2017-12-18T15:25:20Z</time>
      </trkpt>
      <trkpt lat="38.3218220" lon="-0.6710600">
        <ele>238.2</ele>
        <time>2017-12-18T15:25:21Z</time>
      </trkpt>
      <trkpt lat="38.3218400" lon="-0.6711140">
        <ele>238.2</ele>
        <time>2017-12-18T15:25:22Z</time>
      </trkpt>
      <trkpt lat="38.3218550" lon="-0.6711700">
        <ele>238.2</ele>
        <time>2017-12-18T15:25:23Z</time>
      </trkpt>
      <trkpt lat="38.3218690" lon="-0.6712290">
        <ele>238.2</ele>
        <time>2017-12-18T15:25:24Z</time>
      </trkpt>
      <trkpt lat="38.3218820" lon="-0.6712880">
        <ele>237.1</ele>
        <time>2017-12-18T15:25:25Z</time>
      </trkpt>
      <trkpt lat="38.3218930" lon="-0.6713480">
        <ele>237.1</ele>
        <time>2017-12-18T15:25:26Z</time>
      </trkpt>
      <trkpt lat="38.3219020" lon="-0.6714100">
        <ele>237.1</ele>
        <time>2017-12-18T15:25:27Z</time>
      </trkpt>
      <trkpt lat="38.3219050" lon="-0.6714750">
        <ele>237.1</ele>
        <time>2017-12-18T15:25:28Z</time>
      </trkpt>
      <trkpt lat="38.3219060" lon="-0.6715420">
        <ele>237.1</ele>
        <time>2017-12-18T15:25:29Z</time>
      </trkpt>
      <trkpt lat="38.3219040" lon="-0.6716090">
        <ele>237.1</ele>
        <time>2017-12-18T15:25:30Z</time>
      </trkpt>
      <trkpt lat="38.3219010" lon="-0.6716740">
        <ele>236.1</ele>
        <time>2017-12-18T15:25:31Z</time>
      </trkpt>
      <trkpt lat="38.3219000" lon="-0.6717380">
        <ele>236.1</ele>
        <time>2017-12-18T15:25:32Z</time>
      </trkpt>
      <trkpt lat="38.3219010" lon="-0.6718010">
        <ele>236.1</ele>
        <time>2017-12-18T15:25:33Z</time>
      </trkpt>
      <trkpt lat="38.3219010" lon="-0.6718610">
        <ele>236.1</ele>
        <time>2017-12-18T15:25:34Z</time>
      </trkpt>
      <trkpt lat="38.3219010" lon="-0.6719190">
        <ele>236.1</ele>
        <time>2017-12-18T15:25:35Z</time>
      </trkpt>
      <trkpt lat="38.3219020" lon="-0.6719760">
        <ele>236.1</ele>
        <time>2017-12-18T15:25:36Z</time>
      </trkpt>
      <trkpt lat="38.3219040" lon="-0.6720330">
        <ele>236.1</ele>
        <time>2017-12-18T15:25:37Z</time>
      </trkpt>
      <trkpt lat="38.3219090" lon="-0.6720880">
        <ele>236.1</ele>
        <time>2017-12-18T15:25:38Z</time>
      </trkpt>
      <trkpt lat="38.3219150" lon="-0.6721420">
        <ele>236.1</ele>
        <time>2017-12-18T15:25:39Z</time>
      </trkpt>
      <trkpt lat="38.3219220" lon="-0.6721960">
        <ele>236.1</ele>
        <time>2017-12-18T15:25:40Z</time>
      </trkpt>
      <trkpt lat="38.3219260" lon="-0.6722490">
        <ele>236.1</ele>
        <time>2017-12-18T15:25:41Z</time>
      </trkpt>
      <trkpt lat="38.3219290" lon="-0.6723030">
        <ele>236.1</ele>
        <time>2017-12-18T15:25:42Z</time>
      </trkpt>
      <trkpt lat="38.3219330" lon="-0.6723560">
        <ele>237.1</ele>
        <time>2017-12-18T15:25:43Z</time>
      </trkpt>
      <trkpt lat="38.3219400" lon="-0.6724090">
        <ele>237.1</ele>
        <time>2017-12-18T15:25:44Z</time>
      </trkpt>
      <trkpt lat="38.3219450" lon="-0.6724600">
        <ele>237.1</ele>
        <time>2017-12-18T15:25:45Z</time>
      </trkpt>
      <trkpt lat="38.3219510" lon="-0.6725090">
        <ele>237.1</ele>
        <time>2017-12-18T15:25:46Z</time>
      </trkpt>
      <trkpt lat="38.3219570" lon="-0.6725560">
        <ele>238.2</ele>
        <time>2017-12-18T15:25:47Z</time>
      </trkpt>
      <trkpt lat="38.3219640" lon="-0.6726030">
        <ele>238.2</ele>
        <time>2017-12-18T15:25:48Z</time>
      </trkpt>
      <trkpt lat="38.3219710" lon="-0.6726500">
        <ele>238.2</ele>
        <time>2017-12-18T15:25:49Z</time>
      </trkpt>
      <trkpt lat="38.3219820" lon="-0.6726950">
        <ele>238.2</ele>
        <time>2017-12-18T15:25:50Z</time>
      </trkpt>
      <trkpt lat="38.3219920" lon="-0.6727410">
        <ele>239.1</ele>
        <time>2017-12-18T15:25:51Z</time>
      </trkpt>
      <trkpt lat="38.3220000" lon="-0.6727850">
        <ele>239.1</ele>
        <time>2017-12-18T15:25:52Z</time>
      </trkpt>
      <trkpt lat="38.3220060" lon="-0.6728310">
        <ele>239.1</ele>
        <time>2017-12-18T15:25:53Z</time>
      </trkpt>
      <trkpt lat="38.3220150" lon="-0.6728760">
        <ele>239.1</ele>
        <time>2017-12-18T15:25:54Z</time>
      </trkpt>
      <trkpt lat="38.3220230" lon="-0.6729190">
        <ele>240.2</ele>
        <time>2017-12-18T15:25:55Z</time>
      </trkpt>
      <trkpt lat="38.3220320" lon="-0.6729620">
        <ele>240.2</ele>
        <time>2017-12-18T15:25:56Z</time>
      </trkpt>
      <trkpt lat="38.3220410" lon="-0.6730100">
        <ele>240.2</ele>
        <time>2017-12-18T15:25:57Z</time>
      </trkpt>
      <trkpt lat="38.3220470" lon="-0.6730580">
        <ele>240.2</ele>
        <time>2017-12-18T15:25:58Z</time>
      </trkpt>
      <trkpt lat="38.3220570" lon="-0.6731020">
        <ele>240.2</ele>
        <time>2017-12-18T15:25:59Z</time>
      </trkpt>
      <trkpt lat="38.3220660" lon="-0.6731440">
        <ele>240.2</ele>
        <time>2017-12-18T15:26:00Z</time>
      </trkpt>
      <trkpt lat="38.3220780" lon="-0.6731840">
        <ele>240.2</ele>
        <time>2017-12-18T15:26:01Z</time>
      </trkpt>
      <trkpt lat="38.3220890" lon="-0.6732260">
        <ele>240.2</ele>
        <time>2017-12-18T15:26:02Z</time>
      </trkpt>
      <trkpt lat="38.3221010" lon="-0.6732660">
        <ele>240.2</ele>
        <time>2017-12-18T15:26:03Z</time>
      </trkpt>
      <trkpt lat="38.3221130" lon="-0.6733060">
        <ele>240.2</ele>
        <time>2017-12-18T15:26:04Z</time>
      </trkpt>
      <trkpt lat="38.3221250" lon="-0.6733450">
        <ele>241.1</ele>
        <time>2017-12-18T15:26:05Z</time>
      </trkpt>
      <trkpt lat="38.3221390" lon="-0.6733820">
        <ele>241.1</ele>
        <time>2017-12-18T15:26:06Z</time>
      </trkpt>
      <trkpt lat="38.3221540" lon="-0.6734200">
        <ele>241.1</ele>
        <time>2017-12-18T15:26:07Z</time>
      </trkpt>
      <trkpt lat="38.3221680" lon="-0.6734580">
        <ele>241.1</ele>
        <time>2017-12-18T15:26:08Z</time>
      </trkpt>
      <trkpt lat="38.3221770" lon="-0.6734970">
        <ele>242.2</ele>
        <time>2017-12-18T15:26:09Z</time>
      </trkpt>
      <trkpt lat="38.3221810" lon="-0.6735370">
        <ele>242.2</ele>
        <time>2017-12-18T15:26:10Z</time>
      </trkpt>
      <trkpt lat="38.3221840" lon="-0.6735780">
        <ele>243.1</ele>
        <time>2017-12-18T15:26:11Z</time>
      </trkpt>
      <trkpt lat="38.3221890" lon="-0.6736170">
        <ele>243.1</ele>
        <time>2017-12-18T15:26:12Z</time>
      </trkpt>
      <trkpt lat="38.3221960" lon="-0.6736550">
        <ele>243.1</ele>
        <time>2017-12-18T15:26:13Z</time>
      </trkpt>
      <trkpt lat="38.3222030" lon="-0.6736960">
        <ele>243.1</ele>
        <time>2017-12-18T15:26:14Z</time>
      </trkpt>
      <trkpt lat="38.3222120" lon="-0.6737370">
        <ele>243.1</ele>
        <time>2017-12-18T15:26:15Z</time>
      </trkpt>
      <trkpt lat="38.3222180" lon="-0.6737780">
        <ele>243.1</ele>
        <time>2017-12-18T15:26:16Z</time>
      </trkpt>
      <trkpt lat="38.3222180" lon="-0.6738210">
        <ele>243.1</ele>
        <time>2017-12-18T15:26:17Z</time>
      </trkpt>
      <trkpt lat="38.3222200" lon="-0.6738620">
        <ele>243.1</ele>
        <time>2017-12-18T15:26:18Z</time>
      </trkpt>
      <trkpt lat="38.3222190" lon="-0.6739050">
        <ele>244.1</ele>
        <time>2017-12-18T15:26:19Z</time>
      </trkpt>
      <trkpt lat="38.3222210" lon="-0.6739470">
        <ele>244.1</ele>
        <time>2017-12-18T15:26:20Z</time>
      </trkpt>
      <trkpt lat="38.3222200" lon="-0.6739930">
        <ele>244.1</ele>
        <time>2017-12-18T15:26:21Z</time>
      </trkpt>
      <trkpt lat="38.3222210" lon="-0.6740440">
        <ele>244.1</ele>
        <time>2017-12-18T15:26:22Z</time>
      </trkpt>
      <trkpt lat="38.3222270" lon="-0.6740950">
        <ele>245.2</ele>
        <time>2017-12-18T15:26:23Z</time>
      </trkpt>
      <trkpt lat="38.3222280" lon="-0.6741490">
        <ele>245.2</ele>
        <time>2017-12-18T15:26:24Z</time>
      </trkpt>
      <trkpt lat="38.3222290" lon="-0.6742010">
        <ele>245.2</ele>
        <time>2017-12-18T15:26:25Z</time>
      </trkpt>
      <trkpt lat="38.3222300" lon="-0.6742510">
        <ele>245.2</ele>
        <time>2017-12-18T15:26:26Z</time>
      </trkpt>
      <trkpt lat="38.3222310" lon="-0.6743000">
        <ele>245.2</ele>
        <time>2017-12-18T15:26:27Z</time>
      </trkpt>
      <trkpt lat="38.3222290" lon="-0.6743480">
        <ele>245.2</ele>
        <time>2017-12-18T15:26:28Z</time>
      </trkpt>
      <trkpt lat="38.3222290" lon="-0.6743970">
        <ele>245.2</ele>
        <time>2017-12-18T15:26:29Z</time>
      </trkpt>
      <trkpt lat="38.3222300" lon="-0.6744450">
        <ele>245.2</ele>
        <time>2017-12-18T15:26:30Z</time>
      </trkpt>
      <trkpt lat="38.3222340" lon="-0.6744930">
        <ele>246.1</ele>
        <time>2017-12-18T15:26:31Z</time>
      </trkpt>
      <trkpt lat="38.3222390" lon="-0.6745400">
        <ele>246.1</ele>
        <time>2017-12-18T15:26:32Z</time>
      </trkpt>
      <trkpt lat="38.3222510" lon="-0.6745870">
        <ele>246.1</ele>
        <time>2017-12-18T15:26:33Z</time>
      </trkpt>
      <trkpt lat="38.3222670" lon="-0.6746340">
        <ele>246.1</ele>
        <time>2017-12-18T15:26:34Z</time>
      </trkpt>
      <trkpt lat="38.3222810" lon="-0.6746820">
        <ele>246.1</ele>
        <time>2017-12-18T15:26:35Z</time>
      </trkpt>
      <trkpt lat="38.3222980" lon="-0.6747310">
        <ele>246.1</ele>
        <time>2017-12-18T15:26:36Z</time>
      </trkpt>
      <trkpt lat="38.3223150" lon="-0.6747800">
        <ele>246.1</ele>
        <time>2017-12-18T15:26:37Z</time>
      </trkpt>
      <trkpt lat="38.3223280" lon="-0.6748330">
        <ele>246.1</ele>
        <time>2017-12-18T15:26:38Z</time>
      </trkpt>
      <trkpt lat="38.3223360" lon="-0.6748870">
        <ele>246.1</ele>
        <time>2017-12-18T15:26:39Z</time>
      </trkpt>
      <trkpt lat="38.3223420" lon="-0.6749410">
        <ele>246.1</ele>
        <time>2017-12-18T15:26:40Z</time>
      </trkpt>
      <trkpt lat="38.3223420" lon="-0.6749960">
        <ele>246.1</ele>
        <time>2017-12-18T15:26:41Z</time>
      </trkpt>
      <trkpt lat="38.3223400" lon="-0.6750500">
        <ele>246.1</ele>
        <time>2017-12-18T15:26:42Z</time>
      </trkpt>
      <trkpt lat="38.3223360" lon="-0.6751030">
        <ele>246.1</ele>
        <time>2017-12-18T15:26:43Z</time>
      </trkpt>
      <trkpt lat="38.3223310" lon="-0.6751560">
        <ele>246.1</ele>
        <time>2017-12-18T15:26:44Z</time>
      </trkpt>
      <trkpt lat="38.3223310" lon="-0.6752060">
        <ele>246.1</ele>
        <time>2017-12-18T15:26:45Z</time>
      </trkpt>
      <trkpt lat="38.3223340" lon="-0.6752530">
        <ele>246.1</ele>
        <time>2017-12-18T15:26:46Z</time>
      </trkpt>
      <trkpt lat="38.3223370" lon="-0.6753030">
        <ele>247.2</ele>
        <time>2017-12-18T15:26:47Z</time>
      </trkpt>
      <trkpt lat="38.3223360" lon="-0.6753520">
        <ele>247.2</ele>
        <time>2017-12-18T15:26:48Z</time>
      </trkpt>
      <trkpt lat="38.3223380" lon="-0.6754010">
        <ele>247.2</ele>
        <time>2017-12-18T15:26:49Z</time>
      </trkpt>
      <trkpt lat="38.3223450" lon="-0.6754470">
        <ele>247.2</ele>
        <time>2017-12-18T15:26:50Z</time>
      </trkpt>
      <trkpt lat="38.3223500" lon="-0.6754940">
        <ele>247.2</ele>
        <time>2017-12-18T15:26:51Z</time>
      </trkpt>
      <trkpt lat="38.3223540" lon="-0.6755420">
        <ele>247.2</ele>
        <time>2017-12-18T15:26:52Z</time>
      </trkpt>
      <trkpt lat="38.3223570" lon="-0.6755910">
        <ele>248.1</ele>
        <time>2017-12-18T15:26:53Z</time>
      </trkpt>
      <trkpt lat="38.3223630" lon="-0.6756400">
        <ele>248.1</ele>
        <time>2017-12-18T15:26:54Z</time>
      </trkpt>
      <trkpt lat="38.3223700" lon="-0.6756880">
        <ele>248.1</ele>
        <time>2017-12-18T15:26:55Z</time>
      </trkpt>
      <trkpt lat="38.3223740" lon="-0.6757350">
        <ele>248.1</ele>
        <time>2017-12-18T15:26:56Z</time>
      </trkpt>
      <trkpt lat="38.3223830" lon="-0.6757830">
        <ele>248.1</ele>
        <time>2017-12-18T15:26:57Z</time>
      </trkpt>
      <trkpt lat="38.3223830" lon="-0.6758310">
        <ele>248.1</ele>
        <time>2017-12-18T15:26:58Z</time>
      </trkpt>
      <trkpt lat="38.3223800" lon="-0.6758770">
        <ele>248.1</ele>
        <time>2017-12-18T15:26:59Z</time>
      </trkpt>
      <trkpt lat="38.3223760" lon="-0.6759200">
        <ele>248.1</ele>
        <time>2017-12-18T15:27:00Z</time>
      </trkpt>
      <trkpt lat="38.3223640" lon="-0.6759580">
        <ele>249.2</ele>
        <time>2017-12-18T15:27:01Z</time>
      </trkpt>
      <trkpt lat="38.3223500" lon="-0.6759930">
        <ele>249.2</ele>
        <time>2017-12-18T15:27:02Z</time>
      </trkpt>
      <trkpt lat="38.3223350" lon="-0.6760250">
        <ele>249.2</ele>
        <time>2017-12-18T15:27:03Z</time>
      </trkpt>
      <trkpt lat="38.3223170" lon="-0.6760540">
        <ele>249.2</ele>
        <time>2017-12-18T15:27:04Z</time>
      </trkpt>
      <trkpt lat="38.3222980" lon="-0.6760870">
        <ele>250.1</ele>
        <time>2017-12-18T15:27:05Z</time>
      </trkpt>
      <trkpt lat="38.3222810" lon="-0.6761150">
        <ele>250.1</ele>
        <time>2017-12-18T15:27:06Z</time>
      </trkpt>
      <trkpt lat="38.3222640" lon="-0.6761450">
        <ele>250.1</ele>
        <time>2017-12-18T15:27:07Z</time>
      </trkpt>
      <trkpt lat="38.3222470" lon="-0.6761740">
        <ele>250.1</ele>
        <time>2017-12-18T15:27:08Z</time>
      </trkpt>
      <trkpt lat="38.3222320" lon="-0.6762010">
        <ele>251.2</ele>
        <time>2017-12-18T15:27:09Z</time>
      </trkpt>
      <trkpt lat="38.3222150" lon="-0.6762270">
        <ele>251.2</ele>
        <time>2017-12-18T15:27:10Z</time>
      </trkpt>
      <trkpt lat="38.3221950" lon="-0.6762510">
        <ele>251.2</ele>
        <time>2017-12-18T15:27:11Z</time>
      </trkpt>
      <trkpt lat="38.3221790" lon="-0.6762760">
        <ele>251.2</ele>
        <time>2017-12-18T15:27:12Z</time>
      </trkpt>
      <trkpt lat="38.3221700" lon="-0.6763040">
        <ele>252.1</ele>
        <time>2017-12-18T15:27:13Z</time>
      </trkpt>
      <trkpt lat="38.3221640" lon="-0.6763350">
        <ele>252.1</ele>
        <time>2017-12-18T15:27:14Z</time>
      </trkpt>
      <trkpt lat="38.3221500" lon="-0.6763660">
        <ele>252.1</ele>
        <time>2017-12-18T15:27:15Z</time>
      </trkpt>
      <trkpt lat="38.3221280" lon="-0.6763880">
        <ele>252.1</ele>
        <time>2017-12-18T15:27:16Z</time>
      </trkpt>
      <trkpt lat="38.3221070" lon="-0.6763990">
        <ele>252.1</ele>
        <time>2017-12-18T15:27:17Z</time>
      </trkpt>
      <trkpt lat="38.3220860" lon="-0.6763940">
        <ele>252.1</ele>
        <time>2017-12-18T15:27:18Z</time>
      </trkpt>
      <trkpt lat="38.3220680" lon="-0.6763820">
        <ele>253.1</ele>
        <time>2017-12-18T15:27:19Z</time>
      </trkpt>
      <trkpt lat="38.3220480" lon="-0.6763650">
        <ele>253.1</ele>
        <time>2017-12-18T15:27:20Z</time>
      </trkpt>
      <trkpt lat="38.3220330" lon="-0.6763470">
        <ele>253.1</ele>
        <time>2017-12-18T15:27:21Z</time>
      </trkpt>
      <trkpt lat="38.3220160" lon="-0.6763340">
        <ele>253.1</ele>
        <time>2017-12-18T15:27:22Z</time>
      </trkpt>
      <trkpt lat="38.3220100" lon="-0.6763280">
        <ele>253.1</ele>
        <time>2017-12-18T15:27:23Z</time>
      </trkpt>
      <trkpt lat="38.3220040" lon="-0.6763270">
        <ele>253.1</ele>
        <time>2017-12-18T15:27:24Z</time>
      </trkpt>
      <trkpt lat="38.3219960" lon="-0.6763230">
        <ele>253.1</ele>
        <time>2017-12-18T15:27:25Z</time>
      </trkpt>
      <trkpt lat="38.3219880" lon="-0.6763170">
        <ele>253.1</ele>
        <time>2017-12-18T15:27:26Z</time>
      </trkpt>
      <trkpt lat="38.3219790" lon="-0.6763060">
        <ele>256.2</ele>
        <time>2017-12-18T15:27:27Z</time>
      </trkpt>
      <trkpt lat="38.3219730" lon="-0.6762960">
        <ele>256.2</ele>
        <time>2017-12-18T15:27:28Z</time>
      </trkpt>
      <trkpt lat="38.3219690" lon="-0.6762910">
        <ele>256.2</ele>
        <time>2017-12-18T15:27:29Z</time>
      </trkpt>
      <trkpt lat="38.3219660" lon="-0.6762870">
        <ele>256.2</ele>
        <time>2017-12-18T15:27:30Z</time>
      </trkpt>
      <trkpt lat="38.3219630" lon="-0.6762790">
        <ele>257.1</ele>
        <time>2017-12-18T15:27:31Z</time>
      </trkpt>
      <trkpt lat="38.3219590" lon="-0.6762630">
        <ele>257.1</ele>
        <time>2017-12-18T15:27:32Z</time>
      </trkpt>
      <trkpt lat="38.3219530" lon="-0.6762450">
        <ele>257.1</ele>
        <time>2017-12-18T15:27:33Z</time>
      </trkpt>
      <trkpt lat="38.3219480" lon="-0.6762260">
        <ele>257.1</ele>
        <time>2017-12-18T15:27:34Z</time>
      </trkpt>
      <trkpt lat="38.3219480" lon="-0.6762020">
        <ele>257.1</ele>
        <time>2017-12-18T15:27:35Z</time>
      </trkpt>
      <trkpt lat="38.3219450" lon="-0.6761700">
        <ele>257.1</ele>
        <time>2017-12-18T15:27:36Z</time>
      </trkpt>
      <trkpt lat="38.3219390" lon="-0.6761380">
        <ele>258.2</ele>
        <time>2017-12-18T15:27:37Z</time>
      </trkpt>
      <trkpt lat="38.3219330" lon="-0.6761120">
        <ele>258.2</ele>
        <time>2017-12-18T15:27:38Z</time>
      </trkpt>
      <trkpt lat="38.3219200" lon="-0.6761030">
        <ele>258.2</ele>
        <time>2017-12-18T15:27:39Z</time>
      </trkpt>
      <trkpt lat="38.3219150" lon="-0.6760980">
        <ele>258.2</ele>
        <time>2017-12-18T15:27:40Z</time>
      </trkpt>
      <trkpt lat="38.3219060" lon="-0.6760970">
        <ele>258.2</ele>
        <time>2017-12-18T15:27:41Z</time>
      </trkpt>
      <trkpt lat="38.3218960" lon="-0.6761010">
        <ele>258.2</ele>
        <time>2017-12-18T15:27:42Z</time>
      </trkpt>
      <trkpt lat="38.3218910" lon="-0.6761140">
        <ele>258.2</ele>
        <time>2017-12-18T15:27:43Z</time>
      </trkpt>
      <trkpt lat="38.3218820" lon="-0.6761290">
        <ele>258.2</ele>
        <time>2017-12-18T15:27:44Z</time>
      </trkpt>
      <trkpt lat="38.3218690" lon="-0.6761460">
        <ele>258.2</ele>
        <time>2017-12-18T15:27:45Z</time>
      </trkpt>
      <trkpt lat="38.3218540" lon="-0.6761640">
        <ele>258.2</ele>
        <time>2017-12-18T15:27:46Z</time>
      </trkpt>
      <trkpt lat="38.3218420" lon="-0.6761830">
        <ele>258.2</ele>
        <time>2017-12-18T15:27:47Z</time>
      </trkpt>
      <trkpt lat="38.3218290" lon="-0.6762020">
        <ele>258.2</ele>
        <time>2017-12-18T15:27:48Z</time>
      </trkpt>
      <trkpt lat="38.3218160" lon="-0.6762210">
        <ele>259.1</ele>
        <time>2017-12-18T15:27:49Z</time>
      </trkpt>
      <trkpt lat="38.3218000" lon="-0.6762430">
        <ele>259.1</ele>
        <time>2017-12-18T15:27:50Z</time>
      </trkpt>
      <trkpt lat="38.3217830" lon="-0.6762650">
        <ele>259.1</ele>
        <time>2017-12-18T15:27:51Z</time>
      </trkpt>
      <trkpt lat="38.3217660" lon="-0.6762930">
        <ele>259.1</ele>
        <time>2017-12-18T15:27:52Z</time>
      </trkpt>
      <trkpt lat="38.3217460" lon="-0.6763180">
        <ele>259.1</ele>
        <time>2017-12-18T15:27:53Z</time>
      </trkpt>
      <trkpt lat="38.3217260" lon="-0.6763420">
        <ele>259.1</ele>
        <time>2017-12-18T15:27:54Z</time>
      </trkpt>
      <trkpt lat="38.3217060" lon="-0.6763660">
        <ele>259.1</ele>
        <time>2017-12-18T15:27:55Z</time>
      </trkpt>
      <trkpt lat="38.3216840" lon="-0.6763860">
        <ele>259.1</ele>
        <time>2017-12-18T15:27:56Z</time>
      </trkpt>
      <trkpt lat="38.3216600" lon="-0.6764030">
        <ele>259.1</ele>
        <time>2017-12-18T15:27:57Z</time>
      </trkpt>
      <trkpt lat="38.3216360" lon="-0.6764190">
        <ele>259.1</ele>
        <time>2017-12-18T15:27:58Z</time>
      </trkpt>
      <trkpt lat="38.3216110" lon="-0.6764350">
        <ele>259.1</ele>
        <time>2017-12-18T15:27:59Z</time>
      </trkpt>
      <trkpt lat="38.3215880" lon="-0.6764470">
        <ele>259.1</ele>
        <time>2017-12-18T15:28:00Z</time>
      </trkpt>
      <trkpt lat="38.3215670" lon="-0.6764600">
        <ele>259.1</ele>
        <time>2017-12-18T15:28:01Z</time>
      </trkpt>
      <trkpt lat="38.3215510" lon="-0.6764770">
        <ele>259.1</ele>
        <time>2017-12-18T15:28:02Z</time>
      </trkpt>
      <trkpt lat="38.3215390" lon="-0.6764890">
        <ele>259.1</ele>
        <time>2017-12-18T15:28:03Z</time>
      </trkpt>
      <trkpt lat="38.3215230" lon="-0.6764950">
        <ele>259.1</ele>
        <time>2017-12-18T15:28:04Z</time>
      </trkpt>
      <trkpt lat="38.3215020" lon="-0.6764920">
        <ele>259.1</ele>
        <time>2017-12-18T15:28:05Z</time>
      </trkpt>
      <trkpt lat="38.3214840" lon="-0.6764830">
        <ele>259.1</ele>
        <time>2017-12-18T15:28:06Z</time>
      </trkpt>
      <trkpt lat="38.3214760" lon="-0.6764740">
        <ele>260.2</ele>
        <time>2017-12-18T15:28:07Z</time>
      </trkpt>
      <trkpt lat="38.3214730" lon="-0.6764740">
        <ele>260.2</ele>
        <time>2017-12-18T15:28:08Z</time>
      </trkpt>
      <trkpt lat="38.3214660" lon="-0.6764680">
        <ele>260.2</ele>
        <time>2017-12-18T15:28:09Z</time>
      </trkpt>
      <trkpt lat="38.3214600" lon="-0.6764600">
        <ele>260.2</ele>
        <time>2017-12-18T15:28:10Z</time>
      </trkpt>
      <trkpt lat="38.3214550" lon="-0.6764510">
        <ele>261.2</ele>
        <time>2017-12-18T15:28:11Z</time>
      </trkpt>
      <trkpt lat="38.3214510" lon="-0.6764430">
        <ele>261.2</ele>
        <time>2017-12-18T15:28:12Z</time>
      </trkpt>
      <trkpt lat="38.3214470" lon="-0.6764380">
        <ele>261.2</ele>
        <time>2017-12-18T15:28:13Z</time>
      </trkpt>
      <trkpt lat="38.3214460" lon="-0.6764380">
        <ele>261.2</ele>
        <time>2017-12-18T15:28:14Z</time>
      </trkpt>
      <trkpt lat="38.3214450" lon="-0.6764390">
        <ele>262.1</ele>
        <time>2017-12-18T15:28:15Z</time>
      </trkpt>
      <trkpt lat="38.3214420" lon="-0.6764370">
        <ele>262.1</ele>
        <time>2017-12-18T15:28:16Z</time>
      </trkpt>
      <trkpt lat="38.3214350" lon="-0.6764310">
        <ele>262.1</ele>
        <time>2017-12-18T15:28:17Z</time>
      </trkpt>
      <trkpt lat="38.3214270" lon="-0.6764210">
        <ele>262.1</ele>
        <time>2017-12-18T15:28:18Z</time>
      </trkpt>
      <trkpt lat="38.3214160" lon="-0.6764060">
        <ele>262.1</ele>
        <time>2017-12-18T15:28:19Z</time>
      </trkpt>
      <trkpt lat="38.3214010" lon="-0.6763890">
        <ele>262.1</ele>
        <time>2017-12-18T15:28:20Z</time>
      </trkpt>
      <trkpt lat="38.3213860" lon="-0.6763730">
        <ele>263.2</ele>
        <time>2017-12-18T15:28:21Z</time>
      </trkpt>
      <trkpt lat="38.3213740" lon="-0.6763590">
        <ele>263.2</ele>
        <time>2017-12-18T15:28:22Z</time>
      </trkpt>
      <trkpt lat="38.3213620" lon="-0.6763490">
        <ele>264.1</ele>
        <time>2017-12-18T15:28:23Z</time>
      </trkpt>
      <trkpt lat="38.3213510" lon="-0.6763380">
        <ele>264.1</ele>
        <time>2017-12-18T15:28:24Z</time>
      </trkpt>
      <trkpt lat="38.3213380" lon="-0.6763280">
        <ele>264.1</ele>
        <time>2017-12-18T15:28:25Z</time>
      </trkpt>
      <trkpt lat="38.3213220" lon="-0.6763130">
        <ele>264.1</ele>
        <time>2017-12-18T15:28:26Z</time>
      </trkpt>
      <trkpt lat="38.3213100" lon="-0.6762960">
        <ele>264.1</ele>
        <time>2017-12-18T15:28:27Z</time>
      </trkpt>
      <trkpt lat="38.3212990" lon="-0.6762780">
        <ele>264.1</ele>
        <time>2017-12-18T15:28:28Z</time>
      </trkpt>
      <trkpt lat="38.3212830" lon="-0.6762690">
        <ele>264.1</ele>
        <time>2017-12-18T15:28:29Z</time>
      </trkpt>
      <trkpt lat="38.3212690" lon="-0.6762660">
        <ele>264.1</ele>
        <time>2017-12-18T15:28:30Z</time>
      </trkpt>
      <trkpt lat="38.3212520" lon="-0.6762630">
        <ele>267.2</ele>
        <time>2017-12-18T15:28:31Z</time>
      </trkpt>
      <trkpt lat="38.3212320" lon="-0.6762580">
        <ele>267.2</ele>
        <time>2017-12-18T15:28:32Z</time>
      </trkpt>
      <trkpt lat="38.3212100" lon="-0.6762550">
        <ele>267.2</ele>
        <time>2017-12-18T15:28:33Z</time>
      </trkpt>
      <trkpt lat="38.3211910" lon="-0.6762510">
        <ele>267.2</ele>
        <time>2017-12-18T15:28:34Z</time>
      </trkpt>
      <trkpt lat="38.3211730" lon="-0.6762450">
        <ele>267.2</ele>
        <time>2017-12-18T15:28:35Z</time>
      </trkpt>
      <trkpt lat="38.3211590" lon="-0.6762400">
        <ele>267.2</ele>
        <time>2017-12-18T15:28:36Z</time>
      </trkpt>
      <trkpt lat="38.3211460" lon="-0.6762370">
        <ele>267.2</ele>
        <time>2017-12-18T15:28:37Z</time>
      </trkpt>
      <trkpt lat="38.3211300" lon="-0.6762330">
        <ele>267.2</ele>
        <time>2017-12-18T15:28:38Z</time>
      </trkpt>
      <trkpt lat="38.3211150" lon="-0.6762300">
        <ele>270.2</ele>
        <time>2017-12-18T15:28:39Z</time>
      </trkpt>
      <trkpt lat="38.3211000" lon="-0.6762250">
        <ele>270.2</ele>
        <time>2017-12-18T15:28:40Z</time>
      </trkpt>
      <trkpt lat="38.3210900" lon="-0.6762160">
        <ele>271.1</ele>
        <time>2017-12-18T15:28:41Z</time>
      </trkpt>
      <trkpt lat="38.3210740" lon="-0.6762000">
        <ele>271.1</ele>
        <time>2017-12-18T15:28:42Z</time>
      </trkpt>
      <trkpt lat="38.3210610" lon="-0.6761840">
        <ele>271.1</ele>
        <time>2017-12-18T15:28:43Z</time>
      </trkpt>
      <trkpt lat="38.3210460" lon="-0.6761710">
        <ele>271.1</ele>
        <time>2017-12-18T15:28:44Z</time>
      </trkpt>
      <trkpt lat="38.3210330" lon="-0.6761580">
        <ele>273.1</ele>
        <time>2017-12-18T15:28:45Z</time>
      </trkpt>
      <trkpt lat="38.3210180" lon="-0.6761450">
        <ele>273.1</ele>
        <time>2017-12-18T15:28:46Z</time>
      </trkpt>
      <trkpt lat="38.3210000" lon="-0.6761380">
        <ele>274.2</ele>
        <time>2017-12-18T15:28:47Z</time>
      </trkpt>
      <trkpt lat="38.3209910" lon="-0.6761430">
        <ele>274.2</ele>
        <time>2017-12-18T15:28:48Z</time>
      </trkpt>
      <trkpt lat="38.3209820" lon="-0.6761460">
        <ele>275.1</ele>
        <time>2017-12-18T15:28:49Z</time>
      </trkpt>
      <trkpt lat="38.3209770" lon="-0.6761460">
        <ele>275.1</ele>
        <time>2017-12-18T15:28:50Z</time>
      </trkpt>
      <trkpt lat="38.3209720" lon="-0.6761490">
        <ele>275.1</ele>
        <time>2017-12-18T15:28:51Z</time>
      </trkpt>
      <trkpt lat="38.3209680" lon="-0.6761540">
        <ele>275.1</ele>
        <time>2017-12-18T15:28:52Z</time>
      </trkpt>
      <trkpt lat="38.3209650" lon="-0.6761560">
        <ele>276.2</ele>
        <time>2017-12-18T15:28:53Z</time>
      </trkpt>
      <trkpt lat="38.3209610" lon="-0.6761570">
        <ele>276.2</ele>
        <time>2017-12-18T15:28:54Z</time>
      </trkpt>
      <trkpt lat="38.3209580" lon="-0.6761620">
        <ele>276.2</ele>
        <time>2017-12-18T15:28:55Z</time>
      </trkpt>
      <trkpt lat="38.3209540" lon="-0.6761670">
        <ele>276.2</ele>
        <time>2017-12-18T15:28:56Z</time>
      </trkpt>
      <trkpt lat="38.3209490" lon="-0.6761740">
        <ele>277.2</ele>
        <time>2017-12-18T15:28:57Z</time>
      </trkpt>
      <trkpt lat="38.3209430" lon="-0.6761810">
        <ele>277.2</ele>
        <time>2017-12-18T15:28:58Z</time>
      </trkpt>
      <trkpt lat="38.3209390" lon="-0.6761930">
        <ele>277.2</ele>
        <time>2017-12-18T15:28:59Z</time>
      </trkpt>
      <trkpt lat="38.3209360" lon="-0.6762030">
        <ele>277.2</ele>
        <time>2017-12-18T15:29:00Z</time>
      </trkpt>
      <trkpt lat="38.3209320" lon="-0.6762120">
        <ele>277.2</ele>
        <time>2017-12-18T15:29:01Z</time>
      </trkpt>
      <trkpt lat="38.3209270" lon="-0.6762200">
        <ele>277.2</ele>
        <time>2017-12-18T15:29:02Z</time>
      </trkpt>
      <trkpt lat="38.3209220" lon="-0.6762290">
        <ele>277.2</ele>
        <time>2017-12-18T15:29:03Z</time>
      </trkpt>
      <trkpt lat="38.3209190" lon="-0.6762360">
        <ele>277.2</ele>
        <time>2017-12-18T15:29:04Z</time>
      </trkpt>
      <trkpt lat="38.3209160" lon="-0.6762440">
        <ele>277.2</ele>
        <time>2017-12-18T15:29:05Z</time>
      </trkpt>
      <trkpt lat="38.3209150" lon="-0.6762540">
        <ele>277.2</ele>
        <time>2017-12-18T15:29:06Z</time>
      </trkpt>
      <trkpt lat="38.3209150" lon="-0.6762640">
        <ele>278.1</ele>
        <time>2017-12-18T15:29:07Z</time>
      </trkpt>
      <trkpt lat="38.3209170" lon="-0.6762750">
        <ele>278.1</ele>
        <time>2017-12-18T15:29:08Z</time>
      </trkpt>
      <trkpt lat="38.3209200" lon="-0.6762850">
        <ele>279.2</ele>
        <time>2017-12-18T15:29:09Z</time>
      </trkpt>
      <trkpt lat="38.3209230" lon="-0.6762990">
        <ele>279.2</ele>
        <time>2017-12-18T15:29:10Z</time>
      </trkpt>
      <trkpt lat="38.3209210" lon="-0.6763100">
        <ele>279.2</ele>
        <time>2017-12-18T15:29:11Z</time>
      </trkpt>
      <trkpt lat="38.3209190" lon="-0.6763200">
        <ele>279.2</ele>
        <time>2017-12-18T15:29:12Z</time>
      </trkpt>
      <trkpt lat="38.3209140" lon="-0.6763270">
        <ele>279.2</ele>
        <time>2017-12-18T15:29:13Z</time>
      </trkpt>
      <trkpt lat="38.3209110" lon="-0.6763280">
        <ele>279.2</ele>
        <time>2017-12-18T15:29:14Z</time>
      </trkpt>
      <trkpt lat="38.3209080" lon="-0.6763310">
        <ele>280.1</ele>
        <time>2017-12-18T15:29:15Z</time>
      </trkpt>
      <trkpt lat="38.3209040" lon="-0.6763350">
        <ele>280.1</ele>
        <time>2017-12-18T15:29:16Z</time>
      </trkpt>
      <trkpt lat="38.3208990" lon="-0.6763380">
        <ele>280.1</ele>
        <time>2017-12-18T15:29:17Z</time>
      </trkpt>
      <trkpt lat="38.3208930" lon="-0.6763410">
        <ele>280.1</ele>
        <time>2017-12-18T15:29:18Z</time>
      </trkpt>
      <trkpt lat="38.3208870" lon="-0.6763390">
        <ele>280.1</ele>
        <time>2017-12-18T15:29:19Z</time>
      </trkpt>
      <trkpt lat="38.3208800" lon="-0.6763360">
        <ele>280.1</ele>
        <time>2017-12-18T15:29:20Z</time>
      </trkpt>
      <trkpt lat="38.3208730" lon="-0.6763370">
        <ele>281.2</ele>
        <time>2017-12-18T15:29:21Z</time>
      </trkpt>
      <trkpt lat="38.3208670" lon="-0.6763380">
        <ele>281.2</ele>
        <time>2017-12-18T15:29:22Z</time>
      </trkpt>
      <trkpt lat="38.3208620" lon="-0.6763410">
        <ele>281.2</ele>
        <time>2017-12-18T15:29:23Z</time>
      </trkpt>
      <trkpt lat="38.3208610" lon="-0.6763460">
        <ele>281.2</ele>
        <time>2017-12-18T15:29:24Z</time>
      </trkpt>
      <trkpt lat="38.3208620" lon="-0.6763520">
        <ele>282.1</ele>
        <time>2017-12-18T15:29:25Z</time>
      </trkpt>
      <trkpt lat="38.3208660" lon="-0.6763610">
        <ele>282.1</ele>
        <time>2017-12-18T15:29:26Z</time>
      </trkpt>
      <trkpt lat="38.3208700" lon="-0.6763740">
        <ele>282.1</ele>
        <time>2017-12-18T15:29:27Z</time>
      </trkpt>
      <trkpt lat="38.3208680" lon="-0.6763840">
        <ele>282.1</ele>
        <time>2017-12-18T15:29:28Z</time>
      </trkpt>
      <trkpt lat="38.3208670" lon="-0.6763900">
        <ele>282.1</ele>
        <time>2017-12-18T15:29:29Z</time>
      </trkpt>
      <trkpt lat="38.3208650" lon="-0.6763970">
        <ele>282.1</ele>
        <time>2017-12-18T15:29:30Z</time>
      </trkpt>
      <trkpt lat="38.3208610" lon="-0.6764040">
        <ele>283.2</ele>
        <time>2017-12-18T15:29:31Z</time>
      </trkpt>
      <trkpt lat="38.3208600" lon="-0.6764070">
        <ele>283.2</ele>
        <time>2017-12-18T15:29:32Z</time>
      </trkpt>
      <trkpt lat="38.3208570" lon="-0.6764130">
        <ele>283.2</ele>
        <time>2017-12-18T15:29:33Z</time>
      </trkpt>
      <trkpt lat="38.3208540" lon="-0.6764180">
        <ele>283.2</ele>
        <time>2017-12-18T15:29:34Z</time>
      </trkpt>
      <trkpt lat="38.3208520" lon="-0.6764230">
        <ele>283.2</ele>
        <time>2017-12-18T15:29:35Z</time>
      </trkpt>
      <trkpt lat="38.3208490" lon="-0.6764270">
        <ele>283.2</ele>
        <time>2017-12-18T15:29:36Z</time>
      </trkpt>
      <trkpt lat="38.3208470" lon="-0.6764350">
        <ele>284.1</ele>
        <time>2017-12-18T15:29:37Z</time>
      </trkpt>
      <trkpt lat="38.3208450" lon="-0.6764420">
        <ele>284.1</ele>
        <time>2017-12-18T15:29:38Z</time>
      </trkpt>
      <trkpt lat="38.3208420" lon="-0.6764520">
        <ele>284.1</ele>
        <time>2017-12-18T15:29:39Z</time>
      </trkpt>
      <trkpt lat="38.3208370" lon="-0.6764610">
        <ele>284.1</ele>
        <time>2017-12-18T15:29:40Z</time>
      </trkpt>
      <trkpt lat="38.3208360" lon="-0.6764660">
        <ele>284.1</ele>
        <time>2017-12-18T15:29:41Z</time>
      </trkpt>
      <trkpt lat="38.3208370" lon="-0.6764670">
        <ele>284.1</ele>
        <time>2017-12-18T15:29:42Z</time>
      </trkpt>
      <trkpt lat="38.3208340" lon="-0.6764770">
        <ele>285.1</ele>
        <time>2017-12-18T15:29:43Z</time>
      </trkpt>
      <trkpt lat="38.3208290" lon="-0.6764860">
        <ele>285.1</ele>
        <time>2017-12-18T15:29:44Z</time>
      </trkpt>
      <trkpt lat="38.3208250" lon="-0.6764950">
        <ele>285.1</ele>
        <time>2017-12-18T15:29:45Z</time>
      </trkpt>
      <trkpt lat="38.3208210" lon="-0.6765030">
        <ele>285.1</ele>
        <time>2017-12-18T15:29:46Z</time>
      </trkpt>
      <trkpt lat="38.3208170" lon="-0.6765110">
        <ele>286.2</ele>
        <time>2017-12-18T15:29:47Z</time>
      </trkpt>
      <trkpt lat="38.3208120" lon="-0.6765180">
        <ele>286.2</ele>
        <time>2017-12-18T15:29:48Z</time>
      </trkpt>
      <trkpt lat="38.3208080" lon="-0.6765220">
        <ele>286.2</ele>
        <time>2017-12-18T15:29:49Z</time>
      </trkpt>
      <trkpt lat="38.3208050" lon="-0.6765290">
        <ele>286.2</ele>
        <time>2017-12-18T15:29:50Z</time>
      </trkpt>
      <trkpt lat="38.3208000" lon="-0.6765370">
        <ele>286.2</ele>
        <time>2017-12-18T15:29:51Z</time>
      </trkpt>
      <trkpt lat="38.3207940" lon="-0.6765450">
        <ele>286.2</ele>
        <time>2017-12-18T15:29:52Z</time>
      </trkpt>
      <trkpt lat="38.3207890" lon="-0.6765500">
        <ele>286.2</ele>
        <time>2017-12-18T15:29:53Z</time>
      </trkpt>
      <trkpt lat="38.3207850" lon="-0.6765560">
        <ele>286.2</ele>
        <time>2017-12-18T15:29:54Z</time>
      </trkpt>
      <trkpt lat="38.3207790" lon="-0.6765640">
        <ele>286.2</ele>
        <time>2017-12-18T15:29:55Z</time>
      </trkpt>
      <trkpt lat="38.3207750" lon="-0.6765700">
        <ele>286.2</ele>
        <time>2017-12-18T15:29:56Z</time>
      </trkpt>
      <trkpt lat="38.3207690" lon="-0.6765760">
        <ele>287.1</ele>
        <time>2017-12-18T15:29:57Z</time>
      </trkpt>
      <trkpt lat="38.3207630" lon="-0.6765820">
        <ele>287.1</ele>
        <time>2017-12-18T15:29:58Z</time>
      </trkpt>
      <trkpt lat="38.3207580" lon="-0.6765860">
        <ele>287.1</ele>
        <time>2017-12-18T15:29:59Z</time>
      </trkpt>
      <trkpt lat="38.3207540" lon="-0.6765890">
        <ele>287.1</ele>
        <time>2017-12-18T15:30:00Z</time>
      </trkpt>
      <trkpt lat="38.3207480" lon="-0.6765930">
        <ele>288.2</ele>
        <time>2017-12-18T15:30:01Z</time>
      </trkpt>
      <trkpt lat="38.3207420" lon="-0.6765990">
        <ele>288.2</ele>
        <time>2017-12-18T15:30:02Z</time>
      </trkpt>
      <trkpt lat="38.3207340" lon="-0.6766040">
        <ele>288.2</ele>
        <time>2017-12-18T15:30:03Z</time>
      </trkpt>
      <trkpt lat="38.3207290" lon="-0.6766070">
        <ele>288.2</ele>
        <time>2017-12-18T15:30:04Z</time>
      </trkpt>
      <trkpt lat="38.3207230" lon="-0.6766130">
        <ele>288.2</ele>
        <time>2017-12-18T15:30:05Z</time>
      </trkpt>
      <trkpt lat="38.3207180" lon="-0.6766200">
        <ele>288.2</ele>
        <time>2017-12-18T15:30:06Z</time>
      </trkpt>
      <trkpt lat="38.3207130" lon="-0.6766270">
        <ele>289.1</ele>
        <time>2017-12-18T15:30:07Z</time>
      </trkpt>
      <trkpt lat="38.3207080" lon="-0.6766320">
        <ele>289.1</ele>
        <time>2017-12-18T15:30:08Z</time>
      </trkpt>
      <trkpt lat="38.3207030" lon="-0.6766390">
        <ele>289.1</ele>
        <time>2017-12-18T15:30:09Z</time>
      </trkpt>
      <trkpt lat="38.3206980" lon="-0.6766460">
        <ele>289.1</ele>
        <time>2017-12-18T15:30:10Z</time>
      </trkpt>
      <trkpt lat="38.3206940" lon="-0.6766540">
        <ele>289.1</ele>
        <time>2017-12-18T15:30:11Z</time>
      </trkpt>
      <trkpt lat="38.3206900" lon="-0.6766610">
        <ele>289.1</ele>
        <time>2017-12-18T15:30:12Z</time>
      </trkpt>
      <trkpt lat="38.3206860" lon="-0.6766680">
        <ele>289.1</ele>
        <time>2017-12-18T15:30:13Z</time>
      </trkpt>
      <trkpt lat="38.3206810" lon="-0.6766730">
        <ele>289.1</ele>
        <time>2017-12-18T15:30:14Z</time>
      </trkpt>
      <trkpt lat="38.3206720" lon="-0.6766750">
        <ele>290.2</ele>
        <time>2017-12-18T15:30:15Z</time>
      </trkpt>
      <trkpt lat="38.3206630" lon="-0.6766710">
        <ele>290.2</ele>
        <time>2017-12-18T15:30:16Z</time>
      </trkpt>
      <trkpt lat="38.3206570" lon="-0.6766660">
        <ele>290.2</ele>
        <time>2017-12-18T15:30:17Z</time>
      </trkpt>
      <trkpt lat="38.3206520" lon="-0.6766620">
        <ele>290.2</ele>
        <time>2017-12-18T15:30:18Z</time>
      </trkpt>
      <trkpt lat="38.3206510" lon="-0.6766600">
        <ele>290.2</ele>
        <time>2017-12-18T15:30:19Z</time>
      </trkpt>
      <trkpt lat="38.3206510" lon="-0.6766600">
        <ele>290.2</ele>
        <time>2017-12-18T15:30:20Z</time>
      </trkpt>
      <trkpt lat="38.3206520" lon="-0.6766590">
        <ele>290.2</ele>
        <time>2017-12-18T15:30:21Z</time>
      </trkpt>
      <trkpt lat="38.3206530" lon="-0.6766590">
        <ele>290.2</ele>
        <time>2017-12-18T15:30:22Z</time>
      </trkpt>
      <trkpt lat="38.3206530" lon="-0.6766590">
        <ele>290.2</ele>
        <time>2017-12-18T15:30:23Z</time>
      </trkpt>
      <trkpt lat="38.3206530" lon="-0.6766590">
        <ele>290.2</ele>
        <time>2017-12-18T15:30:24Z</time>
      </trkpt>
      <trkpt lat="38.3206470" lon="-0.6766550">
        <ele>290.2</ele>
        <time>2017-12-18T15:30:25Z</time>
      </trkpt>
      <trkpt lat="38.3206430" lon="-0.6766490">
        <ele>290.2</ele>
        <time>2017-12-18T15:30:26Z</time>
      </trkpt>
      <trkpt lat="38.3206380" lon="-0.6766410">
        <ele>290.2</ele>
        <time>2017-12-18T15:30:27Z</time>
      </trkpt>
      <trkpt lat="38.3206360" lon="-0.6766390">
        <ele>290.2</ele>
        <time>2017-12-18T15:30:28Z</time>
      </trkpt>
      <trkpt lat="38.3206360" lon="-0.6766380">
        <ele>290.2</ele>
        <time>2017-12-18T15:30:29Z</time>
      </trkpt>
      <trkpt lat="38.3206360" lon="-0.6766370">
        <ele>290.2</ele>
        <time>2017-12-18T15:30:30Z</time>
      </trkpt>
      <trkpt lat="38.3206360" lon="-0.6766370">
        <ele>290.2</ele>
        <time>2017-12-18T15:30:31Z</time>
      </trkpt>
      <trkpt lat="38.3206360" lon="-0.6766350">
        <ele>290.2</ele>
        <time>2017-12-18T15:30:32Z</time>
      </trkpt>
      <trkpt lat="38.3206310" lon="-0.6766280">
        <ele>290.2</ele>
        <time>2017-12-18T15:30:33Z</time>
      </trkpt>
      <trkpt lat="38.3206210" lon="-0.6766130">
        <ele>290.2</ele>
        <time>2017-12-18T15:30:34Z</time>
      </trkpt>
      <trkpt lat="38.3206080" lon="-0.6765970">
        <ele>291.1</ele>
        <time>2017-12-18T15:30:35Z</time>
      </trkpt>
      <trkpt lat="38.3205940" lon="-0.6765830">
        <ele>291.1</ele>
        <time>2017-12-18T15:30:36Z</time>
      </trkpt>
      <trkpt lat="38.3205800" lon="-0.6765640">
        <ele>292.2</ele>
        <time>2017-12-18T15:30:37Z</time>
      </trkpt>
      <trkpt lat="38.3205670" lon="-0.6765430">
        <ele>292.2</ele>
        <time>2017-12-18T15:30:38Z</time>
      </trkpt>
      <trkpt lat="38.3205510" lon="-0.6765200">
        <ele>292.2</ele>
        <time>2017-12-18T15:30:39Z</time>
      </trkpt>
      <trkpt lat="38.3205360" lon="-0.6764980">
        <ele>292.2</ele>
        <time>2017-12-18T15:30:40Z</time>
      </trkpt>
      <trkpt lat="38.3205200" lon="-0.6764780">
        <ele>292.2</ele>
        <time>2017-12-18T15:30:41Z</time>
      </trkpt>
      <trkpt lat="38.3205040" lon="-0.6764630">
        <ele>292.2</ele>
        <time>2017-12-18T15:30:42Z</time>
      </trkpt>
      <trkpt lat="38.3204850" lon="-0.6764490">
        <ele>292.2</ele>
        <time>2017-12-18T15:30:43Z</time>
      </trkpt>
      <trkpt lat="38.3204640" lon="-0.6764270">
        <ele>292.2</ele>
        <time>2017-12-18T15:30:44Z</time>
      </trkpt>
      <trkpt lat="38.3204460" lon="-0.6763990">
        <ele>292.2</ele>
        <time>2017-12-18T15:30:45Z</time>
      </trkpt>
      <trkpt lat="38.3204320" lon="-0.6763740">
        <ele>292.2</ele>
        <time>2017-12-18T15:30:46Z</time>
      </trkpt>
      <trkpt lat="38.3204160" lon="-0.6763490">
        <ele>291.1</ele>
        <time>2017-12-18T15:30:47Z</time>
      </trkpt>
      <trkpt lat="38.3203960" lon="-0.6763210">
        <ele>291.1</ele>
        <time>2017-12-18T15:30:48Z</time>
      </trkpt>
      <trkpt lat="38.3203750" lon="-0.6762890">
        <ele>291.1</ele>
        <time>2017-12-18T15:30:49Z</time>
      </trkpt>
      <trkpt lat="38.3203610" lon="-0.6762570">
        <ele>291.1</ele>
        <time>2017-12-18T15:30:50Z</time>
      </trkpt>
      <trkpt lat="38.3203470" lon="-0.6762250">
        <ele>290.2</ele>
        <time>2017-12-18T15:30:51Z</time>
      </trkpt>
      <trkpt lat="38.3203290" lon="-0.6762000">
        <ele>290.2</ele>
        <time>2017-12-18T15:30:52Z</time>
      </trkpt>
      <trkpt lat="38.3203110" lon="-0.6761670">
        <ele>290.2</ele>
        <time>2017-12-18T15:30:53Z</time>
      </trkpt>
      <trkpt lat="38.3202880" lon="-0.6761450">
        <ele>290.2</ele>
        <time>2017-12-18T15:30:54Z</time>
      </trkpt>
      <trkpt lat="38.3202650" lon="-0.6761270">
        <ele>289.1</ele>
        <time>2017-12-18T15:30:55Z</time>
      </trkpt>
      <trkpt lat="38.3202400" lon="-0.6761100">
        <ele>289.1</ele>
        <time>2017-12-18T15:30:56Z</time>
      </trkpt>
      <trkpt lat="38.3202120" lon="-0.6760900">
        <ele>289.1</ele>
        <time>2017-12-18T15:30:57Z</time>
      </trkpt>
      <trkpt lat="38.3201850" lon="-0.6760690">
        <ele>289.1</ele>
        <time>2017-12-18T15:30:58Z</time>
      </trkpt>
      <trkpt lat="38.3201650" lon="-0.6760440">
        <ele>289.1</ele>
        <time>2017-12-18T15:30:59Z</time>
      </trkpt>
      <trkpt lat="38.3201480" lon="-0.6760170">
        <ele>289.1</ele>
        <time>2017-12-18T15:31:00Z</time>
      </trkpt>
      <trkpt lat="38.3201360" lon="-0.6759880">
        <ele>289.1</ele>
        <time>2017-12-18T15:31:01Z</time>
      </trkpt>
      <trkpt lat="38.3201240" lon="-0.6759620">
        <ele>289.1</ele>
        <time>2017-12-18T15:31:02Z</time>
      </trkpt>
      <trkpt lat="38.3201130" lon="-0.6759290">
        <ele>289.1</ele>
        <time>2017-12-18T15:31:03Z</time>
      </trkpt>
      <trkpt lat="38.3201010" lon="-0.6758900">
        <ele>289.1</ele>
        <time>2017-12-18T15:31:04Z</time>
      </trkpt>
      <trkpt lat="38.3200920" lon="-0.6758460">
        <ele>289.1</ele>
        <time>2017-12-18T15:31:05Z</time>
      </trkpt>
      <trkpt lat="38.3200880" lon="-0.6758100">
        <ele>289.1</ele>
        <time>2017-12-18T15:31:06Z</time>
      </trkpt>
      <trkpt lat="38.3200740" lon="-0.6757810">
        <ele>289.1</ele>
        <time>2017-12-18T15:31:07Z</time>
      </trkpt>
      <trkpt lat="38.3200590" lon="-0.6757580">
        <ele>289.1</ele>
        <time>2017-12-18T15:31:08Z</time>
      </trkpt>
      <trkpt lat="38.3200360" lon="-0.6757390">
        <ele>285.1</ele>
        <time>2017-12-18T15:31:09Z</time>
      </trkpt>
      <trkpt lat="38.3200120" lon="-0.6757220">
        <ele>285.1</ele>
        <time>2017-12-18T15:31:10Z</time>
      </trkpt>
      <trkpt lat="38.3199910" lon="-0.6757060">
        <ele>285.1</ele>
        <time>2017-12-18T15:31:11Z</time>
      </trkpt>
      <trkpt lat="38.3199650" lon="-0.6756890">
        <ele>285.1</ele>
        <time>2017-12-18T15:31:12Z</time>
      </trkpt>
      <trkpt lat="38.3199440" lon="-0.6756700">
        <ele>285.1</ele>
        <time>2017-12-18T15:31:13Z</time>
      </trkpt>
      <trkpt lat="38.3199310" lon="-0.6756430">
        <ele>285.1</ele>
        <time>2017-12-18T15:31:14Z</time>
      </trkpt>
      <trkpt lat="38.3199120" lon="-0.6756160">
        <ele>285.1</ele>
        <time>2017-12-18T15:31:15Z</time>
      </trkpt>
      <trkpt lat="38.3198960" lon="-0.6755870">
        <ele>285.1</ele>
        <time>2017-12-18T15:31:16Z</time>
      </trkpt>
      <trkpt lat="38.3198780" lon="-0.6755580">
        <ele>286.2</ele>
        <time>2017-12-18T15:31:17Z</time>
      </trkpt>
      <trkpt lat="38.3198520" lon="-0.6755310">
        <ele>286.2</ele>
        <time>2017-12-18T15:31:18Z</time>
      </trkpt>
      <trkpt lat="38.3198210" lon="-0.6754990">
        <ele>286.2</ele>
        <time>2017-12-18T15:31:19Z</time>
      </trkpt>
      <trkpt lat="38.3197900" lon="-0.6754610">
        <ele>286.2</ele>
        <time>2017-12-18T15:31:20Z</time>
      </trkpt>
      <trkpt lat="38.3197560" lon="-0.6754250">
        <ele>286.2</ele>
        <time>2017-12-18T15:31:21Z</time>
      </trkpt>
      <trkpt lat="38.3197210" lon="-0.6753910">
        <ele>286.2</ele>
        <time>2017-12-18T15:31:22Z</time>
      </trkpt>
      <trkpt lat="38.3196860" lon="-0.6753610">
        <ele>286.2</ele>
        <time>2017-12-18T15:31:23Z</time>
      </trkpt>
      <trkpt lat="38.3196560" lon="-0.6753290">
        <ele>286.2</ele>
        <time>2017-12-18T15:31:24Z</time>
      </trkpt>
      <trkpt lat="38.3196270" lon="-0.6752970">
        <ele>287.1</ele>
        <time>2017-12-18T15:31:25Z</time>
      </trkpt>
      <trkpt lat="38.3196010" lon="-0.6752640">
        <ele>287.1</ele>
        <time>2017-12-18T15:31:26Z</time>
      </trkpt>
      <trkpt lat="38.3195830" lon="-0.6752200">
        <ele>288.2</ele>
        <time>2017-12-18T15:31:27Z</time>
      </trkpt>
      <trkpt lat="38.3195700" lon="-0.6751720">
        <ele>288.2</ele>
        <time>2017-12-18T15:31:28Z</time>
      </trkpt>
      <trkpt lat="38.3195590" lon="-0.6751210">
        <ele>288.2</ele>
        <time>2017-12-18T15:31:29Z</time>
      </trkpt>
      <trkpt lat="38.3195430" lon="-0.6750740">
        <ele>288.2</ele>
        <time>2017-12-18T15:31:30Z</time>
      </trkpt>
      <trkpt lat="38.3195200" lon="-0.6750270">
        <ele>288.2</ele>
        <time>2017-12-18T15:31:31Z</time>
      </trkpt>
      <trkpt lat="38.3195010" lon="-0.6749760">
        <ele>288.2</ele>
        <time>2017-12-18T15:31:32Z</time>
      </trkpt>
      <trkpt lat="38.3194830" lon="-0.6749220">
        <ele>288.2</ele>
        <time>2017-12-18T15:31:33Z</time>
      </trkpt>
      <trkpt lat="38.3194620" lon="-0.6748690">
        <ele>288.2</ele>
        <time>2017-12-18T15:31:34Z</time>
      </trkpt>
      <trkpt lat="38.3194400" lon="-0.6748140">
        <ele>288.2</ele>
        <time>2017-12-18T15:31:35Z</time>
      </trkpt>
      <trkpt lat="38.3194210" lon="-0.6747630">
        <ele>288.2</ele>
        <time>2017-12-18T15:31:36Z</time>
      </trkpt>
      <trkpt lat="38.3193960" lon="-0.6747200">
        <ele>287.1</ele>
        <time>2017-12-18T15:31:37Z</time>
      </trkpt>
      <trkpt lat="38.3193750" lon="-0.6746720">
        <ele>287.1</ele>
        <time>2017-12-18T15:31:38Z</time>
      </trkpt>
      <trkpt lat="38.3193530" lon="-0.6746250">
        <ele>287.1</ele>
        <time>2017-12-18T15:31:39Z</time>
      </trkpt>
      <trkpt lat="38.3193200" lon="-0.6745810">
        <ele>287.1</ele>
        <time>2017-12-18T15:31:40Z</time>
      </trkpt>
      <trkpt lat="38.3192870" lon="-0.6745420">
        <ele>288.2</ele>
        <time>2017-12-18T15:31:41Z</time>
      </trkpt>
      <trkpt lat="38.3192540" lon="-0.6744970">
        <ele>288.2</ele>
        <time>2017-12-18T15:31:42Z</time>
      </trkpt>
      <trkpt lat="38.3192190" lon="-0.6744540">
        <ele>288.2</ele>
        <time>2017-12-18T15:31:43Z</time>
      </trkpt>
      <trkpt lat="38.3191800" lon="-0.6744140">
        <ele>288.2</ele>
        <time>2017-12-18T15:31:44Z</time>
      </trkpt>
      <trkpt lat="38.3191470" lon="-0.6743910">
        <ele>287.1</ele>
        <time>2017-12-18T15:31:45Z</time>
      </trkpt>
      <trkpt lat="38.3191290" lon="-0.6743660">
        <ele>287.1</ele>
        <time>2017-12-18T15:31:46Z</time>
      </trkpt>
      <trkpt lat="38.3191100" lon="-0.6743430">
        <ele>287.1</ele>
        <time>2017-12-18T15:31:47Z</time>
      </trkpt>
      <trkpt lat="38.3190840" lon="-0.6743270">
        <ele>287.1</ele>
        <time>2017-12-18T15:31:48Z</time>
      </trkpt>
      <trkpt lat="38.3190630" lon="-0.6743040">
        <ele>287.1</ele>
        <time>2017-12-18T15:31:49Z</time>
      </trkpt>
      <trkpt lat="38.3190420" lon="-0.6742820">
        <ele>287.1</ele>
        <time>2017-12-18T15:31:50Z</time>
      </trkpt>
      <trkpt lat="38.3190160" lon="-0.6742630">
        <ele>287.1</ele>
        <time>2017-12-18T15:31:51Z</time>
      </trkpt>
      <trkpt lat="38.3189870" lon="-0.6742540">
        <ele>287.1</ele>
        <time>2017-12-18T15:31:52Z</time>
      </trkpt>
      <trkpt lat="38.3189600" lon="-0.6742450">
        <ele>287.1</ele>
        <time>2017-12-18T15:31:53Z</time>
      </trkpt>
      <trkpt lat="38.3189280" lon="-0.6742370">
        <ele>287.1</ele>
        <time>2017-12-18T15:31:54Z</time>
      </trkpt>
      <trkpt lat="38.3188950" lon="-0.6742330">
        <ele>287.1</ele>
        <time>2017-12-18T15:31:55Z</time>
      </trkpt>
      <trkpt lat="38.3188550" lon="-0.6742340">
        <ele>287.1</ele>
        <time>2017-12-18T15:31:56Z</time>
      </trkpt>
      <trkpt lat="38.3188220" lon="-0.6742410">
        <ele>287.1</ele>
        <time>2017-12-18T15:31:57Z</time>
      </trkpt>
      <trkpt lat="38.3187900" lon="-0.6742470">
        <ele>287.1</ele>
        <time>2017-12-18T15:31:58Z</time>
      </trkpt>
      <trkpt lat="38.3187550" lon="-0.6742540">
        <ele>287.1</ele>
        <time>2017-12-18T15:31:59Z</time>
      </trkpt>
      <trkpt lat="38.3187200" lon="-0.6742570">
        <ele>287.1</ele>
        <time>2017-12-18T15:32:00Z</time>
      </trkpt>
      <trkpt lat="38.3186860" lon="-0.6742500">
        <ele>287.1</ele>
        <time>2017-12-18T15:32:01Z</time>
      </trkpt>
      <trkpt lat="38.3186520" lon="-0.6742400">
        <ele>287.1</ele>
        <time>2017-12-18T15:32:02Z</time>
      </trkpt>
      <trkpt lat="38.3186240" lon="-0.6742290">
        <ele>287.1</ele>
        <time>2017-12-18T15:32:03Z</time>
      </trkpt>
      <trkpt lat="38.3185970" lon="-0.6742230">
        <ele>287.1</ele>
        <time>2017-12-18T15:32:04Z</time>
      </trkpt>
      <trkpt lat="38.3185750" lon="-0.6742220">
        <ele>286.2</ele>
        <time>2017-12-18T15:32:05Z</time>
      </trkpt>
      <trkpt lat="38.3185560" lon="-0.6742190">
        <ele>286.2</ele>
        <time>2017-12-18T15:32:06Z</time>
      </trkpt>
      <trkpt lat="38.3185310" lon="-0.6742150">
        <ele>286.2</ele>
        <time>2017-12-18T15:32:07Z</time>
      </trkpt>
      <trkpt lat="38.3185060" lon="-0.6742160">
        <ele>286.2</ele>
        <time>2017-12-18T15:32:08Z</time>
      </trkpt>
      <trkpt lat="38.3184860" lon="-0.6742220">
        <ele>286.2</ele>
        <time>2017-12-18T15:32:09Z</time>
      </trkpt>
      <trkpt lat="38.3184690" lon="-0.6742370">
        <ele>286.2</ele>
        <time>2017-12-18T15:32:10Z</time>
      </trkpt>
      <trkpt lat="38.3184510" lon="-0.6742510">
        <ele>281.2</ele>
        <time>2017-12-18T15:32:11Z</time>
      </trkpt>
      <trkpt lat="38.3184310" lon="-0.6742610">
        <ele>281.2</ele>
        <time>2017-12-18T15:32:12Z</time>
      </trkpt>
      <trkpt lat="38.3184120" lon="-0.6742750">
        <ele>280.1</ele>
        <time>2017-12-18T15:32:13Z</time>
      </trkpt>
      <trkpt lat="38.3183980" lon="-0.6742820">
        <ele>280.1</ele>
        <time>2017-12-18T15:32:14Z</time>
      </trkpt>
      <trkpt lat="38.3183890" lon="-0.6742850">
        <ele>280.1</ele>
        <time>2017-12-18T15:32:15Z</time>
      </trkpt>
      <trkpt lat="38.3183810" lon="-0.6742870">
        <ele>280.1</ele>
        <time>2017-12-18T15:32:16Z</time>
      </trkpt>
      <trkpt lat="38.3183680" lon="-0.6742870">
        <ele>280.1</ele>
        <time>2017-12-18T15:32:17Z</time>
      </trkpt>
      <trkpt lat="38.3183530" lon="-0.6742850">
        <ele>280.1</ele>
        <time>2017-12-18T15:32:18Z</time>
      </trkpt>
      <trkpt lat="38.3183380" lon="-0.6742870">
        <ele>278.1</ele>
        <time>2017-12-18T15:32:19Z</time>
      </trkpt>
      <trkpt lat="38.3183250" lon="-0.6742910">
        <ele>278.1</ele>
        <time>2017-12-18T15:32:20Z</time>
      </trkpt>
      <trkpt lat="38.3183160" lon="-0.6742950">
        <ele>276.2</ele>
        <time>2017-12-18T15:32:21Z</time>
      </trkpt>
      <trkpt lat="38.3183020" lon="-0.6743000">
        <ele>276.2</ele>
        <time>2017-12-18T15:32:22Z</time>
      </trkpt>
      <trkpt lat="38.3182890" lon="-0.6743030">
        <ele>275.1</ele>
        <time>2017-12-18T15:32:23Z</time>
      </trkpt>
      <trkpt lat="38.3182780" lon="-0.6743080">
        <ele>275.1</ele>
        <time>2017-12-18T15:32:24Z</time>
      </trkpt>
      <trkpt lat="38.3182690" lon="-0.6743120">
        <ele>274.2</ele>
        <time>2017-12-18T15:32:25Z</time>
      </trkpt>
      <trkpt lat="38.3182610" lon="-0.6743180">
        <ele>274.2</ele>
        <time>2017-12-18T15:32:26Z</time>
      </trkpt>
      <trkpt lat="38.3182490" lon="-0.6743260">
        <ele>273.1</ele>
        <time>2017-12-18T15:32:27Z</time>
      </trkpt>
      <trkpt lat="38.3182340" lon="-0.6743270">
        <ele>273.1</ele>
        <time>2017-12-18T15:32:28Z</time>
      </trkpt>
      <trkpt lat="38.3182200" lon="-0.6743270">
        <ele>273.1</ele>
        <time>2017-12-18T15:32:29Z</time>
      </trkpt>
      <trkpt lat="38.3182090" lon="-0.6743280">
        <ele>273.1</ele>
        <time>2017-12-18T15:32:30Z</time>
      </trkpt>
      <trkpt lat="38.3182000" lon="-0.6743310">
        <ele>272.2</ele>
        <time>2017-12-18T15:32:31Z</time>
      </trkpt>
      <trkpt lat="38.3181900" lon="-0.6743350">
        <ele>272.2</ele>
        <time>2017-12-18T15:32:32Z</time>
      </trkpt>
      <trkpt lat="38.3181820" lon="-0.6743380">
        <ele>271.1</ele>
        <time>2017-12-18T15:32:33Z</time>
      </trkpt>
      <trkpt lat="38.3181750" lon="-0.6743420">
        <ele>271.1</ele>
        <time>2017-12-18T15:32:34Z</time>
      </trkpt>
      <trkpt lat="38.3181660" lon="-0.6743470">
        <ele>270.2</ele>
        <time>2017-12-18T15:32:35Z</time>
      </trkpt>
      <trkpt lat="38.3181520" lon="-0.6743520">
        <ele>270.2</ele>
        <time>2017-12-18T15:32:36Z</time>
      </trkpt>
      <trkpt lat="38.3181260" lon="-0.6743630">
        <ele>269.1</ele>
        <time>2017-12-18T15:32:37Z</time>
      </trkpt>
      <trkpt lat="38.3180860" lon="-0.6743790">
        <ele>269.1</ele>
        <time>2017-12-18T15:32:38Z</time>
      </trkpt>
      <trkpt lat="38.3180490" lon="-0.6743820">
        <ele>268.1</ele>
        <time>2017-12-18T15:32:39Z</time>
      </trkpt>
      <trkpt lat="38.3180140" lon="-0.6743890">
        <ele>268.1</ele>
        <time>2017-12-18T15:32:40Z</time>
      </trkpt>
      <trkpt lat="38.3179820" lon="-0.6743870">
        <ele>268.1</ele>
        <time>2017-12-18T15:32:41Z</time>
      </trkpt>
      <trkpt lat="38.3179490" lon="-0.6743800">
        <ele>268.1</ele>
        <time>2017-12-18T15:32:42Z</time>
      </trkpt>
      <trkpt lat="38.3179110" lon="-0.6743690">
        <ele>268.1</ele>
        <time>2017-12-18T15:32:43Z</time>
      </trkpt>
      <trkpt lat="38.3178780" lon="-0.6743400">
        <ele>268.1</ele>
        <time>2017-12-18T15:32:44Z</time>
      </trkpt>
      <trkpt lat="38.3178440" lon="-0.6743080">
        <ele>268.1</ele>
        <time>2017-12-18T15:32:45Z</time>
      </trkpt>
      <trkpt lat="38.3178120" lon="-0.6742780">
        <ele>268.1</ele>
        <time>2017-12-18T15:32:46Z</time>
      </trkpt>
      <trkpt lat="38.3177820" lon="-0.6742520">
        <ele>268.1</ele>
        <time>2017-12-18T15:32:47Z</time>
      </trkpt>
      <trkpt lat="38.3177540" lon="-0.6742260">
        <ele>268.1</ele>
        <time>2017-12-18T15:32:48Z</time>
      </trkpt>
      <trkpt lat="38.3177320" lon="-0.6741960">
        <ele>268.1</ele>
        <time>2017-12-18T15:32:49Z</time>
      </trkpt>
      <trkpt lat="38.3177120" lon="-0.6741680">
        <ele>268.1</ele>
        <time>2017-12-18T15:32:50Z</time>
      </trkpt>
      <trkpt lat="38.3176970" lon="-0.6741410">
        <ele>267.2</ele>
        <time>2017-12-18T15:32:51Z</time>
      </trkpt>
      <trkpt lat="38.3176850" lon="-0.6741150">
        <ele>267.2</ele>
        <time>2017-12-18T15:32:52Z</time>
      </trkpt>
      <trkpt lat="38.3176680" lon="-0.6740940">
        <ele>267.2</ele>
        <time>2017-12-18T15:32:53Z</time>
      </trkpt>
      <trkpt lat="38.3176510" lon="-0.6740730">
        <ele>267.2</ele>
        <time>2017-12-18T15:32:54Z</time>
      </trkpt>
      <trkpt lat="38.3176300" lon="-0.6740530">
        <ele>267.2</ele>
        <time>2017-12-18T15:32:55Z</time>
      </trkpt>
      <trkpt lat="38.3176100" lon="-0.6740340">
        <ele>267.2</ele>
        <time>2017-12-18T15:32:56Z</time>
      </trkpt>
      <trkpt lat="38.3175960" lon="-0.6740160">
        <ele>267.2</ele>
        <time>2017-12-18T15:32:57Z</time>
      </trkpt>
      <trkpt lat="38.3175780" lon="-0.6739980">
        <ele>267.2</ele>
        <time>2017-12-18T15:32:58Z</time>
      </trkpt>
      <trkpt lat="38.3175650" lon="-0.6739790">
        <ele>267.2</ele>
        <time>2017-12-18T15:32:59Z</time>
      </trkpt>
      <trkpt lat="38.3175480" lon="-0.6739580">
        <ele>267.2</ele>
        <time>2017-12-18T15:33:00Z</time>
      </trkpt>
      <trkpt lat="38.3175320" lon="-0.6739350">
        <ele>267.2</ele>
        <time>2017-12-18T15:33:01Z</time>
      </trkpt>
      <trkpt lat="38.3175130" lon="-0.6739210">
        <ele>267.2</ele>
        <time>2017-12-18T15:33:02Z</time>
      </trkpt>
      <trkpt lat="38.3174940" lon="-0.6739040">
        <ele>268.1</ele>
        <time>2017-12-18T15:33:03Z</time>
      </trkpt>
      <trkpt lat="38.3174760" lon="-0.6738840">
        <ele>268.1</ele>
        <time>2017-12-18T15:33:04Z</time>
      </trkpt>
      <trkpt lat="38.3174560" lon="-0.6738680">
        <ele>268.1</ele>
        <time>2017-12-18T15:33:05Z</time>
      </trkpt>
      <trkpt lat="38.3174450" lon="-0.6738480">
        <ele>268.1</ele>
        <time>2017-12-18T15:33:06Z</time>
      </trkpt>
      <trkpt lat="38.3174360" lon="-0.6738280">
        <ele>269.1</ele>
        <time>2017-12-18T15:33:07Z</time>
      </trkpt>
      <trkpt lat="38.3174250" lon="-0.6738040">
        <ele>269.1</ele>
        <time>2017-12-18T15:33:08Z</time>
      </trkpt>
      <trkpt lat="38.3174150" lon="-0.6737790">
        <ele>269.1</ele>
        <time>2017-12-18T15:33:09Z</time>
      </trkpt>
      <trkpt lat="38.3174040" lon="-0.6737530">
        <ele>269.1</ele>
        <time>2017-12-18T15:33:10Z</time>
      </trkpt>
      <trkpt lat="38.3173930" lon="-0.6737250">
        <ele>269.1</ele>
        <time>2017-12-18T15:33:11Z</time>
      </trkpt>
      <trkpt lat="38.3173810" lon="-0.6736920">
        <ele>269.1</ele>
        <time>2017-12-18T15:33:12Z</time>
      </trkpt>
      <trkpt lat="38.3173590" lon="-0.6736500">
        <ele>269.1</ele>
        <time>2017-12-18T15:33:13Z</time>
      </trkpt>
      <trkpt lat="38.3173400" lon="-0.6736150">
        <ele>269.1</ele>
        <time>2017-12-18T15:33:14Z</time>
      </trkpt>
      <trkpt lat="38.3173170" lon="-0.6735820">
        <ele>269.1</ele>
        <time>2017-12-18T15:33:15Z</time>
      </trkpt>
      <trkpt lat="38.3172930" lon="-0.6735600">
        <ele>269.1</ele>
        <time>2017-12-18T15:33:16Z</time>
      </trkpt>
      <trkpt lat="38.3172640" lon="-0.6735500">
        <ele>269.1</ele>
        <time>2017-12-18T15:33:17Z</time>
      </trkpt>
      <trkpt lat="38.3172420" lon="-0.6735400">
        <ele>269.1</ele>
        <time>2017-12-18T15:33:18Z</time>
      </trkpt>
      <trkpt lat="38.3172260" lon="-0.6735210">
        <ele>269.1</ele>
        <time>2017-12-18T15:33:19Z</time>
      </trkpt>
      <trkpt lat="38.3172090" lon="-0.6734960">
        <ele>269.1</ele>
        <time>2017-12-18T15:33:20Z</time>
      </trkpt>
      <trkpt lat="38.3171910" lon="-0.6734580">
        <ele>269.1</ele>
        <time>2017-12-18T15:33:21Z</time>
      </trkpt>
      <trkpt lat="38.3171700" lon="-0.6734190">
        <ele>269.1</ele>
        <time>2017-12-18T15:33:22Z</time>
      </trkpt>
      <trkpt lat="38.3171500" lon="-0.6733680">
        <ele>269.1</ele>
        <time>2017-12-18T15:33:23Z</time>
      </trkpt>
      <trkpt lat="38.3171310" lon="-0.6733140">
        <ele>269.1</ele>
        <time>2017-12-18T15:33:24Z</time>
      </trkpt>
      <trkpt lat="38.3171100" lon="-0.6732620">
        <ele>269.1</ele>
        <time>2017-12-18T15:33:25Z</time>
      </trkpt>
      <trkpt lat="38.3170900" lon="-0.6732080">
        <ele>269.1</ele>
        <time>2017-12-18T15:33:26Z</time>
      </trkpt>
      <trkpt lat="38.3170730" lon="-0.6731600">
        <ele>269.1</ele>
        <time>2017-12-18T15:33:27Z</time>
      </trkpt>
      <trkpt lat="38.3170500" lon="-0.6731150">
        <ele>269.1</ele>
        <time>2017-12-18T15:33:28Z</time>
      </trkpt>
      <trkpt lat="38.3170270" lon="-0.6730730">
        <ele>269.1</ele>
        <time>2017-12-18T15:33:29Z</time>
      </trkpt>
      <trkpt lat="38.3170050" lon="-0.6730240">
        <ele>269.1</ele>
        <time>2017-12-18T15:33:30Z</time>
      </trkpt>
      <trkpt lat="38.3169840" lon="-0.6729700">
        <ele>269.1</ele>
        <time>2017-12-18T15:33:31Z</time>
      </trkpt>
      <trkpt lat="38.3169560" lon="-0.6728980">
        <ele>269.1</ele>
        <time>2017-12-18T15:33:32Z</time>
      </trkpt>
      <trkpt lat="38.3169240" lon="-0.6728310">
        <ele>269.1</ele>
        <time>2017-12-18T15:33:33Z</time>
      </trkpt>
      <trkpt lat="38.3168830" lon="-0.6727690">
        <ele>269.1</ele>
        <time>2017-12-18T15:33:34Z</time>
      </trkpt>
      <trkpt lat="38.3168530" lon="-0.6727080">
        <ele>264.1</ele>
        <time>2017-12-18T15:33:35Z</time>
      </trkpt>
      <trkpt lat="38.3168300" lon="-0.6726820">
        <ele>264.1</ele>
        <time>2017-12-18T15:33:36Z</time>
      </trkpt>
      <trkpt lat="38.3168110" lon="-0.6726740">
        <ele>263.2</ele>
        <time>2017-12-18T15:33:37Z</time>
      </trkpt>
      <trkpt lat="38.3167860" lon="-0.6726630">
        <ele>263.2</ele>
        <time>2017-12-18T15:33:38Z</time>
      </trkpt>
      <trkpt lat="38.3167640" lon="-0.6726440">
        <ele>263.2</ele>
        <time>2017-12-18T15:33:39Z</time>
      </trkpt>
      <trkpt lat="38.3167450" lon="-0.6726250">
        <ele>263.2</ele>
        <time>2017-12-18T15:33:40Z</time>
      </trkpt>
      <trkpt lat="38.3167230" lon="-0.6726050">
        <ele>263.2</ele>
        <time>2017-12-18T15:33:41Z</time>
      </trkpt>
      <trkpt lat="38.3167010" lon="-0.6725760">
        <ele>263.2</ele>
        <time>2017-12-18T15:33:42Z</time>
      </trkpt>
      <trkpt lat="38.3166820" lon="-0.6725490">
        <ele>262.1</ele>
        <time>2017-12-18T15:33:43Z</time>
      </trkpt>
      <trkpt lat="38.3166660" lon="-0.6725190">
        <ele>262.1</ele>
        <time>2017-12-18T15:33:44Z</time>
      </trkpt>
      <trkpt lat="38.3166650" lon="-0.6725060">
        <ele>261.2</ele>
        <time>2017-12-18T15:33:45Z</time>
      </trkpt>
      <trkpt lat="38.3166650" lon="-0.6725000">
        <ele>261.2</ele>
        <time>2017-12-18T15:33:46Z</time>
      </trkpt>
      <trkpt lat="38.3166600" lon="-0.6724870">
        <ele>261.2</ele>
        <time>2017-12-18T15:33:47Z</time>
      </trkpt>
      <trkpt lat="38.3166510" lon="-0.6724650">
        <ele>261.2</ele>
        <time>2017-12-18T15:33:48Z</time>
      </trkpt>
      <trkpt lat="38.3166400" lon="-0.6724380">
        <ele>261.2</ele>
        <time>2017-12-18T15:33:49Z</time>
      </trkpt>
      <trkpt lat="38.3166210" lon="-0.6724050">
        <ele>261.2</ele>
        <time>2017-12-18T15:33:50Z</time>
      </trkpt>
      <trkpt lat="38.3165970" lon="-0.6723710">
        <ele>261.2</ele>
        <time>2017-12-18T15:33:51Z</time>
      </trkpt>
      <trkpt lat="38.3165650" lon="-0.6723360">
        <ele>261.2</ele>
        <time>2017-12-18T15:33:52Z</time>
      </trkpt>
      <trkpt lat="38.3165260" lon="-0.6723070">
        <ele>256.2</ele>
        <time>2017-12-18T15:33:53Z</time>
      </trkpt>
      <trkpt lat="38.3164780" lon="-0.6722920">
        <ele>256.2</ele>
        <time>2017-12-18T15:33:54Z</time>
      </trkpt>
      <trkpt lat="38.3164400" lon="-0.6722780">
        <ele>254.2</ele>
        <time>2017-12-18T15:33:55Z</time>
      </trkpt>
      <trkpt lat="38.3164020" lon="-0.6722760">
        <ele>254.2</ele>
        <time>2017-12-18T15:33:56Z</time>
      </trkpt>
      <trkpt lat="38.3163620" lon="-0.6722730">
        <ele>253.1</ele>
        <time>2017-12-18T15:33:57Z</time>
      </trkpt>
      <trkpt lat="38.3163310" lon="-0.6722720">
        <ele>253.1</ele>
        <time>2017-12-18T15:33:58Z</time>
      </trkpt>
      <trkpt lat="38.3162970" lon="-0.6722620">
        <ele>252.1</ele>
        <time>2017-12-18T15:33:59Z</time>
      </trkpt>
      <trkpt lat="38.3162660" lon="-0.6722470">
        <ele>252.1</ele>
        <time>2017-12-18T15:34:00Z</time>
      </trkpt>
      <trkpt lat="38.3162280" lon="-0.6722370">
        <ele>250.1</ele>
        <time>2017-12-18T15:34:01Z</time>
      </trkpt>
      <trkpt lat="38.3161890" lon="-0.6722280">
        <ele>250.1</ele>
        <time>2017-12-18T15:34:02Z</time>
      </trkpt>
      <trkpt lat="38.3161520" lon="-0.6722200">
        <ele>248.1</ele>
        <time>2017-12-18T15:34:03Z</time>
      </trkpt>
      <trkpt lat="38.3161150" lon="-0.6722110">
        <ele>248.1</ele>
        <time>2017-12-18T15:34:04Z</time>
      </trkpt>
      <trkpt lat="38.3160760" lon="-0.6721980">
        <ele>247.2</ele>
        <time>2017-12-18T15:34:05Z</time>
      </trkpt>
      <trkpt lat="38.3160380" lon="-0.6721890">
        <ele>247.2</ele>
        <time>2017-12-18T15:34:06Z</time>
      </trkpt>
      <trkpt lat="38.3159980" lon="-0.6721760">
        <ele>245.2</ele>
        <time>2017-12-18T15:34:07Z</time>
      </trkpt>
      <trkpt lat="38.3159480" lon="-0.6721640">
        <ele>245.2</ele>
        <time>2017-12-18T15:34:08Z</time>
      </trkpt>
      <trkpt lat="38.3158930" lon="-0.6721440">
        <ele>243.1</ele>
        <time>2017-12-18T15:34:09Z</time>
      </trkpt>
      <trkpt lat="38.3158400" lon="-0.6721160">
        <ele>243.1</ele>
        <time>2017-12-18T15:34:10Z</time>
      </trkpt>
      <trkpt lat="38.3157940" lon="-0.6720900">
        <ele>242.2</ele>
        <time>2017-12-18T15:34:11Z</time>
      </trkpt>
      <trkpt lat="38.3157560" lon="-0.6720680">
        <ele>242.2</ele>
        <time>2017-12-18T15:34:12Z</time>
      </trkpt>
      <trkpt lat="38.3157200" lon="-0.6720540">
        <ele>241.1</ele>
        <time>2017-12-18T15:34:13Z</time>
      </trkpt>
      <trkpt lat="38.3156830" lon="-0.6720410">
        <ele>241.1</ele>
        <time>2017-12-18T15:34:14Z</time>
      </trkpt>
      <trkpt lat="38.3156440" lon="-0.6720280">
        <ele>240.2</ele>
        <time>2017-12-18T15:34:15Z</time>
      </trkpt>
      <trkpt lat="38.3156080" lon="-0.6720100">
        <ele>240.2</ele>
        <time>2017-12-18T15:34:16Z</time>
      </trkpt>
      <trkpt lat="38.3155750" lon="-0.6719930">
        <ele>240.2</ele>
        <time>2017-12-18T15:34:17Z</time>
      </trkpt>
      <trkpt lat="38.3155450" lon="-0.6719800">
        <ele>240.2</ele>
        <time>2017-12-18T15:34:18Z</time>
      </trkpt>
      <trkpt lat="38.3155300" lon="-0.6719750">
        <ele>240.2</ele>
        <time>2017-12-18T15:34:19Z</time>
      </trkpt>
      <trkpt lat="38.3155360" lon="-0.6719750">
        <ele>240.2</ele>
        <time>2017-12-18T15:34:20Z</time>
      </trkpt>
      <trkpt lat="38.3155370" lon="-0.6719750">
        <ele>240.2</ele>
        <time>2017-12-18T15:34:21Z</time>
      </trkpt>
      <trkpt lat="38.3155350" lon="-0.6719750">
        <ele>240.2</ele>
        <time>2017-12-18T15:34:22Z</time>
      </trkpt>
      <trkpt lat="38.3155360" lon="-0.6719760">
        <ele>240.2</ele>
        <time>2017-12-18T15:34:23Z</time>
      </trkpt>
      <trkpt lat="38.3155390" lon="-0.6719680">
        <ele>240.2</ele>
        <time>2017-12-18T15:34:24Z</time>
      </trkpt>
      <trkpt lat="38.3155460" lon="-0.6719760">
        <ele>240.2</ele>
        <time>2017-12-18T15:34:25Z</time>
      </trkpt>
      <trkpt lat="38.3155520" lon="-0.6719790">
        <ele>240.2</ele>
        <time>2017-12-18T15:34:26Z</time>
      </trkpt>
      <trkpt lat="38.3155430" lon="-0.6719740">
        <ele>240.2</ele>
        <time>2017-12-18T15:34:27Z</time>
      </trkpt>
      <trkpt lat="38.3155320" lon="-0.6719760">
        <ele>240.2</ele>
        <time>2017-12-18T15:34:28Z</time>
      </trkpt>
      <trkpt lat="38.3155160" lon="-0.6719690">
        <ele>240.2</ele>
        <time>2017-12-18T15:34:29Z</time>
      </trkpt>
      <trkpt lat="38.3155020" lon="-0.6719570">
        <ele>240.2</ele>
        <time>2017-12-18T15:34:30Z</time>
      </trkpt>
      <trkpt lat="38.3154860" lon="-0.6719460">
        <ele>240.2</ele>
        <time>2017-12-18T15:34:31Z</time>
      </trkpt>
      <trkpt lat="38.3154680" lon="-0.6719360">
        <ele>240.2</ele>
        <time>2017-12-18T15:34:32Z</time>
      </trkpt>
      <trkpt lat="38.3154550" lon="-0.6719260">
        <ele>240.2</ele>
        <time>2017-12-18T15:34:33Z</time>
      </trkpt>
      <trkpt lat="38.3154470" lon="-0.6719170">
        <ele>240.2</ele>
        <time>2017-12-18T15:34:34Z</time>
      </trkpt>
      <trkpt lat="38.3154370" lon="-0.6719050">
        <ele>240.2</ele>
        <time>2017-12-18T15:34:35Z</time>
      </trkpt>
      <trkpt lat="38.3154300" lon="-0.6718930">
        <ele>240.2</ele>
        <time>2017-12-18T15:34:36Z</time>
      </trkpt>
      <trkpt lat="38.3154220" lon="-0.6718800">
        <ele>240.2</ele>
        <time>2017-12-18T15:34:37Z</time>
      </trkpt>
      <trkpt lat="38.3154140" lon="-0.6718670">
        <ele>240.2</ele>
        <time>2017-12-18T15:34:38Z</time>
      </trkpt>
      <trkpt lat="38.3154080" lon="-0.6718540">
        <ele>240.2</ele>
        <time>2017-12-18T15:34:39Z</time>
      </trkpt>
      <trkpt lat="38.3154070" lon="-0.6718510">
        <ele>240.2</ele>
        <time>2017-12-18T15:34:40Z</time>
      </trkpt>
      <trkpt lat="38.3154080" lon="-0.6718510">
        <ele>240.2</ele>
        <time>2017-12-18T15:34:41Z</time>
      </trkpt>
      <trkpt lat="38.3154090" lon="-0.6718510">
        <ele>240.2</ele>
        <time>2017-12-18T15:34:42Z</time>
      </trkpt>
      <trkpt lat="38.3154050" lon="-0.6718460">
        <ele>240.2</ele>
        <time>2017-12-18T15:34:43Z</time>
      </trkpt>
      <trkpt lat="38.3153960" lon="-0.6718320">
        <ele>240.2</ele>
        <time>2017-12-18T15:34:44Z</time>
      </trkpt>
      <trkpt lat="38.3153850" lon="-0.6718110">
        <ele>240.2</ele>
        <time>2017-12-18T15:34:45Z</time>
      </trkpt>
      <trkpt lat="38.3153690" lon="-0.6717870">
        <ele>240.2</ele>
        <time>2017-12-18T15:34:46Z</time>
      </trkpt>
      <trkpt lat="38.3153540" lon="-0.6717610">
        <ele>240.2</ele>
        <time>2017-12-18T15:34:47Z</time>
      </trkpt>
      <trkpt lat="38.3153410" lon="-0.6717340">
        <ele>240.2</ele>
        <time>2017-12-18T15:34:48Z</time>
      </trkpt>
      <trkpt lat="38.3153280" lon="-0.6717120">
        <ele>240.2</ele>
        <time>2017-12-18T15:34:49Z</time>
      </trkpt>
      <trkpt lat="38.3153090" lon="-0.6716910">
        <ele>240.2</ele>
        <time>2017-12-18T15:34:50Z</time>
      </trkpt>
      <trkpt lat="38.3152950" lon="-0.6716700">
        <ele>240.2</ele>
        <time>2017-12-18T15:34:51Z</time>
      </trkpt>
      <trkpt lat="38.3152800" lon="-0.6716430">
        <ele>240.2</ele>
        <time>2017-12-18T15:34:52Z</time>
      </trkpt>
      <trkpt lat="38.3152630" lon="-0.6716140">
        <ele>240.2</ele>
        <time>2017-12-18T15:34:53Z</time>
      </trkpt>
      <trkpt lat="38.3152490" lon="-0.6715820">
        <ele>240.2</ele>
        <time>2017-12-18T15:34:54Z</time>
      </trkpt>
      <trkpt lat="38.3152380" lon="-0.6715540">
        <ele>240.2</ele>
        <time>2017-12-18T15:34:55Z</time>
      </trkpt>
      <trkpt lat="38.3152250" lon="-0.6715280">
        <ele>240.2</ele>
        <time>2017-12-18T15:34:56Z</time>
      </trkpt>
      <trkpt lat="38.3152150" lon="-0.6715040">
        <ele>240.2</ele>
        <time>2017-12-18T15:34:57Z</time>
      </trkpt>
      <trkpt lat="38.3152050" lon="-0.6714820">
        <ele>240.2</ele>
        <time>2017-12-18T15:34:58Z</time>
      </trkpt>
      <trkpt lat="38.3151940" lon="-0.6714630">
        <ele>241.1</ele>
        <time>2017-12-18T15:34:59Z</time>
      </trkpt>
      <trkpt lat="38.3151850" lon="-0.6714460">
        <ele>241.1</ele>
        <time>2017-12-18T15:35:00Z</time>
      </trkpt>
      <trkpt lat="38.3151860" lon="-0.6714390">
        <ele>241.1</ele>
        <time>2017-12-18T15:35:01Z</time>
      </trkpt>
      <trkpt lat="38.3151850" lon="-0.6714250">
        <ele>241.1</ele>
        <time>2017-12-18T15:35:02Z</time>
      </trkpt>
      <trkpt lat="38.3151850" lon="-0.6714170">
        <ele>241.1</ele>
        <time>2017-12-18T15:35:03Z</time>
      </trkpt>
      <trkpt lat="38.3151800" lon="-0.6714070">
        <ele>241.1</ele>
        <time>2017-12-18T15:35:04Z</time>
      </trkpt>
      <trkpt lat="38.3151760" lon="-0.6713890">
        <ele>241.1</ele>
        <time>2017-12-18T15:35:05Z</time>
      </trkpt>
      <trkpt lat="38.3151680" lon="-0.6713750">
        <ele>241.1</ele>
        <time>2017-12-18T15:35:06Z</time>
      </trkpt>
      <trkpt lat="38.3151560" lon="-0.6713570">
        <ele>241.1</ele>
        <time>2017-12-18T15:35:07Z</time>
      </trkpt>
      <trkpt lat="38.3151440" lon="-0.6713460">
        <ele>241.1</ele>
        <time>2017-12-18T15:35:08Z</time>
      </trkpt>
      <trkpt lat="38.3151340" lon="-0.6713340">
        <ele>241.1</ele>
        <time>2017-12-18T15:35:09Z</time>
      </trkpt>
      <trkpt lat="38.3151280" lon="-0.6713250">
        <ele>241.1</ele>
        <time>2017-12-18T15:35:10Z</time>
      </trkpt>
      <trkpt lat="38.3151250" lon="-0.6713150">
        <ele>241.1</ele>
        <time>2017-12-18T15:35:11Z</time>
      </trkpt>
      <trkpt lat="38.3151230" lon="-0.6713080">
        <ele>241.1</ele>
        <time>2017-12-18T15:35:12Z</time>
      </trkpt>
      <trkpt lat="38.3151210" lon="-0.6712940">
        <ele>242.2</ele>
        <time>2017-12-18T15:35:13Z</time>
      </trkpt>
      <trkpt lat="38.3151180" lon="-0.6712780">
        <ele>242.2</ele>
        <time>2017-12-18T15:35:14Z</time>
      </trkpt>
      <trkpt lat="38.3151180" lon="-0.6712670">
        <ele>242.2</ele>
        <time>2017-12-18T15:35:15Z</time>
      </trkpt>
      <trkpt lat="38.3151160" lon="-0.6712680">
        <ele>242.2</ele>
        <time>2017-12-18T15:35:16Z</time>
      </trkpt>
      <trkpt lat="38.3151140" lon="-0.6712610">
        <ele>242.2</ele>
        <time>2017-12-18T15:35:17Z</time>
      </trkpt>
      <trkpt lat="38.3151100" lon="-0.6712520">
        <ele>242.2</ele>
        <time>2017-12-18T15:35:18Z</time>
      </trkpt>
      <trkpt lat="38.3151080" lon="-0.6712420">
        <ele>243.1</ele>
        <time>2017-12-18T15:35:19Z</time>
      </trkpt>
      <trkpt lat="38.3151060" lon="-0.6712280">
        <ele>243.1</ele>
        <time>2017-12-18T15:35:20Z</time>
      </trkpt>
      <trkpt lat="38.3151060" lon="-0.6712150">
        <ele>243.1</ele>
        <time>2017-12-18T15:35:21Z</time>
      </trkpt>
      <trkpt lat="38.3151030" lon="-0.6712010">
        <ele>243.1</ele>
        <time>2017-12-18T15:35:22Z</time>
      </trkpt>
      <trkpt lat="38.3150970" lon="-0.6711870">
        <ele>243.1</ele>
        <time>2017-12-18T15:35:23Z</time>
      </trkpt>
      <trkpt lat="38.3150890" lon="-0.6711800">
        <ele>243.1</ele>
        <time>2017-12-18T15:35:24Z</time>
      </trkpt>
      <trkpt lat="38.3150760" lon="-0.6711710">
        <ele>243.1</ele>
        <time>2017-12-18T15:35:25Z</time>
      </trkpt>
      <trkpt lat="38.3150690" lon="-0.6711570">
        <ele>243.1</ele>
        <time>2017-12-18T15:35:26Z</time>
      </trkpt>
      <trkpt lat="38.3150660" lon="-0.6711430">
        <ele>243.1</ele>
        <time>2017-12-18T15:35:27Z</time>
      </trkpt>
      <trkpt lat="38.3150620" lon="-0.6711300">
        <ele>243.1</ele>
        <time>2017-12-18T15:35:28Z</time>
      </trkpt>
      <trkpt lat="38.3150540" lon="-0.6711170">
        <ele>243.1</ele>
        <time>2017-12-18T15:35:29Z</time>
      </trkpt>
      <trkpt lat="38.3150480" lon="-0.6711030">
        <ele>243.1</ele>
        <time>2017-12-18T15:35:30Z</time>
      </trkpt>
      <trkpt lat="38.3150440" lon="-0.6710910">
        <ele>243.1</ele>
        <time>2017-12-18T15:35:31Z</time>
      </trkpt>
      <trkpt lat="38.3150410" lon="-0.6710760">
        <ele>243.1</ele>
        <time>2017-12-18T15:35:32Z</time>
      </trkpt>
      <trkpt lat="38.3150390" lon="-0.6710620">
        <ele>244.1</ele>
        <time>2017-12-18T15:35:33Z</time>
      </trkpt>
      <trkpt lat="38.3150360" lon="-0.6710480">
        <ele>244.1</ele>
        <time>2017-12-18T15:35:34Z</time>
      </trkpt>
      <trkpt lat="38.3150370" lon="-0.6710340">
        <ele>244.1</ele>
        <time>2017-12-18T15:35:35Z</time>
      </trkpt>
      <trkpt lat="38.3150390" lon="-0.6710220">
        <ele>244.1</ele>
        <time>2017-12-18T15:35:36Z</time>
      </trkpt>
      <trkpt lat="38.3150400" lon="-0.6710090">
        <ele>244.1</ele>
        <time>2017-12-18T15:35:37Z</time>
      </trkpt>
      <trkpt lat="38.3150380" lon="-0.6709930">
        <ele>244.1</ele>
        <time>2017-12-18T15:35:38Z</time>
      </trkpt>
      <trkpt lat="38.3150340" lon="-0.6709750">
        <ele>244.1</ele>
        <time>2017-12-18T15:35:39Z</time>
      </trkpt>
      <trkpt lat="38.3150280" lon="-0.6709600">
        <ele>244.1</ele>
        <time>2017-12-18T15:35:40Z</time>
      </trkpt>
      <trkpt lat="38.3150250" lon="-0.6709440">
        <ele>244.1</ele>
        <time>2017-12-18T15:35:41Z</time>
      </trkpt>
      <trkpt lat="38.3150250" lon="-0.6709290">
        <ele>244.1</ele>
        <time>2017-12-18T15:35:42Z</time>
      </trkpt>
      <trkpt lat="38.3150240" lon="-0.6709150">
        <ele>244.1</ele>
        <time>2017-12-18T15:35:43Z</time>
      </trkpt>
      <trkpt lat="38.3150220" lon="-0.6709020">
        <ele>244.1</ele>
        <time>2017-12-18T15:35:44Z</time>
      </trkpt>
      <trkpt lat="38.3150180" lon="-0.6708840">
        <ele>244.1</ele>
        <time>2017-12-18T15:35:45Z</time>
      </trkpt>
      <trkpt lat="38.3150170" lon="-0.6708700">
        <ele>244.1</ele>
        <time>2017-12-18T15:35:46Z</time>
      </trkpt>
      <trkpt lat="38.3150140" lon="-0.6708560">
        <ele>244.1</ele>
        <time>2017-12-18T15:35:47Z</time>
      </trkpt>
      <trkpt lat="38.3150100" lon="-0.6708460">
        <ele>244.1</ele>
        <time>2017-12-18T15:35:48Z</time>
      </trkpt>
      <trkpt lat="38.3150060" lon="-0.6708320">
        <ele>244.1</ele>
        <time>2017-12-18T15:35:49Z</time>
      </trkpt>
      <trkpt lat="38.3150030" lon="-0.6708160">
        <ele>244.1</ele>
        <time>2017-12-18T15:35:50Z</time>
      </trkpt>
      <trkpt lat="38.3150010" lon="-0.6708010">
        <ele>244.1</ele>
        <time>2017-12-18T15:35:51Z</time>
      </trkpt>
      <trkpt lat="38.3150000" lon="-0.6707850">
        <ele>244.1</ele>
        <time>2017-12-18T15:35:52Z</time>
      </trkpt>
      <trkpt lat="38.3150000" lon="-0.6707700">
        <ele>247.2</ele>
        <time>2017-12-18T15:35:53Z</time>
      </trkpt>
      <trkpt lat="38.3149990" lon="-0.6707590">
        <ele>247.2</ele>
        <time>2017-12-18T15:35:54Z</time>
      </trkpt>
      <trkpt lat="38.3149970" lon="-0.6707490">
        <ele>247.2</ele>
        <time>2017-12-18T15:35:55Z</time>
      </trkpt>
      <trkpt lat="38.3149930" lon="-0.6707370">
        <ele>247.2</ele>
        <time>2017-12-18T15:35:56Z</time>
      </trkpt>
      <trkpt lat="38.3149910" lon="-0.6707250">
        <ele>247.2</ele>
        <time>2017-12-18T15:35:57Z</time>
      </trkpt>
      <trkpt lat="38.3149900" lon="-0.6707130">
        <ele>247.2</ele>
        <time>2017-12-18T15:35:58Z</time>
      </trkpt>
      <trkpt lat="38.3149880" lon="-0.6707010">
        <ele>248.1</ele>
        <time>2017-12-18T15:35:59Z</time>
      </trkpt>
      <trkpt lat="38.3149870" lon="-0.6706930">
        <ele>248.1</ele>
        <time>2017-12-18T15:36:00Z</time>
      </trkpt>
      <trkpt lat="38.3149850" lon="-0.6706820">
        <ele>248.1</ele>
        <time>2017-12-18T15:36:01Z</time>
      </trkpt>
      <trkpt lat="38.3149840" lon="-0.6706720">
        <ele>248.1</ele>
        <time>2017-12-18T15:36:02Z</time>
      </trkpt>
      <trkpt lat="38.3149830" lon="-0.6706600">
        <ele>248.1</ele>
        <time>2017-12-18T15:36:03Z</time>
      </trkpt>
      <trkpt lat="38.3149810" lon="-0.6706500">
        <ele>248.1</ele>
        <time>2017-12-18T15:36:04Z</time>
      </trkpt>
      <trkpt lat="38.3149820" lon="-0.6706450">
        <ele>248.1</ele>
        <time>2017-12-18T15:36:05Z</time>
      </trkpt>
      <trkpt lat="38.3149820" lon="-0.6706450">
        <ele>248.1</ele>
        <time>2017-12-18T15:36:06Z</time>
      </trkpt>
      <trkpt lat="38.3149810" lon="-0.6706430">
        <ele>249.2</ele>
        <time>2017-12-18T15:36:07Z</time>
      </trkpt>
      <trkpt lat="38.3149800" lon="-0.6706370">
        <ele>249.2</ele>
        <time>2017-12-18T15:36:08Z</time>
      </trkpt>
      <trkpt lat="38.3149780" lon="-0.6706200">
        <ele>249.2</ele>
        <time>2017-12-18T15:36:09Z</time>
      </trkpt>
      <trkpt lat="38.3149740" lon="-0.6706040">
        <ele>249.2</ele>
        <time>2017-12-18T15:36:10Z</time>
      </trkpt>
      <trkpt lat="38.3149630" lon="-0.6705870">
        <ele>249.2</ele>
        <time>2017-12-18T15:36:11Z</time>
      </trkpt>
      <trkpt lat="38.3149500" lon="-0.6705670">
        <ele>249.2</ele>
        <time>2017-12-18T15:36:12Z</time>
      </trkpt>
      <trkpt lat="38.3149370" lon="-0.6705460">
        <ele>249.2</ele>
        <time>2017-12-18T15:36:13Z</time>
      </trkpt>
      <trkpt lat="38.3149240" lon="-0.6705230">
        <ele>249.2</ele>
        <time>2017-12-18T15:36:14Z</time>
      </trkpt>
      <trkpt lat="38.3149050" lon="-0.6704910">
        <ele>249.2</ele>
        <time>2017-12-18T15:36:15Z</time>
      </trkpt>
      <trkpt lat="38.3148830" lon="-0.6704590">
        <ele>249.2</ele>
        <time>2017-12-18T15:36:16Z</time>
      </trkpt>
      <trkpt lat="38.3148550" lon="-0.6704380">
        <ele>249.2</ele>
        <time>2017-12-18T15:36:17Z</time>
      </trkpt>
      <trkpt lat="38.3148260" lon="-0.6704400">
        <ele>249.2</ele>
        <time>2017-12-18T15:36:18Z</time>
      </trkpt>
      <trkpt lat="38.3147910" lon="-0.6704380">
        <ele>249.2</ele>
        <time>2017-12-18T15:36:19Z</time>
      </trkpt>
      <trkpt lat="38.3147600" lon="-0.6704200">
        <ele>249.2</ele>
        <time>2017-12-18T15:36:20Z</time>
      </trkpt>
      <trkpt lat="38.3147150" lon="-0.6703930">
        <ele>244.1</ele>
        <time>2017-12-18T15:36:21Z</time>
      </trkpt>
      <trkpt lat="38.3146640" lon="-0.6703590">
        <ele>244.1</ele>
        <time>2017-12-18T15:36:22Z</time>
      </trkpt>
      <trkpt lat="38.3146070" lon="-0.6703350">
        <ele>242.2</ele>
        <time>2017-12-18T15:36:23Z</time>
      </trkpt>
      <trkpt lat="38.3145550" lon="-0.6703050">
        <ele>242.2</ele>
        <time>2017-12-18T15:36:24Z</time>
      </trkpt>
      <trkpt lat="38.3145180" lon="-0.6702820">
        <ele>242.2</ele>
        <time>2017-12-18T15:36:25Z</time>
      </trkpt>
      <trkpt lat="38.3144990" lon="-0.6702600">
        <ele>242.2</ele>
        <time>2017-12-18T15:36:26Z</time>
      </trkpt>
      <trkpt lat="38.3144790" lon="-0.6702350">
        <ele>242.2</ele>
        <time>2017-12-18T15:36:27Z</time>
      </trkpt>
      <trkpt lat="38.3144560" lon="-0.6702020">
        <ele>242.2</ele>
        <time>2017-12-18T15:36:28Z</time>
      </trkpt>
      <trkpt lat="38.3144270" lon="-0.6701600">
        <ele>242.2</ele>
        <time>2017-12-18T15:36:29Z</time>
      </trkpt>
      <trkpt lat="38.3143910" lon="-0.6701160">
        <ele>242.2</ele>
        <time>2017-12-18T15:36:30Z</time>
      </trkpt>
      <trkpt lat="38.3143600" lon="-0.6700800">
        <ele>242.2</ele>
        <time>2017-12-18T15:36:31Z</time>
      </trkpt>
      <trkpt lat="38.3143300" lon="-0.6700540">
        <ele>242.2</ele>
        <time>2017-12-18T15:36:32Z</time>
      </trkpt>
      <trkpt lat="38.3143100" lon="-0.6700290">
        <ele>242.2</ele>
        <time>2017-12-18T15:36:33Z</time>
      </trkpt>
      <trkpt lat="38.3142880" lon="-0.6700010">
        <ele>242.2</ele>
        <time>2017-12-18T15:36:34Z</time>
      </trkpt>
      <trkpt lat="38.3142670" lon="-0.6699770">
        <ele>242.2</ele>
        <time>2017-12-18T15:36:35Z</time>
      </trkpt>
      <trkpt lat="38.3142470" lon="-0.6699640">
        <ele>242.2</ele>
        <time>2017-12-18T15:36:36Z</time>
      </trkpt>
      <trkpt lat="38.3142300" lon="-0.6699430">
        <ele>242.2</ele>
        <time>2017-12-18T15:36:37Z</time>
      </trkpt>
      <trkpt lat="38.3142090" lon="-0.6699160">
        <ele>242.2</ele>
        <time>2017-12-18T15:36:38Z</time>
      </trkpt>
      <trkpt lat="38.3141910" lon="-0.6698810">
        <ele>242.2</ele>
        <time>2017-12-18T15:36:39Z</time>
      </trkpt>
      <trkpt lat="38.3141740" lon="-0.6698540">
        <ele>242.2</ele>
        <time>2017-12-18T15:36:40Z</time>
      </trkpt>
      <trkpt lat="38.3141650" lon="-0.6698340">
        <ele>242.2</ele>
        <time>2017-12-18T15:36:41Z</time>
      </trkpt>
      <trkpt lat="38.3141640" lon="-0.6698170">
        <ele>242.2</ele>
        <time>2017-12-18T15:36:42Z</time>
      </trkpt>
      <trkpt lat="38.3141620" lon="-0.6698070">
        <ele>242.2</ele>
        <time>2017-12-18T15:36:43Z</time>
      </trkpt>
      <trkpt lat="38.3141590" lon="-0.6698010">
        <ele>242.2</ele>
        <time>2017-12-18T15:36:44Z</time>
      </trkpt>
      <trkpt lat="38.3141580" lon="-0.6697950">
        <ele>241.1</ele>
        <time>2017-12-18T15:36:45Z</time>
      </trkpt>
      <trkpt lat="38.3141540" lon="-0.6697860">
        <ele>241.1</ele>
        <time>2017-12-18T15:36:46Z</time>
      </trkpt>
      <trkpt lat="38.3141460" lon="-0.6697770">
        <ele>241.1</ele>
        <time>2017-12-18T15:36:47Z</time>
      </trkpt>
      <trkpt lat="38.3141340" lon="-0.6697640">
        <ele>241.1</ele>
        <time>2017-12-18T15:36:48Z</time>
      </trkpt>
      <trkpt lat="38.3141260" lon="-0.6697610">
        <ele>241.1</ele>
        <time>2017-12-18T15:36:49Z</time>
      </trkpt>
      <trkpt lat="38.3141180" lon="-0.6697540">
        <ele>241.1</ele>
        <time>2017-12-18T15:36:50Z</time>
      </trkpt>
      <trkpt lat="38.3141130" lon="-0.6697470">
        <ele>240.2</ele>
        <time>2017-12-18T15:36:51Z</time>
      </trkpt>
      <trkpt lat="38.3141050" lon="-0.6697400">
        <ele>240.2</ele>
        <time>2017-12-18T15:36:52Z</time>
      </trkpt>
      <trkpt lat="38.3141020" lon="-0.6697350">
        <ele>240.2</ele>
        <time>2017-12-18T15:36:53Z</time>
      </trkpt>
      <trkpt lat="38.3140990" lon="-0.6697290">
        <ele>240.2</ele>
        <time>2017-12-18T15:36:54Z</time>
      </trkpt>
      <trkpt lat="38.3140930" lon="-0.6697250">
        <ele>240.2</ele>
        <time>2017-12-18T15:36:55Z</time>
      </trkpt>
      <trkpt lat="38.3140820" lon="-0.6697150">
        <ele>240.2</ele>
        <time>2017-12-18T15:36:56Z</time>
      </trkpt>
      <trkpt lat="38.3140680" lon="-0.6697010">
        <ele>240.2</ele>
        <time>2017-12-18T15:36:57Z</time>
      </trkpt>
      <trkpt lat="38.3140550" lon="-0.6696810">
        <ele>240.2</ele>
        <time>2017-12-18T15:36:58Z</time>
      </trkpt>
      <trkpt lat="38.3140410" lon="-0.6696590">
        <ele>241.1</ele>
        <time>2017-12-18T15:36:59Z</time>
      </trkpt>
      <trkpt lat="38.3140270" lon="-0.6696370">
        <ele>241.1</ele>
        <time>2017-12-18T15:37:00Z</time>
      </trkpt>
      <trkpt lat="38.3140130" lon="-0.6696140">
        <ele>241.1</ele>
        <time>2017-12-18T15:37:01Z</time>
      </trkpt>
      <trkpt lat="38.3140000" lon="-0.6695910">
        <ele>241.1</ele>
        <time>2017-12-18T15:37:02Z</time>
      </trkpt>
      <trkpt lat="38.3139850" lon="-0.6695670">
        <ele>241.1</ele>
        <time>2017-12-18T15:37:03Z</time>
      </trkpt>
      <trkpt lat="38.3139680" lon="-0.6695390">
        <ele>241.1</ele>
        <time>2017-12-18T15:37:04Z</time>
      </trkpt>
      <trkpt lat="38.3139530" lon="-0.6695100">
        <ele>241.1</ele>
        <time>2017-12-18T15:37:05Z</time>
      </trkpt>
      <trkpt lat="38.3139400" lon="-0.6694790">
        <ele>241.1</ele>
        <time>2017-12-18T15:37:06Z</time>
      </trkpt>
      <trkpt lat="38.3139250" lon="-0.6694450">
        <ele>241.1</ele>
        <time>2017-12-18T15:37:07Z</time>
      </trkpt>
      <trkpt lat="38.3139070" lon="-0.6694070">
        <ele>241.1</ele>
        <time>2017-12-18T15:37:08Z</time>
      </trkpt>
      <trkpt lat="38.3138850" lon="-0.6693660">
        <ele>241.1</ele>
        <time>2017-12-18T15:37:09Z</time>
      </trkpt>
      <trkpt lat="38.3138650" lon="-0.6693210">
        <ele>241.1</ele>
        <time>2017-12-18T15:37:10Z</time>
      </trkpt>
      <trkpt lat="38.3138410" lon="-0.6692790">
        <ele>241.1</ele>
        <time>2017-12-18T15:37:11Z</time>
      </trkpt>
      <trkpt lat="38.3138220" lon="-0.6692350">
        <ele>241.1</ele>
        <time>2017-12-18T15:37:12Z</time>
      </trkpt>
      <trkpt lat="38.3137950" lon="-0.6691950">
        <ele>237.1</ele>
        <time>2017-12-18T15:37:13Z</time>
      </trkpt>
      <trkpt lat="38.3137700" lon="-0.6691670">
        <ele>237.1</ele>
        <time>2017-12-18T15:37:14Z</time>
      </trkpt>
      <trkpt lat="38.3137510" lon="-0.6691420">
        <ele>237.1</ele>
        <time>2017-12-18T15:37:15Z</time>
      </trkpt>
      <trkpt lat="38.3137310" lon="-0.6691130">
        <ele>237.1</ele>
        <time>2017-12-18T15:37:16Z</time>
      </trkpt>
      <trkpt lat="38.3137100" lon="-0.6690750">
        <ele>237.1</ele>
        <time>2017-12-18T15:37:17Z</time>
      </trkpt>
      <trkpt lat="38.3136890" lon="-0.6690380">
        <ele>237.1</ele>
        <time>2017-12-18T15:37:18Z</time>
      </trkpt>
      <trkpt lat="38.3136590" lon="-0.6689920">
        <ele>237.1</ele>
        <time>2017-12-18T15:37:19Z</time>
      </trkpt>
      <trkpt lat="38.3136270" lon="-0.6689470">
        <ele>237.1</ele>
        <time>2017-12-18T15:37:20Z</time>
      </trkpt>
      <trkpt lat="38.3135940" lon="-0.6688880">
        <ele>236.1</ele>
        <time>2017-12-18T15:37:21Z</time>
      </trkpt>
      <trkpt lat="38.3135600" lon="-0.6688340">
        <ele>236.1</ele>
        <time>2017-12-18T15:37:22Z</time>
      </trkpt>
      <trkpt lat="38.3135180" lon="-0.6687830">
        <ele>235.2</ele>
        <time>2017-12-18T15:37:23Z</time>
      </trkpt>
      <trkpt lat="38.3134780" lon="-0.6687240">
        <ele>235.2</ele>
        <time>2017-12-18T15:37:24Z</time>
      </trkpt>
      <trkpt lat="38.3134510" lon="-0.6686670">
        <ele>235.2</ele>
        <time>2017-12-18T15:37:25Z</time>
      </trkpt>
      <trkpt lat="38.3134150" lon="-0.6686250">
        <ele>235.2</ele>
        <time>2017-12-18T15:37:26Z</time>
      </trkpt>
      <trkpt lat="38.3133760" lon="-0.6685790">
        <ele>235.2</ele>
        <time>2017-12-18T15:37:27Z</time>
      </trkpt>
      <trkpt lat="38.3133380" lon="-0.6685280">
        <ele>235.2</ele>
        <time>2017-12-18T15:37:28Z</time>
      </trkpt>
      <trkpt lat="38.3133100" lon="-0.6684840">
        <ele>235.2</ele>
        <time>2017-12-18T15:37:29Z</time>
      </trkpt>
      <trkpt lat="38.3132750" lon="-0.6684570">
        <ele>235.2</ele>
        <time>2017-12-18T15:37:30Z</time>
      </trkpt>
      <trkpt lat="38.3132400" lon="-0.6684370">
        <ele>232.1</ele>
        <time>2017-12-18T15:37:31Z</time>
      </trkpt>
      <trkpt lat="38.3131980" lon="-0.6684110">
        <ele>232.1</ele>
        <time>2017-12-18T15:37:32Z</time>
      </trkpt>
      <trkpt lat="38.3131580" lon="-0.6683850">
        <ele>231.2</ele>
        <time>2017-12-18T15:37:33Z</time>
      </trkpt>
      <trkpt lat="38.3131170" lon="-0.6683530">
        <ele>231.2</ele>
        <time>2017-12-18T15:37:34Z</time>
      </trkpt>
      <trkpt lat="38.3130730" lon="-0.6683210">
        <ele>230.1</ele>
        <time>2017-12-18T15:37:35Z</time>
      </trkpt>
      <trkpt lat="38.3130280" lon="-0.6682870">
        <ele>230.1</ele>
        <time>2017-12-18T15:37:36Z</time>
      </trkpt>
      <trkpt lat="38.3129850" lon="-0.6682510">
        <ele>228.1</ele>
        <time>2017-12-18T15:37:37Z</time>
      </trkpt>
      <trkpt lat="38.3129330" lon="-0.6682200">
        <ele>228.1</ele>
        <time>2017-12-18T15:37:38Z</time>
      </trkpt>
      <trkpt lat="38.3128840" lon="-0.6681890">
        <ele>228.1</ele>
        <time>2017-12-18T15:37:39Z</time>
      </trkpt>
      <trkpt lat="38.3128320" lon="-0.6681560">
        <ele>228.1</ele>
        <time>2017-12-18T15:37:40Z</time>
      </trkpt>
      <trkpt lat="38.3127830" lon="-0.6681300">
        <ele>227.1</ele>
        <time>2017-12-18T15:37:41Z</time>
      </trkpt>
      <trkpt lat="38.3127370" lon="-0.6681030">
        <ele>227.1</ele>
        <time>2017-12-18T15:37:42Z</time>
      </trkpt>
      <trkpt lat="38.3126980" lon="-0.6680800">
        <ele>226.2</ele>
        <time>2017-12-18T15:37:43Z</time>
      </trkpt>
      <trkpt lat="38.3126670" lon="-0.6680730">
        <ele>226.2</ele>
        <time>2017-12-18T15:37:44Z</time>
      </trkpt>
      <trkpt lat="38.3126340" lon="-0.6680820">
        <ele>225.1</ele>
        <time>2017-12-18T15:37:45Z</time>
      </trkpt>
      <trkpt lat="38.3125990" lon="-0.6680930">
        <ele>225.1</ele>
        <time>2017-12-18T15:37:46Z</time>
      </trkpt>
      <trkpt lat="38.3125770" lon="-0.6681020">
        <ele>225.1</ele>
        <time>2017-12-18T15:37:47Z</time>
      </trkpt>
      <trkpt lat="38.3125540" lon="-0.6681090">
        <ele>225.1</ele>
        <time>2017-12-18T15:37:48Z</time>
      </trkpt>
      <trkpt lat="38.3125320" lon="-0.6681210">
        <ele>223.1</ele>
        <time>2017-12-18T15:37:49Z</time>
      </trkpt>
      <trkpt lat="38.3125120" lon="-0.6681230">
        <ele>223.1</ele>
        <time>2017-12-18T15:37:50Z</time>
      </trkpt>
      <trkpt lat="38.3124870" lon="-0.6681150">
        <ele>222.2</ele>
        <time>2017-12-18T15:37:51Z</time>
      </trkpt>
      <trkpt lat="38.3124660" lon="-0.6680900">
        <ele>222.2</ele>
        <time>2017-12-18T15:37:52Z</time>
      </trkpt>
      <trkpt lat="38.3124340" lon="-0.6680620">
        <ele>221.1</ele>
        <time>2017-12-18T15:37:53Z</time>
      </trkpt>
      <trkpt lat="38.3123840" lon="-0.6680270">
        <ele>221.1</ele>
        <time>2017-12-18T15:37:54Z</time>
      </trkpt>
      <trkpt lat="38.3123260" lon="-0.6680020">
        <ele>219.2</ele>
        <time>2017-12-18T15:37:55Z</time>
      </trkpt>
      <trkpt lat="38.3122560" lon="-0.6679980">
        <ele>219.2</ele>
        <time>2017-12-18T15:37:56Z</time>
      </trkpt>
      <trkpt lat="38.3121920" lon="-0.6680080">
        <ele>218.1</ele>
        <time>2017-12-18T15:37:57Z</time>
      </trkpt>
      <trkpt lat="38.3121200" lon="-0.6680190">
        <ele>218.1</ele>
        <time>2017-12-18T15:37:58Z</time>
      </trkpt>
      <trkpt lat="38.3120480" lon="-0.6680310">
        <ele>217.2</ele>
        <time>2017-12-18T15:37:59Z</time>
      </trkpt>
      <trkpt lat="38.3119750" lon="-0.6680500">
        <ele>217.2</ele>
        <time>2017-12-18T15:38:00Z</time>
      </trkpt>
      <trkpt lat="38.3119040" lon="-0.6680780">
        <ele>217.2</ele>
        <time>2017-12-18T15:38:01Z</time>
      </trkpt>
      <trkpt lat="38.3118340" lon="-0.6681130">
        <ele>217.2</ele>
        <time>2017-12-18T15:38:02Z</time>
      </trkpt>
      <trkpt lat="38.3117680" lon="-0.6681570">
        <ele>215.2</ele>
        <time>2017-12-18T15:38:03Z</time>
      </trkpt>
      <trkpt lat="38.3116980" lon="-0.6681920">
        <ele>215.2</ele>
        <time>2017-12-18T15:38:04Z</time>
      </trkpt>
      <trkpt lat="38.3116300" lon="-0.6682050">
        <ele>215.2</ele>
        <time>2017-12-18T15:38:05Z</time>
      </trkpt>
      <trkpt lat="38.3115590" lon="-0.6682210">
        <ele>215.2</ele>
        <time>2017-12-18T15:38:06Z</time>
      </trkpt>
      <trkpt lat="38.3114960" lon="-0.6682400">
        <ele>215.2</ele>
        <time>2017-12-18T15:38:07Z</time>
      </trkpt>
      <trkpt lat="38.3114420" lon="-0.6682240">
        <ele>215.2</ele>
        <time>2017-12-18T15:38:08Z</time>
      </trkpt>
      <trkpt lat="38.3113870" lon="-0.6682080">
        <ele>215.2</ele>
        <time>2017-12-18T15:38:09Z</time>
      </trkpt>
      <trkpt lat="38.3113300" lon="-0.6682020">
        <ele>215.2</ele>
        <time>2017-12-18T15:38:10Z</time>
      </trkpt>
      <trkpt lat="38.3112680" lon="-0.6681950">
        <ele>214.1</ele>
        <time>2017-12-18T15:38:11Z</time>
      </trkpt>
      <trkpt lat="38.3112000" lon="-0.6681770">
        <ele>214.1</ele>
        <time>2017-12-18T15:38:12Z</time>
      </trkpt>
      <trkpt lat="38.3111250" lon="-0.6681750">
        <ele>213.2</ele>
        <time>2017-12-18T15:38:13Z</time>
      </trkpt>
      <trkpt lat="38.3110540" lon="-0.6682000">
        <ele>213.2</ele>
        <time>2017-12-18T15:38:14Z</time>
      </trkpt>
      <trkpt lat="38.3110000" lon="-0.6682530">
        <ele>212.1</ele>
        <time>2017-12-18T15:38:15Z</time>
      </trkpt>
      <trkpt lat="38.3109430" lon="-0.6683030">
        <ele>212.1</ele>
        <time>2017-12-18T15:38:16Z</time>
      </trkpt>
      <trkpt lat="38.3108870" lon="-0.6683390">
        <ele>212.1</ele>
        <time>2017-12-18T15:38:17Z</time>
      </trkpt>
      <trkpt lat="38.3108290" lon="-0.6683610">
        <ele>212.1</ele>
        <time>2017-12-18T15:38:18Z</time>
      </trkpt>
      <trkpt lat="38.3107750" lon="-0.6683470">
        <ele>212.1</ele>
        <time>2017-12-18T15:38:19Z</time>
      </trkpt>
      <trkpt lat="38.3107210" lon="-0.6683280">
        <ele>212.1</ele>
        <time>2017-12-18T15:38:20Z</time>
      </trkpt>
      <trkpt lat="38.3106590" lon="-0.6683270">
        <ele>211.1</ele>
        <time>2017-12-18T15:38:21Z</time>
      </trkpt>
      <trkpt lat="38.3105970" lon="-0.6683360">
        <ele>211.1</ele>
        <time>2017-12-18T15:38:22Z</time>
      </trkpt>
      <trkpt lat="38.3105350" lon="-0.6683510">
        <ele>211.1</ele>
        <time>2017-12-18T15:38:23Z</time>
      </trkpt>
      <trkpt lat="38.3104950" lon="-0.6683960">
        <ele>211.1</ele>
        <time>2017-12-18T15:38:24Z</time>
      </trkpt>
      <trkpt lat="38.3104570" lon="-0.6684510">
        <ele>211.1</ele>
        <time>2017-12-18T15:38:25Z</time>
      </trkpt>
      <trkpt lat="38.3104280" lon="-0.6685090">
        <ele>211.1</ele>
        <time>2017-12-18T15:38:26Z</time>
      </trkpt>
      <trkpt lat="38.3103890" lon="-0.6685590">
        <ele>211.1</ele>
        <time>2017-12-18T15:38:27Z</time>
      </trkpt>
      <trkpt lat="38.3103400" lon="-0.6685980">
        <ele>211.1</ele>
        <time>2017-12-18T15:38:28Z</time>
      </trkpt>
      <trkpt lat="38.3103030" lon="-0.6686520">
        <ele>211.1</ele>
        <time>2017-12-18T15:38:29Z</time>
      </trkpt>
      <trkpt lat="38.3102760" lon="-0.6687130">
        <ele>211.1</ele>
        <time>2017-12-18T15:38:30Z</time>
      </trkpt>
      <trkpt lat="38.3102470" lon="-0.6687780">
        <ele>211.1</ele>
        <time>2017-12-18T15:38:31Z</time>
      </trkpt>
      <trkpt lat="38.3102210" lon="-0.6688460">
        <ele>211.1</ele>
        <time>2017-12-18T15:38:32Z</time>
      </trkpt>
      <trkpt lat="38.3101880" lon="-0.6689040">
        <ele>211.1</ele>
        <time>2017-12-18T15:38:33Z</time>
      </trkpt>
      <trkpt lat="38.3101590" lon="-0.6689550">
        <ele>211.1</ele>
        <time>2017-12-18T15:38:34Z</time>
      </trkpt>
      <trkpt lat="38.3101400" lon="-0.6690100">
        <ele>212.1</ele>
        <time>2017-12-18T15:38:35Z</time>
      </trkpt>
      <trkpt lat="38.3101120" lon="-0.6690650">
        <ele>212.1</ele>
        <time>2017-12-18T15:38:36Z</time>
      </trkpt>
      <trkpt lat="38.3100840" lon="-0.6691190">
        <ele>212.1</ele>
        <time>2017-12-18T15:38:37Z</time>
      </trkpt>
      <trkpt lat="38.3100550" lon="-0.6691700">
        <ele>212.1</ele>
        <time>2017-12-18T15:38:38Z</time>
      </trkpt>
      <trkpt lat="38.3100290" lon="-0.6692190">
        <ele>212.1</ele>
        <time>2017-12-18T15:38:39Z</time>
      </trkpt>
      <trkpt lat="38.3100070" lon="-0.6692690">
        <ele>212.1</ele>
        <time>2017-12-18T15:38:40Z</time>
      </trkpt>
      <trkpt lat="38.3099810" lon="-0.6693160">
        <ele>213.2</ele>
        <time>2017-12-18T15:38:41Z</time>
      </trkpt>
      <trkpt lat="38.3099500" lon="-0.6693530">
        <ele>213.2</ele>
        <time>2017-12-18T15:38:42Z</time>
      </trkpt>
      <trkpt lat="38.3099110" lon="-0.6693800">
        <ele>213.2</ele>
        <time>2017-12-18T15:38:43Z</time>
      </trkpt>
      <trkpt lat="38.3098640" lon="-0.6693980">
        <ele>213.2</ele>
        <time>2017-12-18T15:38:44Z</time>
      </trkpt>
      <trkpt lat="38.3098090" lon="-0.6694100">
        <ele>213.2</ele>
        <time>2017-12-18T15:38:45Z</time>
      </trkpt>
      <trkpt lat="38.3097510" lon="-0.6694240">
        <ele>213.2</ele>
        <time>2017-12-18T15:38:46Z</time>
      </trkpt>
      <trkpt lat="38.3096930" lon="-0.6694340">
        <ele>213.2</ele>
        <time>2017-12-18T15:38:47Z</time>
      </trkpt>
      <trkpt lat="38.3096370" lon="-0.6694400">
        <ele>213.2</ele>
        <time>2017-12-18T15:38:48Z</time>
      </trkpt>
      <trkpt lat="38.3095820" lon="-0.6694550">
        <ele>213.2</ele>
        <time>2017-12-18T15:38:49Z</time>
      </trkpt>
      <trkpt lat="38.3095230" lon="-0.6694680">
        <ele>213.2</ele>
        <time>2017-12-18T15:38:50Z</time>
      </trkpt>
      <trkpt lat="38.3094610" lon="-0.6694730">
        <ele>213.2</ele>
        <time>2017-12-18T15:38:51Z</time>
      </trkpt>
      <trkpt lat="38.3094000" lon="-0.6694820">
        <ele>213.2</ele>
        <time>2017-12-18T15:38:52Z</time>
      </trkpt>
      <trkpt lat="38.3093530" lon="-0.6694960">
        <ele>210.2</ele>
        <time>2017-12-18T15:38:53Z</time>
      </trkpt>
      <trkpt lat="38.3093100" lon="-0.6695110">
        <ele>210.2</ele>
        <time>2017-12-18T15:38:54Z</time>
      </trkpt>
      <trkpt lat="38.3092710" lon="-0.6695260">
        <ele>209.1</ele>
        <time>2017-12-18T15:38:55Z</time>
      </trkpt>
      <trkpt lat="38.3092360" lon="-0.6695410">
        <ele>209.1</ele>
        <time>2017-12-18T15:38:56Z</time>
      </trkpt>
      <trkpt lat="38.3092040" lon="-0.6695570">
        <ele>208.2</ele>
        <time>2017-12-18T15:38:57Z</time>
      </trkpt>
      <trkpt lat="38.3091680" lon="-0.6695770">
        <ele>208.2</ele>
        <time>2017-12-18T15:38:58Z</time>
      </trkpt>
      <trkpt lat="38.3091280" lon="-0.6696120">
        <ele>207.1</ele>
        <time>2017-12-18T15:38:59Z</time>
      </trkpt>
      <trkpt lat="38.3090850" lon="-0.6696490">
        <ele>207.1</ele>
        <time>2017-12-18T15:39:00Z</time>
      </trkpt>
      <trkpt lat="38.3090420" lon="-0.6696930">
        <ele>207.1</ele>
        <time>2017-12-18T15:39:01Z</time>
      </trkpt>
      <trkpt lat="38.3089960" lon="-0.6697380">
        <ele>207.1</ele>
        <time>2017-12-18T15:39:02Z</time>
      </trkpt>
      <trkpt lat="38.3089600" lon="-0.6697790">
        <ele>207.1</ele>
        <time>2017-12-18T15:39:03Z</time>
      </trkpt>
      <trkpt lat="38.3089270" lon="-0.6698080">
        <ele>207.1</ele>
        <time>2017-12-18T15:39:04Z</time>
      </trkpt>
      <trkpt lat="38.3088960" lon="-0.6698320">
        <ele>202.1</ele>
        <time>2017-12-18T15:39:05Z</time>
      </trkpt>
      <trkpt lat="38.3088690" lon="-0.6698540">
        <ele>202.1</ele>
        <time>2017-12-18T15:39:06Z</time>
      </trkpt>
      <trkpt lat="38.3088370" lon="-0.6698740">
        <ele>201.2</ele>
        <time>2017-12-18T15:39:07Z</time>
      </trkpt>
      <trkpt lat="38.3088060" lon="-0.6699030">
        <ele>201.2</ele>
        <time>2017-12-18T15:39:08Z</time>
      </trkpt>
      <trkpt lat="38.3087680" lon="-0.6699300">
        <ele>200.1</ele>
        <time>2017-12-18T15:39:09Z</time>
      </trkpt>
      <trkpt lat="38.3087270" lon="-0.6699470">
        <ele>200.1</ele>
        <time>2017-12-18T15:39:10Z</time>
      </trkpt>
      <trkpt lat="38.3086830" lon="-0.6699630">
        <ele>198.1</ele>
        <time>2017-12-18T15:39:11Z</time>
      </trkpt>
      <trkpt lat="38.3086450" lon="-0.6699730">
        <ele>198.1</ele>
        <time>2017-12-18T15:39:12Z</time>
      </trkpt>
      <trkpt lat="38.3086050" lon="-0.6699980">
        <ele>196.1</ele>
        <time>2017-12-18T15:39:13Z</time>
      </trkpt>
      <trkpt lat="38.3085760" lon="-0.6700400">
        <ele>196.1</ele>
        <time>2017-12-18T15:39:14Z</time>
      </trkpt>
      <trkpt lat="38.3085530" lon="-0.6700950">
        <ele>195.1</ele>
        <time>2017-12-18T15:39:15Z</time>
      </trkpt>
      <trkpt lat="38.3085200" lon="-0.6701480">
        <ele>195.1</ele>
        <time>2017-12-18T15:39:16Z</time>
      </trkpt>
      <trkpt lat="38.3084760" lon="-0.6701990">
        <ele>194.2</ele>
        <time>2017-12-18T15:39:17Z</time>
      </trkpt>
      <trkpt lat="38.3084280" lon="-0.6702520">
        <ele>194.2</ele>
        <time>2017-12-18T15:39:18Z</time>
      </trkpt>
      <trkpt lat="38.3083780" lon="-0.6702990">
        <ele>193.1</ele>
        <time>2017-12-18T15:39:19Z</time>
      </trkpt>
      <trkpt lat="38.3083250" lon="-0.6703250">
        <ele>193.1</ele>
        <time>2017-12-18T15:39:20Z</time>
      </trkpt>
      <trkpt lat="38.3082980" lon="-0.6703500">
        <ele>193.1</ele>
        <time>2017-12-18T15:39:21Z</time>
      </trkpt>
      <trkpt lat="38.3082620" lon="-0.6703760">
        <ele>193.1</ele>
        <time>2017-12-18T15:39:22Z</time>
      </trkpt>
      <trkpt lat="38.3082270" lon="-0.6704070">
        <ele>192.2</ele>
        <time>2017-12-18T15:39:23Z</time>
      </trkpt>
      <trkpt lat="38.3081890" lon="-0.6704450">
        <ele>192.2</ele>
        <time>2017-12-18T15:39:24Z</time>
      </trkpt>
      <trkpt lat="38.3081410" lon="-0.6704770">
        <ele>192.2</ele>
        <time>2017-12-18T15:39:25Z</time>
      </trkpt>
      <trkpt lat="38.3080820" lon="-0.6705110">
        <ele>192.2</ele>
        <time>2017-12-18T15:39:26Z</time>
      </trkpt>
      <trkpt lat="38.3080280" lon="-0.6705470">
        <ele>191.1</ele>
        <time>2017-12-18T15:39:27Z</time>
      </trkpt>
      <trkpt lat="38.3079830" lon="-0.6705860">
        <ele>191.1</ele>
        <time>2017-12-18T15:39:28Z</time>
      </trkpt>
      <trkpt lat="38.3079370" lon="-0.6706110">
        <ele>189.1</ele>
        <time>2017-12-18T15:39:29Z</time>
      </trkpt>
      <trkpt lat="38.3078880" lon="-0.6706090">
        <ele>189.1</ele>
        <time>2017-12-18T15:39:30Z</time>
      </trkpt>
      <trkpt lat="38.3078370" lon="-0.6706130">
        <ele>187.1</ele>
        <time>2017-12-18T15:39:31Z</time>
      </trkpt>
      <trkpt lat="38.3077940" lon="-0.6706240">
        <ele>187.1</ele>
        <time>2017-12-18T15:39:32Z</time>
      </trkpt>
      <trkpt lat="38.3077570" lon="-0.6706400">
        <ele>186.1</ele>
        <time>2017-12-18T15:39:33Z</time>
      </trkpt>
      <trkpt lat="38.3077210" lon="-0.6706360">
        <ele>186.1</ele>
        <time>2017-12-18T15:39:34Z</time>
      </trkpt>
      <trkpt lat="38.3076790" lon="-0.6706250">
        <ele>185.2</ele>
        <time>2017-12-18T15:39:35Z</time>
      </trkpt>
      <trkpt lat="38.3076410" lon="-0.6706160">
        <ele>185.2</ele>
        <time>2017-12-18T15:39:36Z</time>
      </trkpt>
      <trkpt lat="38.3076140" lon="-0.6706100">
        <ele>183.2</ele>
        <time>2017-12-18T15:39:37Z</time>
      </trkpt>
      <trkpt lat="38.3075930" lon="-0.6706170">
        <ele>183.2</ele>
        <time>2017-12-18T15:39:38Z</time>
      </trkpt>
      <trkpt lat="38.3075670" lon="-0.6706370">
        <ele>182.1</ele>
        <time>2017-12-18T15:39:39Z</time>
      </trkpt>
      <trkpt lat="38.3075330" lon="-0.6706620">
        <ele>182.1</ele>
        <time>2017-12-18T15:39:40Z</time>
      </trkpt>
      <trkpt lat="38.3074990" lon="-0.6706920">
        <ele>181.2</ele>
        <time>2017-12-18T15:39:41Z</time>
      </trkpt>
      <trkpt lat="38.3074670" lon="-0.6707170">
        <ele>181.2</ele>
        <time>2017-12-18T15:39:42Z</time>
      </trkpt>
      <trkpt lat="38.3074310" lon="-0.6707290">
        <ele>180.1</ele>
        <time>2017-12-18T15:39:43Z</time>
      </trkpt>
      <trkpt lat="38.3074000" lon="-0.6707240">
        <ele>180.1</ele>
        <time>2017-12-18T15:39:44Z</time>
      </trkpt>
      <trkpt lat="38.3073720" lon="-0.6707130">
        <ele>179.1</ele>
        <time>2017-12-18T15:39:45Z</time>
      </trkpt>
      <trkpt lat="38.3073510" lon="-0.6706900">
        <ele>179.1</ele>
        <time>2017-12-18T15:39:46Z</time>
      </trkpt>
      <trkpt lat="38.3073310" lon="-0.6706620">
        <ele>178.2</ele>
        <time>2017-12-18T15:39:47Z</time>
      </trkpt>
      <trkpt lat="38.3073100" lon="-0.6706410">
        <ele>178.2</ele>
        <time>2017-12-18T15:39:48Z</time>
      </trkpt>
      <trkpt lat="38.3072790" lon="-0.6706350">
        <ele>177.1</ele>
        <time>2017-12-18T15:39:49Z</time>
      </trkpt>
      <trkpt lat="38.3072570" lon="-0.6706580">
        <ele>177.1</ele>
        <time>2017-12-18T15:39:50Z</time>
      </trkpt>
      <trkpt lat="38.3072460" lon="-0.6706930">
        <ele>176.2</ele>
        <time>2017-12-18T15:39:51Z</time>
      </trkpt>
      <trkpt lat="38.3072300" lon="-0.6707320">
        <ele>176.2</ele>
        <time>2017-12-18T15:39:52Z</time>
      </trkpt>
      <trkpt lat="38.3072060" lon="-0.6707770">
        <ele>176.2</ele>
        <time>2017-12-18T15:39:53Z</time>
      </trkpt>
      <trkpt lat="38.3071850" lon="-0.6708100">
        <ele>176.2</ele>
        <time>2017-12-18T15:39:54Z</time>
      </trkpt>
      <trkpt lat="38.3071610" lon="-0.6708220">
        <ele>176.2</ele>
        <time>2017-12-18T15:39:55Z</time>
      </trkpt>
      <trkpt lat="38.3071330" lon="-0.6708340">
        <ele>176.2</ele>
        <time>2017-12-18T15:39:56Z</time>
      </trkpt>
      <trkpt lat="38.3070950" lon="-0.6708350">
        <ele>175.1</ele>
        <time>2017-12-18T15:39:57Z</time>
      </trkpt>
      <trkpt lat="38.3070510" lon="-0.6708360">
        <ele>175.1</ele>
        <time>2017-12-18T15:39:58Z</time>
      </trkpt>
      <trkpt lat="38.3069960" lon="-0.6708370">
        <ele>175.1</ele>
        <time>2017-12-18T15:39:59Z</time>
      </trkpt>
      <trkpt lat="38.3069440" lon="-0.6708270">
        <ele>175.1</ele>
        <time>2017-12-18T15:40:00Z</time>
      </trkpt>
      <trkpt lat="38.3068960" lon="-0.6708290">
        <ele>175.1</ele>
        <time>2017-12-18T15:40:01Z</time>
      </trkpt>
      <trkpt lat="38.3068450" lon="-0.6708360">
        <ele>175.1</ele>
        <time>2017-12-18T15:40:02Z</time>
      </trkpt>
      <trkpt lat="38.3067930" lon="-0.6708400">
        <ele>170.1</ele>
        <time>2017-12-18T15:40:03Z</time>
      </trkpt>
      <trkpt lat="38.3067460" lon="-0.6708400">
        <ele>170.1</ele>
        <time>2017-12-18T15:40:04Z</time>
      </trkpt>
      <trkpt lat="38.3066980" lon="-0.6708480">
        <ele>170.1</ele>
        <time>2017-12-18T15:40:05Z</time>
      </trkpt>
      <trkpt lat="38.3066400" lon="-0.6708590">
        <ele>170.1</ele>
        <time>2017-12-18T15:40:06Z</time>
      </trkpt>
      <trkpt lat="38.3065880" lon="-0.6708720">
        <ele>170.1</ele>
        <time>2017-12-18T15:40:07Z</time>
      </trkpt>
      <trkpt lat="38.3065350" lon="-0.6708850">
        <ele>170.1</ele>
        <time>2017-12-18T15:40:08Z</time>
      </trkpt>
      <trkpt lat="38.3064820" lon="-0.6709020">
        <ele>165.2</ele>
        <time>2017-12-18T15:40:09Z</time>
      </trkpt>
      <trkpt lat="38.3064330" lon="-0.6709240">
        <ele>165.2</ele>
        <time>2017-12-18T15:40:10Z</time>
      </trkpt>
      <trkpt lat="38.3063870" lon="-0.6709350">
        <ele>163.1</ele>
        <time>2017-12-18T15:40:11Z</time>
      </trkpt>
      <trkpt lat="38.3063420" lon="-0.6709380">
        <ele>163.1</ele>
        <time>2017-12-18T15:40:12Z</time>
      </trkpt>
      <trkpt lat="38.3063040" lon="-0.6709380">
        <ele>162.2</ele>
        <time>2017-12-18T15:40:13Z</time>
      </trkpt>
      <trkpt lat="38.3062830" lon="-0.6709140">
        <ele>162.2</ele>
        <time>2017-12-18T15:40:14Z</time>
      </trkpt>
      <trkpt lat="38.3062540" lon="-0.6708840">
        <ele>162.2</ele>
        <time>2017-12-18T15:40:15Z</time>
      </trkpt>
      <trkpt lat="38.3062190" lon="-0.6708530">
        <ele>162.2</ele>
        <time>2017-12-18T15:40:16Z</time>
      </trkpt>
      <trkpt lat="38.3061860" lon="-0.6708190">
        <ele>161.1</ele>
        <time>2017-12-18T15:40:17Z</time>
      </trkpt>
      <trkpt lat="38.3061500" lon="-0.6707870">
        <ele>161.1</ele>
        <time>2017-12-18T15:40:18Z</time>
      </trkpt>
      <trkpt lat="38.3060970" lon="-0.6707750">
        <ele>161.1</ele>
        <time>2017-12-18T15:40:19Z</time>
      </trkpt>
      <trkpt lat="38.3060430" lon="-0.6707640">
        <ele>161.1</ele>
        <time>2017-12-18T15:40:20Z</time>
      </trkpt>
      <trkpt lat="38.3059870" lon="-0.6707390">
        <ele>161.1</ele>
        <time>2017-12-18T15:40:21Z</time>
      </trkpt>
      <trkpt lat="38.3059310" lon="-0.6707070">
        <ele>161.1</ele>
        <time>2017-12-18T15:40:22Z</time>
      </trkpt>
      <trkpt lat="38.3058760" lon="-0.6706730">
        <ele>160.2</ele>
        <time>2017-12-18T15:40:23Z</time>
      </trkpt>
      <trkpt lat="38.3058220" lon="-0.6706340">
        <ele>160.2</ele>
        <time>2017-12-18T15:40:24Z</time>
      </trkpt>
      <trkpt lat="38.3057670" lon="-0.6706050">
        <ele>160.2</ele>
        <time>2017-12-18T15:40:25Z</time>
      </trkpt>
      <trkpt lat="38.3057210" lon="-0.6705880">
        <ele>160.2</ele>
        <time>2017-12-18T15:40:26Z</time>
      </trkpt>
      <trkpt lat="38.3056860" lon="-0.6705660">
        <ele>160.2</ele>
        <time>2017-12-18T15:40:27Z</time>
      </trkpt>
      <trkpt lat="38.3056520" lon="-0.6705440">
        <ele>160.2</ele>
        <time>2017-12-18T15:40:28Z</time>
      </trkpt>
      <trkpt lat="38.3056200" lon="-0.6705260">
        <ele>160.2</ele>
        <time>2017-12-18T15:40:29Z</time>
      </trkpt>
      <trkpt lat="38.3055870" lon="-0.6704980">
        <ele>160.2</ele>
        <time>2017-12-18T15:40:30Z</time>
      </trkpt>
      <trkpt lat="38.3055480" lon="-0.6704790">
        <ele>160.2</ele>
        <time>2017-12-18T15:40:31Z</time>
      </trkpt>
      <trkpt lat="38.3055190" lon="-0.6704520">
        <ele>160.2</ele>
        <time>2017-12-18T15:40:32Z</time>
      </trkpt>
      <trkpt lat="38.3054910" lon="-0.6704250">
        <ele>160.2</ele>
        <time>2017-12-18T15:40:33Z</time>
      </trkpt>
      <trkpt lat="38.3054570" lon="-0.6703990">
        <ele>160.2</ele>
        <time>2017-12-18T15:40:34Z</time>
      </trkpt>
      <trkpt lat="38.3054110" lon="-0.6703870">
        <ele>159.1</ele>
        <time>2017-12-18T15:40:35Z</time>
      </trkpt>
      <trkpt lat="38.3053680" lon="-0.6703860">
        <ele>159.1</ele>
        <time>2017-12-18T15:40:36Z</time>
      </trkpt>
      <trkpt lat="38.3053200" lon="-0.6703800">
        <ele>159.1</ele>
        <time>2017-12-18T15:40:37Z</time>
      </trkpt>
      <trkpt lat="38.3052710" lon="-0.6703700">
        <ele>159.1</ele>
        <time>2017-12-18T15:40:38Z</time>
      </trkpt>
      <trkpt lat="38.3052190" lon="-0.6703580">
        <ele>159.1</ele>
        <time>2017-12-18T15:40:39Z</time>
      </trkpt>
      <trkpt lat="38.3051650" lon="-0.6703570">
        <ele>159.1</ele>
        <time>2017-12-18T15:40:40Z</time>
      </trkpt>
      <trkpt lat="38.3051080" lon="-0.6703610">
        <ele>158.2</ele>
        <time>2017-12-18T15:40:41Z</time>
      </trkpt>
      <trkpt lat="38.3050500" lon="-0.6703690">
        <ele>158.2</ele>
        <time>2017-12-18T15:40:42Z</time>
      </trkpt>
      <trkpt lat="38.3049950" lon="-0.6703880">
        <ele>157.1</ele>
        <time>2017-12-18T15:40:43Z</time>
      </trkpt>
      <trkpt lat="38.3049420" lon="-0.6704060">
        <ele>157.1</ele>
        <time>2017-12-18T15:40:44Z</time>
      </trkpt>
      <trkpt lat="38.3048870" lon="-0.6704200">
        <ele>157.1</ele>
        <time>2017-12-18T15:40:45Z</time>
      </trkpt>
      <trkpt lat="38.3048340" lon="-0.6704260">
        <ele>157.1</ele>
        <time>2017-12-18T15:40:46Z</time>
      </trkpt>
      <trkpt lat="38.3047860" lon="-0.6704320">
        <ele>157.1</ele>
        <time>2017-12-18T15:40:47Z</time>
      </trkpt>
      <trkpt lat="38.3047400" lon="-0.6704470">
        <ele>157.1</ele>
        <time>2017-12-18T15:40:48Z</time>
      </trkpt>
      <trkpt lat="38.3046910" lon="-0.6704560">
        <ele>157.1</ele>
        <time>2017-12-18T15:40:49Z</time>
      </trkpt>
      <trkpt lat="38.3046510" lon="-0.6704400">
        <ele>157.1</ele>
        <time>2017-12-18T15:40:50Z</time>
      </trkpt>
      <trkpt lat="38.3046080" lon="-0.6704310">
        <ele>157.1</ele>
        <time>2017-12-18T15:40:51Z</time>
      </trkpt>
      <trkpt lat="38.3045650" lon="-0.6704420">
        <ele>157.1</ele>
        <time>2017-12-18T15:40:52Z</time>
      </trkpt>
      <trkpt lat="38.3045190" lon="-0.6704530">
        <ele>157.1</ele>
        <time>2017-12-18T15:40:53Z</time>
      </trkpt>
      <trkpt lat="38.3044690" lon="-0.6704610">
        <ele>157.1</ele>
        <time>2017-12-18T15:40:54Z</time>
      </trkpt>
      <trkpt lat="38.3044180" lon="-0.6704700">
        <ele>157.1</ele>
        <time>2017-12-18T15:40:55Z</time>
      </trkpt>
      <trkpt lat="38.3043660" lon="-0.6704820">
        <ele>157.1</ele>
        <time>2017-12-18T15:40:56Z</time>
      </trkpt>
      <trkpt lat="38.3043170" lon="-0.6705060">
        <ele>157.1</ele>
        <time>2017-12-18T15:40:57Z</time>
      </trkpt>
      <trkpt lat="38.3042640" lon="-0.6705190">
        <ele>157.1</ele>
        <time>2017-12-18T15:40:58Z</time>
      </trkpt>
      <trkpt lat="38.3042160" lon="-0.6705150">
        <ele>157.1</ele>
        <time>2017-12-18T15:40:59Z</time>
      </trkpt>
      <trkpt lat="38.3041640" lon="-0.6705050">
        <ele>157.1</ele>
        <time>2017-12-18T15:41:00Z</time>
      </trkpt>
      <trkpt lat="38.3041110" lon="-0.6704870">
        <ele>157.1</ele>
        <time>2017-12-18T15:41:01Z</time>
      </trkpt>
      <trkpt lat="38.3040540" lon="-0.6704750">
        <ele>157.1</ele>
        <time>2017-12-18T15:41:02Z</time>
      </trkpt>
      <trkpt lat="38.3039920" lon="-0.6704720">
        <ele>157.1</ele>
        <time>2017-12-18T15:41:03Z</time>
      </trkpt>
      <trkpt lat="38.3039320" lon="-0.6704690">
        <ele>157.1</ele>
        <time>2017-12-18T15:41:04Z</time>
      </trkpt>
      <trkpt lat="38.3038700" lon="-0.6704570">
        <ele>156.2</ele>
        <time>2017-12-18T15:41:05Z</time>
      </trkpt>
      <trkpt lat="38.3038090" lon="-0.6704450">
        <ele>156.2</ele>
        <time>2017-12-18T15:41:06Z</time>
      </trkpt>
      <trkpt lat="38.3037510" lon="-0.6704240">
        <ele>156.2</ele>
        <time>2017-12-18T15:41:07Z</time>
      </trkpt>
      <trkpt lat="38.3036940" lon="-0.6704100">
        <ele>156.2</ele>
        <time>2017-12-18T15:41:08Z</time>
      </trkpt>
      <trkpt lat="38.3036380" lon="-0.6703960">
        <ele>156.2</ele>
        <time>2017-12-18T15:41:09Z</time>
      </trkpt>
      <trkpt lat="38.3035810" lon="-0.6703880">
        <ele>156.2</ele>
        <time>2017-12-18T15:41:10Z</time>
      </trkpt>
      <trkpt lat="38.3035470" lon="-0.6704150">
        <ele>156.2</ele>
        <time>2017-12-18T15:41:11Z</time>
      </trkpt>
      <trkpt lat="38.3035260" lon="-0.6704470">
        <ele>156.2</ele>
        <time>2017-12-18T15:41:12Z</time>
      </trkpt>
      <trkpt lat="38.3035010" lon="-0.6704850">
        <ele>156.2</ele>
        <time>2017-12-18T15:41:13Z</time>
      </trkpt>
      <trkpt lat="38.3034680" lon="-0.6705080">
        <ele>156.2</ele>
        <time>2017-12-18T15:41:14Z</time>
      </trkpt>
      <trkpt lat="38.3034290" lon="-0.6704950">
        <ele>156.2</ele>
        <time>2017-12-18T15:41:15Z</time>
      </trkpt>
      <trkpt lat="38.3033860" lon="-0.6704920">
        <ele>156.2</ele>
        <time>2017-12-18T15:41:16Z</time>
      </trkpt>
      <trkpt lat="38.3033460" lon="-0.6704930">
        <ele>156.2</ele>
        <time>2017-12-18T15:41:17Z</time>
      </trkpt>
      <trkpt lat="38.3033090" lon="-0.6704710">
        <ele>156.2</ele>
        <time>2017-12-18T15:41:18Z</time>
      </trkpt>
      <trkpt lat="38.3032840" lon="-0.6704390">
        <ele>156.2</ele>
        <time>2017-12-18T15:41:19Z</time>
      </trkpt>
      <trkpt lat="38.3032440" lon="-0.6704190">
        <ele>156.2</ele>
        <time>2017-12-18T15:41:20Z</time>
      </trkpt>
      <trkpt lat="38.3031930" lon="-0.6704240">
        <ele>155.1</ele>
        <time>2017-12-18T15:41:21Z</time>
      </trkpt>
      <trkpt lat="38.3031390" lon="-0.6704370">
        <ele>155.1</ele>
        <time>2017-12-18T15:41:22Z</time>
      </trkpt>
      <trkpt lat="38.3030860" lon="-0.6704560">
        <ele>155.1</ele>
        <time>2017-12-18T15:41:23Z</time>
      </trkpt>
      <trkpt lat="38.3030290" lon="-0.6704720">
        <ele>155.1</ele>
        <time>2017-12-18T15:41:24Z</time>
      </trkpt>
      <trkpt lat="38.3029760" lon="-0.6704950">
        <ele>155.1</ele>
        <time>2017-12-18T15:41:25Z</time>
      </trkpt>
      <trkpt lat="38.3029260" lon="-0.6705210">
        <ele>155.1</ele>
        <time>2017-12-18T15:41:26Z</time>
      </trkpt>
      <trkpt lat="38.3028930" lon="-0.6705610">
        <ele>155.1</ele>
        <time>2017-12-18T15:41:27Z</time>
      </trkpt>
      <trkpt lat="38.3029150" lon="-0.6706190">
        <ele>155.1</ele>
        <time>2017-12-18T15:41:28Z</time>
      </trkpt>
      <trkpt lat="38.3028980" lon="-0.6706730">
        <ele>155.1</ele>
        <time>2017-12-18T15:41:29Z</time>
      </trkpt>
      <trkpt lat="38.3028950" lon="-0.6707150">
        <ele>155.1</ele>
        <time>2017-12-18T15:41:30Z</time>
      </trkpt>
      <trkpt lat="38.3028850" lon="-0.6707750">
        <ele>155.1</ele>
        <time>2017-12-18T15:41:31Z</time>
      </trkpt>
      <trkpt lat="38.3028720" lon="-0.6708280">
        <ele>155.1</ele>
        <time>2017-12-18T15:41:32Z</time>
      </trkpt>
      <trkpt lat="38.3028550" lon="-0.6708740">
        <ele>155.1</ele>
        <time>2017-12-18T15:41:33Z</time>
      </trkpt>
      <trkpt lat="38.3028370" lon="-0.6709160">
        <ele>155.1</ele>
        <time>2017-12-18T15:41:34Z</time>
      </trkpt>
      <trkpt lat="38.3028240" lon="-0.6709580">
        <ele>156.2</ele>
        <time>2017-12-18T15:41:35Z</time>
      </trkpt>
      <trkpt lat="38.3028080" lon="-0.6710020">
        <ele>156.2</ele>
        <time>2017-12-18T15:41:36Z</time>
      </trkpt>
      <trkpt lat="38.3027830" lon="-0.6710480">
        <ele>156.2</ele>
        <time>2017-12-18T15:41:37Z</time>
      </trkpt>
      <trkpt lat="38.3027610" lon="-0.6710970">
        <ele>156.2</ele>
        <time>2017-12-18T15:41:38Z</time>
      </trkpt>
      <trkpt lat="38.3027400" lon="-0.6711500">
        <ele>156.2</ele>
        <time>2017-12-18T15:41:39Z</time>
      </trkpt>
      <trkpt lat="38.3027120" lon="-0.6711980">
        <ele>156.2</ele>
        <time>2017-12-18T15:41:40Z</time>
      </trkpt>
      <trkpt lat="38.3026700" lon="-0.6712280">
        <ele>156.2</ele>
        <time>2017-12-18T15:41:41Z</time>
      </trkpt>
      <trkpt lat="38.3026230" lon="-0.6712400">
        <ele>156.2</ele>
        <time>2017-12-18T15:41:42Z</time>
      </trkpt>
      <trkpt lat="38.3025790" lon="-0.6712400">
        <ele>157.1</ele>
        <time>2017-12-18T15:41:43Z</time>
      </trkpt>
      <trkpt lat="38.3025350" lon="-0.6712430">
        <ele>157.1</ele>
        <time>2017-12-18T15:41:44Z</time>
      </trkpt>
      <trkpt lat="38.3024890" lon="-0.6712450">
        <ele>157.1</ele>
        <time>2017-12-18T15:41:45Z</time>
      </trkpt>
      <trkpt lat="38.3024410" lon="-0.6712410">
        <ele>157.1</ele>
        <time>2017-12-18T15:41:46Z</time>
      </trkpt>
      <trkpt lat="38.3023890" lon="-0.6712370">
        <ele>157.1</ele>
        <time>2017-12-18T15:41:47Z</time>
      </trkpt>
      <trkpt lat="38.3023380" lon="-0.6712400">
        <ele>157.1</ele>
        <time>2017-12-18T15:41:48Z</time>
      </trkpt>
      <trkpt lat="38.3022870" lon="-0.6712470">
        <ele>157.1</ele>
        <time>2017-12-18T15:41:49Z</time>
      </trkpt>
      <trkpt lat="38.3022340" lon="-0.6712380">
        <ele>157.1</ele>
        <time>2017-12-18T15:41:50Z</time>
      </trkpt>
      <trkpt lat="38.3021870" lon="-0.6712150">
        <ele>157.1</ele>
        <time>2017-12-18T15:41:51Z</time>
      </trkpt>
      <trkpt lat="38.3021350" lon="-0.6712130">
        <ele>157.1</ele>
        <time>2017-12-18T15:41:52Z</time>
      </trkpt>
      <trkpt lat="38.3020850" lon="-0.6712090">
        <ele>157.1</ele>
        <time>2017-12-18T15:41:53Z</time>
      </trkpt>
      <trkpt lat="38.3020340" lon="-0.6711880">
        <ele>157.1</ele>
        <time>2017-12-18T15:41:54Z</time>
      </trkpt>
      <trkpt lat="38.3019830" lon="-0.6711730">
        <ele>157.1</ele>
        <time>2017-12-18T15:41:55Z</time>
      </trkpt>
      <trkpt lat="38.3019350" lon="-0.6711470">
        <ele>157.1</ele>
        <time>2017-12-18T15:41:56Z</time>
      </trkpt>
      <trkpt lat="38.3018940" lon="-0.6711050">
        <ele>157.1</ele>
        <time>2017-12-18T15:41:57Z</time>
      </trkpt>
      <trkpt lat="38.3018540" lon="-0.6710550">
        <ele>157.1</ele>
        <time>2017-12-18T15:41:58Z</time>
      </trkpt>
      <trkpt lat="38.3018050" lon="-0.6710100">
        <ele>157.1</ele>
        <time>2017-12-18T15:41:59Z</time>
      </trkpt>
      <trkpt lat="38.3017550" lon="-0.6709720">
        <ele>157.1</ele>
        <time>2017-12-18T15:42:00Z</time>
      </trkpt>
      <trkpt lat="38.3016970" lon="-0.6709620">
        <ele>157.1</ele>
        <time>2017-12-18T15:42:01Z</time>
      </trkpt>
      <trkpt lat="38.3016450" lon="-0.6709750">
        <ele>157.1</ele>
        <time>2017-12-18T15:42:02Z</time>
      </trkpt>
      <trkpt lat="38.3015900" lon="-0.6709830">
        <ele>157.1</ele>
        <time>2017-12-18T15:42:03Z</time>
      </trkpt>
      <trkpt lat="38.3015370" lon="-0.6709910">
        <ele>157.1</ele>
        <time>2017-12-18T15:42:04Z</time>
      </trkpt>
      <trkpt lat="38.3014870" lon="-0.6710200">
        <ele>157.1</ele>
        <time>2017-12-18T15:42:05Z</time>
      </trkpt>
      <trkpt lat="38.3014460" lon="-0.6710660">
        <ele>157.1</ele>
        <time>2017-12-18T15:42:06Z</time>
      </trkpt>
      <trkpt lat="38.3014110" lon="-0.6711190">
        <ele>157.1</ele>
        <time>2017-12-18T15:42:07Z</time>
      </trkpt>
      <trkpt lat="38.3013740" lon="-0.6711720">
        <ele>157.1</ele>
        <time>2017-12-18T15:42:08Z</time>
      </trkpt>
      <trkpt lat="38.3013310" lon="-0.6712190">
        <ele>157.1</ele>
        <time>2017-12-18T15:42:09Z</time>
      </trkpt>
      <trkpt lat="38.3012860" lon="-0.6712600">
        <ele>157.1</ele>
        <time>2017-12-18T15:42:10Z</time>
      </trkpt>
      <trkpt lat="38.3012430" lon="-0.6713070">
        <ele>157.1</ele>
        <time>2017-12-18T15:42:11Z</time>
      </trkpt>
      <trkpt lat="38.3011980" lon="-0.6713480">
        <ele>157.1</ele>
        <time>2017-12-18T15:42:12Z</time>
      </trkpt>
      <trkpt lat="38.3011580" lon="-0.6713890">
        <ele>156.2</ele>
        <time>2017-12-18T15:42:13Z</time>
      </trkpt>
      <trkpt lat="38.3011170" lon="-0.6714370">
        <ele>156.2</ele>
        <time>2017-12-18T15:42:14Z</time>
      </trkpt>
      <trkpt lat="38.3010670" lon="-0.6714860">
        <ele>155.1</ele>
        <time>2017-12-18T15:42:15Z</time>
      </trkpt>
      <trkpt lat="38.3010190" lon="-0.6715330">
        <ele>155.1</ele>
        <time>2017-12-18T15:42:16Z</time>
      </trkpt>
      <trkpt lat="38.3009790" lon="-0.6715910">
        <ele>154.1</ele>
        <time>2017-12-18T15:42:17Z</time>
      </trkpt>
      <trkpt lat="38.3009430" lon="-0.6716570">
        <ele>154.1</ele>
        <time>2017-12-18T15:42:18Z</time>
      </trkpt>
      <trkpt lat="38.3009190" lon="-0.6717290">
        <ele>153.2</ele>
        <time>2017-12-18T15:42:19Z</time>
      </trkpt>
      <trkpt lat="38.3008930" lon="-0.6717840">
        <ele>153.2</ele>
        <time>2017-12-18T15:42:20Z</time>
      </trkpt>
      <trkpt lat="38.3008950" lon="-0.6718340">
        <ele>153.2</ele>
        <time>2017-12-18T15:42:21Z</time>
      </trkpt>
      <trkpt lat="38.3009060" lon="-0.6718720">
        <ele>153.2</ele>
        <time>2017-12-18T15:42:22Z</time>
      </trkpt>
      <trkpt lat="38.3009090" lon="-0.6719100">
        <ele>153.2</ele>
        <time>2017-12-18T15:42:23Z</time>
      </trkpt>
      <trkpt lat="38.3009230" lon="-0.6719350">
        <ele>153.2</ele>
        <time>2017-12-18T15:42:24Z</time>
      </trkpt>
      <trkpt lat="38.3009390" lon="-0.6719540">
        <ele>153.2</ele>
        <time>2017-12-18T15:42:25Z</time>
      </trkpt>
      <trkpt lat="38.3009470" lon="-0.6719770">
        <ele>153.2</ele>
        <time>2017-12-18T15:42:26Z</time>
      </trkpt>
      <trkpt lat="38.3009360" lon="-0.6719990">
        <ele>153.2</ele>
        <time>2017-12-18T15:42:27Z</time>
      </trkpt>
      <trkpt lat="38.3009060" lon="-0.6720000">
        <ele>153.2</ele>
        <time>2017-12-18T15:42:28Z</time>
      </trkpt>
      <trkpt lat="38.3008690" lon="-0.6720050">
        <ele>153.2</ele>
        <time>2017-12-18T15:42:29Z</time>
      </trkpt>
      <trkpt lat="38.3008270" lon="-0.6720110">
        <ele>153.2</ele>
        <time>2017-12-18T15:42:30Z</time>
      </trkpt>
      <trkpt lat="38.3007820" lon="-0.6720190">
        <ele>152.1</ele>
        <time>2017-12-18T15:42:31Z</time>
      </trkpt>
      <trkpt lat="38.3007310" lon="-0.6720280">
        <ele>152.1</ele>
        <time>2017-12-18T15:42:32Z</time>
      </trkpt>
      <trkpt lat="38.3006780" lon="-0.6720390">
        <ele>152.1</ele>
        <time>2017-12-18T15:42:33Z</time>
      </trkpt>
      <trkpt lat="38.3006240" lon="-0.6720490">
        <ele>152.1</ele>
        <time>2017-12-18T15:42:34Z</time>
      </trkpt>
      <trkpt lat="38.3005680" lon="-0.6720600">
        <ele>152.1</ele>
        <time>2017-12-18T15:42:35Z</time>
      </trkpt>
      <trkpt lat="38.3005110" lon="-0.6720730">
        <ele>152.1</ele>
        <time>2017-12-18T15:42:36Z</time>
      </trkpt>
      <trkpt lat="38.3004520" lon="-0.6720850">
        <ele>152.1</ele>
        <time>2017-12-18T15:42:37Z</time>
      </trkpt>
      <trkpt lat="38.3003950" lon="-0.6720960">
        <ele>152.1</ele>
        <time>2017-12-18T15:42:38Z</time>
      </trkpt>
      <trkpt lat="38.3003360" lon="-0.6721080">
        <ele>151.2</ele>
        <time>2017-12-18T15:42:39Z</time>
      </trkpt>
      <trkpt lat="38.3002780" lon="-0.6721200">
        <ele>151.2</ele>
        <time>2017-12-18T15:42:40Z</time>
      </trkpt>
      <trkpt lat="38.3002200" lon="-0.6721350">
        <ele>151.2</ele>
        <time>2017-12-18T15:42:41Z</time>
      </trkpt>
      <trkpt lat="38.3001650" lon="-0.6721540">
        <ele>151.2</ele>
        <time>2017-12-18T15:42:42Z</time>
      </trkpt>
      <trkpt lat="38.3001120" lon="-0.6721750">
        <ele>151.2</ele>
        <time>2017-12-18T15:42:43Z</time>
      </trkpt>
      <trkpt lat="38.3000620" lon="-0.6722020">
        <ele>151.2</ele>
        <time>2017-12-18T15:42:44Z</time>
      </trkpt>
      <trkpt lat="38.3000130" lon="-0.6722320">
        <ele>151.2</ele>
        <time>2017-12-18T15:42:45Z</time>
      </trkpt>
      <trkpt lat="38.2999670" lon="-0.6722610">
        <ele>151.2</ele>
        <time>2017-12-18T15:42:46Z</time>
      </trkpt>
      <trkpt lat="38.2999200" lon="-0.6722910">
        <ele>151.2</ele>
        <time>2017-12-18T15:42:47Z</time>
      </trkpt>
      <trkpt lat="38.2998760" lon="-0.6723180">
        <ele>151.2</ele>
        <time>2017-12-18T15:42:48Z</time>
      </trkpt>
      <trkpt lat="38.2998330" lon="-0.6723440">
        <ele>151.2</ele>
        <time>2017-12-18T15:42:49Z</time>
      </trkpt>
      <trkpt lat="38.2997880" lon="-0.6723680">
        <ele>151.2</ele>
        <time>2017-12-18T15:42:50Z</time>
      </trkpt>
      <trkpt lat="38.2997430" lon="-0.6723940">
        <ele>151.2</ele>
        <time>2017-12-18T15:42:51Z</time>
      </trkpt>
      <trkpt lat="38.2996950" lon="-0.6724200">
        <ele>151.2</ele>
        <time>2017-12-18T15:42:52Z</time>
      </trkpt>
      <trkpt lat="38.2996530" lon="-0.6724470">
        <ele>151.2</ele>
        <time>2017-12-18T15:42:53Z</time>
      </trkpt>
      <trkpt lat="38.2996110" lon="-0.6724760">
        <ele>151.2</ele>
        <time>2017-12-18T15:42:54Z</time>
      </trkpt>
      <trkpt lat="38.2995700" lon="-0.6725000">
        <ele>152.1</ele>
        <time>2017-12-18T15:42:55Z</time>
      </trkpt>
      <trkpt lat="38.2995290" lon="-0.6725240">
        <ele>152.1</ele>
        <time>2017-12-18T15:42:56Z</time>
      </trkpt>
      <trkpt lat="38.2994910" lon="-0.6725460">
        <ele>152.1</ele>
        <time>2017-12-18T15:42:57Z</time>
      </trkpt>
      <trkpt lat="38.2994520" lon="-0.6725690">
        <ele>152.1</ele>
        <time>2017-12-18T15:42:58Z</time>
      </trkpt>
      <trkpt lat="38.2994140" lon="-0.6725910">
        <ele>153.2</ele>
        <time>2017-12-18T15:42:59Z</time>
      </trkpt>
      <trkpt lat="38.2993770" lon="-0.6726150">
        <ele>153.2</ele>
        <time>2017-12-18T15:43:00Z</time>
      </trkpt>
      <trkpt lat="38.2993390" lon="-0.6726400">
        <ele>153.2</ele>
        <time>2017-12-18T15:43:01Z</time>
      </trkpt>
      <trkpt lat="38.2993000" lon="-0.6726640">
        <ele>153.2</ele>
        <time>2017-12-18T15:43:02Z</time>
      </trkpt>
      <trkpt lat="38.2992630" lon="-0.6726870">
        <ele>153.2</ele>
        <time>2017-12-18T15:43:03Z</time>
      </trkpt>
      <trkpt lat="38.2992250" lon="-0.6727110">
        <ele>153.2</ele>
        <time>2017-12-18T15:43:04Z</time>
      </trkpt>
      <trkpt lat="38.2991870" lon="-0.6727330">
        <ele>153.2</ele>
        <time>2017-12-18T15:43:05Z</time>
      </trkpt>
      <trkpt lat="38.2991460" lon="-0.6727550">
        <ele>153.2</ele>
        <time>2017-12-18T15:43:06Z</time>
      </trkpt>
      <trkpt lat="38.2991050" lon="-0.6727780">
        <ele>153.2</ele>
        <time>2017-12-18T15:43:07Z</time>
      </trkpt>
      <trkpt lat="38.2990660" lon="-0.6728060">
        <ele>153.2</ele>
        <time>2017-12-18T15:43:08Z</time>
      </trkpt>
      <trkpt lat="38.2990250" lon="-0.6728280">
        <ele>153.2</ele>
        <time>2017-12-18T15:43:09Z</time>
      </trkpt>
      <trkpt lat="38.2989830" lon="-0.6728500">
        <ele>153.2</ele>
        <time>2017-12-18T15:43:10Z</time>
      </trkpt>
      <trkpt lat="38.2989400" lon="-0.6728720">
        <ele>154.1</ele>
        <time>2017-12-18T15:43:11Z</time>
      </trkpt>
      <trkpt lat="38.2988980" lon="-0.6728900">
        <ele>154.1</ele>
        <time>2017-12-18T15:43:12Z</time>
      </trkpt>
      <trkpt lat="38.2988490" lon="-0.6729110">
        <ele>154.1</ele>
        <time>2017-12-18T15:43:13Z</time>
      </trkpt>
      <trkpt lat="38.2987930" lon="-0.6729370">
        <ele>154.1</ele>
        <time>2017-12-18T15:43:14Z</time>
      </trkpt>
      <trkpt lat="38.2987270" lon="-0.6729650">
        <ele>154.1</ele>
        <time>2017-12-18T15:43:15Z</time>
      </trkpt>
      <trkpt lat="38.2986480" lon="-0.6729950">
        <ele>154.1</ele>
        <time>2017-12-18T15:43:16Z</time>
      </trkpt>
      <trkpt lat="38.2985740" lon="-0.6730210">
        <ele>154.1</ele>
        <time>2017-12-18T15:43:17Z</time>
      </trkpt>
      <trkpt lat="38.2985020" lon="-0.6730460">
        <ele>154.1</ele>
        <time>2017-12-18T15:43:18Z</time>
      </trkpt>
      <trkpt lat="38.2984270" lon="-0.6730690">
        <ele>148.1</ele>
        <time>2017-12-18T15:43:19Z</time>
      </trkpt>
      <trkpt lat="38.2983370" lon="-0.6730890">
        <ele>148.1</ele>
        <time>2017-12-18T15:43:20Z</time>
      </trkpt>
      <trkpt lat="38.2982530" lon="-0.6731060">
        <ele>147.2</ele>
        <time>2017-12-18T15:43:21Z</time>
      </trkpt>
      <trkpt lat="38.2981710" lon="-0.6731240">
        <ele>147.2</ele>
        <time>2017-12-18T15:43:22Z</time>
      </trkpt>
      <trkpt lat="38.2981010" lon="-0.6731500">
        <ele>146.2</ele>
        <time>2017-12-18T15:43:23Z</time>
      </trkpt>
      <trkpt lat="38.2980240" lon="-0.6731770">
        <ele>146.2</ele>
        <time>2017-12-18T15:43:24Z</time>
      </trkpt>
      <trkpt lat="38.2979390" lon="-0.6732790">
        <ele>145.1</ele>
        <time>2017-12-18T15:43:25Z</time>
      </trkpt>
      <trkpt lat="38.2979850" lon="-0.6734010">
        <ele>145.1</ele>
        <time>2017-12-18T15:43:26Z</time>
      </trkpt>
      <trkpt lat="38.2979370" lon="-0.6734690">
        <ele>145.1</ele>
        <time>2017-12-18T15:43:27Z</time>
      </trkpt>
      <trkpt lat="38.2978870" lon="-0.6735350">
        <ele>145.1</ele>
        <time>2017-12-18T15:43:28Z</time>
      </trkpt>
      <trkpt lat="38.2978410" lon="-0.6735970">
        <ele>145.1</ele>
        <time>2017-12-18T15:43:29Z</time>
      </trkpt>
      <trkpt lat="38.2978010" lon="-0.6736620">
        <ele>145.1</ele>
        <time>2017-12-18T15:43:30Z</time>
      </trkpt>
      <trkpt lat="38.2977660" lon="-0.6737320">
        <ele>145.1</ele>
        <time>2017-12-18T15:43:31Z</time>
      </trkpt>
      <trkpt lat="38.2977400" lon="-0.6738030">
        <ele>145.1</ele>
        <time>2017-12-18T15:43:32Z</time>
      </trkpt>
      <trkpt lat="38.2977140" lon="-0.6738740">
        <ele>145.1</ele>
        <time>2017-12-18T15:43:33Z</time>
      </trkpt>
      <trkpt lat="38.2976910" lon="-0.6739470">
        <ele>145.1</ele>
        <time>2017-12-18T15:43:34Z</time>
      </trkpt>
      <trkpt lat="38.2976730" lon="-0.6740210">
        <ele>145.1</ele>
        <time>2017-12-18T15:43:35Z</time>
      </trkpt>
      <trkpt lat="38.2976570" lon="-0.6740960">
        <ele>145.1</ele>
        <time>2017-12-18T15:43:36Z</time>
      </trkpt>
      <trkpt lat="38.2976470" lon="-0.6741710">
        <ele>145.1</ele>
        <time>2017-12-18T15:43:37Z</time>
      </trkpt>
      <trkpt lat="38.2976410" lon="-0.6742440">
        <ele>145.1</ele>
        <time>2017-12-18T15:43:38Z</time>
      </trkpt>
      <trkpt lat="38.2976320" lon="-0.6743180">
        <ele>145.1</ele>
        <time>2017-12-18T15:43:39Z</time>
      </trkpt>
      <trkpt lat="38.2976190" lon="-0.6743890">
        <ele>145.1</ele>
        <time>2017-12-18T15:43:40Z</time>
      </trkpt>
      <trkpt lat="38.2976010" lon="-0.6744600">
        <ele>145.1</ele>
        <time>2017-12-18T15:43:41Z</time>
      </trkpt>
      <trkpt lat="38.2975780" lon="-0.6745290">
        <ele>145.1</ele>
        <time>2017-12-18T15:43:42Z</time>
      </trkpt>
      <trkpt lat="38.2975520" lon="-0.6745970">
        <ele>145.1</ele>
        <time>2017-12-18T15:43:43Z</time>
      </trkpt>
      <trkpt lat="38.2975200" lon="-0.6746620">
        <ele>145.1</ele>
        <time>2017-12-18T15:43:44Z</time>
      </trkpt>
      <trkpt lat="38.2974830" lon="-0.6747230">
        <ele>145.1</ele>
        <time>2017-12-18T15:43:45Z</time>
      </trkpt>
      <trkpt lat="38.2974430" lon="-0.6747800">
        <ele>145.1</ele>
        <time>2017-12-18T15:43:46Z</time>
      </trkpt>
      <trkpt lat="38.2974010" lon="-0.6748340">
        <ele>145.1</ele>
        <time>2017-12-18T15:43:47Z</time>
      </trkpt>
      <trkpt lat="38.2973560" lon="-0.6748860">
        <ele>145.1</ele>
        <time>2017-12-18T15:43:48Z</time>
      </trkpt>
      <trkpt lat="38.2973130" lon="-0.6749310">
        <ele>145.1</ele>
        <time>2017-12-18T15:43:49Z</time>
      </trkpt>
      <trkpt lat="38.2972710" lon="-0.6749750">
        <ele>145.1</ele>
        <time>2017-12-18T15:43:50Z</time>
      </trkpt>
      <trkpt lat="38.2972290" lon="-0.6750130">
        <ele>145.1</ele>
        <time>2017-12-18T15:43:51Z</time>
      </trkpt>
      <trkpt lat="38.2971850" lon="-0.6750550">
        <ele>145.1</ele>
        <time>2017-12-18T15:43:52Z</time>
      </trkpt>
      <trkpt lat="38.2971410" lon="-0.6750770">
        <ele>145.1</ele>
        <time>2017-12-18T15:43:53Z</time>
      </trkpt>
      <trkpt lat="38.2970720" lon="-0.6750790">
        <ele>145.1</ele>
        <time>2017-12-18T15:43:54Z</time>
      </trkpt>
      <trkpt lat="38.2970190" lon="-0.6750970">
        <ele>146.2</ele>
        <time>2017-12-18T15:43:55Z</time>
      </trkpt>
      <trkpt lat="38.2969720" lon="-0.6751160">
        <ele>146.2</ele>
        <time>2017-12-18T15:43:56Z</time>
      </trkpt>
      <trkpt lat="38.2969260" lon="-0.6751320">
        <ele>146.2</ele>
        <time>2017-12-18T15:43:57Z</time>
      </trkpt>
      <trkpt lat="38.2968790" lon="-0.6751440">
        <ele>146.2</ele>
        <time>2017-12-18T15:43:58Z</time>
      </trkpt>
      <trkpt lat="38.2968340" lon="-0.6751580">
        <ele>147.2</ele>
        <time>2017-12-18T15:43:59Z</time>
      </trkpt>
      <trkpt lat="38.2967870" lon="-0.6751730">
        <ele>147.2</ele>
        <time>2017-12-18T15:44:00Z</time>
      </trkpt>
      <trkpt lat="38.2967350" lon="-0.6751790">
        <ele>147.2</ele>
        <time>2017-12-18T15:44:01Z</time>
      </trkpt>
      <trkpt lat="38.2966870" lon="-0.6751840">
        <ele>147.2</ele>
        <time>2017-12-18T15:44:02Z</time>
      </trkpt>
      <trkpt lat="38.2966370" lon="-0.6751890">
        <ele>147.2</ele>
        <time>2017-12-18T15:44:03Z</time>
      </trkpt>
      <trkpt lat="38.2965850" lon="-0.6751930">
        <ele>147.2</ele>
        <time>2017-12-18T15:44:04Z</time>
      </trkpt>
      <trkpt lat="38.2965320" lon="-0.6751990">
        <ele>148.1</ele>
        <time>2017-12-18T15:44:05Z</time>
      </trkpt>
      <trkpt lat="38.2964770" lon="-0.6752030">
        <ele>148.1</ele>
        <time>2017-12-18T15:44:06Z</time>
      </trkpt>
      <trkpt lat="38.2964230" lon="-0.6752100">
        <ele>148.1</ele>
        <time>2017-12-18T15:44:07Z</time>
      </trkpt>
      <trkpt lat="38.2963650" lon="-0.6752170">
        <ele>148.1</ele>
        <time>2017-12-18T15:44:08Z</time>
      </trkpt>
      <trkpt lat="38.2963050" lon="-0.6752220">
        <ele>148.1</ele>
        <time>2017-12-18T15:44:09Z</time>
      </trkpt>
      <trkpt lat="38.2962440" lon="-0.6752280">
        <ele>148.1</ele>
        <time>2017-12-18T15:44:10Z</time>
      </trkpt>
      <trkpt lat="38.2961810" lon="-0.6752340">
        <ele>148.1</ele>
        <time>2017-12-18T15:44:11Z</time>
      </trkpt>
      <trkpt lat="38.2961160" lon="-0.6752410">
        <ele>148.1</ele>
        <time>2017-12-18T15:44:12Z</time>
      </trkpt>
      <trkpt lat="38.2960500" lon="-0.6752490">
        <ele>147.2</ele>
        <time>2017-12-18T15:44:13Z</time>
      </trkpt>
      <trkpt lat="38.2959810" lon="-0.6752560">
        <ele>147.2</ele>
        <time>2017-12-18T15:44:14Z</time>
      </trkpt>
      <trkpt lat="38.2959120" lon="-0.6752620">
        <ele>147.2</ele>
        <time>2017-12-18T15:44:15Z</time>
      </trkpt>
      <trkpt lat="38.2958440" lon="-0.6752700">
        <ele>147.2</ele>
        <time>2017-12-18T15:44:16Z</time>
      </trkpt>
      <trkpt lat="38.2957740" lon="-0.6752790">
        <ele>146.2</ele>
        <time>2017-12-18T15:44:17Z</time>
      </trkpt>
      <trkpt lat="38.2957050" lon="-0.6752890">
        <ele>146.2</ele>
        <time>2017-12-18T15:44:18Z</time>
      </trkpt>
      <trkpt lat="38.2956350" lon="-0.6752950">
        <ele>145.1</ele>
        <time>2017-12-18T15:44:19Z</time>
      </trkpt>
      <trkpt lat="38.2955630" lon="-0.6753040">
        <ele>145.1</ele>
        <time>2017-12-18T15:44:20Z</time>
      </trkpt>
      <trkpt lat="38.2954900" lon="-0.6753110">
        <ele>145.1</ele>
        <time>2017-12-18T15:44:21Z</time>
      </trkpt>
      <trkpt lat="38.2954170" lon="-0.6753170">
        <ele>145.1</ele>
        <time>2017-12-18T15:44:22Z</time>
      </trkpt>
      <trkpt lat="38.2953440" lon="-0.6753250">
        <ele>145.1</ele>
        <time>2017-12-18T15:44:23Z</time>
      </trkpt>
      <trkpt lat="38.2952710" lon="-0.6753350">
        <ele>145.1</ele>
        <time>2017-12-18T15:44:24Z</time>
      </trkpt>
      <trkpt lat="38.2951980" lon="-0.6753450">
        <ele>144.2</ele>
        <time>2017-12-18T15:44:25Z</time>
      </trkpt>
      <trkpt lat="38.2951230" lon="-0.6753550">
        <ele>144.2</ele>
        <time>2017-12-18T15:44:26Z</time>
      </trkpt>
      <trkpt lat="38.2950480" lon="-0.6753640">
        <ele>144.2</ele>
        <time>2017-12-18T15:44:27Z</time>
      </trkpt>
      <trkpt lat="38.2949730" lon="-0.6753730">
        <ele>144.2</ele>
        <time>2017-12-18T15:44:28Z</time>
      </trkpt>
      <trkpt lat="38.2948980" lon="-0.6753820">
        <ele>144.2</ele>
        <time>2017-12-18T15:44:29Z</time>
      </trkpt>
      <trkpt lat="38.2948260" lon="-0.6753910">
        <ele>144.2</ele>
        <time>2017-12-18T15:44:30Z</time>
      </trkpt>
      <trkpt lat="38.2947550" lon="-0.6753980">
        <ele>143.1</ele>
        <time>2017-12-18T15:44:31Z</time>
      </trkpt>
      <trkpt lat="38.2946850" lon="-0.6754100">
        <ele>143.1</ele>
        <time>2017-12-18T15:44:32Z</time>
      </trkpt>
      <trkpt lat="38.2946170" lon="-0.6754220">
        <ele>143.1</ele>
        <time>2017-12-18T15:44:33Z</time>
      </trkpt>
      <trkpt lat="38.2945490" lon="-0.6754310">
        <ele>143.1</ele>
        <time>2017-12-18T15:44:34Z</time>
      </trkpt>
      <trkpt lat="38.2944810" lon="-0.6754380">
        <ele>143.1</ele>
        <time>2017-12-18T15:44:35Z</time>
      </trkpt>
      <trkpt lat="38.2944150" lon="-0.6754470">
        <ele>143.1</ele>
        <time>2017-12-18T15:44:36Z</time>
      </trkpt>
      <trkpt lat="38.2943480" lon="-0.6754520">
        <ele>143.1</ele>
        <time>2017-12-18T15:44:37Z</time>
      </trkpt>
      <trkpt lat="38.2942830" lon="-0.6754610">
        <ele>143.1</ele>
        <time>2017-12-18T15:44:38Z</time>
      </trkpt>
      <trkpt lat="38.2942170" lon="-0.6754730">
        <ele>143.1</ele>
        <time>2017-12-18T15:44:39Z</time>
      </trkpt>
      <trkpt lat="38.2941520" lon="-0.6754850">
        <ele>143.1</ele>
        <time>2017-12-18T15:44:40Z</time>
      </trkpt>
      <trkpt lat="38.2940870" lon="-0.6754930">
        <ele>143.1</ele>
        <time>2017-12-18T15:44:41Z</time>
      </trkpt>
      <trkpt lat="38.2940250" lon="-0.6755000">
        <ele>143.1</ele>
        <time>2017-12-18T15:44:42Z</time>
      </trkpt>
      <trkpt lat="38.2939620" lon="-0.6755090">
        <ele>143.1</ele>
        <time>2017-12-18T15:44:43Z</time>
      </trkpt>
      <trkpt lat="38.2938970" lon="-0.6755140">
        <ele>143.1</ele>
        <time>2017-12-18T15:44:44Z</time>
      </trkpt>
      <trkpt lat="38.2938320" lon="-0.6755220">
        <ele>143.1</ele>
        <time>2017-12-18T15:44:45Z</time>
      </trkpt>
      <trkpt lat="38.2937670" lon="-0.6755320">
        <ele>143.1</ele>
        <time>2017-12-18T15:44:46Z</time>
      </trkpt>
      <trkpt lat="38.2937030" lon="-0.6755430">
        <ele>143.1</ele>
        <time>2017-12-18T15:44:47Z</time>
      </trkpt>
      <trkpt lat="38.2936390" lon="-0.6755530">
        <ele>143.1</ele>
        <time>2017-12-18T15:44:48Z</time>
      </trkpt>
      <trkpt lat="38.2935730" lon="-0.6755640">
        <ele>142.2</ele>
        <time>2017-12-18T15:44:49Z</time>
      </trkpt>
      <trkpt lat="38.2935060" lon="-0.6755700">
        <ele>142.2</ele>
        <time>2017-12-18T15:44:50Z</time>
      </trkpt>
      <trkpt lat="38.2934360" lon="-0.6755760">
        <ele>142.2</ele>
        <time>2017-12-18T15:44:51Z</time>
      </trkpt>
      <trkpt lat="38.2933700" lon="-0.6755830">
        <ele>142.2</ele>
        <time>2017-12-18T15:44:52Z</time>
      </trkpt>
      <trkpt lat="38.2933080" lon="-0.6755900">
        <ele>142.2</ele>
        <time>2017-12-18T15:44:53Z</time>
      </trkpt>
      <trkpt lat="38.2932450" lon="-0.6756020">
        <ele>142.2</ele>
        <time>2017-12-18T15:44:54Z</time>
      </trkpt>
      <trkpt lat="38.2931820" lon="-0.6756160">
        <ele>142.2</ele>
        <time>2017-12-18T15:44:55Z</time>
      </trkpt>
      <trkpt lat="38.2931200" lon="-0.6756340">
        <ele>142.2</ele>
        <time>2017-12-18T15:44:56Z</time>
      </trkpt>
      <trkpt lat="38.2930580" lon="-0.6756560">
        <ele>142.2</ele>
        <time>2017-12-18T15:44:57Z</time>
      </trkpt>
      <trkpt lat="38.2929980" lon="-0.6756820">
        <ele>142.2</ele>
        <time>2017-12-18T15:44:58Z</time>
      </trkpt>
      <trkpt lat="38.2929400" lon="-0.6757110">
        <ele>141.1</ele>
        <time>2017-12-18T15:44:59Z</time>
      </trkpt>
      <trkpt lat="38.2928810" lon="-0.6757440">
        <ele>141.1</ele>
        <time>2017-12-18T15:45:00Z</time>
      </trkpt>
      <trkpt lat="38.2928230" lon="-0.6757800">
        <ele>141.1</ele>
        <time>2017-12-18T15:45:01Z</time>
      </trkpt>
      <trkpt lat="38.2927660" lon="-0.6758200">
        <ele>141.1</ele>
        <time>2017-12-18T15:45:02Z</time>
      </trkpt>
      <trkpt lat="38.2927100" lon="-0.6758610">
        <ele>141.1</ele>
        <time>2017-12-18T15:45:03Z</time>
      </trkpt>
      <trkpt lat="38.2926550" lon="-0.6759060">
        <ele>141.1</ele>
        <time>2017-12-18T15:45:04Z</time>
      </trkpt>
      <trkpt lat="38.2926000" lon="-0.6759520">
        <ele>141.1</ele>
        <time>2017-12-18T15:45:05Z</time>
      </trkpt>
      <trkpt lat="38.2925440" lon="-0.6759980">
        <ele>141.1</ele>
        <time>2017-12-18T15:45:06Z</time>
      </trkpt>
      <trkpt lat="38.2924890" lon="-0.6760440">
        <ele>140.2</ele>
        <time>2017-12-18T15:45:07Z</time>
      </trkpt>
      <trkpt lat="38.2924340" lon="-0.6760900">
        <ele>140.2</ele>
        <time>2017-12-18T15:45:08Z</time>
      </trkpt>
      <trkpt lat="38.2923780" lon="-0.6761340">
        <ele>140.2</ele>
        <time>2017-12-18T15:45:09Z</time>
      </trkpt>
      <trkpt lat="38.2923210" lon="-0.6761760">
        <ele>140.2</ele>
        <time>2017-12-18T15:45:10Z</time>
      </trkpt>
      <trkpt lat="38.2922660" lon="-0.6762220">
        <ele>140.2</ele>
        <time>2017-12-18T15:45:11Z</time>
      </trkpt>
      <trkpt lat="38.2922120" lon="-0.6762670">
        <ele>140.2</ele>
        <time>2017-12-18T15:45:12Z</time>
      </trkpt>
      <trkpt lat="38.2921570" lon="-0.6763100">
        <ele>140.2</ele>
        <time>2017-12-18T15:45:13Z</time>
      </trkpt>
      <trkpt lat="38.2921040" lon="-0.6763500">
        <ele>140.2</ele>
        <time>2017-12-18T15:45:14Z</time>
      </trkpt>
      <trkpt lat="38.2920480" lon="-0.6763940">
        <ele>140.2</ele>
        <time>2017-12-18T15:45:15Z</time>
      </trkpt>
      <trkpt lat="38.2919940" lon="-0.6764370">
        <ele>140.2</ele>
        <time>2017-12-18T15:45:16Z</time>
      </trkpt>
      <trkpt lat="38.2919380" lon="-0.6764770">
        <ele>140.2</ele>
        <time>2017-12-18T15:45:17Z</time>
      </trkpt>
      <trkpt lat="38.2918790" lon="-0.6765130">
        <ele>140.2</ele>
        <time>2017-12-18T15:45:18Z</time>
      </trkpt>
      <trkpt lat="38.2918200" lon="-0.6765460">
        <ele>140.2</ele>
        <time>2017-12-18T15:45:19Z</time>
      </trkpt>
      <trkpt lat="38.2917600" lon="-0.6765780">
        <ele>140.2</ele>
        <time>2017-12-18T15:45:20Z</time>
      </trkpt>
      <trkpt lat="38.2916990" lon="-0.6766080">
        <ele>140.2</ele>
        <time>2017-12-18T15:45:21Z</time>
      </trkpt>
      <trkpt lat="38.2916360" lon="-0.6766350">
        <ele>140.2</ele>
        <time>2017-12-18T15:45:22Z</time>
      </trkpt>
      <trkpt lat="38.2915730" lon="-0.6766590">
        <ele>140.2</ele>
        <time>2017-12-18T15:45:23Z</time>
      </trkpt>
      <trkpt lat="38.2915080" lon="-0.6766770">
        <ele>140.2</ele>
        <time>2017-12-18T15:45:24Z</time>
      </trkpt>
      <trkpt lat="38.2914430" lon="-0.6766900">
        <ele>139.1</ele>
        <time>2017-12-18T15:45:25Z</time>
      </trkpt>
      <trkpt lat="38.2913780" lon="-0.6767010">
        <ele>139.1</ele>
        <time>2017-12-18T15:45:26Z</time>
      </trkpt>
      <trkpt lat="38.2913120" lon="-0.6767100">
        <ele>139.1</ele>
        <time>2017-12-18T15:45:27Z</time>
      </trkpt>
      <trkpt lat="38.2912450" lon="-0.6767170">
        <ele>139.1</ele>
        <time>2017-12-18T15:45:28Z</time>
      </trkpt>
      <trkpt lat="38.2911790" lon="-0.6767230">
        <ele>139.1</ele>
        <time>2017-12-18T15:45:29Z</time>
      </trkpt>
      <trkpt lat="38.2911120" lon="-0.6767280">
        <ele>139.1</ele>
        <time>2017-12-18T15:45:30Z</time>
      </trkpt>
      <trkpt lat="38.2910460" lon="-0.6767350">
        <ele>139.1</ele>
        <time>2017-12-18T15:45:31Z</time>
      </trkpt>
      <trkpt lat="38.2909810" lon="-0.6767430">
        <ele>139.1</ele>
        <time>2017-12-18T15:45:32Z</time>
      </trkpt>
      <trkpt lat="38.2909180" lon="-0.6767550">
        <ele>139.1</ele>
        <time>2017-12-18T15:45:33Z</time>
      </trkpt>
      <trkpt lat="38.2908530" lon="-0.6767690">
        <ele>139.1</ele>
        <time>2017-12-18T15:45:34Z</time>
      </trkpt>
      <trkpt lat="38.2907890" lon="-0.6767840">
        <ele>139.1</ele>
        <time>2017-12-18T15:45:35Z</time>
      </trkpt>
      <trkpt lat="38.2907250" lon="-0.6768010">
        <ele>139.1</ele>
        <time>2017-12-18T15:45:36Z</time>
      </trkpt>
      <trkpt lat="38.2906630" lon="-0.6768210">
        <ele>139.1</ele>
        <time>2017-12-18T15:45:37Z</time>
      </trkpt>
      <trkpt lat="38.2905990" lon="-0.6768410">
        <ele>139.1</ele>
        <time>2017-12-18T15:45:38Z</time>
      </trkpt>
      <trkpt lat="38.2905360" lon="-0.6768630">
        <ele>138.1</ele>
        <time>2017-12-18T15:45:39Z</time>
      </trkpt>
      <trkpt lat="38.2904730" lon="-0.6768850">
        <ele>138.1</ele>
        <time>2017-12-18T15:45:40Z</time>
      </trkpt>
      <trkpt lat="38.2904120" lon="-0.6769060">
        <ele>138.1</ele>
        <time>2017-12-18T15:45:41Z</time>
      </trkpt>
      <trkpt lat="38.2903500" lon="-0.6769300">
        <ele>138.1</ele>
        <time>2017-12-18T15:45:42Z</time>
      </trkpt>
      <trkpt lat="38.2902890" lon="-0.6769540">
        <ele>138.1</ele>
        <time>2017-12-18T15:45:43Z</time>
      </trkpt>
      <trkpt lat="38.2902270" lon="-0.6769790">
        <ele>138.1</ele>
        <time>2017-12-18T15:45:44Z</time>
      </trkpt>
      <trkpt lat="38.2901650" lon="-0.6770040">
        <ele>137.2</ele>
        <time>2017-12-18T15:45:45Z</time>
      </trkpt>
      <trkpt lat="38.2901010" lon="-0.6770330">
        <ele>137.2</ele>
        <time>2017-12-18T15:45:46Z</time>
      </trkpt>
      <trkpt lat="38.2900370" lon="-0.6770620">
        <ele>137.2</ele>
        <time>2017-12-18T15:45:47Z</time>
      </trkpt>
      <trkpt lat="38.2899730" lon="-0.6770910">
        <ele>137.2</ele>
        <time>2017-12-18T15:45:48Z</time>
      </trkpt>
      <trkpt lat="38.2899070" lon="-0.6771210">
        <ele>137.2</ele>
        <time>2017-12-18T15:45:49Z</time>
      </trkpt>
      <trkpt lat="38.2898400" lon="-0.6771500">
        <ele>137.2</ele>
        <time>2017-12-18T15:45:50Z</time>
      </trkpt>
      <trkpt lat="38.2897730" lon="-0.6771810">
        <ele>137.2</ele>
        <time>2017-12-18T15:45:51Z</time>
      </trkpt>
      <trkpt lat="38.2897050" lon="-0.6772120">
        <ele>137.2</ele>
        <time>2017-12-18T15:45:52Z</time>
      </trkpt>
      <trkpt lat="38.2896380" lon="-0.6772440">
        <ele>137.2</ele>
        <time>2017-12-18T15:45:53Z</time>
      </trkpt>
      <trkpt lat="38.2895720" lon="-0.6772790">
        <ele>137.2</ele>
        <time>2017-12-18T15:45:54Z</time>
      </trkpt>
      <trkpt lat="38.2895040" lon="-0.6773120">
        <ele>137.2</ele>
        <time>2017-12-18T15:45:55Z</time>
      </trkpt>
      <trkpt lat="38.2894370" lon="-0.6773440">
        <ele>137.2</ele>
        <time>2017-12-18T15:45:56Z</time>
      </trkpt>
      <trkpt lat="38.2893680" lon="-0.6773750">
        <ele>135.2</ele>
        <time>2017-12-18T15:45:57Z</time>
      </trkpt>
      <trkpt lat="38.2893000" lon="-0.6774030">
        <ele>135.2</ele>
        <time>2017-12-18T15:45:58Z</time>
      </trkpt>
      <trkpt lat="38.2892310" lon="-0.6774320">
        <ele>135.2</ele>
        <time>2017-12-18T15:45:59Z</time>
      </trkpt>
      <trkpt lat="38.2891610" lon="-0.6774600">
        <ele>135.2</ele>
        <time>2017-12-18T15:46:00Z</time>
      </trkpt>
      <trkpt lat="38.2890900" lon="-0.6774850">
        <ele>135.2</ele>
        <time>2017-12-18T15:46:01Z</time>
      </trkpt>
      <trkpt lat="38.2890180" lon="-0.6775100">
        <ele>135.2</ele>
        <time>2017-12-18T15:46:02Z</time>
      </trkpt>
      <trkpt lat="38.2889460" lon="-0.6775350">
        <ele>134.1</ele>
        <time>2017-12-18T15:46:03Z</time>
      </trkpt>
      <trkpt lat="38.2888710" lon="-0.6775610">
        <ele>134.1</ele>
        <time>2017-12-18T15:46:04Z</time>
      </trkpt>
      <trkpt lat="38.2887950" lon="-0.6775850">
        <ele>134.1</ele>
        <time>2017-12-18T15:46:05Z</time>
      </trkpt>
      <trkpt lat="38.2887190" lon="-0.6776100">
        <ele>134.1</ele>
        <time>2017-12-18T15:46:06Z</time>
      </trkpt>
      <trkpt lat="38.2886430" lon="-0.6776330">
        <ele>134.1</ele>
        <time>2017-12-18T15:46:07Z</time>
      </trkpt>
      <trkpt lat="38.2885670" lon="-0.6776560">
        <ele>134.1</ele>
        <time>2017-12-18T15:46:08Z</time>
      </trkpt>
      <trkpt lat="38.2884910" lon="-0.6776780">
        <ele>134.1</ele>
        <time>2017-12-18T15:46:09Z</time>
      </trkpt>
      <trkpt lat="38.2884160" lon="-0.6776990">
        <ele>134.1</ele>
        <time>2017-12-18T15:46:10Z</time>
      </trkpt>
      <trkpt lat="38.2883400" lon="-0.6777230">
        <ele>132.1</ele>
        <time>2017-12-18T15:46:11Z</time>
      </trkpt>
      <trkpt lat="38.2882640" lon="-0.6777490">
        <ele>132.1</ele>
        <time>2017-12-18T15:46:12Z</time>
      </trkpt>
      <trkpt lat="38.2881890" lon="-0.6777750">
        <ele>132.1</ele>
        <time>2017-12-18T15:46:13Z</time>
      </trkpt>
      <trkpt lat="38.2881140" lon="-0.6778010">
        <ele>132.1</ele>
        <time>2017-12-18T15:46:14Z</time>
      </trkpt>
      <trkpt lat="38.2880380" lon="-0.6778310">
        <ele>131.2</ele>
        <time>2017-12-18T15:46:15Z</time>
      </trkpt>
      <trkpt lat="38.2879640" lon="-0.6778650">
        <ele>131.2</ele>
        <time>2017-12-18T15:46:16Z</time>
      </trkpt>
      <trkpt lat="38.2878920" lon="-0.6779000">
        <ele>131.2</ele>
        <time>2017-12-18T15:46:17Z</time>
      </trkpt>
      <trkpt lat="38.2878220" lon="-0.6779370">
        <ele>131.2</ele>
        <time>2017-12-18T15:46:18Z</time>
      </trkpt>
      <trkpt lat="38.2877510" lon="-0.6779740">
        <ele>131.2</ele>
        <time>2017-12-18T15:46:19Z</time>
      </trkpt>
      <trkpt lat="38.2876830" lon="-0.6780140">
        <ele>131.2</ele>
        <time>2017-12-18T15:46:20Z</time>
      </trkpt>
      <trkpt lat="38.2876150" lon="-0.6780550">
        <ele>131.2</ele>
        <time>2017-12-18T15:46:21Z</time>
      </trkpt>
      <trkpt lat="38.2875490" lon="-0.6781000">
        <ele>131.2</ele>
        <time>2017-12-18T15:46:22Z</time>
      </trkpt>
      <trkpt lat="38.2874850" lon="-0.6781480">
        <ele>131.2</ele>
        <time>2017-12-18T15:46:23Z</time>
      </trkpt>
      <trkpt lat="38.2874200" lon="-0.6781940">
        <ele>131.2</ele>
        <time>2017-12-18T15:46:24Z</time>
      </trkpt>
      <trkpt lat="38.2873540" lon="-0.6782390">
        <ele>130.2</ele>
        <time>2017-12-18T15:46:25Z</time>
      </trkpt>
      <trkpt lat="38.2872900" lon="-0.6782860">
        <ele>130.2</ele>
        <time>2017-12-18T15:46:26Z</time>
      </trkpt>
      <trkpt lat="38.2872270" lon="-0.6783360">
        <ele>130.2</ele>
        <time>2017-12-18T15:46:27Z</time>
      </trkpt>
      <trkpt lat="38.2871650" lon="-0.6783870">
        <ele>130.2</ele>
        <time>2017-12-18T15:46:28Z</time>
      </trkpt>
      <trkpt lat="38.2871030" lon="-0.6784370">
        <ele>130.2</ele>
        <time>2017-12-18T15:46:29Z</time>
      </trkpt>
      <trkpt lat="38.2870430" lon="-0.6784890">
        <ele>130.2</ele>
        <time>2017-12-18T15:46:30Z</time>
      </trkpt>
      <trkpt lat="38.2869820" lon="-0.6785390">
        <ele>129.1</ele>
        <time>2017-12-18T15:46:31Z</time>
      </trkpt>
      <trkpt lat="38.2869210" lon="-0.6785880">
        <ele>129.1</ele>
        <time>2017-12-18T15:46:32Z</time>
      </trkpt>
      <trkpt lat="38.2868600" lon="-0.6786370">
        <ele>129.1</ele>
        <time>2017-12-18T15:46:33Z</time>
      </trkpt>
      <trkpt lat="38.2867990" lon="-0.6786880">
        <ele>129.1</ele>
        <time>2017-12-18T15:46:34Z</time>
      </trkpt>
      <trkpt lat="38.2867390" lon="-0.6787400">
        <ele>128.2</ele>
        <time>2017-12-18T15:46:35Z</time>
      </trkpt>
      <trkpt lat="38.2866800" lon="-0.6787910">
        <ele>128.2</ele>
        <time>2017-12-18T15:46:36Z</time>
      </trkpt>
      <trkpt lat="38.2866220" lon="-0.6788420">
        <ele>128.2</ele>
        <time>2017-12-18T15:46:37Z</time>
      </trkpt>
      <trkpt lat="38.2865640" lon="-0.6788950">
        <ele>128.2</ele>
        <time>2017-12-18T15:46:38Z</time>
      </trkpt>
      <trkpt lat="38.2865090" lon="-0.6789520">
        <ele>128.2</ele>
        <time>2017-12-18T15:46:39Z</time>
      </trkpt>
      <trkpt lat="38.2864530" lon="-0.6790070">
        <ele>128.2</ele>
        <time>2017-12-18T15:46:40Z</time>
      </trkpt>
      <trkpt lat="38.2863970" lon="-0.6790600">
        <ele>128.2</ele>
        <time>2017-12-18T15:46:41Z</time>
      </trkpt>
      <trkpt lat="38.2863440" lon="-0.6791160">
        <ele>128.2</ele>
        <time>2017-12-18T15:46:42Z</time>
      </trkpt>
      <trkpt lat="38.2862910" lon="-0.6791710">
        <ele>128.2</ele>
        <time>2017-12-18T15:46:43Z</time>
      </trkpt>
      <trkpt lat="38.2862400" lon="-0.6792280">
        <ele>128.2</ele>
        <time>2017-12-18T15:46:44Z</time>
      </trkpt>
      <trkpt lat="38.2861880" lon="-0.6792830">
        <ele>128.2</ele>
        <time>2017-12-18T15:46:45Z</time>
      </trkpt>
      <trkpt lat="38.2861330" lon="-0.6793350">
        <ele>128.2</ele>
        <time>2017-12-18T15:46:46Z</time>
      </trkpt>
      <trkpt lat="38.2860750" lon="-0.6793850">
        <ele>127.1</ele>
        <time>2017-12-18T15:46:47Z</time>
      </trkpt>
      <trkpt lat="38.2860150" lon="-0.6794340">
        <ele>127.1</ele>
        <time>2017-12-18T15:46:48Z</time>
      </trkpt>
      <trkpt lat="38.2859520" lon="-0.6794810">
        <ele>127.1</ele>
        <time>2017-12-18T15:46:49Z</time>
      </trkpt>
      <trkpt lat="38.2858870" lon="-0.6795240">
        <ele>127.1</ele>
        <time>2017-12-18T15:46:50Z</time>
      </trkpt>
      <trkpt lat="38.2858190" lon="-0.6795650">
        <ele>126.2</ele>
        <time>2017-12-18T15:46:51Z</time>
      </trkpt>
      <trkpt lat="38.2857490" lon="-0.6796010">
        <ele>126.2</ele>
        <time>2017-12-18T15:46:52Z</time>
      </trkpt>
      <trkpt lat="38.2856780" lon="-0.6796350">
        <ele>126.2</ele>
        <time>2017-12-18T15:46:53Z</time>
      </trkpt>
      <trkpt lat="38.2856050" lon="-0.6796690">
        <ele>126.2</ele>
        <time>2017-12-18T15:46:54Z</time>
      </trkpt>
      <trkpt lat="38.2855340" lon="-0.6797050">
        <ele>125.1</ele>
        <time>2017-12-18T15:46:55Z</time>
      </trkpt>
      <trkpt lat="38.2854630" lon="-0.6797430">
        <ele>125.1</ele>
        <time>2017-12-18T15:46:56Z</time>
      </trkpt>
      <trkpt lat="38.2853930" lon="-0.6797770">
        <ele>125.1</ele>
        <time>2017-12-18T15:46:57Z</time>
      </trkpt>
      <trkpt lat="38.2853220" lon="-0.6798120">
        <ele>125.1</ele>
        <time>2017-12-18T15:46:58Z</time>
      </trkpt>
      <trkpt lat="38.2852500" lon="-0.6798460">
        <ele>125.1</ele>
        <time>2017-12-18T15:46:59Z</time>
      </trkpt>
      <trkpt lat="38.2851790" lon="-0.6798780">
        <ele>125.1</ele>
        <time>2017-12-18T15:47:00Z</time>
      </trkpt>
      <trkpt lat="38.2851090" lon="-0.6799110">
        <ele>125.1</ele>
        <time>2017-12-18T15:47:01Z</time>
      </trkpt>
      <trkpt lat="38.2850390" lon="-0.6799480">
        <ele>125.1</ele>
        <time>2017-12-18T15:47:02Z</time>
      </trkpt>
      <trkpt lat="38.2849690" lon="-0.6799850">
        <ele>124.2</ele>
        <time>2017-12-18T15:47:03Z</time>
      </trkpt>
      <trkpt lat="38.2849000" lon="-0.6800220">
        <ele>124.2</ele>
        <time>2017-12-18T15:47:04Z</time>
      </trkpt>
      <trkpt lat="38.2848350" lon="-0.6800630">
        <ele>124.2</ele>
        <time>2017-12-18T15:47:05Z</time>
      </trkpt>
      <trkpt lat="38.2847650" lon="-0.6801040">
        <ele>124.2</ele>
        <time>2017-12-18T15:47:06Z</time>
      </trkpt>
      <trkpt lat="38.2846950" lon="-0.6801490">
        <ele>124.2</ele>
        <time>2017-12-18T15:47:07Z</time>
      </trkpt>
      <trkpt lat="38.2846280" lon="-0.6801960">
        <ele>124.2</ele>
        <time>2017-12-18T15:47:08Z</time>
      </trkpt>
      <trkpt lat="38.2845570" lon="-0.6802460">
        <ele>123.1</ele>
        <time>2017-12-18T15:47:09Z</time>
      </trkpt>
      <trkpt lat="38.2844880" lon="-0.6802990">
        <ele>123.1</ele>
        <time>2017-12-18T15:47:10Z</time>
      </trkpt>
      <trkpt lat="38.2844230" lon="-0.6803530">
        <ele>123.1</ele>
        <time>2017-12-18T15:47:11Z</time>
      </trkpt>
      <trkpt lat="38.2843570" lon="-0.6804090">
        <ele>123.1</ele>
        <time>2017-12-18T15:47:12Z</time>
      </trkpt>
      <trkpt lat="38.2842930" lon="-0.6804650">
        <ele>122.1</ele>
        <time>2017-12-18T15:47:13Z</time>
      </trkpt>
      <trkpt lat="38.2842300" lon="-0.6805220">
        <ele>122.1</ele>
        <time>2017-12-18T15:47:14Z</time>
      </trkpt>
      <trkpt lat="38.2841680" lon="-0.6805790">
        <ele>121.2</ele>
        <time>2017-12-18T15:47:15Z</time>
      </trkpt>
      <trkpt lat="38.2841070" lon="-0.6806350">
        <ele>121.2</ele>
        <time>2017-12-18T15:47:16Z</time>
      </trkpt>
      <trkpt lat="38.2840460" lon="-0.6806910">
        <ele>120.1</ele>
        <time>2017-12-18T15:47:17Z</time>
      </trkpt>
      <trkpt lat="38.2839880" lon="-0.6807460">
        <ele>120.1</ele>
        <time>2017-12-18T15:47:18Z</time>
      </trkpt>
      <trkpt lat="38.2839290" lon="-0.6808040">
        <ele>120.1</ele>
        <time>2017-12-18T15:47:19Z</time>
      </trkpt>
      <trkpt lat="38.2838710" lon="-0.6808620">
        <ele>120.1</ele>
        <time>2017-12-18T15:47:20Z</time>
      </trkpt>
      <trkpt lat="38.2838130" lon="-0.6809190">
        <ele>120.1</ele>
        <time>2017-12-18T15:47:21Z</time>
      </trkpt>
      <trkpt lat="38.2837560" lon="-0.6809750">
        <ele>120.1</ele>
        <time>2017-12-18T15:47:22Z</time>
      </trkpt>
      <trkpt lat="38.2837020" lon="-0.6810320">
        <ele>120.1</ele>
        <time>2017-12-18T15:47:23Z</time>
      </trkpt>
      <trkpt lat="38.2836490" lon="-0.6810900">
        <ele>120.1</ele>
        <time>2017-12-18T15:47:24Z</time>
      </trkpt>
      <trkpt lat="38.2835970" lon="-0.6811490">
        <ele>119.2</ele>
        <time>2017-12-18T15:47:25Z</time>
      </trkpt>
      <trkpt lat="38.2835500" lon="-0.6812110">
        <ele>119.2</ele>
        <time>2017-12-18T15:47:26Z</time>
      </trkpt>
      <trkpt lat="38.2835030" lon="-0.6812770">
        <ele>119.2</ele>
        <time>2017-12-18T15:47:27Z</time>
      </trkpt>
      <trkpt lat="38.2834570" lon="-0.6813410">
        <ele>119.2</ele>
        <time>2017-12-18T15:47:28Z</time>
      </trkpt>
      <trkpt lat="38.2834130" lon="-0.6814050">
        <ele>119.2</ele>
        <time>2017-12-18T15:47:29Z</time>
      </trkpt>
      <trkpt lat="38.2833700" lon="-0.6814680">
        <ele>119.2</ele>
        <time>2017-12-18T15:47:30Z</time>
      </trkpt>
      <trkpt lat="38.2833270" lon="-0.6815310">
        <ele>119.2</ele>
        <time>2017-12-18T15:47:31Z</time>
      </trkpt>
      <trkpt lat="38.2832860" lon="-0.6815940">
        <ele>119.2</ele>
        <time>2017-12-18T15:47:32Z</time>
      </trkpt>
      <trkpt lat="38.2832470" lon="-0.6816590">
        <ele>119.2</ele>
        <time>2017-12-18T15:47:33Z</time>
      </trkpt>
      <trkpt lat="38.2832110" lon="-0.6817230">
        <ele>119.2</ele>
        <time>2017-12-18T15:47:34Z</time>
      </trkpt>
      <trkpt lat="38.2831750" lon="-0.6817850">
        <ele>119.2</ele>
        <time>2017-12-18T15:47:35Z</time>
      </trkpt>
      <trkpt lat="38.2831380" lon="-0.6818460">
        <ele>119.2</ele>
        <time>2017-12-18T15:47:36Z</time>
      </trkpt>
      <trkpt lat="38.2831010" lon="-0.6819060">
        <ele>119.2</ele>
        <time>2017-12-18T15:47:37Z</time>
      </trkpt>
      <trkpt lat="38.2830640" lon="-0.6819660">
        <ele>119.2</ele>
        <time>2017-12-18T15:47:38Z</time>
      </trkpt>
      <trkpt lat="38.2830280" lon="-0.6820260">
        <ele>119.2</ele>
        <time>2017-12-18T15:47:39Z</time>
      </trkpt>
      <trkpt lat="38.2829920" lon="-0.6820820">
        <ele>119.2</ele>
        <time>2017-12-18T15:47:40Z</time>
      </trkpt>
      <trkpt lat="38.2829580" lon="-0.6821390">
        <ele>119.2</ele>
        <time>2017-12-18T15:47:41Z</time>
      </trkpt>
      <trkpt lat="38.2829270" lon="-0.6821980">
        <ele>119.2</ele>
        <time>2017-12-18T15:47:42Z</time>
      </trkpt>
      <trkpt lat="38.2829010" lon="-0.6822600">
        <ele>119.2</ele>
        <time>2017-12-18T15:47:43Z</time>
      </trkpt>
      <trkpt lat="38.2828840" lon="-0.6823250">
        <ele>119.2</ele>
        <time>2017-12-18T15:47:44Z</time>
      </trkpt>
      <trkpt lat="38.2828700" lon="-0.6823930">
        <ele>120.1</ele>
        <time>2017-12-18T15:47:45Z</time>
      </trkpt>
      <trkpt lat="38.2828530" lon="-0.6824680">
        <ele>120.1</ele>
        <time>2017-12-18T15:47:46Z</time>
      </trkpt>
      <trkpt lat="38.2828260" lon="-0.6825420">
        <ele>120.1</ele>
        <time>2017-12-18T15:47:47Z</time>
      </trkpt>
      <trkpt lat="38.2827900" lon="-0.6826150">
        <ele>120.1</ele>
        <time>2017-12-18T15:47:48Z</time>
      </trkpt>
      <trkpt lat="38.2827430" lon="-0.6826820">
        <ele>120.1</ele>
        <time>2017-12-18T15:47:49Z</time>
      </trkpt>
      <trkpt lat="38.2826890" lon="-0.6827410">
        <ele>120.1</ele>
        <time>2017-12-18T15:47:50Z</time>
      </trkpt>
      <trkpt lat="38.2826260" lon="-0.6827850">
        <ele>119.2</ele>
        <time>2017-12-18T15:47:51Z</time>
      </trkpt>
      <trkpt lat="38.2825560" lon="-0.6828100">
        <ele>119.2</ele>
        <time>2017-12-18T15:47:52Z</time>
      </trkpt>
      <trkpt lat="38.2824820" lon="-0.6828150">
        <ele>119.2</ele>
        <time>2017-12-18T15:47:53Z</time>
      </trkpt>
      <trkpt lat="38.2824070" lon="-0.6827960">
        <ele>119.2</ele>
        <time>2017-12-18T15:47:54Z</time>
      </trkpt>
      <trkpt lat="38.2823330" lon="-0.6827610">
        <ele>119.2</ele>
        <time>2017-12-18T15:47:55Z</time>
      </trkpt>
      <trkpt lat="38.2822580" lon="-0.6827210">
        <ele>119.2</ele>
        <time>2017-12-18T15:47:56Z</time>
      </trkpt>
      <trkpt lat="38.2821780" lon="-0.6826870">
        <ele>118.1</ele>
        <time>2017-12-18T15:47:57Z</time>
      </trkpt>
      <trkpt lat="38.2820960" lon="-0.6826780">
        <ele>118.1</ele>
        <time>2017-12-18T15:47:58Z</time>
      </trkpt>
      <trkpt lat="38.2820110" lon="-0.6826800">
        <ele>118.1</ele>
        <time>2017-12-18T15:47:59Z</time>
      </trkpt>
      <trkpt lat="38.2819280" lon="-0.6826910">
        <ele>118.1</ele>
        <time>2017-12-18T15:48:00Z</time>
      </trkpt>
      <trkpt lat="38.2818490" lon="-0.6827060">
        <ele>117.2</ele>
        <time>2017-12-18T15:48:01Z</time>
      </trkpt>
      <trkpt lat="38.2817700" lon="-0.6827300">
        <ele>117.2</ele>
        <time>2017-12-18T15:48:02Z</time>
      </trkpt>
      <trkpt lat="38.2816930" lon="-0.6827560">
        <ele>117.2</ele>
        <time>2017-12-18T15:48:03Z</time>
      </trkpt>
      <trkpt lat="38.2816170" lon="-0.6827780">
        <ele>117.2</ele>
        <time>2017-12-18T15:48:04Z</time>
      </trkpt>
      <trkpt lat="38.2815410" lon="-0.6827980">
        <ele>116.1</ele>
        <time>2017-12-18T15:48:05Z</time>
      </trkpt>
      <trkpt lat="38.2814650" lon="-0.6828160">
        <ele>116.1</ele>
        <time>2017-12-18T15:48:06Z</time>
      </trkpt>
      <trkpt lat="38.2813880" lon="-0.6828290">
        <ele>116.1</ele>
        <time>2017-12-18T15:48:07Z</time>
      </trkpt>
      <trkpt lat="38.2813120" lon="-0.6828380">
        <ele>116.1</ele>
        <time>2017-12-18T15:48:08Z</time>
      </trkpt>
      <trkpt lat="38.2812360" lon="-0.6828410">
        <ele>116.1</ele>
        <time>2017-12-18T15:48:09Z</time>
      </trkpt>
      <trkpt lat="38.2811620" lon="-0.6828410">
        <ele>116.1</ele>
        <time>2017-12-18T15:48:10Z</time>
      </trkpt>
      <trkpt lat="38.2810870" lon="-0.6828390">
        <ele>116.1</ele>
        <time>2017-12-18T15:48:11Z</time>
      </trkpt>
      <trkpt lat="38.2810150" lon="-0.6828340">
        <ele>116.1</ele>
        <time>2017-12-18T15:48:12Z</time>
      </trkpt>
      <trkpt lat="38.2809420" lon="-0.6828270">
        <ele>115.2</ele>
        <time>2017-12-18T15:48:13Z</time>
      </trkpt>
      <trkpt lat="38.2808700" lon="-0.6828140">
        <ele>115.2</ele>
        <time>2017-12-18T15:48:14Z</time>
      </trkpt>
      <trkpt lat="38.2807970" lon="-0.6827970">
        <ele>115.2</ele>
        <time>2017-12-18T15:48:15Z</time>
      </trkpt>
      <trkpt lat="38.2807250" lon="-0.6827770">
        <ele>115.2</ele>
        <time>2017-12-18T15:48:16Z</time>
      </trkpt>
      <trkpt lat="38.2806530" lon="-0.6827530">
        <ele>115.2</ele>
        <time>2017-12-18T15:48:17Z</time>
      </trkpt>
      <trkpt lat="38.2805820" lon="-0.6827250">
        <ele>115.2</ele>
        <time>2017-12-18T15:48:18Z</time>
      </trkpt>
      <trkpt lat="38.2805100" lon="-0.6826980">
        <ele>115.2</ele>
        <time>2017-12-18T15:48:19Z</time>
      </trkpt>
      <trkpt lat="38.2804390" lon="-0.6826700">
        <ele>115.2</ele>
        <time>2017-12-18T15:48:20Z</time>
      </trkpt>
      <trkpt lat="38.2803680" lon="-0.6826420">
        <ele>115.2</ele>
        <time>2017-12-18T15:48:21Z</time>
      </trkpt>
      <trkpt lat="38.2802970" lon="-0.6826140">
        <ele>115.2</ele>
        <time>2017-12-18T15:48:22Z</time>
      </trkpt>
      <trkpt lat="38.2802250" lon="-0.6825850">
        <ele>115.2</ele>
        <time>2017-12-18T15:48:23Z</time>
      </trkpt>
      <trkpt lat="38.2801550" lon="-0.6825560">
        <ele>115.2</ele>
        <time>2017-12-18T15:48:24Z</time>
      </trkpt>
      <trkpt lat="38.2800860" lon="-0.6825270">
        <ele>115.2</ele>
        <time>2017-12-18T15:48:25Z</time>
      </trkpt>
      <trkpt lat="38.2800160" lon="-0.6825000">
        <ele>115.2</ele>
        <time>2017-12-18T15:48:26Z</time>
      </trkpt>
      <trkpt lat="38.2799480" lon="-0.6824730">
        <ele>115.2</ele>
        <time>2017-12-18T15:48:27Z</time>
      </trkpt>
      <trkpt lat="38.2798790" lon="-0.6824460">
        <ele>115.2</ele>
        <time>2017-12-18T15:48:28Z</time>
      </trkpt>
      <trkpt lat="38.2798090" lon="-0.6824190">
        <ele>115.2</ele>
        <time>2017-12-18T15:48:29Z</time>
      </trkpt>
      <trkpt lat="38.2797410" lon="-0.6823930">
        <ele>115.2</ele>
        <time>2017-12-18T15:48:30Z</time>
      </trkpt>
      <trkpt lat="38.2796730" lon="-0.6823660">
        <ele>115.2</ele>
        <time>2017-12-18T15:48:31Z</time>
      </trkpt>
      <trkpt lat="38.2796070" lon="-0.6823380">
        <ele>115.2</ele>
        <time>2017-12-18T15:48:32Z</time>
      </trkpt>
      <trkpt lat="38.2795400" lon="-0.6823120">
        <ele>115.2</ele>
        <time>2017-12-18T15:48:33Z</time>
      </trkpt>
      <trkpt lat="38.2794730" lon="-0.6822840">
        <ele>115.2</ele>
        <time>2017-12-18T15:48:34Z</time>
      </trkpt>
      <trkpt lat="38.2794070" lon="-0.6822580">
        <ele>115.2</ele>
        <time>2017-12-18T15:48:35Z</time>
      </trkpt>
      <trkpt lat="38.2793410" lon="-0.6822310">
        <ele>115.2</ele>
        <time>2017-12-18T15:48:36Z</time>
      </trkpt>
      <trkpt lat="38.2792750" lon="-0.6822030">
        <ele>115.2</ele>
        <time>2017-12-18T15:48:37Z</time>
      </trkpt>
      <trkpt lat="38.2792080" lon="-0.6821760">
        <ele>115.2</ele>
        <time>2017-12-18T15:48:38Z</time>
      </trkpt>
      <trkpt lat="38.2791410" lon="-0.6821500">
        <ele>115.2</ele>
        <time>2017-12-18T15:48:39Z</time>
      </trkpt>
      <trkpt lat="38.2790740" lon="-0.6821240">
        <ele>115.2</ele>
        <time>2017-12-18T15:48:40Z</time>
      </trkpt>
      <trkpt lat="38.2790090" lon="-0.6820990">
        <ele>115.2</ele>
        <time>2017-12-18T15:48:41Z</time>
      </trkpt>
      <trkpt lat="38.2789440" lon="-0.6820730">
        <ele>115.2</ele>
        <time>2017-12-18T15:48:42Z</time>
      </trkpt>
      <trkpt lat="38.2788800" lon="-0.6820480">
        <ele>115.2</ele>
        <time>2017-12-18T15:48:43Z</time>
      </trkpt>
      <trkpt lat="38.2788190" lon="-0.6820200">
        <ele>115.2</ele>
        <time>2017-12-18T15:48:44Z</time>
      </trkpt>
      <trkpt lat="38.2787580" lon="-0.6819920">
        <ele>114.1</ele>
        <time>2017-12-18T15:48:45Z</time>
      </trkpt>
      <trkpt lat="38.2786950" lon="-0.6819630">
        <ele>114.1</ele>
        <time>2017-12-18T15:48:46Z</time>
      </trkpt>
      <trkpt lat="38.2786330" lon="-0.6819370">
        <ele>114.1</ele>
        <time>2017-12-18T15:48:47Z</time>
      </trkpt>
      <trkpt lat="38.2785700" lon="-0.6819130">
        <ele>114.1</ele>
        <time>2017-12-18T15:48:48Z</time>
      </trkpt>
      <trkpt lat="38.2785080" lon="-0.6818910">
        <ele>114.1</ele>
        <time>2017-12-18T15:48:49Z</time>
      </trkpt>
      <trkpt lat="38.2784440" lon="-0.6818670">
        <ele>114.1</ele>
        <time>2017-12-18T15:48:50Z</time>
      </trkpt>
      <trkpt lat="38.2783810" lon="-0.6818410">
        <ele>114.1</ele>
        <time>2017-12-18T15:48:51Z</time>
      </trkpt>
      <trkpt lat="38.2783190" lon="-0.6818140">
        <ele>114.1</ele>
        <time>2017-12-18T15:48:52Z</time>
      </trkpt>
      <trkpt lat="38.2782580" lon="-0.6817870">
        <ele>114.1</ele>
        <time>2017-12-18T15:48:53Z</time>
      </trkpt>
      <trkpt lat="38.2781960" lon="-0.6817630">
        <ele>114.1</ele>
        <time>2017-12-18T15:48:54Z</time>
      </trkpt>
      <trkpt lat="38.2781310" lon="-0.6817390">
        <ele>114.1</ele>
        <time>2017-12-18T15:48:55Z</time>
      </trkpt>
      <trkpt lat="38.2780680" lon="-0.6817180">
        <ele>114.1</ele>
        <time>2017-12-18T15:48:56Z</time>
      </trkpt>
      <trkpt lat="38.2780000" lon="-0.6817060">
        <ele>114.1</ele>
        <time>2017-12-18T15:48:57Z</time>
      </trkpt>
      <trkpt lat="38.2779320" lon="-0.6817120">
        <ele>114.1</ele>
        <time>2017-12-18T15:48:58Z</time>
      </trkpt>
      <trkpt lat="38.2778660" lon="-0.6817340">
        <ele>113.1</ele>
        <time>2017-12-18T15:48:59Z</time>
      </trkpt>
      <trkpt lat="38.2778010" lon="-0.6817570">
        <ele>113.1</ele>
        <time>2017-12-18T15:49:00Z</time>
      </trkpt>
      <trkpt lat="38.2777340" lon="-0.6817630">
        <ele>113.1</ele>
        <time>2017-12-18T15:49:01Z</time>
      </trkpt>
      <trkpt lat="38.2776680" lon="-0.6817460">
        <ele>113.1</ele>
        <time>2017-12-18T15:49:02Z</time>
      </trkpt>
      <trkpt lat="38.2776070" lon="-0.6817110">
        <ele>113.1</ele>
        <time>2017-12-18T15:49:03Z</time>
      </trkpt>
      <trkpt lat="38.2775530" lon="-0.6816600">
        <ele>113.1</ele>
        <time>2017-12-18T15:49:04Z</time>
      </trkpt>
      <trkpt lat="38.2775090" lon="-0.6815950">
        <ele>113.1</ele>
        <time>2017-12-18T15:49:05Z</time>
      </trkpt>
      <trkpt lat="38.2774730" lon="-0.6815210">
        <ele>113.1</ele>
        <time>2017-12-18T15:49:06Z</time>
      </trkpt>
      <trkpt lat="38.2774420" lon="-0.6814410">
        <ele>112.2</ele>
        <time>2017-12-18T15:49:07Z</time>
      </trkpt>
      <trkpt lat="38.2774060" lon="-0.6813640">
        <ele>112.2</ele>
        <time>2017-12-18T15:49:08Z</time>
      </trkpt>
      <trkpt lat="38.2773560" lon="-0.6813050">
        <ele>112.2</ele>
        <time>2017-12-18T15:49:09Z</time>
      </trkpt>
      <trkpt lat="38.2772970" lon="-0.6812720">
        <ele>112.2</ele>
        <time>2017-12-18T15:49:10Z</time>
      </trkpt>
      <trkpt lat="38.2772300" lon="-0.6812450">
        <ele>111.1</ele>
        <time>2017-12-18T15:49:11Z</time>
      </trkpt>
      <trkpt lat="38.2771630" lon="-0.6812200">
        <ele>111.1</ele>
        <time>2017-12-18T15:49:12Z</time>
      </trkpt>
      <trkpt lat="38.2770960" lon="-0.6811960">
        <ele>111.1</ele>
        <time>2017-12-18T15:49:13Z</time>
      </trkpt>
      <trkpt lat="38.2770290" lon="-0.6811720">
        <ele>111.1</ele>
        <time>2017-12-18T15:49:14Z</time>
      </trkpt>
      <trkpt lat="38.2769640" lon="-0.6811460">
        <ele>111.1</ele>
        <time>2017-12-18T15:49:15Z</time>
      </trkpt>
      <trkpt lat="38.2768980" lon="-0.6811170">
        <ele>111.1</ele>
        <time>2017-12-18T15:49:16Z</time>
      </trkpt>
      <trkpt lat="38.2768300" lon="-0.6810880">
        <ele>111.1</ele>
        <time>2017-12-18T15:49:17Z</time>
      </trkpt>
      <trkpt lat="38.2767610" lon="-0.6810570">
        <ele>111.1</ele>
        <time>2017-12-18T15:49:18Z</time>
      </trkpt>
      <trkpt lat="38.2766920" lon="-0.6810290">
        <ele>111.1</ele>
        <time>2017-12-18T15:49:19Z</time>
      </trkpt>
      <trkpt lat="38.2766250" lon="-0.6810000">
        <ele>111.1</ele>
        <time>2017-12-18T15:49:20Z</time>
      </trkpt>
      <trkpt lat="38.2765560" lon="-0.6809710">
        <ele>111.1</ele>
        <time>2017-12-18T15:49:21Z</time>
      </trkpt>
      <trkpt lat="38.2764860" lon="-0.6809420">
        <ele>111.1</ele>
        <time>2017-12-18T15:49:22Z</time>
      </trkpt>
      <trkpt lat="38.2764170" lon="-0.6809120">
        <ele>111.1</ele>
        <time>2017-12-18T15:49:23Z</time>
      </trkpt>
      <trkpt lat="38.2763480" lon="-0.6808820">
        <ele>111.1</ele>
        <time>2017-12-18T15:49:24Z</time>
      </trkpt>
      <trkpt lat="38.2762770" lon="-0.6808520">
        <ele>111.1</ele>
        <time>2017-12-18T15:49:25Z</time>
      </trkpt>
      <trkpt lat="38.2762070" lon="-0.6808230">
        <ele>111.1</ele>
        <time>2017-12-18T15:49:26Z</time>
      </trkpt>
      <trkpt lat="38.2761370" lon="-0.6807940">
        <ele>110.2</ele>
        <time>2017-12-18T15:49:27Z</time>
      </trkpt>
      <trkpt lat="38.2760670" lon="-0.6807670">
        <ele>110.2</ele>
        <time>2017-12-18T15:49:28Z</time>
      </trkpt>
      <trkpt lat="38.2760000" lon="-0.6807390">
        <ele>109.1</ele>
        <time>2017-12-18T15:49:29Z</time>
      </trkpt>
      <trkpt lat="38.2759320" lon="-0.6807150">
        <ele>109.1</ele>
        <time>2017-12-18T15:49:30Z</time>
      </trkpt>
      <trkpt lat="38.2758640" lon="-0.6806890">
        <ele>109.1</ele>
        <time>2017-12-18T15:49:31Z</time>
      </trkpt>
      <trkpt lat="38.2757960" lon="-0.6806610">
        <ele>109.1</ele>
        <time>2017-12-18T15:49:32Z</time>
      </trkpt>
      <trkpt lat="38.2757290" lon="-0.6806330">
        <ele>109.1</ele>
        <time>2017-12-18T15:49:33Z</time>
      </trkpt>
      <trkpt lat="38.2756630" lon="-0.6806060">
        <ele>109.1</ele>
        <time>2017-12-18T15:49:34Z</time>
      </trkpt>
      <trkpt lat="38.2755990" lon="-0.6805800">
        <ele>109.1</ele>
        <time>2017-12-18T15:49:35Z</time>
      </trkpt>
      <trkpt lat="38.2755330" lon="-0.6805540">
        <ele>109.1</ele>
        <time>2017-12-18T15:49:36Z</time>
      </trkpt>
      <trkpt lat="38.2754700" lon="-0.6805280">
        <ele>109.1</ele>
        <time>2017-12-18T15:49:37Z</time>
      </trkpt>
      <trkpt lat="38.2754080" lon="-0.6805020">
        <ele>109.1</ele>
        <time>2017-12-18T15:49:38Z</time>
      </trkpt>
      <trkpt lat="38.2753450" lon="-0.6804780">
        <ele>108.2</ele>
        <time>2017-12-18T15:49:39Z</time>
      </trkpt>
      <trkpt lat="38.2752800" lon="-0.6804560">
        <ele>108.2</ele>
        <time>2017-12-18T15:49:40Z</time>
      </trkpt>
      <trkpt lat="38.2752190" lon="-0.6804330">
        <ele>108.2</ele>
        <time>2017-12-18T15:49:41Z</time>
      </trkpt>
      <trkpt lat="38.2751580" lon="-0.6804090">
        <ele>108.2</ele>
        <time>2017-12-18T15:49:42Z</time>
      </trkpt>
      <trkpt lat="38.2751000" lon="-0.6803860">
        <ele>108.2</ele>
        <time>2017-12-18T15:49:43Z</time>
      </trkpt>
      <trkpt lat="38.2750440" lon="-0.6803610">
        <ele>108.2</ele>
        <time>2017-12-18T15:49:44Z</time>
      </trkpt>
      <trkpt lat="38.2749900" lon="-0.6803370">
        <ele>108.2</ele>
        <time>2017-12-18T15:49:45Z</time>
      </trkpt>
      <trkpt lat="38.2749520" lon="-0.6803240">
        <ele>108.2</ele>
        <time>2017-12-18T15:49:46Z</time>
      </trkpt>
      <trkpt lat="38.2749210" lon="-0.6803160">
        <ele>108.2</ele>
        <time>2017-12-18T15:49:47Z</time>
      </trkpt>
      <trkpt lat="38.2749060" lon="-0.6803150">
        <ele>108.2</ele>
        <time>2017-12-18T15:49:48Z</time>
      </trkpt>
      <trkpt lat="38.2748980" lon="-0.6803170">
        <ele>108.2</ele>
        <time>2017-12-18T15:49:49Z</time>
      </trkpt>
      <trkpt lat="38.2748970" lon="-0.6803160">
        <ele>108.2</ele>
        <time>2017-12-18T15:49:50Z</time>
      </trkpt>
      <trkpt lat="38.2748980" lon="-0.6803170">
        <ele>108.2</ele>
        <time>2017-12-18T15:49:51Z</time>
      </trkpt>
      <trkpt lat="38.2749000" lon="-0.6803180">
        <ele>108.2</ele>
        <time>2017-12-18T15:49:52Z</time>
      </trkpt>
      <trkpt lat="38.2748900" lon="-0.6803130">
        <ele>108.2</ele>
        <time>2017-12-18T15:49:53Z</time>
      </trkpt>
      <trkpt lat="38.2748710" lon="-0.6803110">
        <ele>108.2</ele>
        <time>2017-12-18T15:49:54Z</time>
      </trkpt>
      <trkpt lat="38.2748450" lon="-0.6803190">
        <ele>108.2</ele>
        <time>2017-12-18T15:49:55Z</time>
      </trkpt>
      <trkpt lat="38.2748180" lon="-0.6803330">
        <ele>108.2</ele>
        <time>2017-12-18T15:49:56Z</time>
      </trkpt>
      <trkpt lat="38.2747890" lon="-0.6803590">
        <ele>108.2</ele>
        <time>2017-12-18T15:49:57Z</time>
      </trkpt>
      <trkpt lat="38.2747530" lon="-0.6803930">
        <ele>108.2</ele>
        <time>2017-12-18T15:49:58Z</time>
      </trkpt>
      <trkpt lat="38.2747130" lon="-0.6804340">
        <ele>108.2</ele>
        <time>2017-12-18T15:49:59Z</time>
      </trkpt>
      <trkpt lat="38.2746750" lon="-0.6804790">
        <ele>108.2</ele>
        <time>2017-12-18T15:50:00Z</time>
      </trkpt>
      <trkpt lat="38.2746570" lon="-0.6805310">
        <ele>108.2</ele>
        <time>2017-12-18T15:50:01Z</time>
      </trkpt>
      <trkpt lat="38.2746440" lon="-0.6805900">
        <ele>108.2</ele>
        <time>2017-12-18T15:50:02Z</time>
      </trkpt>
      <trkpt lat="38.2746370" lon="-0.6806510">
        <ele>108.2</ele>
        <time>2017-12-18T15:50:03Z</time>
      </trkpt>
      <trkpt lat="38.2746270" lon="-0.6807110">
        <ele>108.2</ele>
        <time>2017-12-18T15:50:04Z</time>
      </trkpt>
      <trkpt lat="38.2746160" lon="-0.6807740">
        <ele>108.2</ele>
        <time>2017-12-18T15:50:05Z</time>
      </trkpt>
      <trkpt lat="38.2746040" lon="-0.6808370">
        <ele>108.2</ele>
        <time>2017-12-18T15:50:06Z</time>
      </trkpt>
      <trkpt lat="38.2745930" lon="-0.6809020">
        <ele>108.2</ele>
        <time>2017-12-18T15:50:07Z</time>
      </trkpt>
      <trkpt lat="38.2745840" lon="-0.6809670">
        <ele>108.2</ele>
        <time>2017-12-18T15:50:08Z</time>
      </trkpt>
      <trkpt lat="38.2745750" lon="-0.6810330">
        <ele>107.1</ele>
        <time>2017-12-18T15:50:09Z</time>
      </trkpt>
      <trkpt lat="38.2745640" lon="-0.6810980">
        <ele>107.1</ele>
        <time>2017-12-18T15:50:10Z</time>
      </trkpt>
      <trkpt lat="38.2745530" lon="-0.6811640">
        <ele>107.1</ele>
        <time>2017-12-18T15:50:11Z</time>
      </trkpt>
      <trkpt lat="38.2745440" lon="-0.6812290">
        <ele>107.1</ele>
        <time>2017-12-18T15:50:12Z</time>
      </trkpt>
      <trkpt lat="38.2745330" lon="-0.6812950">
        <ele>107.1</ele>
        <time>2017-12-18T15:50:13Z</time>
      </trkpt>
      <trkpt lat="38.2745210" lon="-0.6813610">
        <ele>107.1</ele>
        <time>2017-12-18T15:50:14Z</time>
      </trkpt>
      <trkpt lat="38.2745100" lon="-0.6814260">
        <ele>107.1</ele>
        <time>2017-12-18T15:50:15Z</time>
      </trkpt>
      <trkpt lat="38.2744990" lon="-0.6814910">
        <ele>107.1</ele>
        <time>2017-12-18T15:50:16Z</time>
      </trkpt>
      <trkpt lat="38.2744880" lon="-0.6815560">
        <ele>107.1</ele>
        <time>2017-12-18T15:50:17Z</time>
      </trkpt>
      <trkpt lat="38.2744760" lon="-0.6816220">
        <ele>107.1</ele>
        <time>2017-12-18T15:50:18Z</time>
      </trkpt>
      <trkpt lat="38.2744630" lon="-0.6816870">
        <ele>107.1</ele>
        <time>2017-12-18T15:50:19Z</time>
      </trkpt>
      <trkpt lat="38.2744510" lon="-0.6817530">
        <ele>107.1</ele>
        <time>2017-12-18T15:50:20Z</time>
      </trkpt>
      <trkpt lat="38.2744400" lon="-0.6818180">
        <ele>107.1</ele>
        <time>2017-12-18T15:50:21Z</time>
      </trkpt>
      <trkpt lat="38.2744290" lon="-0.6818830">
        <ele>107.1</ele>
        <time>2017-12-18T15:50:22Z</time>
      </trkpt>
      <trkpt lat="38.2744180" lon="-0.6819480">
        <ele>107.1</ele>
        <time>2017-12-18T15:50:23Z</time>
      </trkpt>
      <trkpt lat="38.2744080" lon="-0.6820140">
        <ele>107.1</ele>
        <time>2017-12-18T15:50:24Z</time>
      </trkpt>
      <trkpt lat="38.2743960" lon="-0.6820790">
        <ele>107.1</ele>
        <time>2017-12-18T15:50:25Z</time>
      </trkpt>
      <trkpt lat="38.2743830" lon="-0.6821430">
        <ele>107.1</ele>
        <time>2017-12-18T15:50:26Z</time>
      </trkpt>
      <trkpt lat="38.2743730" lon="-0.6822060">
        <ele>107.1</ele>
        <time>2017-12-18T15:50:27Z</time>
      </trkpt>
      <trkpt lat="38.2743630" lon="-0.6822680">
        <ele>107.1</ele>
        <time>2017-12-18T15:50:28Z</time>
      </trkpt>
      <trkpt lat="38.2743510" lon="-0.6823290">
        <ele>107.1</ele>
        <time>2017-12-18T15:50:29Z</time>
      </trkpt>
      <trkpt lat="38.2743400" lon="-0.6823890">
        <ele>107.1</ele>
        <time>2017-12-18T15:50:30Z</time>
      </trkpt>
      <trkpt lat="38.2743300" lon="-0.6824480">
        <ele>107.1</ele>
        <time>2017-12-18T15:50:31Z</time>
      </trkpt>
      <trkpt lat="38.2743180" lon="-0.6825040">
        <ele>107.1</ele>
        <time>2017-12-18T15:50:32Z</time>
      </trkpt>
      <trkpt lat="38.2742970" lon="-0.6825470">
        <ele>107.1</ele>
        <time>2017-12-18T15:50:33Z</time>
      </trkpt>
      <trkpt lat="38.2742560" lon="-0.6825690">
        <ele>107.1</ele>
        <time>2017-12-18T15:50:34Z</time>
      </trkpt>
      <trkpt lat="38.2742220" lon="-0.6825950">
        <ele>107.1</ele>
        <time>2017-12-18T15:50:35Z</time>
      </trkpt>
      <trkpt lat="38.2741990" lon="-0.6826350">
        <ele>107.1</ele>
        <time>2017-12-18T15:50:36Z</time>
      </trkpt>
    </trkseg>
  </trk>
</gpx>
